<?xml version='1.0' encoding='UTF-8'?><gpx version="1.1" creator="JPX - https://github.com/jenetics/jpx" xmlns="http://www.topografix.com/GPX/1/1"><trk><trkseg><trkpt lat="42.5222509" lon="14.1526071"><ele>1.9999999999999998</ele><time>2026-05-01T06:49:04.537Z</time></trkpt><trkpt lat="42.5221849" lon="14.1525452"><ele>2.0</ele><time>2026-05-01T06:49:08.537Z</time></trkpt><trkpt lat="42.5221252" lon="14.1524613"><ele>2.0</ele><time>2026-05-01T06:49:11.537Z</time></trkpt><trkpt lat="42.522104" lon="14.1523733"><ele>2.0</ele><time>2026-05-01T06:49:14.539Z</time></trkpt><trkpt lat="42.5220667" lon="14.1522819"><ele>1.9999999999999998</ele><time>2026-05-01T06:49:18.538Z</time></trkpt><trkpt lat="42.5220239" lon="14.1521998"><ele>2.0</ele><time>2026-05-01T06:49:22.537Z</time></trkpt><trkpt lat="42.5219746" lon="14.1521233"><ele>1.7142857142857142</ele><time>2026-05-01T06:49:24.539Z</time></trkpt><trkpt lat="42.5219359" lon="14.1520488"><ele>1.4285714285714284</ele><time>2026-05-01T06:49:26.537Z</time></trkpt><trkpt lat="42.5218765" lon="14.1519897"><ele>1.1428571428571428</ele><time>2026-05-01T06:49:29.538Z</time></trkpt><trkpt lat="42.5218064" lon="14.1520199"><ele>0.8571428571428571</ele><time>2026-05-01T06:49:32.538Z</time></trkpt><trkpt lat="42.5217838" lon="14.1521149"><ele>0.5714285714285714</ele><time>2026-05-01T06:49:36.539Z</time></trkpt><trkpt lat="42.5218129" lon="14.1522187"><ele>0.2857142857142857</ele><time>2026-05-01T06:49:40.538Z</time></trkpt><trkpt lat="42.5218421" lon="14.1523034"><ele>0.0</ele><time>2026-05-01T06:49:43.538Z</time></trkpt><trkpt lat="42.5218782" lon="14.1523828"><ele>-0.14285714285714285</ele><time>2026-05-01T06:49:47.537Z</time></trkpt><trkpt lat="42.5219239" lon="14.1524713"><ele>-0.2857142857142857</ele><time>2026-05-01T06:52:08.537Z</time></trkpt><trkpt lat="42.5219506" lon="14.1525489"><ele>-0.42857142857142855</ele><time>2026-05-01T06:52:12.536Z</time></trkpt><trkpt lat="42.5219937" lon="14.1526258"><ele>-0.5714285714285714</ele><time>2026-05-01T06:52:16.536Z</time></trkpt><trkpt lat="42.5220261" lon="14.1527029"><ele>-0.7142857142857142</ele><time>2026-05-01T06:52:39.537Z</time></trkpt><trkpt lat="42.5220716" lon="14.1528005"><ele>-0.8571428571428571</ele><time>2026-05-01T06:52:42.536Z</time></trkpt><trkpt lat="42.5221087" lon="14.1528935"><ele>-1.0</ele><time>2026-05-01T06:52:44.536Z</time></trkpt><trkpt lat="42.5221537" lon="14.152983"><ele>-0.49999999999999994</ele><time>2026-05-01T06:52:46.536Z</time></trkpt><trkpt lat="42.5221999" lon="14.1530837"><ele>0.0</ele><time>2026-05-01T06:52:48.536Z</time></trkpt><trkpt lat="42.5222504" lon="14.1531588"><ele>0.5</ele><time>2026-05-01T06:52:50.536Z</time></trkpt><trkpt lat="42.5223348" lon="14.1531209"><ele>1.0</ele><time>2026-05-01T06:52:52.537Z</time></trkpt><trkpt lat="42.52242" lon="14.1530775"><ele>1.4999999999999998</ele><time>2026-05-01T06:52:54.536Z</time></trkpt><trkpt lat="42.5224818" lon="14.1530198"><ele>2.0</ele><time>2026-05-01T07:03:54.531Z</time></trkpt><trkpt lat="42.5225473" lon="14.1529478"><ele>1.9999999999999998</ele><time>2026-05-01T07:03:56.531Z</time></trkpt><trkpt lat="42.5226081" lon="14.1528987"><ele>2.0</ele><time>2026-05-01T07:03:57.531Z</time></trkpt><trkpt lat="42.5226909" lon="14.1528973"><ele>2.0</ele><time>2026-05-01T07:03:59.53Z</time></trkpt><trkpt lat="42.5226945" lon="14.1530032"><ele>2.0</ele><time>2026-05-01T07:04:01.531Z</time></trkpt><trkpt lat="42.5225941" lon="14.1530986"><ele>1.9999999999999998</ele><time>2026-05-01T07:04:03.531Z</time></trkpt><trkpt lat="42.522529" lon="14.1531521"><ele>2.0</ele><time>2026-05-01T07:04:04.531Z</time></trkpt><trkpt lat="42.5224683" lon="14.1532047"><ele>1.9999999999999998</ele><time>2026-05-01T07:04:05.532Z</time></trkpt><trkpt lat="42.5224086" lon="14.1532555"><ele>2.0</ele><time>2026-05-01T07:04:06.53Z</time></trkpt><trkpt lat="42.5223423" lon="14.1533129"><ele>2.0</ele><time>2026-05-01T07:04:07.53Z</time></trkpt><trkpt lat="42.5222675" lon="14.1533805"><ele>2.0</ele><time>2026-05-01T07:04:08.531Z</time></trkpt><trkpt lat="42.5221913" lon="14.1534479"><ele>1.9999999999999998</ele><time>2026-05-01T07:04:09.531Z</time></trkpt><trkpt lat="42.5221198" lon="14.1535098"><ele>2.0</ele><time>2026-05-01T07:04:10.531Z</time></trkpt><trkpt lat="42.522058" lon="14.153565"><ele>1.8</ele><time>2026-05-01T07:04:11.53Z</time></trkpt><trkpt lat="42.5219636" lon="14.1536477"><ele>1.6</ele><time>2026-05-01T07:04:13.531Z</time></trkpt><trkpt lat="42.5219223" lon="14.1537653"><ele>1.4000000000000001</ele><time>2026-05-01T07:04:15.531Z</time></trkpt><trkpt lat="42.5219617" lon="14.1539376"><ele>1.2000000000000002</ele><time>2026-05-01T07:04:17.531Z</time></trkpt><trkpt lat="42.5219828" lon="14.1540307"><ele>1.0</ele><time>2026-05-01T07:04:18.53Z</time></trkpt><trkpt lat="42.522025" lon="14.1541882"><ele>2.4000000000000004</ele><time>2026-05-01T07:04:20.531Z</time></trkpt><trkpt lat="42.5220734" lon="14.1543402"><ele>3.8000000000000003</ele><time>2026-05-01T07:04:22.531Z</time></trkpt><trkpt lat="42.5221057" lon="14.154444"><ele>5.200000000000001</ele><time>2026-05-01T07:04:23.531Z</time></trkpt><trkpt lat="42.5221348" lon="14.1545755"><ele>6.6000000000000005</ele><time>2026-05-01T07:04:24.532Z</time></trkpt><trkpt lat="42.5221566" lon="14.1547248"><ele>8.0</ele><time>2026-05-01T07:04:25.531Z</time></trkpt><trkpt lat="42.5221661" lon="14.1548931"><ele>8.75</ele><time>2026-05-01T07:04:26.531Z</time></trkpt><trkpt lat="42.5221671" lon="14.1550669"><ele>9.5</ele><time>2026-05-01T07:04:27.53Z</time></trkpt><trkpt lat="42.5221567" lon="14.1552516"><ele>10.25</ele><time>2026-05-01T07:04:28.532Z</time></trkpt><trkpt lat="42.522138" lon="14.1554437"><ele>11.0</ele><time>2026-05-01T07:04:29.531Z</time></trkpt><trkpt lat="42.5220997" lon="14.1556246"><ele>9.0</ele><time>2026-05-01T07:04:30.531Z</time></trkpt><trkpt lat="42.5220561" lon="14.1558107"><ele>7.0</ele><time>2026-05-01T07:04:31.531Z</time></trkpt><trkpt lat="42.5220033" lon="14.1559992"><ele>5.0</ele><time>2026-05-01T07:04:32.531Z</time></trkpt><trkpt lat="42.5219395" lon="14.1561771"><ele>3.0</ele><time>2026-05-01T07:04:33.531Z</time></trkpt><trkpt lat="42.5218574" lon="14.156342"><ele>3.0</ele><time>2026-05-01T07:04:34.53Z</time></trkpt><trkpt lat="42.521762" lon="14.1564953"><ele>3.0</ele><time>2026-05-01T07:04:35.53Z</time></trkpt><trkpt lat="42.5216626" lon="14.1566352"><ele>3.0</ele><time>2026-05-01T07:04:36.53Z</time></trkpt><trkpt lat="42.5215645" lon="14.1567548"><ele>3.0</ele><time>2026-05-01T07:04:37.531Z</time></trkpt><trkpt lat="42.5214537" lon="14.156872"><ele>3.0</ele><time>2026-05-01T07:04:38.53Z</time></trkpt><trkpt lat="42.5213545" lon="14.1569747"><ele>3.0</ele><time>2026-05-01T07:04:39.529Z</time></trkpt><trkpt lat="42.5212618" lon="14.1570735"><ele>3.0</ele><time>2026-05-01T07:04:40.531Z</time></trkpt><trkpt lat="42.5211717" lon="14.1571695"><ele>3.0</ele><time>2026-05-01T07:04:41.53Z</time></trkpt><trkpt lat="42.5210835" lon="14.1572596"><ele>3.0</ele><time>2026-05-01T07:04:42.53Z</time></trkpt><trkpt lat="42.520991" lon="14.1573594"><ele>3.0</ele><time>2026-05-01T07:04:43.53Z</time></trkpt><trkpt lat="42.520897" lon="14.1574597"><ele>3.0</ele><time>2026-05-01T07:04:44.529Z</time></trkpt><trkpt lat="42.5208063" lon="14.1575556"><ele>3.0</ele><time>2026-05-01T07:04:45.53Z</time></trkpt><trkpt lat="42.5207198" lon="14.1576493"><ele>3.0</ele><time>2026-05-01T07:04:46.53Z</time></trkpt><trkpt lat="42.5206355" lon="14.1577375"><ele>3.0</ele><time>2026-05-01T07:04:47.53Z</time></trkpt><trkpt lat="42.520563" lon="14.1578147"><ele>3.0</ele><time>2026-05-01T07:04:48.529Z</time></trkpt><trkpt lat="42.5204859" lon="14.157895"><ele>3.0</ele><time>2026-05-01T07:04:49.53Z</time></trkpt><trkpt lat="42.5204064" lon="14.1579772"><ele>3.0</ele><time>2026-05-01T07:04:50.53Z</time></trkpt><trkpt lat="42.5203273" lon="14.1580618"><ele>3.0</ele><time>2026-05-01T07:04:51.53Z</time></trkpt><trkpt lat="42.5202493" lon="14.1581508"><ele>3.0</ele><time>2026-05-01T07:04:52.53Z</time></trkpt><trkpt lat="42.5201723" lon="14.1582331"><ele>3.0</ele><time>2026-05-01T07:04:53.531Z</time></trkpt><trkpt lat="42.5200921" lon="14.1583205"><ele>3.0</ele><time>2026-05-01T07:04:54.531Z</time></trkpt><trkpt lat="42.5200094" lon="14.1584121"><ele>3.0</ele><time>2026-05-01T07:04:55.53Z</time></trkpt><trkpt lat="42.5199242" lon="14.1585012"><ele>3.0</ele><time>2026-05-01T07:04:56.53Z</time></trkpt><trkpt lat="42.5198372" lon="14.1585917"><ele>3.0</ele><time>2026-05-01T07:04:57.53Z</time></trkpt><trkpt lat="42.5197516" lon="14.1586868"><ele>3.0</ele><time>2026-05-01T07:04:58.529Z</time></trkpt><trkpt lat="42.5196661" lon="14.1587753"><ele>3.0</ele><time>2026-05-01T07:04:59.531Z</time></trkpt><trkpt lat="42.5195798" lon="14.15887"><ele>3.0</ele><time>2026-05-01T07:05:00.53Z</time></trkpt><trkpt lat="42.519492" lon="14.1589617"><ele>2.8</ele><time>2026-05-01T07:05:01.531Z</time></trkpt><trkpt lat="42.5194056" lon="14.1590569"><ele>2.5999999999999996</ele><time>2026-05-01T07:05:02.53Z</time></trkpt><trkpt lat="42.5193212" lon="14.1591453"><ele>2.4000000000000004</ele><time>2026-05-01T07:05:03.53Z</time></trkpt><trkpt lat="42.5192381" lon="14.1592337"><ele>2.2</ele><time>2026-05-01T07:05:04.53Z</time></trkpt><trkpt lat="42.5191582" lon="14.1593209"><ele>2.0</ele><time>2026-05-01T07:05:05.529Z</time></trkpt><trkpt lat="42.519078" lon="14.1594052"><ele>2.0</ele><time>2026-05-01T07:05:06.531Z</time></trkpt><trkpt lat="42.5189976" lon="14.1594926"><ele>2.0</ele><time>2026-05-01T07:05:07.529Z</time></trkpt><trkpt lat="42.5189134" lon="14.1595812"><ele>2.0</ele><time>2026-05-01T07:05:08.53Z</time></trkpt><trkpt lat="42.5188279" lon="14.1596711"><ele>2.0</ele><time>2026-05-01T07:05:09.53Z</time></trkpt><trkpt lat="42.5187404" lon="14.1597634"><ele>2.0</ele><time>2026-05-01T07:05:10.53Z</time></trkpt><trkpt lat="42.5186533" lon="14.1598584"><ele>1.4000000000000001</ele><time>2026-05-01T07:05:11.53Z</time></trkpt><trkpt lat="42.5185655" lon="14.1599551"><ele>0.8000000000000002</ele><time>2026-05-01T07:05:12.53Z</time></trkpt><trkpt lat="42.5184766" lon="14.1600501"><ele>0.19999999999999996</ele><time>2026-05-01T07:05:13.53Z</time></trkpt><trkpt lat="42.5183944" lon="14.1601403"><ele>-0.4</ele><time>2026-05-01T07:05:14.53Z</time></trkpt><trkpt lat="42.5183159" lon="14.1602268"><ele>-1.0</ele><time>2026-05-01T07:05:15.53Z</time></trkpt><trkpt lat="42.5182433" lon="14.1603057"><ele>-0.9999999999999999</ele><time>2026-05-01T07:05:16.53Z</time></trkpt><trkpt lat="42.5181786" lon="14.1603749"><ele>-1.0</ele><time>2026-05-01T07:05:17.53Z</time></trkpt><trkpt lat="42.5181195" lon="14.1604354"><ele>-1.0</ele><time>2026-05-01T07:05:18.529Z</time></trkpt><trkpt lat="42.5180196" lon="14.1605485"><ele>-1.0</ele><time>2026-05-01T07:05:20.53Z</time></trkpt><trkpt lat="42.5179617" lon="14.1606081"><ele>-0.9999999999999999</ele><time>2026-05-01T07:05:21.53Z</time></trkpt><trkpt lat="42.5178983" lon="14.160672"><ele>-1.0</ele><time>2026-05-01T07:05:22.529Z</time></trkpt><trkpt lat="42.517832" lon="14.1607444"><ele>-0.33333333333333326</ele><time>2026-05-01T07:05:23.529Z</time></trkpt><trkpt lat="42.5177659" lon="14.160812"><ele>0.33333333333333337</ele><time>2026-05-01T07:05:24.53Z</time></trkpt><trkpt lat="42.5176981" lon="14.1608839"><ele>1.0</ele><time>2026-05-01T07:05:25.53Z</time></trkpt><trkpt lat="42.5176308" lon="14.1609595"><ele>1.6666666666666667</ele><time>2026-05-01T07:05:26.529Z</time></trkpt><trkpt lat="42.5175566" lon="14.1610366"><ele>2.3333333333333335</ele><time>2026-05-01T07:05:27.529Z</time></trkpt><trkpt lat="42.5174836" lon="14.1611114"><ele>3.0</ele><time>2026-05-01T07:05:28.53Z</time></trkpt><trkpt lat="42.5174116" lon="14.1611861"><ele>3.0</ele><time>2026-05-01T07:05:29.529Z</time></trkpt><trkpt lat="42.5173383" lon="14.1612681"><ele>3.0</ele><time>2026-05-01T07:05:30.53Z</time></trkpt><trkpt lat="42.517266" lon="14.1613433"><ele>3.0</ele><time>2026-05-01T07:05:31.53Z</time></trkpt><trkpt lat="42.5171958" lon="14.1614204"><ele>3.0</ele><time>2026-05-01T07:05:32.53Z</time></trkpt><trkpt lat="42.5171261" lon="14.1614941"><ele>3.0</ele><time>2026-05-01T07:05:33.53Z</time></trkpt><trkpt lat="42.5170598" lon="14.1615627"><ele>3.0</ele><time>2026-05-01T07:05:34.53Z</time></trkpt><trkpt lat="42.5169904" lon="14.1616374"><ele>3.1666666666666665</ele><time>2026-05-01T07:05:35.529Z</time></trkpt><trkpt lat="42.5169227" lon="14.1617086"><ele>3.333333333333333</ele><time>2026-05-01T07:05:36.53Z</time></trkpt><trkpt lat="42.5168606" lon="14.1617774"><ele>3.5</ele><time>2026-05-01T07:05:37.53Z</time></trkpt><trkpt lat="42.5168055" lon="14.161834"><ele>3.6666666666666665</ele><time>2026-05-01T07:05:38.53Z</time></trkpt><trkpt lat="42.5167315" lon="14.1619101"><ele>3.833333333333333</ele><time>2026-05-01T07:05:40.53Z</time></trkpt><trkpt lat="42.5166549" lon="14.161992"><ele>4.0</ele><time>2026-05-01T07:05:42.53Z</time></trkpt><trkpt lat="42.5165855" lon="14.1620676"><ele>4.0</ele><time>2026-05-01T07:05:44.53Z</time></trkpt><trkpt lat="42.5165212" lon="14.1621401"><ele>4.0</ele><time>2026-05-01T07:05:46.53Z</time></trkpt><trkpt lat="42.5164397" lon="14.1622274"><ele>4.0</ele><time>2026-05-01T07:05:48.53Z</time></trkpt><trkpt lat="42.5163371" lon="14.1623387"><ele>4.0</ele><time>2026-05-01T07:05:50.529Z</time></trkpt><trkpt lat="42.5162817" lon="14.1624018"><ele>4.0</ele><time>2026-05-01T07:05:51.531Z</time></trkpt><trkpt lat="42.5162221" lon="14.1624682"><ele>4.0</ele><time>2026-05-01T07:05:52.53Z</time></trkpt><trkpt lat="42.516148" lon="14.1625524"><ele>4.0</ele><time>2026-05-01T07:05:53.531Z</time></trkpt><trkpt lat="42.5160635" lon="14.1626437"><ele>4.0</ele><time>2026-05-01T07:05:54.53Z</time></trkpt><trkpt lat="42.5159681" lon="14.1627481"><ele>4.0</ele><time>2026-05-01T07:05:55.53Z</time></trkpt><trkpt lat="42.5158691" lon="14.1628568"><ele>4.0</ele><time>2026-05-01T07:05:56.529Z</time></trkpt><trkpt lat="42.5157664" lon="14.1629676"><ele>4.0</ele><time>2026-05-01T07:05:57.531Z</time></trkpt><trkpt lat="42.5156554" lon="14.1630819"><ele>4.0</ele><time>2026-05-01T07:05:58.53Z</time></trkpt><trkpt lat="42.5155395" lon="14.1631974"><ele>4.0</ele><time>2026-05-01T07:05:59.53Z</time></trkpt><trkpt lat="42.5154203" lon="14.1633206"><ele>3.5</ele><time>2026-05-01T07:06:00.529Z</time></trkpt><trkpt lat="42.5153064" lon="14.163442"><ele>3.0</ele><time>2026-05-01T07:06:01.529Z</time></trkpt><trkpt lat="42.515197" lon="14.1635564"><ele>2.5</ele><time>2026-05-01T07:06:02.53Z</time></trkpt><trkpt lat="42.5150908" lon="14.163668"><ele>2.0</ele><time>2026-05-01T07:06:03.529Z</time></trkpt><trkpt lat="42.51499" lon="14.163774"><ele>2.0</ele><time>2026-05-01T07:06:04.529Z</time></trkpt><trkpt lat="42.5148911" lon="14.1638767"><ele>2.0</ele><time>2026-05-01T07:06:05.53Z</time></trkpt><trkpt lat="42.5147964" lon="14.1639788"><ele>2.0</ele><time>2026-05-01T07:06:06.53Z</time></trkpt><trkpt lat="42.5147065" lon="14.1640786"><ele>2.0</ele><time>2026-05-01T07:06:07.53Z</time></trkpt><trkpt lat="42.514616" lon="14.1641781"><ele>1.8</ele><time>2026-05-01T07:06:08.53Z</time></trkpt><trkpt lat="42.51453" lon="14.1642702"><ele>1.6</ele><time>2026-05-01T07:06:09.53Z</time></trkpt><trkpt lat="42.5144515" lon="14.1643582"><ele>1.4000000000000001</ele><time>2026-05-01T07:06:10.529Z</time></trkpt><trkpt lat="42.5143676" lon="14.1644512"><ele>1.2000000000000002</ele><time>2026-05-01T07:06:11.53Z</time></trkpt><trkpt lat="42.5142692" lon="14.164561"><ele>1.0</ele><time>2026-05-01T07:06:12.53Z</time></trkpt><trkpt lat="42.5141542" lon="14.1646861"><ele>1.0</ele><time>2026-05-01T07:06:13.53Z</time></trkpt><trkpt lat="42.5140391" lon="14.1648141"><ele>1.0</ele><time>2026-05-01T07:06:14.531Z</time></trkpt><trkpt lat="42.5139293" lon="14.1649252"><ele>1.0</ele><time>2026-05-01T07:06:15.53Z</time></trkpt><trkpt lat="42.5138295" lon="14.1650289"><ele>1.0</ele><time>2026-05-01T07:06:16.531Z</time></trkpt><trkpt lat="42.5137337" lon="14.1651265"><ele>1.2000000000000002</ele><time>2026-05-01T07:06:17.53Z</time></trkpt><trkpt lat="42.5136441" lon="14.1652215"><ele>1.4000000000000001</ele><time>2026-05-01T07:06:18.53Z</time></trkpt><trkpt lat="42.5135582" lon="14.1653096"><ele>1.6</ele><time>2026-05-01T07:06:19.529Z</time></trkpt><trkpt lat="42.5134816" lon="14.1653908"><ele>1.8</ele><time>2026-05-01T07:06:20.529Z</time></trkpt><trkpt lat="42.513405" lon="14.1654687"><ele>2.0</ele><time>2026-05-01T07:06:21.529Z</time></trkpt><trkpt lat="42.5133289" lon="14.1655499"><ele>2.0</ele><time>2026-05-01T07:06:22.53Z</time></trkpt><trkpt lat="42.5132538" lon="14.1656292"><ele>2.0</ele><time>2026-05-01T07:06:23.53Z</time></trkpt><trkpt lat="42.5131773" lon="14.1657127"><ele>2.0</ele><time>2026-05-01T07:06:24.53Z</time></trkpt><trkpt lat="42.5130956" lon="14.1657967"><ele>2.0</ele><time>2026-05-01T07:06:25.53Z</time></trkpt><trkpt lat="42.5130117" lon="14.1658859"><ele>2.0</ele><time>2026-05-01T07:06:26.53Z</time></trkpt><trkpt lat="42.5129298" lon="14.1659734"><ele>2.2</ele><time>2026-05-01T07:06:27.531Z</time></trkpt><trkpt lat="42.5128575" lon="14.166053"><ele>2.4000000000000004</ele><time>2026-05-01T07:06:28.529Z</time></trkpt><trkpt lat="42.5127831" lon="14.1661317"><ele>2.5999999999999996</ele><time>2026-05-01T07:06:29.53Z</time></trkpt><trkpt lat="42.5127119" lon="14.1662075"><ele>2.8</ele><time>2026-05-01T07:06:30.529Z</time></trkpt><trkpt lat="42.5126456" lon="14.1662857"><ele>3.0</ele><time>2026-05-01T07:06:31.53Z</time></trkpt><trkpt lat="42.5125729" lon="14.1663602"><ele>3.0</ele><time>2026-05-01T07:06:32.53Z</time></trkpt><trkpt lat="42.5125034" lon="14.1664332"><ele>3.0</ele><time>2026-05-01T07:06:33.53Z</time></trkpt><trkpt lat="42.5124344" lon="14.1665077"><ele>3.0</ele><time>2026-05-01T07:06:34.53Z</time></trkpt><trkpt lat="42.5123625" lon="14.1665833"><ele>3.0</ele><time>2026-05-01T07:06:35.529Z</time></trkpt><trkpt lat="42.5122887" lon="14.1666615"><ele>3.0</ele><time>2026-05-01T07:06:36.53Z</time></trkpt><trkpt lat="42.5122145" lon="14.1667431"><ele>2.8</ele><time>2026-05-01T07:06:37.53Z</time></trkpt><trkpt lat="42.5121412" lon="14.1668234"><ele>2.5999999999999996</ele><time>2026-05-01T07:06:38.53Z</time></trkpt><trkpt lat="42.5120707" lon="14.1669022"><ele>2.4000000000000004</ele><time>2026-05-01T07:06:39.53Z</time></trkpt><trkpt lat="42.5120022" lon="14.1669755"><ele>2.2</ele><time>2026-05-01T07:06:40.53Z</time></trkpt><trkpt lat="42.5119316" lon="14.1670496"><ele>2.0</ele><time>2026-05-01T07:06:41.53Z</time></trkpt><trkpt lat="42.5118603" lon="14.1671238"><ele>1.9999999999999998</ele><time>2026-05-01T07:06:42.53Z</time></trkpt><trkpt lat="42.511789" lon="14.1671943"><ele>2.0</ele><time>2026-05-01T07:06:43.529Z</time></trkpt><trkpt lat="42.5117163" lon="14.1672675"><ele>2.0</ele><time>2026-05-01T07:06:44.53Z</time></trkpt><trkpt lat="42.5116463" lon="14.1673415"><ele>2.0</ele><time>2026-05-01T07:06:45.529Z</time></trkpt><trkpt lat="42.5115749" lon="14.1674172"><ele>1.9999999999999998</ele><time>2026-05-01T07:06:46.529Z</time></trkpt><trkpt lat="42.511506" lon="14.1674918"><ele>2.0</ele><time>2026-05-01T07:06:47.531Z</time></trkpt><trkpt lat="42.5114382" lon="14.1675693"><ele>1.9999999999999998</ele><time>2026-05-01T07:06:48.529Z</time></trkpt><trkpt lat="42.511369" lon="14.1676457"><ele>2.0</ele><time>2026-05-01T07:06:49.529Z</time></trkpt><trkpt lat="42.5112998" lon="14.167718"><ele>2.0</ele><time>2026-05-01T07:06:50.529Z</time></trkpt><trkpt lat="42.5112405" lon="14.1677848"><ele>2.0</ele><time>2026-05-01T07:06:51.528Z</time></trkpt><trkpt lat="42.5111817" lon="14.1678406"><ele>1.9999999999999998</ele><time>2026-05-01T07:06:52.529Z</time></trkpt><trkpt lat="42.5111134" lon="14.1679133"><ele>2.0</ele><time>2026-05-01T07:06:53.528Z</time></trkpt><trkpt lat="42.5110446" lon="14.1679864"><ele>1.9999999999999998</ele><time>2026-05-01T07:06:54.528Z</time></trkpt><trkpt lat="42.5109744" lon="14.1680573"><ele>2.0</ele><time>2026-05-01T07:06:55.53Z</time></trkpt><trkpt lat="42.510902" lon="14.1681328"><ele>2.0</ele><time>2026-05-01T07:06:56.53Z</time></trkpt><trkpt lat="42.5108282" lon="14.1682119"><ele>2.0</ele><time>2026-05-01T07:06:57.529Z</time></trkpt><trkpt lat="42.510765" lon="14.1682876"><ele>1.9999999999999998</ele><time>2026-05-01T07:06:58.529Z</time></trkpt><trkpt lat="42.5106969" lon="14.1683609"><ele>2.0</ele><time>2026-05-01T07:06:59.528Z</time></trkpt><trkpt lat="42.5106319" lon="14.1684252"><ele>2.0</ele><time>2026-05-01T07:07:00.528Z</time></trkpt><trkpt lat="42.5105699" lon="14.1684932"><ele>1.9999999999999998</ele><time>2026-05-01T07:07:01.528Z</time></trkpt><trkpt lat="42.5105119" lon="14.1685575"><ele>2.0</ele><time>2026-05-01T07:07:02.529Z</time></trkpt><trkpt lat="42.5104583" lon="14.1686194"><ele>2.0</ele><time>2026-05-01T07:07:03.528Z</time></trkpt><trkpt lat="42.5104016" lon="14.1686798"><ele>1.9999999999999998</ele><time>2026-05-01T07:07:04.529Z</time></trkpt><trkpt lat="42.5103436" lon="14.1687392"><ele>2.0</ele><time>2026-05-01T07:07:05.529Z</time></trkpt><trkpt lat="42.5102927" lon="14.1687915"><ele>2.0</ele><time>2026-05-01T07:07:06.529Z</time></trkpt><trkpt lat="42.5101955" lon="14.1688846"><ele>1.8</ele><time>2026-05-01T07:07:08.53Z</time></trkpt><trkpt lat="42.5101057" lon="14.1689453"><ele>1.6</ele><time>2026-05-01T07:07:10.529Z</time></trkpt><trkpt lat="42.5100132" lon="14.1689684"><ele>1.4000000000000001</ele><time>2026-05-01T07:07:12.529Z</time></trkpt><trkpt lat="42.5099199" lon="14.1689369"><ele>1.2000000000000002</ele><time>2026-05-01T07:07:14.528Z</time></trkpt><trkpt lat="42.5098174" lon="14.1688146"><ele>1.0</ele><time>2026-05-01T07:07:16.53Z</time></trkpt><trkpt lat="42.509754" lon="14.1687242"><ele>1.0</ele><time>2026-05-01T07:07:17.528Z</time></trkpt><trkpt lat="42.5096749" lon="14.1686019"><ele>1.0</ele><time>2026-05-01T07:07:18.529Z</time></trkpt><trkpt lat="42.5095911" lon="14.1684496"><ele>1.0</ele><time>2026-05-01T07:07:19.529Z</time></trkpt><trkpt lat="42.5094952" lon="14.1682939"><ele>1.0</ele><time>2026-05-01T07:07:20.528Z</time></trkpt><trkpt lat="42.509397" lon="14.1681362"><ele>1.6666666666666665</ele><time>2026-05-01T07:07:21.529Z</time></trkpt><trkpt lat="42.5092992" lon="14.1679764"><ele>2.3333333333333335</ele><time>2026-05-01T07:07:22.529Z</time></trkpt><trkpt lat="42.5091965" lon="14.1678293"><ele>3.0</ele><time>2026-05-01T07:07:23.528Z</time></trkpt><trkpt lat="42.509095" lon="14.1676762"><ele>3.0</ele><time>2026-05-01T07:07:24.528Z</time></trkpt><trkpt lat="42.5089985" lon="14.167515"><ele>3.0</ele><time>2026-05-01T07:07:25.529Z</time></trkpt><trkpt lat="42.5089039" lon="14.16736"><ele>3.0</ele><time>2026-05-01T07:07:26.529Z</time></trkpt><trkpt lat="42.5088056" lon="14.1672102"><ele>3.0</ele><time>2026-05-01T07:07:27.528Z</time></trkpt><trkpt lat="42.5087106" lon="14.1670556"><ele>2.75</ele><time>2026-05-01T07:07:28.528Z</time></trkpt><trkpt lat="42.5086229" lon="14.1669138"><ele>2.5</ele><time>2026-05-01T07:07:29.529Z</time></trkpt><trkpt lat="42.5085343" lon="14.166783"><ele>2.25</ele><time>2026-05-01T07:07:30.529Z</time></trkpt><trkpt lat="42.5084489" lon="14.1666517"><ele>2.0</ele><time>2026-05-01T07:07:31.529Z</time></trkpt><trkpt lat="42.5083737" lon="14.1665295"><ele>2.6</ele><time>2026-05-01T07:07:32.53Z</time></trkpt><trkpt lat="42.5083089" lon="14.1664368"><ele>3.2</ele><time>2026-05-01T07:07:33.529Z</time></trkpt><trkpt lat="42.5082534" lon="14.1663646"><ele>3.8</ele><time>2026-05-01T07:07:34.528Z</time></trkpt><trkpt lat="42.5081719" lon="14.1662505"><ele>4.4</ele><time>2026-05-01T07:07:36.529Z</time></trkpt><trkpt lat="42.5080877" lon="14.1661142"><ele>5.0</ele><time>2026-05-01T07:07:38.529Z</time></trkpt><trkpt lat="42.5080276" lon="14.1660233"><ele>5.0</ele><time>2026-05-01T07:07:39.529Z</time></trkpt><trkpt lat="42.507962" lon="14.1659168"><ele>5.0</ele><time>2026-05-01T07:07:40.53Z</time></trkpt><trkpt lat="42.5078869" lon="14.1657981"><ele>5.0</ele><time>2026-05-01T07:07:41.529Z</time></trkpt><trkpt lat="42.5078102" lon="14.1656665"><ele>5.0</ele><time>2026-05-01T07:07:42.529Z</time></trkpt><trkpt lat="42.5077284" lon="14.165531"><ele>4.6</ele><time>2026-05-01T07:07:43.529Z</time></trkpt><trkpt lat="42.5076472" lon="14.1654066"><ele>4.2</ele><time>2026-05-01T07:07:44.528Z</time></trkpt><trkpt lat="42.5075757" lon="14.165296"><ele>3.8</ele><time>2026-05-01T07:07:45.528Z</time></trkpt><trkpt lat="42.5075133" lon="14.1651897"><ele>3.4</ele><time>2026-05-01T07:07:46.529Z</time></trkpt><trkpt lat="42.5074551" lon="14.1651033"><ele>3.0</ele><time>2026-05-01T07:07:47.529Z</time></trkpt><trkpt lat="42.5074019" lon="14.1650265"><ele>3.0</ele><time>2026-05-01T07:07:48.529Z</time></trkpt><trkpt lat="42.5073512" lon="14.1649513"><ele>3.0</ele><time>2026-05-01T07:07:49.529Z</time></trkpt><trkpt lat="42.5073079" lon="14.1648817"><ele>3.0</ele><time>2026-05-01T07:07:50.528Z</time></trkpt><trkpt lat="42.5072478" lon="14.1647921"><ele>3.0</ele><time>2026-05-01T07:07:52.529Z</time></trkpt><trkpt lat="42.5071947" lon="14.1647217"><ele>3.0</ele><time>2026-05-01T07:07:53.529Z</time></trkpt><trkpt lat="42.5071318" lon="14.1646276"><ele>3.0</ele><time>2026-05-01T07:07:54.529Z</time></trkpt><trkpt lat="42.5070513" lon="14.164517"><ele>2.75</ele><time>2026-05-01T07:07:55.529Z</time></trkpt><trkpt lat="42.5069727" lon="14.1644042"><ele>2.5</ele><time>2026-05-01T07:07:56.529Z</time></trkpt><trkpt lat="42.5068863" lon="14.1642782"><ele>2.25</ele><time>2026-05-01T07:07:57.53Z</time></trkpt><trkpt lat="42.5068048" lon="14.1641548"><ele>2.0</ele><time>2026-05-01T07:07:58.529Z</time></trkpt><trkpt lat="42.5067163" lon="14.1640264"><ele>1.8</ele><time>2026-05-01T07:07:59.529Z</time></trkpt><trkpt lat="42.5066344" lon="14.1639102"><ele>1.6</ele><time>2026-05-01T07:08:00.529Z</time></trkpt><trkpt lat="42.5065629" lon="14.1638156"><ele>1.4000000000000001</ele><time>2026-05-01T07:08:01.529Z</time></trkpt><trkpt lat="42.5064942" lon="14.1637241"><ele>1.2000000000000002</ele><time>2026-05-01T07:08:02.529Z</time></trkpt><trkpt lat="42.5064237" lon="14.1636317"><ele>1.0</ele><time>2026-05-01T07:08:03.529Z</time></trkpt><trkpt lat="42.5063451" lon="14.1635257"><ele>1.0</ele><time>2026-05-01T07:08:04.528Z</time></trkpt><trkpt lat="42.5062791" lon="14.1634259"><ele>1.0</ele><time>2026-05-01T07:08:05.529Z</time></trkpt><trkpt lat="42.5062097" lon="14.1633305"><ele>1.0</ele><time>2026-05-01T07:08:06.529Z</time></trkpt><trkpt lat="42.5061408" lon="14.1632227"><ele>1.0</ele><time>2026-05-01T07:08:07.529Z</time></trkpt><trkpt lat="42.506075" lon="14.1631124"><ele>1.0</ele><time>2026-05-01T07:08:08.529Z</time></trkpt><trkpt lat="42.506016" lon="14.1630156"><ele>1.2000000000000002</ele><time>2026-05-01T07:08:09.528Z</time></trkpt><trkpt lat="42.5059634" lon="14.1629381"><ele>1.4000000000000001</ele><time>2026-05-01T07:08:10.529Z</time></trkpt><trkpt lat="42.5058611" lon="14.1628993"><ele>1.6</ele><time>2026-05-01T07:08:12.529Z</time></trkpt><trkpt lat="42.5057354" lon="14.1630052"><ele>1.8</ele><time>2026-05-01T07:08:14.528Z</time></trkpt><trkpt lat="42.5056624" lon="14.1630904"><ele>2.0</ele><time>2026-05-01T07:08:15.529Z</time></trkpt><trkpt lat="42.5055934" lon="14.1631677"><ele>1.9999999999999998</ele><time>2026-05-01T07:08:16.528Z</time></trkpt><trkpt lat="42.5055272" lon="14.1632457"><ele>2.0</ele><time>2026-05-01T07:08:17.529Z</time></trkpt><trkpt lat="42.5054755" lon="14.1633039"><ele>2.0</ele><time>2026-05-01T07:08:18.529Z</time></trkpt><trkpt lat="42.5054234" lon="14.1633699"><ele>2.0</ele><time>2026-05-01T07:08:19.53Z</time></trkpt><trkpt lat="42.5053693" lon="14.1634387"><ele>1.9999999999999998</ele><time>2026-05-01T07:08:20.528Z</time></trkpt><trkpt lat="42.5053085" lon="14.1635087"><ele>2.0</ele><time>2026-05-01T07:08:21.528Z</time></trkpt><trkpt lat="42.5052503" lon="14.1635801"><ele>1.9999999999999998</ele><time>2026-05-01T07:08:22.529Z</time></trkpt><trkpt lat="42.5051901" lon="14.1636512"><ele>2.0</ele><time>2026-05-01T07:08:23.528Z</time></trkpt><trkpt lat="42.5051288" lon="14.1637252"><ele>2.0</ele><time>2026-05-01T07:08:24.529Z</time></trkpt><trkpt lat="42.5050616" lon="14.163805"><ele>2.0</ele><time>2026-05-01T07:08:25.529Z</time></trkpt><trkpt lat="42.5049919" lon="14.1638942"><ele>1.9999999999999998</ele><time>2026-05-01T07:08:26.529Z</time></trkpt><trkpt lat="42.5049202" lon="14.1639773"><ele>2.0</ele><time>2026-05-01T07:08:27.529Z</time></trkpt><trkpt lat="42.5048585" lon="14.1640483"><ele>1.9999999999999998</ele><time>2026-05-01T07:08:28.528Z</time></trkpt><trkpt lat="42.5048035" lon="14.1641219"><ele>2.0</ele><time>2026-05-01T07:08:29.528Z</time></trkpt><trkpt lat="42.504746" lon="14.1641894"><ele>2.0</ele><time>2026-05-01T07:08:30.529Z</time></trkpt><trkpt lat="42.5046929" lon="14.1642506"><ele>2.0</ele><time>2026-05-01T07:08:31.529Z</time></trkpt><trkpt lat="42.5046072" lon="14.1643491"><ele>1.9999999999999998</ele><time>2026-05-01T07:08:33.529Z</time></trkpt><trkpt lat="42.5045267" lon="14.1644494"><ele>2.0</ele><time>2026-05-01T07:08:35.528Z</time></trkpt><trkpt lat="42.5044818" lon="14.1645109"><ele>1.9999999999999998</ele><time>2026-05-01T07:08:36.529Z</time></trkpt><trkpt lat="42.5044298" lon="14.1645777"><ele>2.0</ele><time>2026-05-01T07:08:37.529Z</time></trkpt><trkpt lat="42.5043762" lon="14.1646432"><ele>2.0</ele><time>2026-05-01T07:08:38.528Z</time></trkpt><trkpt lat="42.5043055" lon="14.1647291"><ele>2.0</ele><time>2026-05-01T07:08:39.528Z</time></trkpt><trkpt lat="42.5042326" lon="14.1648134"><ele>1.9999999999999998</ele><time>2026-05-01T07:08:40.529Z</time></trkpt><trkpt lat="42.5041677" lon="14.1648911"><ele>2.0</ele><time>2026-05-01T07:08:41.53Z</time></trkpt><trkpt lat="42.5041028" lon="14.1649757"><ele>2.0</ele><time>2026-05-01T07:08:42.528Z</time></trkpt><trkpt lat="42.5040279" lon="14.1650598"><ele>2.0</ele><time>2026-05-01T07:08:43.528Z</time></trkpt><trkpt lat="42.5039534" lon="14.1651519"><ele>2.0</ele><time>2026-05-01T07:08:44.528Z</time></trkpt><trkpt lat="42.5038719" lon="14.1652515"><ele>2.0</ele><time>2026-05-01T07:08:45.529Z</time></trkpt><trkpt lat="42.5037894" lon="14.1653525"><ele>2.0</ele><time>2026-05-01T07:08:46.53Z</time></trkpt><trkpt lat="42.5037048" lon="14.1654538"><ele>2.6</ele><time>2026-05-01T07:08:47.529Z</time></trkpt><trkpt lat="42.5036242" lon="14.1655547"><ele>3.2</ele><time>2026-05-01T07:08:48.529Z</time></trkpt><trkpt lat="42.5035512" lon="14.1656428"><ele>3.8</ele><time>2026-05-01T07:08:49.528Z</time></trkpt><trkpt lat="42.50348" lon="14.1657283"><ele>4.4</ele><time>2026-05-01T07:08:50.529Z</time></trkpt><trkpt lat="42.5034123" lon="14.1658118"><ele>5.0</ele><time>2026-05-01T07:08:51.529Z</time></trkpt><trkpt lat="42.5033438" lon="14.1658906"><ele>5.0</ele><time>2026-05-01T07:08:52.529Z</time></trkpt><trkpt lat="42.5032723" lon="14.1659765"><ele>5.0</ele><time>2026-05-01T07:08:53.529Z</time></trkpt><trkpt lat="42.5032061" lon="14.1660555"><ele>5.0</ele><time>2026-05-01T07:08:54.529Z</time></trkpt><trkpt lat="42.5031403" lon="14.1661345"><ele>5.0</ele><time>2026-05-01T07:08:55.529Z</time></trkpt><trkpt lat="42.5030787" lon="14.1662144"><ele>5.0</ele><time>2026-05-01T07:08:56.529Z</time></trkpt><trkpt lat="42.5030106" lon="14.166296"><ele>5.0</ele><time>2026-05-01T07:08:57.528Z</time></trkpt><trkpt lat="42.5029442" lon="14.1663785"><ele>4.8</ele><time>2026-05-01T07:08:58.529Z</time></trkpt><trkpt lat="42.5028742" lon="14.1664613"><ele>4.6</ele><time>2026-05-01T07:08:59.53Z</time></trkpt><trkpt lat="42.5028005" lon="14.1665441"><ele>4.4</ele><time>2026-05-01T07:09:00.529Z</time></trkpt><trkpt lat="42.5027314" lon="14.166627"><ele>4.2</ele><time>2026-05-01T07:09:01.529Z</time></trkpt><trkpt lat="42.5026572" lon="14.1667143"><ele>4.0</ele><time>2026-05-01T07:09:02.529Z</time></trkpt><trkpt lat="42.5025829" lon="14.1668083"><ele>4.0</ele><time>2026-05-01T07:09:03.528Z</time></trkpt><trkpt lat="42.5025125" lon="14.1668955"><ele>4.0</ele><time>2026-05-01T07:09:04.529Z</time></trkpt><trkpt lat="42.5024464" lon="14.1669854"><ele>4.0</ele><time>2026-05-01T07:09:05.528Z</time></trkpt><trkpt lat="42.5023764" lon="14.1670689"><ele>4.0</ele><time>2026-05-01T07:09:06.528Z</time></trkpt><trkpt lat="42.5023096" lon="14.1671515"><ele>4.0</ele><time>2026-05-01T07:09:07.528Z</time></trkpt><trkpt lat="42.5022499" lon="14.1672284"><ele>3.9999999999999996</ele><time>2026-05-01T07:09:08.527Z</time></trkpt><trkpt lat="42.5021896" lon="14.1673029"><ele>4.0</ele><time>2026-05-01T07:09:09.527Z</time></trkpt><trkpt lat="42.5021376" lon="14.1673645"><ele>4.0</ele><time>2026-05-01T07:09:10.528Z</time></trkpt><trkpt lat="42.5020834" lon="14.1674271"><ele>4.0</ele><time>2026-05-01T07:09:11.529Z</time></trkpt><trkpt lat="42.5020228" lon="14.1674966"><ele>3.9999999999999996</ele><time>2026-05-01T07:09:13.528Z</time></trkpt><trkpt lat="42.5019588" lon="14.1675479"><ele>4.0</ele><time>2026-05-01T07:09:17.527Z</time></trkpt><trkpt lat="42.50189" lon="14.1676328"><ele>4.0</ele><time>2026-05-01T07:09:19.528Z</time></trkpt><trkpt lat="42.5017703" lon="14.1677786"><ele>4.0</ele><time>2026-05-01T07:09:21.528Z</time></trkpt><trkpt lat="42.5017043" lon="14.1678621"><ele>4.0</ele><time>2026-05-01T07:09:22.527Z</time></trkpt><trkpt lat="42.5016293" lon="14.1679528"><ele>4.0</ele><time>2026-05-01T07:09:23.528Z</time></trkpt><trkpt lat="42.5015582" lon="14.1680402"><ele>4.0</ele><time>2026-05-01T07:09:24.528Z</time></trkpt><trkpt lat="42.5014986" lon="14.1681022"><ele>3.9999999999999996</ele><time>2026-05-01T07:09:25.528Z</time></trkpt><trkpt lat="42.5014449" lon="14.168169"><ele>4.0</ele><time>2026-05-01T07:09:26.527Z</time></trkpt><trkpt lat="42.5013832" lon="14.1682406"><ele>4.0</ele><time>2026-05-01T07:09:27.528Z</time></trkpt><trkpt lat="42.501323" lon="14.1683166"><ele>4.0</ele><time>2026-05-01T07:09:28.528Z</time></trkpt><trkpt lat="42.5012664" lon="14.1683932"><ele>3.9999999999999996</ele><time>2026-05-01T07:09:29.528Z</time></trkpt><trkpt lat="42.5012044" lon="14.1684677"><ele>4.0</ele><time>2026-05-01T07:09:30.528Z</time></trkpt><trkpt lat="42.501152" lon="14.1685366"><ele>4.0</ele><time>2026-05-01T07:09:31.528Z</time></trkpt><trkpt lat="42.5010991" lon="14.1685996"><ele>3.9999999999999996</ele><time>2026-05-01T07:09:32.528Z</time></trkpt><trkpt lat="42.5010441" lon="14.1686478"><ele>4.0</ele><time>2026-05-01T07:09:33.528Z</time></trkpt><trkpt lat="42.5009966" lon="14.1687119"><ele>4.0</ele><time>2026-05-01T07:09:34.527Z</time></trkpt><trkpt lat="42.5009506" lon="14.1687707"><ele>3.9999999999999996</ele><time>2026-05-01T07:09:35.527Z</time></trkpt><trkpt lat="42.5009004" lon="14.1688331"><ele>4.0</ele><time>2026-05-01T07:09:36.527Z</time></trkpt><trkpt lat="42.5008508" lon="14.1688886"><ele>4.0</ele><time>2026-05-01T07:09:37.528Z</time></trkpt><trkpt lat="42.5007598" lon="14.1690014"><ele>4.0</ele><time>2026-05-01T07:09:39.528Z</time></trkpt><trkpt lat="42.5007002" lon="14.1690726"><ele>4.0</ele><time>2026-05-01T07:09:40.528Z</time></trkpt><trkpt lat="42.5006374" lon="14.1691513"><ele>4.0</ele><time>2026-05-01T07:09:41.528Z</time></trkpt><trkpt lat="42.5005643" lon="14.1692439"><ele>4.0</ele><time>2026-05-01T07:09:42.529Z</time></trkpt><trkpt lat="42.5004884" lon="14.1693412"><ele>4.0</ele><time>2026-05-01T07:09:43.529Z</time></trkpt><trkpt lat="42.5004076" lon="14.16944"><ele>3.833333333333333</ele><time>2026-05-01T07:09:44.528Z</time></trkpt><trkpt lat="42.5003307" lon="14.169526"><ele>3.6666666666666665</ele><time>2026-05-01T07:09:45.528Z</time></trkpt><trkpt lat="42.5002658" lon="14.1696043"><ele>3.5</ele><time>2026-05-01T07:09:46.527Z</time></trkpt><trkpt lat="42.5002039" lon="14.1696778"><ele>3.333333333333333</ele><time>2026-05-01T07:09:47.528Z</time></trkpt><trkpt lat="42.5001418" lon="14.169749"><ele>3.1666666666666665</ele><time>2026-05-01T07:09:48.528Z</time></trkpt><trkpt lat="42.5000844" lon="14.1698162"><ele>3.0</ele><time>2026-05-01T07:09:49.529Z</time></trkpt><trkpt lat="42.5000208" lon="14.1698922"><ele>2.8</ele><time>2026-05-01T07:09:50.528Z</time></trkpt><trkpt lat="42.499962" lon="14.1699734"><ele>2.5999999999999996</ele><time>2026-05-01T07:09:51.529Z</time></trkpt><trkpt lat="42.4998969" lon="14.1700553"><ele>2.4000000000000004</ele><time>2026-05-01T07:09:52.528Z</time></trkpt><trkpt lat="42.499828" lon="14.1701462"><ele>2.2</ele><time>2026-05-01T07:09:53.527Z</time></trkpt><trkpt lat="42.4997582" lon="14.1702374"><ele>2.0</ele><time>2026-05-01T07:09:54.528Z</time></trkpt><trkpt lat="42.4996845" lon="14.1703246"><ele>2.0</ele><time>2026-05-01T07:09:55.528Z</time></trkpt><trkpt lat="42.4996074" lon="14.1704164"><ele>2.0</ele><time>2026-05-01T07:09:56.528Z</time></trkpt><trkpt lat="42.4995353" lon="14.1704986"><ele>2.0</ele><time>2026-05-01T07:09:57.529Z</time></trkpt><trkpt lat="42.4994616" lon="14.1705857"><ele>2.0</ele><time>2026-05-01T07:09:58.528Z</time></trkpt><trkpt lat="42.499389" lon="14.170677"><ele>2.0</ele><time>2026-05-01T07:09:59.528Z</time></trkpt><trkpt lat="42.4993206" lon="14.1707643"><ele>2.333333333333333</ele><time>2026-05-01T07:10:00.527Z</time></trkpt><trkpt lat="42.4992482" lon="14.170852"><ele>2.6666666666666665</ele><time>2026-05-01T07:10:01.529Z</time></trkpt><trkpt lat="42.4991797" lon="14.1709284"><ele>3.0</ele><time>2026-05-01T07:10:02.528Z</time></trkpt><trkpt lat="42.4991176" lon="14.1710099"><ele>3.333333333333333</ele><time>2026-05-01T07:10:03.527Z</time></trkpt><trkpt lat="42.4990613" lon="14.1710719"><ele>3.6666666666666665</ele><time>2026-05-01T07:10:04.528Z</time></trkpt><trkpt lat="42.4990076" lon="14.1711308"><ele>4.0</ele><time>2026-05-01T07:10:05.527Z</time></trkpt><trkpt lat="42.4989258" lon="14.171227"><ele>4.0</ele><time>2026-05-01T07:10:07.528Z</time></trkpt><trkpt lat="42.49887" lon="14.1712995"><ele>4.0</ele><time>2026-05-01T07:10:09.528Z</time></trkpt><trkpt lat="42.4988068" lon="14.1713779"><ele>4.0</ele><time>2026-05-01T07:10:11.528Z</time></trkpt><trkpt lat="42.4987365" lon="14.1714561"><ele>4.0</ele><time>2026-05-01T07:10:13.528Z</time></trkpt><trkpt lat="42.4986539" lon="14.1715503"><ele>4.0</ele><time>2026-05-01T07:10:15.528Z</time></trkpt><trkpt lat="42.4985596" lon="14.1716648"><ele>3.8000000000000003</ele><time>2026-05-01T07:10:17.529Z</time></trkpt><trkpt lat="42.4985004" lon="14.171739"><ele>3.6000000000000005</ele><time>2026-05-01T07:10:18.528Z</time></trkpt><trkpt lat="42.4984306" lon="14.1718245"><ele>3.4</ele><time>2026-05-01T07:10:19.528Z</time></trkpt><trkpt lat="42.4983523" lon="14.1719186"><ele>3.2</ele><time>2026-05-01T07:10:20.528Z</time></trkpt><trkpt lat="42.4982693" lon="14.1720194"><ele>3.0</ele><time>2026-05-01T07:10:21.528Z</time></trkpt><trkpt lat="42.4981872" lon="14.1721207"><ele>3.0</ele><time>2026-05-01T07:10:22.528Z</time></trkpt><trkpt lat="42.4981002" lon="14.1722318"><ele>3.0</ele><time>2026-05-01T07:10:23.527Z</time></trkpt><trkpt lat="42.4980101" lon="14.1723361"><ele>3.0</ele><time>2026-05-01T07:10:24.527Z</time></trkpt><trkpt lat="42.497923" lon="14.1724455"><ele>3.0</ele><time>2026-05-01T07:10:25.528Z</time></trkpt><trkpt lat="42.4978424" lon="14.1725428"><ele>3.4</ele><time>2026-05-01T07:10:26.528Z</time></trkpt><trkpt lat="42.4977548" lon="14.1726455"><ele>3.8</ele><time>2026-05-01T07:10:27.528Z</time></trkpt><trkpt lat="42.4976709" lon="14.1727424"><ele>4.2</ele><time>2026-05-01T07:10:28.527Z</time></trkpt><trkpt lat="42.4975921" lon="14.1728429"><ele>4.6</ele><time>2026-05-01T07:10:29.527Z</time></trkpt><trkpt lat="42.4975074" lon="14.1729411"><ele>5.0</ele><time>2026-05-01T07:10:30.528Z</time></trkpt><trkpt lat="42.4974354" lon="14.173027"><ele>5.0</ele><time>2026-05-01T07:10:31.528Z</time></trkpt><trkpt lat="42.4973608" lon="14.1731221"><ele>5.0</ele><time>2026-05-01T07:10:32.528Z</time></trkpt><trkpt lat="42.4972884" lon="14.1732162"><ele>5.0</ele><time>2026-05-01T07:10:33.528Z</time></trkpt><trkpt lat="42.4972203" lon="14.1732994"><ele>5.0</ele><time>2026-05-01T07:10:34.528Z</time></trkpt><trkpt lat="42.4971539" lon="14.173381"><ele>5.0</ele><time>2026-05-01T07:10:35.528Z</time></trkpt><trkpt lat="42.4970982" lon="14.1734577"><ele>5.0</ele><time>2026-05-01T07:10:36.528Z</time></trkpt><trkpt lat="42.4970501" lon="14.1735276"><ele>5.0</ele><time>2026-05-01T07:10:37.528Z</time></trkpt><trkpt lat="42.4969648" lon="14.1736301"><ele>5.0</ele><time>2026-05-01T07:10:39.529Z</time></trkpt><trkpt lat="42.4969037" lon="14.1736997"><ele>5.0</ele><time>2026-05-01T07:10:41.528Z</time></trkpt><trkpt lat="42.4968448" lon="14.1737718"><ele>5.0</ele><time>2026-05-01T07:10:44.527Z</time></trkpt><trkpt lat="42.496772" lon="14.173838"><ele>5.0</ele><time>2026-05-01T07:11:57.528Z</time></trkpt><trkpt lat="42.4967362" lon="14.1739383"><ele>5.0</ele><time>2026-05-01T07:11:59.527Z</time></trkpt><trkpt lat="42.4967677" lon="14.1740198"><ele>5.0</ele><time>2026-05-01T07:12:01.527Z</time></trkpt><trkpt lat="42.4968573" lon="14.1741532"><ele>5.0</ele><time>2026-05-01T07:12:03.527Z</time></trkpt><trkpt lat="42.4969218" lon="14.174242"><ele>5.0</ele><time>2026-05-01T07:12:04.528Z</time></trkpt><trkpt lat="42.4969854" lon="14.1743336"><ele>5.0</ele><time>2026-05-01T07:12:05.527Z</time></trkpt><trkpt lat="42.4970481" lon="14.1744284"><ele>4.666666666666667</ele><time>2026-05-01T07:12:06.527Z</time></trkpt><trkpt lat="42.4971129" lon="14.1745262"><ele>4.333333333333334</ele><time>2026-05-01T07:12:07.526Z</time></trkpt><trkpt lat="42.497165" lon="14.1746116"><ele>4.0</ele><time>2026-05-01T07:12:08.528Z</time></trkpt><trkpt lat="42.4972198" lon="14.174696"><ele>3.666666666666667</ele><time>2026-05-01T07:12:09.527Z</time></trkpt><trkpt lat="42.4972781" lon="14.1747849"><ele>3.3333333333333335</ele><time>2026-05-01T07:12:10.526Z</time></trkpt><trkpt lat="42.4973318" lon="14.1748658"><ele>3.0</ele><time>2026-05-01T07:12:11.527Z</time></trkpt><trkpt lat="42.4973953" lon="14.1749528"><ele>3.0</ele><time>2026-05-01T07:12:12.527Z</time></trkpt><trkpt lat="42.4974544" lon="14.1750407"><ele>3.0</ele><time>2026-05-01T07:12:13.527Z</time></trkpt><trkpt lat="42.4975146" lon="14.1751344"><ele>3.0</ele><time>2026-05-01T07:12:14.527Z</time></trkpt><trkpt lat="42.4975735" lon="14.1752174"><ele>3.0</ele><time>2026-05-01T07:12:15.527Z</time></trkpt><trkpt lat="42.4976333" lon="14.1753049"><ele>3.0</ele><time>2026-05-01T07:12:16.527Z</time></trkpt><trkpt lat="42.4976953" lon="14.1753949"><ele>3.0</ele><time>2026-05-01T07:12:17.527Z</time></trkpt><trkpt lat="42.4977474" lon="14.1754808"><ele>3.0</ele><time>2026-05-01T07:12:18.528Z</time></trkpt><trkpt lat="42.4978015" lon="14.1755642"><ele>3.0</ele><time>2026-05-01T07:12:19.527Z</time></trkpt><trkpt lat="42.4978521" lon="14.1756369"><ele>3.0</ele><time>2026-05-01T07:12:20.527Z</time></trkpt><trkpt lat="42.4978978" lon="14.1757137"><ele>3.0</ele><time>2026-05-01T07:12:21.526Z</time></trkpt><trkpt lat="42.4979415" lon="14.1757769"><ele>3.0</ele><time>2026-05-01T07:12:22.526Z</time></trkpt><trkpt lat="42.4979855" lon="14.1758414"><ele>3.0</ele><time>2026-05-01T07:12:23.528Z</time></trkpt><trkpt lat="42.4980519" lon="14.1759635"><ele>3.1666666666666665</ele><time>2026-05-01T07:12:25.528Z</time></trkpt><trkpt lat="42.4981128" lon="14.1760665"><ele>3.333333333333333</ele><time>2026-05-01T07:12:27.527Z</time></trkpt><trkpt lat="42.4982021" lon="14.1761661"><ele>3.5</ele><time>2026-05-01T07:12:29.528Z</time></trkpt><trkpt lat="42.4982446" lon="14.1762297"><ele>3.6666666666666665</ele><time>2026-05-01T07:12:30.526Z</time></trkpt><trkpt lat="42.498292" lon="14.1763088"><ele>3.833333333333333</ele><time>2026-05-01T07:12:31.527Z</time></trkpt><trkpt lat="42.4983573" lon="14.1764071"><ele>4.0</ele><time>2026-05-01T07:12:32.526Z</time></trkpt><trkpt lat="42.4984244" lon="14.1765052"><ele>4.2</ele><time>2026-05-01T07:12:33.527Z</time></trkpt><trkpt lat="42.4984911" lon="14.1766079"><ele>4.4</ele><time>2026-05-01T07:12:34.527Z</time></trkpt><trkpt lat="42.4985615" lon="14.1766967"><ele>4.6</ele><time>2026-05-01T07:12:35.528Z</time></trkpt><trkpt lat="42.498622" lon="14.1767881"><ele>4.8</ele><time>2026-05-01T07:12:36.528Z</time></trkpt><trkpt lat="42.4986839" lon="14.176876"><ele>5.0</ele><time>2026-05-01T07:12:37.527Z</time></trkpt><trkpt lat="42.4987452" lon="14.1769552"><ele>5.0</ele><time>2026-05-01T07:12:38.527Z</time></trkpt><trkpt lat="42.4988026" lon="14.1770397"><ele>5.0</ele><time>2026-05-01T07:12:39.527Z</time></trkpt><trkpt lat="42.4988552" lon="14.1771337"><ele>5.0</ele><time>2026-05-01T07:12:40.526Z</time></trkpt><trkpt lat="42.4989153" lon="14.1772261"><ele>5.0</ele><time>2026-05-01T07:12:41.526Z</time></trkpt><trkpt lat="42.4989784" lon="14.1773277"><ele>5.0</ele><time>2026-05-01T07:12:42.527Z</time></trkpt><trkpt lat="42.4990376" lon="14.1774198"><ele>5.166666666666667</ele><time>2026-05-01T07:12:43.528Z</time></trkpt><trkpt lat="42.4991031" lon="14.1775159"><ele>5.333333333333334</ele><time>2026-05-01T07:12:44.527Z</time></trkpt><trkpt lat="42.4991661" lon="14.1776026"><ele>5.5</ele><time>2026-05-01T07:12:45.527Z</time></trkpt><trkpt lat="42.4992236" lon="14.1776884"><ele>5.666666666666667</ele><time>2026-05-01T07:12:46.527Z</time></trkpt><trkpt lat="42.4992741" lon="14.1777677"><ele>5.833333333333333</ele><time>2026-05-01T07:12:47.527Z</time></trkpt><trkpt lat="42.4993399" lon="14.1778624"><ele>6.0</ele><time>2026-05-01T07:12:48.528Z</time></trkpt><trkpt lat="42.4993884" lon="14.1779436"><ele>6.0</ele><time>2026-05-01T07:12:49.527Z</time></trkpt><trkpt lat="42.4994406" lon="14.1780148"><ele>6.0</ele><time>2026-05-01T07:12:50.527Z</time></trkpt><trkpt lat="42.4994868" lon="14.1780873"><ele>6.0</ele><time>2026-05-01T07:12:51.527Z</time></trkpt><trkpt lat="42.4995336" lon="14.1781759"><ele>6.0</ele><time>2026-05-01T07:12:52.528Z</time></trkpt><trkpt lat="42.4995886" lon="14.1782706"><ele>6.0</ele><time>2026-05-01T07:12:53.527Z</time></trkpt><trkpt lat="42.4996309" lon="14.178353"><ele>6.0</ele><time>2026-05-01T07:12:54.527Z</time></trkpt><trkpt lat="42.4996783" lon="14.1784242"><ele>5.833333333333333</ele><time>2026-05-01T07:12:55.526Z</time></trkpt><trkpt lat="42.4997392" lon="14.1785225"><ele>5.666666666666667</ele><time>2026-05-01T07:12:57.527Z</time></trkpt><trkpt lat="42.499736" lon="14.1786289"><ele>5.5</ele><time>2026-05-01T07:12:59.526Z</time></trkpt><trkpt lat="42.4996998" lon="14.1787566"><ele>5.333333333333334</ele><time>2026-05-01T07:13:01.527Z</time></trkpt><trkpt lat="42.4996488" lon="14.1788328"><ele>5.166666666666667</ele><time>2026-05-01T07:13:02.527Z</time></trkpt><trkpt lat="42.4995924" lon="14.1788992"><ele>5.0</ele><time>2026-05-01T07:13:03.526Z</time></trkpt><trkpt lat="42.4995139" lon="14.1789867"><ele>4.75</ele><time>2026-05-01T07:13:04.527Z</time></trkpt><trkpt lat="42.4994221" lon="14.1790809"><ele>4.5</ele><time>2026-05-01T07:13:05.527Z</time></trkpt><trkpt lat="42.4993177" lon="14.1791875"><ele>4.25</ele><time>2026-05-01T07:13:06.527Z</time></trkpt><trkpt lat="42.4992116" lon="14.1792955"><ele>4.0</ele><time>2026-05-01T07:13:07.526Z</time></trkpt><trkpt lat="42.4991065" lon="14.1794005"><ele>4.0</ele><time>2026-05-01T07:13:08.526Z</time></trkpt><trkpt lat="42.4989951" lon="14.1795148"><ele>4.0</ele><time>2026-05-01T07:13:09.528Z</time></trkpt><trkpt lat="42.4988926" lon="14.1796153"><ele>4.0</ele><time>2026-05-01T07:13:10.528Z</time></trkpt><trkpt lat="42.4987933" lon="14.1797176"><ele>4.0</ele><time>2026-05-01T07:13:11.528Z</time></trkpt><trkpt lat="42.4986819" lon="14.1798335"><ele>4.25</ele><time>2026-05-01T07:13:12.527Z</time></trkpt><trkpt lat="42.4985744" lon="14.1799457"><ele>4.5</ele><time>2026-05-01T07:13:13.526Z</time></trkpt><trkpt lat="42.4984671" lon="14.1800558"><ele>4.75</ele><time>2026-05-01T07:13:14.526Z</time></trkpt><trkpt lat="42.4983558" lon="14.1801692"><ele>5.0</ele><time>2026-05-01T07:13:15.527Z</time></trkpt><trkpt lat="42.4982513" lon="14.1802795"><ele>5.0</ele><time>2026-05-01T07:13:16.528Z</time></trkpt><trkpt lat="42.4981582" lon="14.1803807"><ele>5.0</ele><time>2026-05-01T07:13:17.527Z</time></trkpt><trkpt lat="42.498068" lon="14.1804726"><ele>5.0</ele><time>2026-05-01T07:13:18.527Z</time></trkpt><trkpt lat="42.4979708" lon="14.1805698"><ele>5.0</ele><time>2026-05-01T07:13:19.526Z</time></trkpt><trkpt lat="42.4978719" lon="14.1806731"><ele>5.25</ele><time>2026-05-01T07:13:20.527Z</time></trkpt><trkpt lat="42.4977641" lon="14.1807776"><ele>5.5</ele><time>2026-05-01T07:13:21.527Z</time></trkpt><trkpt lat="42.4976621" lon="14.1808859"><ele>5.75</ele><time>2026-05-01T07:13:22.526Z</time></trkpt><trkpt lat="42.4975612" lon="14.1809922"><ele>6.0</ele><time>2026-05-01T07:13:23.527Z</time></trkpt><trkpt lat="42.4974589" lon="14.1810999"><ele>6.0</ele><time>2026-05-01T07:13:24.528Z</time></trkpt><trkpt lat="42.4973533" lon="14.1812096"><ele>6.0</ele><time>2026-05-01T07:13:25.528Z</time></trkpt><trkpt lat="42.4972491" lon="14.1813206"><ele>6.0</ele><time>2026-05-01T07:13:26.528Z</time></trkpt><trkpt lat="42.497147" lon="14.1814295"><ele>6.0</ele><time>2026-05-01T07:13:27.527Z</time></trkpt><trkpt lat="42.4970455" lon="14.1815293"><ele>5.75</ele><time>2026-05-01T07:13:28.527Z</time></trkpt><trkpt lat="42.4969401" lon="14.181631"><ele>5.5</ele><time>2026-05-01T07:13:29.526Z</time></trkpt><trkpt lat="42.496838" lon="14.181737"><ele>5.25</ele><time>2026-05-01T07:13:30.526Z</time></trkpt><trkpt lat="42.4967381" lon="14.1818339"><ele>5.0</ele><time>2026-05-01T07:13:31.527Z</time></trkpt><trkpt lat="42.4966349" lon="14.1819345"><ele>5.0</ele><time>2026-05-01T07:13:32.528Z</time></trkpt><trkpt lat="42.4965343" lon="14.1820357"><ele>5.0</ele><time>2026-05-01T07:13:33.528Z</time></trkpt><trkpt lat="42.496435" lon="14.1821352"><ele>5.0</ele><time>2026-05-01T07:13:34.527Z</time></trkpt><trkpt lat="42.4963399" lon="14.1822354"><ele>5.0</ele><time>2026-05-01T07:13:35.527Z</time></trkpt><trkpt lat="42.4962496" lon="14.1823326"><ele>4.4</ele><time>2026-05-01T07:13:36.528Z</time></trkpt><trkpt lat="42.4961576" lon="14.1824347"><ele>3.8</ele><time>2026-05-01T07:13:37.526Z</time></trkpt><trkpt lat="42.4960676" lon="14.1825291"><ele>3.2</ele><time>2026-05-01T07:13:38.525Z</time></trkpt><trkpt lat="42.4959815" lon="14.1826229"><ele>2.6</ele><time>2026-05-01T07:13:39.526Z</time></trkpt><trkpt lat="42.4959106" lon="14.1827076"><ele>2.0</ele><time>2026-05-01T07:13:40.526Z</time></trkpt><trkpt lat="42.4958348" lon="14.1827867"><ele>2.0</ele><time>2026-05-01T07:13:41.525Z</time></trkpt><trkpt lat="42.495752" lon="14.1828722"><ele>2.0</ele><time>2026-05-01T07:13:42.526Z</time></trkpt><trkpt lat="42.4956634" lon="14.1829554"><ele>2.0</ele><time>2026-05-01T07:13:43.526Z</time></trkpt><trkpt lat="42.4955743" lon="14.1830365"><ele>2.0</ele><time>2026-05-01T07:13:44.526Z</time></trkpt><trkpt lat="42.4954786" lon="14.1831351"><ele>2.0</ele><time>2026-05-01T07:13:45.525Z</time></trkpt><trkpt lat="42.4953773" lon="14.1832372"><ele>2.75</ele><time>2026-05-01T07:13:46.526Z</time></trkpt><trkpt lat="42.4952703" lon="14.1833426"><ele>3.5</ele><time>2026-05-01T07:13:47.526Z</time></trkpt><trkpt lat="42.4951597" lon="14.1834516"><ele>4.25</ele><time>2026-05-01T07:13:48.526Z</time></trkpt><trkpt lat="42.4950458" lon="14.1835605"><ele>5.0</ele><time>2026-05-01T07:13:49.527Z</time></trkpt><trkpt lat="42.4949372" lon="14.1836741"><ele>5.0</ele><time>2026-05-01T07:13:50.525Z</time></trkpt><trkpt lat="42.4948282" lon="14.1837879"><ele>5.0</ele><time>2026-05-01T07:13:51.526Z</time></trkpt><trkpt lat="42.4947199" lon="14.1839"><ele>5.0</ele><time>2026-05-01T07:13:52.525Z</time></trkpt><trkpt lat="42.4946177" lon="14.1840047"><ele>5.0</ele><time>2026-05-01T07:13:53.525Z</time></trkpt><trkpt lat="42.4945205" lon="14.1841042"><ele>5.0</ele><time>2026-05-01T07:13:54.526Z</time></trkpt><trkpt lat="42.4944273" lon="14.1841978"><ele>5.0</ele><time>2026-05-01T07:13:55.526Z</time></trkpt><trkpt lat="42.4943337" lon="14.1842916"><ele>5.0</ele><time>2026-05-01T07:13:56.526Z</time></trkpt><trkpt lat="42.4942365" lon="14.1843856"><ele>5.0</ele><time>2026-05-01T07:13:57.526Z</time></trkpt><trkpt lat="42.4941519" lon="14.1844727"><ele>5.0</ele><time>2026-05-01T07:13:58.526Z</time></trkpt><trkpt lat="42.4940615" lon="14.1845658"><ele>5.0</ele><time>2026-05-01T07:13:59.525Z</time></trkpt><trkpt lat="42.4939703" lon="14.1846593"><ele>5.0</ele><time>2026-05-01T07:14:00.527Z</time></trkpt><trkpt lat="42.4938784" lon="14.1847503"><ele>5.0</ele><time>2026-05-01T07:14:01.526Z</time></trkpt><trkpt lat="42.4937893" lon="14.184849"><ele>4.75</ele><time>2026-05-01T07:14:02.526Z</time></trkpt><trkpt lat="42.4936981" lon="14.1849491"><ele>4.5</ele><time>2026-05-01T07:14:03.526Z</time></trkpt><trkpt lat="42.4936035" lon="14.18505"><ele>4.25</ele><time>2026-05-01T07:14:04.526Z</time></trkpt><trkpt lat="42.4935086" lon="14.1851508"><ele>4.0</ele><time>2026-05-01T07:14:05.526Z</time></trkpt><trkpt lat="42.4934129" lon="14.1852547"><ele>4.0</ele><time>2026-05-01T07:14:06.526Z</time></trkpt><trkpt lat="42.4933158" lon="14.1853619"><ele>4.0</ele><time>2026-05-01T07:14:07.526Z</time></trkpt><trkpt lat="42.4932184" lon="14.1854726"><ele>4.0</ele><time>2026-05-01T07:14:08.526Z</time></trkpt><trkpt lat="42.493123" lon="14.1855798"><ele>4.0</ele><time>2026-05-01T07:14:09.525Z</time></trkpt><trkpt lat="42.4930354" lon="14.1856818"><ele>4.5</ele><time>2026-05-01T07:14:10.526Z</time></trkpt><trkpt lat="42.4929539" lon="14.1857742"><ele>5.0</ele><time>2026-05-01T07:14:11.526Z</time></trkpt><trkpt lat="42.4928749" lon="14.1858748"><ele>5.5</ele><time>2026-05-01T07:14:12.526Z</time></trkpt><trkpt lat="42.4927875" lon="14.1859829"><ele>6.0</ele><time>2026-05-01T07:14:13.525Z</time></trkpt><trkpt lat="42.4926927" lon="14.1860901"><ele>6.0</ele><time>2026-05-01T07:14:14.526Z</time></trkpt><trkpt lat="42.4925918" lon="14.1862029"><ele>6.0</ele><time>2026-05-01T07:14:15.526Z</time></trkpt><trkpt lat="42.4924872" lon="14.1863207"><ele>6.0</ele><time>2026-05-01T07:14:16.526Z</time></trkpt><trkpt lat="42.4923879" lon="14.1864274"><ele>6.0</ele><time>2026-05-01T07:14:17.526Z</time></trkpt><trkpt lat="42.4922869" lon="14.1865349"><ele>5.5</ele><time>2026-05-01T07:14:18.525Z</time></trkpt><trkpt lat="42.4921878" lon="14.1866433"><ele>5.0</ele><time>2026-05-01T07:14:19.526Z</time></trkpt><trkpt lat="42.4920876" lon="14.1867504"><ele>4.5</ele><time>2026-05-01T07:14:20.526Z</time></trkpt><trkpt lat="42.4919869" lon="14.1868644"><ele>4.0</ele><time>2026-05-01T07:14:21.526Z</time></trkpt><trkpt lat="42.4918845" lon="14.1869805"><ele>4.0</ele><time>2026-05-01T07:14:22.526Z</time></trkpt><trkpt lat="42.49178" lon="14.1871045"><ele>4.0</ele><time>2026-05-01T07:14:23.526Z</time></trkpt><trkpt lat="42.4916714" lon="14.1872223"><ele>4.0</ele><time>2026-05-01T07:14:24.525Z</time></trkpt><trkpt lat="42.4915549" lon="14.1873515"><ele>4.0</ele><time>2026-05-01T07:14:25.526Z</time></trkpt><trkpt lat="42.4914427" lon="14.1874759"><ele>4.0</ele><time>2026-05-01T07:14:26.526Z</time></trkpt><trkpt lat="42.4913327" lon="14.1875982"><ele>4.0</ele><time>2026-05-01T07:14:27.526Z</time></trkpt><trkpt lat="42.4912198" lon="14.1877183"><ele>4.0</ele><time>2026-05-01T07:14:28.526Z</time></trkpt><trkpt lat="42.491109" lon="14.1878369"><ele>4.0</ele><time>2026-05-01T07:14:29.526Z</time></trkpt><trkpt lat="42.4909966" lon="14.1879593"><ele>4.25</ele><time>2026-05-01T07:14:30.525Z</time></trkpt><trkpt lat="42.4908906" lon="14.1880857"><ele>4.5</ele><time>2026-05-01T07:14:31.526Z</time></trkpt><trkpt lat="42.4907836" lon="14.1882072"><ele>4.75</ele><time>2026-05-01T07:14:32.525Z</time></trkpt><trkpt lat="42.490672" lon="14.1883255"><ele>5.0</ele><time>2026-05-01T07:14:33.526Z</time></trkpt><trkpt lat="42.49057" lon="14.1884392"><ele>5.25</ele><time>2026-05-01T07:14:34.525Z</time></trkpt><trkpt lat="42.4904558" lon="14.1885588"><ele>5.5</ele><time>2026-05-01T07:14:35.526Z</time></trkpt><trkpt lat="42.4903471" lon="14.188675"><ele>5.75</ele><time>2026-05-01T07:14:36.527Z</time></trkpt><trkpt lat="42.4902418" lon="14.1887949"><ele>6.0</ele><time>2026-05-01T07:14:37.526Z</time></trkpt><trkpt lat="42.4901348" lon="14.18892"><ele>5.25</ele><time>2026-05-01T07:14:38.526Z</time></trkpt><trkpt lat="42.4900307" lon="14.189034"><ele>4.5</ele><time>2026-05-01T07:14:39.526Z</time></trkpt><trkpt lat="42.4899301" lon="14.1891422"><ele>3.75</ele><time>2026-05-01T07:14:40.527Z</time></trkpt><trkpt lat="42.4898247" lon="14.1892546"><ele>3.0</ele><time>2026-05-01T07:14:41.526Z</time></trkpt><trkpt lat="42.4897188" lon="14.1893703"><ele>3.0</ele><time>2026-05-01T07:14:42.526Z</time></trkpt><trkpt lat="42.4896199" lon="14.1894831"><ele>3.0</ele><time>2026-05-01T07:14:43.526Z</time></trkpt><trkpt lat="42.4895172" lon="14.1895949"><ele>3.0</ele><time>2026-05-01T07:14:44.526Z</time></trkpt><trkpt lat="42.4894126" lon="14.1897104"><ele>3.0</ele><time>2026-05-01T07:14:45.525Z</time></trkpt><trkpt lat="42.4893052" lon="14.1898227"><ele>2.75</ele><time>2026-05-01T07:14:46.527Z</time></trkpt><trkpt lat="42.4892009" lon="14.1899359"><ele>2.5</ele><time>2026-05-01T07:14:47.526Z</time></trkpt><trkpt lat="42.4890956" lon="14.1900412"><ele>2.25</ele><time>2026-05-01T07:14:48.527Z</time></trkpt><trkpt lat="42.4889891" lon="14.1901584"><ele>2.0</ele><time>2026-05-01T07:14:49.525Z</time></trkpt><trkpt lat="42.4888832" lon="14.1902696"><ele>2.0</ele><time>2026-05-01T07:14:50.525Z</time></trkpt><trkpt lat="42.488776" lon="14.1903817"><ele>2.0</ele><time>2026-05-01T07:14:51.527Z</time></trkpt><trkpt lat="42.4886746" lon="14.1904943"><ele>2.0</ele><time>2026-05-01T07:14:52.526Z</time></trkpt><trkpt lat="42.4885799" lon="14.1906011"><ele>2.0</ele><time>2026-05-01T07:14:53.526Z</time></trkpt><trkpt lat="42.4885" lon="14.1906811"><ele>2.6</ele><time>2026-05-01T07:14:54.525Z</time></trkpt><trkpt lat="42.488418" lon="14.1907625"><ele>3.2</ele><time>2026-05-01T07:14:55.525Z</time></trkpt><trkpt lat="42.4883394" lon="14.1908455"><ele>3.8</ele><time>2026-05-01T07:14:56.526Z</time></trkpt><trkpt lat="42.4882563" lon="14.1909374"><ele>4.4</ele><time>2026-05-01T07:14:57.526Z</time></trkpt><trkpt lat="42.4881629" lon="14.1910382"><ele>5.0</ele><time>2026-05-01T07:14:58.527Z</time></trkpt><trkpt lat="42.4880694" lon="14.19114"><ele>5.0</ele><time>2026-05-01T07:14:59.526Z</time></trkpt><trkpt lat="42.487969" lon="14.1912494"><ele>5.0</ele><time>2026-05-01T07:15:00.525Z</time></trkpt><trkpt lat="42.4878703" lon="14.1913609"><ele>5.0</ele><time>2026-05-01T07:15:01.527Z</time></trkpt><trkpt lat="42.4877736" lon="14.1914726"><ele>5.0</ele><time>2026-05-01T07:15:02.525Z</time></trkpt><trkpt lat="42.4876748" lon="14.1915803"><ele>5.25</ele><time>2026-05-01T07:15:03.526Z</time></trkpt><trkpt lat="42.4875761" lon="14.1916933"><ele>5.5</ele><time>2026-05-01T07:15:04.525Z</time></trkpt><trkpt lat="42.4874795" lon="14.1917975"><ele>5.75</ele><time>2026-05-01T07:15:05.526Z</time></trkpt><trkpt lat="42.4873806" lon="14.1919112"><ele>6.0</ele><time>2026-05-01T07:15:06.527Z</time></trkpt><trkpt lat="42.4872853" lon="14.1920177"><ele>6.0</ele><time>2026-05-01T07:15:07.526Z</time></trkpt><trkpt lat="42.4871899" lon="14.1921153"><ele>6.0</ele><time>2026-05-01T07:15:08.526Z</time></trkpt><trkpt lat="42.4870881" lon="14.1922193"><ele>6.0</ele><time>2026-05-01T07:15:09.525Z</time></trkpt><trkpt lat="42.4869956" lon="14.1923214"><ele>6.0</ele><time>2026-05-01T07:15:10.527Z</time></trkpt><trkpt lat="42.486906" lon="14.1924203"><ele>5.25</ele><time>2026-05-01T07:15:11.526Z</time></trkpt><trkpt lat="42.4868125" lon="14.1925168"><ele>4.5</ele><time>2026-05-01T07:15:12.525Z</time></trkpt><trkpt lat="42.4867243" lon="14.1926072"><ele>3.75</ele><time>2026-05-01T07:15:13.526Z</time></trkpt><trkpt lat="42.4866327" lon="14.1927042"><ele>3.0</ele><time>2026-05-01T07:15:14.527Z</time></trkpt><trkpt lat="42.4865444" lon="14.1927924"><ele>3.0</ele><time>2026-05-01T07:15:15.526Z</time></trkpt><trkpt lat="42.4864618" lon="14.192879"><ele>3.0</ele><time>2026-05-01T07:15:16.525Z</time></trkpt><trkpt lat="42.4863803" lon="14.1929651"><ele>3.0</ele><time>2026-05-01T07:15:17.526Z</time></trkpt><trkpt lat="42.4862965" lon="14.1930524"><ele>3.0</ele><time>2026-05-01T07:15:18.526Z</time></trkpt><trkpt lat="42.4862133" lon="14.193138"><ele>3.0</ele><time>2026-05-01T07:15:19.526Z</time></trkpt><trkpt lat="42.4861318" lon="14.1932258"><ele>3.2</ele><time>2026-05-01T07:15:20.526Z</time></trkpt><trkpt lat="42.4860487" lon="14.1933116"><ele>3.4</ele><time>2026-05-01T07:15:21.526Z</time></trkpt><trkpt lat="42.4859612" lon="14.1933981"><ele>3.6000000000000005</ele><time>2026-05-01T07:15:22.526Z</time></trkpt><trkpt lat="42.4858753" lon="14.193487"><ele>3.8000000000000003</ele><time>2026-05-01T07:15:23.526Z</time></trkpt><trkpt lat="42.4857965" lon="14.1935795"><ele>4.0</ele><time>2026-05-01T07:15:24.526Z</time></trkpt><trkpt lat="42.4857187" lon="14.193668"><ele>4.0</ele><time>2026-05-01T07:15:25.526Z</time></trkpt><trkpt lat="42.4856421" lon="14.1937563"><ele>4.0</ele><time>2026-05-01T07:15:26.525Z</time></trkpt><trkpt lat="42.4855661" lon="14.1938435"><ele>4.0</ele><time>2026-05-01T07:15:27.525Z</time></trkpt><trkpt lat="42.4854953" lon="14.1939315"><ele>4.0</ele><time>2026-05-01T07:15:28.525Z</time></trkpt><trkpt lat="42.4854251" lon="14.1940208"><ele>4.0</ele><time>2026-05-01T07:15:29.525Z</time></trkpt><trkpt lat="42.4853562" lon="14.1941096"><ele>3.8000000000000003</ele><time>2026-05-01T07:15:30.527Z</time></trkpt><trkpt lat="42.4852885" lon="14.1941939"><ele>3.6000000000000005</ele><time>2026-05-01T07:15:31.526Z</time></trkpt><trkpt lat="42.4852241" lon="14.1942706"><ele>3.4</ele><time>2026-05-01T07:15:32.526Z</time></trkpt><trkpt lat="42.4851521" lon="14.1943586"><ele>3.2</ele><time>2026-05-01T07:15:33.526Z</time></trkpt><trkpt lat="42.4850792" lon="14.194441"><ele>3.0</ele><time>2026-05-01T07:15:34.527Z</time></trkpt><trkpt lat="42.4850095" lon="14.1945289"><ele>3.0</ele><time>2026-05-01T07:15:35.527Z</time></trkpt><trkpt lat="42.4849366" lon="14.1946164"><ele>3.0</ele><time>2026-05-01T07:15:36.525Z</time></trkpt><trkpt lat="42.4848657" lon="14.1947054"><ele>3.0</ele><time>2026-05-01T07:15:37.525Z</time></trkpt><trkpt lat="42.4847987" lon="14.1947928"><ele>3.0</ele><time>2026-05-01T07:15:38.526Z</time></trkpt><trkpt lat="42.4847297" lon="14.1948818"><ele>3.0</ele><time>2026-05-01T07:15:39.527Z</time></trkpt><trkpt lat="42.484664" lon="14.1949727"><ele>2.8</ele><time>2026-05-01T07:15:40.526Z</time></trkpt><trkpt lat="42.4845939" lon="14.1950621"><ele>2.5999999999999996</ele><time>2026-05-01T07:15:41.526Z</time></trkpt><trkpt lat="42.484529" lon="14.1951507"><ele>2.4000000000000004</ele><time>2026-05-01T07:15:42.526Z</time></trkpt><trkpt lat="42.4844593" lon="14.1952406"><ele>2.2</ele><time>2026-05-01T07:15:43.525Z</time></trkpt><trkpt lat="42.4843881" lon="14.1953368"><ele>2.0</ele><time>2026-05-01T07:15:44.526Z</time></trkpt><trkpt lat="42.4843197" lon="14.1954231"><ele>2.0</ele><time>2026-05-01T07:15:45.525Z</time></trkpt><trkpt lat="42.4842468" lon="14.1955176"><ele>2.0</ele><time>2026-05-01T07:15:46.526Z</time></trkpt><trkpt lat="42.4841738" lon="14.1956161"><ele>2.0</ele><time>2026-05-01T07:15:47.526Z</time></trkpt><trkpt lat="42.4841005" lon="14.1957188"><ele>2.0</ele><time>2026-05-01T07:15:48.526Z</time></trkpt><trkpt lat="42.4840245" lon="14.1958235"><ele>2.0</ele><time>2026-05-01T07:15:49.525Z</time></trkpt><trkpt lat="42.4839427" lon="14.1959325"><ele>1.8</ele><time>2026-05-01T07:15:50.526Z</time></trkpt><trkpt lat="42.4838666" lon="14.1960387"><ele>1.6</ele><time>2026-05-01T07:15:51.525Z</time></trkpt><trkpt lat="42.4837946" lon="14.1961377"><ele>1.4000000000000001</ele><time>2026-05-01T07:15:52.526Z</time></trkpt><trkpt lat="42.4837252" lon="14.1962366"><ele>1.2000000000000002</ele><time>2026-05-01T07:15:53.526Z</time></trkpt><trkpt lat="42.4836581" lon="14.1963286"><ele>1.0</ele><time>2026-05-01T07:15:54.526Z</time></trkpt><trkpt lat="42.4835873" lon="14.1964319"><ele>2.0</ele><time>2026-05-01T07:15:55.525Z</time></trkpt><trkpt lat="42.483524" lon="14.1965248"><ele>3.0</ele><time>2026-05-01T07:15:56.527Z</time></trkpt><trkpt lat="42.4834623" lon="14.1966159"><ele>3.9999999999999996</ele><time>2026-05-01T07:15:57.526Z</time></trkpt><trkpt lat="42.4833955" lon="14.1967112"><ele>5.0</ele><time>2026-05-01T07:15:58.526Z</time></trkpt><trkpt lat="42.4833294" lon="14.1968033"><ele>6.0</ele><time>2026-05-01T07:15:59.525Z</time></trkpt><trkpt lat="42.4832631" lon="14.1968957"><ele>6.0</ele><time>2026-05-01T07:16:00.525Z</time></trkpt><trkpt lat="42.483198" lon="14.1969868"><ele>6.0</ele><time>2026-05-01T07:16:01.525Z</time></trkpt><trkpt lat="42.4831282" lon="14.1970855"><ele>6.0</ele><time>2026-05-01T07:16:02.524Z</time></trkpt><trkpt lat="42.4830643" lon="14.1971817"><ele>6.0</ele><time>2026-05-01T07:16:03.526Z</time></trkpt><trkpt lat="42.4829985" lon="14.1972786"><ele>6.0</ele><time>2026-05-01T07:16:04.525Z</time></trkpt><trkpt lat="42.4829348" lon="14.1973726"><ele>6.199999999999999</ele><time>2026-05-01T07:16:05.526Z</time></trkpt><trkpt lat="42.4828693" lon="14.1974744"><ele>6.3999999999999995</ele><time>2026-05-01T07:16:06.525Z</time></trkpt><trkpt lat="42.4828033" lon="14.1975694"><ele>6.6</ele><time>2026-05-01T07:16:07.526Z</time></trkpt><trkpt lat="42.482741" lon="14.197668"><ele>6.8</ele><time>2026-05-01T07:16:08.525Z</time></trkpt><trkpt lat="42.4826701" lon="14.1977659"><ele>7.0</ele><time>2026-05-01T07:16:09.525Z</time></trkpt><trkpt lat="42.4825996" lon="14.197867"><ele>7.0</ele><time>2026-05-01T07:16:10.524Z</time></trkpt><trkpt lat="42.4825284" lon="14.1979677"><ele>6.999999999999999</ele><time>2026-05-01T07:16:11.524Z</time></trkpt><trkpt lat="42.4824559" lon="14.1980689"><ele>6.999999999999999</ele><time>2026-05-01T07:16:12.526Z</time></trkpt><trkpt lat="42.4823866" lon="14.1981671"><ele>7.0</ele><time>2026-05-01T07:16:13.526Z</time></trkpt><trkpt lat="42.4823081" lon="14.1982767"><ele>7.0</ele><time>2026-05-01T07:16:14.525Z</time></trkpt><trkpt lat="42.4822264" lon="14.1983903"><ele>6.25</ele><time>2026-05-01T07:16:15.524Z</time></trkpt><trkpt lat="42.482133" lon="14.1985319"><ele>5.5</ele><time>2026-05-01T07:16:16.525Z</time></trkpt><trkpt lat="42.4820379" lon="14.1986799"><ele>4.75</ele><time>2026-05-01T07:16:17.525Z</time></trkpt><trkpt lat="42.4819367" lon="14.1988257"><ele>4.0</ele><time>2026-05-01T07:16:18.524Z</time></trkpt><trkpt lat="42.4818347" lon="14.198973"><ele>5.0</ele><time>2026-05-01T07:16:19.525Z</time></trkpt><trkpt lat="42.4817255" lon="14.1991214"><ele>6.0</ele><time>2026-05-01T07:16:20.524Z</time></trkpt><trkpt lat="42.4816222" lon="14.1992717"><ele>7.0</ele><time>2026-05-01T07:16:21.525Z</time></trkpt><trkpt lat="42.4815228" lon="14.1994137"><ele>7.0</ele><time>2026-05-01T07:16:22.525Z</time></trkpt><trkpt lat="42.4814241" lon="14.1995605"><ele>7.0</ele><time>2026-05-01T07:16:23.524Z</time></trkpt><trkpt lat="42.4813209" lon="14.1997116"><ele>7.0</ele><time>2026-05-01T07:16:24.525Z</time></trkpt><trkpt lat="42.4812282" lon="14.1998575"><ele>7.0</ele><time>2026-05-01T07:16:25.525Z</time></trkpt><trkpt lat="42.4811298" lon="14.1999974"><ele>6.0</ele><time>2026-05-01T07:16:26.525Z</time></trkpt><trkpt lat="42.4810328" lon="14.2001379"><ele>5.0</ele><time>2026-05-01T07:16:27.525Z</time></trkpt><trkpt lat="42.4809378" lon="14.2002768"><ele>4.0</ele><time>2026-05-01T07:16:28.525Z</time></trkpt><trkpt lat="42.4808397" lon="14.2004156"><ele>3.0</ele><time>2026-05-01T07:16:29.525Z</time></trkpt><trkpt lat="42.4807479" lon="14.2005566"><ele>2.75</ele><time>2026-05-01T07:16:30.526Z</time></trkpt><trkpt lat="42.4806541" lon="14.200695"><ele>2.5</ele><time>2026-05-01T07:16:31.525Z</time></trkpt><trkpt lat="42.4805596" lon="14.2008292"><ele>2.25</ele><time>2026-05-01T07:16:32.526Z</time></trkpt><trkpt lat="42.4804687" lon="14.2009668"><ele>2.0</ele><time>2026-05-01T07:16:33.525Z</time></trkpt><trkpt lat="42.480379" lon="14.201101"><ele>2.75</ele><time>2026-05-01T07:16:34.524Z</time></trkpt><trkpt lat="42.4802921" lon="14.2012267"><ele>3.5</ele><time>2026-05-01T07:16:35.526Z</time></trkpt><trkpt lat="42.4802063" lon="14.2013525"><ele>4.25</ele><time>2026-05-01T07:16:36.526Z</time></trkpt><trkpt lat="42.4801238" lon="14.201475"><ele>5.0</ele><time>2026-05-01T07:16:37.526Z</time></trkpt><trkpt lat="42.4800389" lon="14.2015922"><ele>5.0</ele><time>2026-05-01T07:16:38.525Z</time></trkpt><trkpt lat="42.4799474" lon="14.2017143"><ele>5.0</ele><time>2026-05-01T07:16:39.524Z</time></trkpt><trkpt lat="42.4798584" lon="14.2018476"><ele>5.0</ele><time>2026-05-01T07:16:40.525Z</time></trkpt><trkpt lat="42.4797679" lon="14.2019772"><ele>5.0</ele><time>2026-05-01T07:16:41.524Z</time></trkpt><trkpt lat="42.4796851" lon="14.2020995"><ele>5.0</ele><time>2026-05-01T07:16:42.525Z</time></trkpt><trkpt lat="42.4796041" lon="14.2022154"><ele>5.0</ele><time>2026-05-01T07:16:43.525Z</time></trkpt><trkpt lat="42.4795221" lon="14.2023398"><ele>5.0</ele><time>2026-05-01T07:16:44.525Z</time></trkpt><trkpt lat="42.4794371" lon="14.2024659"><ele>5.0</ele><time>2026-05-01T07:16:45.526Z</time></trkpt><trkpt lat="42.4793541" lon="14.202592"><ele>4.75</ele><time>2026-05-01T07:16:46.526Z</time></trkpt><trkpt lat="42.479265" lon="14.2027245"><ele>4.5</ele><time>2026-05-01T07:16:47.525Z</time></trkpt><trkpt lat="42.4791853" lon="14.2028489"><ele>4.25</ele><time>2026-05-01T07:16:48.526Z</time></trkpt><trkpt lat="42.4791066" lon="14.2029788"><ele>4.0</ele><time>2026-05-01T07:16:49.524Z</time></trkpt><trkpt lat="42.4790367" lon="14.2031085"><ele>3.5</ele><time>2026-05-01T07:16:50.526Z</time></trkpt><trkpt lat="42.4789591" lon="14.2032372"><ele>3.0</ele><time>2026-05-01T07:16:51.525Z</time></trkpt><trkpt lat="42.4788729" lon="14.2033559"><ele>2.5</ele><time>2026-05-01T07:16:52.525Z</time></trkpt><trkpt lat="42.4787789" lon="14.2034775"><ele>2.0</ele><time>2026-05-01T07:16:53.525Z</time></trkpt><trkpt lat="42.4786805" lon="14.2035993"><ele>2.5</ele><time>2026-05-01T07:16:54.525Z</time></trkpt><trkpt lat="42.4785877" lon="14.2037311"><ele>3.0</ele><time>2026-05-01T07:16:55.525Z</time></trkpt><trkpt lat="42.4785008" lon="14.2038588"><ele>3.5</ele><time>2026-05-01T07:16:56.526Z</time></trkpt><trkpt lat="42.4784034" lon="14.203999"><ele>4.0</ele><time>2026-05-01T07:16:57.524Z</time></trkpt><trkpt lat="42.4783098" lon="14.2041345"><ele>4.0</ele><time>2026-05-01T07:16:58.525Z</time></trkpt><trkpt lat="42.4782107" lon="14.2042779"><ele>4.0</ele><time>2026-05-01T07:16:59.525Z</time></trkpt><trkpt lat="42.4781162" lon="14.2044163"><ele>4.0</ele><time>2026-05-01T07:17:00.525Z</time></trkpt><trkpt lat="42.4780248" lon="14.2045438"><ele>4.0</ele><time>2026-05-01T07:17:01.526Z</time></trkpt><trkpt lat="42.4779273" lon="14.20468"><ele>4.5</ele><time>2026-05-01T07:17:02.525Z</time></trkpt><trkpt lat="42.4778296" lon="14.2048187"><ele>5.0</ele><time>2026-05-01T07:17:03.524Z</time></trkpt><trkpt lat="42.4777369" lon="14.2049581"><ele>5.5</ele><time>2026-05-01T07:17:04.526Z</time></trkpt><trkpt lat="42.4776413" lon="14.2050987"><ele>6.0</ele><time>2026-05-01T07:17:05.525Z</time></trkpt><trkpt lat="42.4775466" lon="14.2052358"><ele>6.0</ele><time>2026-05-01T07:17:06.525Z</time></trkpt><trkpt lat="42.4774515" lon="14.2053731"><ele>6.0</ele><time>2026-05-01T07:17:07.525Z</time></trkpt><trkpt lat="42.4773537" lon="14.2055183"><ele>6.0</ele><time>2026-05-01T07:17:08.525Z</time></trkpt><trkpt lat="42.4772602" lon="14.2056566"><ele>6.0</ele><time>2026-05-01T07:17:09.526Z</time></trkpt><trkpt lat="42.4771682" lon="14.2057929"><ele>5.75</ele><time>2026-05-01T07:17:10.525Z</time></trkpt><trkpt lat="42.4770821" lon="14.2059175"><ele>5.5</ele><time>2026-05-01T07:17:11.525Z</time></trkpt><trkpt lat="42.4769856" lon="14.206057"><ele>5.25</ele><time>2026-05-01T07:17:12.525Z</time></trkpt><trkpt lat="42.4768976" lon="14.206188"><ele>5.0</ele><time>2026-05-01T07:17:13.526Z</time></trkpt><trkpt lat="42.4768105" lon="14.2063213"><ele>5.0</ele><time>2026-05-01T07:17:14.525Z</time></trkpt><trkpt lat="42.4767243" lon="14.2064509"><ele>5.0</ele><time>2026-05-01T07:17:15.525Z</time></trkpt><trkpt lat="42.476636" lon="14.2065822"><ele>5.0</ele><time>2026-05-01T07:17:16.525Z</time></trkpt><trkpt lat="42.4765467" lon="14.2067143"><ele>5.0</ele><time>2026-05-01T07:17:17.525Z</time></trkpt><trkpt lat="42.4764603" lon="14.2068449"><ele>5.25</ele><time>2026-05-01T07:17:18.524Z</time></trkpt><trkpt lat="42.4763712" lon="14.2069737"><ele>5.5</ele><time>2026-05-01T07:17:19.524Z</time></trkpt><trkpt lat="42.4762824" lon="14.2070984"><ele>5.75</ele><time>2026-05-01T07:17:20.525Z</time></trkpt><trkpt lat="42.4761966" lon="14.2072218"><ele>6.0</ele><time>2026-05-01T07:17:21.525Z</time></trkpt><trkpt lat="42.4761099" lon="14.2073487"><ele>5.5</ele><time>2026-05-01T07:17:22.524Z</time></trkpt><trkpt lat="42.476024" lon="14.207475"><ele>5.0</ele><time>2026-05-01T07:17:23.525Z</time></trkpt><trkpt lat="42.4759438" lon="14.2075977"><ele>4.5</ele><time>2026-05-01T07:17:24.524Z</time></trkpt><trkpt lat="42.4758565" lon="14.2077204"><ele>4.0</ele><time>2026-05-01T07:17:25.525Z</time></trkpt><trkpt lat="42.4757713" lon="14.2078505"><ele>4.0</ele><time>2026-05-01T07:17:26.524Z</time></trkpt><trkpt lat="42.4756885" lon="14.2079662"><ele>4.0</ele><time>2026-05-01T07:17:27.524Z</time></trkpt><trkpt lat="42.4756075" lon="14.2080889"><ele>4.0</ele><time>2026-05-01T07:17:28.525Z</time></trkpt><trkpt lat="42.4755291" lon="14.2081963"><ele>4.0</ele><time>2026-05-01T07:17:29.525Z</time></trkpt><trkpt lat="42.4754489" lon="14.2083113"><ele>4.25</ele><time>2026-05-01T07:17:30.524Z</time></trkpt><trkpt lat="42.4753728" lon="14.2084243"><ele>4.5</ele><time>2026-05-01T07:17:31.524Z</time></trkpt><trkpt lat="42.475297" lon="14.2085354"><ele>4.75</ele><time>2026-05-01T07:17:32.524Z</time></trkpt><trkpt lat="42.4752215" lon="14.2086625"><ele>5.0</ele><time>2026-05-01T07:17:33.524Z</time></trkpt><trkpt lat="42.4751417" lon="14.208782"><ele>5.0</ele><time>2026-05-01T07:17:34.524Z</time></trkpt><trkpt lat="42.4750613" lon="14.2089059"><ele>5.0</ele><time>2026-05-01T07:17:35.525Z</time></trkpt><trkpt lat="42.4749761" lon="14.2090291"><ele>5.0</ele><time>2026-05-01T07:17:36.525Z</time></trkpt><trkpt lat="42.4748944" lon="14.2091469"><ele>5.0</ele><time>2026-05-01T07:17:37.526Z</time></trkpt><trkpt lat="42.4748114" lon="14.2092653"><ele>4.75</ele><time>2026-05-01T07:17:38.525Z</time></trkpt><trkpt lat="42.4747291" lon="14.2093839"><ele>4.5</ele><time>2026-05-01T07:17:39.525Z</time></trkpt><trkpt lat="42.4746503" lon="14.209502"><ele>4.25</ele><time>2026-05-01T07:17:40.526Z</time></trkpt><trkpt lat="42.4745693" lon="14.2096207"><ele>4.0</ele><time>2026-05-01T07:17:41.526Z</time></trkpt><trkpt lat="42.4744853" lon="14.2097361"><ele>3.5</ele><time>2026-05-01T07:17:42.525Z</time></trkpt><trkpt lat="42.4744043" lon="14.2098514"><ele>3.0</ele><time>2026-05-01T07:17:43.524Z</time></trkpt><trkpt lat="42.4743281" lon="14.2099613"><ele>2.5</ele><time>2026-05-01T07:17:44.525Z</time></trkpt><trkpt lat="42.4742443" lon="14.2100813"><ele>2.0</ele><time>2026-05-01T07:17:45.525Z</time></trkpt><trkpt lat="42.474159" lon="14.2102027"><ele>2.0</ele><time>2026-05-01T07:17:46.525Z</time></trkpt><trkpt lat="42.4740754" lon="14.2103208"><ele>2.0</ele><time>2026-05-01T07:17:47.525Z</time></trkpt><trkpt lat="42.4739916" lon="14.2104373"><ele>2.0</ele><time>2026-05-01T07:17:48.525Z</time></trkpt><trkpt lat="42.4739196" lon="14.2105466"><ele>2.0</ele><time>2026-05-01T07:17:49.526Z</time></trkpt><trkpt lat="42.4738509" lon="14.2106482"><ele>1.4999999999999998</ele><time>2026-05-01T07:17:50.525Z</time></trkpt><trkpt lat="42.473789" lon="14.2107376"><ele>1.0</ele><time>2026-05-01T07:17:51.525Z</time></trkpt><trkpt lat="42.4737361" lon="14.2108132"><ele>0.5</ele><time>2026-05-01T07:17:52.524Z</time></trkpt><trkpt lat="42.473691" lon="14.2108777"><ele>0.0</ele><time>2026-05-01T07:17:53.525Z</time></trkpt><trkpt lat="42.4736359" lon="14.2109604"><ele>-0.49999999999999994</ele><time>2026-05-01T07:17:54.525Z</time></trkpt><trkpt lat="42.4735791" lon="14.2110626"><ele>-1.0</ele><time>2026-05-01T07:17:55.525Z</time></trkpt><trkpt lat="42.4735185" lon="14.2111649"><ele>-0.7142857142857142</ele><time>2026-05-01T07:17:56.525Z</time></trkpt><trkpt lat="42.4734615" lon="14.2112571"><ele>-0.4285714285714285</ele><time>2026-05-01T07:17:57.524Z</time></trkpt><trkpt lat="42.4734212" lon="14.2113317"><ele>-0.14285714285714285</ele><time>2026-05-01T07:17:58.525Z</time></trkpt><trkpt lat="42.4733764" lon="14.2113926"><ele>0.14285714285714285</ele><time>2026-05-01T07:17:59.525Z</time></trkpt><trkpt lat="42.4733298" lon="14.2114631"><ele>0.4285714285714285</ele><time>2026-05-01T07:18:00.525Z</time></trkpt><trkpt lat="42.4732794" lon="14.211537"><ele>0.7142857142857142</ele><time>2026-05-01T07:18:01.525Z</time></trkpt><trkpt lat="42.4732259" lon="14.211624"><ele>1.0</ele><time>2026-05-01T07:18:02.524Z</time></trkpt><trkpt lat="42.4731729" lon="14.2117146"><ele>1.0</ele><time>2026-05-01T07:18:03.525Z</time></trkpt><trkpt lat="42.4731123" lon="14.2118205"><ele>1.0</ele><time>2026-05-01T07:18:04.525Z</time></trkpt><trkpt lat="42.473048" lon="14.2119326"><ele>1.0</ele><time>2026-05-01T07:18:05.525Z</time></trkpt><trkpt lat="42.4729794" lon="14.2120558"><ele>1.0</ele><time>2026-05-01T07:18:06.525Z</time></trkpt><trkpt lat="42.4729085" lon="14.2121753"><ele>1.0</ele><time>2026-05-01T07:18:07.524Z</time></trkpt><trkpt lat="42.4728399" lon="14.2122963"><ele>1.4</ele><time>2026-05-01T07:18:08.526Z</time></trkpt><trkpt lat="42.4727744" lon="14.2124099"><ele>1.8</ele><time>2026-05-01T07:18:09.525Z</time></trkpt><trkpt lat="42.4727133" lon="14.2125146"><ele>2.1999999999999997</ele><time>2026-05-01T07:18:10.525Z</time></trkpt><trkpt lat="42.4726548" lon="14.2126147"><ele>2.6</ele><time>2026-05-01T07:18:11.525Z</time></trkpt><trkpt lat="42.4725972" lon="14.2127081"><ele>3.0</ele><time>2026-05-01T07:18:12.525Z</time></trkpt><trkpt lat="42.4725371" lon="14.212808"><ele>3.0</ele><time>2026-05-01T07:18:13.524Z</time></trkpt><trkpt lat="42.4724752" lon="14.212918"><ele>3.0</ele><time>2026-05-01T07:18:14.524Z</time></trkpt><trkpt lat="42.4724098" lon="14.2130319"><ele>3.0</ele><time>2026-05-01T07:18:15.524Z</time></trkpt><trkpt lat="42.472344" lon="14.2131479"><ele>3.0</ele><time>2026-05-01T07:18:16.525Z</time></trkpt><trkpt lat="42.4722772" lon="14.2132626"><ele>3.0</ele><time>2026-05-01T07:18:17.525Z</time></trkpt><trkpt lat="42.4722112" lon="14.2133739"><ele>3.0</ele><time>2026-05-01T07:18:18.525Z</time></trkpt><trkpt lat="42.4721471" lon="14.2134881"><ele>3.0</ele><time>2026-05-01T07:18:19.525Z</time></trkpt><trkpt lat="42.4720769" lon="14.2136077"><ele>3.0</ele><time>2026-05-01T07:18:20.525Z</time></trkpt><trkpt lat="42.471999" lon="14.2137375"><ele>3.0</ele><time>2026-05-01T07:18:21.525Z</time></trkpt><trkpt lat="42.4719273" lon="14.2138583"><ele>3.75</ele><time>2026-05-01T07:18:22.525Z</time></trkpt><trkpt lat="42.4718481" lon="14.213991"><ele>4.5</ele><time>2026-05-01T07:18:23.524Z</time></trkpt><trkpt lat="42.4717684" lon="14.2141232"><ele>5.25</ele><time>2026-05-01T07:18:24.525Z</time></trkpt><trkpt lat="42.471696" lon="14.2142546"><ele>6.0</ele><time>2026-05-01T07:18:25.524Z</time></trkpt><trkpt lat="42.4716198" lon="14.2143843"><ele>6.0</ele><time>2026-05-01T07:18:26.524Z</time></trkpt><trkpt lat="42.471543" lon="14.2145204"><ele>6.0</ele><time>2026-05-01T07:18:27.524Z</time></trkpt><trkpt lat="42.4714609" lon="14.2146565"><ele>6.0</ele><time>2026-05-01T07:18:28.524Z</time></trkpt><trkpt lat="42.471385" lon="14.21479"><ele>6.0</ele><time>2026-05-01T07:18:29.524Z</time></trkpt><trkpt lat="42.4713115" lon="14.2149118"><ele>6.0</ele><time>2026-05-01T07:18:30.524Z</time></trkpt><trkpt lat="42.4712383" lon="14.2150339"><ele>6.0</ele><time>2026-05-01T07:18:31.525Z</time></trkpt><trkpt lat="42.4711636" lon="14.2151633"><ele>6.0</ele><time>2026-05-01T07:18:32.523Z</time></trkpt><trkpt lat="42.4710844" lon="14.2152946"><ele>6.0</ele><time>2026-05-01T07:18:33.523Z</time></trkpt><trkpt lat="42.4710087" lon="14.215421"><ele>6.0</ele><time>2026-05-01T07:18:34.523Z</time></trkpt><trkpt lat="42.4709336" lon="14.2155447"><ele>6.0</ele><time>2026-05-01T07:18:35.523Z</time></trkpt><trkpt lat="42.470867" lon="14.2156639"><ele>6.0</ele><time>2026-05-01T07:18:36.523Z</time></trkpt><trkpt lat="42.4707997" lon="14.2157796"><ele>6.0</ele><time>2026-05-01T07:18:37.525Z</time></trkpt><trkpt lat="42.4707382" lon="14.2158919"><ele>6.0</ele><time>2026-05-01T07:18:38.524Z</time></trkpt><trkpt lat="42.4706772" lon="14.2160004"><ele>6.4</ele><time>2026-05-01T07:18:39.524Z</time></trkpt><trkpt lat="42.4706162" lon="14.216102"><ele>6.8</ele><time>2026-05-01T07:18:40.524Z</time></trkpt><trkpt lat="42.470564" lon="14.21619"><ele>7.200000000000001</ele><time>2026-05-01T07:18:41.524Z</time></trkpt><trkpt lat="42.4705068" lon="14.2162855"><ele>7.6000000000000005</ele><time>2026-05-01T07:18:42.524Z</time></trkpt><trkpt lat="42.4704461" lon="14.2163895"><ele>8.0</ele><time>2026-05-01T07:18:43.524Z</time></trkpt><trkpt lat="42.470378" lon="14.2165042"><ele>7.2</ele><time>2026-05-01T07:18:44.524Z</time></trkpt><trkpt lat="42.4703085" lon="14.216619"><ele>6.4</ele><time>2026-05-01T07:18:45.524Z</time></trkpt><trkpt lat="42.4702434" lon="14.2167369"><ele>5.6000000000000005</ele><time>2026-05-01T07:18:46.524Z</time></trkpt><trkpt lat="42.4701774" lon="14.2168527"><ele>4.800000000000001</ele><time>2026-05-01T07:18:47.524Z</time></trkpt><trkpt lat="42.4701114" lon="14.2169682"><ele>4.0</ele><time>2026-05-01T07:18:48.524Z</time></trkpt><trkpt lat="42.4700468" lon="14.2170788"><ele>3.9999999999999996</ele><time>2026-05-01T07:18:49.524Z</time></trkpt><trkpt lat="42.4699894" lon="14.2171782"><ele>4.0</ele><time>2026-05-01T07:18:50.524Z</time></trkpt><trkpt lat="42.4699383" lon="14.21727"><ele>4.0</ele><time>2026-05-01T07:18:51.523Z</time></trkpt><trkpt lat="42.4698885" lon="14.2173556"><ele>4.0</ele><time>2026-05-01T07:18:52.524Z</time></trkpt><trkpt lat="42.4698401" lon="14.2174283"><ele>3.9999999999999996</ele><time>2026-05-01T07:18:53.524Z</time></trkpt><trkpt lat="42.4697882" lon="14.2175139"><ele>4.0</ele><time>2026-05-01T07:18:54.524Z</time></trkpt><trkpt lat="42.4697377" lon="14.2175853"><ele>4.0</ele><time>2026-05-01T07:18:55.524Z</time></trkpt><trkpt lat="42.4696893" lon="14.2176676"><ele>3.9999999999999996</ele><time>2026-05-01T07:18:56.524Z</time></trkpt><trkpt lat="42.4696427" lon="14.2177519"><ele>4.0</ele><time>2026-05-01T07:18:57.524Z</time></trkpt><trkpt lat="42.4695999" lon="14.2178263"><ele>4.0</ele><time>2026-05-01T07:18:58.524Z</time></trkpt><trkpt lat="42.4695525" lon="14.2179086"><ele>3.9999999999999996</ele><time>2026-05-01T07:18:59.524Z</time></trkpt><trkpt lat="42.469511" lon="14.2179801"><ele>4.0</ele><time>2026-05-01T07:19:00.523Z</time></trkpt><trkpt lat="42.4694608" lon="14.2180629"><ele>4.0</ele><time>2026-05-01T07:19:01.524Z</time></trkpt><trkpt lat="42.4694122" lon="14.2181465"><ele>3.9999999999999996</ele><time>2026-05-01T07:19:02.524Z</time></trkpt><trkpt lat="42.4693671" lon="14.218232"><ele>4.0</ele><time>2026-05-01T07:19:03.524Z</time></trkpt><trkpt lat="42.4693211" lon="14.2183143"><ele>4.0</ele><time>2026-05-01T07:19:04.524Z</time></trkpt><trkpt lat="42.4692733" lon="14.2183966"><ele>4.0</ele><time>2026-05-01T07:19:05.524Z</time></trkpt><trkpt lat="42.4692243" lon="14.2184811"><ele>3.9999999999999996</ele><time>2026-05-01T07:19:06.524Z</time></trkpt><trkpt lat="42.4691724" lon="14.2185636"><ele>4.0</ele><time>2026-05-01T07:19:07.524Z</time></trkpt><trkpt lat="42.4691228" lon="14.2186502"><ele>3.9999999999999996</ele><time>2026-05-01T07:19:08.524Z</time></trkpt><trkpt lat="42.4690744" lon="14.2187376"><ele>4.0</ele><time>2026-05-01T07:19:09.524Z</time></trkpt><trkpt lat="42.4690233" lon="14.2188283"><ele>4.0</ele><time>2026-05-01T07:19:10.524Z</time></trkpt><trkpt lat="42.4689699" lon="14.2189158"><ele>4.0</ele><time>2026-05-01T07:19:11.523Z</time></trkpt><trkpt lat="42.4689207" lon="14.2190067"><ele>3.9999999999999996</ele><time>2026-05-01T07:19:12.524Z</time></trkpt><trkpt lat="42.4688693" lon="14.2190971"><ele>4.0</ele><time>2026-05-01T07:19:13.524Z</time></trkpt><trkpt lat="42.4688172" lon="14.2191894"><ele>4.166666666666666</ele><time>2026-05-01T07:19:14.524Z</time></trkpt><trkpt lat="42.4687648" lon="14.2192781"><ele>4.333333333333333</ele><time>2026-05-01T07:19:15.524Z</time></trkpt><trkpt lat="42.4687112" lon="14.2193665"><ele>4.5</ele><time>2026-05-01T07:19:16.525Z</time></trkpt><trkpt lat="42.4686613" lon="14.2194525"><ele>4.666666666666667</ele><time>2026-05-01T07:19:17.525Z</time></trkpt><trkpt lat="42.4686115" lon="14.2195389"><ele>4.833333333333334</ele><time>2026-05-01T07:19:18.524Z</time></trkpt><trkpt lat="42.4685657" lon="14.2196231"><ele>5.0</ele><time>2026-05-01T07:19:19.524Z</time></trkpt><trkpt lat="42.4685175" lon="14.2197041"><ele>5.0</ele><time>2026-05-01T07:19:20.523Z</time></trkpt><trkpt lat="42.4684751" lon="14.2197744"><ele>5.0</ele><time>2026-05-01T07:19:21.523Z</time></trkpt><trkpt lat="42.4684233" lon="14.2198574"><ele>5.0</ele><time>2026-05-01T07:19:22.524Z</time></trkpt><trkpt lat="42.4683713" lon="14.2199372"><ele>5.0</ele><time>2026-05-01T07:19:23.525Z</time></trkpt><trkpt lat="42.4683234" lon="14.2200215"><ele>5.0</ele><time>2026-05-01T07:19:24.524Z</time></trkpt><trkpt lat="42.4682757" lon="14.2201058"><ele>5.0</ele><time>2026-05-01T07:19:25.524Z</time></trkpt><trkpt lat="42.4682271" lon="14.220188"><ele>4.666666666666667</ele><time>2026-05-01T07:19:26.525Z</time></trkpt><trkpt lat="42.4681773" lon="14.2202708"><ele>4.333333333333334</ele><time>2026-05-01T07:19:27.524Z</time></trkpt><trkpt lat="42.4681321" lon="14.2203515"><ele>4.0</ele><time>2026-05-01T07:19:28.524Z</time></trkpt><trkpt lat="42.4680859" lon="14.2204374"><ele>3.666666666666667</ele><time>2026-05-01T07:19:29.525Z</time></trkpt><trkpt lat="42.4680415" lon="14.2205234"><ele>3.3333333333333335</ele><time>2026-05-01T07:19:30.523Z</time></trkpt><trkpt lat="42.4679966" lon="14.2205995"><ele>3.0</ele><time>2026-05-01T07:19:31.523Z</time></trkpt><trkpt lat="42.4679476" lon="14.2206802"><ele>2.8571428571428568</ele><time>2026-05-01T07:19:32.525Z</time></trkpt><trkpt lat="42.4678973" lon="14.2207524"><ele>2.7142857142857144</ele><time>2026-05-01T07:19:33.523Z</time></trkpt><trkpt lat="42.4678512" lon="14.2208256"><ele>2.571428571428571</ele><time>2026-05-01T07:19:34.525Z</time></trkpt><trkpt lat="42.4678096" lon="14.2208999"><ele>2.4285714285714284</ele><time>2026-05-01T07:19:35.524Z</time></trkpt><trkpt lat="42.4677695" lon="14.2209719"><ele>2.2857142857142856</ele><time>2026-05-01T07:19:36.525Z</time></trkpt><trkpt lat="42.4677249" lon="14.2210516"><ele>2.142857142857143</ele><time>2026-05-01T07:19:38.524Z</time></trkpt><trkpt lat="42.4676705" lon="14.2211236"><ele>2.0</ele><time>2026-05-01T07:19:45.525Z</time></trkpt><trkpt lat="42.467629" lon="14.2211947"><ele>2.0</ele><time>2026-05-01T07:19:46.523Z</time></trkpt><trkpt lat="42.4675404" lon="14.2213462"><ele>2.0</ele><time>2026-05-01T07:19:48.524Z</time></trkpt><trkpt lat="42.4674815" lon="14.2214424"><ele>2.0</ele><time>2026-05-01T07:19:49.524Z</time></trkpt><trkpt lat="42.4674243" lon="14.2215458"><ele>2.0</ele><time>2026-05-01T07:19:50.523Z</time></trkpt><trkpt lat="42.4673665" lon="14.2216484"><ele>2.0</ele><time>2026-05-01T07:19:51.524Z</time></trkpt><trkpt lat="42.467307" lon="14.2217457"><ele>1.8333333333333333</ele><time>2026-05-01T07:19:52.525Z</time></trkpt><trkpt lat="42.4672496" lon="14.2218341"><ele>1.6666666666666665</ele><time>2026-05-01T07:19:53.524Z</time></trkpt><trkpt lat="42.4671903" lon="14.2219239"><ele>1.5</ele><time>2026-05-01T07:19:54.524Z</time></trkpt><trkpt lat="42.4671215" lon="14.2219964"><ele>1.3333333333333333</ele><time>2026-05-01T07:19:55.524Z</time></trkpt><trkpt lat="42.467044" lon="14.2220612"><ele>1.1666666666666665</ele><time>2026-05-01T07:19:56.524Z</time></trkpt><trkpt lat="42.4669586" lon="14.2221013"><ele>1.0</ele><time>2026-05-01T07:19:57.524Z</time></trkpt><trkpt lat="42.4668672" lon="14.2221136"><ele>1.6</ele><time>2026-05-01T07:19:58.523Z</time></trkpt><trkpt lat="42.466778" lon="14.2221024"><ele>2.2</ele><time>2026-05-01T07:19:59.524Z</time></trkpt><trkpt lat="42.4666938" lon="14.2220769"><ele>2.8000000000000003</ele><time>2026-05-01T07:20:00.523Z</time></trkpt><trkpt lat="42.46661" lon="14.2220331"><ele>3.4000000000000004</ele><time>2026-05-01T07:20:01.523Z</time></trkpt><trkpt lat="42.4665231" lon="14.2219803"><ele>4.0</ele><time>2026-05-01T07:20:02.525Z</time></trkpt><trkpt lat="42.4664379" lon="14.2219236"><ele>4.0</ele><time>2026-05-01T07:20:03.524Z</time></trkpt><trkpt lat="42.4663531" lon="14.2218588"><ele>4.0</ele><time>2026-05-01T07:20:04.524Z</time></trkpt><trkpt lat="42.4662673" lon="14.2217897"><ele>4.0</ele><time>2026-05-01T07:20:05.524Z</time></trkpt><trkpt lat="42.4661808" lon="14.2217236"><ele>4.0</ele><time>2026-05-01T07:20:06.524Z</time></trkpt><trkpt lat="42.4661" lon="14.2216493"><ele>4.0</ele><time>2026-05-01T07:20:07.524Z</time></trkpt><trkpt lat="42.4660241" lon="14.2215663"><ele>4.6</ele><time>2026-05-01T07:20:08.524Z</time></trkpt><trkpt lat="42.4659588" lon="14.2214661"><ele>5.2</ele><time>2026-05-01T07:20:09.524Z</time></trkpt><trkpt lat="42.4659074" lon="14.2213547"><ele>5.799999999999999</ele><time>2026-05-01T07:20:10.524Z</time></trkpt><trkpt lat="42.4658602" lon="14.2212291"><ele>6.3999999999999995</ele><time>2026-05-01T07:20:11.524Z</time></trkpt><trkpt lat="42.4658183" lon="14.2210905"><ele>7.0</ele><time>2026-05-01T07:20:12.524Z</time></trkpt><trkpt lat="42.4657779" lon="14.2209397"><ele>7.0</ele><time>2026-05-01T07:20:13.525Z</time></trkpt><trkpt lat="42.4657328" lon="14.2207848"><ele>7.0</ele><time>2026-05-01T07:20:14.524Z</time></trkpt><trkpt lat="42.4656905" lon="14.2206245"><ele>7.0</ele><time>2026-05-01T07:20:15.524Z</time></trkpt><trkpt lat="42.4656503" lon="14.2204664"><ele>7.0</ele><time>2026-05-01T07:20:16.523Z</time></trkpt><trkpt lat="42.4656164" lon="14.2203201"><ele>6.5</ele><time>2026-05-01T07:20:17.524Z</time></trkpt><trkpt lat="42.4655812" lon="14.2201706"><ele>6.0</ele><time>2026-05-01T07:20:18.524Z</time></trkpt><trkpt lat="42.4655441" lon="14.2200162"><ele>5.5</ele><time>2026-05-01T07:20:19.525Z</time></trkpt><trkpt lat="42.4655142" lon="14.2198527"><ele>5.0</ele><time>2026-05-01T07:20:20.524Z</time></trkpt><trkpt lat="42.4654773" lon="14.219706"><ele>4.8</ele><time>2026-05-01T07:20:21.524Z</time></trkpt><trkpt lat="42.4654425" lon="14.2195676"><ele>4.6</ele><time>2026-05-01T07:20:22.523Z</time></trkpt><trkpt lat="42.4654064" lon="14.2194293"><ele>4.4</ele><time>2026-05-01T07:20:23.523Z</time></trkpt><trkpt lat="42.4653719" lon="14.2192901"><ele>4.2</ele><time>2026-05-01T07:20:24.525Z</time></trkpt><trkpt lat="42.465339" lon="14.2191604"><ele>4.0</ele><time>2026-05-01T07:20:25.524Z</time></trkpt><trkpt lat="42.4653103" lon="14.2190407"><ele>3.833333333333333</ele><time>2026-05-01T07:20:26.525Z</time></trkpt><trkpt lat="42.4652874" lon="14.2189359"><ele>3.6666666666666665</ele><time>2026-05-01T07:20:27.524Z</time></trkpt><trkpt lat="42.4652679" lon="14.2188404"><ele>3.5</ele><time>2026-05-01T07:20:28.524Z</time></trkpt><trkpt lat="42.4652542" lon="14.21875"><ele>3.333333333333333</ele><time>2026-05-01T07:20:29.524Z</time></trkpt><trkpt lat="42.4652269" lon="14.2185977"><ele>3.1666666666666665</ele><time>2026-05-01T07:20:31.523Z</time></trkpt><trkpt lat="42.465126" lon="14.2186008"><ele>3.0</ele><time>2026-05-01T07:20:33.523Z</time></trkpt><trkpt lat="42.4650222" lon="14.2185997"><ele>3.0</ele><time>2026-05-01T07:20:35.524Z</time></trkpt><trkpt lat="42.4649714" lon="14.2185462"><ele>3.0</ele><time>2026-05-01T07:20:36.524Z</time></trkpt><trkpt lat="42.4649322" lon="14.2184553"><ele>3.0</ele><time>2026-05-01T07:20:37.525Z</time></trkpt><trkpt lat="42.4649031" lon="14.2183339"><ele>3.0</ele><time>2026-05-01T07:20:38.525Z</time></trkpt><trkpt lat="42.4648664" lon="14.218197"><ele>3.0</ele><time>2026-05-01T07:20:39.524Z</time></trkpt><trkpt lat="42.4648292" lon="14.2180527"><ele>4.25</ele><time>2026-05-01T07:20:40.524Z</time></trkpt><trkpt lat="42.4647908" lon="14.2178848"><ele>5.5</ele><time>2026-05-01T07:20:41.524Z</time></trkpt><trkpt lat="42.4647467" lon="14.2177098"><ele>6.75</ele><time>2026-05-01T07:20:42.525Z</time></trkpt><trkpt lat="42.4647" lon="14.217525"><ele>8.0</ele><time>2026-05-01T07:20:43.523Z</time></trkpt><trkpt lat="42.4646519" lon="14.2173313"><ele>7.0</ele><time>2026-05-01T07:20:44.524Z</time></trkpt><trkpt lat="42.4645989" lon="14.2171556"><ele>6.0</ele><time>2026-05-01T07:20:45.523Z</time></trkpt><trkpt lat="42.4645396" lon="14.2169941"><ele>5.0</ele><time>2026-05-01T07:20:46.524Z</time></trkpt><trkpt lat="42.4644612" lon="14.2168328"><ele>4.0</ele><time>2026-05-01T07:20:47.524Z</time></trkpt><trkpt lat="42.4643809" lon="14.2166559"><ele>4.0</ele><time>2026-05-01T07:20:48.525Z</time></trkpt><trkpt lat="42.4643047" lon="14.2164622"><ele>4.0</ele><time>2026-05-01T07:20:49.525Z</time></trkpt><trkpt lat="42.4642268" lon="14.2162518"><ele>4.0</ele><time>2026-05-01T07:20:50.523Z</time></trkpt><trkpt lat="42.4641484" lon="14.2160302"><ele>4.0</ele><time>2026-05-01T07:20:51.522Z</time></trkpt><trkpt lat="42.4640689" lon="14.2157996"><ele>4.0</ele><time>2026-05-01T07:20:52.522Z</time></trkpt><trkpt lat="42.4639846" lon="14.2155734"><ele>4.0</ele><time>2026-05-01T07:20:53.523Z</time></trkpt><trkpt lat="42.4638992" lon="14.2153407"><ele>5.0</ele><time>2026-05-01T07:20:54.522Z</time></trkpt><trkpt lat="42.4638104" lon="14.215095"><ele>6.0</ele><time>2026-05-01T07:20:55.523Z</time></trkpt><trkpt lat="42.4637176" lon="14.2148602"><ele>7.0</ele><time>2026-05-01T07:20:56.522Z</time></trkpt><trkpt lat="42.4636357" lon="14.2146401"><ele>7.666666666666667</ele><time>2026-05-01T07:20:57.522Z</time></trkpt><trkpt lat="42.4635474" lon="14.2144263"><ele>8.333333333333334</ele><time>2026-05-01T07:20:58.524Z</time></trkpt><trkpt lat="42.4634587" lon="14.2142228"><ele>9.0</ele><time>2026-05-01T07:20:59.522Z</time></trkpt><trkpt lat="42.4633748" lon="14.2140293"><ele>9.75</ele><time>2026-05-01T07:21:00.523Z</time></trkpt><trkpt lat="42.4632914" lon="14.2138373"><ele>10.5</ele><time>2026-05-01T07:21:01.523Z</time></trkpt><trkpt lat="42.4632217" lon="14.2136757"><ele>11.25</ele><time>2026-05-01T07:21:02.524Z</time></trkpt><trkpt lat="42.4631514" lon="14.2135139"><ele>12.0</ele><time>2026-05-01T07:21:03.523Z</time></trkpt><trkpt lat="42.4630919" lon="14.213351"><ele>12.0</ele><time>2026-05-01T07:21:04.522Z</time></trkpt><trkpt lat="42.4630213" lon="14.213195"><ele>12.0</ele><time>2026-05-01T07:21:05.522Z</time></trkpt><trkpt lat="42.4629513" lon="14.213042"><ele>12.0</ele><time>2026-05-01T07:21:06.523Z</time></trkpt><trkpt lat="42.4628855" lon="14.212885"><ele>12.0</ele><time>2026-05-01T07:21:07.523Z</time></trkpt><trkpt lat="42.462814" lon="14.2127336"><ele>10.75</ele><time>2026-05-01T07:21:08.523Z</time></trkpt><trkpt lat="42.4627418" lon="14.2125798"><ele>9.5</ele><time>2026-05-01T07:21:09.523Z</time></trkpt><trkpt lat="42.4626728" lon="14.2124264"><ele>8.25</ele><time>2026-05-01T07:21:10.522Z</time></trkpt><trkpt lat="42.4626033" lon="14.2122757"><ele>7.0</ele><time>2026-05-01T07:21:11.522Z</time></trkpt><trkpt lat="42.4625351" lon="14.2121288"><ele>6.25</ele><time>2026-05-01T07:21:12.523Z</time></trkpt><trkpt lat="42.4624684" lon="14.2119827"><ele>5.5</ele><time>2026-05-01T07:21:13.523Z</time></trkpt><trkpt lat="42.4624017" lon="14.2118398"><ele>4.75</ele><time>2026-05-01T07:21:14.523Z</time></trkpt><trkpt lat="42.4623424" lon="14.2116904"><ele>4.0</ele><time>2026-05-01T07:21:15.523Z</time></trkpt><trkpt lat="42.4622783" lon="14.2115426"><ele>4.0</ele><time>2026-05-01T07:21:16.523Z</time></trkpt><trkpt lat="42.4622077" lon="14.2113883"><ele>4.0</ele><time>2026-05-01T07:21:17.523Z</time></trkpt><trkpt lat="42.4621376" lon="14.2112305"><ele>4.0</ele><time>2026-05-01T07:21:18.522Z</time></trkpt><trkpt lat="42.4620668" lon="14.2110736"><ele>4.0</ele><time>2026-05-01T07:21:19.522Z</time></trkpt><trkpt lat="42.4620041" lon="14.2109237"><ele>4.0</ele><time>2026-05-01T07:21:20.522Z</time></trkpt><trkpt lat="42.4619456" lon="14.2107825"><ele>4.0</ele><time>2026-05-01T07:21:21.523Z</time></trkpt><trkpt lat="42.4618968" lon="14.2106532"><ele>4.0</ele><time>2026-05-01T07:21:22.523Z</time></trkpt><trkpt lat="42.4618531" lon="14.2105256"><ele>4.0</ele><time>2026-05-01T07:21:23.523Z</time></trkpt><trkpt lat="42.461816" lon="14.2104105"><ele>4.0</ele><time>2026-05-01T07:21:24.523Z</time></trkpt><trkpt lat="42.461789" lon="14.2102885"><ele>4.0</ele><time>2026-05-01T07:21:25.524Z</time></trkpt><trkpt lat="42.4617905" lon="14.210128"><ele>4.0</ele><time>2026-05-01T07:21:26.523Z</time></trkpt><trkpt lat="42.4617786" lon="14.2099972"><ele>4.0</ele><time>2026-05-01T07:21:27.523Z</time></trkpt><trkpt lat="42.4617612" lon="14.2098722"><ele>4.0</ele><time>2026-05-01T07:21:28.523Z</time></trkpt><trkpt lat="42.4617558" lon="14.2097278"><ele>4.0</ele><time>2026-05-01T07:21:29.524Z</time></trkpt><trkpt lat="42.4618272" lon="14.2096185"><ele>4.166666666666666</ele><time>2026-05-01T07:21:30.523Z</time></trkpt><trkpt lat="42.4618768" lon="14.2095335"><ele>4.333333333333333</ele><time>2026-05-01T07:21:31.522Z</time></trkpt><trkpt lat="42.461933" lon="14.2094374"><ele>4.5</ele><time>2026-05-01T07:21:32.524Z</time></trkpt><trkpt lat="42.4619783" lon="14.209338"><ele>4.666666666666667</ele><time>2026-05-01T07:21:33.523Z</time></trkpt><trkpt lat="42.4620144" lon="14.2092239"><ele>4.833333333333334</ele><time>2026-05-01T07:21:34.523Z</time></trkpt><trkpt lat="42.4620408" lon="14.2090983"><ele>5.0</ele><time>2026-05-01T07:21:35.523Z</time></trkpt><trkpt lat="42.462067" lon="14.2089766"><ele>5.0</ele><time>2026-05-01T07:21:36.522Z</time></trkpt><trkpt lat="42.4621027" lon="14.2088737"><ele>5.0</ele><time>2026-05-01T07:21:37.524Z</time></trkpt><trkpt lat="42.4621348" lon="14.2087951"><ele>5.0</ele><time>2026-05-01T07:21:38.523Z</time></trkpt><trkpt lat="42.4621757" lon="14.2087076"><ele>5.0</ele><time>2026-05-01T07:21:40.522Z</time></trkpt><trkpt lat="42.4622526" lon="14.2085983"><ele>5.0</ele><time>2026-05-01T07:21:42.523Z</time></trkpt><trkpt lat="42.4622989" lon="14.208515"><ele>5.0</ele><time>2026-05-01T07:21:43.523Z</time></trkpt><trkpt lat="42.4623221" lon="14.208423"><ele>5.0</ele><time>2026-05-01T07:21:44.523Z</time></trkpt><trkpt lat="42.462321" lon="14.2083317"><ele>5.0</ele><time>2026-05-01T07:21:45.523Z</time></trkpt><trkpt lat="42.4622879" lon="14.2082477"><ele>5.0</ele><time>2026-05-01T07:21:46.523Z</time></trkpt><trkpt lat="42.4621621" lon="14.2081872"><ele>5.0</ele><time>2026-05-01T07:21:48.522Z</time></trkpt><trkpt lat="42.4620526" lon="14.2081905"><ele>5.0</ele><time>2026-05-01T07:21:49.523Z</time></trkpt><trkpt lat="42.4619448" lon="14.208185"><ele>5.0</ele><time>2026-05-01T07:21:50.523Z</time></trkpt><trkpt lat="42.4618336" lon="14.2081507"><ele>5.0</ele><time>2026-05-01T07:21:51.523Z</time></trkpt><trkpt lat="42.4617186" lon="14.2081171"><ele>5.0</ele><time>2026-05-01T07:21:52.523Z</time></trkpt><trkpt lat="42.4616113" lon="14.2080864"><ele>5.0</ele><time>2026-05-01T07:21:53.523Z</time></trkpt><trkpt lat="42.4615195" lon="14.2080561"><ele>5.0</ele><time>2026-05-01T07:21:54.523Z</time></trkpt><trkpt lat="42.4614336" lon="14.2080286"><ele>5.0</ele><time>2026-05-01T07:21:55.523Z</time></trkpt><trkpt lat="42.4613542" lon="14.2080098"><ele>5.0</ele><time>2026-05-01T07:21:56.523Z</time></trkpt><trkpt lat="42.4612913" lon="14.2079971"><ele>5.0</ele><time>2026-05-01T07:21:57.523Z</time></trkpt><trkpt lat="42.4612076" lon="14.2079786"><ele>5.0</ele><time>2026-05-01T07:21:59.523Z</time></trkpt><trkpt lat="42.4611389" lon="14.2079429"><ele>5.0</ele><time>2026-05-01T07:22:02.522Z</time></trkpt><trkpt lat="42.4610536" lon="14.207836"><ele>5.0</ele><time>2026-05-01T07:22:04.522Z</time></trkpt><trkpt lat="42.4609484" lon="14.2077429"><ele>5.2</ele><time>2026-05-01T07:22:06.522Z</time></trkpt><trkpt lat="42.4608323" lon="14.2077858"><ele>5.4</ele><time>2026-05-01T07:22:08.522Z</time></trkpt><trkpt lat="42.4607922" lon="14.2078611"><ele>5.6</ele><time>2026-05-01T07:22:09.522Z</time></trkpt><trkpt lat="42.4607785" lon="14.2079648"><ele>5.8</ele><time>2026-05-01T07:22:10.522Z</time></trkpt><trkpt lat="42.4607909" lon="14.2081616"><ele>6.0</ele><time>2026-05-01T07:22:12.523Z</time></trkpt><trkpt lat="42.4607896" lon="14.2082861"><ele>6.0</ele><time>2026-05-01T07:22:13.523Z</time></trkpt><trkpt lat="42.4607797" lon="14.2083833"><ele>6.0</ele><time>2026-05-01T07:22:14.523Z</time></trkpt><trkpt lat="42.4607448" lon="14.2085146"><ele>6.0</ele><time>2026-05-01T07:22:16.522Z</time></trkpt><trkpt lat="42.4607001" lon="14.2086092"><ele>6.0</ele><time>2026-05-01T07:22:19.522Z</time></trkpt><trkpt lat="42.4605952" lon="14.2086849"><ele>6.0</ele><time>2026-05-01T07:22:22.523Z</time></trkpt><trkpt lat="42.4605398" lon="14.2087332"><ele>6.0</ele><time>2026-05-01T07:22:23.522Z</time></trkpt><trkpt lat="42.4604829" lon="14.2087732"><ele>5.666666666666667</ele><time>2026-05-01T07:22:24.522Z</time></trkpt><trkpt lat="42.460367" lon="14.2088537"><ele>5.333333333333333</ele><time>2026-05-01T07:22:26.522Z</time></trkpt><trkpt lat="42.4602976" lon="14.2088965"><ele>5.0</ele><time>2026-05-01T07:22:27.522Z</time></trkpt><trkpt lat="42.460228" lon="14.208944"><ele>4.666666666666666</ele><time>2026-05-01T07:22:28.523Z</time></trkpt><trkpt lat="42.4601585" lon="14.2089896"><ele>4.333333333333333</ele><time>2026-05-01T07:22:29.522Z</time></trkpt><trkpt lat="42.4600827" lon="14.2090344"><ele>4.0</ele><time>2026-05-01T07:22:30.523Z</time></trkpt><trkpt lat="42.4600132" lon="14.2090723"><ele>3.833333333333333</ele><time>2026-05-01T07:22:31.523Z</time></trkpt><trkpt lat="42.4599434" lon="14.2091202"><ele>3.6666666666666665</ele><time>2026-05-01T07:22:32.523Z</time></trkpt><trkpt lat="42.4598744" lon="14.2091665"><ele>3.5</ele><time>2026-05-01T07:22:33.523Z</time></trkpt><trkpt lat="42.4597964" lon="14.2092114"><ele>3.333333333333333</ele><time>2026-05-01T07:22:34.523Z</time></trkpt><trkpt lat="42.4597379" lon="14.2092502"><ele>3.1666666666666665</ele><time>2026-05-01T07:22:35.523Z</time></trkpt><trkpt lat="42.4596698" lon="14.2092997"><ele>3.0</ele><time>2026-05-01T07:22:36.523Z</time></trkpt><trkpt lat="42.4596085" lon="14.2093423"><ele>3.3333333333333335</ele><time>2026-05-01T07:22:37.523Z</time></trkpt><trkpt lat="42.4595447" lon="14.2093894"><ele>3.666666666666667</ele><time>2026-05-01T07:22:38.522Z</time></trkpt><trkpt lat="42.459471" lon="14.209442"><ele>4.0</ele><time>2026-05-01T07:22:39.523Z</time></trkpt><trkpt lat="42.4593888" lon="14.2094917"><ele>4.333333333333334</ele><time>2026-05-01T07:22:40.523Z</time></trkpt><trkpt lat="42.4593054" lon="14.2095419"><ele>4.666666666666667</ele><time>2026-05-01T07:22:41.524Z</time></trkpt><trkpt lat="42.4592222" lon="14.2095933"><ele>5.0</ele><time>2026-05-01T07:22:42.522Z</time></trkpt><trkpt lat="42.4591314" lon="14.2096351"><ele>5.0</ele><time>2026-05-01T07:22:43.522Z</time></trkpt><trkpt lat="42.4590394" lon="14.2096892"><ele>5.0</ele><time>2026-05-01T07:22:44.523Z</time></trkpt><trkpt lat="42.4589458" lon="14.2097512"><ele>5.0</ele><time>2026-05-01T07:22:45.524Z</time></trkpt><trkpt lat="42.4588565" lon="14.2098137"><ele>5.0</ele><time>2026-05-01T07:22:46.523Z</time></trkpt><trkpt lat="42.4587643" lon="14.2098802"><ele>5.0</ele><time>2026-05-01T07:22:47.522Z</time></trkpt><trkpt lat="42.4586733" lon="14.2099483"><ele>5.2</ele><time>2026-05-01T07:22:48.523Z</time></trkpt><trkpt lat="42.4585901" lon="14.2100081"><ele>5.4</ele><time>2026-05-01T07:22:49.523Z</time></trkpt><trkpt lat="42.4585207" lon="14.210056"><ele>5.6</ele><time>2026-05-01T07:22:50.524Z</time></trkpt><trkpt lat="42.4584608" lon="14.2100958"><ele>5.8</ele><time>2026-05-01T07:22:51.523Z</time></trkpt><trkpt lat="42.4583547" lon="14.2101637"><ele>6.0</ele><time>2026-05-01T07:22:53.523Z</time></trkpt><trkpt lat="42.4582463" lon="14.2102105"><ele>6.0</ele><time>2026-05-01T07:22:55.523Z</time></trkpt><trkpt lat="42.4581782" lon="14.2102623"><ele>6.0</ele><time>2026-05-01T07:22:57.523Z</time></trkpt><trkpt lat="42.4581933" lon="14.2103705"><ele>6.0</ele><time>2026-05-01T07:22:59.524Z</time></trkpt><trkpt lat="42.4582308" lon="14.2104426"><ele>6.0</ele><time>2026-05-01T07:23:00.523Z</time></trkpt><trkpt lat="42.4582812" lon="14.2105207"><ele>6.0</ele><time>2026-05-01T07:23:01.522Z</time></trkpt><trkpt lat="42.4583474" lon="14.2106056"><ele>6.0</ele><time>2026-05-01T07:23:02.522Z</time></trkpt><trkpt lat="42.4584188" lon="14.2106992"><ele>6.199999999999999</ele><time>2026-05-01T07:23:03.522Z</time></trkpt><trkpt lat="42.4584804" lon="14.2107917"><ele>6.3999999999999995</ele><time>2026-05-01T07:23:04.522Z</time></trkpt><trkpt lat="42.4585248" lon="14.2108691"><ele>6.6</ele><time>2026-05-01T07:23:05.523Z</time></trkpt><trkpt lat="42.4585588" lon="14.211026"><ele>6.8</ele><time>2026-05-01T07:23:07.523Z</time></trkpt><trkpt lat="42.4585265" lon="14.2111596"><ele>7.0</ele><time>2026-05-01T07:23:09.524Z</time></trkpt><trkpt lat="42.4584441" lon="14.211217"><ele>7.0</ele><time>2026-05-01T07:23:10.523Z</time></trkpt><trkpt lat="42.4583502" lon="14.2112747"><ele>7.0</ele><time>2026-05-01T07:23:11.524Z</time></trkpt><trkpt lat="42.4582324" lon="14.2113399"><ele>7.0</ele><time>2026-05-01T07:23:12.523Z</time></trkpt><trkpt lat="42.4581118" lon="14.2114062"><ele>7.0</ele><time>2026-05-01T07:23:13.523Z</time></trkpt><trkpt lat="42.4579877" lon="14.2114756"><ele>6.0</ele><time>2026-05-01T07:23:14.523Z</time></trkpt><trkpt lat="42.4578554" lon="14.2115539"><ele>5.0</ele><time>2026-05-01T07:23:15.521Z</time></trkpt><trkpt lat="42.4577146" lon="14.211642"><ele>4.0</ele><time>2026-05-01T07:23:16.522Z</time></trkpt><trkpt lat="42.4575694" lon="14.2117322"><ele>4.0</ele><time>2026-05-01T07:23:17.523Z</time></trkpt><trkpt lat="42.4574202" lon="14.2118284"><ele>4.0</ele><time>2026-05-01T07:23:18.521Z</time></trkpt><trkpt lat="42.4572644" lon="14.2119151"><ele>4.0</ele><time>2026-05-01T07:23:19.522Z</time></trkpt><trkpt lat="42.4570989" lon="14.2120055"><ele>3.333333333333333</ele><time>2026-05-01T07:23:20.522Z</time></trkpt><trkpt lat="42.4569273" lon="14.2120968"><ele>2.6666666666666665</ele><time>2026-05-01T07:23:21.522Z</time></trkpt><trkpt lat="42.4567545" lon="14.2121887"><ele>2.0</ele><time>2026-05-01T07:23:22.523Z</time></trkpt><trkpt lat="42.4565793" lon="14.2122796"><ele>2.333333333333333</ele><time>2026-05-01T07:23:23.521Z</time></trkpt><trkpt lat="42.456413" lon="14.2123601"><ele>2.6666666666666665</ele><time>2026-05-01T07:23:24.521Z</time></trkpt><trkpt lat="42.456252" lon="14.2124343"><ele>3.0</ele><time>2026-05-01T07:23:25.522Z</time></trkpt><trkpt lat="42.4560935" lon="14.2124897"><ele>3.0</ele><time>2026-05-01T07:23:26.522Z</time></trkpt><trkpt lat="42.4559318" lon="14.2125325"><ele>3.0</ele><time>2026-05-01T07:23:27.522Z</time></trkpt><trkpt lat="42.4557682" lon="14.2125549"><ele>3.0</ele><time>2026-05-01T07:23:28.521Z</time></trkpt><trkpt lat="42.4556033" lon="14.2125616"><ele>3.0</ele><time>2026-05-01T07:23:29.521Z</time></trkpt><trkpt lat="42.4554378" lon="14.2125622"><ele>3.0</ele><time>2026-05-01T07:23:30.521Z</time></trkpt><trkpt lat="42.4552825" lon="14.2125658"><ele>3.0</ele><time>2026-05-01T07:23:31.522Z</time></trkpt><trkpt lat="42.4551459" lon="14.2125733"><ele>3.0</ele><time>2026-05-01T07:23:32.523Z</time></trkpt><trkpt lat="42.4550233" lon="14.2125784"><ele>3.0</ele><time>2026-05-01T07:23:33.521Z</time></trkpt><trkpt lat="42.4549221" lon="14.212591"><ele>3.0</ele><time>2026-05-01T07:23:34.522Z</time></trkpt><trkpt lat="42.4548415" lon="14.2126124"><ele>3.0</ele><time>2026-05-01T07:23:35.522Z</time></trkpt><trkpt lat="42.4547758" lon="14.2126495"><ele>3.0</ele><time>2026-05-01T07:23:36.522Z</time></trkpt><trkpt lat="42.4547292" lon="14.2127114"><ele>3.0</ele><time>2026-05-01T07:23:37.522Z</time></trkpt><trkpt lat="42.4546988" lon="14.2127927"><ele>3.0</ele><time>2026-05-01T07:23:38.522Z</time></trkpt><trkpt lat="42.4546779" lon="14.2129076"><ele>3.0</ele><time>2026-05-01T07:23:39.522Z</time></trkpt><trkpt lat="42.4546555" lon="14.2130177"><ele>3.0</ele><time>2026-05-01T07:23:40.523Z</time></trkpt><trkpt lat="42.4546183" lon="14.2131129"><ele>3.0</ele><time>2026-05-01T07:23:41.522Z</time></trkpt><trkpt lat="42.4545574" lon="14.2131927"><ele>3.0</ele><time>2026-05-01T07:23:42.522Z</time></trkpt><trkpt lat="42.454472" lon="14.213256"><ele>3.0</ele><time>2026-05-01T07:23:43.522Z</time></trkpt><trkpt lat="42.4543629" lon="14.2133087"><ele>3.0</ele><time>2026-05-01T07:23:44.522Z</time></trkpt><trkpt lat="42.4542463" lon="14.2133632"><ele>3.0</ele><time>2026-05-01T07:23:45.521Z</time></trkpt><trkpt lat="42.4541275" lon="14.2134168"><ele>3.0</ele><time>2026-05-01T07:23:46.522Z</time></trkpt><trkpt lat="42.4540069" lon="14.213474"><ele>3.0</ele><time>2026-05-01T07:23:47.523Z</time></trkpt><trkpt lat="42.4538804" lon="14.2135317"><ele>2.75</ele><time>2026-05-01T07:23:48.523Z</time></trkpt><trkpt lat="42.4537527" lon="14.2135896"><ele>2.5</ele><time>2026-05-01T07:23:49.522Z</time></trkpt><trkpt lat="42.4536301" lon="14.2136485"><ele>2.25</ele><time>2026-05-01T07:23:50.522Z</time></trkpt><trkpt lat="42.4535044" lon="14.2137069"><ele>2.0</ele><time>2026-05-01T07:23:51.522Z</time></trkpt><trkpt lat="42.4533819" lon="14.2137656"><ele>2.0</ele><time>2026-05-01T07:23:52.523Z</time></trkpt><trkpt lat="42.4532605" lon="14.2138226"><ele>2.0</ele><time>2026-05-01T07:23:53.522Z</time></trkpt><trkpt lat="42.453138" lon="14.2138777"><ele>2.0</ele><time>2026-05-01T07:23:54.522Z</time></trkpt><trkpt lat="42.4530161" lon="14.2139372"><ele>2.0</ele><time>2026-05-01T07:23:55.522Z</time></trkpt><trkpt lat="42.4529021" lon="14.2139906"><ele>1.5</ele><time>2026-05-01T07:23:56.523Z</time></trkpt><trkpt lat="42.4527891" lon="14.2140485"><ele>1.0</ele><time>2026-05-01T07:23:57.521Z</time></trkpt><trkpt lat="42.4526759" lon="14.2141025"><ele>0.5</ele><time>2026-05-01T07:23:58.522Z</time></trkpt><trkpt lat="42.4525639" lon="14.2141576"><ele>0.0</ele><time>2026-05-01T07:23:59.522Z</time></trkpt><trkpt lat="42.4524512" lon="14.2142095"><ele>0.0</ele><time>2026-05-01T07:24:00.521Z</time></trkpt><trkpt lat="42.4523363" lon="14.2142641"><ele>0.0</ele><time>2026-05-01T07:24:01.522Z</time></trkpt><trkpt lat="42.4522191" lon="14.2143177"><ele>0.0</ele><time>2026-05-01T07:24:02.522Z</time></trkpt><trkpt lat="42.4521158" lon="14.2143912"><ele>0.0</ele><time>2026-05-01T07:24:03.522Z</time></trkpt><trkpt lat="42.4520117" lon="14.2144776"><ele>0.25</ele><time>2026-05-01T07:24:04.522Z</time></trkpt><trkpt lat="42.4519091" lon="14.21458"><ele>0.5</ele><time>2026-05-01T07:24:05.521Z</time></trkpt><trkpt lat="42.4518135" lon="14.2147029"><ele>0.75</ele><time>2026-05-01T07:24:06.523Z</time></trkpt><trkpt lat="42.4517232" lon="14.214848"><ele>1.0</ele><time>2026-05-01T07:24:07.522Z</time></trkpt><trkpt lat="42.4516389" lon="14.2150016"><ele>1.0</ele><time>2026-05-01T07:24:08.523Z</time></trkpt><trkpt lat="42.4515628" lon="14.2151491"><ele>1.0</ele><time>2026-05-01T07:24:09.521Z</time></trkpt><trkpt lat="42.4514845" lon="14.2153036"><ele>1.0</ele><time>2026-05-01T07:24:10.521Z</time></trkpt><trkpt lat="42.4514038" lon="14.2154489"><ele>1.0</ele><time>2026-05-01T07:24:11.521Z</time></trkpt><trkpt lat="42.4513258" lon="14.2155905"><ele>1.5</ele><time>2026-05-01T07:24:12.521Z</time></trkpt><trkpt lat="42.4512496" lon="14.2157315"><ele>2.0</ele><time>2026-05-01T07:24:13.522Z</time></trkpt><trkpt lat="42.4511709" lon="14.2158883"><ele>2.5</ele><time>2026-05-01T07:24:14.522Z</time></trkpt><trkpt lat="42.4510907" lon="14.2160373"><ele>3.0</ele><time>2026-05-01T07:24:15.521Z</time></trkpt><trkpt lat="42.4510134" lon="14.2161799"><ele>3.0</ele><time>2026-05-01T07:24:16.523Z</time></trkpt><trkpt lat="42.4509337" lon="14.2163235"><ele>3.0</ele><time>2026-05-01T07:24:17.522Z</time></trkpt><trkpt lat="42.4508594" lon="14.2164593"><ele>3.0</ele><time>2026-05-01T07:24:18.522Z</time></trkpt><trkpt lat="42.4507864" lon="14.2165937"><ele>3.0</ele><time>2026-05-01T07:24:19.521Z</time></trkpt><trkpt lat="42.4507153" lon="14.2167184"><ele>3.1666666666666665</ele><time>2026-05-01T07:24:20.523Z</time></trkpt><trkpt lat="42.4506655" lon="14.2168036"><ele>3.333333333333333</ele><time>2026-05-01T07:24:21.523Z</time></trkpt><trkpt lat="42.4505898" lon="14.2169209"><ele>3.5</ele><time>2026-05-01T07:24:23.522Z</time></trkpt><trkpt lat="42.4505112" lon="14.2169446"><ele>3.6666666666666665</ele><time>2026-05-01T07:24:25.523Z</time></trkpt><trkpt lat="42.4504478" lon="14.2169119"><ele>3.833333333333333</ele><time>2026-05-01T07:24:26.521Z</time></trkpt><trkpt lat="42.450379" lon="14.2168701"><ele>4.0</ele><time>2026-05-01T07:24:27.523Z</time></trkpt><trkpt lat="42.4503076" lon="14.2167595"><ele>4.0</ele><time>2026-05-01T07:24:28.522Z</time></trkpt><trkpt lat="42.4502315" lon="14.216649"><ele>4.0</ele><time>2026-05-01T07:24:29.523Z</time></trkpt><trkpt lat="42.4501469" lon="14.2165254"><ele>4.0</ele><time>2026-05-01T07:24:30.522Z</time></trkpt><trkpt lat="42.450062" lon="14.2163949"><ele>4.0</ele><time>2026-05-01T07:24:31.522Z</time></trkpt><trkpt lat="42.4499813" lon="14.2162664"><ele>4.0</ele><time>2026-05-01T07:24:32.522Z</time></trkpt><trkpt lat="42.4499017" lon="14.2161333"><ele>4.0</ele><time>2026-05-01T07:24:33.522Z</time></trkpt><trkpt lat="42.449816" lon="14.2160185"><ele>4.0</ele><time>2026-05-01T07:24:34.521Z</time></trkpt><trkpt lat="42.4497505" lon="14.2159135"><ele>4.0</ele><time>2026-05-01T07:24:35.522Z</time></trkpt><trkpt lat="42.449685" lon="14.2158235"><ele>4.0</ele><time>2026-05-01T07:24:36.522Z</time></trkpt><trkpt lat="42.4496293" lon="14.215731"><ele>4.4</ele><time>2026-05-01T07:24:37.523Z</time></trkpt><trkpt lat="42.4495915" lon="14.2156391"><ele>4.800000000000001</ele><time>2026-05-01T07:24:38.522Z</time></trkpt><trkpt lat="42.4495574" lon="14.2155551"><ele>5.199999999999999</ele><time>2026-05-01T07:24:39.522Z</time></trkpt><trkpt lat="42.4494736" lon="14.2154616"><ele>5.6</ele><time>2026-05-01T07:24:41.522Z</time></trkpt><trkpt lat="42.4493596" lon="14.2154975"><ele>6.0</ele><time>2026-05-01T07:24:43.522Z</time></trkpt><trkpt lat="42.4492927" lon="14.215568"><ele>6.0</ele><time>2026-05-01T07:24:44.522Z</time></trkpt><trkpt lat="42.4492086" lon="14.2156334"><ele>6.0</ele><time>2026-05-01T07:24:45.521Z</time></trkpt><trkpt lat="42.4491144" lon="14.2157058"><ele>6.0</ele><time>2026-05-01T07:24:46.523Z</time></trkpt><trkpt lat="42.4489965" lon="14.2157766"><ele>6.0</ele><time>2026-05-01T07:24:47.522Z</time></trkpt><trkpt lat="42.4488749" lon="14.21585"><ele>6.25</ele><time>2026-05-01T07:24:48.523Z</time></trkpt><trkpt lat="42.4487457" lon="14.2159258"><ele>6.5</ele><time>2026-05-01T07:24:49.521Z</time></trkpt><trkpt lat="42.4486101" lon="14.2160052"><ele>6.75</ele><time>2026-05-01T07:24:50.521Z</time></trkpt><trkpt lat="42.4484697" lon="14.2160787"><ele>7.0</ele><time>2026-05-01T07:24:51.521Z</time></trkpt><trkpt lat="42.448323" lon="14.2161597"><ele>7.0</ele><time>2026-05-01T07:24:52.521Z</time></trkpt><trkpt lat="42.4481786" lon="14.2162465"><ele>7.0</ele><time>2026-05-01T07:24:53.521Z</time></trkpt><trkpt lat="42.4480331" lon="14.2163274"><ele>7.0</ele><time>2026-05-01T07:24:54.521Z</time></trkpt><trkpt lat="42.4478833" lon="14.2164144"><ele>7.0</ele><time>2026-05-01T07:24:55.523Z</time></trkpt><trkpt lat="42.4477348" lon="14.2165019"><ele>7.0</ele><time>2026-05-01T07:24:56.522Z</time></trkpt><trkpt lat="42.4475884" lon="14.2165878"><ele>7.0</ele><time>2026-05-01T07:24:57.521Z</time></trkpt><trkpt lat="42.4474449" lon="14.2166744"><ele>7.0</ele><time>2026-05-01T07:24:58.521Z</time></trkpt><trkpt lat="42.4473086" lon="14.2167542"><ele>7.0</ele><time>2026-05-01T07:24:59.522Z</time></trkpt><trkpt lat="42.4471809" lon="14.2168261"><ele>7.0</ele><time>2026-05-01T07:25:00.521Z</time></trkpt><trkpt lat="42.4470557" lon="14.2169028"><ele>7.0</ele><time>2026-05-01T07:25:01.521Z</time></trkpt><trkpt lat="42.4469362" lon="14.2169674"><ele>7.199999999999999</ele><time>2026-05-01T07:25:02.521Z</time></trkpt><trkpt lat="42.4468228" lon="14.2170292"><ele>7.3999999999999995</ele><time>2026-05-01T07:25:03.521Z</time></trkpt><trkpt lat="42.4467164" lon="14.2170854"><ele>7.6000000000000005</ele><time>2026-05-01T07:25:04.521Z</time></trkpt><trkpt lat="42.4466235" lon="14.2171339"><ele>7.800000000000001</ele><time>2026-05-01T07:25:05.521Z</time></trkpt><trkpt lat="42.4465327" lon="14.2171861"><ele>8.0</ele><time>2026-05-01T07:25:06.521Z</time></trkpt><trkpt lat="42.4464486" lon="14.2172415"><ele>8.0</ele><time>2026-05-01T07:25:07.522Z</time></trkpt><trkpt lat="42.4463822" lon="14.2172836"><ele>8.0</ele><time>2026-05-01T07:25:08.523Z</time></trkpt><trkpt lat="42.4462912" lon="14.2173395"><ele>8.0</ele><time>2026-05-01T07:25:10.521Z</time></trkpt><trkpt lat="42.4461956" lon="14.217339"><ele>8.0</ele><time>2026-05-01T07:25:12.523Z</time></trkpt><trkpt lat="42.4460958" lon="14.2172228"><ele>8.0</ele><time>2026-05-01T07:25:14.521Z</time></trkpt><trkpt lat="42.4460373" lon="14.2171387"><ele>7.0</ele><time>2026-05-01T07:25:15.522Z</time></trkpt><trkpt lat="42.4459507" lon="14.2170445"><ele>6.0</ele><time>2026-05-01T07:25:16.522Z</time></trkpt><trkpt lat="42.4458539" lon="14.2169522"><ele>5.0</ele><time>2026-05-01T07:25:17.521Z</time></trkpt><trkpt lat="42.4457594" lon="14.2168555"><ele>4.0</ele><time>2026-05-01T07:25:18.522Z</time></trkpt><trkpt lat="42.4456619" lon="14.2167613"><ele>4.0</ele><time>2026-05-01T07:25:19.522Z</time></trkpt><trkpt lat="42.4455587" lon="14.2166699"><ele>4.0</ele><time>2026-05-01T07:25:20.521Z</time></trkpt><trkpt lat="42.4454615" lon="14.2165669"><ele>4.0</ele><time>2026-05-01T07:25:21.521Z</time></trkpt><trkpt lat="42.4453657" lon="14.2164743"><ele>4.0</ele><time>2026-05-01T07:25:22.522Z</time></trkpt><trkpt lat="42.4452692" lon="14.2163793"><ele>5.0</ele><time>2026-05-01T07:25:23.521Z</time></trkpt><trkpt lat="42.445176" lon="14.2162905"><ele>6.0</ele><time>2026-05-01T07:25:24.521Z</time></trkpt><trkpt lat="42.4450813" lon="14.2161986"><ele>7.0</ele><time>2026-05-01T07:25:25.521Z</time></trkpt><trkpt lat="42.4449829" lon="14.2161058"><ele>8.0</ele><time>2026-05-01T07:25:26.523Z</time></trkpt><trkpt lat="42.444884" lon="14.2160068"><ele>8.0</ele><time>2026-05-01T07:25:27.522Z</time></trkpt><trkpt lat="42.4447827" lon="14.2159042"><ele>8.0</ele><time>2026-05-01T07:25:28.522Z</time></trkpt><trkpt lat="42.4446756" lon="14.2157989"><ele>8.0</ele><time>2026-05-01T07:25:29.521Z</time></trkpt><trkpt lat="42.4445635" lon="14.2156918"><ele>8.0</ele><time>2026-05-01T07:25:30.521Z</time></trkpt><trkpt lat="42.444444" lon="14.2155874"><ele>7.5</ele><time>2026-05-01T07:25:31.521Z</time></trkpt><trkpt lat="42.4443224" lon="14.2154796"><ele>7.0</ele><time>2026-05-01T07:25:32.522Z</time></trkpt><trkpt lat="42.4441962" lon="14.215364"><ele>6.5</ele><time>2026-05-01T07:25:33.521Z</time></trkpt><trkpt lat="42.4440704" lon="14.2152496"><ele>6.0</ele><time>2026-05-01T07:25:34.522Z</time></trkpt><trkpt lat="42.4439454" lon="14.215133"><ele>6.0</ele><time>2026-05-01T07:25:35.523Z</time></trkpt><trkpt lat="42.4438293" lon="14.2150225"><ele>6.0</ele><time>2026-05-01T07:25:36.522Z</time></trkpt><trkpt lat="42.4437314" lon="14.2149217"><ele>6.0</ele><time>2026-05-01T07:25:37.522Z</time></trkpt><trkpt lat="42.4436428" lon="14.2148309"><ele>6.0</ele><time>2026-05-01T07:25:38.522Z</time></trkpt><trkpt lat="42.443557" lon="14.2147455"><ele>6.199999999999999</ele><time>2026-05-01T07:25:39.522Z</time></trkpt><trkpt lat="42.4434792" lon="14.2146667"><ele>6.3999999999999995</ele><time>2026-05-01T07:25:40.522Z</time></trkpt><trkpt lat="42.4434071" lon="14.2145816"><ele>6.6</ele><time>2026-05-01T07:25:41.522Z</time></trkpt><trkpt lat="42.4433374" lon="14.2144837"><ele>6.8</ele><time>2026-05-01T07:25:42.522Z</time></trkpt><trkpt lat="42.4432706" lon="14.2143704"><ele>7.0</ele><time>2026-05-01T07:25:43.523Z</time></trkpt><trkpt lat="42.443209" lon="14.214253"><ele>7.0</ele><time>2026-05-01T07:25:44.523Z</time></trkpt><trkpt lat="42.443154" lon="14.2141437"><ele>6.999999999999999</ele><time>2026-05-01T07:25:45.523Z</time></trkpt><trkpt lat="42.4431138" lon="14.2140461"><ele>6.999999999999999</ele><time>2026-05-01T07:25:46.522Z</time></trkpt><trkpt lat="42.4430313" lon="14.2139414"><ele>7.0</ele><time>2026-05-01T07:25:48.521Z</time></trkpt><trkpt lat="42.4429006" lon="14.2139093"><ele>7.0</ele><time>2026-05-01T07:25:50.521Z</time></trkpt><trkpt lat="42.44281" lon="14.2139013"><ele>7.3999999999999995</ele><time>2026-05-01T07:25:51.521Z</time></trkpt><trkpt lat="42.4427146" lon="14.2138946"><ele>7.799999999999999</ele><time>2026-05-01T07:25:52.521Z</time></trkpt><trkpt lat="42.4426207" lon="14.2138822"><ele>8.2</ele><time>2026-05-01T07:25:53.522Z</time></trkpt><trkpt lat="42.4425249" lon="14.2138701"><ele>8.6</ele><time>2026-05-01T07:25:54.522Z</time></trkpt><trkpt lat="42.4424329" lon="14.2138647"><ele>9.0</ele><time>2026-05-01T07:25:55.52Z</time></trkpt><trkpt lat="42.4423405" lon="14.2138547"><ele>9.0</ele><time>2026-05-01T07:25:56.521Z</time></trkpt><trkpt lat="42.4422431" lon="14.2138553"><ele>9.0</ele><time>2026-05-01T07:25:57.521Z</time></trkpt><trkpt lat="42.4421479" lon="14.2138549"><ele>9.0</ele><time>2026-05-01T07:25:58.52Z</time></trkpt><trkpt lat="42.4420431" lon="14.2138581"><ele>9.0</ele><time>2026-05-01T07:25:59.52Z</time></trkpt><trkpt lat="42.4419328" lon="14.2138577"><ele>9.0</ele><time>2026-05-01T07:26:00.521Z</time></trkpt><trkpt lat="42.4418215" lon="14.2138496"><ele>8.75</ele><time>2026-05-01T07:26:01.521Z</time></trkpt><trkpt lat="42.4417028" lon="14.2138476"><ele>8.5</ele><time>2026-05-01T07:26:02.521Z</time></trkpt><trkpt lat="42.4415744" lon="14.2138409"><ele>8.25</ele><time>2026-05-01T07:26:03.521Z</time></trkpt><trkpt lat="42.441437" lon="14.2138308"><ele>8.0</ele><time>2026-05-01T07:26:04.521Z</time></trkpt><trkpt lat="42.4412938" lon="14.213817"><ele>11.0</ele><time>2026-05-01T07:26:05.521Z</time></trkpt><trkpt lat="42.4411458" lon="14.2137971"><ele>14.0</ele><time>2026-05-01T07:26:06.521Z</time></trkpt><trkpt lat="42.4409984" lon="14.2137776"><ele>17.0</ele><time>2026-05-01T07:26:07.521Z</time></trkpt><trkpt lat="42.4408592" lon="14.2137545"><ele>20.0</ele><time>2026-05-01T07:26:08.521Z</time></trkpt><trkpt lat="42.4407208" lon="14.2137403"><ele>20.0</ele><time>2026-05-01T07:26:09.521Z</time></trkpt><trkpt lat="42.4406007" lon="14.2137431"><ele>20.0</ele><time>2026-05-01T07:26:10.52Z</time></trkpt><trkpt lat="42.4404803" lon="14.2137544"><ele>20.0</ele><time>2026-05-01T07:26:11.521Z</time></trkpt><trkpt lat="42.440359" lon="14.2137917"><ele>20.0</ele><time>2026-05-01T07:26:12.52Z</time></trkpt><trkpt lat="42.4402435" lon="14.2138343"><ele>20.25</ele><time>2026-05-01T07:26:13.521Z</time></trkpt><trkpt lat="42.4401318" lon="14.2138968"><ele>20.5</ele><time>2026-05-01T07:26:14.521Z</time></trkpt><trkpt lat="42.4399979" lon="14.2140164"><ele>20.75</ele><time>2026-05-01T07:26:15.521Z</time></trkpt><trkpt lat="42.4398749" lon="14.2141162"><ele>21.0</ele><time>2026-05-01T07:26:16.522Z</time></trkpt><trkpt lat="42.4397407" lon="14.2142058"><ele>23.25</ele><time>2026-05-01T07:26:17.521Z</time></trkpt><trkpt lat="42.4396097" lon="14.2142888"><ele>25.5</ele><time>2026-05-01T07:26:18.522Z</time></trkpt><trkpt lat="42.4394631" lon="14.2143728"><ele>27.75</ele><time>2026-05-01T07:26:19.52Z</time></trkpt><trkpt lat="42.4393403" lon="14.2144482"><ele>30.0</ele><time>2026-05-01T07:26:20.521Z</time></trkpt><trkpt lat="42.4392116" lon="14.2145365"><ele>30.0</ele><time>2026-05-01T07:26:21.521Z</time></trkpt><trkpt lat="42.4390859" lon="14.2146213"><ele>30.0</ele><time>2026-05-01T07:26:22.521Z</time></trkpt><trkpt lat="42.4389638" lon="14.2147136"><ele>30.0</ele><time>2026-05-01T07:26:23.521Z</time></trkpt><trkpt lat="42.4388411" lon="14.2148019"><ele>30.0</ele><time>2026-05-01T07:26:24.522Z</time></trkpt><trkpt lat="42.4387233" lon="14.2148775"><ele>33.25</ele><time>2026-05-01T07:26:25.522Z</time></trkpt><trkpt lat="42.4385922" lon="14.2149443"><ele>36.5</ele><time>2026-05-01T07:26:26.521Z</time></trkpt><trkpt lat="42.4384686" lon="14.2149883"><ele>39.75</ele><time>2026-05-01T07:26:27.522Z</time></trkpt><trkpt lat="42.4383385" lon="14.215026"><ele>43.0</ele><time>2026-05-01T07:26:28.521Z</time></trkpt><trkpt lat="42.4382057" lon="14.2150496"><ele>43.0</ele><time>2026-05-01T07:26:29.521Z</time></trkpt><trkpt lat="42.4380674" lon="14.2150596"><ele>43.0</ele><time>2026-05-01T07:26:30.521Z</time></trkpt><trkpt lat="42.4379267" lon="14.215045"><ele>43.0</ele><time>2026-05-01T07:26:31.522Z</time></trkpt><trkpt lat="42.4377859" lon="14.2150216"><ele>43.0</ele><time>2026-05-01T07:26:32.52Z</time></trkpt><trkpt lat="42.4376437" lon="14.2150057"><ele>42.75</ele><time>2026-05-01T07:26:33.522Z</time></trkpt><trkpt lat="42.4375062" lon="14.2149843"><ele>42.5</ele><time>2026-05-01T07:26:34.522Z</time></trkpt><trkpt lat="42.4373762" lon="14.2150154"><ele>42.25</ele><time>2026-05-01T07:26:35.521Z</time></trkpt><trkpt lat="42.4372512" lon="14.2150606"><ele>42.0</ele><time>2026-05-01T07:26:36.522Z</time></trkpt><trkpt lat="42.4371357" lon="14.2151267"><ele>42.0</ele><time>2026-05-01T07:26:37.521Z</time></trkpt><trkpt lat="42.4370264" lon="14.2152201"><ele>42.0</ele><time>2026-05-01T07:26:38.521Z</time></trkpt><trkpt lat="42.436926" lon="14.2153306"><ele>42.0</ele><time>2026-05-01T07:26:39.522Z</time></trkpt><trkpt lat="42.4368308" lon="14.2154632"><ele>42.0</ele><time>2026-05-01T07:26:40.521Z</time></trkpt><trkpt lat="42.4367343" lon="14.2156162"><ele>45.33333333333333</ele><time>2026-05-01T07:26:41.521Z</time></trkpt><trkpt lat="42.4366355" lon="14.2157729"><ele>48.666666666666664</ele><time>2026-05-01T07:26:42.52Z</time></trkpt><trkpt lat="42.4365294" lon="14.2159358"><ele>52.0</ele><time>2026-05-01T07:26:43.52Z</time></trkpt><trkpt lat="42.4364399" lon="14.2160826"><ele>52.0</ele><time>2026-05-01T07:26:44.521Z</time></trkpt><trkpt lat="42.4363601" lon="14.2162156"><ele>52.0</ele><time>2026-05-01T07:26:45.521Z</time></trkpt><trkpt lat="42.4362846" lon="14.2163193"><ele>52.0</ele><time>2026-05-01T07:26:46.521Z</time></trkpt><trkpt lat="42.4362039" lon="14.2164282"><ele>52.0</ele><time>2026-05-01T07:26:47.521Z</time></trkpt><trkpt lat="42.4361206" lon="14.2165292"><ele>52.33333333333333</ele><time>2026-05-01T07:26:48.52Z</time></trkpt><trkpt lat="42.4360363" lon="14.2166269"><ele>52.666666666666664</ele><time>2026-05-01T07:26:49.52Z</time></trkpt><trkpt lat="42.4359529" lon="14.2167074"><ele>53.0</ele><time>2026-05-01T07:26:50.521Z</time></trkpt><trkpt lat="42.4358727" lon="14.2167643"><ele>53.33333333333333</ele><time>2026-05-01T07:26:51.52Z</time></trkpt><trkpt lat="42.4358095" lon="14.2167845"><ele>53.666666666666664</ele><time>2026-05-01T07:26:52.52Z</time></trkpt><trkpt lat="42.4357455" lon="14.2167924"><ele>54.0</ele><time>2026-05-01T07:26:53.521Z</time></trkpt><trkpt lat="42.435659" lon="14.2167929"><ele>54.0</ele><time>2026-05-01T07:26:54.522Z</time></trkpt><trkpt lat="42.4355576" lon="14.2167763"><ele>54.0</ele><time>2026-05-01T07:26:55.521Z</time></trkpt><trkpt lat="42.4354581" lon="14.2167441"><ele>54.0</ele><time>2026-05-01T07:26:56.521Z</time></trkpt><trkpt lat="42.4353734" lon="14.2167126"><ele>54.0</ele><time>2026-05-01T07:26:57.521Z</time></trkpt><trkpt lat="42.4353053" lon="14.2166796"><ele>54.0</ele><time>2026-05-01T07:26:58.52Z</time></trkpt><trkpt lat="42.4352416" lon="14.2166484"><ele>54.0</ele><time>2026-05-01T07:26:59.52Z</time></trkpt><trkpt lat="42.4351846" lon="14.216606"><ele>54.5</ele><time>2026-05-01T07:27:00.521Z</time></trkpt><trkpt lat="42.4351146" lon="14.2165298"><ele>55.0</ele><time>2026-05-01T07:27:02.522Z</time></trkpt><trkpt lat="42.4351717" lon="14.216616"><ele>55.5</ele><time>2026-05-01T07:27:26.52Z</time></trkpt><trkpt lat="42.4352236" lon="14.2166735"><ele>56.0</ele><time>2026-05-01T07:27:28.52Z</time></trkpt><trkpt lat="42.4352848" lon="14.2167403"><ele>56.5</ele><time>2026-05-01T07:27:31.522Z</time></trkpt><trkpt lat="42.4353894" lon="14.2167714"><ele>57.0</ele><time>2026-05-01T07:27:34.521Z</time></trkpt><trkpt lat="42.4354598" lon="14.2167955"><ele>56.400000000000006</ele><time>2026-05-01T07:27:35.522Z</time></trkpt><trkpt lat="42.435532" lon="14.2167999"><ele>55.800000000000004</ele><time>2026-05-01T07:27:36.521Z</time></trkpt><trkpt lat="42.4356319" lon="14.2168146"><ele>55.2</ele><time>2026-05-01T07:27:37.521Z</time></trkpt><trkpt lat="42.4357263" lon="14.2168366"><ele>54.6</ele><time>2026-05-01T07:27:38.521Z</time></trkpt><trkpt lat="42.4358193" lon="14.216866"><ele>54.0</ele><time>2026-05-01T07:27:39.521Z</time></trkpt><trkpt lat="42.4359207" lon="14.2169243"><ele>54.0</ele><time>2026-05-01T07:27:40.52Z</time></trkpt><trkpt lat="42.4360409" lon="14.2169742"><ele>54.00000000000001</ele><time>2026-05-01T07:27:41.52Z</time></trkpt><trkpt lat="42.4361463" lon="14.2170461"><ele>54.00000000000001</ele><time>2026-05-01T07:27:42.521Z</time></trkpt><trkpt lat="42.4362322" lon="14.2171143"><ele>54.0</ele><time>2026-05-01T07:27:43.52Z</time></trkpt><trkpt lat="42.4363001" lon="14.217177"><ele>54.0</ele><time>2026-05-01T07:27:44.52Z</time></trkpt><trkpt lat="42.4363617" lon="14.2172325"><ele>55.0</ele><time>2026-05-01T07:27:45.521Z</time></trkpt><trkpt lat="42.4364251" lon="14.2173057"><ele>56.00000000000001</ele><time>2026-05-01T07:27:46.52Z</time></trkpt><trkpt lat="42.4364849" lon="14.2173904"><ele>57.00000000000001</ele><time>2026-05-01T07:27:47.521Z</time></trkpt><trkpt lat="42.436551" lon="14.2174673"><ele>58.0</ele><time>2026-05-01T07:27:48.522Z</time></trkpt><trkpt lat="42.4366178" lon="14.217553"><ele>59.0</ele><time>2026-05-01T07:27:49.521Z</time></trkpt><trkpt lat="42.4367147" lon="14.2176608"><ele>59.0</ele><time>2026-05-01T07:27:50.52Z</time></trkpt><trkpt lat="42.4368222" lon="14.2177857"><ele>59.0</ele><time>2026-05-01T07:27:51.521Z</time></trkpt><trkpt lat="42.4369354" lon="14.2179165"><ele>59.0</ele><time>2026-05-01T07:27:52.521Z</time></trkpt><trkpt lat="42.4370841" lon="14.2180814"><ele>59.66666666666667</ele><time>2026-05-01T07:27:53.521Z</time></trkpt><trkpt lat="42.43723" lon="14.2182538"><ele>60.33333333333333</ele><time>2026-05-01T07:27:54.522Z</time></trkpt><trkpt lat="42.4373619" lon="14.2184055"><ele>61.0</ele><time>2026-05-01T07:27:55.521Z</time></trkpt><trkpt lat="42.4374828" lon="14.2185436"><ele>61.0</ele><time>2026-05-01T07:27:56.521Z</time></trkpt><trkpt lat="42.437602" lon="14.2186759"><ele>61.0</ele><time>2026-05-01T07:27:57.521Z</time></trkpt><trkpt lat="42.4377125" lon="14.2188169"><ele>61.0</ele><time>2026-05-01T07:27:58.521Z</time></trkpt><trkpt lat="42.4378247" lon="14.2189445"><ele>59.75</ele><time>2026-05-01T07:27:59.521Z</time></trkpt><trkpt lat="42.4379319" lon="14.2190632"><ele>58.5</ele><time>2026-05-01T07:28:00.521Z</time></trkpt><trkpt lat="42.4380348" lon="14.2191703"><ele>57.25</ele><time>2026-05-01T07:28:01.521Z</time></trkpt><trkpt lat="42.4381338" lon="14.2192745"><ele>56.0</ele><time>2026-05-01T07:28:02.52Z</time></trkpt><trkpt lat="42.4382218" lon="14.2193585"><ele>56.00000000000001</ele><time>2026-05-01T07:28:03.521Z</time></trkpt><trkpt lat="42.4383039" lon="14.2194356"><ele>56.0</ele><time>2026-05-01T07:28:04.521Z</time></trkpt><trkpt lat="42.4383766" lon="14.2195022"><ele>56.0</ele><time>2026-05-01T07:28:05.521Z</time></trkpt><trkpt lat="42.4384403" lon="14.2195618"><ele>56.0</ele><time>2026-05-01T07:28:06.52Z</time></trkpt><trkpt lat="42.4385027" lon="14.2196174"><ele>56.00000000000001</ele><time>2026-05-01T07:28:07.521Z</time></trkpt><trkpt lat="42.4385624" lon="14.2196786"><ele>56.0</ele><time>2026-05-01T07:28:08.522Z</time></trkpt><trkpt lat="42.4386228" lon="14.2197426"><ele>56.199999999999996</ele><time>2026-05-01T07:28:09.521Z</time></trkpt><trkpt lat="42.4386807" lon="14.2198307"><ele>56.39999999999999</ele><time>2026-05-01T07:28:10.521Z</time></trkpt><trkpt lat="42.4387442" lon="14.2199201"><ele>56.6</ele><time>2026-05-01T07:28:11.52Z</time></trkpt><trkpt lat="42.4388066" lon="14.2200321"><ele>56.8</ele><time>2026-05-01T07:28:12.521Z</time></trkpt><trkpt lat="42.4388792" lon="14.2201568"><ele>57.0</ele><time>2026-05-01T07:28:13.52Z</time></trkpt><trkpt lat="42.4389477" lon="14.2202999"><ele>57.0</ele><time>2026-05-01T07:28:14.52Z</time></trkpt><trkpt lat="42.4390022" lon="14.220458"><ele>57.0</ele><time>2026-05-01T07:28:15.521Z</time></trkpt><trkpt lat="42.439048" lon="14.2206273"><ele>57.0</ele><time>2026-05-01T07:28:16.521Z</time></trkpt><trkpt lat="42.4390821" lon="14.2207964"><ele>57.0</ele><time>2026-05-01T07:28:17.521Z</time></trkpt><trkpt lat="42.4390967" lon="14.2209606"><ele>56.66666666666667</ele><time>2026-05-01T07:28:18.521Z</time></trkpt><trkpt lat="42.4390961" lon="14.2211351"><ele>56.333333333333336</ele><time>2026-05-01T07:28:19.521Z</time></trkpt><trkpt lat="42.4390611" lon="14.2213463"><ele>56.0</ele><time>2026-05-01T07:28:20.521Z</time></trkpt><trkpt lat="42.4390196" lon="14.2215576"><ele>55.25</ele><time>2026-05-01T07:28:21.52Z</time></trkpt><trkpt lat="42.4389977" lon="14.2217631"><ele>54.5</ele><time>2026-05-01T07:28:22.52Z</time></trkpt><trkpt lat="42.4389835" lon="14.2219421"><ele>53.75</ele><time>2026-05-01T07:28:23.522Z</time></trkpt><trkpt lat="42.4389882" lon="14.22209"><ele>53.0</ele><time>2026-05-01T07:28:24.522Z</time></trkpt><trkpt lat="42.439006" lon="14.2222149"><ele>53.00000000000001</ele><time>2026-05-01T07:28:25.52Z</time></trkpt><trkpt lat="42.4390207" lon="14.2223088"><ele>53.0</ele><time>2026-05-01T07:28:26.52Z</time></trkpt><trkpt lat="42.4390099" lon="14.22245"><ele>53.0</ele><time>2026-05-01T07:28:28.52Z</time></trkpt><trkpt lat="42.4389691" lon="14.2225411"><ele>53.0</ele><time>2026-05-01T07:28:29.52Z</time></trkpt><trkpt lat="42.4389027" lon="14.2226125"><ele>53.00000000000001</ele><time>2026-05-01T07:28:30.52Z</time></trkpt><trkpt lat="42.4388212" lon="14.2226772"><ele>53.0</ele><time>2026-05-01T07:28:31.519Z</time></trkpt><trkpt lat="42.4387347" lon="14.2227148"><ele>49.8</ele><time>2026-05-01T07:28:32.52Z</time></trkpt><trkpt lat="42.4386445" lon="14.222712"><ele>46.599999999999994</ele><time>2026-05-01T07:28:33.52Z</time></trkpt><trkpt lat="42.4385578" lon="14.2226755"><ele>43.400000000000006</ele><time>2026-05-01T07:28:34.52Z</time></trkpt><trkpt lat="42.4384749" lon="14.2226058"><ele>40.2</ele><time>2026-05-01T07:28:35.52Z</time></trkpt><trkpt lat="42.4383987" lon="14.2224931"><ele>37.0</ele><time>2026-05-01T07:28:36.52Z</time></trkpt><trkpt lat="42.4383262" lon="14.2223461"><ele>37.8</ele><time>2026-05-01T07:28:37.52Z</time></trkpt><trkpt lat="42.4382746" lon="14.2221982"><ele>38.6</ele><time>2026-05-01T07:28:38.52Z</time></trkpt><trkpt lat="42.4382334" lon="14.2220563"><ele>39.4</ele><time>2026-05-01T07:28:39.521Z</time></trkpt><trkpt lat="42.4382034" lon="14.2219179"><ele>40.199999999999996</ele><time>2026-05-01T07:28:40.519Z</time></trkpt><trkpt lat="42.4381694" lon="14.2218067"><ele>41.0</ele><time>2026-05-01T07:28:41.519Z</time></trkpt><trkpt lat="42.4381314" lon="14.2217137"><ele>40.99999999999999</ele><time>2026-05-01T07:28:42.52Z</time></trkpt><trkpt lat="42.4380845" lon="14.2216448"><ele>41.0</ele><time>2026-05-01T07:28:43.52Z</time></trkpt><trkpt lat="42.4380271" lon="14.2215959"><ele>41.0</ele><time>2026-05-01T07:28:44.52Z</time></trkpt><trkpt lat="42.4379575" lon="14.2215861"><ele>41.0</ele><time>2026-05-01T07:28:45.52Z</time></trkpt><trkpt lat="42.4378917" lon="14.2215905"><ele>41.0</ele><time>2026-05-01T07:28:46.52Z</time></trkpt><trkpt lat="42.4378315" lon="14.2216339"><ele>40.99999999999999</ele><time>2026-05-01T07:28:47.52Z</time></trkpt><trkpt lat="42.4377823" lon="14.2216876"><ele>41.0</ele><time>2026-05-01T07:28:48.52Z</time></trkpt><trkpt lat="42.4377348" lon="14.2217514"><ele>41.0</ele><time>2026-05-01T07:28:49.519Z</time></trkpt><trkpt lat="42.4377072" lon="14.221883"><ele>41.0</ele><time>2026-05-01T07:28:50.519Z</time></trkpt><trkpt lat="42.4377603" lon="14.2220061"><ele>41.0</ele><time>2026-05-01T07:28:51.52Z</time></trkpt><trkpt lat="42.4377818" lon="14.2221317"><ele>41.0</ele><time>2026-05-01T07:28:52.521Z</time></trkpt><trkpt lat="42.437851" lon="14.2222886"><ele>41.0</ele><time>2026-05-01T07:28:53.52Z</time></trkpt><trkpt lat="42.4379129" lon="14.2224537"><ele>41.0</ele><time>2026-05-01T07:28:54.521Z</time></trkpt><trkpt lat="42.4379574" lon="14.222643"><ele>41.0</ele><time>2026-05-01T07:28:55.52Z</time></trkpt><trkpt lat="42.437986" lon="14.2228339"><ele>41.0</ele><time>2026-05-01T07:28:56.52Z</time></trkpt><trkpt lat="42.4380202" lon="14.2230286"><ele>41.0</ele><time>2026-05-01T07:28:57.519Z</time></trkpt><trkpt lat="42.4380533" lon="14.2232479"><ele>38.666666666666664</ele><time>2026-05-01T07:28:58.519Z</time></trkpt><trkpt lat="42.4380788" lon="14.2234762"><ele>36.333333333333336</ele><time>2026-05-01T07:28:59.521Z</time></trkpt><trkpt lat="42.4381004" lon="14.2236905"><ele>34.0</ele><time>2026-05-01T07:29:00.52Z</time></trkpt><trkpt lat="42.4381258" lon="14.2238987"><ele>32.333333333333336</ele><time>2026-05-01T07:29:01.52Z</time></trkpt><trkpt lat="42.4381416" lon="14.2241048"><ele>30.666666666666664</ele><time>2026-05-01T07:29:02.52Z</time></trkpt><trkpt lat="42.4381599" lon="14.2243083"><ele>29.0</ele><time>2026-05-01T07:29:03.52Z</time></trkpt><trkpt lat="42.4381742" lon="14.2245092"><ele>29.0</ele><time>2026-05-01T07:29:04.52Z</time></trkpt><trkpt lat="42.438192" lon="14.2246995"><ele>29.0</ele><time>2026-05-01T07:29:05.52Z</time></trkpt><trkpt lat="42.4382131" lon="14.2248779"><ele>29.0</ele><time>2026-05-01T07:29:06.52Z</time></trkpt><trkpt lat="42.4382199" lon="14.2250487"><ele>29.0</ele><time>2026-05-01T07:29:07.52Z</time></trkpt><trkpt lat="42.4382344" lon="14.2252043"><ele>29.0</ele><time>2026-05-01T07:29:08.52Z</time></trkpt><trkpt lat="42.4382361" lon="14.2253383"><ele>29.0</ele><time>2026-05-01T07:29:09.521Z</time></trkpt><trkpt lat="42.4382159" lon="14.2254699"><ele>29.0</ele><time>2026-05-01T07:29:10.521Z</time></trkpt><trkpt lat="42.4381818" lon="14.2255956"><ele>29.0</ele><time>2026-05-01T07:29:11.52Z</time></trkpt><trkpt lat="42.4381317" lon="14.2257131"><ele>29.0</ele><time>2026-05-01T07:29:12.52Z</time></trkpt><trkpt lat="42.4380787" lon="14.2258406"><ele>29.0</ele><time>2026-05-01T07:29:13.52Z</time></trkpt><trkpt lat="42.4380152" lon="14.2259578"><ele>29.0</ele><time>2026-05-01T07:29:14.52Z</time></trkpt><trkpt lat="42.4379472" lon="14.2260495"><ele>29.0</ele><time>2026-05-01T07:29:15.521Z</time></trkpt><trkpt lat="42.4378728" lon="14.2261102"><ele>29.0</ele><time>2026-05-01T07:29:16.519Z</time></trkpt><trkpt lat="42.4377918" lon="14.2261381"><ele>29.0</ele><time>2026-05-01T07:29:17.52Z</time></trkpt><trkpt lat="42.4377111" lon="14.2261329"><ele>30.4</ele><time>2026-05-01T07:29:18.521Z</time></trkpt><trkpt lat="42.4376267" lon="14.226096"><ele>31.799999999999997</ele><time>2026-05-01T07:29:19.52Z</time></trkpt><trkpt lat="42.437533" lon="14.226031"><ele>33.2</ele><time>2026-05-01T07:29:20.52Z</time></trkpt><trkpt lat="42.4374356" lon="14.2259471"><ele>34.6</ele><time>2026-05-01T07:29:21.52Z</time></trkpt><trkpt lat="42.4373456" lon="14.225854"><ele>36.0</ele><time>2026-05-01T07:29:22.52Z</time></trkpt><trkpt lat="42.4372607" lon="14.2257653"><ele>36.0</ele><time>2026-05-01T07:29:23.521Z</time></trkpt><trkpt lat="42.4371802" lon="14.2256687"><ele>36.0</ele><time>2026-05-01T07:29:24.52Z</time></trkpt><trkpt lat="42.4370902" lon="14.2255877"><ele>36.0</ele><time>2026-05-01T07:29:25.52Z</time></trkpt><trkpt lat="42.4370011" lon="14.2255175"><ele>36.0</ele><time>2026-05-01T07:29:26.52Z</time></trkpt><trkpt lat="42.4368992" lon="14.2254664"><ele>36.0</ele><time>2026-05-01T07:29:27.52Z</time></trkpt><trkpt lat="42.4367929" lon="14.2254306"><ele>37.0</ele><time>2026-05-01T07:29:28.519Z</time></trkpt><trkpt lat="42.4366615" lon="14.2254007"><ele>38.0</ele><time>2026-05-01T07:29:29.52Z</time></trkpt><trkpt lat="42.4365272" lon="14.2253675"><ele>39.0</ele><time>2026-05-01T07:29:30.521Z</time></trkpt><trkpt lat="42.4363908" lon="14.225338"><ele>40.0</ele><time>2026-05-01T07:29:31.519Z</time></trkpt><trkpt lat="42.4362628" lon="14.2253133"><ele>42.0</ele><time>2026-05-01T07:29:32.521Z</time></trkpt><trkpt lat="42.4361301" lon="14.2252856"><ele>44.0</ele><time>2026-05-01T07:29:33.519Z</time></trkpt><trkpt lat="42.4359979" lon="14.2252629"><ele>46.0</ele><time>2026-05-01T07:29:34.52Z</time></trkpt><trkpt lat="42.4358724" lon="14.2252409"><ele>48.0</ele><time>2026-05-01T07:29:35.52Z</time></trkpt><trkpt lat="42.4357485" lon="14.2252193"><ele>48.0</ele><time>2026-05-01T07:29:36.519Z</time></trkpt><trkpt lat="42.4356349" lon="14.22521"><ele>48.0</ele><time>2026-05-01T07:29:37.521Z</time></trkpt><trkpt lat="42.4355341" lon="14.2252252"><ele>48.0</ele><time>2026-05-01T07:29:38.521Z</time></trkpt><trkpt lat="42.4354445" lon="14.2252631"><ele>48.0</ele><time>2026-05-01T07:29:39.52Z</time></trkpt><trkpt lat="42.4353618" lon="14.2253346"><ele>48.0</ele><time>2026-05-01T07:29:40.52Z</time></trkpt><trkpt lat="42.4352866" lon="14.2254373"><ele>48.0</ele><time>2026-05-01T07:29:41.52Z</time></trkpt><trkpt lat="42.4352125" lon="14.2255493"><ele>48.0</ele><time>2026-05-01T07:29:42.521Z</time></trkpt><trkpt lat="42.4351488" lon="14.2256718"><ele>48.0</ele><time>2026-05-01T07:29:43.521Z</time></trkpt><trkpt lat="42.4351127" lon="14.2257942"><ele>48.0</ele><time>2026-05-01T07:29:44.52Z</time></trkpt><trkpt lat="42.4350791" lon="14.2258866"><ele>48.0</ele><time>2026-05-01T07:29:45.52Z</time></trkpt><trkpt lat="42.435059" lon="14.2259863"><ele>50.833333333333336</ele><time>2026-05-01T07:29:46.519Z</time></trkpt><trkpt lat="42.4350651" lon="14.2260925"><ele>53.66666666666667</ele><time>2026-05-01T07:29:47.521Z</time></trkpt><trkpt lat="42.435087" lon="14.2262014"><ele>56.5</ele><time>2026-05-01T07:29:48.52Z</time></trkpt><trkpt lat="42.435135" lon="14.2262983"><ele>59.333333333333336</ele><time>2026-05-01T07:29:49.52Z</time></trkpt><trkpt lat="42.4351935" lon="14.2263774"><ele>62.16666666666667</ele><time>2026-05-01T07:29:50.52Z</time></trkpt><trkpt lat="42.4352858" lon="14.2264295"><ele>65.0</ele><time>2026-05-01T07:29:51.519Z</time></trkpt><trkpt lat="42.4353716" lon="14.2264689"><ele>66.00000000000001</ele><time>2026-05-01T07:29:52.52Z</time></trkpt><trkpt lat="42.4354567" lon="14.226502"><ele>67.0</ele><time>2026-05-01T07:29:53.519Z</time></trkpt><trkpt lat="42.4355316" lon="14.2265407"><ele>68.0</ele><time>2026-05-01T07:29:54.52Z</time></trkpt><trkpt lat="42.4355903" lon="14.2265979"><ele>69.0</ele><time>2026-05-01T07:29:55.52Z</time></trkpt><trkpt lat="42.4356212" lon="14.2266762"><ele>70.0</ele><time>2026-05-01T07:29:56.521Z</time></trkpt><trkpt lat="42.4356495" lon="14.2267588"><ele>71.00000000000001</ele><time>2026-05-01T07:29:57.52Z</time></trkpt><trkpt lat="42.4356478" lon="14.2268513"><ele>72.0</ele><time>2026-05-01T07:29:58.52Z</time></trkpt><trkpt lat="42.43557" lon="14.2269588"><ele>72.0</ele><time>2026-05-01T07:29:59.521Z</time></trkpt><trkpt lat="42.4355114" lon="14.2270705"><ele>72.0</ele><time>2026-05-01T07:30:00.52Z</time></trkpt><trkpt lat="42.4354409" lon="14.2271939"><ele>72.0</ele><time>2026-05-01T07:30:01.52Z</time></trkpt><trkpt lat="42.4353714" lon="14.2273264"><ele>72.0</ele><time>2026-05-01T07:30:02.519Z</time></trkpt><trkpt lat="42.435306" lon="14.2274691"><ele>74.25</ele><time>2026-05-01T07:30:03.521Z</time></trkpt><trkpt lat="42.4352444" lon="14.2276243"><ele>76.5</ele><time>2026-05-01T07:30:04.52Z</time></trkpt><trkpt lat="42.4351936" lon="14.2277865"><ele>78.75</ele><time>2026-05-01T07:30:05.52Z</time></trkpt><trkpt lat="42.4351515" lon="14.2279606"><ele>81.0</ele><time>2026-05-01T07:30:06.519Z</time></trkpt><trkpt lat="42.4351122" lon="14.228142"><ele>82.5</ele><time>2026-05-01T07:30:07.521Z</time></trkpt><trkpt lat="42.4350798" lon="14.228329"><ele>84.0</ele><time>2026-05-01T07:30:08.519Z</time></trkpt><trkpt lat="42.4350483" lon="14.22852"><ele>85.5</ele><time>2026-05-01T07:30:09.521Z</time></trkpt><trkpt lat="42.4350244" lon="14.2287165"><ele>87.0</ele><time>2026-05-01T07:30:10.52Z</time></trkpt><trkpt lat="42.435005" lon="14.2289159"><ele>88.25</ele><time>2026-05-01T07:30:11.52Z</time></trkpt><trkpt lat="42.434987" lon="14.2291074"><ele>89.5</ele><time>2026-05-01T07:30:12.52Z</time></trkpt><trkpt lat="42.4349653" lon="14.2292919"><ele>90.75</ele><time>2026-05-01T07:30:13.519Z</time></trkpt><trkpt lat="42.4349383" lon="14.2294783"><ele>92.0</ele><time>2026-05-01T07:30:14.52Z</time></trkpt><trkpt lat="42.4349207" lon="14.2296646"><ele>94.5</ele><time>2026-05-01T07:30:15.52Z</time></trkpt><trkpt lat="42.4349115" lon="14.2298473"><ele>97.0</ele><time>2026-05-01T07:30:16.519Z</time></trkpt><trkpt lat="42.4349367" lon="14.2300313"><ele>99.5</ele><time>2026-05-01T07:30:17.519Z</time></trkpt><trkpt lat="42.4349783" lon="14.2302063"><ele>102.0</ele><time>2026-05-01T07:30:18.52Z</time></trkpt><trkpt lat="42.4350387" lon="14.2303816"><ele>102.0</ele><time>2026-05-01T07:30:19.52Z</time></trkpt><trkpt lat="42.4350986" lon="14.2305593"><ele>102.0</ele><time>2026-05-01T07:30:20.52Z</time></trkpt><trkpt lat="42.4351603" lon="14.2307391"><ele>102.0</ele><time>2026-05-01T07:30:21.52Z</time></trkpt><trkpt lat="42.4352232" lon="14.2309186"><ele>102.0</ele><time>2026-05-01T07:30:22.521Z</time></trkpt><trkpt lat="42.4352844" lon="14.2310898"><ele>107.25</ele><time>2026-05-01T07:30:23.52Z</time></trkpt><trkpt lat="42.4353498" lon="14.231259"><ele>112.5</ele><time>2026-05-01T07:30:24.52Z</time></trkpt><trkpt lat="42.4354186" lon="14.2314045"><ele>117.75</ele><time>2026-05-01T07:30:25.52Z</time></trkpt><trkpt lat="42.4354948" lon="14.2315316"><ele>123.0</ele><time>2026-05-01T07:30:26.52Z</time></trkpt><trkpt lat="42.4355829" lon="14.2316191"><ele>123.0</ele><time>2026-05-01T07:30:27.521Z</time></trkpt><trkpt lat="42.4356807" lon="14.2316715"><ele>123.00000000000001</ele><time>2026-05-01T07:30:28.52Z</time></trkpt><trkpt lat="42.4357826" lon="14.2316942"><ele>123.00000000000001</ele><time>2026-05-01T07:30:29.52Z</time></trkpt><trkpt lat="42.4358845" lon="14.2316934"><ele>123.0</ele><time>2026-05-01T07:30:30.521Z</time></trkpt><trkpt lat="42.4359718" lon="14.2316881"><ele>123.0</ele><time>2026-05-01T07:30:31.521Z</time></trkpt><trkpt lat="42.4360874" lon="14.2317155"><ele>123.0</ele><time>2026-05-01T07:30:33.52Z</time></trkpt><trkpt lat="42.4361257" lon="14.2318407"><ele>123.00000000000001</ele><time>2026-05-01T07:30:35.521Z</time></trkpt><trkpt lat="42.4360356" lon="14.2319696"><ele>123.00000000000001</ele><time>2026-05-01T07:30:37.521Z</time></trkpt><trkpt lat="42.4359405" lon="14.2320306"><ele>123.0</ele><time>2026-05-01T07:30:38.52Z</time></trkpt><trkpt lat="42.4358325" lon="14.2320715"><ele>123.0</ele><time>2026-05-01T07:30:39.52Z</time></trkpt><trkpt lat="42.4357097" lon="14.2321015"><ele>123.0</ele><time>2026-05-01T07:30:40.52Z</time></trkpt><trkpt lat="42.435581" lon="14.2321165"><ele>123.0</ele><time>2026-05-01T07:30:41.52Z</time></trkpt><trkpt lat="42.4354446" lon="14.232109"><ele>123.0</ele><time>2026-05-01T07:30:42.519Z</time></trkpt><trkpt lat="42.4352993" lon="14.2320985"><ele>123.0</ele><time>2026-05-01T07:30:43.521Z</time></trkpt><trkpt lat="42.435143" lon="14.2320962"><ele>129.33333333333334</ele><time>2026-05-01T07:30:44.52Z</time></trkpt><trkpt lat="42.4349857" lon="14.2320972"><ele>135.66666666666669</ele><time>2026-05-01T07:30:45.52Z</time></trkpt><trkpt lat="42.4348271" lon="14.2321001"><ele>142.0</ele><time>2026-05-01T07:30:46.521Z</time></trkpt><trkpt lat="42.434668" lon="14.2321067"><ele>142.25</ele><time>2026-05-01T07:30:47.52Z</time></trkpt><trkpt lat="42.4345194" lon="14.2321311"><ele>142.5</ele><time>2026-05-01T07:30:48.52Z</time></trkpt><trkpt lat="42.4343681" lon="14.2321652"><ele>142.75</ele><time>2026-05-01T07:30:49.52Z</time></trkpt><trkpt lat="42.4342421" lon="14.2322246"><ele>143.0</ele><time>2026-05-01T07:30:50.52Z</time></trkpt><trkpt lat="42.434131" lon="14.2323427"><ele>143.0</ele><time>2026-05-01T07:30:51.519Z</time></trkpt><trkpt lat="42.4340075" lon="14.2324647"><ele>143.0</ele><time>2026-05-01T07:30:52.52Z</time></trkpt><trkpt lat="42.4338931" lon="14.2325717"><ele>143.0</ele><time>2026-05-01T07:30:53.52Z</time></trkpt><trkpt lat="42.4337883" lon="14.2326887"><ele>143.0</ele><time>2026-05-01T07:30:54.52Z</time></trkpt><trkpt lat="42.4336947" lon="14.2328247"><ele>146.0</ele><time>2026-05-01T07:30:55.519Z</time></trkpt><trkpt lat="42.4336259" lon="14.2329641"><ele>149.0</ele><time>2026-05-01T07:30:56.52Z</time></trkpt><trkpt lat="42.4335718" lon="14.2331126"><ele>152.0</ele><time>2026-05-01T07:30:57.52Z</time></trkpt><trkpt lat="42.433551" lon="14.2332676"><ele>155.0</ele><time>2026-05-01T07:30:58.52Z</time></trkpt><trkpt lat="42.433546" lon="14.2334202"><ele>155.0</ele><time>2026-05-01T07:30:59.519Z</time></trkpt><trkpt lat="42.433538" lon="14.233582"><ele>155.0</ele><time>2026-05-01T07:31:00.52Z</time></trkpt><trkpt lat="42.4335356" lon="14.2337504"><ele>155.0</ele><time>2026-05-01T07:31:01.52Z</time></trkpt><trkpt lat="42.4335233" lon="14.2339236"><ele>155.0</ele><time>2026-05-01T07:31:02.52Z</time></trkpt><trkpt lat="42.4334754" lon="14.2340881"><ele>154.75</ele><time>2026-05-01T07:31:03.519Z</time></trkpt><trkpt lat="42.4334367" lon="14.2342517"><ele>154.5</ele><time>2026-05-01T07:31:04.52Z</time></trkpt><trkpt lat="42.4333877" lon="14.2344236"><ele>154.25</ele><time>2026-05-01T07:31:05.521Z</time></trkpt><trkpt lat="42.4333364" lon="14.2345913"><ele>154.0</ele><time>2026-05-01T07:31:06.521Z</time></trkpt><trkpt lat="42.4332981" lon="14.2347529"><ele>153.4</ele><time>2026-05-01T07:31:07.52Z</time></trkpt><trkpt lat="42.4332633" lon="14.2348995"><ele>152.8</ele><time>2026-05-01T07:31:08.52Z</time></trkpt><trkpt lat="42.4332442" lon="14.2350403"><ele>152.2</ele><time>2026-05-01T07:31:09.519Z</time></trkpt><trkpt lat="42.4332246" lon="14.2351758"><ele>151.6</ele><time>2026-05-01T07:31:10.52Z</time></trkpt><trkpt lat="42.4332293" lon="14.2353287"><ele>151.0</ele><time>2026-05-01T07:31:11.52Z</time></trkpt><trkpt lat="42.433239" lon="14.2354712"><ele>151.0</ele><time>2026-05-01T07:31:12.519Z</time></trkpt><trkpt lat="42.4332411" lon="14.2355994"><ele>151.0</ele><time>2026-05-01T07:31:13.52Z</time></trkpt><trkpt lat="42.4332459" lon="14.2357231"><ele>151.0</ele><time>2026-05-01T07:31:14.519Z</time></trkpt><trkpt lat="42.4332474" lon="14.235839"><ele>151.0</ele><time>2026-05-01T07:31:15.521Z</time></trkpt><trkpt lat="42.4332498" lon="14.2359353"><ele>151.0</ele><time>2026-05-01T07:31:16.52Z</time></trkpt><trkpt lat="42.4332506" lon="14.2360284"><ele>151.0</ele><time>2026-05-01T07:31:17.52Z</time></trkpt><trkpt lat="42.433249" lon="14.2361157"><ele>150.4</ele><time>2026-05-01T07:31:18.519Z</time></trkpt><trkpt lat="42.4332337" lon="14.2362606"><ele>149.8</ele><time>2026-05-01T07:31:20.52Z</time></trkpt><trkpt lat="42.4331857" lon="14.2363771"><ele>149.20000000000002</ele><time>2026-05-01T07:31:22.519Z</time></trkpt><trkpt lat="42.4331087" lon="14.2363953"><ele>148.6</ele><time>2026-05-01T07:31:23.519Z</time></trkpt><trkpt lat="42.4330203" lon="14.2364045"><ele>148.0</ele><time>2026-05-01T07:31:24.519Z</time></trkpt><trkpt lat="42.4329199" lon="14.2363948"><ele>148.0</ele><time>2026-05-01T07:31:25.519Z</time></trkpt><trkpt lat="42.4328056" lon="14.2363835"><ele>148.0</ele><time>2026-05-01T07:31:26.519Z</time></trkpt><trkpt lat="42.4326879" lon="14.2363764"><ele>148.0</ele><time>2026-05-01T07:31:27.519Z</time></trkpt><trkpt lat="42.432568" lon="14.2363665"><ele>148.0</ele><time>2026-05-01T07:31:28.519Z</time></trkpt><trkpt lat="42.4324551" lon="14.2363522"><ele>148.0</ele><time>2026-05-01T07:31:29.519Z</time></trkpt><trkpt lat="42.4323406" lon="14.2363507"><ele>148.0</ele><time>2026-05-01T07:31:30.519Z</time></trkpt><trkpt lat="42.4322248" lon="14.2363389"><ele>148.0</ele><time>2026-05-01T07:31:31.519Z</time></trkpt><trkpt lat="42.4321045" lon="14.2363331"><ele>148.0</ele><time>2026-05-01T07:31:32.519Z</time></trkpt><trkpt lat="42.4319853" lon="14.2363231"><ele>148.5</ele><time>2026-05-01T07:31:33.519Z</time></trkpt><trkpt lat="42.4318658" lon="14.2363144"><ele>149.0</ele><time>2026-05-01T07:31:34.52Z</time></trkpt><trkpt lat="42.431731" lon="14.2363143"><ele>149.5</ele><time>2026-05-01T07:31:35.52Z</time></trkpt><trkpt lat="42.4315924" lon="14.2363182"><ele>150.0</ele><time>2026-05-01T07:31:36.519Z</time></trkpt><trkpt lat="42.4314644" lon="14.2363199"><ele>150.0</ele><time>2026-05-01T07:31:37.519Z</time></trkpt><trkpt lat="42.4313272" lon="14.2363091"><ele>150.0</ele><time>2026-05-01T07:31:38.52Z</time></trkpt><trkpt lat="42.4311884" lon="14.2362974"><ele>150.0</ele><time>2026-05-01T07:31:39.518Z</time></trkpt><trkpt lat="42.4310467" lon="14.2362887"><ele>150.0</ele><time>2026-05-01T07:31:40.519Z</time></trkpt><trkpt lat="42.4309119" lon="14.236276"><ele>150.25</ele><time>2026-05-01T07:31:41.519Z</time></trkpt><trkpt lat="42.4307801" lon="14.2362653"><ele>150.5</ele><time>2026-05-01T07:31:42.519Z</time></trkpt><trkpt lat="42.430658" lon="14.2362495"><ele>150.75</ele><time>2026-05-01T07:31:43.519Z</time></trkpt><trkpt lat="42.4305346" lon="14.2362419"><ele>151.0</ele><time>2026-05-01T07:31:44.519Z</time></trkpt><trkpt lat="42.43041" lon="14.2362289"><ele>151.25</ele><time>2026-05-01T07:31:45.519Z</time></trkpt><trkpt lat="42.4302789" lon="14.2362303"><ele>151.5</ele><time>2026-05-01T07:31:46.519Z</time></trkpt><trkpt lat="42.4301517" lon="14.2362292"><ele>151.75</ele><time>2026-05-01T07:31:47.519Z</time></trkpt><trkpt lat="42.430019" lon="14.2362151"><ele>152.0</ele><time>2026-05-01T07:31:48.519Z</time></trkpt><trkpt lat="42.4298833" lon="14.236205"><ele>152.0</ele><time>2026-05-01T07:31:49.519Z</time></trkpt><trkpt lat="42.4297534" lon="14.2361941"><ele>152.0</ele><time>2026-05-01T07:31:50.519Z</time></trkpt><trkpt lat="42.4296373" lon="14.2361758"><ele>152.0</ele><time>2026-05-01T07:31:51.519Z</time></trkpt><trkpt lat="42.4295469" lon="14.2361534"><ele>152.0</ele><time>2026-05-01T07:31:52.518Z</time></trkpt><trkpt lat="42.4294633" lon="14.2361241"><ele>152.0</ele><time>2026-05-01T07:31:53.52Z</time></trkpt><trkpt lat="42.4293996" lon="14.2360547"><ele>152.4</ele><time>2026-05-01T07:31:54.519Z</time></trkpt><trkpt lat="42.4293516" lon="14.2359613"><ele>152.79999999999998</ele><time>2026-05-01T07:31:55.519Z</time></trkpt><trkpt lat="42.4293163" lon="14.2358409"><ele>153.2</ele><time>2026-05-01T07:31:56.519Z</time></trkpt><trkpt lat="42.4292936" lon="14.2356759"><ele>153.6</ele><time>2026-05-01T07:31:57.519Z</time></trkpt><trkpt lat="42.4292732" lon="14.2355"><ele>154.0</ele><time>2026-05-01T07:31:58.518Z</time></trkpt><trkpt lat="42.4292599" lon="14.2353173"><ele>154.0</ele><time>2026-05-01T07:31:59.52Z</time></trkpt><trkpt lat="42.4292525" lon="14.2351326"><ele>154.0</ele><time>2026-05-01T07:32:00.519Z</time></trkpt><trkpt lat="42.4292368" lon="14.2349441"><ele>154.0</ele><time>2026-05-01T07:32:01.519Z</time></trkpt><trkpt lat="42.4292277" lon="14.2347636"><ele>154.0</ele><time>2026-05-01T07:32:02.519Z</time></trkpt><trkpt lat="42.4292098" lon="14.2345994"><ele>154.0</ele><time>2026-05-01T07:32:03.519Z</time></trkpt><trkpt lat="42.4291851" lon="14.2344523"><ele>154.0</ele><time>2026-05-01T07:32:04.519Z</time></trkpt><trkpt lat="42.4291506" lon="14.2343197"><ele>154.0</ele><time>2026-05-01T07:32:05.519Z</time></trkpt><trkpt lat="42.4290979" lon="14.2342094"><ele>154.0</ele><time>2026-05-01T07:32:06.519Z</time></trkpt><trkpt lat="42.4290202" lon="14.2341188"><ele>154.0</ele><time>2026-05-01T07:32:07.519Z</time></trkpt><trkpt lat="42.4289295" lon="14.2340318"><ele>153.5</ele><time>2026-05-01T07:32:08.519Z</time></trkpt><trkpt lat="42.4287956" lon="14.2339686"><ele>153.0</ele><time>2026-05-01T07:32:09.519Z</time></trkpt><trkpt lat="42.4286672" lon="14.2339044"><ele>152.5</ele><time>2026-05-01T07:32:10.519Z</time></trkpt><trkpt lat="42.4285409" lon="14.2338443"><ele>152.0</ele><time>2026-05-01T07:32:11.519Z</time></trkpt><trkpt lat="42.4284025" lon="14.2337817"><ele>152.0</ele><time>2026-05-01T07:32:12.52Z</time></trkpt><trkpt lat="42.4282689" lon="14.2337177"><ele>152.0</ele><time>2026-05-01T07:32:13.52Z</time></trkpt><trkpt lat="42.4281355" lon="14.2336605"><ele>152.0</ele><time>2026-05-01T07:32:14.519Z</time></trkpt><trkpt lat="42.4279999" lon="14.2335978"><ele>152.0</ele><time>2026-05-01T07:32:15.52Z</time></trkpt><trkpt lat="42.4278741" lon="14.2335352"><ele>152.0</ele><time>2026-05-01T07:32:16.518Z</time></trkpt><trkpt lat="42.4277544" lon="14.2334739"><ele>152.0</ele><time>2026-05-01T07:32:17.519Z</time></trkpt><trkpt lat="42.4276429" lon="14.2334162"><ele>152.0</ele><time>2026-05-01T07:32:18.52Z</time></trkpt><trkpt lat="42.427534" lon="14.2333578"><ele>152.0</ele><time>2026-05-01T07:32:19.52Z</time></trkpt><trkpt lat="42.4274269" lon="14.23329"><ele>152.0</ele><time>2026-05-01T07:32:20.52Z</time></trkpt><trkpt lat="42.4273291" lon="14.2332115"><ele>152.0</ele><time>2026-05-01T07:32:21.519Z</time></trkpt><trkpt lat="42.4272336" lon="14.2331291"><ele>152.0</ele><time>2026-05-01T07:32:22.518Z</time></trkpt><trkpt lat="42.4271415" lon="14.2330274"><ele>152.0</ele><time>2026-05-01T07:32:23.518Z</time></trkpt><trkpt lat="42.4270506" lon="14.2329028"><ele>151.5</ele><time>2026-05-01T07:32:24.519Z</time></trkpt><trkpt lat="42.4269614" lon="14.2327694"><ele>151.0</ele><time>2026-05-01T07:32:25.519Z</time></trkpt><trkpt lat="42.4268548" lon="14.2326359"><ele>150.5</ele><time>2026-05-01T07:32:26.519Z</time></trkpt><trkpt lat="42.4267403" lon="14.2325154"><ele>150.0</ele><time>2026-05-01T07:32:27.518Z</time></trkpt><trkpt lat="42.4266093" lon="14.2324118"><ele>150.0</ele><time>2026-05-01T07:32:28.519Z</time></trkpt><trkpt lat="42.4264618" lon="14.2323211"><ele>150.0</ele><time>2026-05-01T07:32:29.519Z</time></trkpt><trkpt lat="42.4262978" lon="14.232237"><ele>150.0</ele><time>2026-05-01T07:32:30.518Z</time></trkpt><trkpt lat="42.4261417" lon="14.2321555"><ele>148.66666666666666</ele><time>2026-05-01T07:32:31.519Z</time></trkpt><trkpt lat="42.4259904" lon="14.2320807"><ele>147.33333333333331</ele><time>2026-05-01T07:32:32.519Z</time></trkpt><trkpt lat="42.4258538" lon="14.2320035"><ele>146.0</ele><time>2026-05-01T07:32:33.518Z</time></trkpt><trkpt lat="42.4257202" lon="14.2319332"><ele>146.0</ele><time>2026-05-01T07:32:34.519Z</time></trkpt><trkpt lat="42.4256013" lon="14.2318648"><ele>146.0</ele><time>2026-05-01T07:32:35.52Z</time></trkpt><trkpt lat="42.4254901" lon="14.2318078"><ele>146.0</ele><time>2026-05-01T07:32:36.518Z</time></trkpt><trkpt lat="42.4253817" lon="14.2317616"><ele>146.0</ele><time>2026-05-01T07:32:37.52Z</time></trkpt><trkpt lat="42.4252702" lon="14.2317399"><ele>148.75</ele><time>2026-05-01T07:32:38.518Z</time></trkpt><trkpt lat="42.425159" lon="14.2317479"><ele>151.5</ele><time>2026-05-01T07:32:39.519Z</time></trkpt><trkpt lat="42.4250509" lon="14.231794"><ele>154.25</ele><time>2026-05-01T07:32:40.518Z</time></trkpt><trkpt lat="42.4249396" lon="14.2318567"><ele>157.0</ele><time>2026-05-01T07:32:41.519Z</time></trkpt><trkpt lat="42.424848" lon="14.231952"><ele>157.0</ele><time>2026-05-01T07:32:42.518Z</time></trkpt><trkpt lat="42.424756" lon="14.2320171"><ele>157.0</ele><time>2026-05-01T07:32:43.519Z</time></trkpt><trkpt lat="42.4246535" lon="14.2320575"><ele>157.0</ele><time>2026-05-01T07:32:44.518Z</time></trkpt><trkpt lat="42.4245445" lon="14.2320781"><ele>157.0</ele><time>2026-05-01T07:32:45.519Z</time></trkpt><trkpt lat="42.4244276" lon="14.2320843"><ele>157.0</ele><time>2026-05-01T07:32:46.518Z</time></trkpt><trkpt lat="42.4243032" lon="14.2320654"><ele>158.25</ele><time>2026-05-01T07:32:47.52Z</time></trkpt><trkpt lat="42.4241797" lon="14.2320443"><ele>159.5</ele><time>2026-05-01T07:32:48.519Z</time></trkpt><trkpt lat="42.4240575" lon="14.2320156"><ele>160.75</ele><time>2026-05-01T07:32:49.52Z</time></trkpt><trkpt lat="42.423936" lon="14.2319731"><ele>162.0</ele><time>2026-05-01T07:32:50.519Z</time></trkpt><trkpt lat="42.4238197" lon="14.23192"><ele>162.25</ele><time>2026-05-01T07:32:51.519Z</time></trkpt><trkpt lat="42.4237067" lon="14.231866"><ele>162.5</ele><time>2026-05-01T07:32:52.519Z</time></trkpt><trkpt lat="42.423588" lon="14.231819"><ele>162.75</ele><time>2026-05-01T07:32:53.519Z</time></trkpt><trkpt lat="42.4234673" lon="14.2317532"><ele>163.0</ele><time>2026-05-01T07:32:54.519Z</time></trkpt><trkpt lat="42.4233453" lon="14.2316933"><ele>163.0</ele><time>2026-05-01T07:32:55.518Z</time></trkpt><trkpt lat="42.4232161" lon="14.2316289"><ele>163.0</ele><time>2026-05-01T07:32:56.518Z</time></trkpt><trkpt lat="42.4230775" lon="14.2315754"><ele>163.0</ele><time>2026-05-01T07:32:57.519Z</time></trkpt><trkpt lat="42.4229337" lon="14.2315051"><ele>163.0</ele><time>2026-05-01T07:32:58.519Z</time></trkpt><trkpt lat="42.4227809" lon="14.2314527"><ele>163.0</ele><time>2026-05-01T07:32:59.519Z</time></trkpt><trkpt lat="42.4226172" lon="14.2314094"><ele>163.0</ele><time>2026-05-01T07:33:00.519Z</time></trkpt><trkpt lat="42.4224529" lon="14.2313709"><ele>163.0</ele><time>2026-05-01T07:33:01.518Z</time></trkpt><trkpt lat="42.4222885" lon="14.231329"><ele>165.0</ele><time>2026-05-01T07:33:02.519Z</time></trkpt><trkpt lat="42.4221284" lon="14.2312939"><ele>167.0</ele><time>2026-05-01T07:33:03.518Z</time></trkpt><trkpt lat="42.4219744" lon="14.2312592"><ele>169.0</ele><time>2026-05-01T07:33:04.519Z</time></trkpt><trkpt lat="42.4218335" lon="14.2312271"><ele>169.0</ele><time>2026-05-01T07:33:05.519Z</time></trkpt><trkpt lat="42.4216958" lon="14.231198"><ele>169.0</ele><time>2026-05-01T07:33:06.519Z</time></trkpt><trkpt lat="42.4215625" lon="14.231161"><ele>169.0</ele><time>2026-05-01T07:33:07.519Z</time></trkpt><trkpt lat="42.4214243" lon="14.2311215"><ele>169.0</ele><time>2026-05-01T07:33:08.518Z</time></trkpt><trkpt lat="42.4212907" lon="14.2310636"><ele>167.75</ele><time>2026-05-01T07:33:09.52Z</time></trkpt><trkpt lat="42.4211567" lon="14.2310077"><ele>166.5</ele><time>2026-05-01T07:33:10.519Z</time></trkpt><trkpt lat="42.4210184" lon="14.2309607"><ele>165.25</ele><time>2026-05-01T07:33:11.518Z</time></trkpt><trkpt lat="42.4208865" lon="14.2308953"><ele>164.0</ele><time>2026-05-01T07:33:12.519Z</time></trkpt><trkpt lat="42.4207538" lon="14.2308341"><ele>164.0</ele><time>2026-05-01T07:33:13.519Z</time></trkpt><trkpt lat="42.4206214" lon="14.2307721"><ele>164.0</ele><time>2026-05-01T07:33:14.518Z</time></trkpt><trkpt lat="42.4204841" lon="14.2307115"><ele>164.0</ele><time>2026-05-01T07:33:15.518Z</time></trkpt><trkpt lat="42.4203477" lon="14.2306542"><ele>164.0</ele><time>2026-05-01T07:33:16.52Z</time></trkpt><trkpt lat="42.4202092" lon="14.2306071"><ele>161.75</ele><time>2026-05-01T07:33:17.519Z</time></trkpt><trkpt lat="42.4200699" lon="14.2305718"><ele>159.5</ele><time>2026-05-01T07:33:18.519Z</time></trkpt><trkpt lat="42.4199338" lon="14.2305522"><ele>157.25</ele><time>2026-05-01T07:33:19.519Z</time></trkpt><trkpt lat="42.419787" lon="14.2305418"><ele>155.0</ele><time>2026-05-01T07:33:20.518Z</time></trkpt><trkpt lat="42.4196381" lon="14.2305363"><ele>155.0</ele><time>2026-05-01T07:33:21.518Z</time></trkpt><trkpt lat="42.4194799" lon="14.2305285"><ele>155.0</ele><time>2026-05-01T07:33:22.518Z</time></trkpt><trkpt lat="42.419321" lon="14.230522"><ele>155.0</ele><time>2026-05-01T07:33:23.519Z</time></trkpt><trkpt lat="42.4191583" lon="14.2305174"><ele>155.0</ele><time>2026-05-01T07:33:24.519Z</time></trkpt><trkpt lat="42.4189989" lon="14.2305176"><ele>155.0</ele><time>2026-05-01T07:33:25.519Z</time></trkpt><trkpt lat="42.4188332" lon="14.2305117"><ele>155.0</ele><time>2026-05-01T07:33:26.519Z</time></trkpt><trkpt lat="42.4186693" lon="14.2305016"><ele>153.66666666666666</ele><time>2026-05-01T07:33:27.519Z</time></trkpt><trkpt lat="42.4185038" lon="14.2304969"><ele>152.33333333333334</ele><time>2026-05-01T07:33:28.52Z</time></trkpt><trkpt lat="42.4183387" lon="14.2304887"><ele>151.0</ele><time>2026-05-01T07:33:29.519Z</time></trkpt><trkpt lat="42.4181846" lon="14.2304814"><ele>151.0</ele><time>2026-05-01T07:33:30.519Z</time></trkpt><trkpt lat="42.4180257" lon="14.2304732"><ele>151.0</ele><time>2026-05-01T07:33:31.519Z</time></trkpt><trkpt lat="42.4178717" lon="14.2304674"><ele>151.0</ele><time>2026-05-01T07:33:32.518Z</time></trkpt><trkpt lat="42.4177237" lon="14.2304624"><ele>153.0</ele><time>2026-05-01T07:33:33.52Z</time></trkpt><trkpt lat="42.4175822" lon="14.2304476"><ele>155.0</ele><time>2026-05-01T07:33:34.518Z</time></trkpt><trkpt lat="42.4174458" lon="14.2304395"><ele>157.0</ele><time>2026-05-01T07:33:35.518Z</time></trkpt><trkpt lat="42.4173236" lon="14.2304375"><ele>159.0</ele><time>2026-05-01T07:33:36.518Z</time></trkpt><trkpt lat="42.417212" lon="14.2304362"><ele>159.66666666666666</ele><time>2026-05-01T07:33:37.519Z</time></trkpt><trkpt lat="42.4171204" lon="14.2304349"><ele>160.33333333333334</ele><time>2026-05-01T07:33:38.519Z</time></trkpt><trkpt lat="42.4170417" lon="14.230438"><ele>161.0</ele><time>2026-05-01T07:33:39.519Z</time></trkpt><trkpt lat="42.4169706" lon="14.230449"><ele>161.66666666666669</ele><time>2026-05-01T07:33:40.519Z</time></trkpt><trkpt lat="42.4169123" lon="14.2304817"><ele>162.33333333333334</ele><time>2026-05-01T07:33:41.519Z</time></trkpt><trkpt lat="42.416838" lon="14.230578"><ele>163.0</ele><time>2026-05-01T07:33:43.518Z</time></trkpt><trkpt lat="42.4168013" lon="14.2306731"><ele>164.0</ele><time>2026-05-01T07:33:45.518Z</time></trkpt><trkpt lat="42.4168124" lon="14.230811"><ele>165.0</ele><time>2026-05-01T07:33:47.52Z</time></trkpt><trkpt lat="42.4168501" lon="14.2309078"><ele>166.0</ele><time>2026-05-01T07:33:48.519Z</time></trkpt><trkpt lat="42.4169062" lon="14.2310151"><ele>167.0</ele><time>2026-05-01T07:33:49.519Z</time></trkpt><trkpt lat="42.4169638" lon="14.2311259"><ele>168.0</ele><time>2026-05-01T07:33:50.519Z</time></trkpt><trkpt lat="42.4170299" lon="14.2312492"><ele>168.0</ele><time>2026-05-01T07:33:51.519Z</time></trkpt><trkpt lat="42.4171002" lon="14.2313879"><ele>168.0</ele><time>2026-05-01T07:33:52.52Z</time></trkpt><trkpt lat="42.4171717" lon="14.2315512"><ele>168.0</ele><time>2026-05-01T07:33:53.519Z</time></trkpt><trkpt lat="42.4172518" lon="14.2317306"><ele>168.0</ele><time>2026-05-01T07:33:54.52Z</time></trkpt><trkpt lat="42.4173362" lon="14.2319302"><ele>167.66666666666666</ele><time>2026-05-01T07:33:55.518Z</time></trkpt><trkpt lat="42.4174304" lon="14.2321507"><ele>167.33333333333331</ele><time>2026-05-01T07:33:56.519Z</time></trkpt><trkpt lat="42.4175384" lon="14.2323927"><ele>167.0</ele><time>2026-05-01T07:33:57.519Z</time></trkpt><trkpt lat="42.4176445" lon="14.2326421"><ele>166.0</ele><time>2026-05-01T07:33:58.52Z</time></trkpt><trkpt lat="42.4177611" lon="14.2329142"><ele>165.0</ele><time>2026-05-01T07:33:59.52Z</time></trkpt><trkpt lat="42.4178687" lon="14.233175"><ele>165.0</ele><time>2026-05-01T07:34:00.518Z</time></trkpt><trkpt lat="42.4179632" lon="14.2334099"><ele>165.0</ele><time>2026-05-01T07:34:01.518Z</time></trkpt><trkpt lat="42.4180573" lon="14.2336349"><ele>165.0</ele><time>2026-05-01T07:34:02.519Z</time></trkpt><trkpt lat="42.4181492" lon="14.2338645"><ele>164.66666666666666</ele><time>2026-05-01T07:34:03.519Z</time></trkpt><trkpt lat="42.4182316" lon="14.2340812"><ele>164.33333333333331</ele><time>2026-05-01T07:34:04.519Z</time></trkpt><trkpt lat="42.4183232" lon="14.2342918"><ele>164.0</ele><time>2026-05-01T07:34:05.519Z</time></trkpt><trkpt lat="42.4184183" lon="14.2345119"><ele>164.0</ele><time>2026-05-01T07:34:06.519Z</time></trkpt><trkpt lat="42.4185065" lon="14.2347315"><ele>164.0</ele><time>2026-05-01T07:34:07.519Z</time></trkpt><trkpt lat="42.4185978" lon="14.2349512"><ele>164.0</ele><time>2026-05-01T07:34:08.518Z</time></trkpt><trkpt lat="42.4186858" lon="14.2351703"><ele>163.0</ele><time>2026-05-01T07:34:09.519Z</time></trkpt><trkpt lat="42.4187694" lon="14.2353879"><ele>162.0</ele><time>2026-05-01T07:34:10.519Z</time></trkpt><trkpt lat="42.418855" lon="14.235601"><ele>161.0</ele><time>2026-05-01T07:34:11.519Z</time></trkpt><trkpt lat="42.4189388" lon="14.2358118"><ele>160.66666666666666</ele><time>2026-05-01T07:34:12.52Z</time></trkpt><trkpt lat="42.4190184" lon="14.2360181"><ele>160.33333333333334</ele><time>2026-05-01T07:34:13.519Z</time></trkpt><trkpt lat="42.4190903" lon="14.2362254"><ele>160.0</ele><time>2026-05-01T07:34:14.52Z</time></trkpt><trkpt lat="42.4191579" lon="14.2364318"><ele>158.66666666666669</ele><time>2026-05-01T07:34:15.519Z</time></trkpt><trkpt lat="42.4192237" lon="14.2366427"><ele>157.33333333333334</ele><time>2026-05-01T07:34:16.518Z</time></trkpt><trkpt lat="42.4192854" lon="14.2368505"><ele>156.0</ele><time>2026-05-01T07:34:17.517Z</time></trkpt><trkpt lat="42.4193414" lon="14.2370524"><ele>156.0</ele><time>2026-05-01T07:34:18.519Z</time></trkpt><trkpt lat="42.4193954" lon="14.2372547"><ele>156.0</ele><time>2026-05-01T07:34:19.518Z</time></trkpt><trkpt lat="42.419449" lon="14.2374531"><ele>156.0</ele><time>2026-05-01T07:34:20.518Z</time></trkpt><trkpt lat="42.4195043" lon="14.2376487"><ele>155.0</ele><time>2026-05-01T07:34:21.518Z</time></trkpt><trkpt lat="42.419559" lon="14.2378425"><ele>154.0</ele><time>2026-05-01T07:34:22.518Z</time></trkpt><trkpt lat="42.4196061" lon="14.2380404"><ele>153.0</ele><time>2026-05-01T07:34:23.518Z</time></trkpt><trkpt lat="42.4196587" lon="14.2382279"><ele>153.0</ele><time>2026-05-01T07:34:24.518Z</time></trkpt><trkpt lat="42.4197182" lon="14.2383983"><ele>153.0</ele><time>2026-05-01T07:34:25.519Z</time></trkpt><trkpt lat="42.4197904" lon="14.2385466"><ele>153.0</ele><time>2026-05-01T07:34:26.518Z</time></trkpt><trkpt lat="42.4198806" lon="14.2386799"><ele>153.0</ele><time>2026-05-01T07:34:27.519Z</time></trkpt><trkpt lat="42.4199839" lon="14.2388105"><ele>153.0</ele><time>2026-05-01T07:34:28.518Z</time></trkpt><trkpt lat="42.4200872" lon="14.238949"><ele>153.0</ele><time>2026-05-01T07:34:29.518Z</time></trkpt><trkpt lat="42.4201835" lon="14.2391193"><ele>153.0</ele><time>2026-05-01T07:34:30.517Z</time></trkpt><trkpt lat="42.4202816" lon="14.2392771"><ele>151.66666666666666</ele><time>2026-05-01T07:34:31.517Z</time></trkpt><trkpt lat="42.4203582" lon="14.2394925"><ele>150.33333333333331</ele><time>2026-05-01T07:34:32.518Z</time></trkpt><trkpt lat="42.4204423" lon="14.2396939"><ele>149.0</ele><time>2026-05-01T07:34:33.518Z</time></trkpt><trkpt lat="42.42052" lon="14.23989"><ele>149.0</ele><time>2026-05-01T07:34:34.518Z</time></trkpt><trkpt lat="42.4206008" lon="14.240088"><ele>149.0</ele><time>2026-05-01T07:34:35.517Z</time></trkpt><trkpt lat="42.4206628" lon="14.2402984"><ele>149.0</ele><time>2026-05-01T07:34:36.517Z</time></trkpt><trkpt lat="42.420731" lon="14.240506"><ele>147.0</ele><time>2026-05-01T07:34:37.518Z</time></trkpt><trkpt lat="42.4207661" lon="14.2407295"><ele>145.0</ele><time>2026-05-01T07:34:38.519Z</time></trkpt><trkpt lat="42.4208285" lon="14.2409243"><ele>143.0</ele><time>2026-05-01T07:34:39.518Z</time></trkpt><trkpt lat="42.4208668" lon="14.2411171"><ele>143.0</ele><time>2026-05-01T07:34:40.518Z</time></trkpt><trkpt lat="42.4209088" lon="14.2413098"><ele>143.0</ele><time>2026-05-01T07:34:41.519Z</time></trkpt><trkpt lat="42.4209524" lon="14.2414873"><ele>143.0</ele><time>2026-05-01T07:34:42.517Z</time></trkpt><trkpt lat="42.4209972" lon="14.241656"><ele>143.0</ele><time>2026-05-01T07:34:43.517Z</time></trkpt><trkpt lat="42.4210269" lon="14.2418289"><ele>141.25</ele><time>2026-05-01T07:34:44.517Z</time></trkpt><trkpt lat="42.4210414" lon="14.2420024"><ele>139.5</ele><time>2026-05-01T07:34:45.518Z</time></trkpt><trkpt lat="42.4210336" lon="14.2421721"><ele>137.75</ele><time>2026-05-01T07:34:46.518Z</time></trkpt><trkpt lat="42.4210007" lon="14.2423287"><ele>136.0</ele><time>2026-05-01T07:34:47.518Z</time></trkpt><trkpt lat="42.4209338" lon="14.2424639"><ele>135.0</ele><time>2026-05-01T07:34:48.519Z</time></trkpt><trkpt lat="42.4208508" lon="14.2425741"><ele>134.0</ele><time>2026-05-01T07:34:49.517Z</time></trkpt><trkpt lat="42.4207386" lon="14.2426624"><ele>133.0</ele><time>2026-05-01T07:34:50.518Z</time></trkpt><trkpt lat="42.4206255" lon="14.2427498"><ele>132.0</ele><time>2026-05-01T07:34:51.518Z</time></trkpt><trkpt lat="42.4205278" lon="14.2428725"><ele>128.33333333333334</ele><time>2026-05-01T07:34:52.519Z</time></trkpt><trkpt lat="42.4204444" lon="14.2430298"><ele>124.66666666666667</ele><time>2026-05-01T07:34:53.518Z</time></trkpt><trkpt lat="42.4203729" lon="14.2432108"><ele>121.0</ele><time>2026-05-01T07:34:54.517Z</time></trkpt><trkpt lat="42.4203025" lon="14.2434131"><ele>119.66666666666667</ele><time>2026-05-01T07:34:55.518Z</time></trkpt><trkpt lat="42.4202328" lon="14.2436175"><ele>118.33333333333334</ele><time>2026-05-01T07:34:56.518Z</time></trkpt><trkpt lat="42.4201722" lon="14.2438204"><ele>117.0</ele><time>2026-05-01T07:34:57.518Z</time></trkpt><trkpt lat="42.4201146" lon="14.2440206"><ele>116.33333333333334</ele><time>2026-05-01T07:34:58.518Z</time></trkpt><trkpt lat="42.4200731" lon="14.2442277"><ele>115.66666666666667</ele><time>2026-05-01T07:34:59.517Z</time></trkpt><trkpt lat="42.4200429" lon="14.2444582"><ele>115.0</ele><time>2026-05-01T07:35:00.517Z</time></trkpt><trkpt lat="42.4200217" lon="14.2447072"><ele>115.33333333333334</ele><time>2026-05-01T07:35:01.518Z</time></trkpt><trkpt lat="42.4200041" lon="14.244972"><ele>115.66666666666666</ele><time>2026-05-01T07:35:02.518Z</time></trkpt><trkpt lat="42.4199922" lon="14.2452432"><ele>116.0</ele><time>2026-05-01T07:35:03.518Z</time></trkpt><trkpt lat="42.4199773" lon="14.2455117"><ele>115.33333333333333</ele><time>2026-05-01T07:35:04.518Z</time></trkpt><trkpt lat="42.4199631" lon="14.2457709"><ele>114.66666666666666</ele><time>2026-05-01T07:35:05.519Z</time></trkpt><trkpt lat="42.4199494" lon="14.2460189"><ele>114.0</ele><time>2026-05-01T07:35:06.518Z</time></trkpt><trkpt lat="42.4199399" lon="14.2462532"><ele>114.33333333333334</ele><time>2026-05-01T07:35:07.517Z</time></trkpt><trkpt lat="42.4199272" lon="14.2464834"><ele>114.66666666666667</ele><time>2026-05-01T07:35:08.518Z</time></trkpt><trkpt lat="42.4199178" lon="14.2467085"><ele>115.0</ele><time>2026-05-01T07:35:09.518Z</time></trkpt><trkpt lat="42.4199195" lon="14.2469334"><ele>115.0</ele><time>2026-05-01T07:35:10.517Z</time></trkpt><trkpt lat="42.4199226" lon="14.2471686"><ele>115.0</ele><time>2026-05-01T07:35:11.517Z</time></trkpt><trkpt lat="42.4199381" lon="14.2474002"><ele>115.0</ele><time>2026-05-01T07:35:12.517Z</time></trkpt><trkpt lat="42.419961" lon="14.2476131"><ele>114.0</ele><time>2026-05-01T07:35:13.518Z</time></trkpt><trkpt lat="42.419986" lon="14.2478035"><ele>113.0</ele><time>2026-05-01T07:35:14.518Z</time></trkpt><trkpt lat="42.4200129" lon="14.2479735"><ele>112.0</ele><time>2026-05-01T07:35:15.518Z</time></trkpt><trkpt lat="42.4200458" lon="14.2481181"><ele>111.0</ele><time>2026-05-01T07:35:16.518Z</time></trkpt><trkpt lat="42.4200708" lon="14.2482717"><ele>110.0</ele><time>2026-05-01T07:35:17.519Z</time></trkpt><trkpt lat="42.4200943" lon="14.2483929"><ele>109.0</ele><time>2026-05-01T07:35:18.518Z</time></trkpt><trkpt lat="42.4201169" lon="14.2485134"><ele>108.0</ele><time>2026-05-01T07:35:19.518Z</time></trkpt><trkpt lat="42.4201409" lon="14.2486133"><ele>107.0</ele><time>2026-05-01T07:35:20.518Z</time></trkpt><trkpt lat="42.4201551" lon="14.2486978"><ele>106.0</ele><time>2026-05-01T07:35:21.518Z</time></trkpt><trkpt lat="42.4201687" lon="14.2488241"><ele>105.0</ele><time>2026-05-01T07:35:23.517Z</time></trkpt><trkpt lat="42.4201144" lon="14.2489355"><ele>103.8</ele><time>2026-05-01T07:35:25.518Z</time></trkpt><trkpt lat="42.4200597" lon="14.2489795"><ele>102.6</ele><time>2026-05-01T07:35:26.517Z</time></trkpt><trkpt lat="42.4200055" lon="14.2490286"><ele>101.4</ele><time>2026-05-01T07:35:27.517Z</time></trkpt><trkpt lat="42.419886" lon="14.249128"><ele>100.2</ele><time>2026-05-01T07:35:29.518Z</time></trkpt><trkpt lat="42.4198239" lon="14.2491847"><ele>99.0</ele><time>2026-05-01T07:35:30.518Z</time></trkpt><trkpt lat="42.4197369" lon="14.2492718"><ele>99.0</ele><time>2026-05-01T07:35:32.518Z</time></trkpt><trkpt lat="42.4196662" lon="14.2493364"><ele>99.0</ele><time>2026-05-01T07:35:34.517Z</time></trkpt><trkpt lat="42.4195748" lon="14.2493386"><ele>99.0</ele><time>2026-05-01T07:35:36.518Z</time></trkpt><trkpt lat="42.4195112" lon="14.249314"><ele>99.0</ele><time>2026-05-01T07:35:37.518Z</time></trkpt><trkpt lat="42.4194408" lon="14.2492851"><ele>99.0</ele><time>2026-05-01T07:35:38.519Z</time></trkpt><trkpt lat="42.4193726" lon="14.249266"><ele>99.0</ele><time>2026-05-01T07:35:39.518Z</time></trkpt><trkpt lat="42.4192921" lon="14.2492078"><ele>96.5</ele><time>2026-05-01T07:35:40.518Z</time></trkpt><trkpt lat="42.4192162" lon="14.2491633"><ele>94.0</ele><time>2026-05-01T07:35:41.518Z</time></trkpt><trkpt lat="42.419129" lon="14.2491491"><ele>91.5</ele><time>2026-05-01T07:35:42.518Z</time></trkpt><trkpt lat="42.4190478" lon="14.2491301"><ele>89.0</ele><time>2026-05-01T07:35:43.518Z</time></trkpt><trkpt lat="42.4189648" lon="14.2491049"><ele>86.5</ele><time>2026-05-01T07:35:44.518Z</time></trkpt><trkpt lat="42.4188838" lon="14.2490913"><ele>84.0</ele><time>2026-05-01T07:35:45.517Z</time></trkpt><trkpt lat="42.4188132" lon="14.2490716"><ele>81.2</ele><time>2026-05-01T07:35:46.518Z</time></trkpt><trkpt lat="42.4187441" lon="14.2490556"><ele>78.4</ele><time>2026-05-01T07:35:47.519Z</time></trkpt><trkpt lat="42.4186711" lon="14.2490369"><ele>75.6</ele><time>2026-05-01T07:35:48.518Z</time></trkpt><trkpt lat="42.4186011" lon="14.2490156"><ele>72.8</ele><time>2026-05-01T07:35:49.518Z</time></trkpt><trkpt lat="42.4184813" lon="14.2489791"><ele>70.0</ele><time>2026-05-01T07:35:51.518Z</time></trkpt><trkpt lat="42.4183645" lon="14.2489491"><ele>53.0</ele><time>2026-05-01T07:35:53.518Z</time></trkpt><trkpt lat="42.4178493" lon="14.2488621"><ele>53.00000000000001</ele><time>2026-05-01T07:35:58.518Z</time></trkpt><trkpt lat="42.4178608" lon="14.2487779"><ele>53.0</ele><time>2026-05-01T07:36:00.518Z</time></trkpt><trkpt lat="42.4177975" lon="14.2487156"><ele>53.0</ele><time>2026-05-01T07:36:02.517Z</time></trkpt><trkpt lat="42.417698" lon="14.248668"><ele>53.0</ele><time>2026-05-01T07:36:04.518Z</time></trkpt><trkpt lat="42.4176038" lon="14.2486201"><ele>53.00000000000001</ele><time>2026-05-01T07:36:06.518Z</time></trkpt><trkpt lat="42.4175155" lon="14.2485603"><ele>53.0</ele><time>2026-05-01T07:36:08.519Z</time></trkpt><trkpt lat="42.4174211" lon="14.2485323"><ele>53.00000000000001</ele><time>2026-05-01T07:36:10.518Z</time></trkpt><trkpt lat="42.4173523" lon="14.2484841"><ele>53.0</ele><time>2026-05-01T07:36:12.518Z</time></trkpt><trkpt lat="42.4172976" lon="14.2484152"><ele>53.0</ele><time>2026-05-01T07:36:14.518Z</time></trkpt><trkpt lat="42.417259" lon="14.2482692"><ele>53.0</ele><time>2026-05-01T07:36:16.518Z</time></trkpt><trkpt lat="42.4172498" lon="14.2481642"><ele>53.00000000000001</ele><time>2026-05-01T07:36:17.518Z</time></trkpt><trkpt lat="42.4172567" lon="14.2480424"><ele>53.0</ele><time>2026-05-01T07:36:18.518Z</time></trkpt><trkpt lat="42.4172605" lon="14.2479369"><ele>53.16666666666667</ele><time>2026-05-01T07:36:19.518Z</time></trkpt><trkpt lat="42.4172516" lon="14.2477888"><ele>53.333333333333336</ele><time>2026-05-01T07:36:21.518Z</time></trkpt><trkpt lat="42.4172558" lon="14.2476761"><ele>53.5</ele><time>2026-05-01T07:36:22.518Z</time></trkpt><trkpt lat="42.417258" lon="14.2475509"><ele>53.66666666666667</ele><time>2026-05-01T07:36:23.517Z</time></trkpt><trkpt lat="42.4172444" lon="14.2474397"><ele>53.833333333333336</ele><time>2026-05-01T07:36:24.517Z</time></trkpt><trkpt lat="42.4172299" lon="14.2473379"><ele>54.0</ele><time>2026-05-01T07:36:26.517Z</time></trkpt><trkpt lat="42.4172376" lon="14.2472427"><ele>54.0</ele><time>2026-05-01T07:36:29.518Z</time></trkpt><trkpt lat="42.4172174" lon="14.2473475"><ele>54.00000000000001</ele><time>2026-05-01T07:36:35.518Z</time></trkpt><trkpt lat="42.4172482" lon="14.2474588"><ele>54.00000000000001</ele><time>2026-05-01T07:36:37.519Z</time></trkpt><trkpt lat="42.4172458" lon="14.2475784"><ele>54.0</ele><time>2026-05-01T07:36:39.517Z</time></trkpt><trkpt lat="42.4172426" lon="14.247724"><ele>54.0</ele><time>2026-05-01T07:36:41.518Z</time></trkpt><trkpt lat="42.4172431" lon="14.2478407"><ele>54.0</ele><time>2026-05-01T07:36:43.517Z</time></trkpt><trkpt lat="42.4172457" lon="14.2479363"><ele>54.00000000000001</ele><time>2026-05-01T07:36:45.517Z</time></trkpt><trkpt lat="42.4171529" lon="14.2479519"><ele>54.00000000000001</ele><time>2026-05-01T07:36:48.518Z</time></trkpt><trkpt lat="42.4170766" lon="14.2479465"><ele>54.0</ele><time>2026-05-01T07:36:49.517Z</time></trkpt><trkpt lat="42.4169762" lon="14.2479053"><ele>54.0</ele><time>2026-05-01T07:36:51.518Z</time></trkpt><trkpt lat="42.4168551" lon="14.2478595"><ele>51.800000000000004</ele><time>2026-05-01T07:36:53.518Z</time></trkpt><trkpt lat="42.416755" lon="14.2478093"><ele>49.60000000000001</ele><time>2026-05-01T07:36:55.517Z</time></trkpt><trkpt lat="42.4166263" lon="14.2478132"><ele>47.4</ele><time>2026-05-01T07:36:57.519Z</time></trkpt><trkpt lat="42.4165331" lon="14.2478204"><ele>45.2</ele><time>2026-05-01T07:36:59.519Z</time></trkpt><trkpt lat="42.4164389" lon="14.2479156"><ele>43.0</ele><time>2026-05-01T07:37:01.518Z</time></trkpt><trkpt lat="42.4163829" lon="14.2479933"><ele>43.0</ele><time>2026-05-01T07:37:02.517Z</time></trkpt><trkpt lat="42.4163223" lon="14.2480812"><ele>43.0</ele><time>2026-05-01T07:37:03.518Z</time></trkpt><trkpt lat="42.4162593" lon="14.2481598"><ele>43.0</ele><time>2026-05-01T07:37:04.518Z</time></trkpt><trkpt lat="42.416198" lon="14.2482216"><ele>43.0</ele><time>2026-05-01T07:37:05.518Z</time></trkpt><trkpt lat="42.4161322" lon="14.2483252"><ele>43.0</ele><time>2026-05-01T07:37:06.519Z</time></trkpt><trkpt lat="42.4160524" lon="14.2484175"><ele>44.833333333333336</ele><time>2026-05-01T07:37:07.518Z</time></trkpt><trkpt lat="42.4159865" lon="14.2484962"><ele>46.66666666666667</ele><time>2026-05-01T07:37:08.519Z</time></trkpt><trkpt lat="42.4159242" lon="14.248576"><ele>48.5</ele><time>2026-05-01T07:37:09.517Z</time></trkpt><trkpt lat="42.4158604" lon="14.24864"><ele>50.333333333333336</ele><time>2026-05-01T07:37:10.518Z</time></trkpt><trkpt lat="42.4157904" lon="14.2487244"><ele>52.166666666666664</ele><time>2026-05-01T07:37:11.519Z</time></trkpt><trkpt lat="42.4157243" lon="14.2487902"><ele>54.0</ele><time>2026-05-01T07:37:12.518Z</time></trkpt><trkpt lat="42.4156518" lon="14.2488583"><ele>54.0</ele><time>2026-05-01T07:37:13.518Z</time></trkpt><trkpt lat="42.4155803" lon="14.248932"><ele>54.00000000000001</ele><time>2026-05-01T07:37:14.518Z</time></trkpt><trkpt lat="42.4154963" lon="14.249018"><ele>54.00000000000001</ele><time>2026-05-01T07:37:15.518Z</time></trkpt><trkpt lat="42.4154187" lon="14.2491285"><ele>54.0</ele><time>2026-05-01T07:37:16.518Z</time></trkpt><trkpt lat="42.41535" lon="14.2492458"><ele>54.0</ele><time>2026-05-01T07:37:17.517Z</time></trkpt><trkpt lat="42.4153051" lon="14.249329"><ele>57.666666666666664</ele><time>2026-05-01T07:37:18.517Z</time></trkpt><trkpt lat="42.4152607" lon="14.2493964"><ele>61.33333333333333</ele><time>2026-05-01T07:37:19.517Z</time></trkpt><trkpt lat="42.4152039" lon="14.2494727"><ele>65.0</ele><time>2026-05-01T07:37:20.517Z</time></trkpt><trkpt lat="42.4151447" lon="14.2495538"><ele>68.66666666666666</ele><time>2026-05-01T07:37:21.517Z</time></trkpt><trkpt lat="42.4150935" lon="14.2496152"><ele>72.33333333333333</ele><time>2026-05-01T07:37:22.517Z</time></trkpt><trkpt lat="42.4150308" lon="14.2496711"><ele>76.0</ele><time>2026-05-01T07:37:23.517Z</time></trkpt><trkpt lat="42.4149525" lon="14.249731"><ele>74.2</ele><time>2026-05-01T07:37:24.518Z</time></trkpt><trkpt lat="42.4148682" lon="14.2497998"><ele>72.39999999999999</ele><time>2026-05-01T07:37:25.518Z</time></trkpt><trkpt lat="42.4147776" lon="14.2498784"><ele>70.6</ele><time>2026-05-01T07:37:26.516Z</time></trkpt><trkpt lat="42.4146925" lon="14.2499557"><ele>68.8</ele><time>2026-05-01T07:37:27.517Z</time></trkpt><trkpt lat="42.4145983" lon="14.2500368"><ele>67.0</ele><time>2026-05-01T07:37:28.516Z</time></trkpt><trkpt lat="42.414513" lon="14.2501171"><ele>70.16666666666666</ele><time>2026-05-01T07:37:29.517Z</time></trkpt><trkpt lat="42.4144254" lon="14.2502021"><ele>73.33333333333333</ele><time>2026-05-01T07:37:30.517Z</time></trkpt><trkpt lat="42.4143736" lon="14.2502538"><ele>76.5</ele><time>2026-05-01T07:37:31.517Z</time></trkpt><trkpt lat="42.4143023" lon="14.2503101"><ele>79.66666666666667</ele><time>2026-05-01T07:37:32.517Z</time></trkpt><trkpt lat="42.4142369" lon="14.2502193"><ele>82.83333333333334</ele><time>2026-05-01T07:37:34.517Z</time></trkpt><trkpt lat="42.4141823" lon="14.2501324"><ele>86.0</ele><time>2026-05-01T07:37:35.517Z</time></trkpt><trkpt lat="42.4141086" lon="14.2500405"><ele>86.0</ele><time>2026-05-01T07:37:36.518Z</time></trkpt><trkpt lat="42.4140253" lon="14.249949"><ele>86.0</ele><time>2026-05-01T07:37:37.517Z</time></trkpt><trkpt lat="42.4139585" lon="14.2498863"><ele>86.0</ele><time>2026-05-01T07:37:38.518Z</time></trkpt><trkpt lat="42.4138812" lon="14.2498333"><ele>86.0</ele><time>2026-05-01T07:37:39.517Z</time></trkpt><trkpt lat="42.4137914" lon="14.2497955"><ele>86.0</ele><time>2026-05-01T07:37:40.516Z</time></trkpt><trkpt lat="42.4137043" lon="14.2497812"><ele>86.5</ele><time>2026-05-01T07:37:41.517Z</time></trkpt><trkpt lat="42.4136172" lon="14.2497774"><ele>87.0</ele><time>2026-05-01T07:37:42.516Z</time></trkpt><trkpt lat="42.4135317" lon="14.2497943"><ele>87.5</ele><time>2026-05-01T07:37:43.518Z</time></trkpt><trkpt lat="42.4134559" lon="14.2498054"><ele>88.0</ele><time>2026-05-01T07:37:44.517Z</time></trkpt><trkpt lat="42.4133872" lon="14.2498163"><ele>88.5</ele><time>2026-05-01T07:37:45.516Z</time></trkpt><trkpt lat="42.4133241" lon="14.2498384"><ele>89.0</ele><time>2026-05-01T07:37:46.517Z</time></trkpt><trkpt lat="42.4132418" lon="14.2498774"><ele>89.0</ele><time>2026-05-01T07:37:48.516Z</time></trkpt><trkpt lat="42.4131781" lon="14.2498349"><ele>89.0</ele><time>2026-05-01T07:38:03.517Z</time></trkpt><trkpt lat="42.413164" lon="14.2496687"><ele>89.0</ele><time>2026-05-01T07:38:05.517Z</time></trkpt><trkpt lat="42.4131514" lon="14.2495524"><ele>89.0</ele><time>2026-05-01T07:38:06.518Z</time></trkpt><trkpt lat="42.4131399" lon="14.2494188"><ele>89.0</ele><time>2026-05-01T07:38:07.517Z</time></trkpt><trkpt lat="42.4131218" lon="14.2492762"><ele>90.25</ele><time>2026-05-01T07:38:08.517Z</time></trkpt><trkpt lat="42.4131021" lon="14.2491214"><ele>91.5</ele><time>2026-05-01T07:38:09.517Z</time></trkpt><trkpt lat="42.4130795" lon="14.2489665"><ele>92.75</ele><time>2026-05-01T07:38:10.517Z</time></trkpt><trkpt lat="42.4130552" lon="14.2488062"><ele>94.0</ele><time>2026-05-01T07:38:11.516Z</time></trkpt><trkpt lat="42.4130286" lon="14.2486417"><ele>94.75</ele><time>2026-05-01T07:38:12.516Z</time></trkpt><trkpt lat="42.4129994" lon="14.2484792"><ele>95.5</ele><time>2026-05-01T07:38:13.518Z</time></trkpt><trkpt lat="42.4129633" lon="14.2483283"><ele>96.25</ele><time>2026-05-01T07:38:14.518Z</time></trkpt><trkpt lat="42.4129365" lon="14.2481614"><ele>97.0</ele><time>2026-05-01T07:38:15.518Z</time></trkpt><trkpt lat="42.4129147" lon="14.2479967"><ele>97.0</ele><time>2026-05-01T07:38:16.518Z</time></trkpt><trkpt lat="42.4128867" lon="14.2478431"><ele>97.0</ele><time>2026-05-01T07:38:17.516Z</time></trkpt><trkpt lat="42.4128667" lon="14.2476885"><ele>97.0</ele><time>2026-05-01T07:38:18.518Z</time></trkpt><trkpt lat="42.4128425" lon="14.2475586"><ele>97.0</ele><time>2026-05-01T07:38:19.516Z</time></trkpt><trkpt lat="42.4128187" lon="14.247437"><ele>97.0</ele><time>2026-05-01T07:38:20.517Z</time></trkpt><trkpt lat="42.412791" lon="14.2473448"><ele>98.8</ele><time>2026-05-01T07:38:21.518Z</time></trkpt><trkpt lat="42.4127726" lon="14.2472105"><ele>100.6</ele><time>2026-05-01T07:38:23.516Z</time></trkpt><trkpt lat="42.4128462" lon="14.2471291"><ele>102.39999999999999</ele><time>2026-05-01T07:38:25.517Z</time></trkpt><trkpt lat="42.4129326" lon="14.2471011"><ele>104.19999999999999</ele><time>2026-05-01T07:38:26.516Z</time></trkpt><trkpt lat="42.4130863" lon="14.2470334"><ele>106.0</ele><time>2026-05-01T07:38:27.517Z</time></trkpt><trkpt lat="42.413202" lon="14.2469616"><ele>106.6</ele><time>2026-05-01T07:38:28.517Z</time></trkpt><trkpt lat="42.4132997" lon="14.2469067"><ele>107.19999999999999</ele><time>2026-05-01T07:38:29.517Z</time></trkpt><trkpt lat="42.4134067" lon="14.24684"><ele>107.80000000000001</ele><time>2026-05-01T07:38:30.517Z</time></trkpt><trkpt lat="42.4134968" lon="14.2467904"><ele>108.4</ele><time>2026-05-01T07:38:31.517Z</time></trkpt><trkpt lat="42.4135736" lon="14.2467467"><ele>109.0</ele><time>2026-05-01T07:38:32.517Z</time></trkpt><trkpt lat="42.4136567" lon="14.2466597"><ele>109.0</ele><time>2026-05-01T07:38:34.517Z</time></trkpt><trkpt lat="42.4137177" lon="14.2464814"><ele>109.0</ele><time>2026-05-01T07:38:36.517Z</time></trkpt><trkpt lat="42.4137464" lon="14.2463703"><ele>109.0</ele><time>2026-05-01T07:38:37.516Z</time></trkpt><trkpt lat="42.4138062" lon="14.2462509"><ele>109.0</ele><time>2026-05-01T07:38:38.518Z</time></trkpt><trkpt lat="42.4138399" lon="14.2461652"><ele>109.0</ele><time>2026-05-01T07:38:39.516Z</time></trkpt><trkpt lat="42.4138709" lon="14.2460546"><ele>106.33333333333334</ele><time>2026-05-01T07:38:40.518Z</time></trkpt><trkpt lat="42.413894" lon="14.2459574"><ele>103.66666666666667</ele><time>2026-05-01T07:38:41.516Z</time></trkpt><trkpt lat="42.4139155" lon="14.24583"><ele>101.0</ele><time>2026-05-01T07:38:42.518Z</time></trkpt><trkpt lat="42.4139338" lon="14.2457154"><ele>98.33333333333334</ele><time>2026-05-01T07:38:43.517Z</time></trkpt><trkpt lat="42.4139305" lon="14.2456134"><ele>95.66666666666667</ele><time>2026-05-01T07:38:44.516Z</time></trkpt><trkpt lat="42.4139219" lon="14.2455192"><ele>93.0</ele><time>2026-05-01T07:38:45.517Z</time></trkpt><trkpt lat="42.4139234" lon="14.2453952"><ele>92.5</ele><time>2026-05-01T07:38:47.516Z</time></trkpt><trkpt lat="42.4139168" lon="14.2452792"><ele>92.0</ele><time>2026-05-01T07:38:54.516Z</time></trkpt><trkpt lat="42.4139274" lon="14.2451891"><ele>91.5</ele><time>2026-05-01T07:38:56.517Z</time></trkpt><trkpt lat="42.4139681" lon="14.2450911"><ele>91.0</ele><time>2026-05-01T07:39:16.518Z</time></trkpt><trkpt lat="42.4139587" lon="14.2450059"><ele>90.5</ele><time>2026-05-01T07:39:20.518Z</time></trkpt><trkpt lat="42.413913" lon="14.2450873"><ele>90.0</ele><time>2026-05-01T07:39:23.517Z</time></trkpt><trkpt lat="42.4139123" lon="14.24519"><ele>90.0</ele><time>2026-05-01T07:39:30.516Z</time></trkpt><trkpt lat="42.4138987" lon="14.2452963"><ele>90.0</ele><time>2026-05-01T07:39:32.518Z</time></trkpt><trkpt lat="42.4139032" lon="14.2454096"><ele>90.0</ele><time>2026-05-01T07:39:34.517Z</time></trkpt><trkpt lat="42.4139328" lon="14.2455481"><ele>90.0</ele><time>2026-05-01T07:39:36.517Z</time></trkpt><trkpt lat="42.4139318" lon="14.2456965"><ele>90.0</ele><time>2026-05-01T07:39:38.518Z</time></trkpt><trkpt lat="42.413925" lon="14.2458418"><ele>90.6</ele><time>2026-05-01T07:39:40.517Z</time></trkpt><trkpt lat="42.4138978" lon="14.2459732"><ele>91.2</ele><time>2026-05-01T07:39:42.516Z</time></trkpt><trkpt lat="42.413863" lon="14.2461004"><ele>91.80000000000001</ele><time>2026-05-01T07:39:44.517Z</time></trkpt><trkpt lat="42.4138118" lon="14.246211"><ele>92.4</ele><time>2026-05-01T07:39:46.517Z</time></trkpt><trkpt lat="42.4138036" lon="14.2460162"><ele>93.0</ele><time>2026-05-01T07:39:50.517Z</time></trkpt><trkpt lat="42.4138049" lon="14.2459267"><ele>96.83333333333333</ele><time>2026-05-01T07:39:51.518Z</time></trkpt><trkpt lat="42.413801" lon="14.245822"><ele>100.66666666666666</ele><time>2026-05-01T07:39:52.517Z</time></trkpt><trkpt lat="42.4137779" lon="14.2457373"><ele>104.5</ele><time>2026-05-01T07:39:53.518Z</time></trkpt><trkpt lat="42.4137617" lon="14.2456374"><ele>108.33333333333333</ele><time>2026-05-01T07:39:54.517Z</time></trkpt><trkpt lat="42.4137219" lon="14.2455385"><ele>112.16666666666666</ele><time>2026-05-01T07:39:55.516Z</time></trkpt><trkpt lat="42.4136904" lon="14.2454394"><ele>116.0</ele><time>2026-05-01T07:39:56.516Z</time></trkpt><trkpt lat="42.4136623" lon="14.2453418"><ele>116.83333333333333</ele><time>2026-05-01T07:39:57.517Z</time></trkpt><trkpt lat="42.4136205" lon="14.2452512"><ele>117.66666666666666</ele><time>2026-05-01T07:39:58.517Z</time></trkpt><trkpt lat="42.413591" lon="14.2451563"><ele>118.5</ele><time>2026-05-01T07:39:59.518Z</time></trkpt><trkpt lat="42.4135509" lon="14.2450797"><ele>119.33333333333334</ele><time>2026-05-01T07:40:00.517Z</time></trkpt><trkpt lat="42.4135307" lon="14.2449839"><ele>120.16666666666667</ele><time>2026-05-01T07:40:02.517Z</time></trkpt><trkpt lat="42.4135357" lon="14.2448387"><ele>121.0</ele><time>2026-05-01T07:40:04.517Z</time></trkpt><trkpt lat="42.4135327" lon="14.2447402"><ele>121.4</ele><time>2026-05-01T07:40:05.517Z</time></trkpt><trkpt lat="42.4135132" lon="14.2446482"><ele>121.8</ele><time>2026-05-01T07:40:06.516Z</time></trkpt><trkpt lat="42.413491" lon="14.2445504"><ele>122.20000000000002</ele><time>2026-05-01T07:40:07.517Z</time></trkpt><trkpt lat="42.4134553" lon="14.2444361"><ele>122.60000000000001</ele><time>2026-05-01T07:40:08.516Z</time></trkpt><trkpt lat="42.4134064" lon="14.2443036"><ele>123.0</ele><time>2026-05-01T07:40:09.517Z</time></trkpt><trkpt lat="42.4133562" lon="14.2441529"><ele>123.0</ele><time>2026-05-01T07:40:10.518Z</time></trkpt><trkpt lat="42.4132942" lon="14.2440166"><ele>123.00000000000001</ele><time>2026-05-01T07:40:11.516Z</time></trkpt><trkpt lat="42.4132282" lon="14.2438802"><ele>123.00000000000001</ele><time>2026-05-01T07:40:12.515Z</time></trkpt><trkpt lat="42.4131768" lon="14.243761"><ele>123.0</ele><time>2026-05-01T07:40:13.517Z</time></trkpt><trkpt lat="42.4131487" lon="14.2436228"><ele>123.0</ele><time>2026-05-01T07:40:14.515Z</time></trkpt><trkpt lat="42.4131193" lon="14.2434372"><ele>121.5</ele><time>2026-05-01T07:40:15.515Z</time></trkpt><trkpt lat="42.413069" lon="14.2432831"><ele>120.0</ele><time>2026-05-01T07:40:16.515Z</time></trkpt><trkpt lat="42.4130813" lon="14.2430792"><ele>118.5</ele><time>2026-05-01T07:40:17.516Z</time></trkpt><trkpt lat="42.4130837" lon="14.242892"><ele>117.0</ele><time>2026-05-01T07:40:18.516Z</time></trkpt><trkpt lat="42.4130736" lon="14.2427363"><ele>115.75</ele><time>2026-05-01T07:40:19.517Z</time></trkpt><trkpt lat="42.4130812" lon="14.2425745"><ele>114.5</ele><time>2026-05-01T07:40:20.516Z</time></trkpt><trkpt lat="42.4130491" lon="14.2424264"><ele>113.25</ele><time>2026-05-01T07:40:21.516Z</time></trkpt><trkpt lat="42.4130161" lon="14.2422598"><ele>112.0</ele><time>2026-05-01T07:40:22.516Z</time></trkpt><trkpt lat="42.4129204" lon="14.2420824"><ele>113.5</ele><time>2026-05-01T07:40:23.516Z</time></trkpt><trkpt lat="42.4128261" lon="14.2419291"><ele>115.0</ele><time>2026-05-01T07:40:24.516Z</time></trkpt><trkpt lat="42.4127768" lon="14.2417731"><ele>116.5</ele><time>2026-05-01T07:40:25.515Z</time></trkpt><trkpt lat="42.4127566" lon="14.2416021"><ele>118.0</ele><time>2026-05-01T07:40:26.517Z</time></trkpt><trkpt lat="42.4127003" lon="14.2414644"><ele>118.0</ele><time>2026-05-01T07:40:27.517Z</time></trkpt><trkpt lat="42.4126496" lon="14.2413142"><ele>118.0</ele><time>2026-05-01T07:40:28.516Z</time></trkpt><trkpt lat="42.4125921" lon="14.2411726"><ele>118.0</ele><time>2026-05-01T07:40:29.515Z</time></trkpt><trkpt lat="42.4125212" lon="14.241081"><ele>118.0</ele><time>2026-05-01T07:40:30.516Z</time></trkpt><trkpt lat="42.4124444" lon="14.2409649"><ele>118.0</ele><time>2026-05-01T07:40:31.517Z</time></trkpt><trkpt lat="42.4123434" lon="14.2408382"><ele>118.0</ele><time>2026-05-01T07:40:32.516Z</time></trkpt><trkpt lat="42.4122577" lon="14.2407221"><ele>118.0</ele><time>2026-05-01T07:40:33.516Z</time></trkpt><trkpt lat="42.4121764" lon="14.2406165"><ele>118.0</ele><time>2026-05-01T07:40:34.517Z</time></trkpt><trkpt lat="42.4120897" lon="14.2405101"><ele>119.4</ele><time>2026-05-01T07:40:35.516Z</time></trkpt><trkpt lat="42.4120178" lon="14.2404571"><ele>120.80000000000001</ele><time>2026-05-01T07:40:36.516Z</time></trkpt><trkpt lat="42.4119245" lon="14.2403977"><ele>122.2</ele><time>2026-05-01T07:40:38.516Z</time></trkpt><trkpt lat="42.4118695" lon="14.2402931"><ele>123.6</ele><time>2026-05-01T07:40:41.517Z</time></trkpt><trkpt lat="42.4118351" lon="14.2402196"><ele>125.0</ele><time>2026-05-01T07:40:43.517Z</time></trkpt><trkpt lat="42.4117666" lon="14.2400711"><ele>124.99999999999999</ele><time>2026-05-01T07:40:45.516Z</time></trkpt><trkpt lat="42.4117317" lon="14.2399938"><ele>125.0</ele><time>2026-05-01T07:40:46.515Z</time></trkpt><trkpt lat="42.4116989" lon="14.2399007"><ele>125.0</ele><time>2026-05-01T07:40:47.516Z</time></trkpt><trkpt lat="42.4116556" lon="14.2398129"><ele>125.0</ele><time>2026-05-01T07:40:48.516Z</time></trkpt><trkpt lat="42.4116201" lon="14.2397121"><ele>124.99999999999999</ele><time>2026-05-01T07:40:49.517Z</time></trkpt><trkpt lat="42.4115796" lon="14.2395806"><ele>125.0</ele><time>2026-05-01T07:40:50.516Z</time></trkpt><trkpt lat="42.4115213" lon="14.2394164"><ele>123.0</ele><time>2026-05-01T07:40:51.516Z</time></trkpt><trkpt lat="42.411463" lon="14.2392531"><ele>121.0</ele><time>2026-05-01T07:40:52.516Z</time></trkpt><trkpt lat="42.4113938" lon="14.2390943"><ele>119.0</ele><time>2026-05-01T07:40:53.516Z</time></trkpt><trkpt lat="42.4113285" lon="14.2389227"><ele>117.0</ele><time>2026-05-01T07:40:54.517Z</time></trkpt><trkpt lat="42.4112463" lon="14.238732"><ele>123.25</ele><time>2026-05-01T07:40:55.516Z</time></trkpt><trkpt lat="42.4111581" lon="14.2385468"><ele>129.5</ele><time>2026-05-01T07:40:56.515Z</time></trkpt><trkpt lat="42.4110826" lon="14.2383747"><ele>135.75</ele><time>2026-05-01T07:40:57.515Z</time></trkpt><trkpt lat="42.4110195" lon="14.2382141"><ele>142.0</ele><time>2026-05-01T07:40:58.516Z</time></trkpt><trkpt lat="42.4109642" lon="14.238087"><ele>142.0</ele><time>2026-05-01T07:40:59.516Z</time></trkpt><trkpt lat="42.410914" lon="14.2379509"><ele>142.0</ele><time>2026-05-01T07:41:00.517Z</time></trkpt><trkpt lat="42.4108617" lon="14.2378155"><ele>142.0</ele><time>2026-05-01T07:41:01.516Z</time></trkpt><trkpt lat="42.4108106" lon="14.2376841"><ele>142.0</ele><time>2026-05-01T07:41:02.515Z</time></trkpt><trkpt lat="42.4107708" lon="14.2375765"><ele>142.0</ele><time>2026-05-01T07:41:03.517Z</time></trkpt><trkpt lat="42.4107277" lon="14.237483"><ele>142.0</ele><time>2026-05-01T07:41:04.517Z</time></trkpt><trkpt lat="42.4106578" lon="14.2373718"><ele>142.0</ele><time>2026-05-01T07:41:05.516Z</time></trkpt><trkpt lat="42.4105884" lon="14.237262"><ele>142.0</ele><time>2026-05-01T07:41:06.515Z</time></trkpt><trkpt lat="42.4105141" lon="14.237155"><ele>142.0</ele><time>2026-05-01T07:41:07.516Z</time></trkpt><trkpt lat="42.4104442" lon="14.2370569"><ele>142.0</ele><time>2026-05-01T07:41:08.516Z</time></trkpt><trkpt lat="42.4104088" lon="14.2369475"><ele>143.2</ele><time>2026-05-01T07:41:09.516Z</time></trkpt><trkpt lat="42.4103703" lon="14.2368397"><ele>144.39999999999998</ele><time>2026-05-01T07:41:10.516Z</time></trkpt><trkpt lat="42.4103284" lon="14.2367035"><ele>145.60000000000002</ele><time>2026-05-01T07:41:11.516Z</time></trkpt><trkpt lat="42.410278" lon="14.2365655"><ele>146.8</ele><time>2026-05-01T07:41:12.516Z</time></trkpt><trkpt lat="42.410224" lon="14.236445"><ele>148.0</ele><time>2026-05-01T07:41:13.516Z</time></trkpt><trkpt lat="42.4101594" lon="14.2363356"><ele>148.0</ele><time>2026-05-01T07:41:14.516Z</time></trkpt><trkpt lat="42.4100915" lon="14.2362238"><ele>148.0</ele><time>2026-05-01T07:41:15.516Z</time></trkpt><trkpt lat="42.4100073" lon="14.2361195"><ele>148.0</ele><time>2026-05-01T07:41:16.516Z</time></trkpt><trkpt lat="42.409911" lon="14.2360152"><ele>148.0</ele><time>2026-05-01T07:41:17.516Z</time></trkpt><trkpt lat="42.4098092" lon="14.2359078"><ele>148.0</ele><time>2026-05-01T07:41:18.515Z</time></trkpt><trkpt lat="42.4097149" lon="14.2357934"><ele>148.0</ele><time>2026-05-01T07:41:19.515Z</time></trkpt><trkpt lat="42.409618" lon="14.2356702"><ele>148.0</ele><time>2026-05-01T07:41:20.515Z</time></trkpt><trkpt lat="42.4095273" lon="14.235555"><ele>148.0</ele><time>2026-05-01T07:41:21.515Z</time></trkpt><trkpt lat="42.4094381" lon="14.2354399"><ele>148.0</ele><time>2026-05-01T07:41:22.517Z</time></trkpt><trkpt lat="42.4093463" lon="14.2353445"><ele>148.0</ele><time>2026-05-01T07:41:23.516Z</time></trkpt><trkpt lat="42.4092774" lon="14.2352424"><ele>148.0</ele><time>2026-05-01T07:41:24.516Z</time></trkpt><trkpt lat="42.4092073" lon="14.2351488"><ele>148.0</ele><time>2026-05-01T07:41:25.516Z</time></trkpt><trkpt lat="42.4091433" lon="14.235082"><ele>148.0</ele><time>2026-05-01T07:41:26.516Z</time></trkpt><trkpt lat="42.4090817" lon="14.2350012"><ele>148.0</ele><time>2026-05-01T07:41:27.517Z</time></trkpt><trkpt lat="42.4090381" lon="14.2349124"><ele>148.0</ele><time>2026-05-01T07:41:28.516Z</time></trkpt><trkpt lat="42.4090181" lon="14.2347499"><ele>148.0</ele><time>2026-05-01T07:41:30.516Z</time></trkpt><trkpt lat="42.4089272" lon="14.23465"><ele>148.0</ele><time>2026-05-01T07:41:33.516Z</time></trkpt><trkpt lat="42.4088683" lon="14.234588"><ele>148.0</ele><time>2026-05-01T07:41:34.516Z</time></trkpt><trkpt lat="42.4087995" lon="14.2345148"><ele>150.0</ele><time>2026-05-01T07:41:35.516Z</time></trkpt><trkpt lat="42.4087182" lon="14.2344468"><ele>152.0</ele><time>2026-05-01T07:41:36.516Z</time></trkpt><trkpt lat="42.4086225" lon="14.2343313"><ele>154.0</ele><time>2026-05-01T07:41:37.516Z</time></trkpt><trkpt lat="42.4085196" lon="14.2342264"><ele>156.0</ele><time>2026-05-01T07:41:38.516Z</time></trkpt><trkpt lat="42.4084272" lon="14.2341154"><ele>156.0</ele><time>2026-05-01T07:41:39.515Z</time></trkpt><trkpt lat="42.4083499" lon="14.2340088"><ele>156.0</ele><time>2026-05-01T07:41:40.515Z</time></trkpt><trkpt lat="42.4082922" lon="14.2338851"><ele>156.0</ele><time>2026-05-01T07:41:41.515Z</time></trkpt><trkpt lat="42.408234" lon="14.2337387"><ele>156.0</ele><time>2026-05-01T07:41:42.516Z</time></trkpt><trkpt lat="42.4081777" lon="14.2335676"><ele>154.5</ele><time>2026-05-01T07:41:43.517Z</time></trkpt><trkpt lat="42.4081216" lon="14.2333832"><ele>153.0</ele><time>2026-05-01T07:41:44.516Z</time></trkpt><trkpt lat="42.4080547" lon="14.2332115"><ele>151.5</ele><time>2026-05-01T07:41:45.516Z</time></trkpt><trkpt lat="42.408001" lon="14.2330604"><ele>150.0</ele><time>2026-05-01T07:41:46.515Z</time></trkpt><trkpt lat="42.4079346" lon="14.2329335"><ele>154.33333333333334</ele><time>2026-05-01T07:41:47.516Z</time></trkpt><trkpt lat="42.4078537" lon="14.2327824"><ele>158.66666666666669</ele><time>2026-05-01T07:41:48.517Z</time></trkpt><trkpt lat="42.4077263" lon="14.2326248"><ele>163.0</ele><time>2026-05-01T07:41:49.515Z</time></trkpt><trkpt lat="42.4076146" lon="14.2324526"><ele>159.66666666666669</ele><time>2026-05-01T07:41:50.515Z</time></trkpt><trkpt lat="42.4074893" lon="14.2322635"><ele>156.33333333333334</ele><time>2026-05-01T07:41:51.515Z</time></trkpt><trkpt lat="42.40738" lon="14.2320993"><ele>153.0</ele><time>2026-05-01T07:41:52.516Z</time></trkpt><trkpt lat="42.4072975" lon="14.2319422"><ele>153.0</ele><time>2026-05-01T07:41:53.516Z</time></trkpt><trkpt lat="42.4072151" lon="14.2318099"><ele>153.0</ele><time>2026-05-01T07:41:54.516Z</time></trkpt><trkpt lat="42.4071652" lon="14.2317047"><ele>153.0</ele><time>2026-05-01T07:41:55.516Z</time></trkpt><trkpt lat="42.4071109" lon="14.231579"><ele>153.0</ele><time>2026-05-01T07:41:56.516Z</time></trkpt><trkpt lat="42.4070977" lon="14.2314336"><ele>153.0</ele><time>2026-05-01T07:41:57.516Z</time></trkpt><trkpt lat="42.4070703" lon="14.2313285"><ele>156.25</ele><time>2026-05-01T07:41:58.515Z</time></trkpt><trkpt lat="42.407046" lon="14.2311979"><ele>159.5</ele><time>2026-05-01T07:41:59.516Z</time></trkpt><trkpt lat="42.4069583" lon="14.2310681"><ele>162.75</ele><time>2026-05-01T07:42:00.515Z</time></trkpt><trkpt lat="42.4068515" lon="14.2309486"><ele>166.0</ele><time>2026-05-01T07:42:01.516Z</time></trkpt><trkpt lat="42.4067408" lon="14.2308155"><ele>166.0</ele><time>2026-05-01T07:42:02.515Z</time></trkpt><trkpt lat="42.4066096" lon="14.2306742"><ele>166.0</ele><time>2026-05-01T07:42:03.515Z</time></trkpt><trkpt lat="42.406473" lon="14.2304904"><ele>166.0</ele><time>2026-05-01T07:42:04.516Z</time></trkpt><trkpt lat="42.4063403" lon="14.2303116"><ele>167.0</ele><time>2026-05-01T07:42:05.516Z</time></trkpt><trkpt lat="42.4062302" lon="14.2301535"><ele>168.0</ele><time>2026-05-01T07:42:06.516Z</time></trkpt><trkpt lat="42.4061396" lon="14.2300128"><ele>169.0</ele><time>2026-05-01T07:42:07.516Z</time></trkpt><trkpt lat="42.4060611" lon="14.2298968"><ele>170.0</ele><time>2026-05-01T07:42:08.516Z</time></trkpt><trkpt lat="42.4059962" lon="14.2298045"><ele>167.2</ele><time>2026-05-01T07:42:09.516Z</time></trkpt><trkpt lat="42.4059209" lon="14.2297415"><ele>164.4</ele><time>2026-05-01T07:42:10.516Z</time></trkpt><trkpt lat="42.4057846" lon="14.2296686"><ele>161.6</ele><time>2026-05-01T07:42:12.516Z</time></trkpt><trkpt lat="42.4057124" lon="14.2296326"><ele>158.8</ele><time>2026-05-01T07:42:13.515Z</time></trkpt><trkpt lat="42.4056416" lon="14.2296108"><ele>156.0</ele><time>2026-05-01T07:42:14.516Z</time></trkpt><trkpt lat="42.405577" lon="14.2295775"><ele>160.25</ele><time>2026-05-01T07:42:15.516Z</time></trkpt><trkpt lat="42.405459" lon="14.2294632"><ele>164.5</ele><time>2026-05-01T07:42:17.516Z</time></trkpt><trkpt lat="42.4053869" lon="14.2293733"><ele>168.75</ele><time>2026-05-01T07:42:18.516Z</time></trkpt><trkpt lat="42.4053349" lon="14.2292397"><ele>173.0</ele><time>2026-05-01T07:42:19.517Z</time></trkpt><trkpt lat="42.4052591" lon="14.2290973"><ele>170.25</ele><time>2026-05-01T07:42:20.516Z</time></trkpt><trkpt lat="42.4052025" lon="14.2289735"><ele>167.5</ele><time>2026-05-01T07:42:21.515Z</time></trkpt><trkpt lat="42.405117" lon="14.2288313"><ele>164.75</ele><time>2026-05-01T07:42:22.515Z</time></trkpt><trkpt lat="42.4050288" lon="14.2287121"><ele>162.0</ele><time>2026-05-01T07:42:23.516Z</time></trkpt><trkpt lat="42.4049602" lon="14.2285903"><ele>162.0</ele><time>2026-05-01T07:42:24.516Z</time></trkpt><trkpt lat="42.4048888" lon="14.2284626"><ele>162.0</ele><time>2026-05-01T07:42:25.515Z</time></trkpt><trkpt lat="42.4048319" lon="14.2283201"><ele>162.0</ele><time>2026-05-01T07:42:26.516Z</time></trkpt><trkpt lat="42.404838" lon="14.2281706"><ele>162.0</ele><time>2026-05-01T07:42:27.516Z</time></trkpt><trkpt lat="42.4047964" lon="14.228021"><ele>165.33333333333334</ele><time>2026-05-01T07:42:28.516Z</time></trkpt><trkpt lat="42.404735" lon="14.2278117"><ele>168.66666666666669</ele><time>2026-05-01T07:42:29.516Z</time></trkpt><trkpt lat="42.4046818" lon="14.2276547"><ele>172.0</ele><time>2026-05-01T07:42:30.516Z</time></trkpt><trkpt lat="42.4045987" lon="14.2274757"><ele>168.25</ele><time>2026-05-01T07:42:31.515Z</time></trkpt><trkpt lat="42.4045089" lon="14.2273025"><ele>164.5</ele><time>2026-05-01T07:42:32.516Z</time></trkpt><trkpt lat="42.4044293" lon="14.2271444"><ele>160.75</ele><time>2026-05-01T07:42:33.516Z</time></trkpt><trkpt lat="42.4043817" lon="14.2270078"><ele>157.0</ele><time>2026-05-01T07:42:34.517Z</time></trkpt><trkpt lat="42.4043596" lon="14.2268852"><ele>157.0</ele><time>2026-05-01T07:42:35.516Z</time></trkpt><trkpt lat="42.4043405" lon="14.2267228"><ele>157.0</ele><time>2026-05-01T07:42:36.515Z</time></trkpt><trkpt lat="42.4043162" lon="14.2266045"><ele>157.0</ele><time>2026-05-01T07:42:37.516Z</time></trkpt><trkpt lat="42.4042816" lon="14.2265179"><ele>157.0</ele><time>2026-05-01T07:42:38.517Z</time></trkpt><trkpt lat="42.4042404" lon="14.2264435"><ele>157.0</ele><time>2026-05-01T07:42:39.516Z</time></trkpt><trkpt lat="42.4041623" lon="14.2263994"><ele>157.0</ele><time>2026-05-01T07:42:40.516Z</time></trkpt><trkpt lat="42.4040701" lon="14.2263388"><ele>155.0</ele><time>2026-05-01T07:42:41.515Z</time></trkpt><trkpt lat="42.4039809" lon="14.2262338"><ele>153.0</ele><time>2026-05-01T07:42:42.515Z</time></trkpt><trkpt lat="42.4038812" lon="14.226098"><ele>151.0</ele><time>2026-05-01T07:42:43.516Z</time></trkpt><trkpt lat="42.4037973" lon="14.2259894"><ele>149.0</ele><time>2026-05-01T07:42:44.517Z</time></trkpt><trkpt lat="42.4037306" lon="14.2258801"><ele>154.5</ele><time>2026-05-01T07:42:45.517Z</time></trkpt><trkpt lat="42.4036758" lon="14.2257701"><ele>160.0</ele><time>2026-05-01T07:42:46.516Z</time></trkpt><trkpt lat="42.4036378" lon="14.2256311"><ele>165.5</ele><time>2026-05-01T07:42:47.515Z</time></trkpt><trkpt lat="42.4035885" lon="14.2254781"><ele>171.0</ele><time>2026-05-01T07:42:48.515Z</time></trkpt><trkpt lat="42.4035427" lon="14.2253249"><ele>171.0</ele><time>2026-05-01T07:42:49.517Z</time></trkpt><trkpt lat="42.4035246" lon="14.2251683"><ele>171.0</ele><time>2026-05-01T07:42:50.515Z</time></trkpt><trkpt lat="42.403519" lon="14.2250028"><ele>171.0</ele><time>2026-05-01T07:42:51.516Z</time></trkpt><trkpt lat="42.4035079" lon="14.2248634"><ele>171.0</ele><time>2026-05-01T07:42:52.515Z</time></trkpt><trkpt lat="42.4034791" lon="14.2247302"><ele>171.0</ele><time>2026-05-01T07:42:53.516Z</time></trkpt><trkpt lat="42.4034585" lon="14.2246076"><ele>169.0</ele><time>2026-05-01T07:42:54.515Z</time></trkpt><trkpt lat="42.4033935" lon="14.2244994"><ele>167.0</ele><time>2026-05-01T07:42:55.515Z</time></trkpt><trkpt lat="42.4033299" lon="14.2244219"><ele>165.0</ele><time>2026-05-01T07:42:56.516Z</time></trkpt><trkpt lat="42.403283" lon="14.2243115"><ele>163.0</ele><time>2026-05-01T07:42:57.516Z</time></trkpt><trkpt lat="42.4032214" lon="14.2242033"><ele>161.0</ele><time>2026-05-01T07:42:58.516Z</time></trkpt><trkpt lat="42.4031554" lon="14.2240931"><ele>161.0</ele><time>2026-05-01T07:42:59.517Z</time></trkpt><trkpt lat="42.4031078" lon="14.2240077"><ele>161.0</ele><time>2026-05-01T07:43:00.516Z</time></trkpt><trkpt lat="42.4029812" lon="14.2239237"><ele>161.0</ele><time>2026-05-01T07:43:02.515Z</time></trkpt><trkpt lat="42.4028974" lon="14.2238954"><ele>161.0</ele><time>2026-05-01T07:43:03.515Z</time></trkpt><trkpt lat="42.4028035" lon="14.2238743"><ele>161.0</ele><time>2026-05-01T07:43:04.515Z</time></trkpt><trkpt lat="42.4027188" lon="14.2238602"><ele>162.20000000000002</ele><time>2026-05-01T07:43:05.514Z</time></trkpt><trkpt lat="42.4026233" lon="14.2238219"><ele>163.4</ele><time>2026-05-01T07:43:06.514Z</time></trkpt><trkpt lat="42.4025355" lon="14.2237548"><ele>164.6</ele><time>2026-05-01T07:43:07.515Z</time></trkpt><trkpt lat="42.4024532" lon="14.2236353"><ele>165.8</ele><time>2026-05-01T07:43:08.516Z</time></trkpt><trkpt lat="42.4023573" lon="14.2235566"><ele>167.0</ele><time>2026-05-01T07:43:09.514Z</time></trkpt><trkpt lat="42.4022864" lon="14.2234814"><ele>167.0</ele><time>2026-05-01T07:43:10.514Z</time></trkpt><trkpt lat="42.4022236" lon="14.2234331"><ele>167.0</ele><time>2026-05-01T07:43:11.515Z</time></trkpt><trkpt lat="42.4021532" lon="14.22343"><ele>167.0</ele><time>2026-05-01T07:43:12.515Z</time></trkpt><trkpt lat="42.4020629" lon="14.2234546"><ele>167.0</ele><time>2026-05-01T07:43:13.514Z</time></trkpt><trkpt lat="42.4019687" lon="14.2234903"><ele>167.0</ele><time>2026-05-01T07:43:14.515Z</time></trkpt><trkpt lat="42.401865" lon="14.2235438"><ele>167.0</ele><time>2026-05-01T07:43:15.515Z</time></trkpt><trkpt lat="42.4017095" lon="14.2236634"><ele>170.5</ele><time>2026-05-01T07:43:16.514Z</time></trkpt><trkpt lat="42.4015788" lon="14.2237418"><ele>174.0</ele><time>2026-05-01T07:43:17.515Z</time></trkpt><trkpt lat="42.401451" lon="14.2238269"><ele>177.5</ele><time>2026-05-01T07:43:18.515Z</time></trkpt><trkpt lat="42.4013238" lon="14.2239007"><ele>181.0</ele><time>2026-05-01T07:43:19.515Z</time></trkpt><trkpt lat="42.4012222" lon="14.2239678"><ele>182.83333333333334</ele><time>2026-05-01T07:43:20.514Z</time></trkpt><trkpt lat="42.4011328" lon="14.2240278"><ele>184.66666666666669</ele><time>2026-05-01T07:43:21.515Z</time></trkpt><trkpt lat="42.4010571" lon="14.2240899"><ele>186.5</ele><time>2026-05-01T07:43:22.516Z</time></trkpt><trkpt lat="42.4009895" lon="14.224143"><ele>188.33333333333334</ele><time>2026-05-01T07:43:23.515Z</time></trkpt><trkpt lat="42.4009253" lon="14.2241863"><ele>190.16666666666666</ele><time>2026-05-01T07:43:24.515Z</time></trkpt><trkpt lat="42.4008294" lon="14.2242564"><ele>192.0</ele><time>2026-05-01T07:43:26.515Z</time></trkpt><trkpt lat="42.4007404" lon="14.2243375"><ele>192.0</ele><time>2026-05-01T07:43:28.514Z</time></trkpt><trkpt lat="42.4006571" lon="14.2244041"><ele>192.0</ele><time>2026-05-01T07:43:30.515Z</time></trkpt><trkpt lat="42.4005776" lon="14.2243877"><ele>192.0</ele><time>2026-05-01T07:43:47.516Z</time></trkpt><trkpt lat="42.4005054" lon="14.224247"><ele>192.0</ele><time>2026-05-01T07:43:49.514Z</time></trkpt><trkpt lat="42.4004585" lon="14.2241557"><ele>192.0</ele><time>2026-05-01T07:43:50.515Z</time></trkpt><trkpt lat="42.4002383" lon="14.2237577"><ele>192.5</ele><time>2026-05-01T07:43:54.515Z</time></trkpt><trkpt lat="42.4001936" lon="14.2236769"><ele>193.0</ele><time>2026-05-01T07:43:55.515Z</time></trkpt><trkpt lat="42.4000293" lon="14.223452"><ele>193.5</ele><time>2026-05-01T07:43:58.515Z</time></trkpt><trkpt lat="42.3999457" lon="14.2233522"><ele>194.0</ele><time>2026-05-01T07:43:59.515Z</time></trkpt><trkpt lat="42.399862" lon="14.223255"><ele>194.00000000000003</ele><time>2026-05-01T07:44:00.515Z</time></trkpt><trkpt lat="42.3997879" lon="14.2231678"><ele>194.0</ele><time>2026-05-01T07:44:01.515Z</time></trkpt><trkpt lat="42.3997226" lon="14.2230881"><ele>194.0</ele><time>2026-05-01T07:44:02.514Z</time></trkpt><trkpt lat="42.3996536" lon="14.2230145"><ele>194.0</ele><time>2026-05-01T07:44:03.514Z</time></trkpt><trkpt lat="42.3995869" lon="14.2229495"><ele>194.00000000000003</ele><time>2026-05-01T07:44:04.514Z</time></trkpt><trkpt lat="42.3995197" lon="14.2228881"><ele>194.0</ele><time>2026-05-01T07:44:05.515Z</time></trkpt><trkpt lat="42.3994562" lon="14.2228123"><ele>194.00000000000003</ele><time>2026-05-01T07:44:06.515Z</time></trkpt><trkpt lat="42.3993944" lon="14.2227414"><ele>194.0</ele><time>2026-05-01T07:44:07.516Z</time></trkpt><trkpt lat="42.3993329" lon="14.2226771"><ele>194.0</ele><time>2026-05-01T07:44:08.515Z</time></trkpt><trkpt lat="42.3992731" lon="14.2226104"><ele>194.0</ele><time>2026-05-01T07:44:09.516Z</time></trkpt><trkpt lat="42.3992101" lon="14.2225392"><ele>194.00000000000003</ele><time>2026-05-01T07:44:10.514Z</time></trkpt><trkpt lat="42.3991519" lon="14.2224795"><ele>194.0</ele><time>2026-05-01T07:44:11.515Z</time></trkpt><trkpt lat="42.3990936" lon="14.2224025"><ele>194.00000000000003</ele><time>2026-05-01T07:44:12.515Z</time></trkpt><trkpt lat="42.3990262" lon="14.2223337"><ele>194.0</ele><time>2026-05-01T07:44:13.515Z</time></trkpt><trkpt lat="42.3989692" lon="14.2222596"><ele>194.0</ele><time>2026-05-01T07:44:14.514Z</time></trkpt><trkpt lat="42.3989059" lon="14.2221854"><ele>194.0</ele><time>2026-05-01T07:44:15.515Z</time></trkpt><trkpt lat="42.3988436" lon="14.2221148"><ele>194.00000000000003</ele><time>2026-05-01T07:44:16.515Z</time></trkpt><trkpt lat="42.3987686" lon="14.222021"><ele>194.0</ele><time>2026-05-01T07:44:17.515Z</time></trkpt><trkpt lat="42.3986977" lon="14.2219071"><ele>194.2</ele><time>2026-05-01T07:44:18.515Z</time></trkpt><trkpt lat="42.39862" lon="14.2217847"><ele>194.39999999999998</ele><time>2026-05-01T07:44:19.515Z</time></trkpt><trkpt lat="42.3985527" lon="14.2216576"><ele>194.6</ele><time>2026-05-01T07:44:20.515Z</time></trkpt><trkpt lat="42.3984938" lon="14.2215498"><ele>194.8</ele><time>2026-05-01T07:44:21.515Z</time></trkpt><trkpt lat="42.3984384" lon="14.22145"><ele>195.0</ele><time>2026-05-01T07:44:22.516Z</time></trkpt><trkpt lat="42.3983864" lon="14.2213454"><ele>195.66666666666666</ele><time>2026-05-01T07:44:23.515Z</time></trkpt><trkpt lat="42.3983289" lon="14.2212394"><ele>196.33333333333331</ele><time>2026-05-01T07:44:24.515Z</time></trkpt><trkpt lat="42.3982699" lon="14.2211248"><ele>197.0</ele><time>2026-05-01T07:44:25.516Z</time></trkpt><trkpt lat="42.3982201" lon="14.2210199"><ele>197.66666666666666</ele><time>2026-05-01T07:44:26.515Z</time></trkpt><trkpt lat="42.3981751" lon="14.2209279"><ele>198.33333333333331</ele><time>2026-05-01T07:44:27.515Z</time></trkpt><trkpt lat="42.3981329" lon="14.2208579"><ele>199.0</ele><time>2026-05-01T07:44:28.515Z</time></trkpt><trkpt lat="42.3980493" lon="14.220839"><ele>199.0</ele><time>2026-05-01T07:44:30.514Z</time></trkpt><trkpt lat="42.3979931" lon="14.2208843"><ele>199.0</ele><time>2026-05-01T07:44:31.515Z</time></trkpt><trkpt lat="42.3979382" lon="14.2209744"><ele>199.0</ele><time>2026-05-01T07:44:32.514Z</time></trkpt><trkpt lat="42.3978679" lon="14.2210795"><ele>199.0</ele><time>2026-05-01T07:44:33.515Z</time></trkpt><trkpt lat="42.3977782" lon="14.2211884"><ele>199.0</ele><time>2026-05-01T07:44:34.515Z</time></trkpt><trkpt lat="42.3976747" lon="14.2213013"><ele>199.0</ele><time>2026-05-01T07:44:35.515Z</time></trkpt><trkpt lat="42.3975714" lon="14.2214043"><ele>199.0</ele><time>2026-05-01T07:44:36.515Z</time></trkpt><trkpt lat="42.397447" lon="14.221534"><ele>199.0</ele><time>2026-05-01T07:44:37.515Z</time></trkpt><trkpt lat="42.3973279" lon="14.2216506"><ele>199.0</ele><time>2026-05-01T07:44:38.515Z</time></trkpt><trkpt lat="42.3972431" lon="14.2217354"><ele>198.33333333333331</ele><time>2026-05-01T07:44:39.516Z</time></trkpt><trkpt lat="42.397178" lon="14.2218292"><ele>197.66666666666666</ele><time>2026-05-01T07:44:40.516Z</time></trkpt><trkpt lat="42.3971349" lon="14.2219241"><ele>197.0</ele><time>2026-05-01T07:44:41.514Z</time></trkpt><trkpt lat="42.3971148" lon="14.2220237"><ele>196.33333333333331</ele><time>2026-05-01T07:44:42.516Z</time></trkpt><trkpt lat="42.3971241" lon="14.2221228"><ele>195.66666666666666</ele><time>2026-05-01T07:44:43.514Z</time></trkpt><trkpt lat="42.3971601" lon="14.2222323"><ele>195.0</ele><time>2026-05-01T07:44:44.514Z</time></trkpt><trkpt lat="42.3972155" lon="14.2223536"><ele>194.6</ele><time>2026-05-01T07:44:45.514Z</time></trkpt><trkpt lat="42.397283" lon="14.2224894"><ele>194.2</ele><time>2026-05-01T07:44:46.515Z</time></trkpt><trkpt lat="42.3973482" lon="14.2226139"><ele>193.8</ele><time>2026-05-01T07:44:47.514Z</time></trkpt><trkpt lat="42.3974034" lon="14.2227185"><ele>193.4</ele><time>2026-05-01T07:44:48.514Z</time></trkpt><trkpt lat="42.3974452" lon="14.2228103"><ele>193.0</ele><time>2026-05-01T07:44:49.515Z</time></trkpt><trkpt lat="42.397508" lon="14.2229229"><ele>193.0</ele><time>2026-05-01T07:44:51.515Z</time></trkpt><trkpt lat="42.3975667" lon="14.2230346"><ele>193.0</ele><time>2026-05-01T07:44:53.515Z</time></trkpt><trkpt lat="42.3976455" lon="14.2232102"><ele>193.0</ele><time>2026-05-01T07:44:55.516Z</time></trkpt><trkpt lat="42.3976817" lon="14.2233147"><ele>193.0</ele><time>2026-05-01T07:44:56.516Z</time></trkpt><trkpt lat="42.3977003" lon="14.2234096"><ele>193.0</ele><time>2026-05-01T07:44:57.515Z</time></trkpt><trkpt lat="42.3977117" lon="14.2235011"><ele>192.25</ele><time>2026-05-01T07:44:58.514Z</time></trkpt><trkpt lat="42.3976984" lon="14.2236335"><ele>191.5</ele><time>2026-05-01T07:44:59.514Z</time></trkpt><trkpt lat="42.3976462" lon="14.2238082"><ele>190.75</ele><time>2026-05-01T07:45:00.514Z</time></trkpt><trkpt lat="42.3976105" lon="14.2239789"><ele>190.0</ele><time>2026-05-01T07:45:01.515Z</time></trkpt><trkpt lat="42.3975843" lon="14.2241435"><ele>188.25</ele><time>2026-05-01T07:45:02.514Z</time></trkpt><trkpt lat="42.3975658" lon="14.2243063"><ele>186.5</ele><time>2026-05-01T07:45:03.516Z</time></trkpt><trkpt lat="42.3975299" lon="14.2244765"><ele>184.75</ele><time>2026-05-01T07:45:04.516Z</time></trkpt><trkpt lat="42.397496" lon="14.2246362"><ele>183.0</ele><time>2026-05-01T07:45:05.515Z</time></trkpt><trkpt lat="42.3974611" lon="14.2247976"><ele>181.0</ele><time>2026-05-01T07:45:06.515Z</time></trkpt><trkpt lat="42.3974488" lon="14.2249532"><ele>179.0</ele><time>2026-05-01T07:45:07.515Z</time></trkpt><trkpt lat="42.3974577" lon="14.2251081"><ele>177.0</ele><time>2026-05-01T07:45:08.514Z</time></trkpt><trkpt lat="42.397485" lon="14.2252656"><ele>175.0</ele><time>2026-05-01T07:45:09.515Z</time></trkpt><trkpt lat="42.3975103" lon="14.2254138"><ele>175.0</ele><time>2026-05-01T07:45:10.515Z</time></trkpt><trkpt lat="42.3975322" lon="14.2255519"><ele>175.0</ele><time>2026-05-01T07:45:11.515Z</time></trkpt><trkpt lat="42.3975529" lon="14.2256704"><ele>175.0</ele><time>2026-05-01T07:45:12.515Z</time></trkpt><trkpt lat="42.3975571" lon="14.2257703"><ele>175.0</ele><time>2026-05-01T07:45:13.515Z</time></trkpt><trkpt lat="42.3975168" lon="14.22591"><ele>175.0</ele><time>2026-05-01T07:45:15.514Z</time></trkpt><trkpt lat="42.3974438" lon="14.2259343"><ele>175.0</ele><time>2026-05-01T07:45:17.514Z</time></trkpt><trkpt lat="42.3973634" lon="14.2258277"><ele>175.0</ele><time>2026-05-01T07:45:19.516Z</time></trkpt><trkpt lat="42.3973256" lon="14.2257505"><ele>175.0</ele><time>2026-05-01T07:45:20.514Z</time></trkpt><trkpt lat="42.3972817" lon="14.2256798"><ele>175.0</ele><time>2026-05-01T07:45:21.515Z</time></trkpt><trkpt lat="42.3971971" lon="14.225555"><ele>175.0</ele><time>2026-05-01T07:45:23.515Z</time></trkpt><trkpt lat="42.3971388" lon="14.2254894"><ele>172.16666666666669</ele><time>2026-05-01T07:45:24.515Z</time></trkpt><trkpt lat="42.3970726" lon="14.2254179"><ele>169.33333333333334</ele><time>2026-05-01T07:45:25.515Z</time></trkpt><trkpt lat="42.3970192" lon="14.2253579"><ele>166.5</ele><time>2026-05-01T07:45:26.516Z</time></trkpt><trkpt lat="42.3969444" lon="14.2253578"><ele>163.66666666666666</ele><time>2026-05-01T07:45:27.515Z</time></trkpt><trkpt lat="42.3968741" lon="14.2253282"><ele>160.83333333333331</ele><time>2026-05-01T07:45:28.514Z</time></trkpt><trkpt lat="42.3967718" lon="14.2253258"><ele>158.0</ele><time>2026-05-01T07:45:29.515Z</time></trkpt><trkpt lat="42.3966812" lon="14.2253086"><ele>158.0</ele><time>2026-05-01T07:45:30.516Z</time></trkpt><trkpt lat="42.3965999" lon="14.2253251"><ele>158.0</ele><time>2026-05-01T07:45:31.515Z</time></trkpt><trkpt lat="42.3965346" lon="14.2253183"><ele>158.0</ele><time>2026-05-01T07:45:32.515Z</time></trkpt><trkpt lat="42.3964626" lon="14.2252891"><ele>158.0</ele><time>2026-05-01T07:45:33.516Z</time></trkpt><trkpt lat="42.396389" lon="14.2252329"><ele>158.0</ele><time>2026-05-01T07:45:34.515Z</time></trkpt><trkpt lat="42.3963002" lon="14.2251931"><ele>158.0</ele><time>2026-05-01T07:45:35.515Z</time></trkpt><trkpt lat="42.3962148" lon="14.2251462"><ele>153.0</ele><time>2026-05-01T07:45:36.515Z</time></trkpt><trkpt lat="42.3961262" lon="14.2250979"><ele>148.0</ele><time>2026-05-01T07:45:37.516Z</time></trkpt><trkpt lat="42.3960432" lon="14.2250794"><ele>143.0</ele><time>2026-05-01T07:45:38.516Z</time></trkpt><trkpt lat="42.3959582" lon="14.2250275"><ele>138.0</ele><time>2026-05-01T07:45:39.514Z</time></trkpt><trkpt lat="42.3958606" lon="14.2250028"><ele>133.0</ele><time>2026-05-01T07:45:40.515Z</time></trkpt><trkpt lat="42.3957757" lon="14.2249571"><ele>133.0</ele><time>2026-05-01T07:45:41.514Z</time></trkpt><trkpt lat="42.3956994" lon="14.2249155"><ele>133.0</ele><time>2026-05-01T07:45:42.514Z</time></trkpt><trkpt lat="42.3955951" lon="14.2249013"><ele>133.0</ele><time>2026-05-01T07:45:43.516Z</time></trkpt><trkpt lat="42.3955346" lon="14.2248397"><ele>133.0</ele><time>2026-05-01T07:45:44.514Z</time></trkpt><trkpt lat="42.3954663" lon="14.2248025"><ele>133.0</ele><time>2026-05-01T07:45:45.515Z</time></trkpt><trkpt lat="42.3953586" lon="14.224789"><ele>133.0</ele><time>2026-05-01T07:45:46.515Z</time></trkpt><trkpt lat="42.3952911" lon="14.2247496"><ele>130.0</ele><time>2026-05-01T07:45:47.515Z</time></trkpt><trkpt lat="42.3951987" lon="14.2247034"><ele>127.00000000000001</ele><time>2026-05-01T07:45:48.514Z</time></trkpt><trkpt lat="42.3951295" lon="14.2246734"><ele>124.00000000000001</ele><time>2026-05-01T07:45:49.514Z</time></trkpt><trkpt lat="42.3950439" lon="14.2246519"><ele>121.0</ele><time>2026-05-01T07:45:50.514Z</time></trkpt><trkpt lat="42.394935" lon="14.2246326"><ele>118.0</ele><time>2026-05-01T07:45:51.516Z</time></trkpt><trkpt lat="42.3948306" lon="14.2246353"><ele>118.0</ele><time>2026-05-01T07:45:52.515Z</time></trkpt><trkpt lat="42.3947307" lon="14.224613"><ele>118.00000000000001</ele><time>2026-05-01T07:45:53.515Z</time></trkpt><trkpt lat="42.3946407" lon="14.2245934"><ele>118.00000000000001</ele><time>2026-05-01T07:45:54.515Z</time></trkpt><trkpt lat="42.3945387" lon="14.224583"><ele>118.0</ele><time>2026-05-01T07:45:55.515Z</time></trkpt><trkpt lat="42.3944457" lon="14.2244949"><ele>118.0</ele><time>2026-05-01T07:45:56.514Z</time></trkpt><trkpt lat="42.3944025" lon="14.2244201"><ele>114.60000000000001</ele><time>2026-05-01T07:45:57.514Z</time></trkpt><trkpt lat="42.3943287" lon="14.2243214"><ele>111.20000000000002</ele><time>2026-05-01T07:45:58.515Z</time></trkpt><trkpt lat="42.3942775" lon="14.2242391"><ele>107.8</ele><time>2026-05-01T07:45:59.514Z</time></trkpt><trkpt lat="42.3942198" lon="14.224145"><ele>104.4</ele><time>2026-05-01T07:46:00.513Z</time></trkpt><trkpt lat="42.3941545" lon="14.2240704"><ele>101.0</ele><time>2026-05-01T07:46:01.514Z</time></trkpt><trkpt lat="42.3940775" lon="14.2239816"><ele>101.33333333333333</ele><time>2026-05-01T07:46:02.513Z</time></trkpt><trkpt lat="42.3940155" lon="14.2239012"><ele>101.66666666666666</ele><time>2026-05-01T07:46:03.515Z</time></trkpt><trkpt lat="42.3939608" lon="14.2238517"><ele>102.0</ele><time>2026-05-01T07:46:05.515Z</time></trkpt><trkpt lat="42.3938973" lon="14.2238668"><ele>102.33333333333334</ele><time>2026-05-01T07:46:08.514Z</time></trkpt><trkpt lat="42.3938334" lon="14.2239125"><ele>102.66666666666667</ele><time>2026-05-01T07:46:11.514Z</time></trkpt><trkpt lat="42.3937308" lon="14.2239215"><ele>103.0</ele><time>2026-05-01T07:46:13.514Z</time></trkpt><trkpt lat="42.3936498" lon="14.2239207"><ele>103.00000000000001</ele><time>2026-05-01T07:46:14.513Z</time></trkpt><trkpt lat="42.393566" lon="14.2239106"><ele>103.0</ele><time>2026-05-01T07:46:16.514Z</time></trkpt><trkpt lat="42.3935794" lon="14.224019"><ele>103.0</ele><time>2026-05-01T07:46:19.514Z</time></trkpt><trkpt lat="42.3936003" lon="14.2241086"><ele>103.0</ele><time>2026-05-01T07:46:20.514Z</time></trkpt><trkpt lat="42.3936455" lon="14.2242313"><ele>103.00000000000001</ele><time>2026-05-01T07:46:21.514Z</time></trkpt><trkpt lat="42.3936833" lon="14.2243622"><ele>103.0</ele><time>2026-05-01T07:46:22.514Z</time></trkpt><trkpt lat="42.3937162" lon="14.2245203"><ele>104.0</ele><time>2026-05-01T07:46:23.513Z</time></trkpt><trkpt lat="42.3937485" lon="14.224698"><ele>105.0</ele><time>2026-05-01T07:46:24.513Z</time></trkpt><trkpt lat="42.3937982" lon="14.2248954"><ele>106.0</ele><time>2026-05-01T07:46:25.513Z</time></trkpt><trkpt lat="42.3938516" lon="14.2250975"><ele>107.0</ele><time>2026-05-01T07:46:26.514Z</time></trkpt><trkpt lat="42.393923" lon="14.225307"><ele>103.66666666666666</ele><time>2026-05-01T07:46:27.514Z</time></trkpt><trkpt lat="42.3939871" lon="14.2255276"><ele>100.33333333333334</ele><time>2026-05-01T07:46:28.515Z</time></trkpt><trkpt lat="42.3940502" lon="14.2257523"><ele>97.0</ele><time>2026-05-01T07:46:29.515Z</time></trkpt><trkpt lat="42.3941129" lon="14.2259702"><ele>97.0</ele><time>2026-05-01T07:46:30.514Z</time></trkpt><trkpt lat="42.3941906" lon="14.2261887"><ele>97.0</ele><time>2026-05-01T07:46:31.514Z</time></trkpt><trkpt lat="42.3942665" lon="14.2264134"><ele>97.0</ele><time>2026-05-01T07:46:32.514Z</time></trkpt><trkpt lat="42.3943396" lon="14.226635"><ele>97.0</ele><time>2026-05-01T07:46:33.514Z</time></trkpt><trkpt lat="42.3944117" lon="14.2268599"><ele>97.0</ele><time>2026-05-01T07:46:34.515Z</time></trkpt><trkpt lat="42.3944844" lon="14.2270878"><ele>97.0</ele><time>2026-05-01T07:46:35.513Z</time></trkpt><trkpt lat="42.3945619" lon="14.2273209"><ele>97.33333333333334</ele><time>2026-05-01T07:46:36.514Z</time></trkpt><trkpt lat="42.3946314" lon="14.2275557"><ele>97.66666666666666</ele><time>2026-05-01T07:46:37.513Z</time></trkpt><trkpt lat="42.3947005" lon="14.2277963"><ele>98.0</ele><time>2026-05-01T07:46:38.515Z</time></trkpt><trkpt lat="42.3947617" lon="14.2280369"><ele>95.33333333333333</ele><time>2026-05-01T07:46:39.514Z</time></trkpt><trkpt lat="42.3948318" lon="14.2282616"><ele>92.66666666666666</ele><time>2026-05-01T07:46:40.514Z</time></trkpt><trkpt lat="42.3949116" lon="14.2284847"><ele>90.0</ele><time>2026-05-01T07:46:41.514Z</time></trkpt><trkpt lat="42.3949993" lon="14.2287046"><ele>90.0</ele><time>2026-05-01T07:46:42.514Z</time></trkpt><trkpt lat="42.3950917" lon="14.228923"><ele>90.0</ele><time>2026-05-01T07:46:43.514Z</time></trkpt><trkpt lat="42.3951824" lon="14.2291363"><ele>90.0</ele><time>2026-05-01T07:46:44.515Z</time></trkpt><trkpt lat="42.3952657" lon="14.2293634"><ele>91.33333333333333</ele><time>2026-05-01T07:46:45.515Z</time></trkpt><trkpt lat="42.3953482" lon="14.2295984"><ele>92.66666666666666</ele><time>2026-05-01T07:46:46.514Z</time></trkpt><trkpt lat="42.3954248" lon="14.2298391"><ele>94.0</ele><time>2026-05-01T07:46:47.514Z</time></trkpt><trkpt lat="42.3955044" lon="14.2300748"><ele>90.33333333333333</ele><time>2026-05-01T07:46:48.514Z</time></trkpt><trkpt lat="42.3955758" lon="14.2303042"><ele>86.66666666666667</ele><time>2026-05-01T07:46:49.514Z</time></trkpt><trkpt lat="42.395656" lon="14.2305315"><ele>83.0</ele><time>2026-05-01T07:46:50.513Z</time></trkpt><trkpt lat="42.3957392" lon="14.2307646"><ele>82.33333333333334</ele><time>2026-05-01T07:46:51.514Z</time></trkpt><trkpt lat="42.3958181" lon="14.2309977"><ele>81.66666666666667</ele><time>2026-05-01T07:46:52.515Z</time></trkpt><trkpt lat="42.3958872" lon="14.2312218"><ele>81.0</ele><time>2026-05-01T07:46:53.514Z</time></trkpt><trkpt lat="42.3959488" lon="14.2314361"><ele>81.33333333333333</ele><time>2026-05-01T07:46:54.515Z</time></trkpt><trkpt lat="42.3960147" lon="14.231636"><ele>81.66666666666666</ele><time>2026-05-01T07:46:55.514Z</time></trkpt><trkpt lat="42.3960787" lon="14.2318308"><ele>82.0</ele><time>2026-05-01T07:46:56.514Z</time></trkpt><trkpt lat="42.3961325" lon="14.2320173"><ele>82.0</ele><time>2026-05-01T07:46:57.514Z</time></trkpt><trkpt lat="42.3961807" lon="14.2321898"><ele>82.0</ele><time>2026-05-01T07:46:58.514Z</time></trkpt><trkpt lat="42.3962187" lon="14.2323635"><ele>82.0</ele><time>2026-05-01T07:46:59.514Z</time></trkpt><trkpt lat="42.396228" lon="14.2325481"><ele>82.0</ele><time>2026-05-01T07:47:00.514Z</time></trkpt><trkpt lat="42.3962273" lon="14.2327352"><ele>82.25</ele><time>2026-05-01T07:47:01.514Z</time></trkpt><trkpt lat="42.3962198" lon="14.2329155"><ele>82.5</ele><time>2026-05-01T07:47:02.514Z</time></trkpt><trkpt lat="42.3962084" lon="14.2330896"><ele>82.75</ele><time>2026-05-01T07:47:03.514Z</time></trkpt><trkpt lat="42.3961943" lon="14.2332679"><ele>83.0</ele><time>2026-05-01T07:47:04.514Z</time></trkpt><trkpt lat="42.3962021" lon="14.2334324"><ele>82.25</ele><time>2026-05-01T07:47:05.514Z</time></trkpt><trkpt lat="42.396189" lon="14.2335993"><ele>81.5</ele><time>2026-05-01T07:47:06.515Z</time></trkpt><trkpt lat="42.3961766" lon="14.2337765"><ele>80.75</ele><time>2026-05-01T07:47:07.514Z</time></trkpt><trkpt lat="42.3961707" lon="14.2339244"><ele>80.0</ele><time>2026-05-01T07:47:08.515Z</time></trkpt><trkpt lat="42.3961554" lon="14.2340773"><ele>80.0</ele><time>2026-05-01T07:47:09.514Z</time></trkpt><trkpt lat="42.3961514" lon="14.2342139"><ele>80.0</ele><time>2026-05-01T07:47:10.514Z</time></trkpt><trkpt lat="42.3961543" lon="14.2343399"><ele>80.0</ele><time>2026-05-01T07:47:11.514Z</time></trkpt><trkpt lat="42.3961655" lon="14.2344488"><ele>80.0</ele><time>2026-05-01T07:47:12.514Z</time></trkpt><trkpt lat="42.3961742" lon="14.2345589"><ele>80.0</ele><time>2026-05-01T07:47:13.513Z</time></trkpt><trkpt lat="42.396187" lon="14.23465"><ele>80.0</ele><time>2026-05-01T07:47:14.514Z</time></trkpt><trkpt lat="42.3961885" lon="14.2347538"><ele>80.0</ele><time>2026-05-01T07:47:16.513Z</time></trkpt><trkpt lat="42.3961241" lon="14.234804"><ele>80.0</ele><time>2026-05-01T07:47:18.514Z</time></trkpt><trkpt lat="42.3960408" lon="14.2348003"><ele>80.0</ele><time>2026-05-01T07:47:20.514Z</time></trkpt><trkpt lat="42.3959356" lon="14.2348074"><ele>80.0</ele><time>2026-05-01T07:47:22.514Z</time></trkpt><trkpt lat="42.3958419" lon="14.2347985"><ele>80.0</ele><time>2026-05-01T07:47:24.513Z</time></trkpt><trkpt lat="42.3957391" lon="14.2347764"><ele>80.0</ele><time>2026-05-01T07:47:26.514Z</time></trkpt><trkpt lat="42.3956308" lon="14.2346926"><ele>80.0</ele><time>2026-05-01T07:47:28.513Z</time></trkpt><trkpt lat="42.3955556" lon="14.2346086"><ele>80.0</ele><time>2026-05-01T07:47:30.513Z</time></trkpt><trkpt lat="42.3954696" lon="14.2345383"><ele>80.0</ele><time>2026-05-01T07:47:32.515Z</time></trkpt><trkpt lat="42.3954002" lon="14.2344384"><ele>80.0</ele><time>2026-05-01T07:47:34.514Z</time></trkpt><trkpt lat="42.3954029" lon="14.2342787"><ele>83.6</ele><time>2026-05-01T07:47:36.513Z</time></trkpt><trkpt lat="42.3953789" lon="14.2341861"><ele>87.2</ele><time>2026-05-01T07:47:37.514Z</time></trkpt><trkpt lat="42.3953523" lon="14.2340668"><ele>90.80000000000001</ele><time>2026-05-01T07:47:39.515Z</time></trkpt><trkpt lat="42.3953249" lon="14.2339467"><ele>94.4</ele><time>2026-05-01T07:47:42.514Z</time></trkpt><trkpt lat="42.3952567" lon="14.2337773"><ele>98.0</ele><time>2026-05-01T07:47:44.515Z</time></trkpt><trkpt lat="42.395216" lon="14.2336549"><ele>98.0</ele><time>2026-05-01T07:47:45.515Z</time></trkpt><trkpt lat="42.395171" lon="14.2335156"><ele>98.0</ele><time>2026-05-01T07:47:46.513Z</time></trkpt><trkpt lat="42.395139" lon="14.2334066"><ele>98.0</ele><time>2026-05-01T07:47:47.514Z</time></trkpt><trkpt lat="42.3951084" lon="14.2333292"><ele>98.0</ele><time>2026-05-01T07:47:48.515Z</time></trkpt><trkpt lat="42.3950602" lon="14.2332082"><ele>98.0</ele><time>2026-05-01T07:47:50.514Z</time></trkpt><trkpt lat="42.3950183" lon="14.2330645"><ele>97.66666666666666</ele><time>2026-05-01T07:47:52.514Z</time></trkpt><trkpt lat="42.3949899" lon="14.2329819"><ele>97.33333333333333</ele><time>2026-05-01T07:47:53.514Z</time></trkpt><trkpt lat="42.3949549" lon="14.2329075"><ele>97.0</ele><time>2026-05-01T07:47:54.514Z</time></trkpt><trkpt lat="42.3949251" lon="14.2328244"><ele>96.66666666666666</ele><time>2026-05-01T07:47:55.514Z</time></trkpt><trkpt lat="42.3948942" lon="14.2327197"><ele>96.33333333333333</ele><time>2026-05-01T07:47:56.514Z</time></trkpt><trkpt lat="42.3948627" lon="14.232612"><ele>96.0</ele><time>2026-05-01T07:47:57.514Z</time></trkpt><trkpt lat="42.3948282" lon="14.2324967"><ele>96.0</ele><time>2026-05-01T07:47:58.513Z</time></trkpt><trkpt lat="42.3947985" lon="14.2323802"><ele>96.0</ele><time>2026-05-01T07:47:59.514Z</time></trkpt><trkpt lat="42.3947566" lon="14.2322605"><ele>96.0</ele><time>2026-05-01T07:48:00.514Z</time></trkpt><trkpt lat="42.3947242" lon="14.2321673"><ele>96.0</ele><time>2026-05-01T07:48:01.514Z</time></trkpt><trkpt lat="42.3946837" lon="14.2320606"><ele>96.0</ele><time>2026-05-01T07:48:02.514Z</time></trkpt><trkpt lat="42.3946432" lon="14.2319523"><ele>96.0</ele><time>2026-05-01T07:48:03.513Z</time></trkpt><trkpt lat="42.394595" lon="14.2318431"><ele>98.83333333333333</ele><time>2026-05-01T07:48:04.514Z</time></trkpt><trkpt lat="42.3945426" lon="14.2317324"><ele>101.66666666666666</ele><time>2026-05-01T07:48:05.515Z</time></trkpt><trkpt lat="42.3944889" lon="14.2316268"><ele>104.5</ele><time>2026-05-01T07:48:06.514Z</time></trkpt><trkpt lat="42.3944318" lon="14.2315294"><ele>107.33333333333333</ele><time>2026-05-01T07:48:07.515Z</time></trkpt><trkpt lat="42.3943843" lon="14.2314251"><ele>110.16666666666666</ele><time>2026-05-01T07:48:08.515Z</time></trkpt><trkpt lat="42.3943342" lon="14.2313576"><ele>113.0</ele><time>2026-05-01T07:48:09.513Z</time></trkpt><trkpt lat="42.3942861" lon="14.2312702"><ele>113.0</ele><time>2026-05-01T07:48:10.514Z</time></trkpt><trkpt lat="42.3942349" lon="14.2311787"><ele>113.00000000000001</ele><time>2026-05-01T07:48:11.514Z</time></trkpt><trkpt lat="42.3941846" lon="14.2310647"><ele>113.00000000000001</ele><time>2026-05-01T07:48:12.514Z</time></trkpt><trkpt lat="42.394121" lon="14.2309561"><ele>113.0</ele><time>2026-05-01T07:48:13.515Z</time></trkpt><trkpt lat="42.394043" lon="14.2308366"><ele>113.0</ele><time>2026-05-01T07:48:14.514Z</time></trkpt><trkpt lat="42.3939739" lon="14.2307287"><ele>113.0</ele><time>2026-05-01T07:48:15.515Z</time></trkpt><trkpt lat="42.3939135" lon="14.2306088"><ele>113.00000000000001</ele><time>2026-05-01T07:48:16.514Z</time></trkpt><trkpt lat="42.3938395" lon="14.2304882"><ele>113.00000000000001</ele><time>2026-05-01T07:48:17.515Z</time></trkpt><trkpt lat="42.3937825" lon="14.230349"><ele>113.0</ele><time>2026-05-01T07:48:18.513Z</time></trkpt><trkpt lat="42.3937318" lon="14.2302373"><ele>113.0</ele><time>2026-05-01T07:48:19.514Z</time></trkpt><trkpt lat="42.3936835" lon="14.2301199"><ele>116.16666666666666</ele><time>2026-05-01T07:48:20.513Z</time></trkpt><trkpt lat="42.3936176" lon="14.2300592"><ele>119.33333333333333</ele><time>2026-05-01T07:48:21.515Z</time></trkpt><trkpt lat="42.3935111" lon="14.2299689"><ele>122.5</ele><time>2026-05-01T07:48:23.514Z</time></trkpt><trkpt lat="42.3934535" lon="14.2299125"><ele>125.66666666666666</ele><time>2026-05-01T07:48:24.515Z</time></trkpt><trkpt lat="42.3933554" lon="14.2298846"><ele>128.83333333333334</ele><time>2026-05-01T07:48:25.514Z</time></trkpt><trkpt lat="42.3932919" lon="14.2298633"><ele>132.0</ele><time>2026-05-01T07:48:26.513Z</time></trkpt><trkpt lat="42.3932257" lon="14.229883"><ele>132.0</ele><time>2026-05-01T07:48:27.514Z</time></trkpt><trkpt lat="42.3931628" lon="14.2298913"><ele>132.0</ele><time>2026-05-01T07:48:28.513Z</time></trkpt><trkpt lat="42.3931227" lon="14.2300002"><ele>132.0</ele><time>2026-05-01T07:48:30.514Z</time></trkpt><trkpt lat="42.3931426" lon="14.2301103"><ele>132.0</ele><time>2026-05-01T07:48:31.514Z</time></trkpt><trkpt lat="42.3931506" lon="14.2302259"><ele>132.0</ele><time>2026-05-01T07:48:33.514Z</time></trkpt><trkpt lat="42.3931764" lon="14.2303359"><ele>132.0</ele><time>2026-05-01T07:57:45.51Z</time></trkpt><trkpt lat="42.3931843" lon="14.2304414"><ele>132.0</ele><time>2026-05-01T07:57:48.51Z</time></trkpt><trkpt lat="42.3931837" lon="14.2305269"><ele>132.0</ele><time>2026-05-01T07:58:32.51Z</time></trkpt><trkpt lat="42.3931889" lon="14.2306139"><ele>132.0</ele><time>2026-05-01T07:58:33.51Z</time></trkpt><trkpt lat="42.393179" lon="14.2307425"><ele>132.0</ele><time>2026-05-01T07:58:35.51Z</time></trkpt><trkpt lat="42.3931496" lon="14.230838"><ele>132.0</ele><time>2026-05-01T07:58:39.511Z</time></trkpt><trkpt lat="42.3931316" lon="14.2309742"><ele>132.0</ele><time>2026-05-01T07:58:41.51Z</time></trkpt><trkpt lat="42.3930675" lon="14.2310478"><ele>132.5</ele><time>2026-05-01T08:00:33.509Z</time></trkpt><trkpt lat="42.3930106" lon="14.2309873"><ele>133.0</ele><time>2026-05-01T08:00:35.509Z</time></trkpt><trkpt lat="42.392975" lon="14.2309094"><ele>133.5</ele><time>2026-05-01T08:00:36.509Z</time></trkpt><trkpt lat="42.3929394" lon="14.2308152"><ele>134.0</ele><time>2026-05-01T08:00:37.51Z</time></trkpt><trkpt lat="42.3928983" lon="14.2307303"><ele>134.5</ele><time>2026-05-01T08:00:38.509Z</time></trkpt><trkpt lat="42.3928614" lon="14.2306176"><ele>135.0</ele><time>2026-05-01T08:00:39.508Z</time></trkpt><trkpt lat="42.3928241" lon="14.2305125"><ele>138.4</ele><time>2026-05-01T08:00:40.509Z</time></trkpt><trkpt lat="42.3927768" lon="14.2304098"><ele>141.8</ele><time>2026-05-01T08:00:41.509Z</time></trkpt><trkpt lat="42.3927318" lon="14.2303036"><ele>145.2</ele><time>2026-05-01T08:00:42.508Z</time></trkpt><trkpt lat="42.3926518" lon="14.2301746"><ele>148.6</ele><time>2026-05-01T08:00:43.509Z</time></trkpt><trkpt lat="42.3925926" lon="14.2300646"><ele>152.0</ele><time>2026-05-01T08:00:44.509Z</time></trkpt><trkpt lat="42.3925375" lon="14.2299206"><ele>151.79999999999998</ele><time>2026-05-01T08:00:45.51Z</time></trkpt><trkpt lat="42.3924795" lon="14.2297863"><ele>151.6</ele><time>2026-05-01T08:00:46.509Z</time></trkpt><trkpt lat="42.3924249" lon="14.2296696"><ele>151.39999999999998</ele><time>2026-05-01T08:00:47.509Z</time></trkpt><trkpt lat="42.3923872" lon="14.2295505"><ele>151.2</ele><time>2026-05-01T08:00:48.509Z</time></trkpt><trkpt lat="42.3923408" lon="14.2294202"><ele>151.0</ele><time>2026-05-01T08:00:49.509Z</time></trkpt><trkpt lat="42.3922919" lon="14.2292977"><ele>151.0</ele><time>2026-05-01T08:00:50.508Z</time></trkpt><trkpt lat="42.3922645" lon="14.2291917"><ele>151.0</ele><time>2026-05-01T08:00:51.508Z</time></trkpt><trkpt lat="42.3922391" lon="14.2290486"><ele>151.0</ele><time>2026-05-01T08:00:52.509Z</time></trkpt><trkpt lat="42.3922144" lon="14.2289189"><ele>151.0</ele><time>2026-05-01T08:00:53.509Z</time></trkpt><trkpt lat="42.392188" lon="14.2287819"><ele>151.0</ele><time>2026-05-01T08:00:54.509Z</time></trkpt><trkpt lat="42.3921633" lon="14.2286496"><ele>153.2</ele><time>2026-05-01T08:00:55.51Z</time></trkpt><trkpt lat="42.392136" lon="14.2285177"><ele>155.39999999999998</ele><time>2026-05-01T08:00:56.509Z</time></trkpt><trkpt lat="42.3921106" lon="14.2284014"><ele>157.6</ele><time>2026-05-01T08:00:57.508Z</time></trkpt><trkpt lat="42.3920545" lon="14.2282816"><ele>159.79999999999998</ele><time>2026-05-01T08:00:58.509Z</time></trkpt><trkpt lat="42.3919839" lon="14.2281702"><ele>162.0</ele><time>2026-05-01T08:00:59.51Z</time></trkpt><trkpt lat="42.391915" lon="14.2280635"><ele>162.0</ele><time>2026-05-01T08:01:00.509Z</time></trkpt><trkpt lat="42.3918485" lon="14.2279587"><ele>162.0</ele><time>2026-05-01T08:01:01.509Z</time></trkpt><trkpt lat="42.3917885" lon="14.2278572"><ele>162.0</ele><time>2026-05-01T08:01:02.509Z</time></trkpt><trkpt lat="42.3917282" lon="14.2277792"><ele>162.0</ele><time>2026-05-01T08:01:03.509Z</time></trkpt><trkpt lat="42.3916646" lon="14.2277368"><ele>162.0</ele><time>2026-05-01T08:01:05.508Z</time></trkpt><trkpt lat="42.3916142" lon="14.2278232"><ele>162.0</ele><time>2026-05-01T08:01:12.509Z</time></trkpt><trkpt lat="42.3916412" lon="14.2280145"><ele>162.0</ele><time>2026-05-01T08:01:14.509Z</time></trkpt><trkpt lat="42.3916337" lon="14.2281461"><ele>162.0</ele><time>2026-05-01T08:01:15.51Z</time></trkpt><trkpt lat="42.3916089" lon="14.2282928"><ele>162.0</ele><time>2026-05-01T08:01:16.509Z</time></trkpt><trkpt lat="42.3915981" lon="14.2284461"><ele>162.0</ele><time>2026-05-01T08:01:17.509Z</time></trkpt><trkpt lat="42.39158" lon="14.2285923"><ele>162.0</ele><time>2026-05-01T08:01:18.509Z</time></trkpt><trkpt lat="42.3915584" lon="14.2287507"><ele>162.0</ele><time>2026-05-01T08:01:19.508Z</time></trkpt><trkpt lat="42.3915314" lon="14.2289153"><ele>162.0</ele><time>2026-05-01T08:01:20.509Z</time></trkpt><trkpt lat="42.3914981" lon="14.2290898"><ele>162.0</ele><time>2026-05-01T08:01:21.509Z</time></trkpt><trkpt lat="42.3914644" lon="14.2292746"><ele>162.0</ele><time>2026-05-01T08:01:22.509Z</time></trkpt><trkpt lat="42.3914259" lon="14.2294682"><ele>160.75</ele><time>2026-05-01T08:01:23.508Z</time></trkpt><trkpt lat="42.3913796" lon="14.2296655"><ele>159.5</ele><time>2026-05-01T08:01:24.509Z</time></trkpt><trkpt lat="42.3913362" lon="14.229857"><ele>158.25</ele><time>2026-05-01T08:01:25.509Z</time></trkpt><trkpt lat="42.3912987" lon="14.2300493"><ele>157.0</ele><time>2026-05-01T08:01:26.509Z</time></trkpt><trkpt lat="42.3912662" lon="14.230241"><ele>154.5</ele><time>2026-05-01T08:01:27.509Z</time></trkpt><trkpt lat="42.3912328" lon="14.2304307"><ele>152.0</ele><time>2026-05-01T08:01:28.509Z</time></trkpt><trkpt lat="42.3912002" lon="14.2306154"><ele>149.5</ele><time>2026-05-01T08:01:29.508Z</time></trkpt><trkpt lat="42.3911668" lon="14.2307929"><ele>147.0</ele><time>2026-05-01T08:01:30.508Z</time></trkpt><trkpt lat="42.391124" lon="14.23097"><ele>144.75</ele><time>2026-05-01T08:01:31.509Z</time></trkpt><trkpt lat="42.3910814" lon="14.2311333"><ele>142.5</ele><time>2026-05-01T08:01:32.509Z</time></trkpt><trkpt lat="42.3910316" lon="14.2312908"><ele>140.25</ele><time>2026-05-01T08:01:33.509Z</time></trkpt><trkpt lat="42.39098" lon="14.231442"><ele>138.0</ele><time>2026-05-01T08:01:34.509Z</time></trkpt><trkpt lat="42.3909351" lon="14.2315734"><ele>136.66666666666666</ele><time>2026-05-01T08:01:35.509Z</time></trkpt><trkpt lat="42.3908943" lon="14.2316819"><ele>135.33333333333334</ele><time>2026-05-01T08:01:36.508Z</time></trkpt><trkpt lat="42.3908476" lon="14.2317515"><ele>134.0</ele><time>2026-05-01T08:01:37.509Z</time></trkpt><trkpt lat="42.3907459" lon="14.231789"><ele>132.66666666666669</ele><time>2026-05-01T08:01:39.509Z</time></trkpt><trkpt lat="42.3906846" lon="14.2317505"><ele>131.33333333333334</ele><time>2026-05-01T08:01:40.509Z</time></trkpt><trkpt lat="42.3906081" lon="14.2316808"><ele>130.0</ele><time>2026-05-01T08:01:41.509Z</time></trkpt><trkpt lat="42.3905221" lon="14.2316015"><ele>130.75</ele><time>2026-05-01T08:01:42.509Z</time></trkpt><trkpt lat="42.3904199" lon="14.231511"><ele>131.5</ele><time>2026-05-01T08:01:43.509Z</time></trkpt><trkpt lat="42.390308" lon="14.2314107"><ele>132.25</ele><time>2026-05-01T08:01:44.509Z</time></trkpt><trkpt lat="42.3901872" lon="14.2313046"><ele>133.0</ele><time>2026-05-01T08:01:45.509Z</time></trkpt><trkpt lat="42.39006" lon="14.2311933"><ele>135.0</ele><time>2026-05-01T08:01:46.509Z</time></trkpt><trkpt lat="42.389927" lon="14.2310834"><ele>137.0</ele><time>2026-05-01T08:01:47.509Z</time></trkpt><trkpt lat="42.38979" lon="14.2309801"><ele>139.0</ele><time>2026-05-01T08:01:48.508Z</time></trkpt><trkpt lat="42.3896554" lon="14.2308948"><ele>139.25</ele><time>2026-05-01T08:01:49.509Z</time></trkpt><trkpt lat="42.3895182" lon="14.2308341"><ele>139.5</ele><time>2026-05-01T08:01:50.509Z</time></trkpt><trkpt lat="42.3893794" lon="14.2308066"><ele>139.75</ele><time>2026-05-01T08:01:51.508Z</time></trkpt><trkpt lat="42.3892354" lon="14.2307935"><ele>140.0</ele><time>2026-05-01T08:01:52.507Z</time></trkpt><trkpt lat="42.3890909" lon="14.2307973"><ele>140.0</ele><time>2026-05-01T08:01:53.508Z</time></trkpt><trkpt lat="42.388955" lon="14.2307965"><ele>140.0</ele><time>2026-05-01T08:01:54.509Z</time></trkpt><trkpt lat="42.3888305" lon="14.2307893"><ele>140.0</ele><time>2026-05-01T08:01:55.508Z</time></trkpt><trkpt lat="42.388711" lon="14.2307498"><ele>140.0</ele><time>2026-05-01T08:01:56.508Z</time></trkpt><trkpt lat="42.3886001" lon="14.2306935"><ele>140.8</ele><time>2026-05-01T08:01:57.508Z</time></trkpt><trkpt lat="42.3885016" lon="14.2306154"><ele>141.6</ele><time>2026-05-01T08:01:58.509Z</time></trkpt><trkpt lat="42.3884132" lon="14.2305244"><ele>142.4</ele><time>2026-05-01T08:01:59.507Z</time></trkpt><trkpt lat="42.3883418" lon="14.2304371"><ele>143.2</ele><time>2026-05-01T08:02:00.508Z</time></trkpt><trkpt lat="42.3882796" lon="14.2303561"><ele>144.0</ele><time>2026-05-01T08:02:01.508Z</time></trkpt><trkpt lat="42.3882206" lon="14.2302901"><ele>144.0</ele><time>2026-05-01T08:02:02.507Z</time></trkpt><trkpt lat="42.3881622" lon="14.230241"><ele>144.0</ele><time>2026-05-01T08:02:03.507Z</time></trkpt><trkpt lat="42.3880678" lon="14.2302425"><ele>144.0</ele><time>2026-05-01T08:02:05.508Z</time></trkpt><trkpt lat="42.388043" lon="14.2303672"><ele>144.0</ele><time>2026-05-01T08:02:07.508Z</time></trkpt><trkpt lat="42.3880141" lon="14.2304721"><ele>144.0</ele><time>2026-05-01T08:02:08.508Z</time></trkpt><trkpt lat="42.3879817" lon="14.2305855"><ele>144.0</ele><time>2026-05-01T08:02:09.508Z</time></trkpt><trkpt lat="42.3879423" lon="14.230723"><ele>142.5</ele><time>2026-05-01T08:02:10.508Z</time></trkpt><trkpt lat="42.3878993" lon="14.2308703"><ele>141.0</ele><time>2026-05-01T08:02:11.509Z</time></trkpt><trkpt lat="42.3878478" lon="14.2310297"><ele>139.5</ele><time>2026-05-01T08:02:12.508Z</time></trkpt><trkpt lat="42.3877915" lon="14.2311953"><ele>138.0</ele><time>2026-05-01T08:02:13.507Z</time></trkpt><trkpt lat="42.3877345" lon="14.2313663"><ele>137.25</ele><time>2026-05-01T08:02:14.508Z</time></trkpt><trkpt lat="42.38768" lon="14.2315349"><ele>136.5</ele><time>2026-05-01T08:02:15.509Z</time></trkpt><trkpt lat="42.3876325" lon="14.2317002"><ele>135.75</ele><time>2026-05-01T08:02:16.508Z</time></trkpt><trkpt lat="42.3876073" lon="14.231863"><ele>135.0</ele><time>2026-05-01T08:02:17.508Z</time></trkpt><trkpt lat="42.3876116" lon="14.2320216"><ele>135.0</ele><time>2026-05-01T08:02:18.507Z</time></trkpt><trkpt lat="42.3876313" lon="14.232187"><ele>135.0</ele><time>2026-05-01T08:02:19.509Z</time></trkpt><trkpt lat="42.3876589" lon="14.2323526"><ele>135.0</ele><time>2026-05-01T08:02:20.508Z</time></trkpt><trkpt lat="42.3876897" lon="14.2325201"><ele>135.0</ele><time>2026-05-01T08:02:21.508Z</time></trkpt><trkpt lat="42.3877173" lon="14.2326846"><ele>134.5</ele><time>2026-05-01T08:02:22.508Z</time></trkpt><trkpt lat="42.387743" lon="14.232847"><ele>134.0</ele><time>2026-05-01T08:02:23.508Z</time></trkpt><trkpt lat="42.3877733" lon="14.2330041"><ele>133.5</ele><time>2026-05-01T08:02:24.509Z</time></trkpt><trkpt lat="42.3877974" lon="14.2331703"><ele>133.0</ele><time>2026-05-01T08:02:25.508Z</time></trkpt><trkpt lat="42.387827" lon="14.2333284"><ele>132.25</ele><time>2026-05-01T08:02:26.508Z</time></trkpt><trkpt lat="42.387861" lon="14.2334775"><ele>131.5</ele><time>2026-05-01T08:02:27.508Z</time></trkpt><trkpt lat="42.3878881" lon="14.2336371"><ele>130.75</ele><time>2026-05-01T08:02:28.508Z</time></trkpt><trkpt lat="42.3879203" lon="14.2338012"><ele>130.0</ele><time>2026-05-01T08:02:29.508Z</time></trkpt><trkpt lat="42.3879519" lon="14.2339686"><ele>130.0</ele><time>2026-05-01T08:02:30.508Z</time></trkpt><trkpt lat="42.3879843" lon="14.2341369"><ele>130.0</ele><time>2026-05-01T08:02:31.508Z</time></trkpt><trkpt lat="42.388017" lon="14.2342981"><ele>130.0</ele><time>2026-05-01T08:02:32.507Z</time></trkpt><trkpt lat="42.388046" lon="14.2344555"><ele>130.0</ele><time>2026-05-01T08:02:33.508Z</time></trkpt><trkpt lat="42.388075" lon="14.2346334"><ele>130.0</ele><time>2026-05-01T08:02:34.508Z</time></trkpt><trkpt lat="42.3881027" lon="14.2347945"><ele>130.0</ele><time>2026-05-01T08:02:35.509Z</time></trkpt><trkpt lat="42.3881306" lon="14.234936"><ele>130.0</ele><time>2026-05-01T08:02:36.508Z</time></trkpt><trkpt lat="42.3881569" lon="14.2350781"><ele>130.0</ele><time>2026-05-01T08:02:37.508Z</time></trkpt><trkpt lat="42.3881731" lon="14.2351746"><ele>130.0</ele><time>2026-05-01T08:02:38.508Z</time></trkpt><trkpt lat="42.3881826" lon="14.2352712"><ele>129.83333333333334</ele><time>2026-05-01T08:02:39.508Z</time></trkpt><trkpt lat="42.3881356" lon="14.2353509"><ele>129.66666666666669</ele><time>2026-05-01T08:02:41.508Z</time></trkpt><trkpt lat="42.3880247" lon="14.2353729"><ele>129.5</ele><time>2026-05-01T08:02:43.507Z</time></trkpt><trkpt lat="42.3879506" lon="14.2353733"><ele>129.33333333333334</ele><time>2026-05-01T08:02:44.507Z</time></trkpt><trkpt lat="42.387867" lon="14.2353513"><ele>129.16666666666666</ele><time>2026-05-01T08:02:45.507Z</time></trkpt><trkpt lat="42.3877689" lon="14.2353366"><ele>129.0</ele><time>2026-05-01T08:02:46.508Z</time></trkpt><trkpt lat="42.3876741" lon="14.2353227"><ele>128.83333333333334</ele><time>2026-05-01T08:02:47.507Z</time></trkpt><trkpt lat="42.3875902" lon="14.2353067"><ele>128.66666666666666</ele><time>2026-05-01T08:02:48.509Z</time></trkpt><trkpt lat="42.3875229" lon="14.2352952"><ele>128.5</ele><time>2026-05-01T08:02:49.507Z</time></trkpt><trkpt lat="42.3874515" lon="14.2352187"><ele>128.33333333333331</ele><time>2026-05-01T08:02:51.509Z</time></trkpt><trkpt lat="42.3874244" lon="14.2351373"><ele>128.16666666666666</ele><time>2026-05-01T08:02:53.507Z</time></trkpt><trkpt lat="42.3874695" lon="14.2352199"><ele>128.0</ele><time>2026-05-01T08:03:00.507Z</time></trkpt><trkpt lat="42.3875414" lon="14.2352978"><ele>127.99999999999999</ele><time>2026-05-01T08:03:02.507Z</time></trkpt><trkpt lat="42.3876487" lon="14.2353389"><ele>128.0</ele><time>2026-05-01T08:03:04.507Z</time></trkpt><trkpt lat="42.3877142" lon="14.2353426"><ele>128.0</ele><time>2026-05-01T08:03:05.507Z</time></trkpt><trkpt lat="42.387787" lon="14.2353523"><ele>128.0</ele><time>2026-05-01T08:03:06.507Z</time></trkpt><trkpt lat="42.3878614" lon="14.2353587"><ele>127.99999999999999</ele><time>2026-05-01T08:03:07.509Z</time></trkpt><trkpt lat="42.387973" lon="14.2353681"><ele>128.0</ele><time>2026-05-01T08:03:09.508Z</time></trkpt><trkpt lat="42.3880557" lon="14.2353897"><ele>127.99999999999999</ele><time>2026-05-01T08:03:16.507Z</time></trkpt><trkpt lat="42.3881298" lon="14.2353779"><ele>128.0</ele><time>2026-05-01T08:03:18.508Z</time></trkpt><trkpt lat="42.3881943" lon="14.2354024"><ele>128.0</ele><time>2026-05-01T08:03:20.509Z</time></trkpt><trkpt lat="42.3881576" lon="14.2354966"><ele>128.0</ele><time>2026-05-01T08:03:23.509Z</time></trkpt><trkpt lat="42.3880965" lon="14.2355703"><ele>127.99999999999999</ele><time>2026-05-01T08:03:24.509Z</time></trkpt><trkpt lat="42.3880388" lon="14.2356588"><ele>128.0</ele><time>2026-05-01T08:03:25.508Z</time></trkpt><trkpt lat="42.3879703" lon="14.2357426"><ele>127.60000000000001</ele><time>2026-05-01T08:03:26.508Z</time></trkpt><trkpt lat="42.3878922" lon="14.2358462"><ele>127.20000000000002</ele><time>2026-05-01T08:03:27.508Z</time></trkpt><trkpt lat="42.3878121" lon="14.2359399"><ele>126.8</ele><time>2026-05-01T08:03:28.508Z</time></trkpt><trkpt lat="42.3877366" lon="14.2360375"><ele>126.4</ele><time>2026-05-01T08:03:29.508Z</time></trkpt><trkpt lat="42.3876574" lon="14.2361316"><ele>126.0</ele><time>2026-05-01T08:03:30.508Z</time></trkpt><trkpt lat="42.3875757" lon="14.2362187"><ele>126.0</ele><time>2026-05-01T08:03:31.508Z</time></trkpt><trkpt lat="42.3875034" lon="14.2363156"><ele>126.0</ele><time>2026-05-01T08:03:32.509Z</time></trkpt><trkpt lat="42.3874248" lon="14.236418"><ele>126.0</ele><time>2026-05-01T08:03:33.508Z</time></trkpt><trkpt lat="42.3873414" lon="14.2365288"><ele>126.0</ele><time>2026-05-01T08:03:34.508Z</time></trkpt><trkpt lat="42.3872595" lon="14.2366148"><ele>126.0</ele><time>2026-05-01T08:03:35.508Z</time></trkpt><trkpt lat="42.3871869" lon="14.2367091"><ele>122.8</ele><time>2026-05-01T08:03:36.508Z</time></trkpt><trkpt lat="42.3871083" lon="14.2367879"><ele>119.6</ele><time>2026-05-01T08:03:37.508Z</time></trkpt><trkpt lat="42.3870281" lon="14.236879"><ele>116.4</ele><time>2026-05-01T08:03:38.508Z</time></trkpt><trkpt lat="42.3869432" lon="14.2369776"><ele>113.2</ele><time>2026-05-01T08:03:39.508Z</time></trkpt><trkpt lat="42.3868535" lon="14.2370891"><ele>110.0</ele><time>2026-05-01T08:03:40.508Z</time></trkpt><trkpt lat="42.3867558" lon="14.2372071"><ele>109.0</ele><time>2026-05-01T08:03:41.508Z</time></trkpt><trkpt lat="42.3866587" lon="14.2373221"><ele>108.0</ele><time>2026-05-01T08:03:42.507Z</time></trkpt><trkpt lat="42.3865565" lon="14.2374452"><ele>107.0</ele><time>2026-05-01T08:03:43.507Z</time></trkpt><trkpt lat="42.3864515" lon="14.2375649"><ele>106.0</ele><time>2026-05-01T08:03:44.509Z</time></trkpt><trkpt lat="42.3863523" lon="14.2376876"><ele>104.6</ele><time>2026-05-01T08:03:45.507Z</time></trkpt><trkpt lat="42.3862588" lon="14.2377989"><ele>103.19999999999999</ele><time>2026-05-01T08:03:46.508Z</time></trkpt><trkpt lat="42.3861726" lon="14.2379015"><ele>101.80000000000001</ele><time>2026-05-01T08:03:47.507Z</time></trkpt><trkpt lat="42.3860933" lon="14.2379988"><ele>100.4</ele><time>2026-05-01T08:03:48.509Z</time></trkpt><trkpt lat="42.3860213" lon="14.238092"><ele>99.0</ele><time>2026-05-01T08:03:49.508Z</time></trkpt><trkpt lat="42.3859589" lon="14.2381659"><ele>98.16666666666667</ele><time>2026-05-01T08:03:50.508Z</time></trkpt><trkpt lat="42.385902" lon="14.2382362"><ele>97.33333333333333</ele><time>2026-05-01T08:03:51.507Z</time></trkpt><trkpt lat="42.3858467" lon="14.2383073"><ele>96.5</ele><time>2026-05-01T08:03:52.508Z</time></trkpt><trkpt lat="42.3857839" lon="14.2383812"><ele>95.66666666666666</ele><time>2026-05-01T08:03:53.509Z</time></trkpt><trkpt lat="42.3857179" lon="14.2384545"><ele>94.83333333333333</ele><time>2026-05-01T08:03:54.508Z</time></trkpt><trkpt lat="42.3856354" lon="14.2385256"><ele>94.0</ele><time>2026-05-01T08:03:55.508Z</time></trkpt><trkpt lat="42.3855603" lon="14.2385969"><ele>93.6</ele><time>2026-05-01T08:03:56.508Z</time></trkpt><trkpt lat="42.3854669" lon="14.2386743"><ele>93.2</ele><time>2026-05-01T08:03:57.507Z</time></trkpt><trkpt lat="42.3853839" lon="14.2387562"><ele>92.8</ele><time>2026-05-01T08:03:58.508Z</time></trkpt><trkpt lat="42.385324" lon="14.2388512"><ele>92.39999999999999</ele><time>2026-05-01T08:03:59.508Z</time></trkpt><trkpt lat="42.3852581" lon="14.2389387"><ele>92.0</ele><time>2026-05-01T08:04:00.508Z</time></trkpt><trkpt lat="42.3851847" lon="14.2390435"><ele>90.6</ele><time>2026-05-01T08:04:01.508Z</time></trkpt><trkpt lat="42.3851071" lon="14.2391445"><ele>89.19999999999999</ele><time>2026-05-01T08:04:02.509Z</time></trkpt><trkpt lat="42.3850269" lon="14.2392467"><ele>87.8</ele><time>2026-05-01T08:04:03.508Z</time></trkpt><trkpt lat="42.3849421" lon="14.2393473"><ele>86.4</ele><time>2026-05-01T08:04:04.508Z</time></trkpt><trkpt lat="42.3848663" lon="14.2394423"><ele>85.0</ele><time>2026-05-01T08:04:05.508Z</time></trkpt><trkpt lat="42.3847835" lon="14.2395457"><ele>85.0</ele><time>2026-05-01T08:04:06.508Z</time></trkpt><trkpt lat="42.3847019" lon="14.2396414"><ele>85.0</ele><time>2026-05-01T08:04:07.508Z</time></trkpt><trkpt lat="42.3846168" lon="14.2397272"><ele>85.0</ele><time>2026-05-01T08:04:08.508Z</time></trkpt><trkpt lat="42.3845362" lon="14.2398245"><ele>85.0</ele><time>2026-05-01T08:04:09.507Z</time></trkpt><trkpt lat="42.384449" lon="14.239917"><ele>85.0</ele><time>2026-05-01T08:04:10.508Z</time></trkpt><trkpt lat="42.3843648" lon="14.2400165"><ele>82.6</ele><time>2026-05-01T08:04:11.508Z</time></trkpt><trkpt lat="42.3842824" lon="14.2401166"><ele>80.2</ele><time>2026-05-01T08:04:12.508Z</time></trkpt><trkpt lat="42.384212" lon="14.2402054"><ele>77.8</ele><time>2026-05-01T08:04:13.509Z</time></trkpt><trkpt lat="42.3841338" lon="14.2402997"><ele>75.4</ele><time>2026-05-01T08:04:14.508Z</time></trkpt><trkpt lat="42.3840588" lon="14.240379"><ele>73.0</ele><time>2026-05-01T08:04:15.508Z</time></trkpt><trkpt lat="42.3839907" lon="14.2404444"><ele>73.0</ele><time>2026-05-01T08:04:16.508Z</time></trkpt><trkpt lat="42.3839304" lon="14.2405172"><ele>73.0</ele><time>2026-05-01T08:04:17.508Z</time></trkpt><trkpt lat="42.3838714" lon="14.2405978"><ele>73.0</ele><time>2026-05-01T08:04:18.507Z</time></trkpt><trkpt lat="42.3838094" lon="14.2406778"><ele>73.0</ele><time>2026-05-01T08:04:19.507Z</time></trkpt><trkpt lat="42.3837321" lon="14.2407681"><ele>73.0</ele><time>2026-05-01T08:04:21.508Z</time></trkpt><trkpt lat="42.383682" lon="14.2408305"><ele>73.0</ele><time>2026-05-01T08:04:24.507Z</time></trkpt><trkpt lat="42.3836314" lon="14.2408931"><ele>46.0</ele><time>2026-05-01T08:04:31.507Z</time></trkpt><trkpt lat="42.3827318" lon="14.2417877"><ele>46.0</ele><time>2026-05-01T08:06:24.507Z</time></trkpt><trkpt lat="42.3826076" lon="14.2416465"><ele>46.0</ele><time>2026-05-01T08:06:29.507Z</time></trkpt><trkpt lat="42.3825249" lon="14.2415706"><ele>46.0</ele><time>2026-05-01T08:06:30.506Z</time></trkpt><trkpt lat="42.3824629" lon="14.2415122"><ele>46.0</ele><time>2026-05-01T08:06:31.506Z</time></trkpt><trkpt lat="42.382385" lon="14.2414508"><ele>46.0</ele><time>2026-05-01T08:06:32.507Z</time></trkpt><trkpt lat="42.3823224" lon="14.2414011"><ele>46.333333333333336</ele><time>2026-05-01T08:06:33.507Z</time></trkpt><trkpt lat="42.3822569" lon="14.2413543"><ele>46.66666666666667</ele><time>2026-05-01T08:06:34.507Z</time></trkpt><trkpt lat="42.3821893" lon="14.2413008"><ele>47.0</ele><time>2026-05-01T08:06:35.507Z</time></trkpt><trkpt lat="42.3821134" lon="14.2412326"><ele>47.333333333333336</ele><time>2026-05-01T08:06:36.507Z</time></trkpt><trkpt lat="42.3820365" lon="14.2411531"><ele>47.666666666666664</ele><time>2026-05-01T08:06:37.508Z</time></trkpt><trkpt lat="42.3819559" lon="14.2410684"><ele>48.0</ele><time>2026-05-01T08:06:38.507Z</time></trkpt><trkpt lat="42.381877" lon="14.2409831"><ele>48.0</ele><time>2026-05-01T08:06:39.506Z</time></trkpt><trkpt lat="42.3818075" lon="14.2409089"><ele>48.0</ele><time>2026-05-01T08:06:40.506Z</time></trkpt><trkpt lat="42.3817247" lon="14.2408353"><ele>48.0</ele><time>2026-05-01T08:06:41.507Z</time></trkpt><trkpt lat="42.3816306" lon="14.2407522"><ele>48.0</ele><time>2026-05-01T08:06:42.507Z</time></trkpt><trkpt lat="42.38152" lon="14.2406631"><ele>48.0</ele><time>2026-05-01T08:06:43.507Z</time></trkpt><trkpt lat="42.3813978" lon="14.2405602"><ele>50.33333333333333</ele><time>2026-05-01T08:06:44.507Z</time></trkpt><trkpt lat="42.381265" lon="14.2404578"><ele>52.666666666666664</ele><time>2026-05-01T08:06:45.506Z</time></trkpt><trkpt lat="42.3811244" lon="14.2403392"><ele>55.0</ele><time>2026-05-01T08:06:46.507Z</time></trkpt><trkpt lat="42.3809812" lon="14.2402106"><ele>55.0</ele><time>2026-05-01T08:06:47.507Z</time></trkpt><trkpt lat="42.3808363" lon="14.2400799"><ele>55.0</ele><time>2026-05-01T08:06:48.507Z</time></trkpt><trkpt lat="42.3806987" lon="14.2399499"><ele>55.0</ele><time>2026-05-01T08:06:49.507Z</time></trkpt><trkpt lat="42.380572" lon="14.2398349"><ele>55.5</ele><time>2026-05-01T08:06:50.506Z</time></trkpt><trkpt lat="42.3804749" lon="14.2397266"><ele>56.0</ele><time>2026-05-01T08:06:51.505Z</time></trkpt><trkpt lat="42.3803875" lon="14.2396008"><ele>56.5</ele><time>2026-05-01T08:06:52.506Z</time></trkpt><trkpt lat="42.3803067" lon="14.2394761"><ele>57.0</ele><time>2026-05-01T08:06:53.505Z</time></trkpt><trkpt lat="42.3802538" lon="14.2393794"><ele>57.0</ele><time>2026-05-01T08:06:54.507Z</time></trkpt><trkpt lat="42.3802047" lon="14.2393234"><ele>57.0</ele><time>2026-05-01T08:06:55.506Z</time></trkpt><trkpt lat="42.3801498" lon="14.2392655"><ele>57.0</ele><time>2026-05-01T08:06:56.506Z</time></trkpt><trkpt lat="42.380093" lon="14.2391456"><ele>57.0</ele><time>2026-05-01T08:06:58.506Z</time></trkpt><trkpt lat="42.3800703" lon="14.2390568"><ele>57.0</ele><time>2026-05-01T08:06:59.506Z</time></trkpt><trkpt lat="42.3799956" lon="14.2390915"><ele>57.0</ele><time>2026-05-01T08:07:07.507Z</time></trkpt><trkpt lat="42.3799493" lon="14.2391675"><ele>57.0</ele><time>2026-05-01T08:07:08.506Z</time></trkpt><trkpt lat="42.37989" lon="14.2392332"><ele>57.0</ele><time>2026-05-01T08:07:09.505Z</time></trkpt><trkpt lat="42.3798394" lon="14.2393084"><ele>57.0</ele><time>2026-05-01T08:07:10.505Z</time></trkpt><trkpt lat="42.3797677" lon="14.2393662"><ele>57.0</ele><time>2026-05-01T08:07:11.505Z</time></trkpt><trkpt lat="42.3797017" lon="14.2394246"><ele>57.0</ele><time>2026-05-01T08:07:12.506Z</time></trkpt><trkpt lat="42.3796368" lon="14.2394821"><ele>57.0</ele><time>2026-05-01T08:07:13.507Z</time></trkpt><trkpt lat="42.3795749" lon="14.2395267"><ele>56.42857142857142</ele><time>2026-05-01T08:07:14.506Z</time></trkpt><trkpt lat="42.3795049" lon="14.2395706"><ele>55.85714285714285</ele><time>2026-05-01T08:07:15.506Z</time></trkpt><trkpt lat="42.3794349" lon="14.2395945"><ele>55.285714285714285</ele><time>2026-05-01T08:07:16.505Z</time></trkpt><trkpt lat="42.3793603" lon="14.2396203"><ele>54.71428571428571</ele><time>2026-05-01T08:07:17.505Z</time></trkpt><trkpt lat="42.3792944" lon="14.2396512"><ele>54.14285714285714</ele><time>2026-05-01T08:07:18.506Z</time></trkpt><trkpt lat="42.3792279" lon="14.2396787"><ele>53.57142857142857</ele><time>2026-05-01T08:07:19.506Z</time></trkpt><trkpt lat="42.3791632" lon="14.2397099"><ele>53.0</ele><time>2026-05-01T08:07:20.506Z</time></trkpt><trkpt lat="42.3790796" lon="14.2397467"><ele>52.00000000000001</ele><time>2026-05-01T08:07:22.506Z</time></trkpt><trkpt lat="42.3790295" lon="14.2398017"><ele>51.0</ele><time>2026-05-01T08:07:41.507Z</time></trkpt><trkpt lat="42.378982" lon="14.2399193"><ele>50.0</ele><time>2026-05-01T08:07:44.506Z</time></trkpt><trkpt lat="42.378895" lon="14.240007"><ele>49.0</ele><time>2026-05-01T08:07:46.506Z</time></trkpt><trkpt lat="42.3788088" lon="14.2400428"><ele>48.0</ele><time>2026-05-01T08:07:48.505Z</time></trkpt><trkpt lat="42.3787587" lon="14.240096"><ele>47.0</ele><time>2026-05-01T08:07:51.505Z</time></trkpt><trkpt lat="42.3788178" lon="14.2401272"><ele>47.0</ele><time>2026-05-01T08:07:53.507Z</time></trkpt><trkpt lat="42.3789065" lon="14.2400579"><ele>47.0</ele><time>2026-05-01T08:07:55.505Z</time></trkpt><trkpt lat="42.3789543" lon="14.2399632"><ele>47.0</ele><time>2026-05-01T08:07:56.506Z</time></trkpt><trkpt lat="42.379001" lon="14.2398712"><ele>47.0</ele><time>2026-05-01T08:07:58.507Z</time></trkpt><trkpt lat="42.3790308" lon="14.2397938"><ele>47.0</ele><time>2026-05-01T08:08:01.505Z</time></trkpt><trkpt lat="42.3790222" lon="14.2396928"><ele>47.0</ele><time>2026-05-01T08:08:03.506Z</time></trkpt><trkpt lat="42.3790116" lon="14.2395399"><ele>48.2</ele><time>2026-05-01T08:08:05.506Z</time></trkpt><trkpt lat="42.3790114" lon="14.2394227"><ele>49.400000000000006</ele><time>2026-05-01T08:08:07.507Z</time></trkpt><trkpt lat="42.3790063" lon="14.2392446"><ele>50.599999999999994</ele><time>2026-05-01T08:08:09.506Z</time></trkpt><trkpt lat="42.3790036" lon="14.2391041"><ele>51.8</ele><time>2026-05-01T08:08:11.506Z</time></trkpt><trkpt lat="42.379001" lon="14.2389729"><ele>53.0</ele><time>2026-05-01T08:08:13.506Z</time></trkpt><trkpt lat="42.3789867" lon="14.2388603"><ele>53.333333333333336</ele><time>2026-05-01T08:08:14.506Z</time></trkpt><trkpt lat="42.3789815" lon="14.2387435"><ele>53.66666666666667</ele><time>2026-05-01T08:08:15.506Z</time></trkpt><trkpt lat="42.3789698" lon="14.2386275"><ele>54.0</ele><time>2026-05-01T08:08:16.507Z</time></trkpt><trkpt lat="42.3789504" lon="14.2385036"><ele>54.33333333333333</ele><time>2026-05-01T08:08:17.506Z</time></trkpt><trkpt lat="42.3789363" lon="14.2383826"><ele>54.666666666666664</ele><time>2026-05-01T08:08:18.506Z</time></trkpt><trkpt lat="42.3789104" lon="14.2382988"><ele>55.0</ele><time>2026-05-01T08:08:19.506Z</time></trkpt><trkpt lat="42.378876" lon="14.2382042"><ele>57.8</ele><time>2026-05-01T08:08:20.506Z</time></trkpt><trkpt lat="42.3788259" lon="14.2380942"><ele>60.6</ele><time>2026-05-01T08:08:22.506Z</time></trkpt><trkpt lat="42.3787632" lon="14.2379892"><ele>63.400000000000006</ele><time>2026-05-01T08:08:24.506Z</time></trkpt><trkpt lat="42.3787126" lon="14.2379227"><ele>66.2</ele><time>2026-05-01T08:08:25.505Z</time></trkpt><trkpt lat="42.378647" lon="14.2378257"><ele>69.0</ele><time>2026-05-01T08:08:26.506Z</time></trkpt><trkpt lat="42.3785846" lon="14.2377362"><ele>69.0</ele><time>2026-05-01T08:08:27.507Z</time></trkpt><trkpt lat="42.3785097" lon="14.2376302"><ele>69.0</ele><time>2026-05-01T08:08:28.506Z</time></trkpt><trkpt lat="42.3784477" lon="14.2375287"><ele>69.0</ele><time>2026-05-01T08:08:29.506Z</time></trkpt><trkpt lat="42.3783927" lon="14.237459"><ele>69.0</ele><time>2026-05-01T08:08:30.506Z</time></trkpt><trkpt lat="42.3783504" lon="14.2373785"><ele>69.0</ele><time>2026-05-01T08:08:32.506Z</time></trkpt><trkpt lat="42.3782912" lon="14.2372428"><ele>70.8</ele><time>2026-05-01T08:08:34.506Z</time></trkpt><trkpt lat="42.3782588" lon="14.2371695"><ele>72.60000000000001</ele><time>2026-05-01T08:08:35.505Z</time></trkpt><trkpt lat="42.3782064" lon="14.2370419"><ele>74.4</ele><time>2026-05-01T08:08:37.506Z</time></trkpt><trkpt lat="42.3781496" lon="14.2368924"><ele>76.2</ele><time>2026-05-01T08:08:39.505Z</time></trkpt><trkpt lat="42.3781152" lon="14.2367984"><ele>78.0</ele><time>2026-05-01T08:08:40.507Z</time></trkpt><trkpt lat="42.378074" lon="14.2366982"><ele>78.0</ele><time>2026-05-01T08:08:41.505Z</time></trkpt><trkpt lat="42.3780401" lon="14.2366088"><ele>78.0</ele><time>2026-05-01T08:08:42.507Z</time></trkpt><trkpt lat="42.3780086" lon="14.2365246"><ele>78.0</ele><time>2026-05-01T08:08:43.506Z</time></trkpt><trkpt lat="42.3779804" lon="14.2364428"><ele>78.0</ele><time>2026-05-01T08:08:44.507Z</time></trkpt><trkpt lat="42.3779351" lon="14.2363076"><ele>78.0</ele><time>2026-05-01T08:08:46.506Z</time></trkpt><trkpt lat="42.3778875" lon="14.2361836"><ele>78.0</ele><time>2026-05-01T08:08:48.505Z</time></trkpt><trkpt lat="42.3778541" lon="14.2360891"><ele>80.5</ele><time>2026-05-01T08:08:49.506Z</time></trkpt><trkpt lat="42.3778192" lon="14.2359954"><ele>83.0</ele><time>2026-05-01T08:08:50.506Z</time></trkpt><trkpt lat="42.3777755" lon="14.2358597"><ele>85.5</ele><time>2026-05-01T08:08:52.506Z</time></trkpt><trkpt lat="42.3777447" lon="14.235777"><ele>88.0</ele><time>2026-05-01T08:08:53.505Z</time></trkpt><trkpt lat="42.3777091" lon="14.2356721"><ele>90.5</ele><time>2026-05-01T08:08:55.507Z</time></trkpt><trkpt lat="42.377691" lon="14.2355898"><ele>93.0</ele><time>2026-05-01T08:08:56.506Z</time></trkpt><trkpt lat="42.3776661" lon="14.2354975"><ele>94.16666666666667</ele><time>2026-05-01T08:08:57.505Z</time></trkpt><trkpt lat="42.3776356" lon="14.2354076"><ele>95.33333333333334</ele><time>2026-05-01T08:08:58.506Z</time></trkpt><trkpt lat="42.377597" lon="14.2353018"><ele>96.5</ele><time>2026-05-01T08:08:59.507Z</time></trkpt><trkpt lat="42.3775614" lon="14.2351826"><ele>97.66666666666667</ele><time>2026-05-01T08:09:00.506Z</time></trkpt><trkpt lat="42.3775234" lon="14.2350775"><ele>98.83333333333334</ele><time>2026-05-01T08:09:01.507Z</time></trkpt><trkpt lat="42.3774905" lon="14.2349657"><ele>100.0</ele><time>2026-05-01T08:09:02.506Z</time></trkpt><trkpt lat="42.3774438" lon="14.2348577"><ele>100.66666666666667</ele><time>2026-05-01T08:09:03.506Z</time></trkpt><trkpt lat="42.377413" lon="14.2347465"><ele>101.33333333333334</ele><time>2026-05-01T08:09:04.506Z</time></trkpt><trkpt lat="42.3773944" lon="14.2346413"><ele>102.0</ele><time>2026-05-01T08:09:05.507Z</time></trkpt><trkpt lat="42.377363" lon="14.2345317"><ele>102.66666666666666</ele><time>2026-05-01T08:09:06.506Z</time></trkpt><trkpt lat="42.3773348" lon="14.2344226"><ele>103.33333333333333</ele><time>2026-05-01T08:09:07.507Z</time></trkpt><trkpt lat="42.3773026" lon="14.2343122"><ele>104.0</ele><time>2026-05-01T08:09:08.506Z</time></trkpt><trkpt lat="42.3772698" lon="14.2341922"><ele>104.0</ele><time>2026-05-01T08:09:09.505Z</time></trkpt><trkpt lat="42.3772308" lon="14.2340769"><ele>104.0</ele><time>2026-05-01T08:09:10.506Z</time></trkpt><trkpt lat="42.377182" lon="14.2339635"><ele>104.0</ele><time>2026-05-01T08:09:11.506Z</time></trkpt><trkpt lat="42.3771259" lon="14.2338479"><ele>104.0</ele><time>2026-05-01T08:09:12.506Z</time></trkpt><trkpt lat="42.3770844" lon="14.2337601"><ele>104.0</ele><time>2026-05-01T08:09:13.506Z</time></trkpt><trkpt lat="42.3770372" lon="14.2336646"><ele>105.33333333333333</ele><time>2026-05-01T08:09:14.505Z</time></trkpt><trkpt lat="42.3769896" lon="14.2335657"><ele>106.66666666666666</ele><time>2026-05-01T08:09:15.504Z</time></trkpt><trkpt lat="42.3769392" lon="14.2334644"><ele>108.0</ele><time>2026-05-01T08:09:16.505Z</time></trkpt><trkpt lat="42.3768806" lon="14.2333706"><ele>109.33333333333334</ele><time>2026-05-01T08:09:17.505Z</time></trkpt><trkpt lat="42.3768276" lon="14.2332766"><ele>110.66666666666667</ele><time>2026-05-01T08:09:18.505Z</time></trkpt><trkpt lat="42.3767768" lon="14.2331732"><ele>112.0</ele><time>2026-05-01T08:09:19.505Z</time></trkpt><trkpt lat="42.3767322" lon="14.2330769"><ele>112.0</ele><time>2026-05-01T08:09:20.505Z</time></trkpt><trkpt lat="42.3767068" lon="14.2329429"><ele>111.99999999999999</ele><time>2026-05-01T08:09:21.506Z</time></trkpt><trkpt lat="42.3766673" lon="14.2328233"><ele>111.99999999999999</ele><time>2026-05-01T08:09:22.505Z</time></trkpt><trkpt lat="42.3766247" lon="14.2326979"><ele>112.0</ele><time>2026-05-01T08:09:23.505Z</time></trkpt><trkpt lat="42.3765871" lon="14.2325746"><ele>112.0</ele><time>2026-05-01T08:09:24.505Z</time></trkpt><trkpt lat="42.3765583" lon="14.232482"><ele>112.0</ele><time>2026-05-01T08:09:25.505Z</time></trkpt><trkpt lat="42.3765406" lon="14.2323935"><ele>111.99999999999999</ele><time>2026-05-01T08:09:26.504Z</time></trkpt><trkpt lat="42.3764981" lon="14.2322541"><ele>111.99999999999999</ele><time>2026-05-01T08:09:28.505Z</time></trkpt><trkpt lat="42.3764416" lon="14.2321072"><ele>112.0</ele><time>2026-05-01T08:09:30.504Z</time></trkpt><trkpt lat="42.3763888" lon="14.2319631"><ele>112.0</ele><time>2026-05-01T08:09:32.505Z</time></trkpt><trkpt lat="42.3763544" lon="14.2318191"><ele>112.66666666666667</ele><time>2026-05-01T08:09:34.506Z</time></trkpt><trkpt lat="42.3763155" lon="14.2316947"><ele>113.33333333333334</ele><time>2026-05-01T08:09:36.505Z</time></trkpt><trkpt lat="42.3762639" lon="14.231546"><ele>114.0</ele><time>2026-05-01T08:09:38.504Z</time></trkpt><trkpt lat="42.3762387" lon="14.231453"><ele>114.66666666666666</ele><time>2026-05-01T08:09:39.504Z</time></trkpt><trkpt lat="42.3762088" lon="14.2313597"><ele>115.33333333333333</ele><time>2026-05-01T08:09:40.505Z</time></trkpt><trkpt lat="42.3761748" lon="14.2312625"><ele>116.0</ele><time>2026-05-01T08:09:41.505Z</time></trkpt><trkpt lat="42.3761494" lon="14.2311583"><ele>116.16666666666666</ele><time>2026-05-01T08:09:42.505Z</time></trkpt><trkpt lat="42.3761171" lon="14.2310491"><ele>116.33333333333333</ele><time>2026-05-01T08:09:43.505Z</time></trkpt><trkpt lat="42.3760825" lon="14.2309472"><ele>116.5</ele><time>2026-05-01T08:09:44.505Z</time></trkpt><trkpt lat="42.3760496" lon="14.2308412"><ele>116.66666666666666</ele><time>2026-05-01T08:09:45.505Z</time></trkpt><trkpt lat="42.3760196" lon="14.230736"><ele>116.83333333333333</ele><time>2026-05-01T08:09:46.504Z</time></trkpt><trkpt lat="42.3759907" lon="14.2306318"><ele>117.0</ele><time>2026-05-01T08:09:47.504Z</time></trkpt><trkpt lat="42.37596" lon="14.2305214"><ele>117.5</ele><time>2026-05-01T08:09:48.505Z</time></trkpt><trkpt lat="42.3759265" lon="14.2304107"><ele>118.0</ele><time>2026-05-01T08:09:49.505Z</time></trkpt><trkpt lat="42.3758957" lon="14.2303041"><ele>118.5</ele><time>2026-05-01T08:09:50.505Z</time></trkpt><trkpt lat="42.3758687" lon="14.2302055"><ele>119.0</ele><time>2026-05-01T08:09:51.505Z</time></trkpt><trkpt lat="42.3758396" lon="14.230097"><ele>119.5</ele><time>2026-05-01T08:09:52.504Z</time></trkpt><trkpt lat="42.3758084" lon="14.2300018"><ele>120.0</ele><time>2026-05-01T08:09:53.505Z</time></trkpt><trkpt lat="42.375789" lon="14.2299044"><ele>120.2</ele><time>2026-05-01T08:09:54.505Z</time></trkpt><trkpt lat="42.3757748" lon="14.2297997"><ele>120.4</ele><time>2026-05-01T08:09:55.504Z</time></trkpt><trkpt lat="42.3757652" lon="14.2296949"><ele>120.6</ele><time>2026-05-01T08:09:56.505Z</time></trkpt><trkpt lat="42.3757481" lon="14.2295346"><ele>120.8</ele><time>2026-05-01T08:09:58.505Z</time></trkpt><trkpt lat="42.3757274" lon="14.2293814"><ele>121.0</ele><time>2026-05-01T08:10:00.504Z</time></trkpt><trkpt lat="42.3757042" lon="14.2292978"><ele>121.00000000000001</ele><time>2026-05-01T08:10:01.504Z</time></trkpt><trkpt lat="42.3756538" lon="14.2291833"><ele>121.0</ele><time>2026-05-01T08:10:03.506Z</time></trkpt><trkpt lat="42.3756263" lon="14.2290827"><ele>121.0</ele><time>2026-05-01T08:10:05.505Z</time></trkpt><trkpt lat="42.3756047" lon="14.2289995"><ele>121.0</ele><time>2026-05-01T08:10:12.504Z</time></trkpt><trkpt lat="42.3756205" lon="14.2291432"><ele>121.00000000000001</ele><time>2026-05-01T08:10:15.505Z</time></trkpt><trkpt lat="42.3756303" lon="14.2292542"><ele>121.0</ele><time>2026-05-01T08:10:18.505Z</time></trkpt><trkpt lat="42.3756219" lon="14.2293575"><ele>121.00000000000001</ele><time>2026-05-01T08:10:21.505Z</time></trkpt><trkpt lat="42.3755614" lon="14.2295171"><ele>121.0</ele><time>2026-05-01T08:10:23.505Z</time></trkpt><trkpt lat="42.3755135" lon="14.229605"><ele>121.0</ele><time>2026-05-01T08:10:24.504Z</time></trkpt><trkpt lat="42.3754669" lon="14.2296856"><ele>121.0</ele><time>2026-05-01T08:10:25.506Z</time></trkpt><trkpt lat="42.3754303" lon="14.2297552"><ele>121.00000000000001</ele><time>2026-05-01T08:10:26.504Z</time></trkpt><trkpt lat="42.3753896" lon="14.2298401"><ele>121.0</ele><time>2026-05-01T08:10:27.505Z</time></trkpt><trkpt lat="42.3753438" lon="14.2299437"><ele>121.6</ele><time>2026-05-01T08:10:28.505Z</time></trkpt><trkpt lat="42.375303" lon="14.2300581"><ele>122.19999999999999</ele><time>2026-05-01T08:10:29.505Z</time></trkpt><trkpt lat="42.3752604" lon="14.230176"><ele>122.80000000000001</ele><time>2026-05-01T08:10:30.505Z</time></trkpt><trkpt lat="42.3752131" lon="14.2302942"><ele>123.4</ele><time>2026-05-01T08:10:31.504Z</time></trkpt><trkpt lat="42.3751653" lon="14.2304025"><ele>124.0</ele><time>2026-05-01T08:10:32.505Z</time></trkpt><trkpt lat="42.3751234" lon="14.2305124"><ele>124.0</ele><time>2026-05-01T08:10:33.506Z</time></trkpt><trkpt lat="42.375097" lon="14.230633"><ele>124.0</ele><time>2026-05-01T08:10:34.506Z</time></trkpt><trkpt lat="42.3750825" lon="14.2307556"><ele>124.0</ele><time>2026-05-01T08:10:35.505Z</time></trkpt><trkpt lat="42.3750943" lon="14.2308821"><ele>124.0</ele><time>2026-05-01T08:10:36.505Z</time></trkpt><trkpt lat="42.3751193" lon="14.2310056"><ele>124.0</ele><time>2026-05-01T08:10:37.506Z</time></trkpt><trkpt lat="42.3751569" lon="14.2311343"><ele>122.75</ele><time>2026-05-01T08:10:38.504Z</time></trkpt><trkpt lat="42.3751954" lon="14.2312682"><ele>121.5</ele><time>2026-05-01T08:10:39.505Z</time></trkpt><trkpt lat="42.3752328" lon="14.2314166"><ele>120.25</ele><time>2026-05-01T08:10:40.506Z</time></trkpt><trkpt lat="42.3752794" lon="14.2315796"><ele>119.0</ele><time>2026-05-01T08:10:41.505Z</time></trkpt><trkpt lat="42.3753246" lon="14.2317583"><ele>116.5</ele><time>2026-05-01T08:10:42.505Z</time></trkpt><trkpt lat="42.3753572" lon="14.2319317"><ele>114.0</ele><time>2026-05-01T08:10:43.504Z</time></trkpt><trkpt lat="42.3753666" lon="14.2320955"><ele>111.5</ele><time>2026-05-01T08:10:44.505Z</time></trkpt><trkpt lat="42.3753438" lon="14.2322472"><ele>109.0</ele><time>2026-05-01T08:10:45.504Z</time></trkpt><trkpt lat="42.3752866" lon="14.2323854"><ele>108.25</ele><time>2026-05-01T08:10:46.504Z</time></trkpt><trkpt lat="42.3752033" lon="14.2325117"><ele>107.5</ele><time>2026-05-01T08:10:47.505Z</time></trkpt><trkpt lat="42.3751122" lon="14.2326237"><ele>106.75</ele><time>2026-05-01T08:10:48.505Z</time></trkpt><trkpt lat="42.3750129" lon="14.2327077"><ele>106.0</ele><time>2026-05-01T08:10:49.505Z</time></trkpt><trkpt lat="42.3749092" lon="14.2327519"><ele>106.0</ele><time>2026-05-01T08:10:50.505Z</time></trkpt><trkpt lat="42.3747846" lon="14.2327681"><ele>106.0</ele><time>2026-05-01T08:10:51.506Z</time></trkpt><trkpt lat="42.3746452" lon="14.2327645"><ele>106.0</ele><time>2026-05-01T08:10:52.505Z</time></trkpt><trkpt lat="42.3744941" lon="14.2327615"><ele>106.0</ele><time>2026-05-01T08:10:53.505Z</time></trkpt><trkpt lat="42.3743292" lon="14.232773"><ele>104.33333333333334</ele><time>2026-05-01T08:10:54.504Z</time></trkpt><trkpt lat="42.3741581" lon="14.2328019"><ele>102.66666666666666</ele><time>2026-05-01T08:10:55.505Z</time></trkpt><trkpt lat="42.3739923" lon="14.2328427"><ele>101.0</ele><time>2026-05-01T08:10:56.505Z</time></trkpt><trkpt lat="42.373828" lon="14.2328733"><ele>100.66666666666666</ele><time>2026-05-01T08:10:57.504Z</time></trkpt><trkpt lat="42.3736505" lon="14.2328978"><ele>100.33333333333334</ele><time>2026-05-01T08:10:58.505Z</time></trkpt><trkpt lat="42.3734727" lon="14.2328984"><ele>100.0</ele><time>2026-05-01T08:10:59.505Z</time></trkpt><trkpt lat="42.3733021" lon="14.2328887"><ele>100.0</ele><time>2026-05-01T08:11:00.505Z</time></trkpt><trkpt lat="42.3731457" lon="14.232861"><ele>100.0</ele><time>2026-05-01T08:11:01.504Z</time></trkpt><trkpt lat="42.3730089" lon="14.2328284"><ele>100.0</ele><time>2026-05-01T08:11:02.504Z</time></trkpt><trkpt lat="42.3728833" lon="14.2328043"><ele>100.0</ele><time>2026-05-01T08:11:03.504Z</time></trkpt><trkpt lat="42.372774" lon="14.2328402"><ele>98.2</ele><time>2026-05-01T08:11:04.504Z</time></trkpt><trkpt lat="42.3726832" lon="14.2329135"><ele>96.4</ele><time>2026-05-01T08:11:05.505Z</time></trkpt><trkpt lat="42.3726128" lon="14.2330287"><ele>94.6</ele><time>2026-05-01T08:11:06.505Z</time></trkpt><trkpt lat="42.3725752" lon="14.2331591"><ele>92.8</ele><time>2026-05-01T08:11:07.505Z</time></trkpt><trkpt lat="42.372574" lon="14.2332991"><ele>91.0</ele><time>2026-05-01T08:11:08.504Z</time></trkpt><trkpt lat="42.3726096" lon="14.2334346"><ele>90.25</ele><time>2026-05-01T08:11:09.504Z</time></trkpt><trkpt lat="42.3726797" lon="14.2335338"><ele>89.5</ele><time>2026-05-01T08:11:10.504Z</time></trkpt><trkpt lat="42.3727778" lon="14.2336016"><ele>88.75</ele><time>2026-05-01T08:11:11.504Z</time></trkpt><trkpt lat="42.3728918" lon="14.2336313"><ele>88.0</ele><time>2026-05-01T08:11:12.505Z</time></trkpt><trkpt lat="42.3730298" lon="14.2336326"><ele>88.0</ele><time>2026-05-01T08:11:13.504Z</time></trkpt><trkpt lat="42.37317" lon="14.2336293"><ele>88.0</ele><time>2026-05-01T08:11:14.504Z</time></trkpt><trkpt lat="42.3733054" lon="14.2336331"><ele>88.0</ele><time>2026-05-01T08:11:15.504Z</time></trkpt><trkpt lat="42.3734269" lon="14.2336513"><ele>88.0</ele><time>2026-05-01T08:11:16.504Z</time></trkpt><trkpt lat="42.37354" lon="14.233691"><ele>88.0</ele><time>2026-05-01T08:11:17.504Z</time></trkpt><trkpt lat="42.3736274" lon="14.233769"><ele>88.0</ele><time>2026-05-01T08:11:18.505Z</time></trkpt><trkpt lat="42.3736832" lon="14.2338788"><ele>88.0</ele><time>2026-05-01T08:11:19.505Z</time></trkpt><trkpt lat="42.3737108" lon="14.234"><ele>88.0</ele><time>2026-05-01T08:11:20.506Z</time></trkpt><trkpt lat="42.3736602" lon="14.2341373"><ele>88.0</ele><time>2026-05-01T08:11:21.504Z</time></trkpt><trkpt lat="42.3735846" lon="14.2342687"><ele>85.4</ele><time>2026-05-01T08:11:22.504Z</time></trkpt><trkpt lat="42.3735117" lon="14.2344022"><ele>82.80000000000001</ele><time>2026-05-01T08:11:23.505Z</time></trkpt><trkpt lat="42.3734641" lon="14.2345416"><ele>80.2</ele><time>2026-05-01T08:11:24.505Z</time></trkpt><trkpt lat="42.3734421" lon="14.234679"><ele>77.6</ele><time>2026-05-01T08:11:25.504Z</time></trkpt><trkpt lat="42.3734485" lon="14.2348208"><ele>75.0</ele><time>2026-05-01T08:11:26.505Z</time></trkpt><trkpt lat="42.3734915" lon="14.2349683"><ele>73.83333333333333</ele><time>2026-05-01T08:11:27.505Z</time></trkpt><trkpt lat="42.3735302" lon="14.2351061"><ele>72.66666666666667</ele><time>2026-05-01T08:11:28.505Z</time></trkpt><trkpt lat="42.3735334" lon="14.2352384"><ele>71.5</ele><time>2026-05-01T08:11:29.505Z</time></trkpt><trkpt lat="42.3735021" lon="14.2353444"><ele>70.33333333333334</ele><time>2026-05-01T08:11:30.505Z</time></trkpt><trkpt lat="42.3734453" lon="14.2353988"><ele>69.16666666666667</ele><time>2026-05-01T08:11:31.505Z</time></trkpt><trkpt lat="42.3733813" lon="14.2354529"><ele>68.0</ele><time>2026-05-01T08:11:32.505Z</time></trkpt><trkpt lat="42.3733166" lon="14.2354607"><ele>68.0</ele><time>2026-05-01T08:11:33.504Z</time></trkpt><trkpt lat="42.3731977" lon="14.2353971"><ele>68.0</ele><time>2026-05-01T08:11:34.506Z</time></trkpt><trkpt lat="42.3730844" lon="14.2352626"><ele>68.0</ele><time>2026-05-01T08:11:35.505Z</time></trkpt><trkpt lat="42.3729487" lon="14.2351464"><ele>68.0</ele><time>2026-05-01T08:11:36.504Z</time></trkpt><trkpt lat="42.3728306" lon="14.2350658"><ele>66.25</ele><time>2026-05-01T08:11:37.503Z</time></trkpt><trkpt lat="42.3727147" lon="14.234965"><ele>64.5</ele><time>2026-05-01T08:11:38.503Z</time></trkpt><trkpt lat="42.3725889" lon="14.2349158"><ele>62.75</ele><time>2026-05-01T08:11:39.504Z</time></trkpt><trkpt lat="42.3724655" lon="14.2348771"><ele>61.0</ele><time>2026-05-01T08:11:40.504Z</time></trkpt><trkpt lat="42.3723349" lon="14.234862"><ele>61.0</ele><time>2026-05-01T08:11:41.503Z</time></trkpt><trkpt lat="42.3722006" lon="14.2348593"><ele>61.0</ele><time>2026-05-01T08:11:42.504Z</time></trkpt><trkpt lat="42.3720692" lon="14.2348328"><ele>61.0</ele><time>2026-05-01T08:11:43.504Z</time></trkpt><trkpt lat="42.3719374" lon="14.2348124"><ele>61.0</ele><time>2026-05-01T08:11:44.504Z</time></trkpt><trkpt lat="42.3718159" lon="14.2347714"><ele>59.75</ele><time>2026-05-01T08:11:45.503Z</time></trkpt><trkpt lat="42.3717016" lon="14.2347144"><ele>58.5</ele><time>2026-05-01T08:11:46.504Z</time></trkpt><trkpt lat="42.3715937" lon="14.2346366"><ele>57.25</ele><time>2026-05-01T08:11:47.504Z</time></trkpt><trkpt lat="42.3714834" lon="14.2345369"><ele>56.0</ele><time>2026-05-01T08:11:48.503Z</time></trkpt><trkpt lat="42.3713722" lon="14.234435"><ele>54.75</ele><time>2026-05-01T08:11:49.504Z</time></trkpt><trkpt lat="42.3712575" lon="14.2343352"><ele>53.5</ele><time>2026-05-01T08:11:50.504Z</time></trkpt><trkpt lat="42.3711459" lon="14.234261"><ele>52.25</ele><time>2026-05-01T08:11:51.503Z</time></trkpt><trkpt lat="42.3710267" lon="14.2342004"><ele>51.0</ele><time>2026-05-01T08:11:52.505Z</time></trkpt><trkpt lat="42.3709063" lon="14.234171"><ele>51.0</ele><time>2026-05-01T08:11:53.504Z</time></trkpt><trkpt lat="42.3707739" lon="14.2341668"><ele>51.0</ele><time>2026-05-01T08:11:54.505Z</time></trkpt><trkpt lat="42.3706311" lon="14.2341827"><ele>51.0</ele><time>2026-05-01T08:11:55.503Z</time></trkpt><trkpt lat="42.3704844" lon="14.2341957"><ele>51.0</ele><time>2026-05-01T08:11:56.504Z</time></trkpt><trkpt lat="42.3703284" lon="14.2342206"><ele>49.333333333333336</ele><time>2026-05-01T08:11:57.505Z</time></trkpt><trkpt lat="42.3701698" lon="14.2342451"><ele>47.66666666666667</ele><time>2026-05-01T08:11:58.504Z</time></trkpt><trkpt lat="42.370005" lon="14.2342637"><ele>46.0</ele><time>2026-05-01T08:11:59.504Z</time></trkpt><trkpt lat="42.3698258" lon="14.234275"><ele>47.333333333333336</ele><time>2026-05-01T08:12:00.504Z</time></trkpt><trkpt lat="42.3696495" lon="14.2343023"><ele>48.66666666666667</ele><time>2026-05-01T08:12:01.505Z</time></trkpt><trkpt lat="42.369474" lon="14.2343263"><ele>50.0</ele><time>2026-05-01T08:12:02.504Z</time></trkpt><trkpt lat="42.3693214" lon="14.2343502"><ele>50.0</ele><time>2026-05-01T08:12:03.505Z</time></trkpt><trkpt lat="42.3691854" lon="14.2343623"><ele>50.0</ele><time>2026-05-01T08:12:04.504Z</time></trkpt><trkpt lat="42.3690473" lon="14.2343779"><ele>50.0</ele><time>2026-05-01T08:12:05.503Z</time></trkpt><trkpt lat="42.3689224" lon="14.2343876"><ele>50.0</ele><time>2026-05-01T08:12:06.503Z</time></trkpt><trkpt lat="42.3688184" lon="14.2344024"><ele>50.66666666666667</ele><time>2026-05-01T08:12:07.504Z</time></trkpt><trkpt lat="42.3687196" lon="14.2344125"><ele>51.333333333333336</ele><time>2026-05-01T08:12:08.504Z</time></trkpt><trkpt lat="42.3686428" lon="14.2344199"><ele>52.0</ele><time>2026-05-01T08:12:09.504Z</time></trkpt><trkpt lat="42.3685766" lon="14.2344304"><ele>52.66666666666667</ele><time>2026-05-01T08:12:10.505Z</time></trkpt><trkpt lat="42.3684728" lon="14.2344913"><ele>53.333333333333336</ele><time>2026-05-01T08:12:12.504Z</time></trkpt><trkpt lat="42.3684471" lon="14.2345963"><ele>54.0</ele><time>2026-05-01T08:12:14.504Z</time></trkpt><trkpt lat="42.3685103" lon="14.2346521"><ele>54.0</ele><time>2026-05-01T08:12:16.504Z</time></trkpt><trkpt lat="42.3685888" lon="14.2346474"><ele>54.0</ele><time>2026-05-01T08:12:17.504Z</time></trkpt><trkpt lat="42.3686625" lon="14.2346279"><ele>54.0</ele><time>2026-05-01T08:12:18.504Z</time></trkpt><trkpt lat="42.3687262" lon="14.2345986"><ele>54.0</ele><time>2026-05-01T08:12:19.504Z</time></trkpt><trkpt lat="42.3687905" lon="14.2345692"><ele>54.0</ele><time>2026-05-01T08:12:20.504Z</time></trkpt><trkpt lat="42.3688544" lon="14.2345407"><ele>54.0</ele><time>2026-05-01T08:12:21.505Z</time></trkpt><trkpt lat="42.3689187" lon="14.2345201"><ele>54.0</ele><time>2026-05-01T08:12:22.503Z</time></trkpt><trkpt lat="42.3690028" lon="14.2345116"><ele>53.2</ele><time>2026-05-01T08:13:01.503Z</time></trkpt><trkpt lat="42.3691027" lon="14.2345581"><ele>52.400000000000006</ele><time>2026-05-01T08:13:03.504Z</time></trkpt><trkpt lat="42.3691865" lon="14.2345816"><ele>51.6</ele><time>2026-05-01T08:13:04.505Z</time></trkpt><trkpt lat="42.3692859" lon="14.2346066"><ele>50.8</ele><time>2026-05-01T08:13:05.504Z</time></trkpt><trkpt lat="42.3694041" lon="14.2346261"><ele>50.0</ele><time>2026-05-01T08:13:06.504Z</time></trkpt><trkpt lat="42.3695223" lon="14.2346524"><ele>50.0</ele><time>2026-05-01T08:13:07.504Z</time></trkpt><trkpt lat="42.3696494" lon="14.2346681"><ele>50.0</ele><time>2026-05-01T08:13:08.504Z</time></trkpt><trkpt lat="42.3697552" lon="14.2346749"><ele>50.0</ele><time>2026-05-01T08:13:09.503Z</time></trkpt><trkpt lat="42.3698355" lon="14.2346917"><ele>50.0</ele><time>2026-05-01T08:13:10.503Z</time></trkpt><trkpt lat="42.3699006" lon="14.234721"><ele>50.0</ele><time>2026-05-01T08:13:11.504Z</time></trkpt><trkpt lat="42.3699641" lon="14.2348649"><ele>48.4</ele><time>2026-05-01T08:13:13.505Z</time></trkpt><trkpt lat="42.3699695" lon="14.2349717"><ele>46.8</ele><time>2026-05-01T08:13:14.504Z</time></trkpt><trkpt lat="42.3699705" lon="14.2350968"><ele>45.2</ele><time>2026-05-01T08:13:15.503Z</time></trkpt><trkpt lat="42.3699798" lon="14.2352337"><ele>43.6</ele><time>2026-05-01T08:13:16.504Z</time></trkpt><trkpt lat="42.3700067" lon="14.2353845"><ele>42.0</ele><time>2026-05-01T08:13:17.504Z</time></trkpt><trkpt lat="42.3700425" lon="14.2355409"><ele>42.0</ele><time>2026-05-01T08:13:18.503Z</time></trkpt><trkpt lat="42.3700731" lon="14.2356969"><ele>42.0</ele><time>2026-05-01T08:13:19.504Z</time></trkpt><trkpt lat="42.3700824" lon="14.2358393"><ele>42.0</ele><time>2026-05-01T08:13:20.503Z</time></trkpt><trkpt lat="42.370076" lon="14.235978"><ele>42.0</ele><time>2026-05-01T08:13:21.504Z</time></trkpt><trkpt lat="42.3700502" lon="14.2361408"><ele>42.0</ele><time>2026-05-01T08:13:22.504Z</time></trkpt><trkpt lat="42.3700045" lon="14.236317"><ele>42.0</ele><time>2026-05-01T08:13:23.504Z</time></trkpt><trkpt lat="42.3699675" lon="14.2364793"><ele>42.0</ele><time>2026-05-01T08:13:24.505Z</time></trkpt><trkpt lat="42.3699394" lon="14.2366354"><ele>42.0</ele><time>2026-05-01T08:13:25.505Z</time></trkpt><trkpt lat="42.369937" lon="14.2367937"><ele>42.0</ele><time>2026-05-01T08:13:26.504Z</time></trkpt><trkpt lat="42.3699539" lon="14.2369473"><ele>42.0</ele><time>2026-05-01T08:13:27.503Z</time></trkpt><trkpt lat="42.36999" lon="14.2370849"><ele>42.0</ele><time>2026-05-01T08:13:28.503Z</time></trkpt><trkpt lat="42.3700307" lon="14.2372192"><ele>42.0</ele><time>2026-05-01T08:13:29.504Z</time></trkpt><trkpt lat="42.3701006" lon="14.2373247"><ele>42.0</ele><time>2026-05-01T08:13:30.503Z</time></trkpt><trkpt lat="42.370249" lon="14.2374065"><ele>42.0</ele><time>2026-05-01T08:13:31.504Z</time></trkpt><trkpt lat="42.3703634" lon="14.237515"><ele>42.0</ele><time>2026-05-01T08:13:32.505Z</time></trkpt><trkpt lat="42.3704954" lon="14.2376238"><ele>42.0</ele><time>2026-05-01T08:13:33.504Z</time></trkpt><trkpt lat="42.3706355" lon="14.237733"><ele>42.0</ele><time>2026-05-01T08:13:34.504Z</time></trkpt><trkpt lat="42.3707778" lon="14.2378503"><ele>42.0</ele><time>2026-05-01T08:13:35.504Z</time></trkpt><trkpt lat="42.3709261" lon="14.2379672"><ele>42.0</ele><time>2026-05-01T08:13:36.504Z</time></trkpt><trkpt lat="42.3710666" lon="14.238079"><ele>42.25</ele><time>2026-05-01T08:13:37.504Z</time></trkpt><trkpt lat="42.3712019" lon="14.23818"><ele>42.5</ele><time>2026-05-01T08:13:38.504Z</time></trkpt><trkpt lat="42.3713188" lon="14.238288"><ele>42.75</ele><time>2026-05-01T08:13:39.504Z</time></trkpt><trkpt lat="42.3714324" lon="14.2383913"><ele>43.0</ele><time>2026-05-01T08:13:40.504Z</time></trkpt><trkpt lat="42.3715451" lon="14.2384941"><ele>43.0</ele><time>2026-05-01T08:13:41.504Z</time></trkpt><trkpt lat="42.3716553" lon="14.2385808"><ele>43.0</ele><time>2026-05-01T08:13:42.503Z</time></trkpt><trkpt lat="42.371745" lon="14.2387052"><ele>43.0</ele><time>2026-05-01T08:13:43.504Z</time></trkpt><trkpt lat="42.3718443" lon="14.2388476"><ele>43.0</ele><time>2026-05-01T08:13:44.504Z</time></trkpt><trkpt lat="42.3719452" lon="14.2389777"><ele>42.5</ele><time>2026-05-01T08:13:45.505Z</time></trkpt><trkpt lat="42.3720381" lon="14.2391211"><ele>42.0</ele><time>2026-05-01T08:13:46.504Z</time></trkpt><trkpt lat="42.3721356" lon="14.2392604"><ele>41.5</ele><time>2026-05-01T08:13:47.504Z</time></trkpt><trkpt lat="42.3722352" lon="14.2393859"><ele>41.0</ele><time>2026-05-01T08:13:48.503Z</time></trkpt><trkpt lat="42.3723271" lon="14.2395063"><ele>41.0</ele><time>2026-05-01T08:13:49.504Z</time></trkpt><trkpt lat="42.3724087" lon="14.2396286"><ele>41.0</ele><time>2026-05-01T08:13:50.504Z</time></trkpt><trkpt lat="42.3724976" lon="14.2397242"><ele>41.0</ele><time>2026-05-01T08:13:51.504Z</time></trkpt><trkpt lat="42.3725592" lon="14.2397538"><ele>41.0</ele><time>2026-05-01T08:13:52.504Z</time></trkpt><trkpt lat="42.3726308" lon="14.2398343"><ele>41.0</ele><time>2026-05-01T08:13:53.504Z</time></trkpt><trkpt lat="42.3726935" lon="14.2398856"><ele>41.166666666666664</ele><time>2026-05-01T08:13:54.504Z</time></trkpt><trkpt lat="42.3727572" lon="14.2399429"><ele>41.33333333333333</ele><time>2026-05-01T08:13:55.504Z</time></trkpt><trkpt lat="42.3728345" lon="14.2400032"><ele>41.5</ele><time>2026-05-01T08:13:56.503Z</time></trkpt><trkpt lat="42.3729011" lon="14.2400697"><ele>41.666666666666664</ele><time>2026-05-01T08:13:57.505Z</time></trkpt><trkpt lat="42.3729848" lon="14.2401351"><ele>41.833333333333336</ele><time>2026-05-01T08:13:58.503Z</time></trkpt><trkpt lat="42.3730659" lon="14.2401924"><ele>42.0</ele><time>2026-05-01T08:13:59.504Z</time></trkpt><trkpt lat="42.373146" lon="14.2402585"><ele>42.6</ele><time>2026-05-01T08:14:00.503Z</time></trkpt><trkpt lat="42.3732292" lon="14.2403047"><ele>43.2</ele><time>2026-05-01T08:14:01.504Z</time></trkpt><trkpt lat="42.3733237" lon="14.2403674"><ele>43.8</ele><time>2026-05-01T08:14:02.504Z</time></trkpt><trkpt lat="42.3733884" lon="14.2404334"><ele>44.4</ele><time>2026-05-01T08:14:03.504Z</time></trkpt><trkpt lat="42.3734835" lon="14.2405441"><ele>45.0</ele><time>2026-05-01T08:14:04.503Z</time></trkpt><trkpt lat="42.3735739" lon="14.2406404"><ele>45.0</ele><time>2026-05-01T08:14:05.503Z</time></trkpt><trkpt lat="42.3736856" lon="14.2407593"><ele>45.0</ele><time>2026-05-01T08:14:06.503Z</time></trkpt><trkpt lat="42.3737786" lon="14.2408756"><ele>45.0</ele><time>2026-05-01T08:14:07.503Z</time></trkpt><trkpt lat="42.3738658" lon="14.2409834"><ele>45.0</ele><time>2026-05-01T08:14:08.502Z</time></trkpt><trkpt lat="42.3739554" lon="14.2410718"><ele>42.75</ele><time>2026-05-01T08:14:09.503Z</time></trkpt><trkpt lat="42.3740508" lon="14.241155"><ele>40.5</ele><time>2026-05-01T08:14:10.503Z</time></trkpt><trkpt lat="42.3741656" lon="14.2412352"><ele>38.25</ele><time>2026-05-01T08:14:11.504Z</time></trkpt><trkpt lat="42.3743051" lon="14.2413264"><ele>36.0</ele><time>2026-05-01T08:14:12.503Z</time></trkpt><trkpt lat="42.3744572" lon="14.2414545"><ele>35.333333333333336</ele><time>2026-05-01T08:14:13.502Z</time></trkpt><trkpt lat="42.3746173" lon="14.241607"><ele>34.66666666666667</ele><time>2026-05-01T08:14:14.503Z</time></trkpt><trkpt lat="42.3747675" lon="14.2417818"><ele>34.0</ele><time>2026-05-01T08:14:15.502Z</time></trkpt><trkpt lat="42.3748991" lon="14.2419393"><ele>34.0</ele><time>2026-05-01T08:14:16.502Z</time></trkpt><trkpt lat="42.3750175" lon="14.2420844"><ele>34.0</ele><time>2026-05-01T08:14:17.503Z</time></trkpt><trkpt lat="42.3751178" lon="14.2422206"><ele>34.0</ele><time>2026-05-01T08:14:18.502Z</time></trkpt><trkpt lat="42.3751861" lon="14.2423414"><ele>34.0</ele><time>2026-05-01T08:14:19.502Z</time></trkpt><trkpt lat="42.3752359" lon="14.2424579"><ele>35.0</ele><time>2026-05-01T08:14:20.503Z</time></trkpt><trkpt lat="42.3752577" lon="14.2425766"><ele>36.0</ele><time>2026-05-01T08:14:21.504Z</time></trkpt><trkpt lat="42.3752474" lon="14.2427076"><ele>37.0</ele><time>2026-05-01T08:14:22.502Z</time></trkpt><trkpt lat="42.3752163" lon="14.2428599"><ele>38.0</ele><time>2026-05-01T08:14:23.503Z</time></trkpt><trkpt lat="42.3751706" lon="14.2430131"><ele>39.0</ele><time>2026-05-01T08:14:24.503Z</time></trkpt><trkpt lat="42.3751282" lon="14.243166"><ele>40.5</ele><time>2026-05-01T08:14:25.503Z</time></trkpt><trkpt lat="42.375084" lon="14.2433104"><ele>42.0</ele><time>2026-05-01T08:14:26.502Z</time></trkpt><trkpt lat="42.3750388" lon="14.2434481"><ele>43.5</ele><time>2026-05-01T08:14:27.503Z</time></trkpt><trkpt lat="42.3749982" lon="14.2435858"><ele>45.0</ele><time>2026-05-01T08:14:28.503Z</time></trkpt><trkpt lat="42.3749526" lon="14.2437338"><ele>45.0</ele><time>2026-05-01T08:14:29.502Z</time></trkpt><trkpt lat="42.3748909" lon="14.243924"><ele>45.0</ele><time>2026-05-01T08:14:30.503Z</time></trkpt><trkpt lat="42.3748175" lon="14.2441349"><ele>45.0</ele><time>2026-05-01T08:14:31.504Z</time></trkpt><trkpt lat="42.374745" lon="14.2443616"><ele>51.33333333333333</ele><time>2026-05-01T08:14:32.503Z</time></trkpt><trkpt lat="42.3746647" lon="14.2446128"><ele>57.666666666666664</ele><time>2026-05-01T08:14:33.503Z</time></trkpt><trkpt lat="42.3745883" lon="14.2449081"><ele>64.0</ele><time>2026-05-01T08:14:34.503Z</time></trkpt><trkpt lat="42.3745185" lon="14.2452262"><ele>65.0</ele><time>2026-05-01T08:14:35.503Z</time></trkpt><trkpt lat="42.3744587" lon="14.2455313"><ele>66.0</ele><time>2026-05-01T08:14:36.502Z</time></trkpt><trkpt lat="42.3743929" lon="14.2457972"><ele>67.0</ele><time>2026-05-01T08:14:37.503Z</time></trkpt><trkpt lat="42.3743359" lon="14.2460258"><ele>69.0</ele><time>2026-05-01T08:14:38.503Z</time></trkpt><trkpt lat="42.3742726" lon="14.2462169"><ele>71.0</ele><time>2026-05-01T08:14:39.503Z</time></trkpt><trkpt lat="42.3741791" lon="14.2464021"><ele>73.0</ele><time>2026-05-01T08:14:40.504Z</time></trkpt><trkpt lat="42.3740903" lon="14.2465781"><ele>73.5</ele><time>2026-05-01T08:14:41.504Z</time></trkpt><trkpt lat="42.3740289" lon="14.2467234"><ele>74.0</ele><time>2026-05-01T08:14:42.502Z</time></trkpt><trkpt lat="42.3739732" lon="14.2468734"><ele>74.5</ele><time>2026-05-01T08:14:43.503Z</time></trkpt><trkpt lat="42.3739512" lon="14.2470066"><ele>75.0</ele><time>2026-05-01T08:14:44.503Z</time></trkpt><trkpt lat="42.373998" lon="14.247189"><ele>76.5</ele><time>2026-05-01T08:14:45.503Z</time></trkpt><trkpt lat="42.3739668" lon="14.2473578"><ele>78.0</ele><time>2026-05-01T08:14:46.504Z</time></trkpt><trkpt lat="42.3739171" lon="14.2475705"><ele>79.5</ele><time>2026-05-01T08:14:47.504Z</time></trkpt><trkpt lat="42.3738803" lon="14.2477411"><ele>81.0</ele><time>2026-05-01T08:14:48.503Z</time></trkpt><trkpt lat="42.3738556" lon="14.2478708"><ele>84.75</ele><time>2026-05-01T08:14:49.503Z</time></trkpt><trkpt lat="42.3738479" lon="14.2480289"><ele>88.5</ele><time>2026-05-01T08:14:50.502Z</time></trkpt><trkpt lat="42.3738465" lon="14.248222"><ele>92.25</ele><time>2026-05-01T08:14:51.502Z</time></trkpt><trkpt lat="42.3738419" lon="14.24845"><ele>96.0</ele><time>2026-05-01T08:14:52.503Z</time></trkpt><trkpt lat="42.3738348" lon="14.2486558"><ele>97.66666666666666</ele><time>2026-05-01T08:14:53.503Z</time></trkpt><trkpt lat="42.3738218" lon="14.2488338"><ele>99.33333333333333</ele><time>2026-05-01T08:14:54.503Z</time></trkpt><trkpt lat="42.3737871" lon="14.2490344"><ele>101.0</ele><time>2026-05-01T08:14:55.503Z</time></trkpt><trkpt lat="42.3737349" lon="14.2492576"><ele>103.0</ele><time>2026-05-01T08:14:56.503Z</time></trkpt><trkpt lat="42.3736936" lon="14.2495105"><ele>105.0</ele><time>2026-05-01T08:14:57.503Z</time></trkpt><trkpt lat="42.3736505" lon="14.2497317"><ele>107.0</ele><time>2026-05-01T08:14:58.503Z</time></trkpt><trkpt lat="42.3736008" lon="14.2499239"><ele>107.6</ele><time>2026-05-01T08:14:59.503Z</time></trkpt><trkpt lat="42.37356" lon="14.2500808"><ele>108.19999999999999</ele><time>2026-05-01T08:15:00.503Z</time></trkpt><trkpt lat="42.3735375" lon="14.2501996"><ele>108.8</ele><time>2026-05-01T08:15:01.504Z</time></trkpt><trkpt lat="42.373551" lon="14.2502983"><ele>109.4</ele><time>2026-05-01T08:15:02.503Z</time></trkpt><trkpt lat="42.3736066" lon="14.2503678"><ele>110.0</ele><time>2026-05-01T08:15:03.503Z</time></trkpt><trkpt lat="42.3736862" lon="14.2504253"><ele>110.0</ele><time>2026-05-01T08:15:04.503Z</time></trkpt><trkpt lat="42.373767" lon="14.2504973"><ele>110.0</ele><time>2026-05-01T08:15:05.503Z</time></trkpt><trkpt lat="42.3738464" lon="14.2505771"><ele>110.0</ele><time>2026-05-01T08:15:06.503Z</time></trkpt><trkpt lat="42.3739184" lon="14.2506768"><ele>110.0</ele><time>2026-05-01T08:15:07.504Z</time></trkpt><trkpt lat="42.3739894" lon="14.2507999"><ele>110.0</ele><time>2026-05-01T08:15:08.503Z</time></trkpt><trkpt lat="42.3740444" lon="14.2509288"><ele>110.0</ele><time>2026-05-01T08:15:09.503Z</time></trkpt><trkpt lat="42.3740824" lon="14.2510638"><ele>110.0</ele><time>2026-05-01T08:15:10.503Z</time></trkpt><trkpt lat="42.3740927" lon="14.2512197"><ele>110.0</ele><time>2026-05-01T08:15:11.503Z</time></trkpt><trkpt lat="42.3740836" lon="14.2514009"><ele>110.0</ele><time>2026-05-01T08:15:12.503Z</time></trkpt><trkpt lat="42.3740555" lon="14.2515998"><ele>113.0</ele><time>2026-05-01T08:15:13.503Z</time></trkpt><trkpt lat="42.3740144" lon="14.2518122"><ele>116.0</ele><time>2026-05-01T08:15:14.502Z</time></trkpt><trkpt lat="42.3739661" lon="14.2520501"><ele>119.0</ele><time>2026-05-01T08:15:15.504Z</time></trkpt><trkpt lat="42.3738983" lon="14.2523455"><ele>122.66666666666666</ele><time>2026-05-01T08:15:16.503Z</time></trkpt><trkpt lat="42.3738618" lon="14.2525649"><ele>126.33333333333334</ele><time>2026-05-01T08:15:17.503Z</time></trkpt><trkpt lat="42.3738203" lon="14.2528059"><ele>130.0</ele><time>2026-05-01T08:15:18.503Z</time></trkpt><trkpt lat="42.3738192" lon="14.253044"><ele>140.33333333333334</ele><time>2026-05-01T08:15:19.502Z</time></trkpt><trkpt lat="42.3738023" lon="14.2533013"><ele>150.66666666666666</ele><time>2026-05-01T08:15:20.503Z</time></trkpt><trkpt lat="42.3738117" lon="14.2535321"><ele>161.0</ele><time>2026-05-01T08:15:21.502Z</time></trkpt><trkpt lat="42.373854" lon="14.2537564"><ele>159.33333333333331</ele><time>2026-05-01T08:15:22.504Z</time></trkpt><trkpt lat="42.3738799" lon="14.2539992"><ele>157.66666666666666</ele><time>2026-05-01T08:15:23.504Z</time></trkpt><trkpt lat="42.3739032" lon="14.2542064"><ele>156.0</ele><time>2026-05-01T08:15:24.503Z</time></trkpt><trkpt lat="42.3739525" lon="14.2543771"><ele>156.0</ele><time>2026-05-01T08:15:25.503Z</time></trkpt><trkpt lat="42.3739986" lon="14.2545447"><ele>156.0</ele><time>2026-05-01T08:15:26.503Z</time></trkpt><trkpt lat="42.3740814" lon="14.2547156"><ele>156.0</ele><time>2026-05-01T08:15:27.503Z</time></trkpt><trkpt lat="42.3741627" lon="14.2548941"><ele>156.0</ele><time>2026-05-01T08:15:28.503Z</time></trkpt><trkpt lat="42.3742478" lon="14.2550602"><ele>158.0</ele><time>2026-05-01T08:15:29.503Z</time></trkpt><trkpt lat="42.3743369" lon="14.2552286"><ele>160.0</ele><time>2026-05-01T08:15:30.502Z</time></trkpt><trkpt lat="42.3743917" lon="14.2554299"><ele>162.0</ele><time>2026-05-01T08:15:31.502Z</time></trkpt><trkpt lat="42.3743989" lon="14.255567"><ele>164.0</ele><time>2026-05-01T08:15:32.502Z</time></trkpt><trkpt lat="42.3744134" lon="14.2557165"><ele>164.39999999999998</ele><time>2026-05-01T08:15:33.502Z</time></trkpt><trkpt lat="42.3744097" lon="14.2558461"><ele>164.8</ele><time>2026-05-01T08:15:34.503Z</time></trkpt><trkpt lat="42.374383" lon="14.2559677"><ele>165.2</ele><time>2026-05-01T08:15:36.502Z</time></trkpt><trkpt lat="42.3744376" lon="14.2561041"><ele>165.60000000000002</ele><time>2026-05-01T08:15:45.502Z</time></trkpt><trkpt lat="42.3744969" lon="14.2561512"><ele>166.0</ele><time>2026-05-01T08:15:46.503Z</time></trkpt><trkpt lat="42.3745628" lon="14.2562241"><ele>166.66666666666669</ele><time>2026-05-01T08:15:47.503Z</time></trkpt><trkpt lat="42.3747029" lon="14.256358"><ele>167.33333333333334</ele><time>2026-05-01T08:15:48.502Z</time></trkpt><trkpt lat="42.3748464" lon="14.2564958"><ele>168.0</ele><time>2026-05-01T08:15:49.503Z</time></trkpt><trkpt lat="42.3750058" lon="14.2566574"><ele>168.0</ele><time>2026-05-01T08:15:50.503Z</time></trkpt><trkpt lat="42.3751849" lon="14.2568488"><ele>168.0</ele><time>2026-05-01T08:15:51.503Z</time></trkpt><trkpt lat="42.3753493" lon="14.2570367"><ele>168.0</ele><time>2026-05-01T08:15:52.502Z</time></trkpt><trkpt lat="42.3754733" lon="14.2572594"><ele>169.0</ele><time>2026-05-01T08:15:53.503Z</time></trkpt><trkpt lat="42.3756126" lon="14.2575022"><ele>170.0</ele><time>2026-05-01T08:15:54.503Z</time></trkpt><trkpt lat="42.375753" lon="14.2577388"><ele>170.0</ele><time>2026-05-01T08:15:55.503Z</time></trkpt><trkpt lat="42.3758964" lon="14.2579788"><ele>170.0</ele><time>2026-05-01T08:15:56.502Z</time></trkpt><trkpt lat="42.3760619" lon="14.258243"><ele>173.0</ele><time>2026-05-01T08:15:57.503Z</time></trkpt><trkpt lat="42.3762436" lon="14.2585298"><ele>176.0</ele><time>2026-05-01T08:15:58.503Z</time></trkpt><trkpt lat="42.3764281" lon="14.2588265"><ele>175.0</ele><time>2026-05-01T08:15:59.503Z</time></trkpt><trkpt lat="42.3765901" lon="14.2590844"><ele>174.0</ele><time>2026-05-01T08:16:00.504Z</time></trkpt><trkpt lat="42.3767361" lon="14.2593261"><ele>174.0</ele><time>2026-05-01T08:16:01.502Z</time></trkpt><trkpt lat="42.3768641" lon="14.2595355"><ele>174.0</ele><time>2026-05-01T08:16:02.503Z</time></trkpt><trkpt lat="42.3769728" lon="14.2597144"><ele>174.0</ele><time>2026-05-01T08:16:03.504Z</time></trkpt><trkpt lat="42.3770688" lon="14.2598596"><ele>173.0</ele><time>2026-05-01T08:16:04.502Z</time></trkpt><trkpt lat="42.3771472" lon="14.2599799"><ele>172.0</ele><time>2026-05-01T08:16:05.503Z</time></trkpt><trkpt lat="42.3772059" lon="14.2600902"><ele>171.0</ele><time>2026-05-01T08:16:06.502Z</time></trkpt><trkpt lat="42.3772579" lon="14.260164"><ele>170.0</ele><time>2026-05-01T08:16:07.503Z</time></trkpt><trkpt lat="42.37721" lon="14.2599969"><ele>169.0</ele><time>2026-05-01T08:16:12.503Z</time></trkpt><trkpt lat="42.3771225" lon="14.2598598"><ele>170.0</ele><time>2026-05-01T08:16:13.502Z</time></trkpt><trkpt lat="42.3770428" lon="14.2597437"><ele>171.0</ele><time>2026-05-01T08:16:14.503Z</time></trkpt><trkpt lat="42.3769792" lon="14.2596266"><ele>172.0</ele><time>2026-05-01T08:16:15.503Z</time></trkpt><trkpt lat="42.3769132" lon="14.2595328"><ele>173.0</ele><time>2026-05-01T08:16:16.503Z</time></trkpt><trkpt lat="42.3768247" lon="14.2595126"><ele>174.0</ele><time>2026-05-01T08:16:18.502Z</time></trkpt><trkpt lat="42.376779" lon="14.259587"><ele>174.0</ele><time>2026-05-01T08:16:22.503Z</time></trkpt><trkpt lat="42.3767629" lon="14.2597342"><ele>174.0</ele><time>2026-05-01T08:16:29.502Z</time></trkpt><trkpt lat="42.3767639" lon="14.2598617"><ele>174.0</ele><time>2026-05-01T08:16:30.503Z</time></trkpt><trkpt lat="42.3767726" lon="14.2600106"><ele>174.0</ele><time>2026-05-01T08:16:31.502Z</time></trkpt><trkpt lat="42.3767796" lon="14.2601681"><ele>174.0</ele><time>2026-05-01T08:16:32.504Z</time></trkpt><trkpt lat="42.3767876" lon="14.2603157"><ele>172.75</ele><time>2026-05-01T08:16:33.503Z</time></trkpt><trkpt lat="42.3767884" lon="14.2604705"><ele>171.5</ele><time>2026-05-01T08:16:34.502Z</time></trkpt><trkpt lat="42.3767853" lon="14.2606203"><ele>170.25</ele><time>2026-05-01T08:16:35.504Z</time></trkpt><trkpt lat="42.3767732" lon="14.2607798"><ele>169.0</ele><time>2026-05-01T08:16:36.503Z</time></trkpt><trkpt lat="42.3767542" lon="14.2609505"><ele>167.75</ele><time>2026-05-01T08:16:37.502Z</time></trkpt><trkpt lat="42.376729" lon="14.261119"><ele>166.5</ele><time>2026-05-01T08:16:38.503Z</time></trkpt><trkpt lat="42.3766991" lon="14.2612843"><ele>165.25</ele><time>2026-05-01T08:16:39.502Z</time></trkpt><trkpt lat="42.3766805" lon="14.2614403"><ele>164.0</ele><time>2026-05-01T08:16:40.501Z</time></trkpt><trkpt lat="42.3766734" lon="14.261591"><ele>163.0</ele><time>2026-05-01T08:16:41.502Z</time></trkpt><trkpt lat="42.3766798" lon="14.2617225"><ele>162.0</ele><time>2026-05-01T08:16:42.502Z</time></trkpt><trkpt lat="42.3767008" lon="14.2618849"><ele>161.0</ele><time>2026-05-01T08:16:43.502Z</time></trkpt><trkpt lat="42.3767288" lon="14.2620645"><ele>160.0</ele><time>2026-05-01T08:16:44.502Z</time></trkpt><trkpt lat="42.3767579" lon="14.2622507"><ele>157.5</ele><time>2026-05-01T08:16:45.502Z</time></trkpt><trkpt lat="42.3767745" lon="14.2624514"><ele>155.0</ele><time>2026-05-01T08:16:46.502Z</time></trkpt><trkpt lat="42.3767976" lon="14.2626371"><ele>152.5</ele><time>2026-05-01T08:16:47.502Z</time></trkpt><trkpt lat="42.3768295" lon="14.2628244"><ele>150.0</ele><time>2026-05-01T08:16:48.502Z</time></trkpt><trkpt lat="42.3768803" lon="14.2630169"><ele>146.66666666666666</ele><time>2026-05-01T08:16:49.503Z</time></trkpt><trkpt lat="42.3769469" lon="14.2632124"><ele>143.33333333333331</ele><time>2026-05-01T08:16:50.502Z</time></trkpt><trkpt lat="42.3770181" lon="14.2634187"><ele>140.0</ele><time>2026-05-01T08:16:51.502Z</time></trkpt><trkpt lat="42.3770896" lon="14.2636325"><ele>140.0</ele><time>2026-05-01T08:16:52.502Z</time></trkpt><trkpt lat="42.3771724" lon="14.2638496"><ele>140.0</ele><time>2026-05-01T08:16:53.501Z</time></trkpt><trkpt lat="42.3772468" lon="14.2640635"><ele>140.0</ele><time>2026-05-01T08:16:54.502Z</time></trkpt><trkpt lat="42.377324" lon="14.2642618"><ele>141.0</ele><time>2026-05-01T08:16:55.503Z</time></trkpt><trkpt lat="42.3774051" lon="14.2644469"><ele>142.0</ele><time>2026-05-01T08:16:56.502Z</time></trkpt><trkpt lat="42.3774873" lon="14.264622"><ele>143.0</ele><time>2026-05-01T08:16:57.502Z</time></trkpt><trkpt lat="42.3775638" lon="14.2648"><ele>141.0</ele><time>2026-05-01T08:16:58.502Z</time></trkpt><trkpt lat="42.37761" lon="14.2649643"><ele>139.0</ele><time>2026-05-01T08:16:59.502Z</time></trkpt><trkpt lat="42.3776457" lon="14.2651316"><ele>137.0</ele><time>2026-05-01T08:17:00.502Z</time></trkpt><trkpt lat="42.3776537" lon="14.2653048"><ele>135.0</ele><time>2026-05-01T08:17:01.502Z</time></trkpt><trkpt lat="42.3776568" lon="14.2654926"><ele>133.5</ele><time>2026-05-01T08:17:02.502Z</time></trkpt><trkpt lat="42.3776617" lon="14.2656727"><ele>132.0</ele><time>2026-05-01T08:17:03.502Z</time></trkpt><trkpt lat="42.3776678" lon="14.2658485"><ele>130.5</ele><time>2026-05-01T08:17:04.503Z</time></trkpt><trkpt lat="42.3776759" lon="14.2660303"><ele>129.0</ele><time>2026-05-01T08:17:05.501Z</time></trkpt><trkpt lat="42.3776811" lon="14.2662144"><ele>129.0</ele><time>2026-05-01T08:17:06.502Z</time></trkpt><trkpt lat="42.377678" lon="14.2663889"><ele>129.0</ele><time>2026-05-01T08:17:07.502Z</time></trkpt><trkpt lat="42.377673" lon="14.2665445"><ele>129.0</ele><time>2026-05-01T08:17:08.503Z</time></trkpt><trkpt lat="42.3776731" lon="14.266696"><ele>129.0</ele><time>2026-05-01T08:17:09.502Z</time></trkpt><trkpt lat="42.3776793" lon="14.2668395"><ele>127.4</ele><time>2026-05-01T08:17:10.502Z</time></trkpt><trkpt lat="42.377682" lon="14.2669705"><ele>125.80000000000001</ele><time>2026-05-01T08:17:11.502Z</time></trkpt><trkpt lat="42.3776857" lon="14.2670838"><ele>124.19999999999999</ele><time>2026-05-01T08:17:12.503Z</time></trkpt><trkpt lat="42.3776625" lon="14.2672361"><ele>122.6</ele><time>2026-05-01T08:17:14.502Z</time></trkpt><trkpt lat="42.3775702" lon="14.267317"><ele>121.0</ele><time>2026-05-01T08:17:16.502Z</time></trkpt><trkpt lat="42.3774573" lon="14.2673194"><ele>119.66666666666667</ele><time>2026-05-01T08:17:17.502Z</time></trkpt><trkpt lat="42.3773055" lon="14.2673661"><ele>118.33333333333334</ele><time>2026-05-01T08:17:18.502Z</time></trkpt><trkpt lat="42.3771489" lon="14.2673767"><ele>117.0</ele><time>2026-05-01T08:17:19.502Z</time></trkpt><trkpt lat="42.3769982" lon="14.2673971"><ele>115.25</ele><time>2026-05-01T08:17:20.502Z</time></trkpt><trkpt lat="42.3768665" lon="14.2674213"><ele>113.5</ele><time>2026-05-01T08:17:21.502Z</time></trkpt><trkpt lat="42.3767398" lon="14.2674284"><ele>111.75</ele><time>2026-05-01T08:17:22.501Z</time></trkpt><trkpt lat="42.3766269" lon="14.2674533"><ele>110.0</ele><time>2026-05-01T08:17:23.501Z</time></trkpt><trkpt lat="42.3765334" lon="14.267483"><ele>110.0</ele><time>2026-05-01T08:17:24.503Z</time></trkpt><trkpt lat="42.3764394" lon="14.2675338"><ele>110.0</ele><time>2026-05-01T08:17:25.501Z</time></trkpt><trkpt lat="42.3763455" lon="14.2676059"><ele>110.0</ele><time>2026-05-01T08:17:26.503Z</time></trkpt><trkpt lat="42.3762535" lon="14.2677596"><ele>110.0</ele><time>2026-05-01T08:17:27.501Z</time></trkpt><trkpt lat="42.3762017" lon="14.2679154"><ele>116.33333333333333</ele><time>2026-05-01T08:17:28.502Z</time></trkpt><trkpt lat="42.3761167" lon="14.268219"><ele>122.66666666666666</ele><time>2026-05-01T08:17:29.501Z</time></trkpt><trkpt lat="42.3760496" lon="14.2684637"><ele>129.0</ele><time>2026-05-01T08:17:30.501Z</time></trkpt><trkpt lat="42.3759853" lon="14.2687259"><ele>128.0</ele><time>2026-05-01T08:17:31.502Z</time></trkpt><trkpt lat="42.3759205" lon="14.2689933"><ele>127.0</ele><time>2026-05-01T08:17:32.501Z</time></trkpt><trkpt lat="42.3758382" lon="14.2692265"><ele>126.0</ele><time>2026-05-01T08:17:33.501Z</time></trkpt><trkpt lat="42.3757765" lon="14.269448"><ele>126.0</ele><time>2026-05-01T08:17:34.502Z</time></trkpt><trkpt lat="42.3757119" lon="14.2696369"><ele>126.0</ele><time>2026-05-01T08:17:35.501Z</time></trkpt><trkpt lat="42.3756541" lon="14.2698316"><ele>126.0</ele><time>2026-05-01T08:17:36.502Z</time></trkpt><trkpt lat="42.3755732" lon="14.2699976"><ele>130.5</ele><time>2026-05-01T08:17:37.502Z</time></trkpt><trkpt lat="42.3755143" lon="14.2701774"><ele>135.0</ele><time>2026-05-01T08:17:38.502Z</time></trkpt><trkpt lat="42.3754484" lon="14.270341"><ele>139.5</ele><time>2026-05-01T08:17:39.502Z</time></trkpt><trkpt lat="42.3753724" lon="14.2704919"><ele>144.0</ele><time>2026-05-01T08:17:40.502Z</time></trkpt><trkpt lat="42.375285" lon="14.2706654"><ele>144.0</ele><time>2026-05-01T08:17:41.502Z</time></trkpt><trkpt lat="42.3751981" lon="14.2708066"><ele>144.0</ele><time>2026-05-01T08:17:42.503Z</time></trkpt><trkpt lat="42.3751512" lon="14.2709319"><ele>144.0</ele><time>2026-05-01T08:17:43.502Z</time></trkpt><trkpt lat="42.3750623" lon="14.2709407"><ele>144.0</ele><time>2026-05-01T08:17:47.502Z</time></trkpt><trkpt lat="42.3749186" lon="14.270938"><ele>144.0</ele><time>2026-05-01T08:17:49.502Z</time></trkpt><trkpt lat="42.3748266" lon="14.2709127"><ele>144.0</ele><time>2026-05-01T08:17:50.503Z</time></trkpt><trkpt lat="42.3747218" lon="14.2708842"><ele>144.0</ele><time>2026-05-01T08:17:51.502Z</time></trkpt><trkpt lat="42.3746092" lon="14.2708706"><ele>144.0</ele><time>2026-05-01T08:17:52.502Z</time></trkpt><trkpt lat="42.3744969" lon="14.270864"><ele>144.0</ele><time>2026-05-01T08:17:53.502Z</time></trkpt><trkpt lat="42.3743961" lon="14.27086"><ele>146.0</ele><time>2026-05-01T08:17:54.502Z</time></trkpt><trkpt lat="42.3743238" lon="14.2709199"><ele>148.0</ele><time>2026-05-01T08:17:57.503Z</time></trkpt><trkpt lat="42.3742526" lon="14.2709686"><ele>150.0</ele><time>2026-05-01T08:18:00.502Z</time></trkpt><trkpt lat="42.3741549" lon="14.2710408"><ele>152.0</ele><time>2026-05-01T08:18:02.502Z</time></trkpt><trkpt lat="42.374115" lon="14.2711103"><ele>154.0</ele><time>2026-05-01T08:18:03.502Z</time></trkpt><trkpt lat="42.374057" lon="14.2712606"><ele>154.0</ele><time>2026-05-01T08:18:05.502Z</time></trkpt><trkpt lat="42.3740283" lon="14.2713506"><ele>154.0</ele><time>2026-05-01T08:18:06.501Z</time></trkpt><trkpt lat="42.3739878" lon="14.2714367"><ele>154.0</ele><time>2026-05-01T08:18:07.503Z</time></trkpt><trkpt lat="42.3739327" lon="14.2715209"><ele>154.0</ele><time>2026-05-01T08:18:08.502Z</time></trkpt><trkpt lat="42.373868" lon="14.2715993"><ele>154.0</ele><time>2026-05-01T08:18:09.502Z</time></trkpt><trkpt lat="42.373789" lon="14.2716732"><ele>154.0</ele><time>2026-05-01T08:18:10.502Z</time></trkpt><trkpt lat="42.3737045" lon="14.2717357"><ele>150.4</ele><time>2026-05-01T08:18:11.502Z</time></trkpt><trkpt lat="42.3736092" lon="14.271802"><ele>146.8</ele><time>2026-05-01T08:18:12.502Z</time></trkpt><trkpt lat="42.3735084" lon="14.2718622"><ele>143.2</ele><time>2026-05-01T08:18:13.501Z</time></trkpt><trkpt lat="42.373406" lon="14.2719157"><ele>139.6</ele><time>2026-05-01T08:18:14.501Z</time></trkpt><trkpt lat="42.3733034" lon="14.2719501"><ele>136.0</ele><time>2026-05-01T08:18:15.501Z</time></trkpt><trkpt lat="42.3731867" lon="14.2719641"><ele>136.0</ele><time>2026-05-01T08:18:16.503Z</time></trkpt><trkpt lat="42.3730543" lon="14.2719716"><ele>136.0</ele><time>2026-05-01T08:18:17.501Z</time></trkpt><trkpt lat="42.3729164" lon="14.2719751"><ele>136.0</ele><time>2026-05-01T08:18:18.502Z</time></trkpt><trkpt lat="42.3727841" lon="14.2719846"><ele>136.0</ele><time>2026-05-01T08:18:19.502Z</time></trkpt><trkpt lat="42.3726542" lon="14.2719933"><ele>134.0</ele><time>2026-05-01T08:18:20.501Z</time></trkpt><trkpt lat="42.3725255" lon="14.2720062"><ele>132.0</ele><time>2026-05-01T08:18:21.502Z</time></trkpt><trkpt lat="42.3724003" lon="14.2720131"><ele>130.0</ele><time>2026-05-01T08:18:22.502Z</time></trkpt><trkpt lat="42.372292" lon="14.2720163"><ele>128.0</ele><time>2026-05-01T08:18:23.502Z</time></trkpt><trkpt lat="42.372206" lon="14.2720162"><ele>126.0</ele><time>2026-05-01T08:18:24.502Z</time></trkpt><trkpt lat="42.3721349" lon="14.2720295"><ele>122.4</ele><time>2026-05-01T08:18:25.501Z</time></trkpt><trkpt lat="42.3720726" lon="14.2720735"><ele>118.8</ele><time>2026-05-01T08:18:26.502Z</time></trkpt><trkpt lat="42.3720029" lon="14.2721536"><ele>115.20000000000002</ele><time>2026-05-01T08:18:27.502Z</time></trkpt><trkpt lat="42.3719294" lon="14.2722637"><ele>111.60000000000001</ele><time>2026-05-01T08:18:28.502Z</time></trkpt><trkpt lat="42.371857" lon="14.2723997"><ele>108.0</ele><time>2026-05-01T08:18:29.502Z</time></trkpt><trkpt lat="42.3717954" lon="14.2725552"><ele>107.5</ele><time>2026-05-01T08:18:30.502Z</time></trkpt><trkpt lat="42.3717316" lon="14.2727279"><ele>107.0</ele><time>2026-05-01T08:18:31.502Z</time></trkpt><trkpt lat="42.3716677" lon="14.2729098"><ele>106.5</ele><time>2026-05-01T08:18:32.502Z</time></trkpt><trkpt lat="42.3716007" lon="14.2730993"><ele>106.0</ele><time>2026-05-01T08:18:33.502Z</time></trkpt><trkpt lat="42.3715327" lon="14.2732913"><ele>104.33333333333334</ele><time>2026-05-01T08:18:34.502Z</time></trkpt><trkpt lat="42.3714698" lon="14.2734855"><ele>102.66666666666666</ele><time>2026-05-01T08:18:35.502Z</time></trkpt><trkpt lat="42.3714051" lon="14.2736882"><ele>101.0</ele><time>2026-05-01T08:18:36.503Z</time></trkpt><trkpt lat="42.3713511" lon="14.2738818"><ele>96.25</ele><time>2026-05-01T08:18:37.502Z</time></trkpt><trkpt lat="42.3713" lon="14.2740794"><ele>91.5</ele><time>2026-05-01T08:18:38.501Z</time></trkpt><trkpt lat="42.3712664" lon="14.2742589"><ele>86.75</ele><time>2026-05-01T08:18:39.502Z</time></trkpt><trkpt lat="42.3712465" lon="14.2744275"><ele>82.0</ele><time>2026-05-01T08:18:40.503Z</time></trkpt><trkpt lat="42.37125" lon="14.2746016"><ele>81.25</ele><time>2026-05-01T08:18:41.502Z</time></trkpt><trkpt lat="42.3712615" lon="14.2747842"><ele>80.5</ele><time>2026-05-01T08:18:42.502Z</time></trkpt><trkpt lat="42.371271" lon="14.2749829"><ele>79.75</ele><time>2026-05-01T08:18:43.501Z</time></trkpt><trkpt lat="42.3712603" lon="14.2751872"><ele>79.0</ele><time>2026-05-01T08:18:44.502Z</time></trkpt><trkpt lat="42.3712382" lon="14.2753984"><ele>79.0</ele><time>2026-05-01T08:18:45.502Z</time></trkpt><trkpt lat="42.3712051" lon="14.2756079"><ele>79.0</ele><time>2026-05-01T08:18:46.502Z</time></trkpt><trkpt lat="42.3711677" lon="14.2758194"><ele>79.0</ele><time>2026-05-01T08:18:47.502Z</time></trkpt><trkpt lat="42.3711227" lon="14.2760382"><ele>79.0</ele><time>2026-05-01T08:18:48.503Z</time></trkpt><trkpt lat="42.3710733" lon="14.2762598"><ele>79.0</ele><time>2026-05-01T08:18:49.501Z</time></trkpt><trkpt lat="42.371022" lon="14.276488"><ele>79.0</ele><time>2026-05-01T08:18:50.502Z</time></trkpt><trkpt lat="42.3709673" lon="14.276718"><ele>78.33333333333333</ele><time>2026-05-01T08:18:51.502Z</time></trkpt><trkpt lat="42.3709182" lon="14.2769452"><ele>77.66666666666667</ele><time>2026-05-01T08:18:52.503Z</time></trkpt><trkpt lat="42.3708702" lon="14.2771522"><ele>77.0</ele><time>2026-05-01T08:18:53.502Z</time></trkpt><trkpt lat="42.3708277" lon="14.2773374"><ele>77.0</ele><time>2026-05-01T08:18:54.502Z</time></trkpt><trkpt lat="42.3707865" lon="14.277515"><ele>77.0</ele><time>2026-05-01T08:18:55.502Z</time></trkpt><trkpt lat="42.3707407" lon="14.2776862"><ele>77.0</ele><time>2026-05-01T08:18:56.502Z</time></trkpt><trkpt lat="42.3706953" lon="14.2778448"><ele>77.0</ele><time>2026-05-01T08:18:57.503Z</time></trkpt><trkpt lat="42.3706523" lon="14.2779951"><ele>76.25</ele><time>2026-05-01T08:18:58.502Z</time></trkpt><trkpt lat="42.3706067" lon="14.2781394"><ele>75.5</ele><time>2026-05-01T08:18:59.502Z</time></trkpt><trkpt lat="42.3705531" lon="14.2782792"><ele>74.75</ele><time>2026-05-01T08:19:00.503Z</time></trkpt><trkpt lat="42.3704943" lon="14.2784067"><ele>74.0</ele><time>2026-05-01T08:19:01.502Z</time></trkpt><trkpt lat="42.3704293" lon="14.2785291"><ele>73.0</ele><time>2026-05-01T08:19:02.502Z</time></trkpt><trkpt lat="42.3703679" lon="14.278641"><ele>72.0</ele><time>2026-05-01T08:19:03.502Z</time></trkpt><trkpt lat="42.3702956" lon="14.2787479"><ele>71.0</ele><time>2026-05-01T08:19:04.501Z</time></trkpt><trkpt lat="42.3702112" lon="14.2788455"><ele>70.0</ele><time>2026-05-01T08:19:05.501Z</time></trkpt><trkpt lat="42.3701136" lon="14.2789326"><ele>69.0</ele><time>2026-05-01T08:19:06.502Z</time></trkpt><trkpt lat="42.3700084" lon="14.279016"><ele>68.60000000000001</ele><time>2026-05-01T08:19:07.501Z</time></trkpt><trkpt lat="42.3699127" lon="14.2791023"><ele>68.2</ele><time>2026-05-01T08:19:08.501Z</time></trkpt><trkpt lat="42.3698219" lon="14.2791824"><ele>67.80000000000001</ele><time>2026-05-01T08:19:09.502Z</time></trkpt><trkpt lat="42.3697423" lon="14.2792673"><ele>67.4</ele><time>2026-05-01T08:19:10.503Z</time></trkpt><trkpt lat="42.3696864" lon="14.2793634"><ele>67.0</ele><time>2026-05-01T08:19:11.502Z</time></trkpt><trkpt lat="42.3696589" lon="14.2794799"><ele>66.75</ele><time>2026-05-01T08:19:12.501Z</time></trkpt><trkpt lat="42.3696441" lon="14.2796176"><ele>66.5</ele><time>2026-05-01T08:19:13.501Z</time></trkpt><trkpt lat="42.3696473" lon="14.2797713"><ele>66.25</ele><time>2026-05-01T08:19:14.502Z</time></trkpt><trkpt lat="42.3696537" lon="14.2799304"><ele>66.0</ele><time>2026-05-01T08:19:15.502Z</time></trkpt><trkpt lat="42.3696589" lon="14.2801053"><ele>66.0</ele><time>2026-05-01T08:19:16.502Z</time></trkpt><trkpt lat="42.3696712" lon="14.2802892"><ele>66.0</ele><time>2026-05-01T08:19:17.501Z</time></trkpt><trkpt lat="42.3696769" lon="14.2804861"><ele>66.0</ele><time>2026-05-01T08:19:18.502Z</time></trkpt><trkpt lat="42.3696844" lon="14.280693"><ele>66.0</ele><time>2026-05-01T08:19:19.502Z</time></trkpt><trkpt lat="42.3696907" lon="14.2809041"><ele>65.0</ele><time>2026-05-01T08:19:20.502Z</time></trkpt><trkpt lat="42.3696952" lon="14.2811131"><ele>64.0</ele><time>2026-05-01T08:19:21.502Z</time></trkpt><trkpt lat="42.3696955" lon="14.2813237"><ele>63.0</ele><time>2026-05-01T08:19:22.502Z</time></trkpt><trkpt lat="42.3696981" lon="14.2815273"><ele>62.75</ele><time>2026-05-01T08:19:23.501Z</time></trkpt><trkpt lat="42.3696991" lon="14.2817185"><ele>62.5</ele><time>2026-05-01T08:19:24.501Z</time></trkpt><trkpt lat="42.3697004" lon="14.2818923"><ele>62.25</ele><time>2026-05-01T08:19:25.5Z</time></trkpt><trkpt lat="42.369694" lon="14.2820506"><ele>62.0</ele><time>2026-05-01T08:19:26.501Z</time></trkpt><trkpt lat="42.3696717" lon="14.2821698"><ele>62.0</ele><time>2026-05-01T08:19:27.501Z</time></trkpt><trkpt lat="42.3695966" lon="14.2822657"><ele>62.0</ele><time>2026-05-01T08:19:29.501Z</time></trkpt><trkpt lat="42.3695208" lon="14.2822152"><ele>62.0</ele><time>2026-05-01T08:19:31.501Z</time></trkpt><trkpt lat="42.3694775" lon="14.2821235"><ele>62.0</ele><time>2026-05-01T08:19:32.501Z</time></trkpt><trkpt lat="42.3694148" lon="14.2820039"><ele>62.0</ele><time>2026-05-01T08:19:33.501Z</time></trkpt><trkpt lat="42.3693373" lon="14.2818921"><ele>62.0</ele><time>2026-05-01T08:19:34.501Z</time></trkpt><trkpt lat="42.3692408" lon="14.2817118"><ele>62.0</ele><time>2026-05-01T08:19:35.501Z</time></trkpt><trkpt lat="42.3691414" lon="14.2815302"><ele>62.0</ele><time>2026-05-01T08:19:36.501Z</time></trkpt><trkpt lat="42.3690301" lon="14.2813381"><ele>62.333333333333336</ele><time>2026-05-01T08:19:37.501Z</time></trkpt><trkpt lat="42.3689115" lon="14.2811508"><ele>62.66666666666667</ele><time>2026-05-01T08:19:38.501Z</time></trkpt><trkpt lat="42.3688033" lon="14.2809382"><ele>63.0</ele><time>2026-05-01T08:19:39.501Z</time></trkpt><trkpt lat="42.3687083" lon="14.280749"><ele>62.5</ele><time>2026-05-01T08:19:40.501Z</time></trkpt><trkpt lat="42.3686147" lon="14.2805824"><ele>62.0</ele><time>2026-05-01T08:19:41.501Z</time></trkpt><trkpt lat="42.3685273" lon="14.2804311"><ele>61.5</ele><time>2026-05-01T08:19:42.501Z</time></trkpt><trkpt lat="42.3684491" lon="14.280293"><ele>61.0</ele><time>2026-05-01T08:19:43.5Z</time></trkpt><trkpt lat="42.3683633" lon="14.2802064"><ele>61.0</ele><time>2026-05-01T08:19:44.501Z</time></trkpt><trkpt lat="42.3682766" lon="14.2801632"><ele>60.99999999999999</ele><time>2026-05-01T08:19:45.501Z</time></trkpt><trkpt lat="42.3681855" lon="14.2801703"><ele>60.99999999999999</ele><time>2026-05-01T08:19:46.501Z</time></trkpt><trkpt lat="42.3680806" lon="14.2802191"><ele>61.0</ele><time>2026-05-01T08:19:47.501Z</time></trkpt><trkpt lat="42.3679592" lon="14.2802981"><ele>61.0</ele><time>2026-05-01T08:19:48.501Z</time></trkpt><trkpt lat="42.3678207" lon="14.2803886"><ele>59.0</ele><time>2026-05-01T08:19:49.5Z</time></trkpt><trkpt lat="42.367672" lon="14.2804801"><ele>57.0</ele><time>2026-05-01T08:19:50.501Z</time></trkpt><trkpt lat="42.36752" lon="14.28057"><ele>55.0</ele><time>2026-05-01T08:19:51.501Z</time></trkpt><trkpt lat="42.367352" lon="14.2806551"><ele>53.0</ele><time>2026-05-01T08:19:52.501Z</time></trkpt><trkpt lat="42.3671716" lon="14.280724"><ele>51.0</ele><time>2026-05-01T08:19:53.502Z</time></trkpt><trkpt lat="42.3669796" lon="14.2807715"><ele>49.0</ele><time>2026-05-01T08:19:54.502Z</time></trkpt><trkpt lat="42.3667819" lon="14.2808178"><ele>49.0</ele><time>2026-05-01T08:19:55.5Z</time></trkpt><trkpt lat="42.3665867" lon="14.2808641"><ele>49.0</ele><time>2026-05-01T08:19:56.5Z</time></trkpt><trkpt lat="42.3663992" lon="14.2809042"><ele>49.0</ele><time>2026-05-01T08:19:57.501Z</time></trkpt><trkpt lat="42.3662158" lon="14.2809439"><ele>47.666666666666664</ele><time>2026-05-01T08:19:58.502Z</time></trkpt><trkpt lat="42.3660413" lon="14.2809834"><ele>46.33333333333333</ele><time>2026-05-01T08:19:59.501Z</time></trkpt><trkpt lat="42.365889" lon="14.2810164"><ele>45.0</ele><time>2026-05-01T08:20:00.501Z</time></trkpt><trkpt lat="42.3657596" lon="14.281045"><ele>45.0</ele><time>2026-05-01T08:20:01.5Z</time></trkpt><trkpt lat="42.3656546" lon="14.2810602"><ele>45.0</ele><time>2026-05-01T08:20:02.502Z</time></trkpt><trkpt lat="42.3655638" lon="14.2810635"><ele>45.0</ele><time>2026-05-01T08:20:03.501Z</time></trkpt><trkpt lat="42.3655021" lon="14.2810457"><ele>45.0</ele><time>2026-05-01T08:20:04.501Z</time></trkpt><trkpt lat="42.3654461" lon="14.2809903"><ele>45.0</ele><time>2026-05-01T08:20:05.501Z</time></trkpt><trkpt lat="42.3653883" lon="14.2808951"><ele>45.0</ele><time>2026-05-01T08:20:06.502Z</time></trkpt><trkpt lat="42.3653226" lon="14.280755"><ele>45.0</ele><time>2026-05-01T08:20:07.501Z</time></trkpt><trkpt lat="42.365241" lon="14.2805919"><ele>45.0</ele><time>2026-05-01T08:20:08.501Z</time></trkpt><trkpt lat="42.3651545" lon="14.2804227"><ele>45.0</ele><time>2026-05-01T08:20:09.5Z</time></trkpt><trkpt lat="42.3650555" lon="14.2802282"><ele>45.0</ele><time>2026-05-01T08:20:10.501Z</time></trkpt><trkpt lat="42.3649542" lon="14.2800338"><ele>45.0</ele><time>2026-05-01T08:20:11.501Z</time></trkpt><trkpt lat="42.3648455" lon="14.2798252"><ele>45.0</ele><time>2026-05-01T08:20:12.501Z</time></trkpt><trkpt lat="42.3647369" lon="14.2796111"><ele>45.333333333333336</ele><time>2026-05-01T08:20:13.502Z</time></trkpt><trkpt lat="42.3646292" lon="14.2793951"><ele>45.66666666666667</ele><time>2026-05-01T08:20:14.501Z</time></trkpt><trkpt lat="42.3645221" lon="14.2791926"><ele>46.0</ele><time>2026-05-01T08:20:15.501Z</time></trkpt><trkpt lat="42.3644103" lon="14.2790023"><ele>47.0</ele><time>2026-05-01T08:20:16.501Z</time></trkpt><trkpt lat="42.3642849" lon="14.2788292"><ele>48.0</ele><time>2026-05-01T08:20:17.501Z</time></trkpt><trkpt lat="42.3641423" lon="14.2786919"><ele>49.0</ele><time>2026-05-01T08:20:18.502Z</time></trkpt><trkpt lat="42.3639818" lon="14.2785531"><ele>48.33333333333333</ele><time>2026-05-01T08:20:19.5Z</time></trkpt><trkpt lat="42.3638229" lon="14.2784173"><ele>47.666666666666664</ele><time>2026-05-01T08:20:20.501Z</time></trkpt><trkpt lat="42.3636565" lon="14.2782792"><ele>47.0</ele><time>2026-05-01T08:20:21.501Z</time></trkpt><trkpt lat="42.3634928" lon="14.2781486"><ele>48.0</ele><time>2026-05-01T08:20:22.501Z</time></trkpt><trkpt lat="42.3633296" lon="14.278015"><ele>49.0</ele><time>2026-05-01T08:20:23.501Z</time></trkpt><trkpt lat="42.3631725" lon="14.2778939"><ele>50.0</ele><time>2026-05-01T08:20:24.501Z</time></trkpt><trkpt lat="42.3630167" lon="14.2777998"><ele>50.0</ele><time>2026-05-01T08:20:25.5Z</time></trkpt><trkpt lat="42.3628604" lon="14.2777332"><ele>50.0</ele><time>2026-05-01T08:20:26.502Z</time></trkpt><trkpt lat="42.3626979" lon="14.2776937"><ele>50.0</ele><time>2026-05-01T08:20:27.501Z</time></trkpt><trkpt lat="42.3625202" lon="14.2776881"><ele>50.0</ele><time>2026-05-01T08:20:28.501Z</time></trkpt><trkpt lat="42.3623157" lon="14.2777033"><ele>50.0</ele><time>2026-05-01T08:20:29.502Z</time></trkpt><trkpt lat="42.362109" lon="14.2777221"><ele>50.0</ele><time>2026-05-01T08:20:30.5Z</time></trkpt><trkpt lat="42.3618947" lon="14.2777461"><ele>50.0</ele><time>2026-05-01T08:20:31.5Z</time></trkpt><trkpt lat="42.3616763" lon="14.2777669"><ele>50.0</ele><time>2026-05-01T08:20:32.501Z</time></trkpt><trkpt lat="42.3614595" lon="14.2777914"><ele>50.0</ele><time>2026-05-01T08:20:33.501Z</time></trkpt><trkpt lat="42.3612449" lon="14.2778145"><ele>50.0</ele><time>2026-05-01T08:20:34.501Z</time></trkpt><trkpt lat="42.3610377" lon="14.2778321"><ele>50.0</ele><time>2026-05-01T08:20:35.501Z</time></trkpt><trkpt lat="42.3608429" lon="14.2778441"><ele>50.0</ele><time>2026-05-01T08:20:36.502Z</time></trkpt><trkpt lat="42.3606615" lon="14.277856"><ele>50.333333333333336</ele><time>2026-05-01T08:20:37.5Z</time></trkpt><trkpt lat="42.360495" lon="14.2778636"><ele>50.66666666666667</ele><time>2026-05-01T08:20:38.501Z</time></trkpt><trkpt lat="42.3603415" lon="14.2778658"><ele>51.0</ele><time>2026-05-01T08:20:39.501Z</time></trkpt><trkpt lat="42.3602044" lon="14.2778489"><ele>51.0</ele><time>2026-05-01T08:20:40.501Z</time></trkpt><trkpt lat="42.360084" lon="14.2777978"><ele>51.0</ele><time>2026-05-01T08:20:41.5Z</time></trkpt><trkpt lat="42.359981" lon="14.2777252"><ele>51.0</ele><time>2026-05-01T08:20:42.501Z</time></trkpt><trkpt lat="42.3599005" lon="14.2776344"><ele>51.0</ele><time>2026-05-01T08:20:43.501Z</time></trkpt><trkpt lat="42.3598496" lon="14.2775379"><ele>51.0</ele><time>2026-05-01T08:20:44.501Z</time></trkpt><trkpt lat="42.3598088" lon="14.2774211"><ele>51.0</ele><time>2026-05-01T08:20:45.5Z</time></trkpt><trkpt lat="42.3597676" lon="14.277297"><ele>51.0</ele><time>2026-05-01T08:20:46.5Z</time></trkpt><trkpt lat="42.359732" lon="14.2771787"><ele>51.0</ele><time>2026-05-01T08:20:47.5Z</time></trkpt><trkpt lat="42.3596983" lon="14.2770735"><ele>51.0</ele><time>2026-05-01T08:20:48.501Z</time></trkpt><trkpt lat="42.3596634" lon="14.2770019"><ele>51.0</ele><time>2026-05-01T08:20:49.501Z</time></trkpt><trkpt lat="42.3595771" lon="14.2769784"><ele>51.0</ele><time>2026-05-01T08:20:51.501Z</time></trkpt><trkpt lat="42.3595394" lon="14.2770543"><ele>50.75</ele><time>2026-05-01T08:20:52.501Z</time></trkpt><trkpt lat="42.3595075" lon="14.2771361"><ele>50.5</ele><time>2026-05-01T08:20:53.501Z</time></trkpt><trkpt lat="42.3594926" lon="14.2772711"><ele>50.25</ele><time>2026-05-01T08:20:54.501Z</time></trkpt><trkpt lat="42.3595117" lon="14.2774793"><ele>50.0</ele><time>2026-05-01T08:20:55.5Z</time></trkpt><trkpt lat="42.3595434" lon="14.2776831"><ele>50.0</ele><time>2026-05-01T08:20:56.501Z</time></trkpt><trkpt lat="42.3595821" lon="14.2778918"><ele>50.0</ele><time>2026-05-01T08:20:57.501Z</time></trkpt><trkpt lat="42.359611" lon="14.2780882"><ele>50.0</ele><time>2026-05-01T08:20:58.502Z</time></trkpt><trkpt lat="42.3596316" lon="14.278273"><ele>50.0</ele><time>2026-05-01T08:20:59.501Z</time></trkpt><trkpt lat="42.3596279" lon="14.2784543"><ele>49.0</ele><time>2026-05-01T08:21:00.501Z</time></trkpt><trkpt lat="42.3595832" lon="14.2786399"><ele>48.0</ele><time>2026-05-01T08:21:01.501Z</time></trkpt><trkpt lat="42.3595256" lon="14.2788272"><ele>47.0</ele><time>2026-05-01T08:21:02.5Z</time></trkpt><trkpt lat="42.3594627" lon="14.2790167"><ele>46.0</ele><time>2026-05-01T08:21:03.5Z</time></trkpt><trkpt lat="42.3593879" lon="14.2792173"><ele>45.333333333333336</ele><time>2026-05-01T08:21:04.501Z</time></trkpt><trkpt lat="42.3593142" lon="14.2794336"><ele>44.666666666666664</ele><time>2026-05-01T08:21:05.501Z</time></trkpt><trkpt lat="42.3592322" lon="14.279647"><ele>44.0</ele><time>2026-05-01T08:21:06.501Z</time></trkpt><trkpt lat="42.3591535" lon="14.2798599"><ele>43.33333333333333</ele><time>2026-05-01T08:21:07.5Z</time></trkpt><trkpt lat="42.3590703" lon="14.2800539"><ele>42.666666666666664</ele><time>2026-05-01T08:21:08.502Z</time></trkpt><trkpt lat="42.3589657" lon="14.2802376"><ele>42.0</ele><time>2026-05-01T08:21:09.501Z</time></trkpt><trkpt lat="42.3588483" lon="14.2803925"><ele>42.0</ele><time>2026-05-01T08:21:10.5Z</time></trkpt><trkpt lat="42.3587259" lon="14.2805233"><ele>42.0</ele><time>2026-05-01T08:21:11.501Z</time></trkpt><trkpt lat="42.3586109" lon="14.2806358"><ele>42.0</ele><time>2026-05-01T08:21:12.501Z</time></trkpt><trkpt lat="42.3585043" lon="14.2807449"><ele>42.0</ele><time>2026-05-01T08:21:13.502Z</time></trkpt><trkpt lat="42.358426" lon="14.2808365"><ele>41.75</ele><time>2026-05-01T08:21:14.502Z</time></trkpt><trkpt lat="42.3583309" lon="14.2809446"><ele>41.5</ele><time>2026-05-01T08:21:16.502Z</time></trkpt><trkpt lat="42.358413" lon="14.2809632"><ele>41.25</ele><time>2026-05-01T08:21:19.5Z</time></trkpt><trkpt lat="42.3585131" lon="14.2809137"><ele>41.0</ele><time>2026-05-01T08:21:20.502Z</time></trkpt><trkpt lat="42.3586616" lon="14.2807779"><ele>41.0</ele><time>2026-05-01T08:21:21.5Z</time></trkpt><trkpt lat="42.358751" lon="14.2807023"><ele>41.0</ele><time>2026-05-01T08:21:22.501Z</time></trkpt><trkpt lat="42.3588356" lon="14.2806408"><ele>41.0</ele><time>2026-05-01T08:21:23.501Z</time></trkpt><trkpt lat="42.3589016" lon="14.280569"><ele>41.0</ele><time>2026-05-01T08:21:25.501Z</time></trkpt><trkpt lat="42.358951" lon="14.2805037"><ele>41.0</ele><time>2026-05-01T08:21:27.501Z</time></trkpt><trkpt lat="42.3590119" lon="14.2804158"><ele>41.0</ele><time>2026-05-01T08:21:29.501Z</time></trkpt><trkpt lat="42.3590676" lon="14.2803409"><ele>41.166666666666664</ele><time>2026-05-01T08:21:32.501Z</time></trkpt><trkpt lat="42.3591003" lon="14.2802621"><ele>41.33333333333333</ele><time>2026-05-01T08:21:35.5Z</time></trkpt><trkpt lat="42.3591776" lon="14.2801384"><ele>41.5</ele><time>2026-05-01T08:21:36.501Z</time></trkpt><trkpt lat="42.3592387" lon="14.2800209"><ele>41.666666666666664</ele><time>2026-05-01T08:21:37.501Z</time></trkpt><trkpt lat="42.3592916" lon="14.2799407"><ele>41.833333333333336</ele><time>2026-05-01T08:21:38.501Z</time></trkpt><trkpt lat="42.3593503" lon="14.2798929"><ele>42.0</ele><time>2026-05-01T08:21:39.5Z</time></trkpt><trkpt lat="42.3594246" lon="14.279858"><ele>42.0</ele><time>2026-05-01T08:21:40.501Z</time></trkpt><trkpt lat="42.3595573" lon="14.2798435"><ele>42.0</ele><time>2026-05-01T08:21:41.501Z</time></trkpt><trkpt lat="42.3596867" lon="14.2798097"><ele>42.0</ele><time>2026-05-01T08:21:42.501Z</time></trkpt><trkpt lat="42.359813" lon="14.2798573"><ele>42.0</ele><time>2026-05-01T08:21:43.502Z</time></trkpt><trkpt lat="42.3599586" lon="14.2798909"><ele>41.666666666666664</ele><time>2026-05-01T08:21:44.501Z</time></trkpt><trkpt lat="42.3601293" lon="14.2799313"><ele>41.33333333333333</ele><time>2026-05-01T08:21:45.501Z</time></trkpt><trkpt lat="42.3602882" lon="14.2799744"><ele>41.0</ele><time>2026-05-01T08:21:46.502Z</time></trkpt><trkpt lat="42.3605095" lon="14.280068"><ele>41.5</ele><time>2026-05-01T08:21:47.501Z</time></trkpt><trkpt lat="42.3606822" lon="14.2801052"><ele>42.0</ele><time>2026-05-01T08:21:48.501Z</time></trkpt><trkpt lat="42.3608075" lon="14.2801302"><ele>42.5</ele><time>2026-05-01T08:21:49.501Z</time></trkpt><trkpt lat="42.36095" lon="14.2801673"><ele>43.0</ele><time>2026-05-01T08:21:50.501Z</time></trkpt><trkpt lat="42.3610869" lon="14.2801859"><ele>43.0</ele><time>2026-05-01T08:21:51.501Z</time></trkpt><trkpt lat="42.3611878" lon="14.2801173"><ele>43.0</ele><time>2026-05-01T08:21:52.5Z</time></trkpt><trkpt lat="42.3612943" lon="14.2800569"><ele>43.0</ele><time>2026-05-01T08:21:53.501Z</time></trkpt><trkpt lat="42.3613604" lon="14.2799174"><ele>43.0</ele><time>2026-05-01T08:21:54.501Z</time></trkpt><trkpt lat="42.3614434" lon="14.2798344"><ele>43.0</ele><time>2026-05-01T08:21:55.501Z</time></trkpt><trkpt lat="42.3615443" lon="14.279806"><ele>43.0</ele><time>2026-05-01T08:21:56.5Z</time></trkpt><trkpt lat="42.3616638" lon="14.2797473"><ele>43.0</ele><time>2026-05-01T08:21:57.501Z</time></trkpt><trkpt lat="42.3617776" lon="14.2796749"><ele>43.0</ele><time>2026-05-01T08:21:58.501Z</time></trkpt><trkpt lat="42.361911" lon="14.2795958"><ele>43.0</ele><time>2026-05-01T08:21:59.5Z</time></trkpt><trkpt lat="42.3620378" lon="14.2795351"><ele>43.0</ele><time>2026-05-01T08:22:00.501Z</time></trkpt><trkpt lat="42.362161" lon="14.279504"><ele>43.0</ele><time>2026-05-01T08:22:01.5Z</time></trkpt><trkpt lat="42.3622777" lon="14.2794567"><ele>43.0</ele><time>2026-05-01T08:22:02.501Z</time></trkpt><trkpt lat="42.3623742" lon="14.2794492"><ele>43.0</ele><time>2026-05-01T08:22:03.5Z</time></trkpt><trkpt lat="42.3624368" lon="14.2795287"><ele>43.0</ele><time>2026-05-01T08:22:04.5Z</time></trkpt><trkpt lat="42.3625466" lon="14.2795615"><ele>43.0</ele><time>2026-05-01T08:22:05.5Z</time></trkpt><trkpt lat="42.362648" lon="14.279684"><ele>43.0</ele><time>2026-05-01T08:22:06.501Z</time></trkpt><trkpt lat="42.3627723" lon="14.2797755"><ele>43.0</ele><time>2026-05-01T08:22:07.501Z</time></trkpt><trkpt lat="42.3628894" lon="14.2798554"><ele>43.0</ele><time>2026-05-01T08:22:08.501Z</time></trkpt><trkpt lat="42.3629976" lon="14.2799283"><ele>43.0</ele><time>2026-05-01T08:22:09.501Z</time></trkpt><trkpt lat="42.3631153" lon="14.2799949"><ele>43.0</ele><time>2026-05-01T08:22:10.5Z</time></trkpt><trkpt lat="42.3632357" lon="14.2800488"><ele>42.75</ele><time>2026-05-01T08:22:11.501Z</time></trkpt><trkpt lat="42.3633584" lon="14.2801044"><ele>42.5</ele><time>2026-05-01T08:22:12.5Z</time></trkpt><trkpt lat="42.3634719" lon="14.2801669"><ele>42.25</ele><time>2026-05-01T08:22:13.5Z</time></trkpt><trkpt lat="42.3635862" lon="14.280219"><ele>42.0</ele><time>2026-05-01T08:22:14.5Z</time></trkpt><trkpt lat="42.363686" lon="14.2802701"><ele>42.0</ele><time>2026-05-01T08:22:15.5Z</time></trkpt><trkpt lat="42.3637787" lon="14.2803297"><ele>42.0</ele><time>2026-05-01T08:22:16.501Z</time></trkpt><trkpt lat="42.3638651" lon="14.2803998"><ele>42.0</ele><time>2026-05-01T08:22:17.5Z</time></trkpt><trkpt lat="42.3639382" lon="14.28049"><ele>42.0</ele><time>2026-05-01T08:22:18.499Z</time></trkpt><trkpt lat="42.3640103" lon="14.2805941"><ele>42.0</ele><time>2026-05-01T08:22:19.499Z</time></trkpt><trkpt lat="42.3640781" lon="14.2807702"><ele>41.0</ele><time>2026-05-01T08:22:20.499Z</time></trkpt><trkpt lat="42.3641578" lon="14.2809404"><ele>40.0</ele><time>2026-05-01T08:22:21.5Z</time></trkpt><trkpt lat="42.3642307" lon="14.2810922"><ele>39.0</ele><time>2026-05-01T08:22:22.5Z</time></trkpt><trkpt lat="42.3642901" lon="14.2812334"><ele>38.0</ele><time>2026-05-01T08:22:23.5Z</time></trkpt><trkpt lat="42.3643331" lon="14.2813608"><ele>37.6</ele><time>2026-05-01T08:22:24.5Z</time></trkpt><trkpt lat="42.3643469" lon="14.2814917"><ele>37.199999999999996</ele><time>2026-05-01T08:22:25.499Z</time></trkpt><trkpt lat="42.3643555" lon="14.2816299"><ele>36.8</ele><time>2026-05-01T08:22:26.5Z</time></trkpt><trkpt lat="42.3643276" lon="14.2817767"><ele>36.4</ele><time>2026-05-01T08:22:27.499Z</time></trkpt><trkpt lat="42.3642985" lon="14.2819106"><ele>36.0</ele><time>2026-05-01T08:22:28.5Z</time></trkpt><trkpt lat="42.3642694" lon="14.2820352"><ele>36.0</ele><time>2026-05-01T08:22:29.5Z</time></trkpt><trkpt lat="42.3642361" lon="14.2821452"><ele>36.0</ele><time>2026-05-01T08:22:30.499Z</time></trkpt><trkpt lat="42.3641615" lon="14.2822585"><ele>36.0</ele><time>2026-05-01T08:22:31.501Z</time></trkpt><trkpt lat="42.3641148" lon="14.2823607"><ele>36.0</ele><time>2026-05-01T08:22:32.5Z</time></trkpt><trkpt lat="42.3640925" lon="14.2825612"><ele>36.0</ele><time>2026-05-01T08:22:34.5Z</time></trkpt><trkpt lat="42.3640827" lon="14.2826591"><ele>36.0</ele><time>2026-05-01T08:22:35.499Z</time></trkpt><trkpt lat="42.3641085" lon="14.2828123"><ele>36.0</ele><time>2026-05-01T08:22:36.501Z</time></trkpt><trkpt lat="42.3641354" lon="14.2829319"><ele>36.0</ele><time>2026-05-01T08:22:37.5Z</time></trkpt><trkpt lat="42.3641895" lon="14.2830743"><ele>36.0</ele><time>2026-05-01T08:22:39.5Z</time></trkpt><trkpt lat="42.3642157" lon="14.2831767"><ele>36.0</ele><time>2026-05-01T08:22:40.499Z</time></trkpt><trkpt lat="42.3642489" lon="14.2832797"><ele>35.75</ele><time>2026-05-01T08:22:41.499Z</time></trkpt><trkpt lat="42.364256" lon="14.2834499"><ele>35.5</ele><time>2026-05-01T08:22:42.5Z</time></trkpt><trkpt lat="42.3642718" lon="14.2835953"><ele>35.25</ele><time>2026-05-01T08:22:43.499Z</time></trkpt><trkpt lat="42.3642792" lon="14.2837662"><ele>35.0</ele><time>2026-05-01T08:22:44.5Z</time></trkpt><trkpt lat="42.3642743" lon="14.2839499"><ele>34.33333333333333</ele><time>2026-05-01T08:22:45.499Z</time></trkpt><trkpt lat="42.364261" lon="14.2841656"><ele>33.666666666666664</ele><time>2026-05-01T08:22:46.5Z</time></trkpt><trkpt lat="42.3642437" lon="14.2843879"><ele>33.0</ele><time>2026-05-01T08:22:47.5Z</time></trkpt><trkpt lat="42.3642243" lon="14.2846085"><ele>33.0</ele><time>2026-05-01T08:22:48.501Z</time></trkpt><trkpt lat="42.3642152" lon="14.2848012"><ele>33.0</ele><time>2026-05-01T08:22:49.5Z</time></trkpt><trkpt lat="42.3642022" lon="14.2850063"><ele>33.0</ele><time>2026-05-01T08:22:50.5Z</time></trkpt><trkpt lat="42.3642016" lon="14.2851679"><ele>33.0</ele><time>2026-05-01T08:22:51.5Z</time></trkpt><trkpt lat="42.3642087" lon="14.2853485"><ele>33.0</ele><time>2026-05-01T08:22:52.499Z</time></trkpt><trkpt lat="42.3642308" lon="14.2855535"><ele>33.0</ele><time>2026-05-01T08:22:53.5Z</time></trkpt><trkpt lat="42.364262" lon="14.2857352"><ele>33.0</ele><time>2026-05-01T08:22:54.499Z</time></trkpt><trkpt lat="42.3642988" lon="14.2858966"><ele>33.0</ele><time>2026-05-01T08:22:55.5Z</time></trkpt><trkpt lat="42.3643672" lon="14.2860588"><ele>33.25</ele><time>2026-05-01T08:22:56.499Z</time></trkpt><trkpt lat="42.3644533" lon="14.2862394"><ele>33.5</ele><time>2026-05-01T08:22:57.499Z</time></trkpt><trkpt lat="42.3645192" lon="14.2864034"><ele>33.75</ele><time>2026-05-01T08:22:58.5Z</time></trkpt><trkpt lat="42.3646113" lon="14.2865161"><ele>34.0</ele><time>2026-05-01T08:22:59.499Z</time></trkpt><trkpt lat="42.3647335" lon="14.2866176"><ele>34.25</ele><time>2026-05-01T08:23:00.501Z</time></trkpt><trkpt lat="42.3648445" lon="14.286732"><ele>34.5</ele><time>2026-05-01T08:23:01.5Z</time></trkpt><trkpt lat="42.3649539" lon="14.286848"><ele>34.75</ele><time>2026-05-01T08:23:02.5Z</time></trkpt><trkpt lat="42.3650647" lon="14.2869585"><ele>35.0</ele><time>2026-05-01T08:23:03.5Z</time></trkpt><trkpt lat="42.3651672" lon="14.2870738"><ele>35.0</ele><time>2026-05-01T08:23:04.501Z</time></trkpt><trkpt lat="42.3652671" lon="14.2871746"><ele>35.0</ele><time>2026-05-01T08:23:05.5Z</time></trkpt><trkpt lat="42.3653582" lon="14.2872657"><ele>35.0</ele><time>2026-05-01T08:23:06.5Z</time></trkpt><trkpt lat="42.3654539" lon="14.2873203"><ele>35.0</ele><time>2026-05-01T08:23:07.5Z</time></trkpt><trkpt lat="42.3655352" lon="14.28736"><ele>35.0</ele><time>2026-05-01T08:23:08.5Z</time></trkpt><trkpt lat="42.36564" lon="14.287401"><ele>34.666666666666664</ele><time>2026-05-01T08:23:09.499Z</time></trkpt><trkpt lat="42.3657236" lon="14.2874145"><ele>34.33333333333333</ele><time>2026-05-01T08:23:10.5Z</time></trkpt><trkpt lat="42.3658223" lon="14.2874442"><ele>34.0</ele><time>2026-05-01T08:23:12.5Z</time></trkpt><trkpt lat="42.365891" lon="14.2874327"><ele>33.666666666666664</ele><time>2026-05-01T08:23:14.5Z</time></trkpt><trkpt lat="42.3659645" lon="14.2873962"><ele>33.333333333333336</ele><time>2026-05-01T08:23:16.5Z</time></trkpt><trkpt lat="42.3660425" lon="14.2873531"><ele>33.0</ele><time>2026-05-01T08:23:17.5Z</time></trkpt><trkpt lat="42.3661295" lon="14.2872879"><ele>33.199999999999996</ele><time>2026-05-01T08:23:18.5Z</time></trkpt><trkpt lat="42.3662264" lon="14.2872319"><ele>33.4</ele><time>2026-05-01T08:23:19.5Z</time></trkpt><trkpt lat="42.3663285" lon="14.2872069"><ele>33.599999999999994</ele><time>2026-05-01T08:23:20.5Z</time></trkpt><trkpt lat="42.3664105" lon="14.2872153"><ele>33.8</ele><time>2026-05-01T08:23:21.5Z</time></trkpt><trkpt lat="42.3664917" lon="14.2872432"><ele>34.0</ele><time>2026-05-01T08:23:22.501Z</time></trkpt><trkpt lat="42.3665625" lon="14.2872945"><ele>34.25</ele><time>2026-05-01T08:23:23.501Z</time></trkpt><trkpt lat="42.366592" lon="14.287451"><ele>34.5</ele><time>2026-05-01T08:23:24.5Z</time></trkpt><trkpt lat="42.3666309" lon="14.2875942"><ele>34.75</ele><time>2026-05-01T08:23:25.5Z</time></trkpt><trkpt lat="42.3666672" lon="14.2878237"><ele>35.0</ele><time>2026-05-01T08:23:26.5Z</time></trkpt><trkpt lat="42.3667479" lon="14.288092"><ele>34.666666666666664</ele><time>2026-05-01T08:23:27.501Z</time></trkpt><trkpt lat="42.3667764" lon="14.2883029"><ele>34.333333333333336</ele><time>2026-05-01T08:23:28.5Z</time></trkpt><trkpt lat="42.3668313" lon="14.288498"><ele>34.0</ele><time>2026-05-01T08:23:29.5Z</time></trkpt><trkpt lat="42.3668685" lon="14.2886843"><ele>34.0</ele><time>2026-05-01T08:23:30.5Z</time></trkpt><trkpt lat="42.3668918" lon="14.2888632"><ele>34.0</ele><time>2026-05-01T08:23:31.5Z</time></trkpt><trkpt lat="42.3669151" lon="14.2890721"><ele>34.0</ele><time>2026-05-01T08:23:32.501Z</time></trkpt><trkpt lat="42.3669355" lon="14.2892708"><ele>34.0</ele><time>2026-05-01T08:23:33.5Z</time></trkpt><trkpt lat="42.3669459" lon="14.2894899"><ele>33.75</ele><time>2026-05-01T08:23:34.5Z</time></trkpt><trkpt lat="42.3669579" lon="14.2896977"><ele>33.5</ele><time>2026-05-01T08:23:35.5Z</time></trkpt><trkpt lat="42.3669599" lon="14.2898825"><ele>33.25</ele><time>2026-05-01T08:23:36.5Z</time></trkpt><trkpt lat="42.3669731" lon="14.2900728"><ele>33.0</ele><time>2026-05-01T08:23:37.5Z</time></trkpt><trkpt lat="42.3670056" lon="14.2902217"><ele>33.0</ele><time>2026-05-01T08:23:38.5Z</time></trkpt><trkpt lat="42.3670276" lon="14.2903888"><ele>33.0</ele><time>2026-05-01T08:23:39.5Z</time></trkpt><trkpt lat="42.3671036" lon="14.2904813"><ele>33.0</ele><time>2026-05-01T08:23:40.499Z</time></trkpt><trkpt lat="42.3671804" lon="14.2906139"><ele>33.0</ele><time>2026-05-01T08:23:41.5Z</time></trkpt><trkpt lat="42.3672503" lon="14.290727"><ele>33.25</ele><time>2026-05-01T08:23:42.501Z</time></trkpt><trkpt lat="42.3673393" lon="14.2908242"><ele>33.5</ele><time>2026-05-01T08:23:43.5Z</time></trkpt><trkpt lat="42.3674465" lon="14.2909443"><ele>33.75</ele><time>2026-05-01T08:23:44.499Z</time></trkpt><trkpt lat="42.3675301" lon="14.2910656"><ele>34.0</ele><time>2026-05-01T08:23:45.501Z</time></trkpt><trkpt lat="42.3676162" lon="14.2911972"><ele>34.0</ele><time>2026-05-01T08:23:46.499Z</time></trkpt><trkpt lat="42.3676865" lon="14.2913294"><ele>34.0</ele><time>2026-05-01T08:23:47.5Z</time></trkpt><trkpt lat="42.3677413" lon="14.2914475"><ele>34.0</ele><time>2026-05-01T08:23:48.5Z</time></trkpt><trkpt lat="42.3677975" lon="14.2915598"><ele>34.0</ele><time>2026-05-01T08:23:49.499Z</time></trkpt><trkpt lat="42.3678552" lon="14.2916699"><ele>34.0</ele><time>2026-05-01T08:23:50.5Z</time></trkpt><trkpt lat="42.3679113" lon="14.2917857"><ele>33.2</ele><time>2026-05-01T08:23:51.5Z</time></trkpt><trkpt lat="42.3679698" lon="14.2919157"><ele>32.4</ele><time>2026-05-01T08:23:52.499Z</time></trkpt><trkpt lat="42.3680136" lon="14.2920376"><ele>31.6</ele><time>2026-05-01T08:23:53.5Z</time></trkpt><trkpt lat="42.368052" lon="14.2921652"><ele>30.8</ele><time>2026-05-01T08:23:54.5Z</time></trkpt><trkpt lat="42.3680848" lon="14.2922869"><ele>30.0</ele><time>2026-05-01T08:23:55.5Z</time></trkpt><trkpt lat="42.3681133" lon="14.2924116"><ele>30.0</ele><time>2026-05-01T08:23:56.5Z</time></trkpt><trkpt lat="42.3681419" lon="14.2925495"><ele>30.0</ele><time>2026-05-01T08:23:57.5Z</time></trkpt><trkpt lat="42.3681771" lon="14.2926968"><ele>30.0</ele><time>2026-05-01T08:23:58.5Z</time></trkpt><trkpt lat="42.3682132" lon="14.2928541"><ele>30.0</ele><time>2026-05-01T08:23:59.5Z</time></trkpt><trkpt lat="42.3682494" lon="14.2930276"><ele>30.0</ele><time>2026-05-01T08:24:00.499Z</time></trkpt><trkpt lat="42.3682856" lon="14.2931989"><ele>30.0</ele><time>2026-05-01T08:24:01.5Z</time></trkpt><trkpt lat="42.3683226" lon="14.2933488"><ele>30.0</ele><time>2026-05-01T08:24:02.5Z</time></trkpt><trkpt lat="42.3683564" lon="14.2935008"><ele>30.0</ele><time>2026-05-01T08:24:03.499Z</time></trkpt><trkpt lat="42.3683891" lon="14.29364"><ele>30.0</ele><time>2026-05-01T08:24:04.499Z</time></trkpt><trkpt lat="42.3684115" lon="14.2937201"><ele>30.0</ele><time>2026-05-01T08:24:05.499Z</time></trkpt><trkpt lat="42.3684393" lon="14.2938387"><ele>30.0</ele><time>2026-05-01T08:24:06.5Z</time></trkpt><trkpt lat="42.368464" lon="14.2939476"><ele>30.0</ele><time>2026-05-01T08:24:07.499Z</time></trkpt><trkpt lat="42.3684839" lon="14.2940628"><ele>30.0</ele><time>2026-05-01T08:24:08.501Z</time></trkpt><trkpt lat="42.368501" lon="14.2942066"><ele>30.0</ele><time>2026-05-01T08:24:09.5Z</time></trkpt><trkpt lat="42.3685174" lon="14.2943363"><ele>29.833333333333332</ele><time>2026-05-01T08:24:10.499Z</time></trkpt><trkpt lat="42.3685416" lon="14.2944538"><ele>29.666666666666664</ele><time>2026-05-01T08:24:11.5Z</time></trkpt><trkpt lat="42.3685555" lon="14.294572"><ele>29.5</ele><time>2026-05-01T08:24:12.499Z</time></trkpt><trkpt lat="42.3685586" lon="14.2946752"><ele>29.333333333333332</ele><time>2026-05-01T08:24:13.499Z</time></trkpt><trkpt lat="42.3685618" lon="14.2947701"><ele>29.166666666666664</ele><time>2026-05-01T08:24:14.5Z</time></trkpt><trkpt lat="42.3685508" lon="14.2949271"><ele>29.0</ele><time>2026-05-01T08:24:16.5Z</time></trkpt><trkpt lat="42.3685287" lon="14.2950536"><ele>29.0</ele><time>2026-05-01T08:24:18.5Z</time></trkpt><trkpt lat="42.3685381" lon="14.2951751"><ele>29.0</ele><time>2026-05-01T08:24:21.499Z</time></trkpt><trkpt lat="42.3685666" lon="14.2953265"><ele>29.0</ele><time>2026-05-01T08:24:23.5Z</time></trkpt><trkpt lat="42.3686147" lon="14.295446"><ele>29.0</ele><time>2026-05-01T08:24:24.5Z</time></trkpt><trkpt lat="42.3686923" lon="14.2956274"><ele>29.0</ele><time>2026-05-01T08:24:25.5Z</time></trkpt><trkpt lat="42.3687676" lon="14.2958135"><ele>29.0</ele><time>2026-05-01T08:24:26.5Z</time></trkpt><trkpt lat="42.3688327" lon="14.2959777"><ele>29.0</ele><time>2026-05-01T08:24:27.5Z</time></trkpt><trkpt lat="42.3689026" lon="14.2961299"><ele>29.0</ele><time>2026-05-01T08:24:28.5Z</time></trkpt><trkpt lat="42.3689717" lon="14.2962706"><ele>28.799999999999997</ele><time>2026-05-01T08:24:29.5Z</time></trkpt><trkpt lat="42.3690348" lon="14.2963887"><ele>28.599999999999998</ele><time>2026-05-01T08:24:30.5Z</time></trkpt><trkpt lat="42.3690866" lon="14.2965073"><ele>28.4</ele><time>2026-05-01T08:24:31.501Z</time></trkpt><trkpt lat="42.3691367" lon="14.2966267"><ele>28.2</ele><time>2026-05-01T08:24:32.501Z</time></trkpt><trkpt lat="42.3691917" lon="14.2967387"><ele>28.0</ele><time>2026-05-01T08:24:33.501Z</time></trkpt><trkpt lat="42.3692555" lon="14.2968488"><ele>28.666666666666668</ele><time>2026-05-01T08:24:34.499Z</time></trkpt><trkpt lat="42.3693259" lon="14.2970029"><ele>29.333333333333336</ele><time>2026-05-01T08:24:35.499Z</time></trkpt><trkpt lat="42.3694069" lon="14.2972008"><ele>30.0</ele><time>2026-05-01T08:24:36.5Z</time></trkpt><trkpt lat="42.3695048" lon="14.2974159"><ele>30.0</ele><time>2026-05-01T08:24:37.5Z</time></trkpt><trkpt lat="42.3696081" lon="14.2976469"><ele>30.0</ele><time>2026-05-01T08:24:38.5Z</time></trkpt><trkpt lat="42.3697086" lon="14.2978578"><ele>30.0</ele><time>2026-05-01T08:24:39.5Z</time></trkpt><trkpt lat="42.3698022" lon="14.2980671"><ele>29.75</ele><time>2026-05-01T08:24:40.5Z</time></trkpt><trkpt lat="42.3698982" lon="14.2982742"><ele>29.5</ele><time>2026-05-01T08:24:41.5Z</time></trkpt><trkpt lat="42.3699998" lon="14.298367"><ele>29.25</ele><time>2026-05-01T08:24:42.5Z</time></trkpt><trkpt lat="42.3700937" lon="14.2985013"><ele>29.0</ele><time>2026-05-01T08:24:43.499Z</time></trkpt><trkpt lat="42.370232" lon="14.2986364"><ele>29.0</ele><time>2026-05-01T08:24:44.5Z</time></trkpt><trkpt lat="42.3703498" lon="14.2987864"><ele>29.0</ele><time>2026-05-01T08:24:45.5Z</time></trkpt><trkpt lat="42.3705382" lon="14.2989422"><ele>29.0</ele><time>2026-05-01T08:24:46.499Z</time></trkpt><trkpt lat="42.3706752" lon="14.2990872"><ele>28.5</ele><time>2026-05-01T08:24:47.499Z</time></trkpt><trkpt lat="42.3708123" lon="14.2991984"><ele>28.0</ele><time>2026-05-01T08:24:48.5Z</time></trkpt><trkpt lat="42.3709311" lon="14.2993078"><ele>27.5</ele><time>2026-05-01T08:24:49.5Z</time></trkpt><trkpt lat="42.3710422" lon="14.2993929"><ele>27.0</ele><time>2026-05-01T08:24:50.501Z</time></trkpt><trkpt lat="42.3711396" lon="14.2994418"><ele>27.0</ele><time>2026-05-01T08:24:51.5Z</time></trkpt><trkpt lat="42.3712526" lon="14.2994789"><ele>27.0</ele><time>2026-05-01T08:24:52.5Z</time></trkpt><trkpt lat="42.3713948" lon="14.2994802"><ele>27.0</ele><time>2026-05-01T08:24:53.5Z</time></trkpt><trkpt lat="42.3715313" lon="14.2994892"><ele>27.0</ele><time>2026-05-01T08:24:54.501Z</time></trkpt><trkpt lat="42.371684" lon="14.2994647"><ele>26.8</ele><time>2026-05-01T08:24:55.5Z</time></trkpt><trkpt lat="42.3717882" lon="14.29949"><ele>26.6</ele><time>2026-05-01T08:24:56.5Z</time></trkpt><trkpt lat="42.3718895" lon="14.2995185"><ele>26.400000000000002</ele><time>2026-05-01T08:24:57.5Z</time></trkpt><trkpt lat="42.3719954" lon="14.2995323"><ele>26.200000000000003</ele><time>2026-05-01T08:24:58.501Z</time></trkpt><trkpt lat="42.3720917" lon="14.2995486"><ele>26.0</ele><time>2026-05-01T08:24:59.499Z</time></trkpt><trkpt lat="42.3721406" lon="14.2996632"><ele>25.75</ele><time>2026-05-01T08:25:00.5Z</time></trkpt><trkpt lat="42.3721953" lon="14.2997523"><ele>25.5</ele><time>2026-05-01T08:25:01.5Z</time></trkpt><trkpt lat="42.3722657" lon="14.2998623"><ele>25.25</ele><time>2026-05-01T08:25:02.5Z</time></trkpt><trkpt lat="42.3723351" lon="14.3000344"><ele>25.0</ele><time>2026-05-01T08:25:03.5Z</time></trkpt><trkpt lat="42.3724165" lon="14.3001868"><ele>25.0</ele><time>2026-05-01T08:25:04.5Z</time></trkpt><trkpt lat="42.3724943" lon="14.3003691"><ele>25.0</ele><time>2026-05-01T08:25:05.5Z</time></trkpt><trkpt lat="42.3725817" lon="14.3005591"><ele>25.0</ele><time>2026-05-01T08:25:06.5Z</time></trkpt><trkpt lat="42.3726474" lon="14.3007282"><ele>24.6</ele><time>2026-05-01T08:25:07.5Z</time></trkpt><trkpt lat="42.3727316" lon="14.3008273"><ele>24.2</ele><time>2026-05-01T08:25:08.501Z</time></trkpt><trkpt lat="42.3728107" lon="14.300917"><ele>23.799999999999997</ele><time>2026-05-01T08:25:09.499Z</time></trkpt><trkpt lat="42.3729186" lon="14.3009854"><ele>23.4</ele><time>2026-05-01T08:25:10.499Z</time></trkpt><trkpt lat="42.3730028" lon="14.3010256"><ele>23.0</ele><time>2026-05-01T08:25:11.5Z</time></trkpt><trkpt lat="42.3731061" lon="14.3010519"><ele>23.0</ele><time>2026-05-01T08:25:12.499Z</time></trkpt><trkpt lat="42.3732214" lon="14.3010385"><ele>23.0</ele><time>2026-05-01T08:25:13.499Z</time></trkpt><trkpt lat="42.3733411" lon="14.3010062"><ele>23.0</ele><time>2026-05-01T08:25:14.499Z</time></trkpt><trkpt lat="42.3734797" lon="14.3009476"><ele>23.0</ele><time>2026-05-01T08:25:15.5Z</time></trkpt><trkpt lat="42.3736369" lon="14.300871"><ele>23.0</ele><time>2026-05-01T08:25:16.5Z</time></trkpt><trkpt lat="42.3737874" lon="14.3008025"><ele>23.0</ele><time>2026-05-01T08:25:17.498Z</time></trkpt><trkpt lat="42.3739437" lon="14.3007333"><ele>23.0</ele><time>2026-05-01T08:25:18.498Z</time></trkpt><trkpt lat="42.3740969" lon="14.3006537"><ele>22.5</ele><time>2026-05-01T08:25:19.5Z</time></trkpt><trkpt lat="42.3742426" lon="14.3005777"><ele>22.0</ele><time>2026-05-01T08:25:20.499Z</time></trkpt><trkpt lat="42.3743889" lon="14.3005102"><ele>21.5</ele><time>2026-05-01T08:25:21.499Z</time></trkpt><trkpt lat="42.3744596" lon="14.3004953"><ele>21.0</ele><time>2026-05-01T08:25:22.498Z</time></trkpt><trkpt lat="42.3745647" lon="14.3004868"><ele>21.0</ele><time>2026-05-01T08:25:23.498Z</time></trkpt><trkpt lat="42.37467" lon="14.3005231"><ele>21.0</ele><time>2026-05-01T08:25:24.5Z</time></trkpt><trkpt lat="42.3747705" lon="14.3005983"><ele>21.0</ele><time>2026-05-01T08:25:25.499Z</time></trkpt><trkpt lat="42.3748593" lon="14.3006722"><ele>21.0</ele><time>2026-05-01T08:25:26.498Z</time></trkpt><trkpt lat="42.374893" lon="14.3008131"><ele>21.0</ele><time>2026-05-01T08:25:27.498Z</time></trkpt><trkpt lat="42.3749457" lon="14.3009495"><ele>21.0</ele><time>2026-05-01T08:25:28.498Z</time></trkpt><trkpt lat="42.3750044" lon="14.3010846"><ele>21.0</ele><time>2026-05-01T08:25:29.499Z</time></trkpt><trkpt lat="42.374941" lon="14.3014045"><ele>21.0</ele><time>2026-05-01T08:25:30.499Z</time></trkpt><trkpt lat="42.3749494" lon="14.3015888"><ele>21.0</ele><time>2026-05-01T08:25:31.498Z</time></trkpt><trkpt lat="42.3749444" lon="14.3017584"><ele>21.0</ele><time>2026-05-01T08:25:32.499Z</time></trkpt><trkpt lat="42.3749475" lon="14.3019243"><ele>21.0</ele><time>2026-05-01T08:25:33.498Z</time></trkpt><trkpt lat="42.3749543" lon="14.3020902"><ele>21.0</ele><time>2026-05-01T08:25:34.5Z</time></trkpt><trkpt lat="42.3749616" lon="14.3022006"><ele>21.5</ele><time>2026-05-01T08:25:35.499Z</time></trkpt><trkpt lat="42.3749807" lon="14.3022997"><ele>22.0</ele><time>2026-05-01T08:25:36.499Z</time></trkpt><trkpt lat="42.3750012" lon="14.302394"><ele>22.5</ele><time>2026-05-01T08:25:37.499Z</time></trkpt><trkpt lat="42.3750391" lon="14.3024905"><ele>23.0</ele><time>2026-05-01T08:25:38.498Z</time></trkpt><trkpt lat="42.3751044" lon="14.3025912"><ele>23.5</ele><time>2026-05-01T08:25:39.499Z</time></trkpt><trkpt lat="42.3751751" lon="14.3026951"><ele>24.0</ele><time>2026-05-01T08:25:40.499Z</time></trkpt><trkpt lat="42.3752804" lon="14.3027932"><ele>24.0</ele><time>2026-05-01T08:25:41.499Z</time></trkpt><trkpt lat="42.3753761" lon="14.3028795"><ele>24.0</ele><time>2026-05-01T08:25:42.499Z</time></trkpt><trkpt lat="42.3754966" lon="14.3029659"><ele>24.0</ele><time>2026-05-01T08:25:43.499Z</time></trkpt><trkpt lat="42.3756388" lon="14.3030496"><ele>24.0</ele><time>2026-05-01T08:25:44.499Z</time></trkpt><trkpt lat="42.3757583" lon="14.3031274"><ele>23.6</ele><time>2026-05-01T08:25:45.499Z</time></trkpt><trkpt lat="42.3758836" lon="14.303217"><ele>23.2</ele><time>2026-05-01T08:25:46.499Z</time></trkpt><trkpt lat="42.3759908" lon="14.3033114"><ele>22.8</ele><time>2026-05-01T08:25:47.499Z</time></trkpt><trkpt lat="42.3760727" lon="14.3033791"><ele>22.400000000000002</ele><time>2026-05-01T08:25:48.499Z</time></trkpt><trkpt lat="42.3761458" lon="14.3033998"><ele>22.0</ele><time>2026-05-01T08:25:49.499Z</time></trkpt><trkpt lat="42.3762166" lon="14.3034202"><ele>22.0</ele><time>2026-05-01T08:25:50.499Z</time></trkpt><trkpt lat="42.3762607" lon="14.3033182"><ele>22.0</ele><time>2026-05-01T08:25:53.5Z</time></trkpt><trkpt lat="42.3762903" lon="14.3031741"><ele>22.0</ele><time>2026-05-01T08:25:55.499Z</time></trkpt><trkpt lat="42.3763093" lon="14.3030481"><ele>22.0</ele><time>2026-05-01T08:25:56.499Z</time></trkpt><trkpt lat="42.3763167" lon="14.302938"><ele>22.0</ele><time>2026-05-01T08:25:57.5Z</time></trkpt><trkpt lat="42.3763238" lon="14.3028449"><ele>22.0</ele><time>2026-05-01T08:25:58.5Z</time></trkpt><trkpt lat="42.3763606" lon="14.3027323"><ele>22.166666666666664</ele><time>2026-05-01T08:26:00.499Z</time></trkpt><trkpt lat="42.3764506" lon="14.3027325"><ele>22.333333333333332</ele><time>2026-05-01T08:26:02.499Z</time></trkpt><trkpt lat="42.3765499" lon="14.3027733"><ele>22.5</ele><time>2026-05-01T08:26:04.498Z</time></trkpt><trkpt lat="42.3766214" lon="14.3028161"><ele>22.666666666666668</ele><time>2026-05-01T08:26:06.498Z</time></trkpt><trkpt lat="42.3766883" lon="14.3028678"><ele>22.833333333333336</ele><time>2026-05-01T08:26:08.5Z</time></trkpt><trkpt lat="42.3767531" lon="14.3029199"><ele>23.0</ele><time>2026-05-01T08:26:11.499Z</time></trkpt><trkpt lat="42.3767189" lon="14.3028473"><ele>23.0</ele><time>2026-05-01T08:26:19.499Z</time></trkpt><trkpt lat="42.3766388" lon="14.302863"><ele>23.0</ele><time>2026-05-01T08:26:22.499Z</time></trkpt><trkpt lat="42.3765395" lon="14.3027989"><ele>23.0</ele><time>2026-05-01T08:26:24.499Z</time></trkpt><trkpt lat="42.3764409" lon="14.3027507"><ele>23.0</ele><time>2026-05-01T08:26:26.498Z</time></trkpt><trkpt lat="42.3763591" lon="14.3027259"><ele>23.0</ele><time>2026-05-01T08:26:28.499Z</time></trkpt><trkpt lat="42.3762844" lon="14.3026907"><ele>22.714285714285715</ele><time>2026-05-01T08:26:35.499Z</time></trkpt><trkpt lat="42.3762157" lon="14.3026605"><ele>22.428571428571427</ele><time>2026-05-01T08:26:37.499Z</time></trkpt><trkpt lat="42.3761477" lon="14.3026595"><ele>22.142857142857142</ele><time>2026-05-01T08:26:38.499Z</time></trkpt><trkpt lat="42.3760767" lon="14.30266"><ele>21.857142857142858</ele><time>2026-05-01T08:26:39.499Z</time></trkpt><trkpt lat="42.3760077" lon="14.3026687"><ele>21.57142857142857</ele><time>2026-05-01T08:26:40.499Z</time></trkpt><trkpt lat="42.3759445" lon="14.3026651"><ele>21.285714285714285</ele><time>2026-05-01T08:26:41.499Z</time></trkpt><trkpt lat="42.3758819" lon="14.3026552"><ele>21.0</ele><time>2026-05-01T08:26:42.499Z</time></trkpt><trkpt lat="42.3758056" lon="14.3026259"><ele>21.0</ele><time>2026-05-01T08:26:44.498Z</time></trkpt><trkpt lat="42.3757368" lon="14.3026144"><ele>21.0</ele><time>2026-05-01T08:26:46.5Z</time></trkpt><trkpt lat="42.3756585" lon="14.3025594"><ele>21.0</ele><time>2026-05-01T08:26:49.499Z</time></trkpt><trkpt lat="42.3757149" lon="14.3026013"><ele>21.0</ele><time>2026-05-01T08:27:03.498Z</time></trkpt><trkpt lat="42.3757842" lon="14.3026141"><ele>21.0</ele><time>2026-05-01T08:27:05.5Z</time></trkpt><trkpt lat="42.3758531" lon="14.3023743"><ele>21.0</ele><time>2026-05-01T08:27:30.499Z</time></trkpt><trkpt lat="42.3758725" lon="14.30225"><ele>21.0</ele><time>2026-05-01T08:27:31.499Z</time></trkpt><trkpt lat="42.3758986" lon="14.3021026"><ele>21.0</ele><time>2026-05-01T08:27:32.498Z</time></trkpt><trkpt lat="42.3759319" lon="14.3019359"><ele>21.0</ele><time>2026-05-01T08:27:33.498Z</time></trkpt><trkpt lat="42.3759797" lon="14.3017681"><ele>22.333333333333336</ele><time>2026-05-01T08:27:34.499Z</time></trkpt><trkpt lat="42.3760347" lon="14.3015986"><ele>23.666666666666668</ele><time>2026-05-01T08:27:35.499Z</time></trkpt><trkpt lat="42.3761026" lon="14.301411"><ele>25.0</ele><time>2026-05-01T08:27:36.499Z</time></trkpt><trkpt lat="42.3761785" lon="14.3012094"><ele>26.333333333333336</ele><time>2026-05-01T08:27:37.499Z</time></trkpt><trkpt lat="42.376257" lon="14.3009966"><ele>27.666666666666664</ele><time>2026-05-01T08:27:38.498Z</time></trkpt><trkpt lat="42.3763298" lon="14.3008011"><ele>29.0</ele><time>2026-05-01T08:27:39.499Z</time></trkpt><trkpt lat="42.3763953" lon="14.300637"><ele>29.799999999999997</ele><time>2026-05-01T08:27:40.499Z</time></trkpt><trkpt lat="42.3764407" lon="14.3005013"><ele>30.599999999999998</ele><time>2026-05-01T08:27:41.499Z</time></trkpt><trkpt lat="42.3764762" lon="14.3003997"><ele>31.4</ele><time>2026-05-01T08:27:42.5Z</time></trkpt><trkpt lat="42.3765415" lon="14.3003037"><ele>32.199999999999996</ele><time>2026-05-01T08:27:44.499Z</time></trkpt><trkpt lat="42.3766232" lon="14.3003845"><ele>33.0</ele><time>2026-05-01T08:27:46.499Z</time></trkpt><trkpt lat="42.3766792" lon="14.3004612"><ele>33.0</ele><time>2026-05-01T08:27:47.498Z</time></trkpt><trkpt lat="42.37676" lon="14.3005551"><ele>33.0</ele><time>2026-05-01T08:27:48.5Z</time></trkpt><trkpt lat="42.3768493" lon="14.3006596"><ele>33.0</ele><time>2026-05-01T08:27:49.499Z</time></trkpt><trkpt lat="42.3769557" lon="14.3007701"><ele>33.0</ele><time>2026-05-01T08:27:50.499Z</time></trkpt><trkpt lat="42.3770769" lon="14.3008793"><ele>32.0</ele><time>2026-05-01T08:27:51.499Z</time></trkpt><trkpt lat="42.3772111" lon="14.3009718"><ele>31.0</ele><time>2026-05-01T08:27:52.499Z</time></trkpt><trkpt lat="42.377361" lon="14.301051"><ele>30.0</ele><time>2026-05-01T08:27:53.499Z</time></trkpt><trkpt lat="42.3775191" lon="14.3011159"><ele>30.0</ele><time>2026-05-01T08:27:54.497Z</time></trkpt><trkpt lat="42.3776942" lon="14.3011628"><ele>30.0</ele><time>2026-05-01T08:27:55.498Z</time></trkpt><trkpt lat="42.3778621" lon="14.3012153"><ele>30.0</ele><time>2026-05-01T08:27:56.498Z</time></trkpt><trkpt lat="42.3780299" lon="14.3012659"><ele>30.0</ele><time>2026-05-01T08:27:57.497Z</time></trkpt><trkpt lat="42.3781996" lon="14.3013209"><ele>30.0</ele><time>2026-05-01T08:27:58.497Z</time></trkpt><trkpt lat="42.3783712" lon="14.3013782"><ele>30.0</ele><time>2026-05-01T08:27:59.498Z</time></trkpt><trkpt lat="42.3785434" lon="14.301434"><ele>29.0</ele><time>2026-05-01T08:28:00.498Z</time></trkpt><trkpt lat="42.3787191" lon="14.301489"><ele>28.0</ele><time>2026-05-01T08:28:01.497Z</time></trkpt><trkpt lat="42.3788985" lon="14.3015498"><ele>27.0</ele><time>2026-05-01T08:28:02.498Z</time></trkpt><trkpt lat="42.3790747" lon="14.3015996"><ele>26.666666666666664</ele><time>2026-05-01T08:28:03.497Z</time></trkpt><trkpt lat="42.379253" lon="14.3016547"><ele>26.333333333333332</ele><time>2026-05-01T08:28:04.497Z</time></trkpt><trkpt lat="42.3794349" lon="14.3017056"><ele>26.0</ele><time>2026-05-01T08:28:05.498Z</time></trkpt><trkpt lat="42.3796167" lon="14.301759"><ele>26.0</ele><time>2026-05-01T08:28:06.498Z</time></trkpt><trkpt lat="42.3798008" lon="14.3018098"><ele>26.0</ele><time>2026-05-01T08:28:07.498Z</time></trkpt><trkpt lat="42.3799812" lon="14.3018616"><ele>26.0</ele><time>2026-05-01T08:28:08.497Z</time></trkpt><trkpt lat="42.3801601" lon="14.3019154"><ele>26.0</ele><time>2026-05-01T08:28:09.497Z</time></trkpt><trkpt lat="42.3803415" lon="14.3019728"><ele>26.0</ele><time>2026-05-01T08:28:10.498Z</time></trkpt><trkpt lat="42.3805272" lon="14.3020213"><ele>26.0</ele><time>2026-05-01T08:28:11.498Z</time></trkpt><trkpt lat="42.3807123" lon="14.3020754"><ele>25.666666666666664</ele><time>2026-05-01T08:28:12.498Z</time></trkpt><trkpt lat="42.3808883" lon="14.3021221"><ele>25.333333333333336</ele><time>2026-05-01T08:28:13.498Z</time></trkpt><trkpt lat="42.3810599" lon="14.3021818"><ele>25.0</ele><time>2026-05-01T08:28:14.499Z</time></trkpt><trkpt lat="42.3812286" lon="14.3022431"><ele>24.0</ele><time>2026-05-01T08:28:15.498Z</time></trkpt><trkpt lat="42.381389" lon="14.3023067"><ele>23.0</ele><time>2026-05-01T08:28:16.498Z</time></trkpt><trkpt lat="42.3815452" lon="14.3023747"><ele>22.0</ele><time>2026-05-01T08:28:17.498Z</time></trkpt><trkpt lat="42.3816934" lon="14.3024427"><ele>22.0</ele><time>2026-05-01T08:28:18.499Z</time></trkpt><trkpt lat="42.3818327" lon="14.3025089"><ele>22.0</ele><time>2026-05-01T08:28:19.498Z</time></trkpt><trkpt lat="42.3819625" lon="14.3025889"><ele>22.0</ele><time>2026-05-01T08:28:20.498Z</time></trkpt><trkpt lat="42.3820831" lon="14.3026755"><ele>22.0</ele><time>2026-05-01T08:28:21.498Z</time></trkpt><trkpt lat="42.3821987" lon="14.302762"><ele>22.0</ele><time>2026-05-01T08:28:22.498Z</time></trkpt><trkpt lat="42.3823043" lon="14.302845"><ele>22.0</ele><time>2026-05-01T08:28:23.498Z</time></trkpt><trkpt lat="42.3823975" lon="14.3029235"><ele>22.0</ele><time>2026-05-01T08:28:24.499Z</time></trkpt><trkpt lat="42.3824659" lon="14.302992"><ele>22.0</ele><time>2026-05-01T08:28:25.499Z</time></trkpt><trkpt lat="42.3825193" lon="14.3030677"><ele>22.0</ele><time>2026-05-01T08:28:26.498Z</time></trkpt><trkpt lat="42.3825534" lon="14.3031499"><ele>22.0</ele><time>2026-05-01T08:28:27.498Z</time></trkpt><trkpt lat="42.3825434" lon="14.3032661"><ele>22.0</ele><time>2026-05-01T08:28:28.499Z</time></trkpt><trkpt lat="42.3825231" lon="14.303396"><ele>22.0</ele><time>2026-05-01T08:28:29.498Z</time></trkpt><trkpt lat="42.3824887" lon="14.3035458"><ele>22.0</ele><time>2026-05-01T08:28:30.498Z</time></trkpt><trkpt lat="42.3824572" lon="14.3037237"><ele>22.0</ele><time>2026-05-01T08:28:31.498Z</time></trkpt><trkpt lat="42.3824297" lon="14.303918"><ele>21.666666666666664</ele><time>2026-05-01T08:28:32.498Z</time></trkpt><trkpt lat="42.3824033" lon="14.3041252"><ele>21.333333333333332</ele><time>2026-05-01T08:28:33.498Z</time></trkpt><trkpt lat="42.3823784" lon="14.3043408"><ele>21.0</ele><time>2026-05-01T08:28:34.498Z</time></trkpt><trkpt lat="42.3823518" lon="14.3045545"><ele>20.333333333333332</ele><time>2026-05-01T08:28:35.498Z</time></trkpt><trkpt lat="42.3823297" lon="14.3047896"><ele>19.666666666666664</ele><time>2026-05-01T08:28:36.498Z</time></trkpt><trkpt lat="42.3823073" lon="14.30502"><ele>19.0</ele><time>2026-05-01T08:28:37.498Z</time></trkpt><trkpt lat="42.3822822" lon="14.3052451"><ele>19.0</ele><time>2026-05-01T08:28:38.497Z</time></trkpt><trkpt lat="42.3822524" lon="14.3054546"><ele>19.0</ele><time>2026-05-01T08:28:39.499Z</time></trkpt><trkpt lat="42.3822229" lon="14.3056585"><ele>19.0</ele><time>2026-05-01T08:28:40.498Z</time></trkpt><trkpt lat="42.3821903" lon="14.3058455"><ele>18.8</ele><time>2026-05-01T08:28:41.499Z</time></trkpt><trkpt lat="42.3821588" lon="14.3060231"><ele>18.599999999999998</ele><time>2026-05-01T08:28:42.498Z</time></trkpt><trkpt lat="42.3821307" lon="14.306164"><ele>18.4</ele><time>2026-05-01T08:28:43.498Z</time></trkpt><trkpt lat="42.3821051" lon="14.306265"><ele>18.2</ele><time>2026-05-01T08:28:44.497Z</time></trkpt><trkpt lat="42.3820988" lon="14.3064024"><ele>18.0</ele><time>2026-05-01T08:28:46.497Z</time></trkpt><trkpt lat="42.3821334" lon="14.3065037"><ele>17.75</ele><time>2026-05-01T08:28:47.498Z</time></trkpt><trkpt lat="42.3821979" lon="14.3066253"><ele>17.5</ele><time>2026-05-01T08:28:48.498Z</time></trkpt><trkpt lat="42.3822773" lon="14.3067644"><ele>17.25</ele><time>2026-05-01T08:28:49.499Z</time></trkpt><trkpt lat="42.3823634" lon="14.3069339"><ele>17.0</ele><time>2026-05-01T08:28:50.498Z</time></trkpt><trkpt lat="42.3824518" lon="14.307128"><ele>16.666666666666668</ele><time>2026-05-01T08:28:51.498Z</time></trkpt><trkpt lat="42.3825479" lon="14.3073377"><ele>16.333333333333332</ele><time>2026-05-01T08:28:52.497Z</time></trkpt><trkpt lat="42.3826493" lon="14.3075622"><ele>16.0</ele><time>2026-05-01T08:28:53.498Z</time></trkpt><trkpt lat="42.3827539" lon="14.3077971"><ele>16.0</ele><time>2026-05-01T08:28:54.498Z</time></trkpt><trkpt lat="42.3828684" lon="14.3080466"><ele>16.0</ele><time>2026-05-01T08:28:55.498Z</time></trkpt><trkpt lat="42.3829897" lon="14.3083042"><ele>16.0</ele><time>2026-05-01T08:28:56.498Z</time></trkpt><trkpt lat="42.3831086" lon="14.3085682"><ele>16.0</ele><time>2026-05-01T08:28:57.497Z</time></trkpt><trkpt lat="42.3832338" lon="14.3088398"><ele>16.0</ele><time>2026-05-01T08:28:58.498Z</time></trkpt><trkpt lat="42.3833618" lon="14.309118"><ele>15.0</ele><time>2026-05-01T08:28:59.498Z</time></trkpt><trkpt lat="42.3834885" lon="14.3093918"><ele>14.0</ele><time>2026-05-01T08:29:00.497Z</time></trkpt><trkpt lat="42.3836016" lon="14.3096479"><ele>14.0</ele><time>2026-05-01T08:29:01.498Z</time></trkpt><trkpt lat="42.3837128" lon="14.3098949"><ele>14.0</ele><time>2026-05-01T08:29:02.498Z</time></trkpt><trkpt lat="42.3838127" lon="14.3101286"><ele>14.0</ele><time>2026-05-01T08:29:03.498Z</time></trkpt><trkpt lat="42.3839113" lon="14.3103351"><ele>14.333333333333334</ele><time>2026-05-01T08:29:04.499Z</time></trkpt><trkpt lat="42.3840158" lon="14.3105067"><ele>14.666666666666668</ele><time>2026-05-01T08:29:05.499Z</time></trkpt><trkpt lat="42.3841349" lon="14.3106602"><ele>15.0</ele><time>2026-05-01T08:29:06.498Z</time></trkpt><trkpt lat="42.384276" lon="14.3107788"><ele>15.0</ele><time>2026-05-01T08:29:07.498Z</time></trkpt><trkpt lat="42.3844371" lon="14.3108855"><ele>15.0</ele><time>2026-05-01T08:29:08.498Z</time></trkpt><trkpt lat="42.3846162" lon="14.3109811"><ele>15.0</ele><time>2026-05-01T08:29:09.498Z</time></trkpt><trkpt lat="42.3848074" lon="14.3110751"><ele>14.666666666666668</ele><time>2026-05-01T08:29:10.498Z</time></trkpt><trkpt lat="42.3850053" lon="14.3111776"><ele>14.333333333333334</ele><time>2026-05-01T08:29:11.498Z</time></trkpt><trkpt lat="42.3852081" lon="14.3112843"><ele>14.0</ele><time>2026-05-01T08:29:12.497Z</time></trkpt><trkpt lat="42.3854127" lon="14.3113921"><ele>14.0</ele><time>2026-05-01T08:29:13.497Z</time></trkpt><trkpt lat="42.3856077" lon="14.3114925"><ele>14.0</ele><time>2026-05-01T08:29:14.497Z</time></trkpt><trkpt lat="42.3857942" lon="14.3115848"><ele>14.0</ele><time>2026-05-01T08:29:15.497Z</time></trkpt><trkpt lat="42.3859578" lon="14.3116735"><ele>14.0</ele><time>2026-05-01T08:29:16.498Z</time></trkpt><trkpt lat="42.3861024" lon="14.3117459"><ele>14.0</ele><time>2026-05-01T08:29:17.498Z</time></trkpt><trkpt lat="42.3862168" lon="14.3118053"><ele>14.0</ele><time>2026-05-01T08:29:18.498Z</time></trkpt><trkpt lat="42.3863138" lon="14.3118496"><ele>14.0</ele><time>2026-05-01T08:29:19.498Z</time></trkpt><trkpt lat="42.3863878" lon="14.311902"><ele>14.0</ele><time>2026-05-01T08:29:20.498Z</time></trkpt><trkpt lat="42.3864455" lon="14.3119959"><ele>14.0</ele><time>2026-05-01T08:29:22.498Z</time></trkpt><trkpt lat="42.3864113" lon="14.3121608"><ele>14.0</ele><time>2026-05-01T08:29:24.498Z</time></trkpt><trkpt lat="42.3863737" lon="14.3123113"><ele>14.0</ele><time>2026-05-01T08:29:25.497Z</time></trkpt><trkpt lat="42.3863227" lon="14.3125245"><ele>13.5</ele><time>2026-05-01T08:29:26.499Z</time></trkpt><trkpt lat="42.3862556" lon="14.3127909"><ele>13.0</ele><time>2026-05-01T08:29:27.498Z</time></trkpt><trkpt lat="42.3861836" lon="14.3131058"><ele>13.0</ele><time>2026-05-01T08:29:28.498Z</time></trkpt><trkpt lat="42.3861005" lon="14.313462"><ele>13.0</ele><time>2026-05-01T08:29:29.498Z</time></trkpt><trkpt lat="42.386016" lon="14.313832"><ele>13.0</ele><time>2026-05-01T08:29:30.498Z</time></trkpt><trkpt lat="42.3859401" lon="14.3141685"><ele>13.0</ele><time>2026-05-01T08:29:31.498Z</time></trkpt><trkpt lat="42.38587" lon="14.3144758"><ele>12.0</ele><time>2026-05-01T08:29:32.498Z</time></trkpt><trkpt lat="42.3858079" lon="14.3147507"><ele>11.0</ele><time>2026-05-01T08:29:33.498Z</time></trkpt><trkpt lat="42.385742" lon="14.3150386"><ele>10.0</ele><time>2026-05-01T08:29:34.498Z</time></trkpt><trkpt lat="42.3856883" lon="14.3152918"><ele>10.0</ele><time>2026-05-01T08:29:35.498Z</time></trkpt><trkpt lat="42.3856381" lon="14.3155133"><ele>10.0</ele><time>2026-05-01T08:29:36.498Z</time></trkpt><trkpt lat="42.3855996" lon="14.3156824"><ele>10.0</ele><time>2026-05-01T08:29:37.498Z</time></trkpt><trkpt lat="42.3855732" lon="14.3158005"><ele>10.0</ele><time>2026-05-01T08:29:38.497Z</time></trkpt><trkpt lat="42.3855557" lon="14.3159329"><ele>9.666666666666668</ele><time>2026-05-01T08:29:40.497Z</time></trkpt><trkpt lat="42.385539" lon="14.3160463"><ele>9.333333333333334</ele><time>2026-05-01T08:29:43.498Z</time></trkpt><trkpt lat="42.3856417" lon="14.3161197"><ele>9.0</ele><time>2026-05-01T08:29:46.498Z</time></trkpt><trkpt lat="42.3857048" lon="14.316158"><ele>8.666666666666666</ele><time>2026-05-01T08:29:47.499Z</time></trkpt><trkpt lat="42.3857722" lon="14.3161975"><ele>8.333333333333332</ele><time>2026-05-01T08:29:48.498Z</time></trkpt><trkpt lat="42.3858373" lon="14.3162325"><ele>8.0</ele><time>2026-05-01T08:29:49.498Z</time></trkpt><trkpt lat="42.3859272" lon="14.3162946"><ele>8.0</ele><time>2026-05-01T08:29:51.498Z</time></trkpt><trkpt lat="42.3859322" lon="14.3163834"><ele>8.0</ele><time>2026-05-01T08:29:53.498Z</time></trkpt><trkpt lat="42.3858881" lon="14.3165585"><ele>8.0</ele><time>2026-05-01T08:29:55.497Z</time></trkpt><trkpt lat="42.3858571" lon="14.3166664"><ele>8.0</ele><time>2026-05-01T08:29:56.497Z</time></trkpt><trkpt lat="42.3858192" lon="14.3167822"><ele>8.0</ele><time>2026-05-01T08:29:57.498Z</time></trkpt><trkpt lat="42.3857844" lon="14.3168961"><ele>7.833333333333333</ele><time>2026-05-01T08:29:58.497Z</time></trkpt><trkpt lat="42.3857473" lon="14.3170033"><ele>7.666666666666666</ele><time>2026-05-01T08:29:59.498Z</time></trkpt><trkpt lat="42.3857098" lon="14.3171159"><ele>7.5</ele><time>2026-05-01T08:30:00.499Z</time></trkpt><trkpt lat="42.385675" lon="14.3172149"><ele>7.333333333333334</ele><time>2026-05-01T08:30:01.498Z</time></trkpt><trkpt lat="42.38564" lon="14.3173149"><ele>7.166666666666667</ele><time>2026-05-01T08:30:02.498Z</time></trkpt><trkpt lat="42.385608" lon="14.3173985"><ele>7.0</ele><time>2026-05-01T08:30:03.498Z</time></trkpt><trkpt lat="42.3855746" lon="14.3174831"><ele>7.142857142857142</ele><time>2026-05-01T08:30:04.498Z</time></trkpt><trkpt lat="42.3855479" lon="14.3175627"><ele>7.285714285714286</ele><time>2026-05-01T08:30:05.498Z</time></trkpt><trkpt lat="42.3855226" lon="14.3176544"><ele>7.428571428571429</ele><time>2026-05-01T08:30:06.498Z</time></trkpt><trkpt lat="42.3854873" lon="14.3177521"><ele>7.571428571428571</ele><time>2026-05-01T08:30:07.499Z</time></trkpt><trkpt lat="42.3854491" lon="14.3178464"><ele>7.7142857142857135</ele><time>2026-05-01T08:30:08.499Z</time></trkpt><trkpt lat="42.3854193" lon="14.3179344"><ele>7.857142857142857</ele><time>2026-05-01T08:30:09.498Z</time></trkpt><trkpt lat="42.3854009" lon="14.3180217"><ele>8.0</ele><time>2026-05-01T08:30:10.498Z</time></trkpt><trkpt lat="42.3853752" lon="14.3181158"><ele>8.333333333333332</ele><time>2026-05-01T08:30:11.498Z</time></trkpt><trkpt lat="42.3853516" lon="14.318197"><ele>8.666666666666666</ele><time>2026-05-01T08:30:12.498Z</time></trkpt><trkpt lat="42.3853494" lon="14.3183231"><ele>9.0</ele><time>2026-05-01T08:30:14.497Z</time></trkpt><trkpt lat="42.3854478" lon="14.3183822"><ele>9.333333333333334</ele><time>2026-05-01T08:30:17.497Z</time></trkpt><trkpt lat="42.3855163" lon="14.3183632"><ele>9.666666666666668</ele><time>2026-05-01T08:30:18.497Z</time></trkpt><trkpt lat="42.385613" lon="14.3183186"><ele>10.0</ele><time>2026-05-01T08:30:19.498Z</time></trkpt><trkpt lat="42.3857071" lon="14.3182641"><ele>10.25</ele><time>2026-05-01T08:30:20.498Z</time></trkpt><trkpt lat="42.3858206" lon="14.3182152"><ele>10.5</ele><time>2026-05-01T08:30:21.498Z</time></trkpt><trkpt lat="42.3859462" lon="14.3181709"><ele>10.75</ele><time>2026-05-01T08:30:22.498Z</time></trkpt><trkpt lat="42.3860894" lon="14.3181356"><ele>11.0</ele><time>2026-05-01T08:30:23.498Z</time></trkpt><trkpt lat="42.3862383" lon="14.3181064"><ele>10.75</ele><time>2026-05-01T08:30:24.498Z</time></trkpt><trkpt lat="42.3863955" lon="14.3180721"><ele>10.5</ele><time>2026-05-01T08:30:25.498Z</time></trkpt><trkpt lat="42.3865267" lon="14.3180341"><ele>10.25</ele><time>2026-05-01T08:30:26.498Z</time></trkpt><trkpt lat="42.3866439" lon="14.3179939"><ele>10.0</ele><time>2026-05-01T08:30:27.497Z</time></trkpt><trkpt lat="42.386744" lon="14.317984"><ele>10.0</ele><time>2026-05-01T08:30:28.498Z</time></trkpt><trkpt lat="42.3868232" lon="14.3180075"><ele>10.0</ele><time>2026-05-01T08:30:29.498Z</time></trkpt><trkpt lat="42.3868797" lon="14.3180906"><ele>10.0</ele><time>2026-05-01T08:30:31.498Z</time></trkpt><trkpt lat="42.3868674" lon="14.3182623"><ele>10.0</ele><time>2026-05-01T08:30:33.499Z</time></trkpt><trkpt lat="42.3868397" lon="14.3183727"><ele>10.0</ele><time>2026-05-01T08:30:34.499Z</time></trkpt><trkpt lat="42.3868045" lon="14.3185108"><ele>10.0</ele><time>2026-05-01T08:30:35.498Z</time></trkpt><trkpt lat="42.386772" lon="14.3186418"><ele>10.0</ele><time>2026-05-01T08:30:36.499Z</time></trkpt><trkpt lat="42.3867486" lon="14.3187526"><ele>10.0</ele><time>2026-05-01T08:30:37.498Z</time></trkpt><trkpt lat="42.3867209" lon="14.3188397"><ele>10.0</ele><time>2026-05-01T08:30:38.498Z</time></trkpt><trkpt lat="42.3866989" lon="14.3190075"><ele>10.0</ele><time>2026-05-01T08:30:40.497Z</time></trkpt><trkpt lat="42.3866599" lon="14.3191449"><ele>9.8</ele><time>2026-05-01T08:30:42.497Z</time></trkpt><trkpt lat="42.3865954" lon="14.3191731"><ele>9.6</ele><time>2026-05-01T08:30:44.497Z</time></trkpt><trkpt lat="42.3864863" lon="14.3191238"><ele>9.4</ele><time>2026-05-01T08:30:46.498Z</time></trkpt><trkpt lat="42.3863752" lon="14.3190581"><ele>9.2</ele><time>2026-05-01T08:30:48.497Z</time></trkpt><trkpt lat="42.3863002" lon="14.3190306"><ele>9.0</ele><time>2026-05-01T08:30:49.496Z</time></trkpt><trkpt lat="42.3862022" lon="14.3190138"><ele>9.0</ele><time>2026-05-01T08:30:50.496Z</time></trkpt><trkpt lat="42.386092" lon="14.3190149"><ele>9.0</ele><time>2026-05-01T08:30:51.497Z</time></trkpt><trkpt lat="42.3859613" lon="14.3190348"><ele>9.0</ele><time>2026-05-01T08:30:52.497Z</time></trkpt><trkpt lat="42.3858173" lon="14.3190767"><ele>9.0</ele><time>2026-05-01T08:30:53.497Z</time></trkpt><trkpt lat="42.3856874" lon="14.3191192"><ele>9.0</ele><time>2026-05-01T08:30:54.497Z</time></trkpt><trkpt lat="42.385565" lon="14.3191437"><ele>9.0</ele><time>2026-05-01T08:30:55.497Z</time></trkpt><trkpt lat="42.3854433" lon="14.3191606"><ele>9.0</ele><time>2026-05-01T08:30:56.497Z</time></trkpt><trkpt lat="42.3853182" lon="14.3191772"><ele>9.0</ele><time>2026-05-01T08:30:57.498Z</time></trkpt><trkpt lat="42.3851974" lon="14.3191574"><ele>9.25</ele><time>2026-05-01T08:30:58.496Z</time></trkpt><trkpt lat="42.3850674" lon="14.3191307"><ele>9.5</ele><time>2026-05-01T08:30:59.497Z</time></trkpt><trkpt lat="42.3849497" lon="14.319087"><ele>9.75</ele><time>2026-05-01T08:31:00.497Z</time></trkpt><trkpt lat="42.3848372" lon="14.3190381"><ele>10.0</ele><time>2026-05-01T08:31:01.497Z</time></trkpt><trkpt lat="42.3847292" lon="14.318978"><ele>10.0</ele><time>2026-05-01T08:31:02.498Z</time></trkpt><trkpt lat="42.3846169" lon="14.3189167"><ele>10.0</ele><time>2026-05-01T08:31:03.497Z</time></trkpt><trkpt lat="42.3845156" lon="14.3188463"><ele>10.0</ele><time>2026-05-01T08:31:04.497Z</time></trkpt><trkpt lat="42.3844309" lon="14.3187674"><ele>10.0</ele><time>2026-05-01T08:31:05.497Z</time></trkpt><trkpt lat="42.3843654" lon="14.3186664"><ele>10.0</ele><time>2026-05-01T08:31:06.497Z</time></trkpt><trkpt lat="42.384304" lon="14.3185487"><ele>10.0</ele><time>2026-05-01T08:31:07.497Z</time></trkpt><trkpt lat="42.3842436" lon="14.3184189"><ele>10.0</ele><time>2026-05-01T08:31:08.496Z</time></trkpt><trkpt lat="42.3841858" lon="14.3182774"><ele>10.0</ele><time>2026-05-01T08:31:09.496Z</time></trkpt><trkpt lat="42.3841266" lon="14.3181289"><ele>10.0</ele><time>2026-05-01T08:31:10.496Z</time></trkpt><trkpt lat="42.3840692" lon="14.3179851"><ele>10.0</ele><time>2026-05-01T08:31:11.497Z</time></trkpt><trkpt lat="42.3840188" lon="14.3178506"><ele>10.0</ele><time>2026-05-01T08:31:12.497Z</time></trkpt><trkpt lat="42.3839831" lon="14.3177112"><ele>10.0</ele><time>2026-05-01T08:31:13.496Z</time></trkpt><trkpt lat="42.3839646" lon="14.317564"><ele>10.0</ele><time>2026-05-01T08:31:14.497Z</time></trkpt><trkpt lat="42.3839604" lon="14.3173985"><ele>10.0</ele><time>2026-05-01T08:31:15.498Z</time></trkpt><trkpt lat="42.3839602" lon="14.3172177"><ele>10.0</ele><time>2026-05-01T08:31:16.496Z</time></trkpt><trkpt lat="42.3839587" lon="14.3170171"><ele>10.0</ele><time>2026-05-01T08:31:17.497Z</time></trkpt><trkpt lat="42.3839601" lon="14.3168065"><ele>10.0</ele><time>2026-05-01T08:31:18.496Z</time></trkpt><trkpt lat="42.3839541" lon="14.3166266"><ele>10.0</ele><time>2026-05-01T08:31:19.497Z</time></trkpt><trkpt lat="42.3839378" lon="14.3164442"><ele>10.0</ele><time>2026-05-01T08:31:20.497Z</time></trkpt><trkpt lat="42.3838822" lon="14.3162901"><ele>10.0</ele><time>2026-05-01T08:31:21.497Z</time></trkpt><trkpt lat="42.3838351" lon="14.3161063"><ele>10.0</ele><time>2026-05-01T08:31:22.496Z</time></trkpt><trkpt lat="42.38378" lon="14.3159599"><ele>10.0</ele><time>2026-05-01T08:31:23.496Z</time></trkpt><trkpt lat="42.3837003" lon="14.3158042"><ele>10.0</ele><time>2026-05-01T08:31:24.497Z</time></trkpt><trkpt lat="42.3836019" lon="14.315659"><ele>10.0</ele><time>2026-05-01T08:31:25.497Z</time></trkpt><trkpt lat="42.3834983" lon="14.3155085"><ele>10.0</ele><time>2026-05-01T08:31:26.497Z</time></trkpt><trkpt lat="42.383383" lon="14.3153569"><ele>10.0</ele><time>2026-05-01T08:31:27.496Z</time></trkpt><trkpt lat="42.3832633" lon="14.3151971"><ele>10.0</ele><time>2026-05-01T08:31:28.497Z</time></trkpt><trkpt lat="42.3831488" lon="14.3150497"><ele>10.0</ele><time>2026-05-01T08:31:29.496Z</time></trkpt><trkpt lat="42.3830515" lon="14.3149069"><ele>10.0</ele><time>2026-05-01T08:31:30.497Z</time></trkpt><trkpt lat="42.3829626" lon="14.314759"><ele>10.0</ele><time>2026-05-01T08:31:31.496Z</time></trkpt><trkpt lat="42.3828831" lon="14.3145911"><ele>10.0</ele><time>2026-05-01T08:31:32.497Z</time></trkpt><trkpt lat="42.3828237" lon="14.3144258"><ele>10.0</ele><time>2026-05-01T08:31:33.497Z</time></trkpt><trkpt lat="42.3827753" lon="14.3142463"><ele>10.0</ele><time>2026-05-01T08:31:34.497Z</time></trkpt><trkpt lat="42.3827416" lon="14.3140596"><ele>10.0</ele><time>2026-05-01T08:31:35.498Z</time></trkpt><trkpt lat="42.3827267" lon="14.3138669"><ele>10.0</ele><time>2026-05-01T08:31:36.498Z</time></trkpt><trkpt lat="42.3827266" lon="14.3136588"><ele>10.0</ele><time>2026-05-01T08:31:37.497Z</time></trkpt><trkpt lat="42.3827237" lon="14.3134354"><ele>10.333333333333334</ele><time>2026-05-01T08:31:38.497Z</time></trkpt><trkpt lat="42.3827216" lon="14.313211"><ele>10.666666666666666</ele><time>2026-05-01T08:31:39.496Z</time></trkpt><trkpt lat="42.3827229" lon="14.3129957"><ele>11.0</ele><time>2026-05-01T08:31:40.496Z</time></trkpt><trkpt lat="42.3827251" lon="14.3127844"><ele>11.0</ele><time>2026-05-01T08:31:41.497Z</time></trkpt><trkpt lat="42.3827203" lon="14.3125648"><ele>11.0</ele><time>2026-05-01T08:31:42.497Z</time></trkpt><trkpt lat="42.3827208" lon="14.3123624"><ele>11.0</ele><time>2026-05-01T08:31:43.496Z</time></trkpt><trkpt lat="42.3827249" lon="14.3121705"><ele>11.200000000000001</ele><time>2026-05-01T08:31:44.497Z</time></trkpt><trkpt lat="42.3827212" lon="14.3120063"><ele>11.4</ele><time>2026-05-01T08:31:45.496Z</time></trkpt><trkpt lat="42.3827064" lon="14.3118765"><ele>11.6</ele><time>2026-05-01T08:31:46.496Z</time></trkpt><trkpt lat="42.3826821" lon="14.3117596"><ele>11.8</ele><time>2026-05-01T08:31:47.497Z</time></trkpt><trkpt lat="42.3826352" lon="14.3116576"><ele>12.0</ele><time>2026-05-01T08:31:48.497Z</time></trkpt><trkpt lat="42.3825912" lon="14.3115607"><ele>12.0</ele><time>2026-05-01T08:31:49.496Z</time></trkpt><trkpt lat="42.3825105" lon="14.311539"><ele>12.0</ele><time>2026-05-01T08:31:50.497Z</time></trkpt><trkpt lat="42.3824381" lon="14.3115212"><ele>12.0</ele><time>2026-05-01T08:31:51.497Z</time></trkpt><trkpt lat="42.3823548" lon="14.3115192"><ele>12.0</ele><time>2026-05-01T08:31:52.497Z</time></trkpt><trkpt lat="42.382286" lon="14.3115221"><ele>12.0</ele><time>2026-05-01T08:31:53.497Z</time></trkpt><trkpt lat="42.3821677" lon="14.3115488"><ele>12.0</ele><time>2026-05-01T08:31:55.497Z</time></trkpt><trkpt lat="42.3821139" lon="14.3116405"><ele>12.2</ele><time>2026-05-01T08:31:56.497Z</time></trkpt><trkpt lat="42.3820618" lon="14.3117327"><ele>12.399999999999999</ele><time>2026-05-01T08:31:57.498Z</time></trkpt><trkpt lat="42.3819966" lon="14.3118588"><ele>12.600000000000001</ele><time>2026-05-01T08:31:58.497Z</time></trkpt><trkpt lat="42.3819164" lon="14.3119784"><ele>12.8</ele><time>2026-05-01T08:31:59.497Z</time></trkpt><trkpt lat="42.381836" lon="14.3120982"><ele>13.0</ele><time>2026-05-01T08:32:00.496Z</time></trkpt><trkpt lat="42.3817553" lon="14.3122037"><ele>12.833333333333332</ele><time>2026-05-01T08:32:01.497Z</time></trkpt><trkpt lat="42.3816861" lon="14.3122919"><ele>12.666666666666666</ele><time>2026-05-01T08:32:02.497Z</time></trkpt><trkpt lat="42.381623" lon="14.3123676"><ele>12.5</ele><time>2026-05-01T08:32:03.498Z</time></trkpt><trkpt lat="42.3815546" lon="14.3124211"><ele>12.333333333333332</ele><time>2026-05-01T08:32:04.498Z</time></trkpt><trkpt lat="42.3814807" lon="14.312438"><ele>12.166666666666666</ele><time>2026-05-01T08:32:05.498Z</time></trkpt><trkpt lat="42.3813893" lon="14.3124221"><ele>12.0</ele><time>2026-05-01T08:32:06.497Z</time></trkpt><trkpt lat="42.381305" lon="14.3123694"><ele>12.5</ele><time>2026-05-01T08:32:07.497Z</time></trkpt><trkpt lat="42.3812031" lon="14.3123095"><ele>13.0</ele><time>2026-05-01T08:32:08.497Z</time></trkpt><trkpt lat="42.3810878" lon="14.3122518"><ele>13.5</ele><time>2026-05-01T08:32:09.497Z</time></trkpt><trkpt lat="42.3809628" lon="14.3122094"><ele>14.0</ele><time>2026-05-01T08:32:10.498Z</time></trkpt><trkpt lat="42.38086" lon="14.3121806"><ele>14.0</ele><time>2026-05-01T08:32:11.497Z</time></trkpt><trkpt lat="42.3807753" lon="14.3121757"><ele>13.999999999999998</ele><time>2026-05-01T08:32:12.497Z</time></trkpt><trkpt lat="42.3806583" lon="14.3121556"><ele>13.999999999999998</ele><time>2026-05-01T08:32:13.498Z</time></trkpt><trkpt lat="42.3805605" lon="14.31212"><ele>14.0</ele><time>2026-05-01T08:32:14.497Z</time></trkpt><trkpt lat="42.3804721" lon="14.312064"><ele>14.0</ele><time>2026-05-01T08:32:15.496Z</time></trkpt><trkpt lat="42.3803718" lon="14.3120053"><ele>14.0</ele><time>2026-05-01T08:32:16.497Z</time></trkpt><trkpt lat="42.3802788" lon="14.3119376"><ele>13.999999999999998</ele><time>2026-05-01T08:32:17.497Z</time></trkpt><trkpt lat="42.3801868" lon="14.3118647"><ele>13.999999999999998</ele><time>2026-05-01T08:32:18.497Z</time></trkpt><trkpt lat="42.3801196" lon="14.3117858"><ele>14.0</ele><time>2026-05-01T08:32:19.497Z</time></trkpt><trkpt lat="42.3800472" lon="14.3117145"><ele>14.0</ele><time>2026-05-01T08:32:20.497Z</time></trkpt><trkpt lat="42.3799812" lon="14.3116497"><ele>14.000000000000002</ele><time>2026-05-01T08:32:21.497Z</time></trkpt><trkpt lat="42.3799178" lon="14.3116095"><ele>14.0</ele><time>2026-05-01T08:32:22.498Z</time></trkpt><trkpt lat="42.3798275" lon="14.311566"><ele>14.0</ele><time>2026-05-01T08:32:23.496Z</time></trkpt><trkpt lat="42.3797376" lon="14.3115331"><ele>14.0</ele><time>2026-05-01T08:32:24.497Z</time></trkpt><trkpt lat="42.379662" lon="14.3115137"><ele>14.000000000000002</ele><time>2026-05-01T08:32:25.497Z</time></trkpt><trkpt lat="42.3795834" lon="14.3114961"><ele>14.0</ele><time>2026-05-01T08:32:26.497Z</time></trkpt><trkpt lat="42.3795204" lon="14.3115165"><ele>14.0</ele><time>2026-05-01T08:32:27.497Z</time></trkpt><trkpt lat="42.3794317" lon="14.3115333"><ele>13.999999999999998</ele><time>2026-05-01T08:32:28.497Z</time></trkpt><trkpt lat="42.3793445" lon="14.311533"><ele>13.999999999999998</ele><time>2026-05-01T08:32:29.498Z</time></trkpt><trkpt lat="42.3792435" lon="14.3115026"><ele>14.0</ele><time>2026-05-01T08:32:30.497Z</time></trkpt><trkpt lat="42.3791314" lon="14.3114897"><ele>14.0</ele><time>2026-05-01T08:32:31.498Z</time></trkpt><trkpt lat="42.3790233" lon="14.3114914"><ele>14.0</ele><time>2026-05-01T08:32:32.498Z</time></trkpt><trkpt lat="42.378919" lon="14.3115024"><ele>13.999999999999998</ele><time>2026-05-01T08:32:33.497Z</time></trkpt><trkpt lat="42.3788151" lon="14.3115111"><ele>13.999999999999998</ele><time>2026-05-01T08:32:34.497Z</time></trkpt><trkpt lat="42.3787244" lon="14.3115129"><ele>14.0</ele><time>2026-05-01T08:32:35.498Z</time></trkpt><trkpt lat="42.3786331" lon="14.3115175"><ele>14.0</ele><time>2026-05-01T08:32:36.497Z</time></trkpt><trkpt lat="42.3785355" lon="14.3114614"><ele>14.25</ele><time>2026-05-01T08:32:37.497Z</time></trkpt><trkpt lat="42.3784405" lon="14.3114046"><ele>14.5</ele><time>2026-05-01T08:32:38.497Z</time></trkpt><trkpt lat="42.3783319" lon="14.3113437"><ele>14.75</ele><time>2026-05-01T08:32:39.498Z</time></trkpt><trkpt lat="42.3782269" lon="14.311286"><ele>15.0</ele><time>2026-05-01T08:32:40.497Z</time></trkpt><trkpt lat="42.378111" lon="14.311243"><ele>15.25</ele><time>2026-05-01T08:32:41.497Z</time></trkpt><trkpt lat="42.3779981" lon="14.3111979"><ele>15.5</ele><time>2026-05-01T08:32:42.497Z</time></trkpt><trkpt lat="42.3779015" lon="14.3111371"><ele>15.75</ele><time>2026-05-01T08:32:43.498Z</time></trkpt><trkpt lat="42.3778001" lon="14.3110731"><ele>16.0</ele><time>2026-05-01T08:32:44.496Z</time></trkpt><trkpt lat="42.3776926" lon="14.3110023"><ele>16.0</ele><time>2026-05-01T08:32:45.496Z</time></trkpt><trkpt lat="42.3775887" lon="14.3109263"><ele>16.0</ele><time>2026-05-01T08:32:46.497Z</time></trkpt><trkpt lat="42.3775095" lon="14.310874"><ele>16.0</ele><time>2026-05-01T08:32:47.497Z</time></trkpt><trkpt lat="42.3774147" lon="14.3108298"><ele>16.0</ele><time>2026-05-01T08:32:48.497Z</time></trkpt><trkpt lat="42.3773286" lon="14.3108006"><ele>16.0</ele><time>2026-05-01T08:32:49.497Z</time></trkpt><trkpt lat="42.3772367" lon="14.310774"><ele>16.400000000000002</ele><time>2026-05-01T08:32:50.498Z</time></trkpt><trkpt lat="42.3771324" lon="14.3107508"><ele>16.8</ele><time>2026-05-01T08:32:51.496Z</time></trkpt><trkpt lat="42.377019" lon="14.3107219"><ele>17.200000000000003</ele><time>2026-05-01T08:32:52.497Z</time></trkpt><trkpt lat="42.3769129" lon="14.3106909"><ele>17.6</ele><time>2026-05-01T08:32:53.498Z</time></trkpt><trkpt lat="42.376816" lon="14.3106921"><ele>18.0</ele><time>2026-05-01T08:32:54.497Z</time></trkpt><trkpt lat="42.376699" lon="14.3106952"><ele>18.0</ele><time>2026-05-01T08:32:55.498Z</time></trkpt><trkpt lat="42.3765935" lon="14.3106968"><ele>18.0</ele><time>2026-05-01T08:32:56.498Z</time></trkpt><trkpt lat="42.376482" lon="14.3106856"><ele>18.0</ele><time>2026-05-01T08:32:57.496Z</time></trkpt><trkpt lat="42.3763649" lon="14.3106705"><ele>18.0</ele><time>2026-05-01T08:32:58.496Z</time></trkpt><trkpt lat="42.3762517" lon="14.3106521"><ele>18.0</ele><time>2026-05-01T08:32:59.497Z</time></trkpt><trkpt lat="42.3761343" lon="14.3106271"><ele>17.6</ele><time>2026-05-01T08:33:00.498Z</time></trkpt><trkpt lat="42.3760642" lon="14.3105994"><ele>17.200000000000003</ele><time>2026-05-01T08:33:01.497Z</time></trkpt><trkpt lat="42.375959" lon="14.3105811"><ele>16.8</ele><time>2026-05-01T08:33:02.498Z</time></trkpt><trkpt lat="42.3758281" lon="14.31056"><ele>16.400000000000002</ele><time>2026-05-01T08:33:03.497Z</time></trkpt><trkpt lat="42.3757045" lon="14.3105148"><ele>16.0</ele><time>2026-05-01T08:33:04.498Z</time></trkpt><trkpt lat="42.375579" lon="14.3104701"><ele>17.25</ele><time>2026-05-01T08:33:05.497Z</time></trkpt><trkpt lat="42.3754749" lon="14.3104124"><ele>18.5</ele><time>2026-05-01T08:33:06.498Z</time></trkpt><trkpt lat="42.3753691" lon="14.310346"><ele>19.75</ele><time>2026-05-01T08:33:07.498Z</time></trkpt><trkpt lat="42.3752698" lon="14.3102746"><ele>21.0</ele><time>2026-05-01T08:33:08.497Z</time></trkpt><trkpt lat="42.3751669" lon="14.3101917"><ele>21.0</ele><time>2026-05-01T08:33:09.498Z</time></trkpt><trkpt lat="42.3750682" lon="14.3101102"><ele>21.0</ele><time>2026-05-01T08:33:10.497Z</time></trkpt><trkpt lat="42.3749809" lon="14.3100465"><ele>21.0</ele><time>2026-05-01T08:33:11.496Z</time></trkpt><trkpt lat="42.374913" lon="14.3099935"><ele>21.0</ele><time>2026-05-01T08:33:12.496Z</time></trkpt><trkpt lat="42.3748525" lon="14.3099624"><ele>21.0</ele><time>2026-05-01T08:33:13.497Z</time></trkpt><trkpt lat="42.3747269" lon="14.309977"><ele>21.166666666666668</ele><time>2026-05-01T08:33:15.497Z</time></trkpt><trkpt lat="42.3746374" lon="14.3100267"><ele>21.333333333333332</ele><time>2026-05-01T08:33:16.497Z</time></trkpt><trkpt lat="42.374543" lon="14.3100872"><ele>21.5</ele><time>2026-05-01T08:33:17.498Z</time></trkpt><trkpt lat="42.3744609" lon="14.3101223"><ele>21.666666666666664</ele><time>2026-05-01T08:33:18.496Z</time></trkpt><trkpt lat="42.3743824" lon="14.3101343"><ele>21.833333333333332</ele><time>2026-05-01T08:33:19.496Z</time></trkpt><trkpt lat="42.3743048" lon="14.3101214"><ele>22.0</ele><time>2026-05-01T08:33:20.497Z</time></trkpt><trkpt lat="42.3742182" lon="14.3100634"><ele>22.0</ele><time>2026-05-01T08:33:21.498Z</time></trkpt><trkpt lat="42.3741192" lon="14.3099986"><ele>22.0</ele><time>2026-05-01T08:33:22.497Z</time></trkpt><trkpt lat="42.3740235" lon="14.3099166"><ele>22.0</ele><time>2026-05-01T08:33:23.497Z</time></trkpt><trkpt lat="42.3739397" lon="14.3098233"><ele>22.0</ele><time>2026-05-01T08:33:24.496Z</time></trkpt><trkpt lat="42.3738549" lon="14.3097302"><ele>22.0</ele><time>2026-05-01T08:33:25.496Z</time></trkpt><trkpt lat="42.3737581" lon="14.3096347"><ele>24.25</ele><time>2026-05-01T08:33:26.496Z</time></trkpt><trkpt lat="42.3736303" lon="14.3095458"><ele>26.5</ele><time>2026-05-01T08:33:27.496Z</time></trkpt><trkpt lat="42.373526" lon="14.309456"><ele>28.75</ele><time>2026-05-01T08:33:28.497Z</time></trkpt><trkpt lat="42.3733967" lon="14.309373"><ele>31.0</ele><time>2026-05-01T08:33:29.496Z</time></trkpt><trkpt lat="42.3732712" lon="14.3092875"><ele>31.0</ele><time>2026-05-01T08:33:30.496Z</time></trkpt><trkpt lat="42.3731574" lon="14.3091937"><ele>31.0</ele><time>2026-05-01T08:33:31.496Z</time></trkpt><trkpt lat="42.3730433" lon="14.3091331"><ele>31.0</ele><time>2026-05-01T08:33:32.495Z</time></trkpt><trkpt lat="42.3729363" lon="14.309077"><ele>31.0</ele><time>2026-05-01T08:33:33.496Z</time></trkpt><trkpt lat="42.3728067" lon="14.3090396"><ele>31.75</ele><time>2026-05-01T08:33:34.496Z</time></trkpt><trkpt lat="42.3726593" lon="14.309009"><ele>32.5</ele><time>2026-05-01T08:33:35.496Z</time></trkpt><trkpt lat="42.3725271" lon="14.3089429"><ele>33.25</ele><time>2026-05-01T08:33:36.496Z</time></trkpt><trkpt lat="42.3723896" lon="14.3088604"><ele>34.0</ele><time>2026-05-01T08:33:37.496Z</time></trkpt><trkpt lat="42.372256" lon="14.3087717"><ele>33.5</ele><time>2026-05-01T08:33:38.496Z</time></trkpt><trkpt lat="42.3721288" lon="14.3086752"><ele>33.0</ele><time>2026-05-01T08:33:39.496Z</time></trkpt><trkpt lat="42.3720055" lon="14.3085756"><ele>32.5</ele><time>2026-05-01T08:33:40.496Z</time></trkpt><trkpt lat="42.3718917" lon="14.3084839"><ele>32.0</ele><time>2026-05-01T08:33:41.496Z</time></trkpt><trkpt lat="42.3717713" lon="14.3084039"><ele>32.0</ele><time>2026-05-01T08:33:42.496Z</time></trkpt><trkpt lat="42.3716689" lon="14.3083125"><ele>32.0</ele><time>2026-05-01T08:33:43.496Z</time></trkpt><trkpt lat="42.3715557" lon="14.3082262"><ele>32.0</ele><time>2026-05-01T08:33:44.495Z</time></trkpt><trkpt lat="42.3714442" lon="14.3081227"><ele>32.0</ele><time>2026-05-01T08:33:45.496Z</time></trkpt><trkpt lat="42.3713243" lon="14.3080409"><ele>31.5</ele><time>2026-05-01T08:33:46.496Z</time></trkpt><trkpt lat="42.3712142" lon="14.3079508"><ele>31.0</ele><time>2026-05-01T08:33:47.496Z</time></trkpt><trkpt lat="42.3710993" lon="14.3078591"><ele>30.5</ele><time>2026-05-01T08:33:48.495Z</time></trkpt><trkpt lat="42.3709831" lon="14.3077689"><ele>30.0</ele><time>2026-05-01T08:33:49.495Z</time></trkpt><trkpt lat="42.3708722" lon="14.3076796"><ele>30.0</ele><time>2026-05-01T08:33:50.496Z</time></trkpt><trkpt lat="42.3707648" lon="14.3075914"><ele>30.0</ele><time>2026-05-01T08:33:51.496Z</time></trkpt><trkpt lat="42.3706574" lon="14.3075028"><ele>30.0</ele><time>2026-05-01T08:33:52.495Z</time></trkpt><trkpt lat="42.3705249" lon="14.307407"><ele>30.0</ele><time>2026-05-01T08:33:53.496Z</time></trkpt><trkpt lat="42.3703868" lon="14.3073229"><ele>29.5</ele><time>2026-05-01T08:33:54.496Z</time></trkpt><trkpt lat="42.3702532" lon="14.3072411"><ele>29.0</ele><time>2026-05-01T08:33:55.496Z</time></trkpt><trkpt lat="42.3701229" lon="14.307166"><ele>28.5</ele><time>2026-05-01T08:33:56.496Z</time></trkpt><trkpt lat="42.3699869" lon="14.3070863"><ele>28.0</ele><time>2026-05-01T08:33:57.495Z</time></trkpt><trkpt lat="42.3698506" lon="14.3070107"><ele>28.0</ele><time>2026-05-01T08:33:58.496Z</time></trkpt><trkpt lat="42.3697271" lon="14.3069359"><ele>28.0</ele><time>2026-05-01T08:33:59.496Z</time></trkpt><trkpt lat="42.3696199" lon="14.3068642"><ele>28.0</ele><time>2026-05-01T08:34:00.496Z</time></trkpt><trkpt lat="42.3695244" lon="14.3067924"><ele>28.0</ele><time>2026-05-01T08:34:01.496Z</time></trkpt><trkpt lat="42.36945" lon="14.306705"><ele>27.799999999999997</ele><time>2026-05-01T08:34:02.495Z</time></trkpt><trkpt lat="42.3694063" lon="14.3066002"><ele>27.599999999999998</ele><time>2026-05-01T08:34:03.496Z</time></trkpt><trkpt lat="42.369371" lon="14.3064909"><ele>27.400000000000002</ele><time>2026-05-01T08:34:04.496Z</time></trkpt><trkpt lat="42.3693303" lon="14.3063739"><ele>27.200000000000003</ele><time>2026-05-01T08:34:06.496Z</time></trkpt><trkpt lat="42.3692452" lon="14.306298"><ele>27.0</ele><time>2026-05-01T08:34:07.497Z</time></trkpt><trkpt lat="42.3691539" lon="14.3062142"><ele>27.0</ele><time>2026-05-01T08:34:08.496Z</time></trkpt><trkpt lat="42.3690628" lon="14.3061387"><ele>27.0</ele><time>2026-05-01T08:34:09.496Z</time></trkpt><trkpt lat="42.3689641" lon="14.3060412"><ele>27.0</ele><time>2026-05-01T08:34:10.495Z</time></trkpt><trkpt lat="42.3688476" lon="14.3059385"><ele>27.0</ele><time>2026-05-01T08:34:11.496Z</time></trkpt><trkpt lat="42.3687478" lon="14.3058436"><ele>27.200000000000003</ele><time>2026-05-01T08:34:12.495Z</time></trkpt><trkpt lat="42.3686618" lon="14.3057523"><ele>27.400000000000002</ele><time>2026-05-01T08:34:13.496Z</time></trkpt><trkpt lat="42.3685888" lon="14.3056783"><ele>27.599999999999998</ele><time>2026-05-01T08:34:14.496Z</time></trkpt><trkpt lat="42.3685182" lon="14.3056091"><ele>27.799999999999997</ele><time>2026-05-01T08:34:15.496Z</time></trkpt><trkpt lat="42.3684609" lon="14.3055458"><ele>28.0</ele><time>2026-05-01T08:34:16.495Z</time></trkpt><trkpt lat="42.3683697" lon="14.30549"><ele>28.0</ele><time>2026-05-01T08:34:18.497Z</time></trkpt><trkpt lat="42.3682883" lon="14.3055458"><ele>27.999999999999996</ele><time>2026-05-01T08:34:20.496Z</time></trkpt><trkpt lat="42.3682371" lon="14.3056146"><ele>27.999999999999996</ele><time>2026-05-01T08:34:21.496Z</time></trkpt><trkpt lat="42.3681635" lon="14.3057182"><ele>28.0</ele><time>2026-05-01T08:34:22.497Z</time></trkpt><trkpt lat="42.3680829" lon="14.3058275"><ele>28.0</ele><time>2026-05-01T08:34:23.496Z</time></trkpt><trkpt lat="42.3680039" lon="14.3059282"><ele>28.2</ele><time>2026-05-01T08:34:24.496Z</time></trkpt><trkpt lat="42.3679305" lon="14.3060082"><ele>28.4</ele><time>2026-05-01T08:34:25.496Z</time></trkpt><trkpt lat="42.367845" lon="14.3060697"><ele>28.599999999999998</ele><time>2026-05-01T08:34:26.496Z</time></trkpt><trkpt lat="42.3677548" lon="14.306101"><ele>28.799999999999997</ele><time>2026-05-01T08:34:27.495Z</time></trkpt><trkpt lat="42.3676457" lon="14.306117"><ele>29.0</ele><time>2026-05-01T08:34:28.495Z</time></trkpt><trkpt lat="42.367527" lon="14.3061259"><ele>29.0</ele><time>2026-05-01T08:34:29.495Z</time></trkpt><trkpt lat="42.3674027" lon="14.3061347"><ele>29.0</ele><time>2026-05-01T08:34:30.496Z</time></trkpt><trkpt lat="42.3672846" lon="14.3061166"><ele>29.0</ele><time>2026-05-01T08:34:31.496Z</time></trkpt><trkpt lat="42.3671765" lon="14.3060987"><ele>29.0</ele><time>2026-05-01T08:34:32.496Z</time></trkpt><trkpt lat="42.3670766" lon="14.3060324"><ele>30.6</ele><time>2026-05-01T08:34:33.496Z</time></trkpt><trkpt lat="42.3669745" lon="14.3059814"><ele>32.2</ele><time>2026-05-01T08:34:34.496Z</time></trkpt><trkpt lat="42.3668755" lon="14.3059278"><ele>33.800000000000004</ele><time>2026-05-01T08:34:35.495Z</time></trkpt><trkpt lat="42.3667855" lon="14.305973"><ele>35.4</ele><time>2026-05-01T08:34:36.496Z</time></trkpt><trkpt lat="42.366664" lon="14.3059901"><ele>37.0</ele><time>2026-05-01T08:34:37.497Z</time></trkpt><trkpt lat="42.3665381" lon="14.3060126"><ele>37.0</ele><time>2026-05-01T08:34:38.495Z</time></trkpt><trkpt lat="42.3664263" lon="14.306028"><ele>37.0</ele><time>2026-05-01T08:34:39.495Z</time></trkpt><trkpt lat="42.366327" lon="14.3060628"><ele>37.0</ele><time>2026-05-01T08:34:40.496Z</time></trkpt><trkpt lat="42.3662258" lon="14.3060755"><ele>37.0</ele><time>2026-05-01T08:34:41.495Z</time></trkpt><trkpt lat="42.3661324" lon="14.3060921"><ele>37.0</ele><time>2026-05-01T08:34:42.496Z</time></trkpt><trkpt lat="42.366041" lon="14.3061668"><ele>37.0</ele><time>2026-05-01T08:34:43.496Z</time></trkpt><trkpt lat="42.3659616" lon="14.3062381"><ele>37.0</ele><time>2026-05-01T08:34:44.495Z</time></trkpt><trkpt lat="42.3658438" lon="14.3062719"><ele>37.0</ele><time>2026-05-01T08:34:45.495Z</time></trkpt><trkpt lat="42.3657118" lon="14.3062539"><ele>37.0</ele><time>2026-05-01T08:34:46.496Z</time></trkpt><trkpt lat="42.3656342" lon="14.3062516"><ele>37.0</ele><time>2026-05-01T08:34:47.496Z</time></trkpt><trkpt lat="42.3655657" lon="14.3062427"><ele>37.333333333333336</ele><time>2026-05-01T08:34:48.496Z</time></trkpt><trkpt lat="42.3654958" lon="14.3062401"><ele>37.66666666666667</ele><time>2026-05-01T08:34:49.497Z</time></trkpt><trkpt lat="42.3654182" lon="14.3062393"><ele>38.0</ele><time>2026-05-01T08:34:50.495Z</time></trkpt><trkpt lat="42.3653451" lon="14.3062184"><ele>38.333333333333336</ele><time>2026-05-01T08:34:51.496Z</time></trkpt><trkpt lat="42.3652569" lon="14.3061861"><ele>38.666666666666664</ele><time>2026-05-01T08:34:52.496Z</time></trkpt><trkpt lat="42.3651764" lon="14.3061639"><ele>39.0</ele><time>2026-05-01T08:34:53.496Z</time></trkpt><trkpt lat="42.3650998" lon="14.3061435"><ele>39.0</ele><time>2026-05-01T08:34:54.496Z</time></trkpt><trkpt lat="42.3649984" lon="14.3061532"><ele>39.0</ele><time>2026-05-01T08:34:55.496Z</time></trkpt><trkpt lat="42.3648919" lon="14.3061712"><ele>39.0</ele><time>2026-05-01T08:34:56.496Z</time></trkpt><trkpt lat="42.3647826" lon="14.3062036"><ele>39.0</ele><time>2026-05-01T08:34:57.496Z</time></trkpt><trkpt lat="42.3646811" lon="14.3062554"><ele>39.0</ele><time>2026-05-01T08:34:58.496Z</time></trkpt><trkpt lat="42.364573" lon="14.3063194"><ele>38.8</ele><time>2026-05-01T08:34:59.497Z</time></trkpt><trkpt lat="42.3644843" lon="14.3063814"><ele>38.599999999999994</ele><time>2026-05-01T08:35:00.495Z</time></trkpt><trkpt lat="42.3644019" lon="14.3064492"><ele>38.4</ele><time>2026-05-01T08:35:01.496Z</time></trkpt><trkpt lat="42.364322" lon="14.3065298"><ele>38.199999999999996</ele><time>2026-05-01T08:35:02.496Z</time></trkpt><trkpt lat="42.3642523" lon="14.3065972"><ele>38.0</ele><time>2026-05-01T08:35:03.496Z</time></trkpt><trkpt lat="42.3641837" lon="14.3066674"><ele>38.166666666666664</ele><time>2026-05-01T08:35:04.496Z</time></trkpt><trkpt lat="42.3641092" lon="14.3067479"><ele>38.33333333333333</ele><time>2026-05-01T08:35:05.496Z</time></trkpt><trkpt lat="42.3640338" lon="14.3068127"><ele>38.5</ele><time>2026-05-01T08:35:06.496Z</time></trkpt><trkpt lat="42.3639557" lon="14.3068619"><ele>38.666666666666664</ele><time>2026-05-01T08:35:07.496Z</time></trkpt><trkpt lat="42.3638771" lon="14.3069258"><ele>38.833333333333336</ele><time>2026-05-01T08:35:08.496Z</time></trkpt><trkpt lat="42.3638008" lon="14.3069615"><ele>39.0</ele><time>2026-05-01T08:35:09.497Z</time></trkpt><trkpt lat="42.3637164" lon="14.3069978"><ele>39.0</ele><time>2026-05-01T08:35:10.495Z</time></trkpt><trkpt lat="42.3635966" lon="14.307024"><ele>39.0</ele><time>2026-05-01T08:35:11.495Z</time></trkpt><trkpt lat="42.3634911" lon="14.307047"><ele>39.0</ele><time>2026-05-01T08:35:12.496Z</time></trkpt><trkpt lat="42.3633691" lon="14.3070603"><ele>39.0</ele><time>2026-05-01T08:35:13.496Z</time></trkpt><trkpt lat="42.3632513" lon="14.3070665"><ele>39.0</ele><time>2026-05-01T08:35:14.496Z</time></trkpt><trkpt lat="42.3631483" lon="14.3070579"><ele>39.0</ele><time>2026-05-01T08:35:15.495Z</time></trkpt><trkpt lat="42.3630512" lon="14.3070507"><ele>39.0</ele><time>2026-05-01T08:35:16.497Z</time></trkpt><trkpt lat="42.3629348" lon="14.3070369"><ele>39.0</ele><time>2026-05-01T08:35:17.496Z</time></trkpt><trkpt lat="42.3628048" lon="14.3070204"><ele>39.0</ele><time>2026-05-01T08:35:18.496Z</time></trkpt><trkpt lat="42.3626804" lon="14.3069988"><ele>38.75</ele><time>2026-05-01T08:35:19.496Z</time></trkpt><trkpt lat="42.3625535" lon="14.3069781"><ele>38.5</ele><time>2026-05-01T08:35:20.496Z</time></trkpt><trkpt lat="42.3624197" lon="14.3069661"><ele>38.25</ele><time>2026-05-01T08:35:21.496Z</time></trkpt><trkpt lat="42.3622768" lon="14.3069587"><ele>38.0</ele><time>2026-05-01T08:35:22.495Z</time></trkpt><trkpt lat="42.3621339" lon="14.306954"><ele>37.75</ele><time>2026-05-01T08:35:23.496Z</time></trkpt><trkpt lat="42.3619997" lon="14.3069517"><ele>37.5</ele><time>2026-05-01T08:35:24.496Z</time></trkpt><trkpt lat="42.3618855" lon="14.3069495"><ele>37.25</ele><time>2026-05-01T08:35:25.496Z</time></trkpt><trkpt lat="42.3617729" lon="14.3069362"><ele>37.0</ele><time>2026-05-01T08:35:26.496Z</time></trkpt><trkpt lat="42.3616658" lon="14.3069081"><ele>37.0</ele><time>2026-05-01T08:35:27.496Z</time></trkpt><trkpt lat="42.3615783" lon="14.3068731"><ele>37.0</ele><time>2026-05-01T08:35:28.496Z</time></trkpt><trkpt lat="42.3615004" lon="14.3068113"><ele>37.0</ele><time>2026-05-01T08:35:29.496Z</time></trkpt><trkpt lat="42.3614228" lon="14.3067487"><ele>37.0</ele><time>2026-05-01T08:35:30.496Z</time></trkpt><trkpt lat="42.361347" lon="14.3066673"><ele>37.0</ele><time>2026-05-01T08:35:31.496Z</time></trkpt><trkpt lat="42.3612836" lon="14.3065892"><ele>37.0</ele><time>2026-05-01T08:35:32.496Z</time></trkpt><trkpt lat="42.3612001" lon="14.3065539"><ele>37.0</ele><time>2026-05-01T08:35:33.496Z</time></trkpt><trkpt lat="42.3610863" lon="14.306514"><ele>37.0</ele><time>2026-05-01T08:35:34.496Z</time></trkpt><trkpt lat="42.3609527" lon="14.3064824"><ele>37.0</ele><time>2026-05-01T08:35:35.497Z</time></trkpt><trkpt lat="42.3608095" lon="14.3064442"><ele>34.66666666666667</ele><time>2026-05-01T08:35:36.496Z</time></trkpt><trkpt lat="42.3606431" lon="14.3063818"><ele>32.333333333333336</ele><time>2026-05-01T08:35:37.496Z</time></trkpt><trkpt lat="42.3605035" lon="14.3063079"><ele>30.0</ele><time>2026-05-01T08:35:38.496Z</time></trkpt><trkpt lat="42.3603779" lon="14.3062461"><ele>29.4</ele><time>2026-05-01T08:35:39.497Z</time></trkpt><trkpt lat="42.3602627" lon="14.3062008"><ele>28.8</ele><time>2026-05-01T08:35:40.496Z</time></trkpt><trkpt lat="42.360166" lon="14.3061694"><ele>28.200000000000003</ele><time>2026-05-01T08:35:41.497Z</time></trkpt><trkpt lat="42.3600833" lon="14.3061504"><ele>27.6</ele><time>2026-05-01T08:35:42.496Z</time></trkpt><trkpt lat="42.3600076" lon="14.3061445"><ele>27.0</ele><time>2026-05-01T08:35:43.496Z</time></trkpt><trkpt lat="42.3599287" lon="14.3061562"><ele>27.0</ele><time>2026-05-01T08:35:44.496Z</time></trkpt><trkpt lat="42.3598423" lon="14.3061941"><ele>27.000000000000004</ele><time>2026-05-01T08:35:45.496Z</time></trkpt><trkpt lat="42.3597404" lon="14.3062412"><ele>27.000000000000004</ele><time>2026-05-01T08:35:46.497Z</time></trkpt><trkpt lat="42.3596434" lon="14.306275"><ele>27.0</ele><time>2026-05-01T08:35:47.496Z</time></trkpt><trkpt lat="42.3595448" lon="14.3063079"><ele>27.0</ele><time>2026-05-01T08:35:48.495Z</time></trkpt><trkpt lat="42.3594367" lon="14.3063383"><ele>27.833333333333332</ele><time>2026-05-01T08:35:49.497Z</time></trkpt><trkpt lat="42.3593352" lon="14.3063654"><ele>28.666666666666664</ele><time>2026-05-01T08:35:50.496Z</time></trkpt><trkpt lat="42.3592535" lon="14.306392"><ele>29.5</ele><time>2026-05-01T08:35:51.496Z</time></trkpt><trkpt lat="42.3591816" lon="14.3064315"><ele>30.333333333333332</ele><time>2026-05-01T08:35:52.496Z</time></trkpt><trkpt lat="42.3591169" lon="14.3064863"><ele>31.166666666666664</ele><time>2026-05-01T08:35:53.496Z</time></trkpt><trkpt lat="42.3590628" lon="14.3065647"><ele>32.0</ele><time>2026-05-01T08:35:54.496Z</time></trkpt><trkpt lat="42.3589737" lon="14.3067114"><ele>32.2</ele><time>2026-05-01T08:35:55.496Z</time></trkpt><trkpt lat="42.3588912" lon="14.3068237"><ele>32.400000000000006</ele><time>2026-05-01T08:35:56.496Z</time></trkpt><trkpt lat="42.3588106" lon="14.306931"><ele>32.599999999999994</ele><time>2026-05-01T08:35:57.496Z</time></trkpt><trkpt lat="42.3587366" lon="14.3070049"><ele>32.8</ele><time>2026-05-01T08:35:58.497Z</time></trkpt><trkpt lat="42.3586661" lon="14.3070452"><ele>33.0</ele><time>2026-05-01T08:35:59.495Z</time></trkpt><trkpt lat="42.3585481" lon="14.3070893"><ele>32.5</ele><time>2026-05-01T08:36:01.496Z</time></trkpt><trkpt lat="42.3584602" lon="14.3070674"><ele>32.0</ele><time>2026-05-01T08:36:02.496Z</time></trkpt><trkpt lat="42.3583573" lon="14.3070323"><ele>31.5</ele><time>2026-05-01T08:36:03.496Z</time></trkpt><trkpt lat="42.3582111" lon="14.3069749"><ele>31.0</ele><time>2026-05-01T08:36:04.495Z</time></trkpt><trkpt lat="42.3580968" lon="14.3069255"><ele>31.25</ele><time>2026-05-01T08:36:05.494Z</time></trkpt><trkpt lat="42.3579811" lon="14.3068795"><ele>31.5</ele><time>2026-05-01T08:36:06.495Z</time></trkpt><trkpt lat="42.3578694" lon="14.30683"><ele>31.75</ele><time>2026-05-01T08:36:07.495Z</time></trkpt><trkpt lat="42.3577519" lon="14.306784"><ele>32.0</ele><time>2026-05-01T08:36:08.495Z</time></trkpt><trkpt lat="42.3576334" lon="14.3067344"><ele>32.0</ele><time>2026-05-01T08:36:09.495Z</time></trkpt><trkpt lat="42.3575145" lon="14.3066762"><ele>32.0</ele><time>2026-05-01T08:36:10.495Z</time></trkpt><trkpt lat="42.3573932" lon="14.3066224"><ele>32.0</ele><time>2026-05-01T08:36:11.495Z</time></trkpt><trkpt lat="42.357271" lon="14.3065641"><ele>32.0</ele><time>2026-05-01T08:36:12.496Z</time></trkpt><trkpt lat="42.357156" lon="14.3065116"><ele>32.2</ele><time>2026-05-01T08:36:13.496Z</time></trkpt><trkpt lat="42.3570517" lon="14.3064652"><ele>32.400000000000006</ele><time>2026-05-01T08:36:14.495Z</time></trkpt><trkpt lat="42.3569569" lon="14.3064307"><ele>32.599999999999994</ele><time>2026-05-01T08:36:15.495Z</time></trkpt><trkpt lat="42.3568463" lon="14.3064091"><ele>32.8</ele><time>2026-05-01T08:36:16.495Z</time></trkpt><trkpt lat="42.3567364" lon="14.306393"><ele>33.0</ele><time>2026-05-01T08:36:17.494Z</time></trkpt><trkpt lat="42.3566397" lon="14.3063854"><ele>33.0</ele><time>2026-05-01T08:36:18.495Z</time></trkpt><trkpt lat="42.3565495" lon="14.3063772"><ele>33.0</ele><time>2026-05-01T08:36:19.495Z</time></trkpt><trkpt lat="42.3564766" lon="14.3063692"><ele>33.0</ele><time>2026-05-01T08:36:20.496Z</time></trkpt><trkpt lat="42.3564058" lon="14.3063729"><ele>33.0</ele><time>2026-05-01T08:36:21.495Z</time></trkpt><trkpt lat="42.3563325" lon="14.3063789"><ele>33.0</ele><time>2026-05-01T08:36:22.495Z</time></trkpt><trkpt lat="42.3562619" lon="14.3064049"><ele>33.0</ele><time>2026-05-01T08:36:23.494Z</time></trkpt><trkpt lat="42.3561797" lon="14.3064177"><ele>33.8</ele><time>2026-05-01T08:36:24.494Z</time></trkpt><trkpt lat="42.3561024" lon="14.3064354"><ele>34.599999999999994</ele><time>2026-05-01T08:36:25.495Z</time></trkpt><trkpt lat="42.3560213" lon="14.3064543"><ele>35.400000000000006</ele><time>2026-05-01T08:36:26.495Z</time></trkpt><trkpt lat="42.3559225" lon="14.3064925"><ele>36.2</ele><time>2026-05-01T08:36:27.495Z</time></trkpt><trkpt lat="42.3558355" lon="14.3065204"><ele>37.0</ele><time>2026-05-01T08:36:28.495Z</time></trkpt><trkpt lat="42.3557348" lon="14.3065493"><ele>37.0</ele><time>2026-05-01T08:36:29.496Z</time></trkpt><trkpt lat="42.3556416" lon="14.3065792"><ele>37.0</ele><time>2026-05-01T08:36:30.495Z</time></trkpt><trkpt lat="42.3555488" lon="14.3066144"><ele>37.0</ele><time>2026-05-01T08:36:31.495Z</time></trkpt><trkpt lat="42.3554578" lon="14.3066477"><ele>37.0</ele><time>2026-05-01T08:36:32.495Z</time></trkpt><trkpt lat="42.3553679" lon="14.3066949"><ele>37.0</ele><time>2026-05-01T08:36:33.495Z</time></trkpt><trkpt lat="42.3552818" lon="14.3067406"><ele>36.6</ele><time>2026-05-01T08:36:34.495Z</time></trkpt><trkpt lat="42.3551866" lon="14.3067845"><ele>36.2</ele><time>2026-05-01T08:36:35.495Z</time></trkpt><trkpt lat="42.3550884" lon="14.3068281"><ele>35.8</ele><time>2026-05-01T08:36:36.494Z</time></trkpt><trkpt lat="42.3549927" lon="14.3068718"><ele>35.4</ele><time>2026-05-01T08:36:37.495Z</time></trkpt><trkpt lat="42.3548949" lon="14.306913"><ele>35.0</ele><time>2026-05-01T08:36:38.494Z</time></trkpt><trkpt lat="42.3547983" lon="14.3069554"><ele>35.0</ele><time>2026-05-01T08:36:39.495Z</time></trkpt><trkpt lat="42.3546943" lon="14.3069878"><ele>35.0</ele><time>2026-05-01T08:36:40.495Z</time></trkpt><trkpt lat="42.3545891" lon="14.3070005"><ele>35.0</ele><time>2026-05-01T08:36:41.496Z</time></trkpt><trkpt lat="42.3544771" lon="14.3070586"><ele>35.0</ele><time>2026-05-01T08:36:42.495Z</time></trkpt><trkpt lat="42.3543789" lon="14.3071035"><ele>35.0</ele><time>2026-05-01T08:36:43.495Z</time></trkpt><trkpt lat="42.3542812" lon="14.3071555"><ele>35.0</ele><time>2026-05-01T08:36:44.495Z</time></trkpt><trkpt lat="42.3541989" lon="14.3072089"><ele>35.0</ele><time>2026-05-01T08:36:45.496Z</time></trkpt><trkpt lat="42.3541078" lon="14.307263"><ele>35.0</ele><time>2026-05-01T08:36:46.494Z</time></trkpt><trkpt lat="42.3540305" lon="14.3073035"><ele>35.0</ele><time>2026-05-01T08:36:47.494Z</time></trkpt><trkpt lat="42.3539553" lon="14.3073674"><ele>35.0</ele><time>2026-05-01T08:36:48.495Z</time></trkpt><trkpt lat="42.3538829" lon="14.3074184"><ele>35.0</ele><time>2026-05-01T08:36:49.495Z</time></trkpt><trkpt lat="42.3537979" lon="14.307446"><ele>35.83333333333333</ele><time>2026-05-01T08:36:50.496Z</time></trkpt><trkpt lat="42.3537088" lon="14.3074582"><ele>36.666666666666664</ele><time>2026-05-01T08:36:51.496Z</time></trkpt><trkpt lat="42.3536192" lon="14.3074384"><ele>37.5</ele><time>2026-05-01T08:36:52.495Z</time></trkpt><trkpt lat="42.3535406" lon="14.3074407"><ele>38.333333333333336</ele><time>2026-05-01T08:36:53.495Z</time></trkpt><trkpt lat="42.353446" lon="14.307414"><ele>39.16666666666667</ele><time>2026-05-01T08:36:54.494Z</time></trkpt><trkpt lat="42.3533775" lon="14.3074855"><ele>40.0</ele><time>2026-05-01T08:36:55.495Z</time></trkpt><trkpt lat="42.3532994" lon="14.3075114"><ele>40.0</ele><time>2026-05-01T08:36:56.495Z</time></trkpt><trkpt lat="42.3532209" lon="14.3076112"><ele>40.0</ele><time>2026-05-01T08:36:57.495Z</time></trkpt><trkpt lat="42.3531337" lon="14.30769"><ele>40.0</ele><time>2026-05-01T08:36:58.496Z</time></trkpt><trkpt lat="42.3530502" lon="14.3077319"><ele>40.0</ele><time>2026-05-01T08:36:59.495Z</time></trkpt><trkpt lat="42.3529824" lon="14.3077467"><ele>40.0</ele><time>2026-05-01T08:37:00.495Z</time></trkpt><trkpt lat="42.3529009" lon="14.3077771"><ele>39.6</ele><time>2026-05-01T08:37:01.494Z</time></trkpt><trkpt lat="42.352815" lon="14.3077306"><ele>39.2</ele><time>2026-05-01T08:37:02.494Z</time></trkpt><trkpt lat="42.3527212" lon="14.3076888"><ele>38.8</ele><time>2026-05-01T08:37:03.494Z</time></trkpt><trkpt lat="42.3526288" lon="14.3076493"><ele>38.4</ele><time>2026-05-01T08:37:04.494Z</time></trkpt><trkpt lat="42.3525525" lon="14.3076093"><ele>38.0</ele><time>2026-05-01T08:37:05.495Z</time></trkpt><trkpt lat="42.3524658" lon="14.3075887"><ele>38.0</ele><time>2026-05-01T08:37:06.495Z</time></trkpt><trkpt lat="42.3523562" lon="14.3075957"><ele>38.0</ele><time>2026-05-01T08:37:07.495Z</time></trkpt><trkpt lat="42.3522292" lon="14.3076165"><ele>38.0</ele><time>2026-05-01T08:37:08.496Z</time></trkpt><trkpt lat="42.3520886" lon="14.3076485"><ele>38.0</ele><time>2026-05-01T08:37:09.495Z</time></trkpt><trkpt lat="42.3519497" lon="14.3076716"><ele>38.25</ele><time>2026-05-01T08:37:10.495Z</time></trkpt><trkpt lat="42.3518247" lon="14.3076888"><ele>38.5</ele><time>2026-05-01T08:37:11.494Z</time></trkpt><trkpt lat="42.3517051" lon="14.3077093"><ele>38.75</ele><time>2026-05-01T08:37:12.495Z</time></trkpt><trkpt lat="42.3515986" lon="14.3077254"><ele>39.0</ele><time>2026-05-01T08:37:13.495Z</time></trkpt><trkpt lat="42.351496" lon="14.3077427"><ele>39.0</ele><time>2026-05-01T08:37:14.495Z</time></trkpt><trkpt lat="42.3513921" lon="14.3077647"><ele>39.0</ele><time>2026-05-01T08:37:15.495Z</time></trkpt><trkpt lat="42.3512867" lon="14.3077786"><ele>39.0</ele><time>2026-05-01T08:37:16.496Z</time></trkpt><trkpt lat="42.3511796" lon="14.3077921"><ele>39.0</ele><time>2026-05-01T08:37:17.495Z</time></trkpt><trkpt lat="42.3510767" lon="14.3078084"><ele>39.0</ele><time>2026-05-01T08:37:18.495Z</time></trkpt><trkpt lat="42.3509632" lon="14.3078201"><ele>40.0</ele><time>2026-05-01T08:37:19.495Z</time></trkpt><trkpt lat="42.3508432" lon="14.3078321"><ele>41.0</ele><time>2026-05-01T08:37:20.495Z</time></trkpt><trkpt lat="42.3507225" lon="14.3078436"><ele>42.0</ele><time>2026-05-01T08:37:21.495Z</time></trkpt><trkpt lat="42.3506008" lon="14.3078424"><ele>43.0</ele><time>2026-05-01T08:37:22.495Z</time></trkpt><trkpt lat="42.3504785" lon="14.3078626"><ele>43.25</ele><time>2026-05-01T08:37:23.495Z</time></trkpt><trkpt lat="42.3503415" lon="14.3079109"><ele>43.5</ele><time>2026-05-01T08:37:24.496Z</time></trkpt><trkpt lat="42.3502077" lon="14.3079772"><ele>43.75</ele><time>2026-05-01T08:37:25.495Z</time></trkpt><trkpt lat="42.350072" lon="14.3080415"><ele>44.0</ele><time>2026-05-01T08:37:26.495Z</time></trkpt><trkpt lat="42.3499457" lon="14.3081078"><ele>44.0</ele><time>2026-05-01T08:37:27.495Z</time></trkpt><trkpt lat="42.3498321" lon="14.3081696"><ele>44.0</ele><time>2026-05-01T08:37:28.496Z</time></trkpt><trkpt lat="42.3497283" lon="14.3082272"><ele>44.0</ele><time>2026-05-01T08:37:29.494Z</time></trkpt><trkpt lat="42.3496288" lon="14.3082807"><ele>44.0</ele><time>2026-05-01T08:37:30.495Z</time></trkpt><trkpt lat="42.3495353" lon="14.3083248"><ele>44.0</ele><time>2026-05-01T08:37:31.495Z</time></trkpt><trkpt lat="42.349449" lon="14.3083551"><ele>43.83333333333333</ele><time>2026-05-01T08:37:32.495Z</time></trkpt><trkpt lat="42.3493763" lon="14.3083705"><ele>43.666666666666664</ele><time>2026-05-01T08:37:33.495Z</time></trkpt><trkpt lat="42.3493092" lon="14.3083558"><ele>43.5</ele><time>2026-05-01T08:37:34.495Z</time></trkpt><trkpt lat="42.3492328" lon="14.3082225"><ele>43.333333333333336</ele><time>2026-05-01T08:37:36.496Z</time></trkpt><trkpt lat="42.3492177" lon="14.3080892"><ele>43.16666666666667</ele><time>2026-05-01T08:37:37.494Z</time></trkpt><trkpt lat="42.3491999" lon="14.3079977"><ele>43.0</ele><time>2026-05-01T08:37:38.495Z</time></trkpt><trkpt lat="42.3491624" lon="14.3079142"><ele>42.833333333333336</ele><time>2026-05-01T08:37:39.495Z</time></trkpt><trkpt lat="42.3490467" lon="14.3078892"><ele>42.66666666666667</ele><time>2026-05-01T08:37:41.495Z</time></trkpt><trkpt lat="42.3489828" lon="14.3078648"><ele>42.5</ele><time>2026-05-01T08:37:42.495Z</time></trkpt><trkpt lat="42.3489313" lon="14.307805"><ele>42.333333333333336</ele><time>2026-05-01T08:37:43.495Z</time></trkpt><trkpt lat="42.3489112" lon="14.3077194"><ele>42.166666666666664</ele><time>2026-05-01T08:37:44.494Z</time></trkpt><trkpt lat="42.3488842" lon="14.3075891"><ele>42.0</ele><time>2026-05-01T08:37:45.494Z</time></trkpt><trkpt lat="42.3488597" lon="14.3074653"><ele>42.0</ele><time>2026-05-01T08:37:46.495Z</time></trkpt><trkpt lat="42.3488348" lon="14.3073441"><ele>42.0</ele><time>2026-05-01T08:37:47.495Z</time></trkpt><trkpt lat="42.348804" lon="14.3072108"><ele>42.0</ele><time>2026-05-01T08:37:48.496Z</time></trkpt><trkpt lat="42.34878" lon="14.3070781"><ele>42.0</ele><time>2026-05-01T08:37:49.495Z</time></trkpt><trkpt lat="42.3487498" lon="14.3069443"><ele>42.0</ele><time>2026-05-01T08:37:50.496Z</time></trkpt><trkpt lat="42.3487041" lon="14.3068161"><ele>42.0</ele><time>2026-05-01T08:37:51.495Z</time></trkpt><trkpt lat="42.3486644" lon="14.3067"><ele>42.0</ele><time>2026-05-01T08:37:52.495Z</time></trkpt><trkpt lat="42.3486293" lon="14.3065991"><ele>42.0</ele><time>2026-05-01T08:37:53.495Z</time></trkpt><trkpt lat="42.3485992" lon="14.3065029"><ele>42.0</ele><time>2026-05-01T08:37:54.495Z</time></trkpt><trkpt lat="42.3485992" lon="14.3064126"><ele>42.0</ele><time>2026-05-01T08:37:55.495Z</time></trkpt><trkpt lat="42.3486185" lon="14.3063192"><ele>42.0</ele><time>2026-05-01T08:37:56.495Z</time></trkpt><trkpt lat="42.348662" lon="14.3062269"><ele>42.0</ele><time>2026-05-01T08:37:57.495Z</time></trkpt><trkpt lat="42.3487298" lon="14.3061235"><ele>42.0</ele><time>2026-05-01T08:37:58.495Z</time></trkpt><trkpt lat="42.348795" lon="14.3060149"><ele>42.0</ele><time>2026-05-01T08:37:59.494Z</time></trkpt><trkpt lat="42.3488525" lon="14.3059027"><ele>42.0</ele><time>2026-05-01T08:38:00.494Z</time></trkpt><trkpt lat="42.3488845" lon="14.3057883"><ele>42.0</ele><time>2026-05-01T08:38:01.494Z</time></trkpt><trkpt lat="42.3488823" lon="14.3056829"><ele>43.0</ele><time>2026-05-01T08:38:02.495Z</time></trkpt><trkpt lat="42.3488531" lon="14.30559"><ele>44.0</ele><time>2026-05-01T08:38:03.495Z</time></trkpt><trkpt lat="42.3488216" lon="14.305507"><ele>45.0</ele><time>2026-05-01T08:38:04.495Z</time></trkpt><trkpt lat="42.3487401" lon="14.3054498"><ele>46.0</ele><time>2026-05-01T08:38:05.494Z</time></trkpt><trkpt lat="42.3486572" lon="14.3054272"><ele>47.0</ele><time>2026-05-01T08:38:06.494Z</time></trkpt><trkpt lat="42.3485845" lon="14.3054173"><ele>48.0</ele><time>2026-05-01T08:38:07.496Z</time></trkpt><trkpt lat="42.3484867" lon="14.3054388"><ele>48.0</ele><time>2026-05-01T08:38:09.494Z</time></trkpt><trkpt lat="42.3484218" lon="14.3054746"><ele>48.0</ele><time>2026-05-01T08:38:10.495Z</time></trkpt><trkpt lat="42.3483534" lon="14.3055331"><ele>48.0</ele><time>2026-05-01T08:38:11.494Z</time></trkpt><trkpt lat="42.3482751" lon="14.3056043"><ele>48.0</ele><time>2026-05-01T08:38:12.495Z</time></trkpt><trkpt lat="42.3481885" lon="14.3056892"><ele>48.0</ele><time>2026-05-01T08:38:13.494Z</time></trkpt><trkpt lat="42.3480982" lon="14.3057837"><ele>49.4</ele><time>2026-05-01T08:38:14.494Z</time></trkpt><trkpt lat="42.348006" lon="14.3058755"><ele>50.8</ele><time>2026-05-01T08:38:15.494Z</time></trkpt><trkpt lat="42.3479213" lon="14.3059718"><ele>52.2</ele><time>2026-05-01T08:38:16.494Z</time></trkpt><trkpt lat="42.3478344" lon="14.3060618"><ele>53.6</ele><time>2026-05-01T08:38:17.494Z</time></trkpt><trkpt lat="42.3477486" lon="14.3061515"><ele>55.0</ele><time>2026-05-01T08:38:18.494Z</time></trkpt><trkpt lat="42.3476656" lon="14.3062454"><ele>55.0</ele><time>2026-05-01T08:38:19.495Z</time></trkpt><trkpt lat="42.3475837" lon="14.3063301"><ele>55.0</ele><time>2026-05-01T08:38:20.495Z</time></trkpt><trkpt lat="42.3475005" lon="14.3063993"><ele>55.0</ele><time>2026-05-01T08:38:21.495Z</time></trkpt><trkpt lat="42.347423" lon="14.3064653"><ele>55.0</ele><time>2026-05-01T08:38:22.495Z</time></trkpt><trkpt lat="42.347334" lon="14.3065273"><ele>55.0</ele><time>2026-05-01T08:38:23.495Z</time></trkpt><trkpt lat="42.3472342" lon="14.3065874"><ele>54.25</ele><time>2026-05-01T08:38:24.496Z</time></trkpt><trkpt lat="42.3471278" lon="14.3066426"><ele>53.5</ele><time>2026-05-01T08:38:25.495Z</time></trkpt><trkpt lat="42.3470119" lon="14.3067023"><ele>52.75</ele><time>2026-05-01T08:38:26.496Z</time></trkpt><trkpt lat="42.346893" lon="14.3067635"><ele>52.0</ele><time>2026-05-01T08:38:27.495Z</time></trkpt><trkpt lat="42.3467661" lon="14.306834"><ele>52.0</ele><time>2026-05-01T08:38:28.495Z</time></trkpt><trkpt lat="42.3466355" lon="14.3069007"><ele>52.0</ele><time>2026-05-01T08:38:29.495Z</time></trkpt><trkpt lat="42.3465001" lon="14.3069681"><ele>52.0</ele><time>2026-05-01T08:38:30.495Z</time></trkpt><trkpt lat="42.3463661" lon="14.3070236"><ele>52.0</ele><time>2026-05-01T08:38:31.495Z</time></trkpt><trkpt lat="42.3462466" lon="14.3070889"><ele>52.25</ele><time>2026-05-01T08:38:32.495Z</time></trkpt><trkpt lat="42.3461449" lon="14.3071371"><ele>52.5</ele><time>2026-05-01T08:38:33.495Z</time></trkpt><trkpt lat="42.3460345" lon="14.3071925"><ele>52.75</ele><time>2026-05-01T08:38:34.495Z</time></trkpt><trkpt lat="42.3459017" lon="14.307258"><ele>53.0</ele><time>2026-05-01T08:38:35.495Z</time></trkpt><trkpt lat="42.3457527" lon="14.3073352"><ele>51.333333333333336</ele><time>2026-05-01T08:38:36.495Z</time></trkpt><trkpt lat="42.3455888" lon="14.3074201"><ele>49.66666666666667</ele><time>2026-05-01T08:38:37.495Z</time></trkpt><trkpt lat="42.3454125" lon="14.3075194"><ele>48.0</ele><time>2026-05-01T08:38:38.494Z</time></trkpt><trkpt lat="42.345231" lon="14.3076328"><ele>48.0</ele><time>2026-05-01T08:38:39.494Z</time></trkpt><trkpt lat="42.3450398" lon="14.3077492"><ele>48.0</ele><time>2026-05-01T08:38:40.496Z</time></trkpt><trkpt lat="42.3448463" lon="14.3078694"><ele>48.0</ele><time>2026-05-01T08:38:41.495Z</time></trkpt><trkpt lat="42.3446504" lon="14.3079914"><ele>46.333333333333336</ele><time>2026-05-01T08:38:42.495Z</time></trkpt><trkpt lat="42.3444622" lon="14.3081071"><ele>44.66666666666667</ele><time>2026-05-01T08:38:43.495Z</time></trkpt><trkpt lat="42.3442897" lon="14.3082076"><ele>43.0</ele><time>2026-05-01T08:38:44.494Z</time></trkpt><trkpt lat="42.3441253" lon="14.3083087"><ele>43.0</ele><time>2026-05-01T08:38:45.494Z</time></trkpt><trkpt lat="42.3439748" lon="14.3083945"><ele>43.0</ele><time>2026-05-01T08:38:46.494Z</time></trkpt><trkpt lat="42.3438357" lon="14.3084662"><ele>43.0</ele><time>2026-05-01T08:38:47.494Z</time></trkpt><trkpt lat="42.3437268" lon="14.3085104"><ele>43.0</ele><time>2026-05-01T08:38:48.493Z</time></trkpt><trkpt lat="42.343648" lon="14.3085381"><ele>43.0</ele><time>2026-05-01T08:38:49.494Z</time></trkpt><trkpt lat="42.3435779" lon="14.3085595"><ele>43.0</ele><time>2026-05-01T08:38:50.493Z</time></trkpt><trkpt lat="42.3434841" lon="14.3085798"><ele>43.0</ele><time>2026-05-01T08:38:52.494Z</time></trkpt><trkpt lat="42.3433786" lon="14.3085666"><ele>43.0</ele><time>2026-05-01T08:38:54.493Z</time></trkpt><trkpt lat="42.3433079" lon="14.3085354"><ele>43.0</ele><time>2026-05-01T08:38:55.493Z</time></trkpt><trkpt lat="42.3432274" lon="14.3084853"><ele>43.0</ele><time>2026-05-01T08:38:56.494Z</time></trkpt><trkpt lat="42.3431478" lon="14.3084233"><ele>43.0</ele><time>2026-05-01T08:38:57.494Z</time></trkpt><trkpt lat="42.3430558" lon="14.3083506"><ele>43.0</ele><time>2026-05-01T08:38:58.494Z</time></trkpt><trkpt lat="42.3429739" lon="14.3082571"><ele>43.0</ele><time>2026-05-01T08:38:59.494Z</time></trkpt><trkpt lat="42.3428828" lon="14.3081637"><ele>43.0</ele><time>2026-05-01T08:39:00.493Z</time></trkpt><trkpt lat="42.342802" lon="14.3080785"><ele>43.0</ele><time>2026-05-01T08:39:01.494Z</time></trkpt><trkpt lat="42.3427162" lon="14.3080067"><ele>43.66666666666667</ele><time>2026-05-01T08:39:02.494Z</time></trkpt><trkpt lat="42.3426309" lon="14.3079433"><ele>44.333333333333336</ele><time>2026-05-01T08:39:03.494Z</time></trkpt><trkpt lat="42.3425579" lon="14.3078984"><ele>45.0</ele><time>2026-05-01T08:39:04.494Z</time></trkpt><trkpt lat="42.3424765" lon="14.3078765"><ele>45.666666666666664</ele><time>2026-05-01T08:39:05.494Z</time></trkpt><trkpt lat="42.3423973" lon="14.3078783"><ele>46.33333333333333</ele><time>2026-05-01T08:39:06.494Z</time></trkpt><trkpt lat="42.3423065" lon="14.3078815"><ele>47.0</ele><time>2026-05-01T08:39:07.494Z</time></trkpt><trkpt lat="42.3422061" lon="14.3078943"><ele>47.0</ele><time>2026-05-01T08:39:08.494Z</time></trkpt><trkpt lat="42.3421032" lon="14.307944"><ele>47.0</ele><time>2026-05-01T08:39:09.493Z</time></trkpt><trkpt lat="42.3420028" lon="14.3079933"><ele>47.0</ele><time>2026-05-01T08:39:10.493Z</time></trkpt><trkpt lat="42.3419119" lon="14.3080425"><ele>47.0</ele><time>2026-05-01T08:39:11.494Z</time></trkpt><trkpt lat="42.341839" lon="14.3080873"><ele>47.0</ele><time>2026-05-01T08:39:12.494Z</time></trkpt><trkpt lat="42.3417753" lon="14.308127"><ele>46.8</ele><time>2026-05-01T08:39:13.495Z</time></trkpt><trkpt lat="42.3416973" lon="14.3081591"><ele>46.6</ele><time>2026-05-01T08:39:14.494Z</time></trkpt><trkpt lat="42.3416131" lon="14.3081914"><ele>46.4</ele><time>2026-05-01T08:39:15.493Z</time></trkpt><trkpt lat="42.3415158" lon="14.3082454"><ele>46.199999999999996</ele><time>2026-05-01T08:39:16.494Z</time></trkpt><trkpt lat="42.3414215" lon="14.3082875"><ele>46.0</ele><time>2026-05-01T08:39:17.494Z</time></trkpt><trkpt lat="42.3413517" lon="14.3083292"><ele>45.66666666666667</ele><time>2026-05-01T08:39:18.494Z</time></trkpt><trkpt lat="42.3412852" lon="14.3083607"><ele>45.333333333333336</ele><time>2026-05-01T08:39:19.494Z</time></trkpt><trkpt lat="42.3412198" lon="14.3083827"><ele>45.0</ele><time>2026-05-01T08:39:20.494Z</time></trkpt><trkpt lat="42.3411331" lon="14.3084207"><ele>44.666666666666664</ele><time>2026-05-01T08:39:21.493Z</time></trkpt><trkpt lat="42.3410839" lon="14.308476"><ele>44.33333333333333</ele><time>2026-05-01T08:39:22.494Z</time></trkpt><trkpt lat="42.3410045" lon="14.3084914"><ele>44.0</ele><time>2026-05-01T08:39:23.494Z</time></trkpt><trkpt lat="42.3409013" lon="14.3085386"><ele>44.0</ele><time>2026-05-01T08:39:25.494Z</time></trkpt><trkpt lat="42.3408208" lon="14.308564"><ele>44.0</ele><time>2026-05-01T08:39:26.494Z</time></trkpt><trkpt lat="42.340747" lon="14.3085855"><ele>44.0</ele><time>2026-05-01T08:39:27.494Z</time></trkpt><trkpt lat="42.3406675" lon="14.3086036"><ele>44.0</ele><time>2026-05-01T08:39:28.494Z</time></trkpt><trkpt lat="42.3405805" lon="14.3086154"><ele>44.0</ele><time>2026-05-01T08:39:29.494Z</time></trkpt><trkpt lat="42.3405025" lon="14.3086261"><ele>44.0</ele><time>2026-05-01T08:39:30.494Z</time></trkpt><trkpt lat="42.3403884" lon="14.3086273"><ele>44.33333333333333</ele><time>2026-05-01T08:39:32.494Z</time></trkpt><trkpt lat="42.3403216" lon="14.3086288"><ele>44.666666666666664</ele><time>2026-05-01T08:39:33.494Z</time></trkpt><trkpt lat="42.3402389" lon="14.3086279"><ele>45.0</ele><time>2026-05-01T08:39:34.494Z</time></trkpt><trkpt lat="42.340145" lon="14.3086348"><ele>45.333333333333336</ele><time>2026-05-01T08:39:35.494Z</time></trkpt><trkpt lat="42.3400421" lon="14.308636"><ele>45.66666666666667</ele><time>2026-05-01T08:39:36.493Z</time></trkpt><trkpt lat="42.3399625" lon="14.3086376"><ele>46.0</ele><time>2026-05-01T08:39:37.495Z</time></trkpt><trkpt lat="42.3398403" lon="14.3085894"><ele>46.0</ele><time>2026-05-01T08:39:39.493Z</time></trkpt><trkpt lat="42.3397739" lon="14.3085478"><ele>46.0</ele><time>2026-05-01T08:39:40.494Z</time></trkpt><trkpt lat="42.3396879" lon="14.3084876"><ele>46.0</ele><time>2026-05-01T08:39:41.494Z</time></trkpt><trkpt lat="42.3395907" lon="14.3084305"><ele>46.0</ele><time>2026-05-01T08:39:42.495Z</time></trkpt><trkpt lat="42.3394876" lon="14.3083766"><ele>46.0</ele><time>2026-05-01T08:39:43.494Z</time></trkpt><trkpt lat="42.3393965" lon="14.3083181"><ele>45.8</ele><time>2026-05-01T08:39:44.494Z</time></trkpt><trkpt lat="42.3393115" lon="14.308251"><ele>45.599999999999994</ele><time>2026-05-01T08:39:45.495Z</time></trkpt><trkpt lat="42.3392355" lon="14.3081758"><ele>45.4</ele><time>2026-05-01T08:39:46.494Z</time></trkpt><trkpt lat="42.3391561" lon="14.3080754"><ele>45.2</ele><time>2026-05-01T08:39:47.494Z</time></trkpt><trkpt lat="42.3390789" lon="14.3079587"><ele>45.0</ele><time>2026-05-01T08:39:48.493Z</time></trkpt><trkpt lat="42.3390039" lon="14.3078274"><ele>45.4</ele><time>2026-05-01T08:39:49.493Z</time></trkpt><trkpt lat="42.3389311" lon="14.3077"><ele>45.8</ele><time>2026-05-01T08:39:50.495Z</time></trkpt><trkpt lat="42.3388611" lon="14.3075851"><ele>46.2</ele><time>2026-05-01T08:39:51.494Z</time></trkpt><trkpt lat="42.3387905" lon="14.307455"><ele>46.6</ele><time>2026-05-01T08:39:52.494Z</time></trkpt><trkpt lat="42.3387226" lon="14.3073637"><ele>47.0</ele><time>2026-05-01T08:39:53.494Z</time></trkpt><trkpt lat="42.3386463" lon="14.30727"><ele>48.25</ele><time>2026-05-01T08:39:54.494Z</time></trkpt><trkpt lat="42.3385725" lon="14.3071743"><ele>49.5</ele><time>2026-05-01T08:39:55.495Z</time></trkpt><trkpt lat="42.3384412" lon="14.3070892"><ele>50.75</ele><time>2026-05-01T08:39:56.494Z</time></trkpt><trkpt lat="42.3383207" lon="14.3069797"><ele>52.0</ele><time>2026-05-01T08:39:57.495Z</time></trkpt><trkpt lat="42.3382159" lon="14.3068834"><ele>52.0</ele><time>2026-05-01T08:39:58.493Z</time></trkpt><trkpt lat="42.338135" lon="14.306795"><ele>52.0</ele><time>2026-05-01T08:39:59.494Z</time></trkpt><trkpt lat="42.3380457" lon="14.3067103"><ele>52.0</ele><time>2026-05-01T08:40:00.494Z</time></trkpt><trkpt lat="42.3379771" lon="14.3066845"><ele>52.0</ele><time>2026-05-01T08:40:01.494Z</time></trkpt><trkpt lat="42.3378954" lon="14.3067009"><ele>52.0</ele><time>2026-05-01T08:40:02.495Z</time></trkpt><trkpt lat="42.3378058" lon="14.3066975"><ele>51.400000000000006</ele><time>2026-05-01T08:40:03.493Z</time></trkpt><trkpt lat="42.3377249" lon="14.3066933"><ele>50.800000000000004</ele><time>2026-05-01T08:40:04.494Z</time></trkpt><trkpt lat="42.3376363" lon="14.3066949"><ele>50.2</ele><time>2026-05-01T08:40:05.494Z</time></trkpt><trkpt lat="42.3375502" lon="14.3067026"><ele>49.6</ele><time>2026-05-01T08:40:06.494Z</time></trkpt><trkpt lat="42.3374141" lon="14.3067377"><ele>49.0</ele><time>2026-05-01T08:40:08.494Z</time></trkpt><trkpt lat="42.3373039" lon="14.3067361"><ele>49.400000000000006</ele><time>2026-05-01T08:40:09.494Z</time></trkpt><trkpt lat="42.3372078" lon="14.3067169"><ele>49.8</ele><time>2026-05-01T08:40:10.494Z</time></trkpt><trkpt lat="42.3371051" lon="14.3067181"><ele>50.2</ele><time>2026-05-01T08:40:11.493Z</time></trkpt><trkpt lat="42.3369915" lon="14.3067085"><ele>50.599999999999994</ele><time>2026-05-01T08:40:12.494Z</time></trkpt><trkpt lat="42.3369307" lon="14.3066662"><ele>51.0</ele><time>2026-05-01T08:40:13.494Z</time></trkpt><trkpt lat="42.3368197" lon="14.30663"><ele>51.0</ele><time>2026-05-01T08:40:14.494Z</time></trkpt><trkpt lat="42.3367083" lon="14.3066039"><ele>51.0</ele><time>2026-05-01T08:40:15.494Z</time></trkpt><trkpt lat="42.3365905" lon="14.3065709"><ele>51.0</ele><time>2026-05-01T08:40:16.494Z</time></trkpt><trkpt lat="42.3364899" lon="14.3065572"><ele>51.0</ele><time>2026-05-01T08:40:17.494Z</time></trkpt><trkpt lat="42.3363931" lon="14.3065324"><ele>51.0</ele><time>2026-05-01T08:40:18.493Z</time></trkpt><trkpt lat="42.3363117" lon="14.3065108"><ele>51.199999999999996</ele><time>2026-05-01T08:40:19.494Z</time></trkpt><trkpt lat="42.3362474" lon="14.3064632"><ele>51.4</ele><time>2026-05-01T08:40:20.494Z</time></trkpt><trkpt lat="42.3361662" lon="14.306411"><ele>51.6</ele><time>2026-05-01T08:40:21.494Z</time></trkpt><trkpt lat="42.336088" lon="14.3063513"><ele>51.8</ele><time>2026-05-01T08:40:22.493Z</time></trkpt><trkpt lat="42.3360107" lon="14.3062416"><ele>52.0</ele><time>2026-05-01T08:40:23.495Z</time></trkpt><trkpt lat="42.3359327" lon="14.3061518"><ele>52.666666666666664</ele><time>2026-05-01T08:40:24.494Z</time></trkpt><trkpt lat="42.335877" lon="14.306064"><ele>53.33333333333333</ele><time>2026-05-01T08:40:25.494Z</time></trkpt><trkpt lat="42.3358196" lon="14.3059758"><ele>54.0</ele><time>2026-05-01T08:40:26.494Z</time></trkpt><trkpt lat="42.3357678" lon="14.3059247"><ele>54.66666666666667</ele><time>2026-05-01T08:40:27.493Z</time></trkpt><trkpt lat="42.3356581" lon="14.3058197"><ele>55.333333333333336</ele><time>2026-05-01T08:40:29.494Z</time></trkpt><trkpt lat="42.3355835" lon="14.3057988"><ele>56.0</ele><time>2026-05-01T08:40:30.494Z</time></trkpt><trkpt lat="42.3355934" lon="14.3056893"><ele>57.4</ele><time>2026-05-01T08:40:39.494Z</time></trkpt><trkpt lat="42.3356337" lon="14.3055785"><ele>58.8</ele><time>2026-05-01T08:40:41.494Z</time></trkpt><trkpt lat="42.3356972" lon="14.3054255"><ele>60.199999999999996</ele><time>2026-05-01T08:40:43.494Z</time></trkpt><trkpt lat="42.3357324" lon="14.3053388"><ele>61.599999999999994</ele><time>2026-05-01T08:40:44.495Z</time></trkpt><trkpt lat="42.3357702" lon="14.3052425"><ele>63.0</ele><time>2026-05-01T08:40:45.494Z</time></trkpt><trkpt lat="42.3358103" lon="14.3051328"><ele>63.0</ele><time>2026-05-01T08:40:46.494Z</time></trkpt><trkpt lat="42.3358394" lon="14.305039"><ele>63.0</ele><time>2026-05-01T08:40:47.493Z</time></trkpt><trkpt lat="42.3358458" lon="14.3048644"><ele>63.0</ele><time>2026-05-01T08:40:49.493Z</time></trkpt><trkpt lat="42.3358104" lon="14.3047497"><ele>63.0</ele><time>2026-05-01T08:40:50.493Z</time></trkpt><trkpt lat="42.3357664" lon="14.3046336"><ele>63.0</ele><time>2026-05-01T08:40:51.493Z</time></trkpt><trkpt lat="42.3357259" lon="14.3045308"><ele>64.16666666666667</ele><time>2026-05-01T08:40:52.493Z</time></trkpt><trkpt lat="42.33568" lon="14.3044377"><ele>65.33333333333333</ele><time>2026-05-01T08:40:53.493Z</time></trkpt><trkpt lat="42.335633" lon="14.3043797"><ele>66.5</ele><time>2026-05-01T08:40:54.493Z</time></trkpt><trkpt lat="42.3355286" lon="14.3042999"><ele>67.66666666666666</ele><time>2026-05-01T08:40:56.494Z</time></trkpt><trkpt lat="42.3354709" lon="14.3042427"><ele>68.83333333333333</ele><time>2026-05-01T08:40:58.494Z</time></trkpt><trkpt lat="42.3354213" lon="14.3041524"><ele>70.0</ele><time>2026-05-01T08:41:00.493Z</time></trkpt><trkpt lat="42.3353968" lon="14.303989"><ele>72.8</ele><time>2026-05-01T08:41:02.494Z</time></trkpt><trkpt lat="42.3353353" lon="14.3038582"><ele>75.6</ele><time>2026-05-01T08:41:04.494Z</time></trkpt><trkpt lat="42.3352518" lon="14.3037758"><ele>78.4</ele><time>2026-05-01T08:41:06.494Z</time></trkpt><trkpt lat="42.3352433" lon="14.303663"><ele>81.2</ele><time>2026-05-01T08:41:08.494Z</time></trkpt><trkpt lat="42.3352167" lon="14.3035805"><ele>84.0</ele><time>2026-05-01T08:41:11.493Z</time></trkpt><trkpt lat="42.3351331" lon="14.3035817"><ele>84.0</ele><time>2026-05-01T08:41:13.494Z</time></trkpt><trkpt lat="42.3350584" lon="14.3035634"><ele>84.0</ele><time>2026-05-01T08:41:14.494Z</time></trkpt><trkpt lat="42.334967" lon="14.3035216"><ele>84.0</ele><time>2026-05-01T08:41:15.494Z</time></trkpt><trkpt lat="42.3348687" lon="14.3034477"><ele>84.0</ele><time>2026-05-01T08:41:16.493Z</time></trkpt><trkpt lat="42.3347516" lon="14.3033596"><ele>84.0</ele><time>2026-05-01T08:41:17.494Z</time></trkpt><trkpt lat="42.3346362" lon="14.3032649"><ele>82.5</ele><time>2026-05-01T08:41:18.494Z</time></trkpt><trkpt lat="42.3345343" lon="14.3031604"><ele>81.0</ele><time>2026-05-01T08:41:19.494Z</time></trkpt><trkpt lat="42.3344528" lon="14.3030462"><ele>79.5</ele><time>2026-05-01T08:41:20.493Z</time></trkpt><trkpt lat="42.3343865" lon="14.3029252"><ele>78.0</ele><time>2026-05-01T08:41:21.494Z</time></trkpt><trkpt lat="42.3343214" lon="14.3028007"><ele>78.0</ele><time>2026-05-01T08:41:22.493Z</time></trkpt><trkpt lat="42.33426" lon="14.3026873"><ele>78.0</ele><time>2026-05-01T08:41:23.493Z</time></trkpt><trkpt lat="42.3342039" lon="14.302575"><ele>78.0</ele><time>2026-05-01T08:41:24.494Z</time></trkpt><trkpt lat="42.3341364" lon="14.3024729"><ele>78.0</ele><time>2026-05-01T08:41:25.494Z</time></trkpt><trkpt lat="42.3340562" lon="14.3023671"><ele>78.0</ele><time>2026-05-01T08:41:26.494Z</time></trkpt><trkpt lat="42.3339771" lon="14.3022801"><ele>76.6</ele><time>2026-05-01T08:41:27.494Z</time></trkpt><trkpt lat="42.3339029" lon="14.3021821"><ele>75.19999999999999</ele><time>2026-05-01T08:41:28.494Z</time></trkpt><trkpt lat="42.3338396" lon="14.3020913"><ele>73.8</ele><time>2026-05-01T08:41:29.494Z</time></trkpt><trkpt lat="42.333752" lon="14.3019396"><ele>72.39999999999999</ele><time>2026-05-01T08:41:31.493Z</time></trkpt><trkpt lat="42.3337009" lon="14.301841"><ele>71.0</ele><time>2026-05-01T08:41:32.493Z</time></trkpt><trkpt lat="42.3336443" lon="14.3017327"><ele>71.0</ele><time>2026-05-01T08:41:33.492Z</time></trkpt><trkpt lat="42.3335647" lon="14.3016549"><ele>71.0</ele><time>2026-05-01T08:41:34.493Z</time></trkpt><trkpt lat="42.3334956" lon="14.3015992"><ele>71.0</ele><time>2026-05-01T08:41:35.492Z</time></trkpt><trkpt lat="42.3334271" lon="14.3015634"><ele>71.0</ele><time>2026-05-01T08:41:36.493Z</time></trkpt><trkpt lat="42.3333571" lon="14.3015544"><ele>71.0</ele><time>2026-05-01T08:41:37.493Z</time></trkpt><trkpt lat="42.3332917" lon="14.3015722"><ele>71.0</ele><time>2026-05-01T08:41:38.494Z</time></trkpt><trkpt lat="42.3332322" lon="14.3016176"><ele>71.0</ele><time>2026-05-01T08:41:39.492Z</time></trkpt><trkpt lat="42.3331625" lon="14.301685"><ele>71.0</ele><time>2026-05-01T08:41:40.493Z</time></trkpt><trkpt lat="42.333083" lon="14.3017499"><ele>71.0</ele><time>2026-05-01T08:41:41.493Z</time></trkpt><trkpt lat="42.3329922" lon="14.3018007"><ele>71.0</ele><time>2026-05-01T08:41:42.493Z</time></trkpt><trkpt lat="42.3328889" lon="14.3018293"><ele>71.0</ele><time>2026-05-01T08:41:43.493Z</time></trkpt><trkpt lat="42.332771" lon="14.3018297"><ele>70.0</ele><time>2026-05-01T08:41:44.493Z</time></trkpt><trkpt lat="42.3326461" lon="14.3018095"><ele>69.0</ele><time>2026-05-01T08:41:45.494Z</time></trkpt><trkpt lat="42.332518" lon="14.3017597"><ele>68.0</ele><time>2026-05-01T08:41:46.494Z</time></trkpt><trkpt lat="42.3323829" lon="14.3017015"><ele>67.0</ele><time>2026-05-01T08:41:47.493Z</time></trkpt><trkpt lat="42.332242" lon="14.3016357"><ele>64.75</ele><time>2026-05-01T08:41:48.493Z</time></trkpt><trkpt lat="42.3321044" lon="14.3015689"><ele>62.5</ele><time>2026-05-01T08:41:49.493Z</time></trkpt><trkpt lat="42.3319664" lon="14.3014883"><ele>60.25</ele><time>2026-05-01T08:41:50.494Z</time></trkpt><trkpt lat="42.3318318" lon="14.3014087"><ele>58.0</ele><time>2026-05-01T08:41:51.493Z</time></trkpt><trkpt lat="42.3316926" lon="14.301331"><ele>59.75</ele><time>2026-05-01T08:41:52.493Z</time></trkpt><trkpt lat="42.3315528" lon="14.3012582"><ele>61.5</ele><time>2026-05-01T08:41:53.492Z</time></trkpt><trkpt lat="42.3314206" lon="14.3011771"><ele>63.25</ele><time>2026-05-01T08:41:54.493Z</time></trkpt><trkpt lat="42.3312864" lon="14.3011007"><ele>65.0</ele><time>2026-05-01T08:41:55.493Z</time></trkpt><trkpt lat="42.3311483" lon="14.3010212"><ele>65.0</ele><time>2026-05-01T08:41:56.493Z</time></trkpt><trkpt lat="42.331017" lon="14.300922"><ele>65.0</ele><time>2026-05-01T08:41:57.493Z</time></trkpt><trkpt lat="42.3308826" lon="14.3008246"><ele>65.0</ele><time>2026-05-01T08:41:58.493Z</time></trkpt><trkpt lat="42.3307455" lon="14.3007287"><ele>65.0</ele><time>2026-05-01T08:41:59.493Z</time></trkpt><trkpt lat="42.3306058" lon="14.3006492"><ele>65.0</ele><time>2026-05-01T08:42:00.493Z</time></trkpt><trkpt lat="42.3304622" lon="14.3005846"><ele>65.0</ele><time>2026-05-01T08:42:01.493Z</time></trkpt><trkpt lat="42.3303179" lon="14.3005288"><ele>64.66666666666667</ele><time>2026-05-01T08:42:02.494Z</time></trkpt><trkpt lat="42.3301677" lon="14.3004772"><ele>64.33333333333333</ele><time>2026-05-01T08:42:03.493Z</time></trkpt><trkpt lat="42.3300212" lon="14.3004369"><ele>64.0</ele><time>2026-05-01T08:42:04.493Z</time></trkpt><trkpt lat="42.3298758" lon="14.3004074"><ele>64.0</ele><time>2026-05-01T08:42:05.493Z</time></trkpt><trkpt lat="42.3297277" lon="14.300363"><ele>64.0</ele><time>2026-05-01T08:42:06.492Z</time></trkpt><trkpt lat="42.3295771" lon="14.3003273"><ele>64.0</ele><time>2026-05-01T08:42:07.494Z</time></trkpt><trkpt lat="42.329431" lon="14.3002817"><ele>64.0</ele><time>2026-05-01T08:42:08.493Z</time></trkpt><trkpt lat="42.3292838" lon="14.3002386"><ele>64.0</ele><time>2026-05-01T08:42:09.492Z</time></trkpt><trkpt lat="42.3291285" lon="14.3002025"><ele>64.0</ele><time>2026-05-01T08:42:10.494Z</time></trkpt><trkpt lat="42.328981" lon="14.3001664"><ele>63.5</ele><time>2026-05-01T08:42:11.493Z</time></trkpt><trkpt lat="42.3288341" lon="14.3001252"><ele>63.0</ele><time>2026-05-01T08:42:12.492Z</time></trkpt><trkpt lat="42.3286899" lon="14.3000803"><ele>62.5</ele><time>2026-05-01T08:42:13.493Z</time></trkpt><trkpt lat="42.3285505" lon="14.3000265"><ele>62.0</ele><time>2026-05-01T08:42:14.492Z</time></trkpt><trkpt lat="42.3284058" lon="14.2999635"><ele>62.0</ele><time>2026-05-01T08:42:15.493Z</time></trkpt><trkpt lat="42.3282574" lon="14.299894"><ele>62.0</ele><time>2026-05-01T08:42:16.493Z</time></trkpt><trkpt lat="42.3281031" lon="14.2998182"><ele>62.0</ele><time>2026-05-01T08:42:17.493Z</time></trkpt><trkpt lat="42.3279489" lon="14.2997406"><ele>63.66666666666667</ele><time>2026-05-01T08:42:18.494Z</time></trkpt><trkpt lat="42.3277944" lon="14.299659"><ele>65.33333333333333</ele><time>2026-05-01T08:42:19.493Z</time></trkpt><trkpt lat="42.3276359" lon="14.2995701"><ele>67.0</ele><time>2026-05-01T08:42:20.492Z</time></trkpt><trkpt lat="42.3274812" lon="14.2994729"><ele>67.0</ele><time>2026-05-01T08:42:21.493Z</time></trkpt><trkpt lat="42.3273251" lon="14.299375"><ele>67.0</ele><time>2026-05-01T08:42:22.493Z</time></trkpt><trkpt lat="42.327168" lon="14.2992824"><ele>67.0</ele><time>2026-05-01T08:42:23.494Z</time></trkpt><trkpt lat="42.3270078" lon="14.2991922"><ele>66.33333333333333</ele><time>2026-05-01T08:42:24.494Z</time></trkpt><trkpt lat="42.3268527" lon="14.2991038"><ele>65.66666666666667</ele><time>2026-05-01T08:42:25.493Z</time></trkpt><trkpt lat="42.3267038" lon="14.2990036"><ele>65.0</ele><time>2026-05-01T08:42:26.494Z</time></trkpt><trkpt lat="42.3265548" lon="14.29891"><ele>66.5</ele><time>2026-05-01T08:42:27.493Z</time></trkpt><trkpt lat="42.3264203" lon="14.2988215"><ele>68.0</ele><time>2026-05-01T08:42:28.493Z</time></trkpt><trkpt lat="42.3262974" lon="14.2987397"><ele>69.5</ele><time>2026-05-01T08:42:29.493Z</time></trkpt><trkpt lat="42.3262043" lon="14.2986607"><ele>71.0</ele><time>2026-05-01T08:42:30.493Z</time></trkpt><trkpt lat="42.3261274" lon="14.2985839"><ele>71.0</ele><time>2026-05-01T08:42:31.492Z</time></trkpt><trkpt lat="42.3260722" lon="14.2984845"><ele>71.0</ele><time>2026-05-01T08:42:32.492Z</time></trkpt><trkpt lat="42.3260303" lon="14.2983558"><ele>71.0</ele><time>2026-05-01T08:42:33.492Z</time></trkpt><trkpt lat="42.3259946" lon="14.2982305"><ele>71.0</ele><time>2026-05-01T08:42:34.493Z</time></trkpt><trkpt lat="42.3259593" lon="14.2981239"><ele>71.0</ele><time>2026-05-01T08:42:35.493Z</time></trkpt><trkpt lat="42.3258769" lon="14.2980613"><ele>72.25</ele><time>2026-05-01T08:42:36.493Z</time></trkpt><trkpt lat="42.3258082" lon="14.297987"><ele>73.5</ele><time>2026-05-01T08:42:37.493Z</time></trkpt><trkpt lat="42.3257133" lon="14.2979764"><ele>74.75</ele><time>2026-05-01T08:42:38.493Z</time></trkpt><trkpt lat="42.3255769" lon="14.2980519"><ele>76.0</ele><time>2026-05-01T08:42:39.494Z</time></trkpt><trkpt lat="42.3254561" lon="14.2980951"><ele>76.0</ele><time>2026-05-01T08:42:40.492Z</time></trkpt><trkpt lat="42.3253227" lon="14.2981614"><ele>76.0</ele><time>2026-05-01T08:42:41.492Z</time></trkpt><trkpt lat="42.3251847" lon="14.2982334"><ele>76.0</ele><time>2026-05-01T08:42:42.492Z</time></trkpt><trkpt lat="42.3250491" lon="14.298306"><ele>76.0</ele><time>2026-05-01T08:42:43.492Z</time></trkpt><trkpt lat="42.3249323" lon="14.2983695"><ele>76.0</ele><time>2026-05-01T08:42:44.492Z</time></trkpt><trkpt lat="42.3248327" lon="14.2984002"><ele>76.0</ele><time>2026-05-01T08:42:45.493Z</time></trkpt><trkpt lat="42.3247416" lon="14.2983942"><ele>76.0</ele><time>2026-05-01T08:42:46.493Z</time></trkpt><trkpt lat="42.3246375" lon="14.2983597"><ele>76.0</ele><time>2026-05-01T08:42:47.493Z</time></trkpt><trkpt lat="42.3245267" lon="14.2982904"><ele>76.0</ele><time>2026-05-01T08:42:48.493Z</time></trkpt><trkpt lat="42.3243973" lon="14.2982066"><ele>77.33333333333333</ele><time>2026-05-01T08:42:49.493Z</time></trkpt><trkpt lat="42.3242625" lon="14.2981155"><ele>78.66666666666667</ele><time>2026-05-01T08:42:50.492Z</time></trkpt><trkpt lat="42.3241289" lon="14.2979982"><ele>80.0</ele><time>2026-05-01T08:42:51.493Z</time></trkpt><trkpt lat="42.3239979" lon="14.2978612"><ele>82.66666666666667</ele><time>2026-05-01T08:42:52.492Z</time></trkpt><trkpt lat="42.3238629" lon="14.2977328"><ele>85.33333333333333</ele><time>2026-05-01T08:42:53.494Z</time></trkpt><trkpt lat="42.3237306" lon="14.2976223"><ele>88.0</ele><time>2026-05-01T08:42:54.494Z</time></trkpt><trkpt lat="42.3235817" lon="14.2975218"><ele>88.0</ele><time>2026-05-01T08:42:55.493Z</time></trkpt><trkpt lat="42.3234196" lon="14.297426"><ele>88.0</ele><time>2026-05-01T08:42:56.492Z</time></trkpt><trkpt lat="42.3232593" lon="14.2973356"><ele>88.0</ele><time>2026-05-01T08:42:57.492Z</time></trkpt><trkpt lat="42.3230836" lon="14.2972408"><ele>93.0</ele><time>2026-05-01T08:42:58.493Z</time></trkpt><trkpt lat="42.322915" lon="14.297141"><ele>98.0</ele><time>2026-05-01T08:42:59.492Z</time></trkpt><trkpt lat="42.3227304" lon="14.2970579"><ele>103.0</ele><time>2026-05-01T08:43:00.492Z</time></trkpt><trkpt lat="42.3225407" lon="14.296981"><ele>103.0</ele><time>2026-05-01T08:43:01.493Z</time></trkpt><trkpt lat="42.3223463" lon="14.2969098"><ele>103.0</ele><time>2026-05-01T08:43:02.494Z</time></trkpt><trkpt lat="42.322167" lon="14.2968442"><ele>103.0</ele><time>2026-05-01T08:43:03.492Z</time></trkpt><trkpt lat="42.3219953" lon="14.2967841"><ele>102.0</ele><time>2026-05-01T08:43:04.493Z</time></trkpt><trkpt lat="42.321839" lon="14.2967177"><ele>101.0</ele><time>2026-05-01T08:43:05.493Z</time></trkpt><trkpt lat="42.3216927" lon="14.2966432"><ele>100.0</ele><time>2026-05-01T08:43:06.493Z</time></trkpt><trkpt lat="42.3215549" lon="14.2965676"><ele>100.0</ele><time>2026-05-01T08:43:07.494Z</time></trkpt><trkpt lat="42.3214302" lon="14.2964683"><ele>100.0</ele><time>2026-05-01T08:43:08.492Z</time></trkpt><trkpt lat="42.3213201" lon="14.2963472"><ele>100.0</ele><time>2026-05-01T08:43:09.494Z</time></trkpt><trkpt lat="42.3212154" lon="14.2962113"><ele>100.0</ele><time>2026-05-01T08:43:10.493Z</time></trkpt><trkpt lat="42.3211088" lon="14.2960709"><ele>100.5</ele><time>2026-05-01T08:43:11.494Z</time></trkpt><trkpt lat="42.3210011" lon="14.2959633"><ele>101.0</ele><time>2026-05-01T08:43:12.494Z</time></trkpt><trkpt lat="42.3208848" lon="14.2958786"><ele>101.5</ele><time>2026-05-01T08:43:13.492Z</time></trkpt><trkpt lat="42.3207622" lon="14.2957933"><ele>102.0</ele><time>2026-05-01T08:43:14.492Z</time></trkpt><trkpt lat="42.3206268" lon="14.2957204"><ele>100.33333333333334</ele><time>2026-05-01T08:43:15.494Z</time></trkpt><trkpt lat="42.3204791" lon="14.295639"><ele>98.66666666666667</ele><time>2026-05-01T08:43:16.493Z</time></trkpt><trkpt lat="42.3203229" lon="14.2955586"><ele>97.0</ele><time>2026-05-01T08:43:17.494Z</time></trkpt><trkpt lat="42.3201735" lon="14.2954826"><ele>100.25</ele><time>2026-05-01T08:43:18.493Z</time></trkpt><trkpt lat="42.3200407" lon="14.2954185"><ele>103.5</ele><time>2026-05-01T08:43:19.493Z</time></trkpt><trkpt lat="42.3199264" lon="14.295353"><ele>106.75</ele><time>2026-05-01T08:43:20.493Z</time></trkpt><trkpt lat="42.3198483" lon="14.2952938"><ele>110.0</ele><time>2026-05-01T08:43:21.493Z</time></trkpt><trkpt lat="42.319807" lon="14.2951602"><ele>110.0</ele><time>2026-05-01T08:43:23.493Z</time></trkpt><trkpt lat="42.3198234" lon="14.2950143"><ele>110.0</ele><time>2026-05-01T08:43:25.493Z</time></trkpt><trkpt lat="42.3198297" lon="14.2949261"><ele>110.0</ele><time>2026-05-01T08:43:26.493Z</time></trkpt><trkpt lat="42.3198023" lon="14.294778"><ele>110.0</ele><time>2026-05-01T08:43:28.494Z</time></trkpt><trkpt lat="42.3197256" lon="14.2947144"><ele>110.0</ele><time>2026-05-01T08:43:30.493Z</time></trkpt><trkpt lat="42.3196342" lon="14.2947733"><ele>110.0</ele><time>2026-05-01T08:43:32.494Z</time></trkpt><trkpt lat="42.3195517" lon="14.2948565"><ele>110.0</ele><time>2026-05-01T08:43:34.493Z</time></trkpt><trkpt lat="42.3194633" lon="14.294883"><ele>110.0</ele><time>2026-05-01T08:43:36.492Z</time></trkpt><trkpt lat="42.3193388" lon="14.2947831"><ele>110.0</ele><time>2026-05-01T08:43:38.492Z</time></trkpt><trkpt lat="42.3192707" lon="14.2946819"><ele>110.0</ele><time>2026-05-01T08:43:39.493Z</time></trkpt><trkpt lat="42.3192052" lon="14.2945712"><ele>110.0</ele><time>2026-05-01T08:43:40.493Z</time></trkpt><trkpt lat="42.3191366" lon="14.2944803"><ele>110.0</ele><time>2026-05-01T08:43:41.493Z</time></trkpt><trkpt lat="42.3190519" lon="14.2943964"><ele>110.0</ele><time>2026-05-01T08:43:42.493Z</time></trkpt><trkpt lat="42.3189718" lon="14.2943009"><ele>110.0</ele><time>2026-05-01T08:43:43.493Z</time></trkpt><trkpt lat="42.3189151" lon="14.2942087"><ele>110.0</ele><time>2026-05-01T08:43:44.494Z</time></trkpt><trkpt lat="42.3188517" lon="14.2941001"><ele>109.5</ele><time>2026-05-01T08:43:45.492Z</time></trkpt><trkpt lat="42.3187876" lon="14.2939831"><ele>109.0</ele><time>2026-05-01T08:43:46.492Z</time></trkpt><trkpt lat="42.3187343" lon="14.2938413"><ele>108.5</ele><time>2026-05-01T08:43:47.493Z</time></trkpt><trkpt lat="42.3186713" lon="14.2937077"><ele>108.0</ele><time>2026-05-01T08:43:48.492Z</time></trkpt><trkpt lat="42.3186169" lon="14.2935583"><ele>108.0</ele><time>2026-05-01T08:43:49.492Z</time></trkpt><trkpt lat="42.3185678" lon="14.2934256"><ele>108.0</ele><time>2026-05-01T08:43:50.493Z</time></trkpt><trkpt lat="42.318506" lon="14.2933566"><ele>108.0</ele><time>2026-05-01T08:43:51.493Z</time></trkpt><trkpt lat="42.3184504" lon="14.2932763"><ele>108.0</ele><time>2026-05-01T08:43:52.493Z</time></trkpt><trkpt lat="42.3183728" lon="14.2932262"><ele>108.0</ele><time>2026-05-01T08:43:53.493Z</time></trkpt><trkpt lat="42.3183115" lon="14.2931724"><ele>108.0</ele><time>2026-05-01T08:43:54.492Z</time></trkpt><trkpt lat="42.3182495" lon="14.2931365"><ele>108.33333333333333</ele><time>2026-05-01T08:43:55.492Z</time></trkpt><trkpt lat="42.3181525" lon="14.2930696"><ele>108.66666666666666</ele><time>2026-05-01T08:43:57.493Z</time></trkpt><trkpt lat="42.3180941" lon="14.293033"><ele>109.0</ele><time>2026-05-01T08:43:59.493Z</time></trkpt><trkpt lat="42.3180178" lon="14.2929983"><ele>109.33333333333333</ele><time>2026-05-01T08:45:22.492Z</time></trkpt><trkpt lat="42.317935" lon="14.292955"><ele>109.66666666666666</ele><time>2026-05-01T08:45:23.492Z</time></trkpt><trkpt lat="42.3178383" lon="14.2929012"><ele>110.0</ele><time>2026-05-01T08:45:24.491Z</time></trkpt><trkpt lat="42.3177444" lon="14.2928472"><ele>110.0</ele><time>2026-05-01T08:45:25.492Z</time></trkpt><trkpt lat="42.3176459" lon="14.2927913"><ele>110.0</ele><time>2026-05-01T08:45:26.492Z</time></trkpt><trkpt lat="42.31755" lon="14.292739"><ele>110.0</ele><time>2026-05-01T08:45:27.492Z</time></trkpt><trkpt lat="42.3174598" lon="14.29268"><ele>110.0</ele><time>2026-05-01T08:45:28.491Z</time></trkpt><trkpt lat="42.3173728" lon="14.2926321"><ele>110.0</ele><time>2026-05-01T08:45:29.492Z</time></trkpt><trkpt lat="42.3172749" lon="14.2926123"><ele>107.5</ele><time>2026-05-01T08:45:30.493Z</time></trkpt><trkpt lat="42.3171869" lon="14.2926209"><ele>105.0</ele><time>2026-05-01T08:45:31.493Z</time></trkpt><trkpt lat="42.3170713" lon="14.2926565"><ele>102.5</ele><time>2026-05-01T08:45:32.492Z</time></trkpt><trkpt lat="42.3169299" lon="14.2926587"><ele>100.0</ele><time>2026-05-01T08:45:33.492Z</time></trkpt><trkpt lat="42.3167889" lon="14.2926511"><ele>100.0</ele><time>2026-05-01T08:45:34.493Z</time></trkpt><trkpt lat="42.3166391" lon="14.2926342"><ele>100.0</ele><time>2026-05-01T08:45:35.493Z</time></trkpt><trkpt lat="42.3164993" lon="14.2925989"><ele>100.0</ele><time>2026-05-01T08:45:36.491Z</time></trkpt><trkpt lat="42.3163657" lon="14.2925357"><ele>100.0</ele><time>2026-05-01T08:45:37.492Z</time></trkpt><trkpt lat="42.3162355" lon="14.2924418"><ele>100.5</ele><time>2026-05-01T08:45:38.491Z</time></trkpt><trkpt lat="42.3161001" lon="14.2923255"><ele>101.0</ele><time>2026-05-01T08:45:39.492Z</time></trkpt><trkpt lat="42.3159935" lon="14.2922418"><ele>101.5</ele><time>2026-05-01T08:45:40.491Z</time></trkpt><trkpt lat="42.3158693" lon="14.2921719"><ele>102.0</ele><time>2026-05-01T08:45:41.491Z</time></trkpt><trkpt lat="42.3157413" lon="14.2921097"><ele>102.0</ele><time>2026-05-01T08:45:42.492Z</time></trkpt><trkpt lat="42.3155992" lon="14.2920512"><ele>102.0</ele><time>2026-05-01T08:45:43.492Z</time></trkpt><trkpt lat="42.3154524" lon="14.2920067"><ele>102.0</ele><time>2026-05-01T08:45:44.491Z</time></trkpt><trkpt lat="42.3152987" lon="14.2919692"><ele>97.33333333333333</ele><time>2026-05-01T08:45:45.492Z</time></trkpt><trkpt lat="42.3151392" lon="14.2919244"><ele>92.66666666666666</ele><time>2026-05-01T08:45:46.493Z</time></trkpt><trkpt lat="42.3149819" lon="14.291881"><ele>88.0</ele><time>2026-05-01T08:45:47.492Z</time></trkpt><trkpt lat="42.3148219" lon="14.2918416"><ele>87.25</ele><time>2026-05-01T08:45:48.492Z</time></trkpt><trkpt lat="42.3146654" lon="14.2918093"><ele>86.5</ele><time>2026-05-01T08:45:49.492Z</time></trkpt><trkpt lat="42.3145294" lon="14.2917806"><ele>85.75</ele><time>2026-05-01T08:45:50.493Z</time></trkpt><trkpt lat="42.3143822" lon="14.2917546"><ele>85.0</ele><time>2026-05-01T08:45:51.492Z</time></trkpt><trkpt lat="42.3142244" lon="14.2917333"><ele>85.0</ele><time>2026-05-01T08:45:52.491Z</time></trkpt><trkpt lat="42.3140804" lon="14.2917214"><ele>85.0</ele><time>2026-05-01T08:45:53.491Z</time></trkpt><trkpt lat="42.3139475" lon="14.291713"><ele>85.0</ele><time>2026-05-01T08:45:54.492Z</time></trkpt><trkpt lat="42.313853" lon="14.2917063"><ele>85.0</ele><time>2026-05-01T08:45:55.492Z</time></trkpt><trkpt lat="42.3137774" lon="14.2916971"><ele>85.0</ele><time>2026-05-01T08:45:56.492Z</time></trkpt><trkpt lat="42.3136932" lon="14.2916701"><ele>85.33333333333333</ele><time>2026-05-01T08:45:58.491Z</time></trkpt><trkpt lat="42.3137109" lon="14.2917621"><ele>85.66666666666666</ele><time>2026-05-01T08:46:19.492Z</time></trkpt><trkpt lat="42.3136473" lon="14.2917946"><ele>86.0</ele><time>2026-05-01T08:46:23.491Z</time></trkpt><trkpt lat="42.3135718" lon="14.2918116"><ele>86.33333333333333</ele><time>2026-05-01T08:46:38.492Z</time></trkpt><trkpt lat="42.3134311" lon="14.2918209"><ele>86.66666666666667</ele><time>2026-05-01T08:46:40.492Z</time></trkpt><trkpt lat="42.3133458" lon="14.2918227"><ele>87.0</ele><time>2026-05-01T08:46:41.493Z</time></trkpt><trkpt lat="42.3132603" lon="14.2918284"><ele>87.0</ele><time>2026-05-01T08:46:42.491Z</time></trkpt><trkpt lat="42.3131701" lon="14.2918573"><ele>87.0</ele><time>2026-05-01T08:46:43.491Z</time></trkpt><trkpt lat="42.3130957" lon="14.291854"><ele>87.0</ele><time>2026-05-01T08:46:44.492Z</time></trkpt><trkpt lat="42.3130278" lon="14.2918468"><ele>87.0</ele><time>2026-05-01T08:46:45.492Z</time></trkpt><trkpt lat="42.3129726" lon="14.2917905"><ele>87.0</ele><time>2026-05-01T08:46:46.492Z</time></trkpt><trkpt lat="42.3129149" lon="14.2917465"><ele>87.0</ele><time>2026-05-01T08:46:47.492Z</time></trkpt><trkpt lat="42.3128609" lon="14.2916954"><ele>87.0</ele><time>2026-05-01T08:46:48.492Z</time></trkpt><trkpt lat="42.3128306" lon="14.2916099"><ele>87.19999999999999</ele><time>2026-05-01T08:46:49.491Z</time></trkpt><trkpt lat="42.3128257" lon="14.291479"><ele>87.4</ele><time>2026-05-01T08:46:51.492Z</time></trkpt><trkpt lat="42.3128126" lon="14.2913488"><ele>87.6</ele><time>2026-05-01T08:46:53.49Z</time></trkpt><trkpt lat="42.3127623" lon="14.2912016"><ele>87.80000000000001</ele><time>2026-05-01T08:46:55.491Z</time></trkpt><trkpt lat="42.3126769" lon="14.2911251"><ele>88.0</ele><time>2026-05-01T08:46:57.491Z</time></trkpt><trkpt lat="42.3122717" lon="14.2911049"><ele>89.16666666666666</ele><time>2026-05-01T08:47:03.491Z</time></trkpt><trkpt lat="42.3121788" lon="14.2911444"><ele>90.33333333333333</ele><time>2026-05-01T08:47:04.491Z</time></trkpt><trkpt lat="42.312093" lon="14.2911865"><ele>91.5</ele><time>2026-05-01T08:47:05.491Z</time></trkpt><trkpt lat="42.3120213" lon="14.2912284"><ele>92.66666666666667</ele><time>2026-05-01T08:47:06.491Z</time></trkpt><trkpt lat="42.3119527" lon="14.2912344"><ele>93.83333333333334</ele><time>2026-05-01T08:47:07.491Z</time></trkpt><trkpt lat="42.3118818" lon="14.2912492"><ele>95.0</ele><time>2026-05-01T08:47:08.49Z</time></trkpt><trkpt lat="42.3118104" lon="14.2912609"><ele>95.0</ele><time>2026-05-01T08:47:09.491Z</time></trkpt><trkpt lat="42.311718" lon="14.2912636"><ele>95.0</ele><time>2026-05-01T08:47:11.491Z</time></trkpt><trkpt lat="42.3116122" lon="14.2913113"><ele>95.0</ele><time>2026-05-01T08:47:13.491Z</time></trkpt><trkpt lat="42.31154" lon="14.2913503"><ele>95.0</ele><time>2026-05-01T08:47:14.492Z</time></trkpt><trkpt lat="42.3114621" lon="14.2914042"><ele>95.0</ele><time>2026-05-01T08:47:15.491Z</time></trkpt><trkpt lat="42.3113368" lon="14.2913646"><ele>95.6</ele><time>2026-05-01T08:47:16.491Z</time></trkpt><trkpt lat="42.3112551" lon="14.2913977"><ele>96.2</ele><time>2026-05-01T08:47:17.492Z</time></trkpt><trkpt lat="42.3111429" lon="14.2913646"><ele>96.80000000000001</ele><time>2026-05-01T08:47:18.492Z</time></trkpt><trkpt lat="42.3110752" lon="14.2912456"><ele>97.4</ele><time>2026-05-01T08:47:19.49Z</time></trkpt><trkpt lat="42.3110066" lon="14.2910963"><ele>98.0</ele><time>2026-05-01T08:47:20.491Z</time></trkpt><trkpt lat="42.3109212" lon="14.291016"><ele>98.0</ele><time>2026-05-01T08:47:21.491Z</time></trkpt><trkpt lat="42.3108661" lon="14.2909183"><ele>98.0</ele><time>2026-05-01T08:47:22.492Z</time></trkpt><trkpt lat="42.3107502" lon="14.2908494"><ele>98.0</ele><time>2026-05-01T08:47:23.491Z</time></trkpt><trkpt lat="42.3106401" lon="14.2907843"><ele>98.0</ele><time>2026-05-01T08:47:24.491Z</time></trkpt><trkpt lat="42.3105248" lon="14.2907348"><ele>100.5</ele><time>2026-05-01T08:47:25.49Z</time></trkpt><trkpt lat="42.3104049" lon="14.2906934"><ele>103.0</ele><time>2026-05-01T08:47:26.49Z</time></trkpt><trkpt lat="42.3102794" lon="14.2906901"><ele>105.5</ele><time>2026-05-01T08:47:27.491Z</time></trkpt><trkpt lat="42.310135" lon="14.2906838"><ele>108.0</ele><time>2026-05-01T08:47:28.492Z</time></trkpt><trkpt lat="42.3099975" lon="14.2906819"><ele>108.0</ele><time>2026-05-01T08:47:29.491Z</time></trkpt><trkpt lat="42.3098691" lon="14.2906517"><ele>108.00000000000001</ele><time>2026-05-01T08:47:30.49Z</time></trkpt><trkpt lat="42.3097507" lon="14.2906106"><ele>108.00000000000001</ele><time>2026-05-01T08:47:31.491Z</time></trkpt><trkpt lat="42.3096829" lon="14.2905827"><ele>108.0</ele><time>2026-05-01T08:47:32.49Z</time></trkpt><trkpt lat="42.309587" lon="14.2906195"><ele>108.0</ele><time>2026-05-01T08:47:34.491Z</time></trkpt><trkpt lat="42.3095222" lon="14.2906976"><ele>109.4</ele><time>2026-05-01T08:47:35.492Z</time></trkpt><trkpt lat="42.3094628" lon="14.2907786"><ele>110.80000000000001</ele><time>2026-05-01T08:47:36.49Z</time></trkpt><trkpt lat="42.3094107" lon="14.2908466"><ele>112.2</ele><time>2026-05-01T08:47:37.491Z</time></trkpt><trkpt lat="42.3093325" lon="14.2909575"><ele>113.6</ele><time>2026-05-01T08:47:39.49Z</time></trkpt><trkpt lat="42.3092221" lon="14.2910497"><ele>115.0</ele><time>2026-05-01T08:47:41.491Z</time></trkpt><trkpt lat="42.3091498" lon="14.291113"><ele>115.0</ele><time>2026-05-01T08:47:42.491Z</time></trkpt><trkpt lat="42.3090663" lon="14.2911737"><ele>115.0</ele><time>2026-05-01T08:47:43.49Z</time></trkpt><trkpt lat="42.3089649" lon="14.2912359"><ele>115.0</ele><time>2026-05-01T08:47:44.49Z</time></trkpt><trkpt lat="42.3088524" lon="14.2912946"><ele>115.0</ele><time>2026-05-01T08:47:45.49Z</time></trkpt><trkpt lat="42.3087481" lon="14.2913446"><ele>115.0</ele><time>2026-05-01T08:47:46.49Z</time></trkpt><trkpt lat="42.3086692" lon="14.291393"><ele>114.6</ele><time>2026-05-01T08:47:47.491Z</time></trkpt><trkpt lat="42.3085906" lon="14.2914558"><ele>114.2</ele><time>2026-05-01T08:47:48.49Z</time></trkpt><trkpt lat="42.3085047" lon="14.2915372"><ele>113.80000000000001</ele><time>2026-05-01T08:47:49.491Z</time></trkpt><trkpt lat="42.3084132" lon="14.2916346"><ele>113.4</ele><time>2026-05-01T08:47:50.491Z</time></trkpt><trkpt lat="42.3083234" lon="14.291748"><ele>113.0</ele><time>2026-05-01T08:47:51.491Z</time></trkpt><trkpt lat="42.3082334" lon="14.2918534"><ele>113.0</ele><time>2026-05-01T08:47:52.491Z</time></trkpt><trkpt lat="42.3081373" lon="14.2919377"><ele>113.0</ele><time>2026-05-01T08:47:53.491Z</time></trkpt><trkpt lat="42.3080289" lon="14.2920011"><ele>113.0</ele><time>2026-05-01T08:47:54.49Z</time></trkpt><trkpt lat="42.3079027" lon="14.2920559"><ele>113.0</ele><time>2026-05-01T08:47:55.491Z</time></trkpt><trkpt lat="42.3077614" lon="14.292108"><ele>112.75</ele><time>2026-05-01T08:47:56.491Z</time></trkpt><trkpt lat="42.3076186" lon="14.2921693"><ele>112.5</ele><time>2026-05-01T08:47:57.49Z</time></trkpt><trkpt lat="42.3074825" lon="14.2922314"><ele>112.25</ele><time>2026-05-01T08:47:58.491Z</time></trkpt><trkpt lat="42.3073389" lon="14.2922852"><ele>112.0</ele><time>2026-05-01T08:47:59.491Z</time></trkpt><trkpt lat="42.3071999" lon="14.2923197"><ele>112.75</ele><time>2026-05-01T08:48:00.491Z</time></trkpt><trkpt lat="42.3070569" lon="14.2923444"><ele>113.5</ele><time>2026-05-01T08:48:01.49Z</time></trkpt><trkpt lat="42.3069203" lon="14.292376"><ele>114.25</ele><time>2026-05-01T08:48:02.491Z</time></trkpt><trkpt lat="42.3067758" lon="14.2924328"><ele>115.0</ele><time>2026-05-01T08:48:03.492Z</time></trkpt><trkpt lat="42.3066349" lon="14.2924926"><ele>115.0</ele><time>2026-05-01T08:48:04.49Z</time></trkpt><trkpt lat="42.3064943" lon="14.2925423"><ele>115.0</ele><time>2026-05-01T08:48:05.492Z</time></trkpt><trkpt lat="42.3063622" lon="14.2925795"><ele>115.0</ele><time>2026-05-01T08:48:06.491Z</time></trkpt><trkpt lat="42.3062437" lon="14.2925999"><ele>115.0</ele><time>2026-05-01T08:48:07.491Z</time></trkpt><trkpt lat="42.3061168" lon="14.2926002"><ele>116.0</ele><time>2026-05-01T08:48:08.49Z</time></trkpt><trkpt lat="42.3059844" lon="14.2925903"><ele>117.0</ele><time>2026-05-01T08:48:09.491Z</time></trkpt><trkpt lat="42.3058449" lon="14.2925771"><ele>118.0</ele><time>2026-05-01T08:48:10.492Z</time></trkpt><trkpt lat="42.3057003" lon="14.2925632"><ele>119.0</ele><time>2026-05-01T08:48:11.49Z</time></trkpt><trkpt lat="42.3055546" lon="14.2925452"><ele>119.75</ele><time>2026-05-01T08:48:12.491Z</time></trkpt><trkpt lat="42.3054081" lon="14.2925271"><ele>120.5</ele><time>2026-05-01T08:48:13.491Z</time></trkpt><trkpt lat="42.305274" lon="14.2925026"><ele>121.25</ele><time>2026-05-01T08:48:14.491Z</time></trkpt><trkpt lat="42.3051501" lon="14.2924988"><ele>122.0</ele><time>2026-05-01T08:48:15.49Z</time></trkpt><trkpt lat="42.3050433" lon="14.2925039"><ele>122.0</ele><time>2026-05-01T08:48:16.491Z</time></trkpt><trkpt lat="42.3049643" lon="14.2925232"><ele>121.99999999999999</ele><time>2026-05-01T08:48:17.492Z</time></trkpt><trkpt lat="42.3049042" lon="14.2925515"><ele>121.99999999999999</ele><time>2026-05-01T08:48:18.491Z</time></trkpt><trkpt lat="42.3048415" lon="14.2926112"><ele>122.0</ele><time>2026-05-01T08:48:19.49Z</time></trkpt><trkpt lat="42.3047493" lon="14.2927034"><ele>122.0</ele><time>2026-05-01T08:48:21.491Z</time></trkpt><trkpt lat="42.3046256" lon="14.2928059"><ele>121.75</ele><time>2026-05-01T08:48:23.491Z</time></trkpt><trkpt lat="42.3045385" lon="14.2928665"><ele>121.5</ele><time>2026-05-01T08:48:24.491Z</time></trkpt><trkpt lat="42.3044374" lon="14.2929273"><ele>121.25</ele><time>2026-05-01T08:48:25.491Z</time></trkpt><trkpt lat="42.3043249" lon="14.2929779"><ele>121.0</ele><time>2026-05-01T08:48:26.49Z</time></trkpt><trkpt lat="42.3041912" lon="14.2930057"><ele>121.0</ele><time>2026-05-01T08:48:27.492Z</time></trkpt><trkpt lat="42.304074" lon="14.2930297"><ele>121.0</ele><time>2026-05-01T08:48:28.492Z</time></trkpt><trkpt lat="42.3039398" lon="14.2930316"><ele>121.0</ele><time>2026-05-01T08:48:29.491Z</time></trkpt><trkpt lat="42.3038016" lon="14.2930404"><ele>121.0</ele><time>2026-05-01T08:48:30.491Z</time></trkpt><trkpt lat="42.303673" lon="14.2930413"><ele>119.75</ele><time>2026-05-01T08:48:31.491Z</time></trkpt><trkpt lat="42.3035347" lon="14.2930283"><ele>118.5</ele><time>2026-05-01T08:48:32.491Z</time></trkpt><trkpt lat="42.3033963" lon="14.2930239"><ele>117.25</ele><time>2026-05-01T08:48:33.491Z</time></trkpt><trkpt lat="42.303269" lon="14.2930143"><ele>116.0</ele><time>2026-05-01T08:48:34.492Z</time></trkpt><trkpt lat="42.3031343" lon="14.2929955"><ele>116.0</ele><time>2026-05-01T08:48:35.491Z</time></trkpt><trkpt lat="42.3029971" lon="14.2929744"><ele>116.0</ele><time>2026-05-01T08:48:36.491Z</time></trkpt><trkpt lat="42.3028636" lon="14.2929487"><ele>116.0</ele><time>2026-05-01T08:48:37.49Z</time></trkpt><trkpt lat="42.3027245" lon="14.2929321"><ele>116.0</ele><time>2026-05-01T08:48:38.491Z</time></trkpt><trkpt lat="42.3025831" lon="14.2929133"><ele>116.0</ele><time>2026-05-01T08:48:39.491Z</time></trkpt><trkpt lat="42.3024372" lon="14.292888"><ele>116.0</ele><time>2026-05-01T08:48:40.49Z</time></trkpt><trkpt lat="42.3022963" lon="14.2928655"><ele>116.0</ele><time>2026-05-01T08:48:41.49Z</time></trkpt><trkpt lat="42.3021512" lon="14.2928395"><ele>116.0</ele><time>2026-05-01T08:48:42.491Z</time></trkpt><trkpt lat="42.3020059" lon="14.2928171"><ele>116.25</ele><time>2026-05-01T08:48:43.491Z</time></trkpt><trkpt lat="42.3018578" lon="14.2927966"><ele>116.5</ele><time>2026-05-01T08:48:44.491Z</time></trkpt><trkpt lat="42.3017099" lon="14.2927824"><ele>116.75</ele><time>2026-05-01T08:48:45.49Z</time></trkpt><trkpt lat="42.3015642" lon="14.2927572"><ele>117.0</ele><time>2026-05-01T08:48:46.491Z</time></trkpt><trkpt lat="42.3014177" lon="14.2927213"><ele>117.75</ele><time>2026-05-01T08:48:47.491Z</time></trkpt><trkpt lat="42.3012703" lon="14.2926778"><ele>118.5</ele><time>2026-05-01T08:48:48.492Z</time></trkpt><trkpt lat="42.3011308" lon="14.2926328"><ele>119.25</ele><time>2026-05-01T08:48:49.491Z</time></trkpt><trkpt lat="42.3010119" lon="14.2925906"><ele>120.0</ele><time>2026-05-01T08:48:50.491Z</time></trkpt><trkpt lat="42.3008931" lon="14.2925661"><ele>120.0</ele><time>2026-05-01T08:48:51.49Z</time></trkpt><trkpt lat="42.3007628" lon="14.2925595"><ele>120.0</ele><time>2026-05-01T08:48:52.491Z</time></trkpt><trkpt lat="42.3006241" lon="14.2925636"><ele>120.0</ele><time>2026-05-01T08:48:53.491Z</time></trkpt><trkpt lat="42.3005031" lon="14.2925683"><ele>120.0</ele><time>2026-05-01T08:48:54.49Z</time></trkpt><trkpt lat="42.3004072" lon="14.2925498"><ele>120.25</ele><time>2026-05-01T08:48:55.491Z</time></trkpt><trkpt lat="42.3003138" lon="14.2925129"><ele>120.5</ele><time>2026-05-01T08:48:56.491Z</time></trkpt><trkpt lat="42.3002135" lon="14.2924477"><ele>120.75</ele><time>2026-05-01T08:48:57.491Z</time></trkpt><trkpt lat="42.3001113" lon="14.2923582"><ele>121.0</ele><time>2026-05-01T08:48:58.49Z</time></trkpt><trkpt lat="42.3000091" lon="14.2922691"><ele>122.83333333333334</ele><time>2026-05-01T08:48:59.49Z</time></trkpt><trkpt lat="42.2999295" lon="14.2921922"><ele>124.66666666666667</ele><time>2026-05-01T08:49:00.49Z</time></trkpt><trkpt lat="42.2998729" lon="14.292142"><ele>126.5</ele><time>2026-05-01T08:49:01.491Z</time></trkpt><trkpt lat="42.2997711" lon="14.2921147"><ele>128.33333333333334</ele><time>2026-05-01T08:49:03.491Z</time></trkpt><trkpt lat="42.2997075" lon="14.2921065"><ele>130.16666666666666</ele><time>2026-05-01T08:49:05.491Z</time></trkpt><trkpt lat="42.2996416" lon="14.2921218"><ele>132.0</ele><time>2026-05-01T08:49:12.491Z</time></trkpt><trkpt lat="42.2995598" lon="14.2921501"><ele>132.2</ele><time>2026-05-01T08:49:14.491Z</time></trkpt><trkpt lat="42.2994635" lon="14.2921598"><ele>132.39999999999998</ele><time>2026-05-01T08:49:31.491Z</time></trkpt><trkpt lat="42.2993891" lon="14.2921597"><ele>132.60000000000002</ele><time>2026-05-01T08:49:32.49Z</time></trkpt><trkpt lat="42.299301" lon="14.2921428"><ele>132.8</ele><time>2026-05-01T08:49:33.491Z</time></trkpt><trkpt lat="42.2991932" lon="14.2921313"><ele>133.0</ele><time>2026-05-01T08:49:34.49Z</time></trkpt><trkpt lat="42.2990714" lon="14.2921253"><ele>133.0</ele><time>2026-05-01T08:49:35.49Z</time></trkpt><trkpt lat="42.2989519" lon="14.2921228"><ele>133.0</ele><time>2026-05-01T08:49:36.491Z</time></trkpt><trkpt lat="42.2988334" lon="14.2921233"><ele>133.0</ele><time>2026-05-01T08:49:37.49Z</time></trkpt><trkpt lat="42.2987062" lon="14.2921299"><ele>133.0</ele><time>2026-05-01T08:49:38.49Z</time></trkpt><trkpt lat="42.2985687" lon="14.2921379"><ele>133.25</ele><time>2026-05-01T08:49:39.49Z</time></trkpt><trkpt lat="42.2984279" lon="14.2921454"><ele>133.5</ele><time>2026-05-01T08:49:40.49Z</time></trkpt><trkpt lat="42.2982872" lon="14.2921549"><ele>133.75</ele><time>2026-05-01T08:49:41.49Z</time></trkpt><trkpt lat="42.2981692" lon="14.2921773"><ele>134.0</ele><time>2026-05-01T08:49:42.491Z</time></trkpt><trkpt lat="42.2980782" lon="14.292209"><ele>131.2</ele><time>2026-05-01T08:49:43.49Z</time></trkpt><trkpt lat="42.2980112" lon="14.2922759"><ele>128.4</ele><time>2026-05-01T08:49:44.49Z</time></trkpt><trkpt lat="42.2979698" lon="14.2923764"><ele>125.6</ele><time>2026-05-01T08:49:45.49Z</time></trkpt><trkpt lat="42.2979518" lon="14.2925156"><ele>122.8</ele><time>2026-05-01T08:49:46.489Z</time></trkpt><trkpt lat="42.2979447" lon="14.2926643"><ele>120.0</ele><time>2026-05-01T08:49:47.49Z</time></trkpt><trkpt lat="42.2979443" lon="14.2927904"><ele>120.0</ele><time>2026-05-01T08:49:48.49Z</time></trkpt><trkpt lat="42.2979406" lon="14.2928945"><ele>120.0</ele><time>2026-05-01T08:49:49.491Z</time></trkpt><trkpt lat="42.2979178" lon="14.2930115"><ele>120.0</ele><time>2026-05-01T08:49:51.49Z</time></trkpt><trkpt lat="42.2978259" lon="14.2929995"><ele>120.0</ele><time>2026-05-01T08:49:58.49Z</time></trkpt><trkpt lat="42.2977156" lon="14.292889"><ele>120.0</ele><time>2026-05-01T08:50:00.489Z</time></trkpt><trkpt lat="42.2976263" lon="14.2927873"><ele>120.0</ele><time>2026-05-01T08:50:01.489Z</time></trkpt><trkpt lat="42.2975457" lon="14.2927016"><ele>120.0</ele><time>2026-05-01T08:50:02.489Z</time></trkpt><trkpt lat="42.2974486" lon="14.2926062"><ele>120.0</ele><time>2026-05-01T08:50:03.489Z</time></trkpt><trkpt lat="42.2973485" lon="14.2925048"><ele>120.0</ele><time>2026-05-01T08:50:04.49Z</time></trkpt><trkpt lat="42.2972465" lon="14.2924157"><ele>119.4</ele><time>2026-05-01T08:50:05.491Z</time></trkpt><trkpt lat="42.2971499" lon="14.2923271"><ele>118.8</ele><time>2026-05-01T08:50:06.49Z</time></trkpt><trkpt lat="42.2970725" lon="14.2922401"><ele>118.19999999999999</ele><time>2026-05-01T08:50:07.489Z</time></trkpt><trkpt lat="42.2969879" lon="14.2921379"><ele>117.6</ele><time>2026-05-01T08:50:08.49Z</time></trkpt><trkpt lat="42.2968992" lon="14.2920562"><ele>117.0</ele><time>2026-05-01T08:50:09.49Z</time></trkpt><trkpt lat="42.296805" lon="14.2919751"><ele>118.75</ele><time>2026-05-01T08:50:10.49Z</time></trkpt><trkpt lat="42.2966947" lon="14.2918957"><ele>120.5</ele><time>2026-05-01T08:50:11.49Z</time></trkpt><trkpt lat="42.2965879" lon="14.2918246"><ele>122.25</ele><time>2026-05-01T08:50:12.49Z</time></trkpt><trkpt lat="42.296486" lon="14.2917492"><ele>124.0</ele><time>2026-05-01T08:50:13.49Z</time></trkpt><trkpt lat="42.2963791" lon="14.2916832"><ele>124.0</ele><time>2026-05-01T08:50:14.491Z</time></trkpt><trkpt lat="42.2963153" lon="14.2916523"><ele>124.00000000000001</ele><time>2026-05-01T08:50:15.49Z</time></trkpt><trkpt lat="42.2962672" lon="14.2915971"><ele>124.0</ele><time>2026-05-01T08:50:16.489Z</time></trkpt><trkpt lat="42.2962572" lon="14.2914863"><ele>124.0</ele><time>2026-05-01T08:50:18.49Z</time></trkpt><trkpt lat="42.2962819" lon="14.2913937"><ele>124.00000000000001</ele><time>2026-05-01T08:50:19.49Z</time></trkpt><trkpt lat="42.2963071" lon="14.2913037"><ele>124.0</ele><time>2026-05-01T08:50:20.491Z</time></trkpt><trkpt lat="42.2963373" lon="14.2912047"><ele>124.0</ele><time>2026-05-01T08:50:21.49Z</time></trkpt><trkpt lat="42.2963698" lon="14.2910936"><ele>125.80000000000001</ele><time>2026-05-01T08:50:22.49Z</time></trkpt><trkpt lat="42.296391" lon="14.2909685"><ele>127.60000000000001</ele><time>2026-05-01T08:50:23.489Z</time></trkpt><trkpt lat="42.2964305" lon="14.2908388"><ele>129.4</ele><time>2026-05-01T08:50:24.489Z</time></trkpt><trkpt lat="42.2964728" lon="14.2907056"><ele>131.20000000000002</ele><time>2026-05-01T08:50:25.49Z</time></trkpt><trkpt lat="42.2965254" lon="14.2905832"><ele>133.0</ele><time>2026-05-01T08:50:26.49Z</time></trkpt><trkpt lat="42.2965837" lon="14.2904707"><ele>138.0</ele><time>2026-05-01T08:50:27.49Z</time></trkpt><trkpt lat="42.2966467" lon="14.2903661"><ele>143.0</ele><time>2026-05-01T08:50:28.49Z</time></trkpt><trkpt lat="42.2966927" lon="14.2902655"><ele>148.0</ele><time>2026-05-01T08:50:29.489Z</time></trkpt><trkpt lat="42.2967344" lon="14.2901741"><ele>153.0</ele><time>2026-05-01T08:50:30.49Z</time></trkpt><trkpt lat="42.2967707" lon="14.2900766"><ele>158.0</ele><time>2026-05-01T08:50:31.49Z</time></trkpt><trkpt lat="42.296825" lon="14.2899629"><ele>163.0</ele><time>2026-05-01T08:50:32.489Z</time></trkpt><trkpt lat="42.2968742" lon="14.2898511"><ele>165.60000000000002</ele><time>2026-05-01T08:50:33.49Z</time></trkpt><trkpt lat="42.2969318" lon="14.2897545"><ele>168.20000000000002</ele><time>2026-05-01T08:50:34.491Z</time></trkpt><trkpt lat="42.2969964" lon="14.2896452"><ele>170.8</ele><time>2026-05-01T08:50:35.489Z</time></trkpt><trkpt lat="42.2970494" lon="14.2895366"><ele>173.4</ele><time>2026-05-01T08:50:36.49Z</time></trkpt><trkpt lat="42.2970997" lon="14.2894343"><ele>176.0</ele><time>2026-05-01T08:50:37.49Z</time></trkpt><trkpt lat="42.2971549" lon="14.2893071"><ele>176.0</ele><time>2026-05-01T08:50:38.49Z</time></trkpt><trkpt lat="42.2971951" lon="14.2891959"><ele>176.0</ele><time>2026-05-01T08:50:39.49Z</time></trkpt><trkpt lat="42.2972537" lon="14.2890877"><ele>176.0</ele><time>2026-05-01T08:50:40.491Z</time></trkpt><trkpt lat="42.2972287" lon="14.288995"><ele>176.0</ele><time>2026-05-01T08:50:44.49Z</time></trkpt><trkpt lat="42.2973595" lon="14.2890567"><ele>176.0</ele><time>2026-05-01T08:50:50.49Z</time></trkpt><trkpt lat="42.2974333" lon="14.2890841"><ele>177.60000000000002</ele><time>2026-05-01T08:50:51.491Z</time></trkpt><trkpt lat="42.2975226" lon="14.2890799"><ele>179.2</ele><time>2026-05-01T08:50:53.49Z</time></trkpt><trkpt lat="42.2974683" lon="14.2890157"><ele>180.8</ele><time>2026-05-01T08:50:56.49Z</time></trkpt><trkpt lat="42.2973825" lon="14.2889818"><ele>182.39999999999998</ele><time>2026-05-01T08:50:57.49Z</time></trkpt><trkpt lat="42.2973102" lon="14.2889451"><ele>184.0</ele><time>2026-05-01T08:50:58.49Z</time></trkpt><trkpt lat="42.2971552" lon="14.2888694"><ele>185.25</ele><time>2026-05-01T08:50:59.491Z</time></trkpt><trkpt lat="42.2970188" lon="14.288838"><ele>186.5</ele><time>2026-05-01T08:51:00.49Z</time></trkpt><trkpt lat="42.296881" lon="14.2887992"><ele>187.75</ele><time>2026-05-01T08:51:01.49Z</time></trkpt><trkpt lat="42.296746" lon="14.2887567"><ele>189.0</ele><time>2026-05-01T08:51:02.491Z</time></trkpt><trkpt lat="42.2966057" lon="14.2887188"><ele>189.0</ele><time>2026-05-01T08:51:03.489Z</time></trkpt><trkpt lat="42.296473" lon="14.2886928"><ele>189.0</ele><time>2026-05-01T08:51:04.49Z</time></trkpt><trkpt lat="42.2963447" lon="14.2886668"><ele>189.0</ele><time>2026-05-01T08:51:05.49Z</time></trkpt><trkpt lat="42.296229" lon="14.2886343"><ele>189.0</ele><time>2026-05-01T08:51:06.49Z</time></trkpt><trkpt lat="42.2961196" lon="14.2885824"><ele>184.25</ele><time>2026-05-01T08:51:07.49Z</time></trkpt><trkpt lat="42.2960135" lon="14.2885022"><ele>179.5</ele><time>2026-05-01T08:51:08.491Z</time></trkpt><trkpt lat="42.295918" lon="14.288403"><ele>174.75</ele><time>2026-05-01T08:51:09.49Z</time></trkpt><trkpt lat="42.2958334" lon="14.2882578"><ele>170.0</ele><time>2026-05-01T08:51:10.491Z</time></trkpt><trkpt lat="42.2957443" lon="14.2881216"><ele>172.75</ele><time>2026-05-01T08:51:11.489Z</time></trkpt><trkpt lat="42.2956597" lon="14.2880068"><ele>175.5</ele><time>2026-05-01T08:51:12.49Z</time></trkpt><trkpt lat="42.2955765" lon="14.2878976"><ele>178.25</ele><time>2026-05-01T08:51:13.489Z</time></trkpt><trkpt lat="42.2954694" lon="14.2878097"><ele>181.0</ele><time>2026-05-01T08:51:14.489Z</time></trkpt><trkpt lat="42.2953774" lon="14.2877319"><ele>176.75</ele><time>2026-05-01T08:51:15.489Z</time></trkpt><trkpt lat="42.2952848" lon="14.2876268"><ele>172.5</ele><time>2026-05-01T08:51:16.49Z</time></trkpt><trkpt lat="42.295175" lon="14.287476"><ele>168.25</ele><time>2026-05-01T08:51:17.489Z</time></trkpt><trkpt lat="42.2950701" lon="14.2873459"><ele>164.0</ele><time>2026-05-01T08:51:18.491Z</time></trkpt><trkpt lat="42.2949786" lon="14.2871963"><ele>164.0</ele><time>2026-05-01T08:51:19.489Z</time></trkpt><trkpt lat="42.2948975" lon="14.2870228"><ele>164.0</ele><time>2026-05-01T08:51:20.49Z</time></trkpt><trkpt lat="42.2948168" lon="14.2868163"><ele>164.0</ele><time>2026-05-01T08:51:21.49Z</time></trkpt><trkpt lat="42.2947371" lon="14.2866287"><ele>160.25</ele><time>2026-05-01T08:51:22.491Z</time></trkpt><trkpt lat="42.294654" lon="14.2864511"><ele>156.5</ele><time>2026-05-01T08:51:23.489Z</time></trkpt><trkpt lat="42.2945767" lon="14.2862951"><ele>152.75</ele><time>2026-05-01T08:51:24.49Z</time></trkpt><trkpt lat="42.2944903" lon="14.286168"><ele>149.0</ele><time>2026-05-01T08:51:25.489Z</time></trkpt><trkpt lat="42.2943972" lon="14.2860319"><ele>149.0</ele><time>2026-05-01T08:51:26.489Z</time></trkpt><trkpt lat="42.29427" lon="14.2859257"><ele>149.0</ele><time>2026-05-01T08:51:27.489Z</time></trkpt><trkpt lat="42.2941143" lon="14.2858514"><ele>149.0</ele><time>2026-05-01T08:51:28.489Z</time></trkpt><trkpt lat="42.2940041" lon="14.2857876"><ele>149.0</ele><time>2026-05-01T08:51:29.49Z</time></trkpt><trkpt lat="42.293896" lon="14.2857066"><ele>147.5</ele><time>2026-05-01T08:51:30.489Z</time></trkpt><trkpt lat="42.2937811" lon="14.2856214"><ele>146.0</ele><time>2026-05-01T08:51:31.49Z</time></trkpt><trkpt lat="42.293658" lon="14.2855195"><ele>144.5</ele><time>2026-05-01T08:51:32.491Z</time></trkpt><trkpt lat="42.2935473" lon="14.2854301"><ele>143.0</ele><time>2026-05-01T08:51:33.489Z</time></trkpt><trkpt lat="42.2934714" lon="14.2853051"><ele>143.0</ele><time>2026-05-01T08:51:34.49Z</time></trkpt><trkpt lat="42.2933809" lon="14.2851937"><ele>143.0</ele><time>2026-05-01T08:51:35.49Z</time></trkpt><trkpt lat="42.2932992" lon="14.2851178"><ele>143.0</ele><time>2026-05-01T08:51:36.491Z</time></trkpt><trkpt lat="42.2932072" lon="14.2850248"><ele>143.0</ele><time>2026-05-01T08:51:37.49Z</time></trkpt><trkpt lat="42.2930966" lon="14.2849546"><ele>141.0</ele><time>2026-05-01T08:51:38.489Z</time></trkpt><trkpt lat="42.2929834" lon="14.2848778"><ele>139.0</ele><time>2026-05-01T08:51:39.49Z</time></trkpt><trkpt lat="42.292869" lon="14.2847934"><ele>137.0</ele><time>2026-05-01T08:51:40.49Z</time></trkpt><trkpt lat="42.2927644" lon="14.2847223"><ele>135.0</ele><time>2026-05-01T08:51:41.49Z</time></trkpt><trkpt lat="42.2926669" lon="14.2846461"><ele>135.0</ele><time>2026-05-01T08:51:42.49Z</time></trkpt><trkpt lat="42.2925728" lon="14.2845569"><ele>135.0</ele><time>2026-05-01T08:51:43.49Z</time></trkpt><trkpt lat="42.2924994" lon="14.2844424"><ele>135.0</ele><time>2026-05-01T08:51:44.49Z</time></trkpt><trkpt lat="42.2923976" lon="14.2843166"><ele>135.0</ele><time>2026-05-01T08:51:45.489Z</time></trkpt><trkpt lat="42.2923061" lon="14.2841861"><ele>134.5</ele><time>2026-05-01T08:51:46.49Z</time></trkpt><trkpt lat="42.2922157" lon="14.2840517"><ele>134.0</ele><time>2026-05-01T08:51:47.49Z</time></trkpt><trkpt lat="42.2921373" lon="14.2839371"><ele>133.5</ele><time>2026-05-01T08:51:48.489Z</time></trkpt><trkpt lat="42.2920513" lon="14.2838178"><ele>133.0</ele><time>2026-05-01T08:51:49.49Z</time></trkpt><trkpt lat="42.2919719" lon="14.2837041"><ele>136.25</ele><time>2026-05-01T08:51:50.49Z</time></trkpt><trkpt lat="42.2918484" lon="14.2836207"><ele>139.5</ele><time>2026-05-01T08:51:51.489Z</time></trkpt><trkpt lat="42.2917597" lon="14.2835128"><ele>142.75</ele><time>2026-05-01T08:51:52.49Z</time></trkpt><trkpt lat="42.2916235" lon="14.28341"><ele>146.0</ele><time>2026-05-01T08:51:53.491Z</time></trkpt><trkpt lat="42.2915252" lon="14.2833078"><ele>145.0</ele><time>2026-05-01T08:51:54.489Z</time></trkpt><trkpt lat="42.291405" lon="14.2832093"><ele>144.0</ele><time>2026-05-01T08:51:55.49Z</time></trkpt><trkpt lat="42.2913054" lon="14.2831047"><ele>143.0</ele><time>2026-05-01T08:51:56.49Z</time></trkpt><trkpt lat="42.291242" lon="14.2830106"><ele>142.0</ele><time>2026-05-01T08:51:57.49Z</time></trkpt><trkpt lat="42.2911693" lon="14.2829041"><ele>143.6</ele><time>2026-05-01T08:51:58.489Z</time></trkpt><trkpt lat="42.2911636" lon="14.2827176"><ele>145.2</ele><time>2026-05-01T08:51:59.49Z</time></trkpt><trkpt lat="42.2911327" lon="14.2825988"><ele>146.8</ele><time>2026-05-01T08:52:00.489Z</time></trkpt><trkpt lat="42.2911047" lon="14.2824617"><ele>148.4</ele><time>2026-05-01T08:52:01.49Z</time></trkpt><trkpt lat="42.2910955" lon="14.2823453"><ele>150.0</ele><time>2026-05-01T08:52:02.49Z</time></trkpt><trkpt lat="42.2910785" lon="14.2822411"><ele>153.2</ele><time>2026-05-01T08:52:03.49Z</time></trkpt><trkpt lat="42.2910273" lon="14.2821398"><ele>156.4</ele><time>2026-05-01T08:52:04.49Z</time></trkpt><trkpt lat="42.2909768" lon="14.2820301"><ele>159.60000000000002</ele><time>2026-05-01T08:52:05.49Z</time></trkpt><trkpt lat="42.2909272" lon="14.2818783"><ele>162.8</ele><time>2026-05-01T08:52:06.49Z</time></trkpt><trkpt lat="42.2908914" lon="14.2817438"><ele>166.0</ele><time>2026-05-01T08:52:07.49Z</time></trkpt><trkpt lat="42.2908379" lon="14.2816221"><ele>166.0</ele><time>2026-05-01T08:52:08.491Z</time></trkpt><trkpt lat="42.2908588" lon="14.2814387"><ele>166.0</ele><time>2026-05-01T08:52:09.489Z</time></trkpt><trkpt lat="42.2908601" lon="14.2812674"><ele>166.0</ele><time>2026-05-01T08:52:10.489Z</time></trkpt><trkpt lat="42.2908621" lon="14.2810971"><ele>166.0</ele><time>2026-05-01T08:52:11.489Z</time></trkpt><trkpt lat="42.2908592" lon="14.2809453"><ele>168.16666666666669</ele><time>2026-05-01T08:52:12.49Z</time></trkpt><trkpt lat="42.2908501" lon="14.2807954"><ele>170.33333333333334</ele><time>2026-05-01T08:52:13.489Z</time></trkpt><trkpt lat="42.2908372" lon="14.2806734"><ele>172.5</ele><time>2026-05-01T08:52:14.489Z</time></trkpt><trkpt lat="42.2908239" lon="14.2805608"><ele>174.66666666666666</ele><time>2026-05-01T08:52:15.488Z</time></trkpt><trkpt lat="42.2908092" lon="14.2804538"><ele>176.83333333333331</ele><time>2026-05-01T08:52:16.488Z</time></trkpt><trkpt lat="42.2907756" lon="14.2803572"><ele>179.0</ele><time>2026-05-01T08:52:17.488Z</time></trkpt><trkpt lat="42.2907309" lon="14.2802568"><ele>178.16666666666666</ele><time>2026-05-01T08:52:18.488Z</time></trkpt><trkpt lat="42.2906803" lon="14.2801437"><ele>177.33333333333331</ele><time>2026-05-01T08:52:19.488Z</time></trkpt><trkpt lat="42.2906238" lon="14.2800315"><ele>176.5</ele><time>2026-05-01T08:52:20.488Z</time></trkpt><trkpt lat="42.2905772" lon="14.2799319"><ele>175.66666666666666</ele><time>2026-05-01T08:52:21.488Z</time></trkpt><trkpt lat="42.2905452" lon="14.2798422"><ele>174.83333333333334</ele><time>2026-05-01T08:52:22.49Z</time></trkpt><trkpt lat="42.2905235" lon="14.2797593"><ele>174.0</ele><time>2026-05-01T08:52:23.49Z</time></trkpt><trkpt lat="42.2905084" lon="14.2796717"><ele>177.16666666666666</ele><time>2026-05-01T08:52:24.489Z</time></trkpt><trkpt lat="42.2904959" lon="14.2795745"><ele>180.33333333333331</ele><time>2026-05-01T08:52:25.489Z</time></trkpt><trkpt lat="42.2904843" lon="14.2794878"><ele>183.5</ele><time>2026-05-01T08:52:26.489Z</time></trkpt><trkpt lat="42.2904795" lon="14.2794029"><ele>186.66666666666666</ele><time>2026-05-01T08:52:27.489Z</time></trkpt><trkpt lat="42.2904605" lon="14.2793007"><ele>189.83333333333331</ele><time>2026-05-01T08:52:28.489Z</time></trkpt><trkpt lat="42.2903887" lon="14.2791871"><ele>193.0</ele><time>2026-05-01T08:52:30.489Z</time></trkpt><trkpt lat="42.2903243" lon="14.2791335"><ele>193.0</ele><time>2026-05-01T08:52:31.489Z</time></trkpt><trkpt lat="42.2902485" lon="14.2790654"><ele>193.0</ele><time>2026-05-01T08:52:32.488Z</time></trkpt><trkpt lat="42.2901584" lon="14.2790221"><ele>193.0</ele><time>2026-05-01T08:52:33.488Z</time></trkpt><trkpt lat="42.2900827" lon="14.2789522"><ele>193.0</ele><time>2026-05-01T08:52:34.488Z</time></trkpt><trkpt lat="42.2900272" lon="14.278872"><ele>193.0</ele><time>2026-05-01T08:52:35.489Z</time></trkpt><trkpt lat="42.2899772" lon="14.2787663"><ele>194.60000000000002</ele><time>2026-05-01T08:52:36.488Z</time></trkpt><trkpt lat="42.2899368" lon="14.2786485"><ele>196.20000000000002</ele><time>2026-05-01T08:52:37.489Z</time></trkpt><trkpt lat="42.2898927" lon="14.2785346"><ele>197.8</ele><time>2026-05-01T08:52:38.488Z</time></trkpt><trkpt lat="42.2898493" lon="14.2783962"><ele>199.4</ele><time>2026-05-01T08:52:39.488Z</time></trkpt><trkpt lat="42.2898216" lon="14.2782514"><ele>201.0</ele><time>2026-05-01T08:52:40.49Z</time></trkpt><trkpt lat="42.2898076" lon="14.2781313"><ele>200.60000000000002</ele><time>2026-05-01T08:52:41.489Z</time></trkpt><trkpt lat="42.2897883" lon="14.2780137"><ele>200.2</ele><time>2026-05-01T08:52:42.49Z</time></trkpt><trkpt lat="42.2897556" lon="14.2779032"><ele>199.8</ele><time>2026-05-01T08:52:43.489Z</time></trkpt><trkpt lat="42.2897185" lon="14.2777509"><ele>199.39999999999998</ele><time>2026-05-01T08:52:44.489Z</time></trkpt><trkpt lat="42.2896823" lon="14.2775984"><ele>199.0</ele><time>2026-05-01T08:52:45.489Z</time></trkpt><trkpt lat="42.2896503" lon="14.2774207"><ele>201.25</ele><time>2026-05-01T08:52:46.49Z</time></trkpt><trkpt lat="42.2896134" lon="14.2772505"><ele>203.5</ele><time>2026-05-01T08:52:47.488Z</time></trkpt><trkpt lat="42.2895809" lon="14.2770949"><ele>205.75</ele><time>2026-05-01T08:52:48.489Z</time></trkpt><trkpt lat="42.2895741" lon="14.2769445"><ele>208.0</ele><time>2026-05-01T08:52:49.49Z</time></trkpt><trkpt lat="42.2895687" lon="14.276788"><ele>208.0</ele><time>2026-05-01T08:52:50.489Z</time></trkpt><trkpt lat="42.289559" lon="14.2766342"><ele>208.0</ele><time>2026-05-01T08:52:51.488Z</time></trkpt><trkpt lat="42.289548" lon="14.2765018"><ele>208.0</ele><time>2026-05-01T08:52:52.488Z</time></trkpt><trkpt lat="42.2895305" lon="14.2763739"><ele>208.0</ele><time>2026-05-01T08:52:53.488Z</time></trkpt><trkpt lat="42.289506" lon="14.2762599"><ele>208.0</ele><time>2026-05-01T08:52:54.488Z</time></trkpt><trkpt lat="42.2894918" lon="14.276163"><ele>208.99999999999997</ele><time>2026-05-01T08:52:55.489Z</time></trkpt><trkpt lat="42.289484" lon="14.2760299"><ele>210.0</ele><time>2026-05-01T08:52:57.49Z</time></trkpt><trkpt lat="42.2894647" lon="14.2759215"><ele>211.0</ele><time>2026-05-01T08:52:59.489Z</time></trkpt><trkpt lat="42.2893809" lon="14.2759023"><ele>212.0</ele><time>2026-05-01T08:53:01.488Z</time></trkpt><trkpt lat="42.2892844" lon="14.2758987"><ele>212.99999999999997</ele><time>2026-05-01T08:53:03.489Z</time></trkpt><trkpt lat="42.2892102" lon="14.2758833"><ele>214.0</ele><time>2026-05-01T08:53:05.489Z</time></trkpt><trkpt lat="42.2891264" lon="14.2758904"><ele>214.0</ele><time>2026-05-01T08:53:07.489Z</time></trkpt><trkpt lat="42.2890469" lon="14.2758867"><ele>213.99999999999997</ele><time>2026-05-01T08:53:09.489Z</time></trkpt><trkpt lat="42.2889614" lon="14.2758627"><ele>213.99999999999997</ele><time>2026-05-01T08:53:11.489Z</time></trkpt><trkpt lat="42.288862" lon="14.2758065"><ele>214.0</ele><time>2026-05-01T08:53:13.488Z</time></trkpt><trkpt lat="42.2887816" lon="14.275772"><ele>214.0</ele><time>2026-05-01T08:53:14.489Z</time></trkpt><trkpt lat="42.2886873" lon="14.2757244"><ele>214.33333333333331</ele><time>2026-05-01T08:53:15.489Z</time></trkpt><trkpt lat="42.2886085" lon="14.2756666"><ele>214.66666666666666</ele><time>2026-05-01T08:53:16.489Z</time></trkpt><trkpt lat="42.288539" lon="14.2755999"><ele>215.0</ele><time>2026-05-01T08:53:17.489Z</time></trkpt><trkpt lat="42.2884789" lon="14.275539"><ele>215.33333333333331</ele><time>2026-05-01T08:53:18.488Z</time></trkpt><trkpt lat="42.2883756" lon="14.2754707"><ele>215.66666666666666</ele><time>2026-05-01T08:53:20.489Z</time></trkpt><trkpt lat="42.2883011" lon="14.2754554"><ele>216.0</ele><time>2026-05-01T08:53:21.489Z</time></trkpt><trkpt lat="42.288233" lon="14.2754514"><ele>216.0</ele><time>2026-05-01T08:53:22.489Z</time></trkpt><trkpt lat="42.2880946" lon="14.2754841"><ele>216.0</ele><time>2026-05-01T08:53:24.489Z</time></trkpt><trkpt lat="42.2880202" lon="14.275505"><ele>216.0</ele><time>2026-05-01T08:53:25.489Z</time></trkpt><trkpt lat="42.2879544" lon="14.275518"><ele>216.0</ele><time>2026-05-01T08:53:26.488Z</time></trkpt><trkpt lat="42.2878812" lon="14.2755324"><ele>216.0</ele><time>2026-05-01T08:53:27.488Z</time></trkpt><trkpt lat="42.2878082" lon="14.2755399"><ele>216.0</ele><time>2026-05-01T08:53:28.489Z</time></trkpt><trkpt lat="42.2877381" lon="14.2755339"><ele>214.28571428571428</ele><time>2026-05-01T08:53:29.488Z</time></trkpt><trkpt lat="42.2876721" lon="14.2755076"><ele>212.57142857142856</ele><time>2026-05-01T08:53:30.488Z</time></trkpt><trkpt lat="42.2876114" lon="14.2754676"><ele>210.85714285714286</ele><time>2026-05-01T08:53:31.488Z</time></trkpt><trkpt lat="42.2875513" lon="14.275418"><ele>209.14285714285714</ele><time>2026-05-01T08:53:32.489Z</time></trkpt><trkpt lat="42.2875322" lon="14.2753313"><ele>207.42857142857144</ele><time>2026-05-01T08:53:33.489Z</time></trkpt><trkpt lat="42.2874885" lon="14.2752412"><ele>205.71428571428572</ele><time>2026-05-01T08:53:34.489Z</time></trkpt><trkpt lat="42.2874521" lon="14.2751399"><ele>204.0</ele><time>2026-05-01T08:53:35.49Z</time></trkpt><trkpt lat="42.2874206" lon="14.2750381"><ele>204.0</ele><time>2026-05-01T08:53:36.489Z</time></trkpt><trkpt lat="42.2873921" lon="14.2749368"><ele>204.0</ele><time>2026-05-01T08:53:37.49Z</time></trkpt><trkpt lat="42.2873593" lon="14.2748465"><ele>204.0</ele><time>2026-05-01T08:53:38.489Z</time></trkpt><trkpt lat="42.2872871" lon="14.2747231"><ele>204.0</ele><time>2026-05-01T08:53:40.488Z</time></trkpt><trkpt lat="42.2872168" lon="14.2746823"><ele>204.0</ele><time>2026-05-01T08:53:42.488Z</time></trkpt><trkpt lat="42.287144" lon="14.2746866"><ele>204.0</ele><time>2026-05-01T08:53:44.489Z</time></trkpt><trkpt lat="42.2870625" lon="14.2747246"><ele>204.2</ele><time>2026-05-01T08:53:46.489Z</time></trkpt><trkpt lat="42.2869655" lon="14.2747492"><ele>204.39999999999998</ele><time>2026-05-01T08:53:48.489Z</time></trkpt><trkpt lat="42.2868483" lon="14.2747651"><ele>204.6</ele><time>2026-05-01T08:53:50.489Z</time></trkpt><trkpt lat="42.2867859" lon="14.2747901"><ele>204.8</ele><time>2026-05-01T08:53:51.489Z</time></trkpt><trkpt lat="42.2866841" lon="14.274829"><ele>205.0</ele><time>2026-05-01T08:53:53.488Z</time></trkpt><trkpt lat="42.286615" lon="14.2748507"><ele>204.2</ele><time>2026-05-01T08:53:55.489Z</time></trkpt><trkpt lat="42.2865442" lon="14.2748498"><ele>203.4</ele><time>2026-05-01T08:53:57.49Z</time></trkpt><trkpt lat="42.286464" lon="14.2747964"><ele>202.60000000000002</ele><time>2026-05-01T08:53:59.489Z</time></trkpt><trkpt lat="42.28638" lon="14.2746929"><ele>201.8</ele><time>2026-05-01T08:54:01.489Z</time></trkpt><trkpt lat="42.2862851" lon="14.2746022"><ele>201.0</ele><time>2026-05-01T08:54:03.49Z</time></trkpt><trkpt lat="42.2862135" lon="14.2744735"><ele>201.0</ele><time>2026-05-01T08:54:05.489Z</time></trkpt><trkpt lat="42.2861739" lon="14.2744041"><ele>201.0</ele><time>2026-05-01T08:54:06.49Z</time></trkpt><trkpt lat="42.2861411" lon="14.2743285"><ele>201.0</ele><time>2026-05-01T08:54:07.489Z</time></trkpt><trkpt lat="42.2861039" lon="14.274238"><ele>201.0</ele><time>2026-05-01T08:54:08.489Z</time></trkpt><trkpt lat="42.2860999" lon="14.2741281"><ele>201.0</ele><time>2026-05-01T08:54:09.489Z</time></trkpt><trkpt lat="42.2860775" lon="14.2740302"><ele>201.0</ele><time>2026-05-01T08:54:10.488Z</time></trkpt><trkpt lat="42.2860667" lon="14.2739132"><ele>203.60000000000002</ele><time>2026-05-01T08:54:11.488Z</time></trkpt><trkpt lat="42.2861626" lon="14.2737929"><ele>206.2</ele><time>2026-05-01T08:54:12.489Z</time></trkpt><trkpt lat="42.2861773" lon="14.2736449"><ele>208.79999999999998</ele><time>2026-05-01T08:54:14.488Z</time></trkpt><trkpt lat="42.2861564" lon="14.2735632"><ele>211.39999999999998</ele><time>2026-05-01T08:54:15.488Z</time></trkpt><trkpt lat="42.2861158" lon="14.27341"><ele>214.0</ele><time>2026-05-01T08:54:17.49Z</time></trkpt><trkpt lat="42.2860668" lon="14.2733418"><ele>213.99999999999997</ele><time>2026-05-01T08:54:18.489Z</time></trkpt><trkpt lat="42.2860219" lon="14.2732512"><ele>214.0</ele><time>2026-05-01T08:54:19.49Z</time></trkpt><trkpt lat="42.2859551" lon="14.2731684"><ele>214.0</ele><time>2026-05-01T08:54:20.489Z</time></trkpt><trkpt lat="42.2859046" lon="14.2730774"><ele>214.0</ele><time>2026-05-01T08:54:21.489Z</time></trkpt><trkpt lat="42.2858493" lon="14.2729928"><ele>213.99999999999997</ele><time>2026-05-01T08:54:22.49Z</time></trkpt><trkpt lat="42.2857909" lon="14.2729118"><ele>214.0</ele><time>2026-05-01T08:54:23.489Z</time></trkpt><trkpt lat="42.2857209" lon="14.2728296"><ele>213.49999999999997</ele><time>2026-05-01T08:54:24.489Z</time></trkpt><trkpt lat="42.2856521" lon="14.2727549"><ele>213.0</ele><time>2026-05-01T08:54:25.489Z</time></trkpt><trkpt lat="42.2855855" lon="14.2726756"><ele>212.5</ele><time>2026-05-01T08:54:26.488Z</time></trkpt><trkpt lat="42.2855311" lon="14.2725999"><ele>212.0</ele><time>2026-05-01T08:54:27.489Z</time></trkpt><trkpt lat="42.2854981" lon="14.2725268"><ele>211.49999999999997</ele><time>2026-05-01T08:54:28.489Z</time></trkpt><trkpt lat="42.2854636" lon="14.2724397"><ele>211.0</ele><time>2026-05-01T08:54:29.489Z</time></trkpt><trkpt lat="42.2854378" lon="14.2723401"><ele>212.99999999999997</ele><time>2026-05-01T08:54:30.49Z</time></trkpt><trkpt lat="42.2854105" lon="14.2722379"><ele>215.0</ele><time>2026-05-01T08:54:31.489Z</time></trkpt><trkpt lat="42.2853835" lon="14.2721304"><ele>217.0</ele><time>2026-05-01T08:54:32.488Z</time></trkpt><trkpt lat="42.2853677" lon="14.2720249"><ele>219.0</ele><time>2026-05-01T08:54:33.489Z</time></trkpt><trkpt lat="42.2853464" lon="14.2719232"><ele>220.99999999999997</ele><time>2026-05-01T08:54:34.49Z</time></trkpt><trkpt lat="42.2853549" lon="14.2717958"><ele>223.0</ele><time>2026-05-01T08:54:35.489Z</time></trkpt><trkpt lat="42.2853513" lon="14.271675"><ele>223.0</ele><time>2026-05-01T08:54:36.488Z</time></trkpt><trkpt lat="42.2853462" lon="14.2715601"><ele>223.0</ele><time>2026-05-01T08:54:37.489Z</time></trkpt><trkpt lat="42.2853443" lon="14.2714474"><ele>223.0</ele><time>2026-05-01T08:54:38.488Z</time></trkpt><trkpt lat="42.2853385" lon="14.2713499"><ele>223.0</ele><time>2026-05-01T08:54:39.489Z</time></trkpt><trkpt lat="42.2853341" lon="14.2712554"><ele>223.0</ele><time>2026-05-01T08:54:40.489Z</time></trkpt><trkpt lat="42.2853287" lon="14.2711617"><ele>223.0</ele><time>2026-05-01T08:54:41.49Z</time></trkpt><trkpt lat="42.2853329" lon="14.2710724"><ele>223.0</ele><time>2026-05-01T08:54:42.489Z</time></trkpt><trkpt lat="42.2853247" lon="14.2709784"><ele>225.2</ele><time>2026-05-01T08:54:43.49Z</time></trkpt><trkpt lat="42.2853283" lon="14.2708716"><ele>227.4</ele><time>2026-05-01T08:54:44.488Z</time></trkpt><trkpt lat="42.2853401" lon="14.2707606"><ele>229.59999999999997</ele><time>2026-05-01T08:54:45.488Z</time></trkpt><trkpt lat="42.2853448" lon="14.2706384"><ele>231.79999999999998</ele><time>2026-05-01T08:54:46.488Z</time></trkpt><trkpt lat="42.2853514" lon="14.2705111"><ele>234.0</ele><time>2026-05-01T08:54:47.488Z</time></trkpt><trkpt lat="42.2853515" lon="14.2703706"><ele>235.79999999999998</ele><time>2026-05-01T08:54:48.488Z</time></trkpt><trkpt lat="42.2853603" lon="14.2702362"><ele>237.59999999999997</ele><time>2026-05-01T08:54:49.489Z</time></trkpt><trkpt lat="42.2853726" lon="14.2700893"><ele>239.4</ele><time>2026-05-01T08:54:50.489Z</time></trkpt><trkpt lat="42.2854008" lon="14.2699568"><ele>241.2</ele><time>2026-05-01T08:54:51.488Z</time></trkpt><trkpt lat="42.2854162" lon="14.2698048"><ele>243.0</ele><time>2026-05-01T08:54:52.489Z</time></trkpt><trkpt lat="42.2854552" lon="14.269667"><ele>244.60000000000002</ele><time>2026-05-01T08:54:53.488Z</time></trkpt><trkpt lat="42.285473" lon="14.2695476"><ele>246.20000000000002</ele><time>2026-05-01T08:54:54.487Z</time></trkpt><trkpt lat="42.2854956" lon="14.2694153"><ele>247.8</ele><time>2026-05-01T08:54:55.487Z</time></trkpt><trkpt lat="42.285512" lon="14.2693295"><ele>249.4</ele><time>2026-05-01T08:54:56.488Z</time></trkpt><trkpt lat="42.2855707" lon="14.2691479"><ele>251.0</ele><time>2026-05-01T08:54:58.489Z</time></trkpt><trkpt lat="42.2855963" lon="14.2690155"><ele>258.5</ele><time>2026-05-01T08:54:59.487Z</time></trkpt><trkpt lat="42.2856245" lon="14.2688816"><ele>266.0</ele><time>2026-05-01T08:55:00.488Z</time></trkpt><trkpt lat="42.2856376" lon="14.2687117"><ele>273.5</ele><time>2026-05-01T08:55:01.487Z</time></trkpt><trkpt lat="42.2856488" lon="14.2685187"><ele>281.0</ele><time>2026-05-01T08:55:02.488Z</time></trkpt><trkpt lat="42.2856599" lon="14.268367"><ele>281.0</ele><time>2026-05-01T08:55:03.487Z</time></trkpt><trkpt lat="42.2856703" lon="14.2682622"><ele>281.0</ele><time>2026-05-01T08:55:04.487Z</time></trkpt><trkpt lat="42.2856696" lon="14.2681518"><ele>281.0</ele><time>2026-05-01T08:55:06.488Z</time></trkpt><trkpt lat="42.2856646" lon="14.2680393"><ele>281.0</ele><time>2026-05-01T08:55:08.488Z</time></trkpt><trkpt lat="42.2856369" lon="14.2679616"><ele>281.0</ele><time>2026-05-01T08:55:09.488Z</time></trkpt><trkpt lat="42.2855945" lon="14.2678593"><ele>281.0</ele><time>2026-05-01T08:55:10.489Z</time></trkpt><trkpt lat="42.2855393" lon="14.2677557"><ele>280.5</ele><time>2026-05-01T08:55:11.488Z</time></trkpt><trkpt lat="42.2854711" lon="14.2676393"><ele>280.0</ele><time>2026-05-01T08:55:12.488Z</time></trkpt><trkpt lat="42.2854019" lon="14.2675009"><ele>279.5</ele><time>2026-05-01T08:55:13.488Z</time></trkpt><trkpt lat="42.2853283" lon="14.26737"><ele>279.0</ele><time>2026-05-01T08:55:14.488Z</time></trkpt><trkpt lat="42.2852611" lon="14.2672583"><ele>280.0</ele><time>2026-05-01T08:55:15.488Z</time></trkpt><trkpt lat="42.2851946" lon="14.2671641"><ele>281.0</ele><time>2026-05-01T08:55:16.488Z</time></trkpt><trkpt lat="42.2851303" lon="14.2670894"><ele>282.0</ele><time>2026-05-01T08:55:17.488Z</time></trkpt><trkpt lat="42.2850669" lon="14.2670317"><ele>283.0</ele><time>2026-05-01T08:55:18.488Z</time></trkpt><trkpt lat="42.2850111" lon="14.2669841"><ele>284.0</ele><time>2026-05-01T08:55:19.487Z</time></trkpt><trkpt lat="42.2849258" lon="14.2668928"><ele>285.0</ele><time>2026-05-01T08:55:21.488Z</time></trkpt><trkpt lat="42.2848555" lon="14.266784"><ele>285.0</ele><time>2026-05-01T08:55:23.488Z</time></trkpt><trkpt lat="42.2847928" lon="14.2666713"><ele>285.0</ele><time>2026-05-01T08:55:25.488Z</time></trkpt><trkpt lat="42.2847955" lon="14.2665403"><ele>285.0</ele><time>2026-05-01T08:55:27.489Z</time></trkpt><trkpt lat="42.2848509" lon="14.2663945"><ele>285.0</ele><time>2026-05-01T08:55:29.488Z</time></trkpt><trkpt lat="42.2848859" lon="14.2663163"><ele>285.0</ele><time>2026-05-01T08:55:30.488Z</time></trkpt><trkpt lat="42.2849255" lon="14.2662415"><ele>284.8</ele><time>2026-05-01T08:55:31.488Z</time></trkpt><trkpt lat="42.2849722" lon="14.2661543"><ele>284.6</ele><time>2026-05-01T08:55:32.488Z</time></trkpt><trkpt lat="42.2850229" lon="14.2660473"><ele>284.4</ele><time>2026-05-01T08:55:33.487Z</time></trkpt><trkpt lat="42.2850777" lon="14.2659288"><ele>284.2</ele><time>2026-05-01T08:55:34.487Z</time></trkpt><trkpt lat="42.2851295" lon="14.2658281"><ele>284.0</ele><time>2026-05-01T08:55:35.488Z</time></trkpt><trkpt lat="42.2851848" lon="14.2657298"><ele>284.0</ele><time>2026-05-01T08:55:36.488Z</time></trkpt><trkpt lat="42.2852339" lon="14.2656538"><ele>284.0</ele><time>2026-05-01T08:55:37.489Z</time></trkpt><trkpt lat="42.2852758" lon="14.2655877"><ele>284.0</ele><time>2026-05-01T08:55:38.488Z</time></trkpt><trkpt lat="42.2853579" lon="14.2654659"><ele>284.0</ele><time>2026-05-01T08:55:40.488Z</time></trkpt><trkpt lat="42.285401" lon="14.2653917"><ele>284.0</ele><time>2026-05-01T08:55:41.489Z</time></trkpt><trkpt lat="42.2854458" lon="14.2653277"><ele>284.0</ele><time>2026-05-01T08:55:42.489Z</time></trkpt><trkpt lat="42.2855261" lon="14.2652252"><ele>281.1666666666667</ele><time>2026-05-01T08:55:44.488Z</time></trkpt><trkpt lat="42.2856023" lon="14.2651662"><ele>278.33333333333337</ele><time>2026-05-01T08:55:45.488Z</time></trkpt><trkpt lat="42.2856683" lon="14.2651222"><ele>275.5</ele><time>2026-05-01T08:55:46.488Z</time></trkpt><trkpt lat="42.2857303" lon="14.2650851"><ele>272.6666666666667</ele><time>2026-05-01T08:55:47.488Z</time></trkpt><trkpt lat="42.2857845" lon="14.2650408"><ele>269.8333333333333</ele><time>2026-05-01T08:55:48.488Z</time></trkpt><trkpt lat="42.2857695" lon="14.2648665"><ele>267.0</ele><time>2026-05-01T08:55:50.488Z</time></trkpt><trkpt lat="42.2857285" lon="14.264727"><ele>265.0</ele><time>2026-05-01T08:55:51.488Z</time></trkpt><trkpt lat="42.2856679" lon="14.2645641"><ele>263.0</ele><time>2026-05-01T08:55:52.487Z</time></trkpt><trkpt lat="42.2855861" lon="14.2643786"><ele>261.0</ele><time>2026-05-01T08:55:53.487Z</time></trkpt><trkpt lat="42.2854882" lon="14.26417"><ele>261.0</ele><time>2026-05-01T08:55:54.487Z</time></trkpt><trkpt lat="42.2853993" lon="14.2639814"><ele>261.0</ele><time>2026-05-01T08:55:55.489Z</time></trkpt><trkpt lat="42.2853211" lon="14.2638006"><ele>261.0</ele><time>2026-05-01T08:55:56.488Z</time></trkpt><trkpt lat="42.2852616" lon="14.2636333"><ele>260.5</ele><time>2026-05-01T08:55:57.488Z</time></trkpt><trkpt lat="42.2852392" lon="14.2634624"><ele>260.0</ele><time>2026-05-01T08:55:58.488Z</time></trkpt><trkpt lat="42.2852469" lon="14.2632963"><ele>259.5</ele><time>2026-05-01T08:55:59.488Z</time></trkpt><trkpt lat="42.2852849" lon="14.2631355"><ele>259.0</ele><time>2026-05-01T08:56:00.487Z</time></trkpt><trkpt lat="42.2853136" lon="14.2629948"><ele>258.0</ele><time>2026-05-01T08:56:01.488Z</time></trkpt><trkpt lat="42.2853147" lon="14.2628482"><ele>257.0</ele><time>2026-05-01T08:56:02.488Z</time></trkpt><trkpt lat="42.2852848" lon="14.2626953"><ele>256.0</ele><time>2026-05-01T08:56:03.489Z</time></trkpt><trkpt lat="42.2852599" lon="14.2625293"><ele>255.0</ele><time>2026-05-01T08:56:04.487Z</time></trkpt><trkpt lat="42.2852004" lon="14.2623711"><ele>252.5</ele><time>2026-05-01T08:56:05.488Z</time></trkpt><trkpt lat="42.2850742" lon="14.2622356"><ele>250.0</ele><time>2026-05-01T08:56:06.488Z</time></trkpt><trkpt lat="42.2849951" lon="14.2620824"><ele>247.5</ele><time>2026-05-01T08:56:07.488Z</time></trkpt><trkpt lat="42.2849181" lon="14.2619385"><ele>245.0</ele><time>2026-05-01T08:56:08.488Z</time></trkpt><trkpt lat="42.2848392" lon="14.2617868"><ele>246.25</ele><time>2026-05-01T08:56:09.488Z</time></trkpt><trkpt lat="42.2847581" lon="14.2616334"><ele>247.5</ele><time>2026-05-01T08:56:10.487Z</time></trkpt><trkpt lat="42.2846781" lon="14.2614826"><ele>248.75</ele><time>2026-05-01T08:56:11.488Z</time></trkpt><trkpt lat="42.2846131" lon="14.261342"><ele>250.0</ele><time>2026-05-01T08:56:12.488Z</time></trkpt><trkpt lat="42.2845649" lon="14.2611986"><ele>250.0</ele><time>2026-05-01T08:56:13.487Z</time></trkpt><trkpt lat="42.2845393" lon="14.2610542"><ele>250.0</ele><time>2026-05-01T08:56:14.487Z</time></trkpt><trkpt lat="42.2845498" lon="14.2609177"><ele>250.0</ele><time>2026-05-01T08:56:15.488Z</time></trkpt><trkpt lat="42.2845897" lon="14.2608017"><ele>250.0</ele><time>2026-05-01T08:56:16.489Z</time></trkpt><trkpt lat="42.2846547" lon="14.260714"><ele>250.0</ele><time>2026-05-01T08:56:17.489Z</time></trkpt><trkpt lat="42.2847464" lon="14.2606582"><ele>248.33333333333331</ele><time>2026-05-01T08:56:18.488Z</time></trkpt><trkpt lat="42.2848768" lon="14.2606284"><ele>246.66666666666669</ele><time>2026-05-01T08:56:19.488Z</time></trkpt><trkpt lat="42.2850367" lon="14.2605911"><ele>245.0</ele><time>2026-05-01T08:56:20.489Z</time></trkpt><trkpt lat="42.2852124" lon="14.2605741"><ele>245.0</ele><time>2026-05-01T08:56:21.487Z</time></trkpt><trkpt lat="42.2854013" lon="14.2605533"><ele>245.0</ele><time>2026-05-01T08:56:22.487Z</time></trkpt><trkpt lat="42.2855789" lon="14.2605412"><ele>245.0</ele><time>2026-05-01T08:56:23.487Z</time></trkpt><trkpt lat="42.2857419" lon="14.2605412"><ele>244.75</ele><time>2026-05-01T08:56:24.488Z</time></trkpt><trkpt lat="42.2858895" lon="14.2605703"><ele>244.5</ele><time>2026-05-01T08:56:25.488Z</time></trkpt><trkpt lat="42.2860344" lon="14.2606201"><ele>244.25</ele><time>2026-05-01T08:56:26.488Z</time></trkpt><trkpt lat="42.2861775" lon="14.2606686"><ele>244.0</ele><time>2026-05-01T08:56:27.489Z</time></trkpt><trkpt lat="42.2863117" lon="14.2606961"><ele>245.0</ele><time>2026-05-01T08:56:28.488Z</time></trkpt><trkpt lat="42.2864448" lon="14.2607059"><ele>246.0</ele><time>2026-05-01T08:56:29.488Z</time></trkpt><trkpt lat="42.2865656" lon="14.2606983"><ele>247.0</ele><time>2026-05-01T08:56:30.487Z</time></trkpt><trkpt lat="42.2866893" lon="14.2606711"><ele>248.0</ele><time>2026-05-01T08:56:31.488Z</time></trkpt><trkpt lat="42.2867867" lon="14.2606079"><ele>251.75</ele><time>2026-05-01T08:56:32.489Z</time></trkpt><trkpt lat="42.2868632" lon="14.260499"><ele>255.5</ele><time>2026-05-01T08:56:33.487Z</time></trkpt><trkpt lat="42.2868948" lon="14.260372"><ele>259.25</ele><time>2026-05-01T08:56:34.488Z</time></trkpt><trkpt lat="42.2868916" lon="14.2602212"><ele>263.0</ele><time>2026-05-01T08:56:35.487Z</time></trkpt><trkpt lat="42.2868473" lon="14.2600492"><ele>263.0</ele><time>2026-05-01T08:56:36.487Z</time></trkpt><trkpt lat="42.2867787" lon="14.2598772"><ele>263.0</ele><time>2026-05-01T08:56:37.487Z</time></trkpt><trkpt lat="42.2867006" lon="14.2597143"><ele>263.0</ele><time>2026-05-01T08:56:38.487Z</time></trkpt><trkpt lat="42.2866137" lon="14.2595481"><ele>263.0</ele><time>2026-05-01T08:56:39.488Z</time></trkpt><trkpt lat="42.2864185" lon="14.2595033"><ele>264.6666666666667</ele><time>2026-05-01T08:56:40.488Z</time></trkpt><trkpt lat="42.2862811" lon="14.2594132"><ele>266.3333333333333</ele><time>2026-05-01T08:56:41.488Z</time></trkpt><trkpt lat="42.2861547" lon="14.2593244"><ele>268.0</ele><time>2026-05-01T08:56:42.487Z</time></trkpt><trkpt lat="42.2860153" lon="14.2592119"><ele>268.0</ele><time>2026-05-01T08:56:43.487Z</time></trkpt><trkpt lat="42.2858784" lon="14.2590817"><ele>268.0</ele><time>2026-05-01T08:56:44.488Z</time></trkpt><trkpt lat="42.2857781" lon="14.2589459"><ele>268.0</ele><time>2026-05-01T08:56:45.487Z</time></trkpt><trkpt lat="42.2857097" lon="14.2588036"><ele>268.0</ele><time>2026-05-01T08:56:46.488Z</time></trkpt><trkpt lat="42.2856665" lon="14.2586885"><ele>270.66666666666663</ele><time>2026-05-01T08:56:47.488Z</time></trkpt><trkpt lat="42.2856643" lon="14.2585766"><ele>273.3333333333333</ele><time>2026-05-01T08:56:48.488Z</time></trkpt><trkpt lat="42.2856959" lon="14.2584732"><ele>276.0</ele><time>2026-05-01T08:56:49.488Z</time></trkpt><trkpt lat="42.2857478" lon="14.2583902"><ele>278.6666666666667</ele><time>2026-05-01T08:56:50.489Z</time></trkpt><trkpt lat="42.2858306" lon="14.258358"><ele>281.33333333333337</ele><time>2026-05-01T08:56:51.488Z</time></trkpt><trkpt lat="42.2859272" lon="14.2583671"><ele>284.0</ele><time>2026-05-01T08:56:52.488Z</time></trkpt><trkpt lat="42.2860313" lon="14.2584077"><ele>284.0</ele><time>2026-05-01T08:56:53.488Z</time></trkpt><trkpt lat="42.2861433" lon="14.2584844"><ele>284.0</ele><time>2026-05-01T08:56:54.489Z</time></trkpt><trkpt lat="42.2862644" lon="14.2585742"><ele>284.0</ele><time>2026-05-01T08:56:55.488Z</time></trkpt><trkpt lat="42.2863973" lon="14.2586858"><ele>284.0</ele><time>2026-05-01T08:56:56.487Z</time></trkpt><trkpt lat="42.2865496" lon="14.258799"><ele>285.33333333333337</ele><time>2026-05-01T08:56:57.487Z</time></trkpt><trkpt lat="42.2867122" lon="14.2589123"><ele>286.6666666666667</ele><time>2026-05-01T08:56:58.488Z</time></trkpt><trkpt lat="42.286879" lon="14.259022"><ele>288.0</ele><time>2026-05-01T08:56:59.489Z</time></trkpt><trkpt lat="42.2870374" lon="14.2591152"><ele>287.75</ele><time>2026-05-01T08:57:00.487Z</time></trkpt><trkpt lat="42.2871795" lon="14.2591936"><ele>287.5</ele><time>2026-05-01T08:57:01.488Z</time></trkpt><trkpt lat="42.287309" lon="14.259264"><ele>287.25</ele><time>2026-05-01T08:57:02.487Z</time></trkpt><trkpt lat="42.2874176" lon="14.2593245"><ele>287.0</ele><time>2026-05-01T08:57:03.489Z</time></trkpt><trkpt lat="42.2875203" lon="14.2593703"><ele>287.0</ele><time>2026-05-01T08:57:04.487Z</time></trkpt><trkpt lat="42.2876281" lon="14.2593787"><ele>287.0</ele><time>2026-05-01T08:57:05.488Z</time></trkpt><trkpt lat="42.2877427" lon="14.2593728"><ele>287.0</ele><time>2026-05-01T08:57:06.489Z</time></trkpt><trkpt lat="42.2878607" lon="14.2593473"><ele>287.0</ele><time>2026-05-01T08:57:07.487Z</time></trkpt><trkpt lat="42.2879822" lon="14.2592912"><ele>288.25</ele><time>2026-05-01T08:57:08.488Z</time></trkpt><trkpt lat="42.2881079" lon="14.2592135"><ele>289.5</ele><time>2026-05-01T08:57:09.487Z</time></trkpt><trkpt lat="42.2882094" lon="14.2591324"><ele>290.75</ele><time>2026-05-01T08:57:10.488Z</time></trkpt><trkpt lat="42.2882967" lon="14.2590542"><ele>292.0</ele><time>2026-05-01T08:57:11.487Z</time></trkpt><trkpt lat="42.2883757" lon="14.2589631"><ele>294.3333333333333</ele><time>2026-05-01T08:57:12.487Z</time></trkpt><trkpt lat="42.2884584" lon="14.2588527"><ele>296.6666666666667</ele><time>2026-05-01T08:57:13.488Z</time></trkpt><trkpt lat="42.2885545" lon="14.2587419"><ele>299.0</ele><time>2026-05-01T08:57:14.488Z</time></trkpt><trkpt lat="42.2858784" lon="14.2590817"><ele>296.0</ele><time>2026-05-01T08:56:44.488Z</time></trkpt><trkpt lat="42.2857781" lon="14.2589459"><ele>293.0</ele><time>2026-05-01T08:56:45.487Z</time></trkpt><trkpt lat="42.2857097" lon="14.2588036"><ele>290.0</ele><time>2026-05-01T08:56:46.488Z</time></trkpt><trkpt lat="42.2856665" lon="14.2586885"><ele>287.0</ele><time>2026-05-01T08:56:47.488Z</time></trkpt><trkpt lat="42.2856643" lon="14.2585766"><ele>284.0</ele><time>2026-05-01T08:56:48.488Z</time></trkpt><trkpt lat="42.2856959" lon="14.2584732"><ele>284.0</ele><time>2026-05-01T08:56:49.488Z</time></trkpt><trkpt lat="42.2857478" lon="14.2583902"><ele>284.0</ele><time>2026-05-01T08:56:50.489Z</time></trkpt><trkpt lat="42.2858306" lon="14.258358"><ele>284.0</ele><time>2026-05-01T08:56:51.488Z</time></trkpt><trkpt lat="42.2859272" lon="14.2583671"><ele>284.0</ele><time>2026-05-01T08:56:52.488Z</time></trkpt><trkpt lat="42.2860313" lon="14.2584077"><ele>284.0</ele><time>2026-05-01T08:56:53.488Z</time></trkpt><trkpt lat="42.2861433" lon="14.2584844"><ele>284.0</ele><time>2026-05-01T08:56:54.489Z</time></trkpt><trkpt lat="42.2862644" lon="14.2585742"><ele>284.0</ele><time>2026-05-01T08:56:55.488Z</time></trkpt><trkpt lat="42.2863973" lon="14.2586858"><ele>284.0</ele><time>2026-05-01T08:56:56.487Z</time></trkpt><trkpt lat="42.2865496" lon="14.258799"><ele>285.33333333333337</ele><time>2026-05-01T08:56:57.487Z</time></trkpt><trkpt lat="42.2867122" lon="14.2589123"><ele>286.6666666666667</ele><time>2026-05-01T08:56:58.488Z</time></trkpt><trkpt lat="42.286879" lon="14.259022"><ele>288.0</ele><time>2026-05-01T08:56:59.489Z</time></trkpt><trkpt lat="42.2870374" lon="14.2591152"><ele>287.75</ele><time>2026-05-01T08:57:00.487Z</time></trkpt><trkpt lat="42.2871795" lon="14.2591936"><ele>287.5</ele><time>2026-05-01T08:57:01.488Z</time></trkpt><trkpt lat="42.287309" lon="14.259264"><ele>287.25</ele><time>2026-05-01T08:57:02.487Z</time></trkpt><trkpt lat="42.2874176" lon="14.2593245"><ele>287.0</ele><time>2026-05-01T08:57:03.489Z</time></trkpt><trkpt lat="42.2875203" lon="14.2593703"><ele>287.0</ele><time>2026-05-01T08:57:04.487Z</time></trkpt><trkpt lat="42.2876281" lon="14.2593787"><ele>287.0</ele><time>2026-05-01T08:57:05.488Z</time></trkpt><trkpt lat="42.2877427" lon="14.2593728"><ele>287.0</ele><time>2026-05-01T08:57:06.489Z</time></trkpt><trkpt lat="42.2878607" lon="14.2593473"><ele>287.0</ele><time>2026-05-01T08:57:07.487Z</time></trkpt><trkpt lat="42.2879822" lon="14.2592912"><ele>288.25</ele><time>2026-05-01T08:57:08.488Z</time></trkpt><trkpt lat="42.2881079" lon="14.2592135"><ele>289.5</ele><time>2026-05-01T08:57:09.487Z</time></trkpt><trkpt lat="42.2882094" lon="14.2591324"><ele>290.75</ele><time>2026-05-01T08:57:10.488Z</time></trkpt><trkpt lat="42.2882967" lon="14.2590542"><ele>292.0</ele><time>2026-05-01T08:57:11.487Z</time></trkpt><trkpt lat="42.2883757" lon="14.2589631"><ele>293.75</ele><time>2026-05-01T08:57:12.487Z</time></trkpt><trkpt lat="42.2884584" lon="14.2588527"><ele>295.5</ele><time>2026-05-01T08:57:13.488Z</time></trkpt><trkpt lat="42.2885545" lon="14.2587419"><ele>297.25</ele><time>2026-05-01T08:57:14.488Z</time></trkpt><trkpt lat="42.2886601" lon="14.2586325"><ele>299.0</ele><time>2026-05-01T08:57:15.488Z</time></trkpt><trkpt lat="42.2887547" lon="14.2585387"><ele>299.0</ele><time>2026-05-01T08:57:16.486Z</time></trkpt><trkpt lat="42.2888396" lon="14.258433"><ele>299.0</ele><time>2026-05-01T08:57:17.488Z</time></trkpt><trkpt lat="42.2889147" lon="14.2583351"><ele>299.0</ele><time>2026-05-01T08:57:18.486Z</time></trkpt><trkpt lat="42.2889715" lon="14.2582423"><ele>299.0</ele><time>2026-05-01T08:57:19.487Z</time></trkpt><trkpt lat="42.2890223" lon="14.2581521"><ele>299.0</ele><time>2026-05-01T08:57:20.486Z</time></trkpt><trkpt lat="42.289073" lon="14.2580811"><ele>298.4</ele><time>2026-05-01T08:57:21.488Z</time></trkpt><trkpt lat="42.2891399" lon="14.2579936"><ele>297.79999999999995</ele><time>2026-05-01T08:57:23.487Z</time></trkpt><trkpt lat="42.2891432" lon="14.2579001"><ele>297.20000000000005</ele><time>2026-05-01T08:57:27.487Z</time></trkpt><trkpt lat="42.289048" lon="14.257785"><ele>296.6</ele><time>2026-05-01T08:57:29.488Z</time></trkpt><trkpt lat="42.2889324" lon="14.2576674"><ele>296.0</ele><time>2026-05-01T08:57:30.486Z</time></trkpt><trkpt lat="42.2888359" lon="14.2575416"><ele>298.0</ele><time>2026-05-01T08:57:31.486Z</time></trkpt><trkpt lat="42.2887179" lon="14.2574003"><ele>300.0</ele><time>2026-05-01T08:57:32.487Z</time></trkpt><trkpt lat="42.2885951" lon="14.257264"><ele>302.0</ele><time>2026-05-01T08:57:33.486Z</time></trkpt><trkpt lat="42.2884507" lon="14.2571341"><ele>302.0</ele><time>2026-05-01T08:57:34.488Z</time></trkpt><trkpt lat="42.2882499" lon="14.2570213"><ele>302.0</ele><time>2026-05-01T08:57:35.487Z</time></trkpt><trkpt lat="42.2880532" lon="14.256928"><ele>302.0</ele><time>2026-05-01T08:57:36.487Z</time></trkpt><trkpt lat="42.2878424" lon="14.256812"><ele>303.0</ele><time>2026-05-01T08:57:37.487Z</time></trkpt><trkpt lat="42.2876443" lon="14.2567033"><ele>304.0</ele><time>2026-05-01T08:57:38.487Z</time></trkpt><trkpt lat="42.2874603" lon="14.2565934"><ele>305.0</ele><time>2026-05-01T08:57:39.487Z</time></trkpt><trkpt lat="42.287303" lon="14.2564504"><ele>306.6666666666667</ele><time>2026-05-01T08:57:40.488Z</time></trkpt><trkpt lat="42.2871345" lon="14.2562811"><ele>308.3333333333333</ele><time>2026-05-01T08:57:41.487Z</time></trkpt><trkpt lat="42.2869542" lon="14.2561043"><ele>310.0</ele><time>2026-05-01T08:57:42.486Z</time></trkpt><trkpt lat="42.2867615" lon="14.2559199"><ele>310.0</ele><time>2026-05-01T08:57:43.488Z</time></trkpt><trkpt lat="42.2865642" lon="14.2557312"><ele>310.0</ele><time>2026-05-01T08:57:44.487Z</time></trkpt><trkpt lat="42.2863546" lon="14.2555336"><ele>311.5</ele><time>2026-05-01T08:57:45.487Z</time></trkpt><trkpt lat="42.286135" lon="14.2553495"><ele>313.0</ele><time>2026-05-01T08:57:46.487Z</time></trkpt><trkpt lat="42.2858996" lon="14.255174"><ele>313.0</ele><time>2026-05-01T08:57:47.487Z</time></trkpt><trkpt lat="42.2856642" lon="14.2550029"><ele>313.0</ele><time>2026-05-01T08:57:48.487Z</time></trkpt><trkpt lat="42.2854525" lon="14.2548543"><ele>313.3333333333333</ele><time>2026-05-01T08:57:49.488Z</time></trkpt><trkpt lat="42.2852542" lon="14.2547189"><ele>313.6666666666667</ele><time>2026-05-01T08:57:50.487Z</time></trkpt><trkpt lat="42.2850646" lon="14.2545856"><ele>314.0</ele><time>2026-05-01T08:57:51.487Z</time></trkpt><trkpt lat="42.2848763" lon="14.254458"><ele>314.0</ele><time>2026-05-01T08:57:52.488Z</time></trkpt><trkpt lat="42.2846821" lon="14.254326"><ele>314.0</ele><time>2026-05-01T08:57:53.487Z</time></trkpt><trkpt lat="42.2844928" lon="14.2542037"><ele>314.0</ele><time>2026-05-01T08:57:54.487Z</time></trkpt><trkpt lat="42.2843036" lon="14.2540919"><ele>314.0</ele><time>2026-05-01T08:57:55.487Z</time></trkpt><trkpt lat="42.2841019" lon="14.2539952"><ele>314.0</ele><time>2026-05-01T08:57:56.487Z</time></trkpt><trkpt lat="42.2839089" lon="14.2538869"><ele>314.0</ele><time>2026-05-01T08:57:57.487Z</time></trkpt><trkpt lat="42.2837179" lon="14.2537686"><ele>314.0</ele><time>2026-05-01T08:57:58.487Z</time></trkpt><trkpt lat="42.2835149" lon="14.2536455"><ele>314.0</ele><time>2026-05-01T08:57:59.487Z</time></trkpt><trkpt lat="42.283297" lon="14.253524"><ele>313.0</ele><time>2026-05-01T08:58:00.486Z</time></trkpt><trkpt lat="42.2830764" lon="14.2534033"><ele>312.0</ele><time>2026-05-01T08:58:01.486Z</time></trkpt><trkpt lat="42.2828414" lon="14.2532825"><ele>312.0</ele><time>2026-05-01T08:58:02.488Z</time></trkpt><trkpt lat="42.2825974" lon="14.2531678"><ele>312.0</ele><time>2026-05-01T08:58:03.487Z</time></trkpt><trkpt lat="42.2823483" lon="14.2530567"><ele>312.5</ele><time>2026-05-01T08:58:04.486Z</time></trkpt><trkpt lat="42.2820906" lon="14.2529485"><ele>313.0</ele><time>2026-05-01T08:58:05.486Z</time></trkpt><trkpt lat="42.2818357" lon="14.2528415"><ele>313.0</ele><time>2026-05-01T08:58:06.487Z</time></trkpt><trkpt lat="42.2815699" lon="14.2527362"><ele>313.0</ele><time>2026-05-01T08:58:07.488Z</time></trkpt><trkpt lat="42.2813028" lon="14.2526224"><ele>314.5</ele><time>2026-05-01T08:58:08.487Z</time></trkpt><trkpt lat="42.2810369" lon="14.2525121"><ele>316.0</ele><time>2026-05-01T08:58:09.487Z</time></trkpt><trkpt lat="42.2807832" lon="14.2524142"><ele>316.0</ele><time>2026-05-01T08:58:10.486Z</time></trkpt><trkpt lat="42.2805505" lon="14.2523113"><ele>316.0</ele><time>2026-05-01T08:58:11.487Z</time></trkpt><trkpt lat="42.280321" lon="14.2522201"><ele>316.0</ele><time>2026-05-01T08:58:12.486Z</time></trkpt><trkpt lat="42.2801073" lon="14.2521292"><ele>316.0</ele><time>2026-05-01T08:58:13.487Z</time></trkpt><trkpt lat="42.2798873" lon="14.25202"><ele>317.5</ele><time>2026-05-01T08:58:14.487Z</time></trkpt><trkpt lat="42.2796569" lon="14.2518851"><ele>319.0</ele><time>2026-05-01T08:58:15.487Z</time></trkpt><trkpt lat="42.2794092" lon="14.2517559"><ele>319.0</ele><time>2026-05-01T08:58:16.486Z</time></trkpt><trkpt lat="42.2791531" lon="14.2516297"><ele>319.0</ele><time>2026-05-01T08:58:17.487Z</time></trkpt><trkpt lat="42.2789235" lon="14.2515183"><ele>321.0</ele><time>2026-05-01T08:58:18.486Z</time></trkpt><trkpt lat="42.278702" lon="14.2514287"><ele>323.0</ele><time>2026-05-01T08:58:19.487Z</time></trkpt><trkpt lat="42.2784755" lon="14.2513335"><ele>323.0</ele><time>2026-05-01T08:58:20.487Z</time></trkpt><trkpt lat="42.2782311" lon="14.2512424"><ele>323.0</ele><time>2026-05-01T08:58:21.486Z</time></trkpt><trkpt lat="42.2779743" lon="14.2511486"><ele>325.0</ele><time>2026-05-01T08:58:22.486Z</time></trkpt><trkpt lat="42.2777209" lon="14.2510504"><ele>327.0</ele><time>2026-05-01T08:58:23.488Z</time></trkpt><trkpt lat="42.2774843" lon="14.2509724"><ele>327.0</ele><time>2026-05-01T08:58:24.486Z</time></trkpt><trkpt lat="42.2772838" lon="14.2509163"><ele>327.0</ele><time>2026-05-01T08:58:25.487Z</time></trkpt><trkpt lat="42.2771237" lon="14.2508866"><ele>327.0</ele><time>2026-05-01T08:58:26.487Z</time></trkpt><trkpt lat="42.2769914" lon="14.2508703"><ele>328.0</ele><time>2026-05-01T08:58:27.487Z</time></trkpt><trkpt lat="42.2768683" lon="14.2508435"><ele>329.0</ele><time>2026-05-01T08:58:28.487Z</time></trkpt><trkpt lat="42.276769" lon="14.2507676"><ele>330.0</ele><time>2026-05-01T08:58:29.488Z</time></trkpt><trkpt lat="42.2766463" lon="14.2506496"><ele>331.0</ele><time>2026-05-01T08:58:30.487Z</time></trkpt><trkpt lat="42.2765167" lon="14.2505273"><ele>330.3333333333333</ele><time>2026-05-01T08:58:31.487Z</time></trkpt><trkpt lat="42.2764031" lon="14.2503717"><ele>329.6666666666667</ele><time>2026-05-01T08:58:32.487Z</time></trkpt><trkpt lat="42.2762935" lon="14.2502154"><ele>329.0</ele><time>2026-05-01T08:58:33.487Z</time></trkpt><trkpt lat="42.2762234" lon="14.2500316"><ele>329.0</ele><time>2026-05-01T08:58:34.487Z</time></trkpt><trkpt lat="42.2761482" lon="14.2498785"><ele>329.0</ele><time>2026-05-01T08:58:35.487Z</time></trkpt><trkpt lat="42.2760602" lon="14.2497768"><ele>329.0</ele><time>2026-05-01T08:58:36.487Z</time></trkpt><trkpt lat="42.275943" lon="14.2496874"><ele>329.0</ele><time>2026-05-01T08:58:37.487Z</time></trkpt><trkpt lat="42.2757933" lon="14.249599"><ele>326.33333333333337</ele><time>2026-05-01T08:58:38.486Z</time></trkpt><trkpt lat="42.2756265" lon="14.2495036"><ele>323.6666666666667</ele><time>2026-05-01T08:58:39.488Z</time></trkpt><trkpt lat="42.2754717" lon="14.2493998"><ele>321.0</ele><time>2026-05-01T08:58:40.487Z</time></trkpt><trkpt lat="42.275327" lon="14.2492909"><ele>321.0</ele><time>2026-05-01T08:58:41.488Z</time></trkpt><trkpt lat="42.2751869" lon="14.2491858"><ele>321.0</ele><time>2026-05-01T08:58:42.486Z</time></trkpt><trkpt lat="42.2750387" lon="14.2490892"><ele>321.0</ele><time>2026-05-01T08:58:43.487Z</time></trkpt><trkpt lat="42.2748553" lon="14.2489432"><ele>312.6666666666667</ele><time>2026-05-01T08:58:44.487Z</time></trkpt><trkpt lat="42.2746226" lon="14.2488621"><ele>304.33333333333337</ele><time>2026-05-01T08:58:45.486Z</time></trkpt><trkpt lat="42.2744335" lon="14.2487675"><ele>296.0</ele><time>2026-05-01T08:58:46.487Z</time></trkpt><trkpt lat="42.274244" lon="14.2486992"><ele>296.0</ele><time>2026-05-01T08:58:47.487Z</time></trkpt><trkpt lat="42.2740578" lon="14.2486073"><ele>296.0</ele><time>2026-05-01T08:58:48.488Z</time></trkpt><trkpt lat="42.2738632" lon="14.24847"><ele>296.0</ele><time>2026-05-01T08:58:49.487Z</time></trkpt><trkpt lat="42.2736808" lon="14.2483349"><ele>300.0</ele><time>2026-05-01T08:58:50.487Z</time></trkpt><trkpt lat="42.2735056" lon="14.248217"><ele>304.0</ele><time>2026-05-01T08:58:51.488Z</time></trkpt><trkpt lat="42.2733993" lon="14.2480875"><ele>308.0</ele><time>2026-05-01T08:58:52.487Z</time></trkpt><trkpt lat="42.273284" lon="14.2479654"><ele>307.25</ele><time>2026-05-01T08:58:53.486Z</time></trkpt><trkpt lat="42.2731748" lon="14.2478463"><ele>306.5</ele><time>2026-05-01T08:58:54.486Z</time></trkpt><trkpt lat="42.2731262" lon="14.2477066"><ele>305.75</ele><time>2026-05-01T08:58:55.488Z</time></trkpt><trkpt lat="42.2730965" lon="14.2475515"><ele>305.0</ele><time>2026-05-01T08:58:56.486Z</time></trkpt><trkpt lat="42.2730678" lon="14.2473882"><ele>299.5</ele><time>2026-05-01T08:58:57.487Z</time></trkpt><trkpt lat="42.2730295" lon="14.2471948"><ele>294.0</ele><time>2026-05-01T08:58:58.487Z</time></trkpt><trkpt lat="42.2729932" lon="14.2470061"><ele>288.5</ele><time>2026-05-01T08:58:59.486Z</time></trkpt><trkpt lat="42.2729612" lon="14.2468135"><ele>283.0</ele><time>2026-05-01T08:59:00.487Z</time></trkpt><trkpt lat="42.2729295" lon="14.2466139"><ele>280.75</ele><time>2026-05-01T08:59:01.487Z</time></trkpt><trkpt lat="42.2729093" lon="14.2464403"><ele>278.5</ele><time>2026-05-01T08:59:02.487Z</time></trkpt><trkpt lat="42.2728816" lon="14.2462756"><ele>276.25</ele><time>2026-05-01T08:59:03.487Z</time></trkpt><trkpt lat="42.2728625" lon="14.2461455"><ele>274.0</ele><time>2026-05-01T08:59:04.487Z</time></trkpt><trkpt lat="42.2728246" lon="14.2460052"><ele>274.0</ele><time>2026-05-01T08:59:05.487Z</time></trkpt><trkpt lat="42.2727831" lon="14.2458671"><ele>274.0</ele><time>2026-05-01T08:59:06.488Z</time></trkpt><trkpt lat="42.2726885" lon="14.2457347"><ele>274.0</ele><time>2026-05-01T08:59:07.486Z</time></trkpt><trkpt lat="42.2726009" lon="14.2455914"><ele>274.0</ele><time>2026-05-01T08:59:08.487Z</time></trkpt><trkpt lat="42.2725095" lon="14.2454307"><ele>274.25</ele><time>2026-05-01T08:59:09.487Z</time></trkpt><trkpt lat="42.2724038" lon="14.2452656"><ele>274.5</ele><time>2026-05-01T08:59:10.487Z</time></trkpt><trkpt lat="42.272336" lon="14.2451075"><ele>274.75</ele><time>2026-05-01T08:59:11.486Z</time></trkpt><trkpt lat="42.2722622" lon="14.24494"><ele>275.0</ele><time>2026-05-01T08:59:12.487Z</time></trkpt><trkpt lat="42.2721831" lon="14.2447819"><ele>277.5</ele><time>2026-05-01T08:59:13.487Z</time></trkpt><trkpt lat="42.272101" lon="14.2446452"><ele>280.0</ele><time>2026-05-01T08:59:14.487Z</time></trkpt><trkpt lat="42.2720136" lon="14.2445186"><ele>282.5</ele><time>2026-05-01T08:59:15.486Z</time></trkpt><trkpt lat="42.2719199" lon="14.2444483"><ele>285.0</ele><time>2026-05-01T08:59:16.487Z</time></trkpt><trkpt lat="42.2718361" lon="14.2443912"><ele>285.0</ele><time>2026-05-01T08:59:17.486Z</time></trkpt><trkpt lat="42.2717364" lon="14.244355"><ele>285.0</ele><time>2026-05-01T08:59:18.486Z</time></trkpt><trkpt lat="42.2716167" lon="14.2443247"><ele>285.0</ele><time>2026-05-01T08:59:19.487Z</time></trkpt><trkpt lat="42.2714897" lon="14.2443022"><ele>285.0</ele><time>2026-05-01T08:59:20.487Z</time></trkpt><trkpt lat="42.2713552" lon="14.2442566"><ele>284.0</ele><time>2026-05-01T08:59:21.487Z</time></trkpt><trkpt lat="42.2712396" lon="14.2441714"><ele>283.0</ele><time>2026-05-01T08:59:22.486Z</time></trkpt><trkpt lat="42.2711068" lon="14.2440704"><ele>282.0</ele><time>2026-05-01T08:59:23.486Z</time></trkpt><trkpt lat="42.2709703" lon="14.2439851"><ele>281.0</ele><time>2026-05-01T08:59:24.487Z</time></trkpt><trkpt lat="42.2708191" lon="14.2438939"><ele>283.33333333333337</ele><time>2026-05-01T08:59:25.487Z</time></trkpt><trkpt lat="42.2706883" lon="14.2437828"><ele>285.6666666666667</ele><time>2026-05-01T08:59:26.486Z</time></trkpt><trkpt lat="42.270556" lon="14.243661"><ele>288.0</ele><time>2026-05-01T08:59:27.487Z</time></trkpt><trkpt lat="42.2704519" lon="14.243533"><ele>288.0</ele><time>2026-05-01T08:59:28.487Z</time></trkpt><trkpt lat="42.2703441" lon="14.2434048"><ele>288.0</ele><time>2026-05-01T08:59:29.486Z</time></trkpt><trkpt lat="42.2702307" lon="14.2432646"><ele>288.0</ele><time>2026-05-01T08:59:30.487Z</time></trkpt><trkpt lat="42.2700753" lon="14.2430793"><ele>289.6666666666667</ele><time>2026-05-01T08:59:31.488Z</time></trkpt><trkpt lat="42.2699024" lon="14.2429091"><ele>291.33333333333337</ele><time>2026-05-01T08:59:32.486Z</time></trkpt><trkpt lat="42.2697127" lon="14.2427233"><ele>293.0</ele><time>2026-05-01T08:59:33.488Z</time></trkpt><trkpt lat="42.2695186" lon="14.2425519"><ele>293.0</ele><time>2026-05-01T08:59:34.487Z</time></trkpt><trkpt lat="42.2693612" lon="14.2424149"><ele>293.0</ele><time>2026-05-01T08:59:35.487Z</time></trkpt><trkpt lat="42.2692156" lon="14.2422738"><ele>293.0</ele><time>2026-05-01T08:59:36.487Z</time></trkpt><trkpt lat="42.2691289" lon="14.2420798"><ele>295.0</ele><time>2026-05-01T08:59:37.486Z</time></trkpt><trkpt lat="42.2690174" lon="14.2418715"><ele>297.0</ele><time>2026-05-01T08:59:38.487Z</time></trkpt><trkpt lat="42.2689248" lon="14.2417122"><ele>299.0</ele><time>2026-05-01T08:59:39.488Z</time></trkpt><trkpt lat="42.2688641" lon="14.241592"><ele>301.0</ele><time>2026-05-01T08:59:40.487Z</time></trkpt><trkpt lat="42.2687878" lon="14.2414632"><ele>301.2</ele><time>2026-05-01T08:59:42.486Z</time></trkpt><trkpt lat="42.2687314" lon="14.2415114"><ele>301.40000000000003</ele><time>2026-05-01T08:59:45.487Z</time></trkpt><trkpt lat="42.2686626" lon="14.2414959"><ele>301.6</ele><time>2026-05-01T08:59:46.487Z</time></trkpt><trkpt lat="42.2685759" lon="14.2414651"><ele>301.8</ele><time>2026-05-01T08:59:47.486Z</time></trkpt><trkpt lat="42.2684712" lon="14.2414263"><ele>302.0</ele><time>2026-05-01T08:59:48.487Z</time></trkpt><trkpt lat="42.2683491" lon="14.2413818"><ele>304.0</ele><time>2026-05-01T08:59:49.488Z</time></trkpt><trkpt lat="42.2682207" lon="14.2413224"><ele>306.0</ele><time>2026-05-01T08:59:50.487Z</time></trkpt><trkpt lat="42.2681054" lon="14.2412596"><ele>308.0</ele><time>2026-05-01T08:59:51.487Z</time></trkpt><trkpt lat="42.2679911" lon="14.2411962"><ele>310.0</ele><time>2026-05-01T08:59:52.487Z</time></trkpt><trkpt lat="42.2678818" lon="14.2411502"><ele>310.0</ele><time>2026-05-01T08:59:53.486Z</time></trkpt><trkpt lat="42.2678194" lon="14.2410358"><ele>310.0</ele><time>2026-05-01T08:59:54.487Z</time></trkpt><trkpt lat="42.2677345" lon="14.2409399"><ele>310.0</ele><time>2026-05-01T08:59:55.487Z</time></trkpt><trkpt lat="42.2676563" lon="14.2407988"><ele>310.0</ele><time>2026-05-01T08:59:56.486Z</time></trkpt><trkpt lat="42.2675704" lon="14.2406655"><ele>311.25</ele><time>2026-05-01T08:59:57.487Z</time></trkpt><trkpt lat="42.2675008" lon="14.2405177"><ele>312.5</ele><time>2026-05-01T08:59:58.486Z</time></trkpt><trkpt lat="42.2674643" lon="14.2403464"><ele>313.75</ele><time>2026-05-01T08:59:59.486Z</time></trkpt><trkpt lat="42.2674033" lon="14.2402056"><ele>315.0</ele><time>2026-05-01T09:00:00.485Z</time></trkpt><trkpt lat="42.2673519" lon="14.2400625"><ele>315.0</ele><time>2026-05-01T09:00:01.486Z</time></trkpt><trkpt lat="42.2673107" lon="14.239938"><ele>315.0</ele><time>2026-05-01T09:00:02.486Z</time></trkpt><trkpt lat="42.2672375" lon="14.2398179"><ele>315.0</ele><time>2026-05-01T09:00:03.485Z</time></trkpt><trkpt lat="42.2671793" lon="14.2397123"><ele>315.0</ele><time>2026-05-01T09:00:04.486Z</time></trkpt><trkpt lat="42.2671754" lon="14.2395558"><ele>315.0</ele><time>2026-05-01T09:00:05.485Z</time></trkpt><trkpt lat="42.2671762" lon="14.2394139"><ele>318.2</ele><time>2026-05-01T09:00:06.486Z</time></trkpt><trkpt lat="42.2671451" lon="14.2392829"><ele>321.4</ele><time>2026-05-01T09:00:07.486Z</time></trkpt><trkpt lat="42.2671001" lon="14.2391366"><ele>324.6</ele><time>2026-05-01T09:00:08.486Z</time></trkpt><trkpt lat="42.267058" lon="14.239039"><ele>327.8</ele><time>2026-05-01T09:00:09.486Z</time></trkpt><trkpt lat="42.2669984" lon="14.2389709"><ele>331.0</ele><time>2026-05-01T09:00:10.486Z</time></trkpt><trkpt lat="42.2669396" lon="14.23891"><ele>331.16666666666663</ele><time>2026-05-01T09:00:11.486Z</time></trkpt><trkpt lat="42.2668799" lon="14.2388586"><ele>331.3333333333333</ele><time>2026-05-01T09:00:12.486Z</time></trkpt><trkpt lat="42.2667999" lon="14.2387837"><ele>331.5</ele><time>2026-05-01T09:00:14.486Z</time></trkpt><trkpt lat="42.2667332" lon="14.2387143"><ele>331.6666666666667</ele><time>2026-05-01T09:00:16.485Z</time></trkpt><trkpt lat="42.2666828" lon="14.2386588"><ele>331.83333333333337</ele><time>2026-05-01T09:00:17.486Z</time></trkpt><trkpt lat="42.2665872" lon="14.2385648"><ele>332.0</ele><time>2026-05-01T09:00:19.485Z</time></trkpt><trkpt lat="42.2665388" lon="14.238506"><ele>333.0</ele><time>2026-05-01T09:00:20.486Z</time></trkpt><trkpt lat="42.2664416" lon="14.238397"><ele>334.0</ele><time>2026-05-01T09:00:22.487Z</time></trkpt><trkpt lat="42.2663641" lon="14.238281"><ele>335.0</ele><time>2026-05-01T09:00:23.485Z</time></trkpt><trkpt lat="42.2662862" lon="14.238219"><ele>336.0</ele><time>2026-05-01T09:00:24.485Z</time></trkpt><trkpt lat="42.2662041" lon="14.2381467"><ele>337.0</ele><time>2026-05-01T09:00:25.485Z</time></trkpt><trkpt lat="42.2661186" lon="14.2380509"><ele>337.0</ele><time>2026-05-01T09:00:26.487Z</time></trkpt><trkpt lat="42.2660384" lon="14.2379936"><ele>337.0</ele><time>2026-05-01T09:00:27.485Z</time></trkpt><trkpt lat="42.2659473" lon="14.2379257"><ele>337.0</ele><time>2026-05-01T09:00:28.486Z</time></trkpt><trkpt lat="42.2658681" lon="14.2378594"><ele>337.0</ele><time>2026-05-01T09:00:29.486Z</time></trkpt><trkpt lat="42.2657922" lon="14.2377772"><ele>337.0</ele><time>2026-05-01T09:00:30.486Z</time></trkpt><trkpt lat="42.2657097" lon="14.2376957"><ele>337.0</ele><time>2026-05-01T09:00:31.485Z</time></trkpt><trkpt lat="42.2656329" lon="14.2376177"><ele>337.0</ele><time>2026-05-01T09:00:32.486Z</time></trkpt><trkpt lat="42.2655924" lon="14.2374907"><ele>337.0</ele><time>2026-05-01T09:00:33.486Z</time></trkpt><trkpt lat="42.2655276" lon="14.2373626"><ele>337.0</ele><time>2026-05-01T09:00:34.487Z</time></trkpt><trkpt lat="42.2654678" lon="14.2372363"><ele>337.0</ele><time>2026-05-01T09:00:35.485Z</time></trkpt><trkpt lat="42.2654201" lon="14.2370871"><ele>338.20000000000005</ele><time>2026-05-01T09:00:36.486Z</time></trkpt><trkpt lat="42.2653537" lon="14.2369354"><ele>339.4</ele><time>2026-05-01T09:00:37.485Z</time></trkpt><trkpt lat="42.2652965" lon="14.2367903"><ele>340.6</ele><time>2026-05-01T09:00:38.486Z</time></trkpt><trkpt lat="42.2652529" lon="14.2366738"><ele>341.79999999999995</ele><time>2026-05-01T09:00:39.486Z</time></trkpt><trkpt lat="42.2652073" lon="14.2365545"><ele>343.0</ele><time>2026-05-01T09:00:40.485Z</time></trkpt><trkpt lat="42.2651265" lon="14.2364273"><ele>343.0</ele><time>2026-05-01T09:00:42.485Z</time></trkpt><trkpt lat="42.2650857" lon="14.2363274"><ele>343.0</ele><time>2026-05-01T09:00:43.486Z</time></trkpt><trkpt lat="42.265041" lon="14.2362442"><ele>343.0</ele><time>2026-05-01T09:00:44.486Z</time></trkpt><trkpt lat="42.2649634" lon="14.2361423"><ele>343.0</ele><time>2026-05-01T09:00:46.487Z</time></trkpt><trkpt lat="42.2649025" lon="14.2360853"><ele>343.0</ele><time>2026-05-01T09:00:47.486Z</time></trkpt><trkpt lat="42.264793" lon="14.2360126"><ele>340.8333333333333</ele><time>2026-05-01T09:00:49.486Z</time></trkpt><trkpt lat="42.2647295" lon="14.2360205"><ele>338.66666666666663</ele><time>2026-05-01T09:00:51.487Z</time></trkpt><trkpt lat="42.2646734" lon="14.2360962"><ele>336.5</ele><time>2026-05-01T09:01:00.486Z</time></trkpt><trkpt lat="42.2646229" lon="14.2361488"><ele>334.3333333333333</ele><time>2026-05-01T09:01:01.486Z</time></trkpt><trkpt lat="42.2645423" lon="14.236252"><ele>332.1666666666667</ele><time>2026-05-01T09:01:02.487Z</time></trkpt><trkpt lat="42.2644694" lon="14.2363487"><ele>330.0</ele><time>2026-05-01T09:01:03.486Z</time></trkpt><trkpt lat="42.2643711" lon="14.2364287"><ele>330.0</ele><time>2026-05-01T09:01:04.487Z</time></trkpt><trkpt lat="42.2642572" lon="14.2364629"><ele>330.0</ele><time>2026-05-01T09:01:05.486Z</time></trkpt><trkpt lat="42.2641419" lon="14.2365237"><ele>330.0</ele><time>2026-05-01T09:01:06.487Z</time></trkpt><trkpt lat="42.2640407" lon="14.2366027"><ele>330.0</ele><time>2026-05-01T09:01:07.485Z</time></trkpt><trkpt lat="42.263964" lon="14.2366658"><ele>330.0</ele><time>2026-05-01T09:01:08.486Z</time></trkpt><trkpt lat="42.2638916" lon="14.2367308"><ele>333.0</ele><time>2026-05-01T09:01:09.487Z</time></trkpt><trkpt lat="42.2638025" lon="14.2367589"><ele>336.0</ele><time>2026-05-01T09:01:10.486Z</time></trkpt><trkpt lat="42.263705" lon="14.2367759"><ele>339.0</ele><time>2026-05-01T09:01:11.486Z</time></trkpt><trkpt lat="42.2635965" lon="14.2367507"><ele>342.0</ele><time>2026-05-01T09:01:12.486Z</time></trkpt><trkpt lat="42.2634863" lon="14.2367191"><ele>345.0</ele><time>2026-05-01T09:01:13.487Z</time></trkpt><trkpt lat="42.2633911" lon="14.2367118"><ele>345.0</ele><time>2026-05-01T09:01:14.486Z</time></trkpt><trkpt lat="42.2632836" lon="14.2367268"><ele>345.0</ele><time>2026-05-01T09:01:15.486Z</time></trkpt><trkpt lat="42.26317" lon="14.2367856"><ele>345.0</ele><time>2026-05-01T09:01:16.486Z</time></trkpt><trkpt lat="42.2630455" lon="14.2368684"><ele>345.0</ele><time>2026-05-01T09:01:17.485Z</time></trkpt><trkpt lat="42.2629046" lon="14.236942"><ele>344.3333333333333</ele><time>2026-05-01T09:01:18.486Z</time></trkpt><trkpt lat="42.2627506" lon="14.2370141"><ele>343.66666666666663</ele><time>2026-05-01T09:01:19.486Z</time></trkpt><trkpt lat="42.2626005" lon="14.2370779"><ele>343.0</ele><time>2026-05-01T09:01:20.486Z</time></trkpt><trkpt lat="42.2624403" lon="14.2371228"><ele>340.3333333333333</ele><time>2026-05-01T09:01:21.486Z</time></trkpt><trkpt lat="42.2622719" lon="14.2371517"><ele>337.6666666666667</ele><time>2026-05-01T09:01:22.485Z</time></trkpt><trkpt lat="42.262121" lon="14.2371704"><ele>335.0</ele><time>2026-05-01T09:01:23.485Z</time></trkpt><trkpt lat="42.2619791" lon="14.2371773"><ele>335.0</ele><time>2026-05-01T09:01:24.486Z</time></trkpt><trkpt lat="42.2618324" lon="14.2372154"><ele>335.0</ele><time>2026-05-01T09:01:25.485Z</time></trkpt><trkpt lat="42.2617008" lon="14.2372583"><ele>335.0</ele><time>2026-05-01T09:01:26.486Z</time></trkpt><trkpt lat="42.2615774" lon="14.2373099"><ele>335.0</ele><time>2026-05-01T09:01:27.487Z</time></trkpt><trkpt lat="42.261446" lon="14.2373952"><ele>337.8</ele><time>2026-05-01T09:01:28.486Z</time></trkpt><trkpt lat="42.2613412" lon="14.2374593"><ele>340.6</ele><time>2026-05-01T09:01:29.486Z</time></trkpt><trkpt lat="42.2612374" lon="14.2375282"><ele>343.4</ele><time>2026-05-01T09:01:30.487Z</time></trkpt><trkpt lat="42.2611531" lon="14.2375623"><ele>346.2</ele><time>2026-05-01T09:01:31.485Z</time></trkpt><trkpt lat="42.261081" lon="14.2376017"><ele>349.0</ele><time>2026-05-01T09:01:32.486Z</time></trkpt><trkpt lat="42.2610165" lon="14.2377048"><ele>349.0</ele><time>2026-05-01T09:01:33.486Z</time></trkpt><trkpt lat="42.2609505" lon="14.2378314"><ele>349.0</ele><time>2026-05-01T09:01:34.486Z</time></trkpt><trkpt lat="42.2608766" lon="14.2379918"><ele>349.0</ele><time>2026-05-01T09:01:35.486Z</time></trkpt><trkpt lat="42.2608078" lon="14.238138"><ele>349.0</ele><time>2026-05-01T09:01:36.486Z</time></trkpt><trkpt lat="42.2607516" lon="14.2382574"><ele>349.2</ele><time>2026-05-01T09:01:37.487Z</time></trkpt><trkpt lat="42.2606882" lon="14.2383937"><ele>349.4</ele><time>2026-05-01T09:01:38.486Z</time></trkpt><trkpt lat="42.260639" lon="14.2385295"><ele>349.6</ele><time>2026-05-01T09:01:39.486Z</time></trkpt><trkpt lat="42.2605997" lon="14.2386531"><ele>349.8</ele><time>2026-05-01T09:01:40.486Z</time></trkpt><trkpt lat="42.2605586" lon="14.2387549"><ele>350.0</ele><time>2026-05-01T09:01:41.486Z</time></trkpt><trkpt lat="42.2605047" lon="14.2388526"><ele>350.0</ele><time>2026-05-01T09:01:42.487Z</time></trkpt><trkpt lat="42.2604508" lon="14.2389386"><ele>350.0</ele><time>2026-05-01T09:01:43.486Z</time></trkpt><trkpt lat="42.2603813" lon="14.2390196"><ele>350.0</ele><time>2026-05-01T09:01:44.486Z</time></trkpt><trkpt lat="42.260295" lon="14.2390909"><ele>350.0</ele><time>2026-05-01T09:01:45.485Z</time></trkpt><trkpt lat="42.260212" lon="14.2391621"><ele>350.0</ele><time>2026-05-01T09:01:46.485Z</time></trkpt><trkpt lat="42.2601217" lon="14.2392007"><ele>351.0</ele><time>2026-05-01T09:01:47.485Z</time></trkpt><trkpt lat="42.2600404" lon="14.2392274"><ele>352.0</ele><time>2026-05-01T09:01:48.485Z</time></trkpt><trkpt lat="42.2599711" lon="14.2392464"><ele>353.0</ele><time>2026-05-01T09:01:49.485Z</time></trkpt><trkpt lat="42.2598889" lon="14.2392362"><ele>354.0</ele><time>2026-05-01T09:01:50.486Z</time></trkpt><trkpt lat="42.2598161" lon="14.2391961"><ele>355.0</ele><time>2026-05-01T09:01:51.486Z</time></trkpt><trkpt lat="42.2597463" lon="14.2391806"><ele>356.0</ele><time>2026-05-01T09:01:52.486Z</time></trkpt><trkpt lat="42.2596751" lon="14.2391536"><ele>357.0</ele><time>2026-05-01T09:01:53.486Z</time></trkpt><trkpt lat="42.2595178" lon="14.2391129"><ele>358.0</ele><time>2026-05-01T09:01:55.487Z</time></trkpt><trkpt lat="42.2594687" lon="14.2390422"><ele>359.0</ele><time>2026-05-01T09:01:56.487Z</time></trkpt><trkpt lat="42.2593711" lon="14.2391117"><ele>360.0</ele><time>2026-05-01T09:01:57.487Z</time></trkpt><trkpt lat="42.2592682" lon="14.2391402"><ele>361.0</ele><time>2026-05-01T09:01:58.485Z</time></trkpt><trkpt lat="42.2591634" lon="14.2391589"><ele>361.0</ele><time>2026-05-01T09:01:59.486Z</time></trkpt><trkpt lat="42.2590699" lon="14.2391746"><ele>361.0</ele><time>2026-05-01T09:02:00.487Z</time></trkpt><trkpt lat="42.258969" lon="14.2391581"><ele>361.0</ele><time>2026-05-01T09:02:01.486Z</time></trkpt><trkpt lat="42.2588455" lon="14.2391332"><ele>361.0</ele><time>2026-05-01T09:02:02.485Z</time></trkpt><trkpt lat="42.2587442" lon="14.2391639"><ele>361.0</ele><time>2026-05-01T09:02:03.486Z</time></trkpt><trkpt lat="42.2586404" lon="14.2391824"><ele>363.0</ele><time>2026-05-01T09:02:04.487Z</time></trkpt><trkpt lat="42.2585339" lon="14.2392287"><ele>365.0</ele><time>2026-05-01T09:02:05.486Z</time></trkpt><trkpt lat="42.2584376" lon="14.2393068"><ele>367.0</ele><time>2026-05-01T09:02:06.486Z</time></trkpt><trkpt lat="42.2583385" lon="14.2393701"><ele>369.0</ele><time>2026-05-01T09:02:07.485Z</time></trkpt><trkpt lat="42.2582276" lon="14.2394522"><ele>368.75</ele><time>2026-05-01T09:02:08.486Z</time></trkpt><trkpt lat="42.2581085" lon="14.2395435"><ele>368.5</ele><time>2026-05-01T09:02:09.486Z</time></trkpt><trkpt lat="42.2580126" lon="14.2396454"><ele>368.25</ele><time>2026-05-01T09:02:10.486Z</time></trkpt><trkpt lat="42.2579264" lon="14.2397496"><ele>368.0</ele><time>2026-05-01T09:02:11.485Z</time></trkpt><trkpt lat="42.2578394" lon="14.2398581"><ele>366.79999999999995</ele><time>2026-05-01T09:02:12.486Z</time></trkpt><trkpt lat="42.2577522" lon="14.2399231"><ele>365.6</ele><time>2026-05-01T09:02:13.485Z</time></trkpt><trkpt lat="42.2576757" lon="14.2399773"><ele>364.4</ele><time>2026-05-01T09:02:14.486Z</time></trkpt><trkpt lat="42.2575806" lon="14.2400213"><ele>363.20000000000005</ele><time>2026-05-01T09:02:15.486Z</time></trkpt><trkpt lat="42.2574987" lon="14.2400313"><ele>362.0</ele><time>2026-05-01T09:02:16.485Z</time></trkpt><trkpt lat="42.2574033" lon="14.2400095"><ele>362.0</ele><time>2026-05-01T09:02:17.486Z</time></trkpt><trkpt lat="42.2573119" lon="14.2399656"><ele>362.0</ele><time>2026-05-01T09:02:18.486Z</time></trkpt><trkpt lat="42.2572212" lon="14.2399045"><ele>362.0</ele><time>2026-05-01T09:02:19.486Z</time></trkpt><trkpt lat="42.2571297" lon="14.239808"><ele>362.0</ele><time>2026-05-01T09:02:20.486Z</time></trkpt><trkpt lat="42.25705" lon="14.2397294"><ele>362.0</ele><time>2026-05-01T09:02:21.486Z</time></trkpt><trkpt lat="42.2569715" lon="14.2396524"><ele>359.5</ele><time>2026-05-01T09:02:22.487Z</time></trkpt><trkpt lat="42.2569715" lon="14.2396524"><ele>357.0</ele><time>2026-05-01T09:02:22.487Z</time></trkpt><trkpt lat="42.2564102" lon="14.2392885"><ele>351.0</ele><time>2026-05-01T09:02:31.486Z</time></trkpt><trkpt lat="42.2563404" lon="14.2392529"><ele>345.0</ele><time>2026-05-01T09:02:32.485Z</time></trkpt><trkpt lat="42.2559127" lon="14.238826"><ele>345.0</ele><time>2026-05-01T09:02:37.487Z</time></trkpt><trkpt lat="42.2558248" lon="14.2387527"><ele>345.0</ele><time>2026-05-01T09:02:38.487Z</time></trkpt><trkpt lat="42.2557546" lon="14.2386935"><ele>345.0</ele><time>2026-05-01T09:02:39.487Z</time></trkpt><trkpt lat="42.255679" lon="14.2386664"><ele>345.0</ele><time>2026-05-01T09:02:40.486Z</time></trkpt><trkpt lat="42.2556137" lon="14.2386495"><ele>345.0</ele><time>2026-05-01T09:02:41.487Z</time></trkpt><trkpt lat="42.2555271" lon="14.2386054"><ele>345.0</ele><time>2026-05-01T09:02:43.485Z</time></trkpt><trkpt lat="42.2554961" lon="14.2384217"><ele>345.0</ele><time>2026-05-01T09:02:45.486Z</time></trkpt><trkpt lat="42.2554483" lon="14.2383171"><ele>345.0</ele><time>2026-05-01T09:02:46.486Z</time></trkpt><trkpt lat="42.2553648" lon="14.2382317"><ele>345.0</ele><time>2026-05-01T09:02:47.486Z</time></trkpt><trkpt lat="42.2552518" lon="14.238175"><ele>345.0</ele><time>2026-05-01T09:02:48.486Z</time></trkpt><trkpt lat="42.2551098" lon="14.2381384"><ele>339.0</ele><time>2026-05-01T09:02:49.486Z</time></trkpt><trkpt lat="42.2549682" lon="14.2381042"><ele>333.0</ele><time>2026-05-01T09:02:50.486Z</time></trkpt><trkpt lat="42.2547673" lon="14.2380786"><ele>327.0</ele><time>2026-05-01T09:02:51.486Z</time></trkpt><trkpt lat="42.2545921" lon="14.2380343"><ele>327.0</ele><time>2026-05-01T09:02:52.486Z</time></trkpt><trkpt lat="42.2544106" lon="14.2379766"><ele>327.0</ele><time>2026-05-01T09:02:53.487Z</time></trkpt><trkpt lat="42.2542425" lon="14.2378804"><ele>327.0</ele><time>2026-05-01T09:02:54.485Z</time></trkpt><trkpt lat="42.2540681" lon="14.2377543"><ele>328.0</ele><time>2026-05-01T09:02:55.486Z</time></trkpt><trkpt lat="42.2539157" lon="14.2375949"><ele>329.0</ele><time>2026-05-01T09:02:56.485Z</time></trkpt><trkpt lat="42.2537654" lon="14.2374451"><ele>330.0</ele><time>2026-05-01T09:02:57.486Z</time></trkpt><trkpt lat="42.2536344" lon="14.2372881"><ele>330.0</ele><time>2026-05-01T09:02:58.485Z</time></trkpt><trkpt lat="42.2535285" lon="14.2370942"><ele>330.0</ele><time>2026-05-01T09:02:59.486Z</time></trkpt><trkpt lat="42.2534279" lon="14.2368469"><ele>330.0</ele><time>2026-05-01T09:03:00.485Z</time></trkpt><trkpt lat="42.2533332" lon="14.2365466"><ele>330.6666666666667</ele><time>2026-05-01T09:03:01.485Z</time></trkpt><trkpt lat="42.2532334" lon="14.2362517"><ele>331.33333333333337</ele><time>2026-05-01T09:03:02.486Z</time></trkpt><trkpt lat="42.2531556" lon="14.2359955"><ele>332.0</ele><time>2026-05-01T09:03:03.486Z</time></trkpt><trkpt lat="42.2530888" lon="14.2357725"><ele>326.0</ele><time>2026-05-01T09:03:04.485Z</time></trkpt><trkpt lat="42.2530229" lon="14.2355907"><ele>320.0</ele><time>2026-05-01T09:03:05.485Z</time></trkpt><trkpt lat="42.2529414" lon="14.235424"><ele>314.0</ele><time>2026-05-01T09:03:06.485Z</time></trkpt><trkpt lat="42.2528235" lon="14.2352817"><ele>314.0</ele><time>2026-05-01T09:03:07.485Z</time></trkpt><trkpt lat="42.2527012" lon="14.2351461"><ele>314.0</ele><time>2026-05-01T09:03:08.484Z</time></trkpt><trkpt lat="42.2525254" lon="14.2350776"><ele>314.0</ele><time>2026-05-01T09:03:09.484Z</time></trkpt><trkpt lat="42.252411" lon="14.2349776"><ele>314.0</ele><time>2026-05-01T09:03:10.484Z</time></trkpt><trkpt lat="42.2522928" lon="14.2348497"><ele>314.0</ele><time>2026-05-01T09:03:11.485Z</time></trkpt><trkpt lat="42.2521688" lon="14.2346953"><ele>314.0</ele><time>2026-05-01T09:03:12.485Z</time></trkpt><trkpt lat="42.252047" lon="14.2345099"><ele>315.0</ele><time>2026-05-01T09:03:13.485Z</time></trkpt><trkpt lat="42.2519424" lon="14.2343034"><ele>316.0</ele><time>2026-05-01T09:03:14.485Z</time></trkpt><trkpt lat="42.2518581" lon="14.2341519"><ele>317.0</ele><time>2026-05-01T09:03:15.485Z</time></trkpt><trkpt lat="42.2518256" lon="14.2340016"><ele>318.0</ele><time>2026-05-01T09:03:16.485Z</time></trkpt><trkpt lat="42.2518156" lon="14.2338542"><ele>315.1666666666667</ele><time>2026-05-01T09:03:17.485Z</time></trkpt><trkpt lat="42.2518448" lon="14.2337236"><ele>312.3333333333333</ele><time>2026-05-01T09:03:18.484Z</time></trkpt><trkpt lat="42.2519029" lon="14.2336288"><ele>309.5</ele><time>2026-05-01T09:03:19.484Z</time></trkpt><trkpt lat="42.2519741" lon="14.2335968"><ele>306.66666666666663</ele><time>2026-05-01T09:03:20.484Z</time></trkpt><trkpt lat="42.2520462" lon="14.2336131"><ele>303.8333333333333</ele><time>2026-05-01T09:03:21.485Z</time></trkpt><trkpt lat="42.2521172" lon="14.2336994"><ele>301.0</ele><time>2026-05-01T09:03:22.485Z</time></trkpt><trkpt lat="42.2521905" lon="14.2338505"><ele>299.3333333333333</ele><time>2026-05-01T09:03:23.485Z</time></trkpt><trkpt lat="42.2522685" lon="14.234033"><ele>297.6666666666667</ele><time>2026-05-01T09:03:24.485Z</time></trkpt><trkpt lat="42.252369" lon="14.234193"><ele>296.0</ele><time>2026-05-01T09:03:25.485Z</time></trkpt><trkpt lat="42.252505" lon="14.2343132"><ele>296.0</ele><time>2026-05-01T09:03:26.484Z</time></trkpt><trkpt lat="42.252677" lon="14.2343897"><ele>296.0</ele><time>2026-05-01T09:03:27.485Z</time></trkpt><trkpt lat="42.2528699" lon="14.2344278"><ele>296.0</ele><time>2026-05-01T09:03:28.485Z</time></trkpt><trkpt lat="42.2530919" lon="14.2344347"><ele>293.6666666666667</ele><time>2026-05-01T09:03:29.486Z</time></trkpt><trkpt lat="42.2533006" lon="14.2344363"><ele>291.3333333333333</ele><time>2026-05-01T09:03:30.485Z</time></trkpt><trkpt lat="42.2535021" lon="14.234453"><ele>289.0</ele><time>2026-05-01T09:03:31.485Z</time></trkpt><trkpt lat="42.2536917" lon="14.2345081"><ele>289.0</ele><time>2026-05-01T09:03:32.485Z</time></trkpt><trkpt lat="42.2538794" lon="14.2346039"><ele>289.0</ele><time>2026-05-01T09:03:33.485Z</time></trkpt><trkpt lat="42.2540843" lon="14.2347371"><ele>289.0</ele><time>2026-05-01T09:03:34.486Z</time></trkpt><trkpt lat="42.2543003" lon="14.2348782"><ele>290.3333333333333</ele><time>2026-05-01T09:03:35.486Z</time></trkpt><trkpt lat="42.2545029" lon="14.2350047"><ele>291.6666666666667</ele><time>2026-05-01T09:03:36.486Z</time></trkpt><trkpt lat="42.2546835" lon="14.2351153"><ele>293.0</ele><time>2026-05-01T09:03:37.485Z</time></trkpt><trkpt lat="42.2548685" lon="14.2351957"><ele>290.0</ele><time>2026-05-01T09:03:38.485Z</time></trkpt><trkpt lat="42.255075" lon="14.2352539"><ele>287.0</ele><time>2026-05-01T09:03:39.485Z</time></trkpt><trkpt lat="42.2552994" lon="14.2352851"><ele>284.0</ele><time>2026-05-01T09:03:40.485Z</time></trkpt><trkpt lat="42.2555042" lon="14.2353047"><ele>281.33333333333337</ele><time>2026-05-01T09:03:41.484Z</time></trkpt><trkpt lat="42.2556869" lon="14.2353103"><ele>278.6666666666667</ele><time>2026-05-01T09:03:42.485Z</time></trkpt><trkpt lat="42.2558599" lon="14.2353015"><ele>276.0</ele><time>2026-05-01T09:03:43.484Z</time></trkpt><trkpt lat="42.2560054" lon="14.235266"><ele>276.0</ele><time>2026-05-01T09:03:44.484Z</time></trkpt><trkpt lat="42.2561314" lon="14.2351967"><ele>276.0</ele><time>2026-05-01T09:03:45.484Z</time></trkpt><trkpt lat="42.2562454" lon="14.2351076"><ele>276.0</ele><time>2026-05-01T09:03:46.484Z</time></trkpt><trkpt lat="42.2563498" lon="14.235009"><ele>276.0</ele><time>2026-05-01T09:03:47.485Z</time></trkpt><trkpt lat="42.2564588" lon="14.2349046"><ele>273.5</ele><time>2026-05-01T09:03:48.484Z</time></trkpt><trkpt lat="42.2565643" lon="14.234789"><ele>271.0</ele><time>2026-05-01T09:03:49.486Z</time></trkpt><trkpt lat="42.256676" lon="14.2346794"><ele>268.5</ele><time>2026-05-01T09:03:50.485Z</time></trkpt><trkpt lat="42.2567808" lon="14.2345781"><ele>266.0</ele><time>2026-05-01T09:03:51.485Z</time></trkpt><trkpt lat="42.2568498" lon="14.2344998"><ele>266.0</ele><time>2026-05-01T09:03:52.484Z</time></trkpt><trkpt lat="42.2569043" lon="14.234423"><ele>266.0</ele><time>2026-05-01T09:03:53.485Z</time></trkpt><trkpt lat="42.2568997" lon="14.2342991"><ele>266.0</ele><time>2026-05-01T09:03:55.485Z</time></trkpt><trkpt lat="42.2567981" lon="14.2342832"><ele>266.0</ele><time>2026-05-01T09:03:57.485Z</time></trkpt><trkpt lat="42.256726" lon="14.2342851"><ele>266.0</ele><time>2026-05-01T09:03:58.485Z</time></trkpt><trkpt lat="42.2565659" lon="14.2343068"><ele>266.0</ele><time>2026-05-01T09:03:59.485Z</time></trkpt><trkpt lat="42.2564499" lon="14.2343165"><ele>266.0</ele><time>2026-05-01T09:04:00.485Z</time></trkpt><trkpt lat="42.2562753" lon="14.2343276"><ele>266.0</ele><time>2026-05-01T09:04:01.485Z</time></trkpt><trkpt lat="42.2561419" lon="14.2343336"><ele>266.0</ele><time>2026-05-01T09:04:02.486Z</time></trkpt><trkpt lat="42.2560151" lon="14.2343039"><ele>266.0</ele><time>2026-05-01T09:04:03.486Z</time></trkpt><trkpt lat="42.2558932" lon="14.2342394"><ele>266.0</ele><time>2026-05-01T09:04:04.486Z</time></trkpt><trkpt lat="42.2557996" lon="14.2341389"><ele>266.0</ele><time>2026-05-01T09:04:05.484Z</time></trkpt><trkpt lat="42.2557281" lon="14.2339983"><ele>266.0</ele><time>2026-05-01T09:04:06.485Z</time></trkpt><trkpt lat="42.2556523" lon="14.2338487"><ele>263.0</ele><time>2026-05-01T09:04:07.484Z</time></trkpt><trkpt lat="42.2556355" lon="14.2336159"><ele>260.0</ele><time>2026-05-01T09:04:08.484Z</time></trkpt><trkpt lat="42.2556077" lon="14.2333987"><ele>257.0</ele><time>2026-05-01T09:04:09.485Z</time></trkpt><trkpt lat="42.2556072" lon="14.2332072"><ele>255.5</ele><time>2026-05-01T09:04:10.485Z</time></trkpt><trkpt lat="42.2556257" lon="14.233033"><ele>254.0</ele><time>2026-05-01T09:04:11.485Z</time></trkpt><trkpt lat="42.2556533" lon="14.232868"><ele>252.5</ele><time>2026-05-01T09:04:12.485Z</time></trkpt><trkpt lat="42.2557644" lon="14.2327522"><ele>251.0</ele><time>2026-05-01T09:04:13.486Z</time></trkpt><trkpt lat="42.2558776" lon="14.2326363"><ele>251.0</ele><time>2026-05-01T09:04:14.485Z</time></trkpt><trkpt lat="42.2560358" lon="14.2325192"><ele>251.0</ele><time>2026-05-01T09:04:15.485Z</time></trkpt><trkpt lat="42.2562106" lon="14.2324102"><ele>251.0</ele><time>2026-05-01T09:04:16.485Z</time></trkpt><trkpt lat="42.2563903" lon="14.2323179"><ele>248.66666666666669</ele><time>2026-05-01T09:04:17.484Z</time></trkpt><trkpt lat="42.2565749" lon="14.2322669"><ele>246.33333333333331</ele><time>2026-05-01T09:04:18.484Z</time></trkpt><trkpt lat="42.2567512" lon="14.2322397"><ele>244.0</ele><time>2026-05-01T09:04:19.485Z</time></trkpt><trkpt lat="42.2568957" lon="14.2322178"><ele>244.0</ele><time>2026-05-01T09:04:20.484Z</time></trkpt><trkpt lat="42.2570399" lon="14.2321649"><ele>244.0</ele><time>2026-05-01T09:04:21.485Z</time></trkpt><trkpt lat="42.2571711" lon="14.2320547"><ele>244.0</ele><time>2026-05-01T09:04:22.485Z</time></trkpt><trkpt lat="42.2573096" lon="14.231936"><ele>240.5</ele><time>2026-05-01T09:04:23.485Z</time></trkpt><trkpt lat="42.257467" lon="14.2316895"><ele>237.0</ele><time>2026-05-01T09:04:24.485Z</time></trkpt><trkpt lat="42.2576217" lon="14.2314833"><ele>236.0</ele><time>2026-05-01T09:04:25.485Z</time></trkpt><trkpt lat="42.2577713" lon="14.2312955"><ele>235.0</ele><time>2026-05-01T09:04:26.485Z</time></trkpt><trkpt lat="42.2579218" lon="14.2311004"><ele>234.0</ele><time>2026-05-01T09:04:27.484Z</time></trkpt><trkpt lat="42.2580535" lon="14.2309085"><ele>230.66666666666669</ele><time>2026-05-01T09:04:28.484Z</time></trkpt><trkpt lat="42.2581664" lon="14.2307252"><ele>227.33333333333334</ele><time>2026-05-01T09:04:29.485Z</time></trkpt><trkpt lat="42.2582357" lon="14.2305017"><ele>224.0</ele><time>2026-05-01T09:04:30.485Z</time></trkpt><trkpt lat="42.2583157" lon="14.2302678"><ele>223.0</ele><time>2026-05-01T09:04:31.485Z</time></trkpt><trkpt lat="42.2583417" lon="14.2299605"><ele>222.0</ele><time>2026-05-01T09:04:32.485Z</time></trkpt><trkpt lat="42.2583875" lon="14.2297198"><ele>221.0</ele><time>2026-05-01T09:04:33.485Z</time></trkpt><trkpt lat="42.2584269" lon="14.2294997"><ele>220.25</ele><time>2026-05-01T09:04:34.485Z</time></trkpt><trkpt lat="42.2584375" lon="14.2292988"><ele>219.5</ele><time>2026-05-01T09:04:35.485Z</time></trkpt><trkpt lat="42.2584163" lon="14.2291345"><ele>218.75</ele><time>2026-05-01T09:04:36.485Z</time></trkpt><trkpt lat="42.2583533" lon="14.2290046"><ele>218.0</ele><time>2026-05-01T09:04:37.484Z</time></trkpt><trkpt lat="42.2582487" lon="14.2289057"><ele>216.25</ele><time>2026-05-01T09:04:38.484Z</time></trkpt><trkpt lat="42.25813" lon="14.2288534"><ele>214.5</ele><time>2026-05-01T09:04:39.485Z</time></trkpt><trkpt lat="42.2579915" lon="14.2288692"><ele>212.75</ele><time>2026-05-01T09:04:40.485Z</time></trkpt><trkpt lat="42.2578321" lon="14.228945"><ele>211.0</ele><time>2026-05-01T09:04:41.484Z</time></trkpt><trkpt lat="42.2576533" lon="14.2290496"><ele>211.0</ele><time>2026-05-01T09:04:42.485Z</time></trkpt><trkpt lat="42.25749" lon="14.2292057"><ele>211.0</ele><time>2026-05-01T09:04:43.485Z</time></trkpt><trkpt lat="42.2573419" lon="14.2293045"><ele>211.0</ele><time>2026-05-01T09:04:44.485Z</time></trkpt><trkpt lat="42.2572021" lon="14.2293553"><ele>210.75</ele><time>2026-05-01T09:04:45.485Z</time></trkpt><trkpt lat="42.2570659" lon="14.2293875"><ele>210.5</ele><time>2026-05-01T09:04:46.485Z</time></trkpt><trkpt lat="42.2569315" lon="14.2293907"><ele>210.25</ele><time>2026-05-01T09:04:47.485Z</time></trkpt><trkpt lat="42.2568002" lon="14.2293985"><ele>210.0</ele><time>2026-05-01T09:04:48.485Z</time></trkpt><trkpt lat="42.2568079" lon="14.2290999"><ele>209.75</ele><time>2026-05-01T09:04:49.485Z</time></trkpt><trkpt lat="42.2567718" lon="14.2289419"><ele>209.5</ele><time>2026-05-01T09:04:50.485Z</time></trkpt><trkpt lat="42.2567454" lon="14.2287947"><ele>209.25</ele><time>2026-05-01T09:04:51.486Z</time></trkpt><trkpt lat="42.2568136" lon="14.2286373"><ele>209.0</ele><time>2026-05-01T09:04:52.484Z</time></trkpt><trkpt lat="42.256872" lon="14.2284955"><ele>209.0</ele><time>2026-05-01T09:04:53.485Z</time></trkpt><trkpt lat="42.2569688" lon="14.2283279"><ele>209.0</ele><time>2026-05-01T09:04:54.485Z</time></trkpt><trkpt lat="42.257071" lon="14.2281712"><ele>209.0</ele><time>2026-05-01T09:04:55.486Z</time></trkpt><trkpt lat="42.2571902" lon="14.2279544"><ele>209.0</ele><time>2026-05-01T09:04:56.484Z</time></trkpt><trkpt lat="42.2572828" lon="14.2277637"><ele>209.0</ele><time>2026-05-01T09:04:57.486Z</time></trkpt><trkpt lat="42.2573441" lon="14.2275683"><ele>209.0</ele><time>2026-05-01T09:04:58.486Z</time></trkpt><trkpt lat="42.257424" lon="14.2273577"><ele>204.75</ele><time>2026-05-01T09:04:59.485Z</time></trkpt><trkpt lat="42.2574254" lon="14.2271392"><ele>200.5</ele><time>2026-05-01T09:05:00.485Z</time></trkpt><trkpt lat="42.2574358" lon="14.2269505"><ele>196.25</ele><time>2026-05-01T09:05:01.484Z</time></trkpt><trkpt lat="42.2574199" lon="14.226793"><ele>192.0</ele><time>2026-05-01T09:05:02.485Z</time></trkpt><trkpt lat="42.2573743" lon="14.2266529"><ele>192.0</ele><time>2026-05-01T09:05:03.485Z</time></trkpt><trkpt lat="42.2573205" lon="14.2265342"><ele>192.0</ele><time>2026-05-01T09:05:04.484Z</time></trkpt><trkpt lat="42.2571458" lon="14.2264142"><ele>192.0</ele><time>2026-05-01T09:05:05.484Z</time></trkpt><trkpt lat="42.2569933" lon="14.2263171"><ele>189.75</ele><time>2026-05-01T09:05:06.485Z</time></trkpt><trkpt lat="42.2568515" lon="14.2262112"><ele>187.5</ele><time>2026-05-01T09:05:07.485Z</time></trkpt><trkpt lat="42.2567574" lon="14.2261387"><ele>185.25</ele><time>2026-05-01T09:05:08.485Z</time></trkpt><trkpt lat="42.2566587" lon="14.226064"><ele>183.0</ele><time>2026-05-01T09:05:09.484Z</time></trkpt><trkpt lat="42.2565567" lon="14.2259826"><ele>183.0</ele><time>2026-05-01T09:05:10.484Z</time></trkpt><trkpt lat="42.256614" lon="14.2258051"><ele>183.0</ele><time>2026-05-01T09:05:11.485Z</time></trkpt><trkpt lat="42.2566219" lon="14.2256711"><ele>183.0</ele><time>2026-05-01T09:05:12.485Z</time></trkpt><trkpt lat="42.2566677" lon="14.2255241"><ele>183.0</ele><time>2026-05-01T09:05:13.485Z</time></trkpt><trkpt lat="42.2568125" lon="14.2254847"><ele>179.66666666666666</ele><time>2026-05-01T09:05:14.484Z</time></trkpt><trkpt lat="42.2569721" lon="14.2254806"><ele>176.33333333333331</ele><time>2026-05-01T09:05:15.485Z</time></trkpt><trkpt lat="42.2572235" lon="14.225546"><ele>173.0</ele><time>2026-05-01T09:05:16.486Z</time></trkpt><trkpt lat="42.2573951" lon="14.2255437"><ele>173.0</ele><time>2026-05-01T09:05:17.485Z</time></trkpt><trkpt lat="42.2575536" lon="14.2255563"><ele>173.0</ele><time>2026-05-01T09:05:18.485Z</time></trkpt><trkpt lat="42.2576885" lon="14.2255562"><ele>173.0</ele><time>2026-05-01T09:05:19.485Z</time></trkpt><trkpt lat="42.2577938" lon="14.2255547"><ele>173.0</ele><time>2026-05-01T09:05:20.485Z</time></trkpt><trkpt lat="42.2578879" lon="14.2255364"><ele>173.0</ele><time>2026-05-01T09:05:21.485Z</time></trkpt><trkpt lat="42.2579568" lon="14.2254894"><ele>173.0</ele><time>2026-05-01T09:05:22.485Z</time></trkpt><trkpt lat="42.2580354" lon="14.2254441"><ele>173.0</ele><time>2026-05-01T09:05:23.485Z</time></trkpt><trkpt lat="42.2580257" lon="14.225326"><ele>173.0</ele><time>2026-05-01T09:05:24.484Z</time></trkpt><trkpt lat="42.2580232" lon="14.2251576"><ele>173.0</ele><time>2026-05-01T09:05:26.485Z</time></trkpt><trkpt lat="42.2579761" lon="14.2250653"><ele>173.0</ele><time>2026-05-01T09:05:27.486Z</time></trkpt><trkpt lat="42.2579293" lon="14.2249724"><ele>173.0</ele><time>2026-05-01T09:05:28.485Z</time></trkpt><trkpt lat="42.2578362" lon="14.2249042"><ele>173.0</ele><time>2026-05-01T09:05:29.484Z</time></trkpt><trkpt lat="42.2577091" lon="14.2247975"><ele>173.0</ele><time>2026-05-01T09:05:30.486Z</time></trkpt><trkpt lat="42.2574945" lon="14.2246963"><ele>170.66666666666666</ele><time>2026-05-01T09:05:31.485Z</time></trkpt><trkpt lat="42.257293" lon="14.2246139"><ele>168.33333333333334</ele><time>2026-05-01T09:05:32.485Z</time></trkpt><trkpt lat="42.25716" lon="14.2245216"><ele>166.0</ele><time>2026-05-01T09:05:33.485Z</time></trkpt><trkpt lat="42.2570215" lon="14.2244385"><ele>165.25</ele><time>2026-05-01T09:05:34.484Z</time></trkpt><trkpt lat="42.2569211" lon="14.2243452"><ele>164.5</ele><time>2026-05-01T09:05:35.484Z</time></trkpt><trkpt lat="42.256891" lon="14.2242248"><ele>163.75</ele><time>2026-05-01T09:05:36.485Z</time></trkpt><trkpt lat="42.2570177" lon="14.2240889"><ele>163.0</ele><time>2026-05-01T09:05:37.486Z</time></trkpt><trkpt lat="42.2570724" lon="14.2240081"><ele>162.0</ele><time>2026-05-01T09:05:38.485Z</time></trkpt><trkpt lat="42.257188" lon="14.223906"><ele>161.0</ele><time>2026-05-01T09:05:39.486Z</time></trkpt><trkpt lat="42.2573354" lon="14.2238308"><ele>160.0</ele><time>2026-05-01T09:05:40.486Z</time></trkpt><trkpt lat="42.2574703" lon="14.2237736"><ele>159.0</ele><time>2026-05-01T09:05:41.485Z</time></trkpt><trkpt lat="42.2575845" lon="14.2237023"><ele>159.0</ele><time>2026-05-01T09:05:42.485Z</time></trkpt><trkpt lat="42.2576891" lon="14.2236194"><ele>159.0</ele><time>2026-05-01T09:05:43.485Z</time></trkpt><trkpt lat="42.2577613" lon="14.2235371"><ele>159.0</ele><time>2026-05-01T09:05:44.485Z</time></trkpt><trkpt lat="42.2577523" lon="14.2233855"><ele>159.0</ele><time>2026-05-01T09:05:45.486Z</time></trkpt><trkpt lat="42.2577487" lon="14.223244"><ele>159.0</ele><time>2026-05-01T09:05:46.485Z</time></trkpt><trkpt lat="42.2577082" lon="14.2230942"><ele>158.33333333333334</ele><time>2026-05-01T09:05:47.484Z</time></trkpt><trkpt lat="42.2576533" lon="14.222906"><ele>157.66666666666669</ele><time>2026-05-01T09:05:48.484Z</time></trkpt><trkpt lat="42.2575781" lon="14.2227038"><ele>157.0</ele><time>2026-05-01T09:05:49.486Z</time></trkpt><trkpt lat="42.2574903" lon="14.2224685"><ele>158.33333333333334</ele><time>2026-05-01T09:05:50.485Z</time></trkpt><trkpt lat="42.257403" lon="14.2222336"><ele>159.66666666666666</ele><time>2026-05-01T09:05:51.486Z</time></trkpt><trkpt lat="42.2573334" lon="14.2220288"><ele>161.0</ele><time>2026-05-01T09:05:52.485Z</time></trkpt><trkpt lat="42.2572702" lon="14.221842"><ele>161.0</ele><time>2026-05-01T09:05:53.484Z</time></trkpt><trkpt lat="42.2572219" lon="14.2216701"><ele>161.0</ele><time>2026-05-01T09:05:54.484Z</time></trkpt><trkpt lat="42.2571994" lon="14.2215115"><ele>161.0</ele><time>2026-05-01T09:05:55.484Z</time></trkpt><trkpt lat="42.2572094" lon="14.2213474"><ele>161.0</ele><time>2026-05-01T09:05:56.483Z</time></trkpt><trkpt lat="42.2572507" lon="14.221203"><ele>162.25</ele><time>2026-05-01T09:05:57.484Z</time></trkpt><trkpt lat="42.2573237" lon="14.2210705"><ele>163.5</ele><time>2026-05-01T09:05:58.483Z</time></trkpt><trkpt lat="42.2574379" lon="14.2209531"><ele>164.75</ele><time>2026-05-01T09:05:59.484Z</time></trkpt><trkpt lat="42.2575823" lon="14.2208655"><ele>166.0</ele><time>2026-05-01T09:06:00.484Z</time></trkpt><trkpt lat="42.2577464" lon="14.2207915"><ele>166.0</ele><time>2026-05-01T09:06:01.484Z</time></trkpt><trkpt lat="42.257894" lon="14.2207356"><ele>166.0</ele><time>2026-05-01T09:06:02.483Z</time></trkpt><trkpt lat="42.2579996" lon="14.2206449"><ele>166.0</ele><time>2026-05-01T09:06:03.483Z</time></trkpt><trkpt lat="42.2580696" lon="14.2205511"><ele>166.0</ele><time>2026-05-01T09:06:04.484Z</time></trkpt><trkpt lat="42.2580965" lon="14.2204366"><ele>168.8</ele><time>2026-05-01T09:06:05.484Z</time></trkpt><trkpt lat="42.2580844" lon="14.2203261"><ele>171.60000000000002</ele><time>2026-05-01T09:06:06.484Z</time></trkpt><trkpt lat="42.2580282" lon="14.2202285"><ele>174.4</ele><time>2026-05-01T09:06:07.483Z</time></trkpt><trkpt lat="42.2579266" lon="14.220156"><ele>177.2</ele><time>2026-05-01T09:06:08.484Z</time></trkpt><trkpt lat="42.2578377" lon="14.2200773"><ele>180.0</ele><time>2026-05-01T09:06:09.484Z</time></trkpt><trkpt lat="42.2576891" lon="14.2200122"><ele>180.0</ele><time>2026-05-01T09:06:10.485Z</time></trkpt><trkpt lat="42.2574481" lon="14.2200145"><ele>180.0</ele><time>2026-05-01T09:06:11.484Z</time></trkpt><trkpt lat="42.2572774" lon="14.2199691"><ele>180.0</ele><time>2026-05-01T09:06:12.484Z</time></trkpt><trkpt lat="42.2570959" lon="14.2199377"><ele>179.6</ele><time>2026-05-01T09:06:13.484Z</time></trkpt><trkpt lat="42.2569398" lon="14.219879"><ele>179.2</ele><time>2026-05-01T09:06:14.484Z</time></trkpt><trkpt lat="42.2568565" lon="14.2198453"><ele>178.8</ele><time>2026-05-01T09:06:15.483Z</time></trkpt><trkpt lat="42.2567599" lon="14.2197848"><ele>178.4</ele><time>2026-05-01T09:06:16.484Z</time></trkpt><trkpt lat="42.2567011" lon="14.2197244"><ele>178.0</ele><time>2026-05-01T09:06:17.484Z</time></trkpt><trkpt lat="42.2566356" lon="14.2196669"><ele>180.4</ele><time>2026-05-01T09:06:19.484Z</time></trkpt><trkpt lat="42.2565658" lon="14.2196604"><ele>182.8</ele><time>2026-05-01T09:06:20.485Z</time></trkpt><trkpt lat="42.2564704" lon="14.2196592"><ele>185.2</ele><time>2026-05-01T09:06:21.484Z</time></trkpt><trkpt lat="42.2563679" lon="14.2196318"><ele>187.6</ele><time>2026-05-01T09:06:22.484Z</time></trkpt><trkpt lat="42.256282" lon="14.2195898"><ele>190.0</ele><time>2026-05-01T09:06:23.483Z</time></trkpt><trkpt lat="42.2562064" lon="14.2195137"><ele>190.0</ele><time>2026-05-01T09:06:24.483Z</time></trkpt><trkpt lat="42.256147" lon="14.2194485"><ele>190.0</ele><time>2026-05-01T09:06:25.484Z</time></trkpt><trkpt lat="42.2560758" lon="14.2194555"><ele>190.0</ele><time>2026-05-01T09:06:26.484Z</time></trkpt><trkpt lat="42.2559999" lon="14.2194708"><ele>190.0</ele><time>2026-05-01T09:06:27.485Z</time></trkpt><trkpt lat="42.2559071" lon="14.2195511"><ele>190.0</ele><time>2026-05-01T09:06:29.484Z</time></trkpt><trkpt lat="42.2559225" lon="14.2196729"><ele>190.0</ele><time>2026-05-01T09:06:30.484Z</time></trkpt><trkpt lat="42.2559542" lon="14.219835"><ele>187.25</ele><time>2026-05-01T09:06:31.483Z</time></trkpt><trkpt lat="42.2559361" lon="14.2200037"><ele>184.5</ele><time>2026-05-01T09:06:32.484Z</time></trkpt><trkpt lat="42.2559175" lon="14.220207"><ele>181.75</ele><time>2026-05-01T09:06:33.483Z</time></trkpt><trkpt lat="42.2558953" lon="14.2204059"><ele>179.0</ele><time>2026-05-01T09:06:34.485Z</time></trkpt><trkpt lat="42.2558669" lon="14.2205852"><ele>178.6</ele><time>2026-05-01T09:06:35.483Z</time></trkpt><trkpt lat="42.2558417" lon="14.2207314"><ele>178.2</ele><time>2026-05-01T09:06:36.484Z</time></trkpt><trkpt lat="42.2557882" lon="14.220858"><ele>177.79999999999998</ele><time>2026-05-01T09:06:37.484Z</time></trkpt><trkpt lat="42.2557124" lon="14.2209581"><ele>177.39999999999998</ele><time>2026-05-01T09:06:38.483Z</time></trkpt><trkpt lat="42.2556152" lon="14.2210446"><ele>177.0</ele><time>2026-05-01T09:06:39.483Z</time></trkpt><trkpt lat="42.2554528" lon="14.2211476"><ele>177.0</ele><time>2026-05-01T09:06:40.484Z</time></trkpt><trkpt lat="42.2552863" lon="14.2212601"><ele>177.0</ele><time>2026-05-01T09:06:41.485Z</time></trkpt><trkpt lat="42.2551184" lon="14.221362"><ele>177.0</ele><time>2026-05-01T09:06:42.484Z</time></trkpt><trkpt lat="42.2549641" lon="14.2214623"><ele>175.25</ele><time>2026-05-01T09:06:43.484Z</time></trkpt><trkpt lat="42.2548403" lon="14.2215379"><ele>173.5</ele><time>2026-05-01T09:06:44.483Z</time></trkpt><trkpt lat="42.2547333" lon="14.2215774"><ele>171.75</ele><time>2026-05-01T09:06:45.484Z</time></trkpt><trkpt lat="42.2546263" lon="14.221569"><ele>170.0</ele><time>2026-05-01T09:06:46.485Z</time></trkpt><trkpt lat="42.254529" lon="14.2215051"><ele>169.8</ele><time>2026-05-01T09:06:47.483Z</time></trkpt><trkpt lat="42.2544338" lon="14.2213915"><ele>169.6</ele><time>2026-05-01T09:06:48.484Z</time></trkpt><trkpt lat="42.2543597" lon="14.2212579"><ele>169.39999999999998</ele><time>2026-05-01T09:06:49.483Z</time></trkpt><trkpt lat="42.2543" lon="14.2211687"><ele>169.2</ele><time>2026-05-01T09:06:50.483Z</time></trkpt><trkpt lat="42.2542323" lon="14.2211327"><ele>169.0</ele><time>2026-05-01T09:06:51.484Z</time></trkpt><trkpt lat="42.2541447" lon="14.2211331"><ele>169.0</ele><time>2026-05-01T09:06:52.484Z</time></trkpt><trkpt lat="42.2540422" lon="14.2211562"><ele>169.0</ele><time>2026-05-01T09:06:53.484Z</time></trkpt><trkpt lat="42.2539798" lon="14.2211389"><ele>169.0</ele><time>2026-05-01T09:06:54.484Z</time></trkpt><trkpt lat="42.2539164" lon="14.2210853"><ele>169.0</ele><time>2026-05-01T09:06:55.484Z</time></trkpt><trkpt lat="42.2538438" lon="14.2209917"><ele>169.0</ele><time>2026-05-01T09:06:56.484Z</time></trkpt><trkpt lat="42.2537739" lon="14.2208489"><ele>169.2</ele><time>2026-05-01T09:06:57.484Z</time></trkpt><trkpt lat="42.2537013" lon="14.2207427"><ele>169.39999999999998</ele><time>2026-05-01T09:06:58.485Z</time></trkpt><trkpt lat="42.2536302" lon="14.2206672"><ele>169.6</ele><time>2026-05-01T09:06:59.484Z</time></trkpt><trkpt lat="42.2535284" lon="14.2206261"><ele>169.8</ele><time>2026-05-01T09:07:00.484Z</time></trkpt><trkpt lat="42.2533862" lon="14.2206172"><ele>170.0</ele><time>2026-05-01T09:07:01.484Z</time></trkpt><trkpt lat="42.2532277" lon="14.2206185"><ele>172.33333333333331</ele><time>2026-05-01T09:07:02.484Z</time></trkpt><trkpt lat="42.2530399" lon="14.2206111"><ele>174.66666666666666</ele><time>2026-05-01T09:07:03.485Z</time></trkpt><trkpt lat="42.252841" lon="14.2205986"><ele>177.0</ele><time>2026-05-01T09:07:04.483Z</time></trkpt><trkpt lat="42.2526335" lon="14.2205666"><ele>177.0</ele><time>2026-05-01T09:07:05.483Z</time></trkpt><trkpt lat="42.2524486" lon="14.2205238"><ele>177.0</ele><time>2026-05-01T09:07:06.484Z</time></trkpt><trkpt lat="42.2522573" lon="14.2204637"><ele>177.0</ele><time>2026-05-01T09:07:07.484Z</time></trkpt><trkpt lat="42.2520459" lon="14.2203747"><ele>179.66666666666666</ele><time>2026-05-01T09:07:08.483Z</time></trkpt><trkpt lat="42.2518392" lon="14.2202852"><ele>182.33333333333331</ele><time>2026-05-01T09:07:09.484Z</time></trkpt><trkpt lat="42.2516155" lon="14.2202094"><ele>185.0</ele><time>2026-05-01T09:07:10.484Z</time></trkpt><trkpt lat="42.2513809" lon="14.220157"><ele>187.66666666666666</ele><time>2026-05-01T09:07:11.484Z</time></trkpt><trkpt lat="42.2511712" lon="14.2201279"><ele>190.33333333333331</ele><time>2026-05-01T09:07:12.484Z</time></trkpt><trkpt lat="42.2509754" lon="14.220121"><ele>193.0</ele><time>2026-05-01T09:07:13.484Z</time></trkpt><trkpt lat="42.2508056" lon="14.2201464"><ele>193.0</ele><time>2026-05-01T09:07:14.484Z</time></trkpt><trkpt lat="42.2506525" lon="14.2201498"><ele>193.0</ele><time>2026-05-01T09:07:15.484Z</time></trkpt><trkpt lat="42.2505026" lon="14.2201224"><ele>193.0</ele><time>2026-05-01T09:07:16.483Z</time></trkpt><trkpt lat="42.2503552" lon="14.2200611"><ele>194.25</ele><time>2026-05-01T09:07:17.484Z</time></trkpt><trkpt lat="42.2502001" lon="14.2199785"><ele>195.5</ele><time>2026-05-01T09:07:18.483Z</time></trkpt><trkpt lat="42.2500825" lon="14.2199101"><ele>196.75</ele><time>2026-05-01T09:07:19.484Z</time></trkpt><trkpt lat="42.2499741" lon="14.2198816"><ele>198.0</ele><time>2026-05-01T09:07:20.485Z</time></trkpt><trkpt lat="42.2498779" lon="14.2198493"><ele>198.60000000000002</ele><time>2026-05-01T09:07:21.484Z</time></trkpt><trkpt lat="42.2498153" lon="14.2198081"><ele>199.20000000000002</ele><time>2026-05-01T09:07:22.483Z</time></trkpt><trkpt lat="42.2497724" lon="14.2197324"><ele>199.8</ele><time>2026-05-01T09:07:23.485Z</time></trkpt><trkpt lat="42.2497341" lon="14.2196128"><ele>200.4</ele><time>2026-05-01T09:07:24.485Z</time></trkpt><trkpt lat="42.249682" lon="14.219462"><ele>201.0</ele><time>2026-05-01T09:07:25.484Z</time></trkpt><trkpt lat="42.2496408" lon="14.2193485"><ele>203.83333333333334</ele><time>2026-05-01T09:07:26.483Z</time></trkpt><trkpt lat="42.2496026" lon="14.219278"><ele>206.66666666666669</ele><time>2026-05-01T09:07:27.484Z</time></trkpt><trkpt lat="42.2495306" lon="14.2192487"><ele>209.5</ele><time>2026-05-01T09:07:29.484Z</time></trkpt><trkpt lat="42.2494826" lon="14.2193376"><ele>212.33333333333334</ele><time>2026-05-01T09:07:30.483Z</time></trkpt><trkpt lat="42.2494359" lon="14.2194146"><ele>215.16666666666669</ele><time>2026-05-01T09:07:31.484Z</time></trkpt><trkpt lat="42.2494198" lon="14.2195111"><ele>218.0</ele><time>2026-05-01T09:07:33.485Z</time></trkpt><trkpt lat="42.2493273" lon="14.2194911"><ele>218.00000000000003</ele><time>2026-05-01T09:07:36.484Z</time></trkpt><trkpt lat="42.2492141" lon="14.2194368"><ele>218.0</ele><time>2026-05-01T09:07:38.484Z</time></trkpt><trkpt lat="42.2491427" lon="14.2194196"><ele>218.0</ele><time>2026-05-01T09:07:39.484Z</time></trkpt><trkpt lat="42.2490371" lon="14.2193913"><ele>218.0</ele><time>2026-05-01T09:07:41.483Z</time></trkpt><trkpt lat="42.2489832" lon="14.219343"><ele>218.00000000000003</ele><time>2026-05-01T09:07:42.484Z</time></trkpt><trkpt lat="42.2489301" lon="14.2192876"><ele>218.0</ele><time>2026-05-01T09:07:43.485Z</time></trkpt><trkpt lat="42.2488982" lon="14.2192113"><ele>218.16666666666669</ele><time>2026-05-01T09:07:44.484Z</time></trkpt><trkpt lat="42.248866" lon="14.2191193"><ele>218.33333333333334</ele><time>2026-05-01T09:07:45.484Z</time></trkpt><trkpt lat="42.2488579" lon="14.2190281"><ele>218.5</ele><time>2026-05-01T09:07:46.484Z</time></trkpt><trkpt lat="42.2488662" lon="14.2189351"><ele>218.66666666666669</ele><time>2026-05-01T09:07:47.484Z</time></trkpt><trkpt lat="42.2488759" lon="14.2188319"><ele>218.83333333333334</ele><time>2026-05-01T09:07:48.483Z</time></trkpt><trkpt lat="42.2488902" lon="14.2187244"><ele>219.0</ele><time>2026-05-01T09:07:49.485Z</time></trkpt><trkpt lat="42.248877" lon="14.2185958"><ele>219.0</ele><time>2026-05-01T09:07:50.485Z</time></trkpt><trkpt lat="42.2488683" lon="14.218438"><ele>218.99999999999997</ele><time>2026-05-01T09:07:51.484Z</time></trkpt><trkpt lat="42.2488111" lon="14.2182987"><ele>218.99999999999997</ele><time>2026-05-01T09:07:52.483Z</time></trkpt><trkpt lat="42.2487987" lon="14.2181749"><ele>219.0</ele><time>2026-05-01T09:07:53.484Z</time></trkpt><trkpt lat="42.2487762" lon="14.2180511"><ele>219.0</ele><time>2026-05-01T09:07:54.484Z</time></trkpt><trkpt lat="42.2487517" lon="14.2178977"><ele>223.0</ele><time>2026-05-01T09:07:55.484Z</time></trkpt><trkpt lat="42.2487275" lon="14.2177404"><ele>227.0</ele><time>2026-05-01T09:07:56.484Z</time></trkpt><trkpt lat="42.2486967" lon="14.2175577"><ele>231.0</ele><time>2026-05-01T09:07:57.484Z</time></trkpt><trkpt lat="42.2486845" lon="14.2173618"><ele>235.0</ele><time>2026-05-01T09:07:58.484Z</time></trkpt><trkpt lat="42.248659" lon="14.2172223"><ele>238.75</ele><time>2026-05-01T09:07:59.484Z</time></trkpt><trkpt lat="42.2486135" lon="14.2170704"><ele>242.5</ele><time>2026-05-01T09:08:00.483Z</time></trkpt><trkpt lat="42.248576" lon="14.2169067"><ele>246.25</ele><time>2026-05-01T09:08:01.484Z</time></trkpt><trkpt lat="42.2485109" lon="14.2167798"><ele>250.0</ele><time>2026-05-01T09:08:02.483Z</time></trkpt><trkpt lat="42.2484579" lon="14.216629"><ele>252.75</ele><time>2026-05-01T09:08:03.484Z</time></trkpt><trkpt lat="42.2484083" lon="14.2164802"><ele>255.5</ele><time>2026-05-01T09:08:04.484Z</time></trkpt><trkpt lat="42.2483553" lon="14.2163319"><ele>258.25</ele><time>2026-05-01T09:08:05.485Z</time></trkpt><trkpt lat="42.2483262" lon="14.2161886"><ele>261.0</ele><time>2026-05-01T09:08:06.483Z</time></trkpt><trkpt lat="42.2482903" lon="14.216042"><ele>261.0</ele><time>2026-05-01T09:08:07.484Z</time></trkpt><trkpt lat="42.2482667" lon="14.2159049"><ele>261.0</ele><time>2026-05-01T09:08:08.483Z</time></trkpt><trkpt lat="42.2482357" lon="14.2158153"><ele>261.0</ele><time>2026-05-01T09:08:09.485Z</time></trkpt><trkpt lat="42.2481743" lon="14.2156788"><ele>261.0</ele><time>2026-05-01T09:08:10.485Z</time></trkpt><trkpt lat="42.2481019" lon="14.2155535"><ele>261.0</ele><time>2026-05-01T09:08:11.484Z</time></trkpt><trkpt lat="42.2480447" lon="14.2154159"><ele>261.5</ele><time>2026-05-01T09:08:12.485Z</time></trkpt><trkpt lat="42.2480071" lon="14.2152917"><ele>262.0</ele><time>2026-05-01T09:08:13.484Z</time></trkpt><trkpt lat="42.2479703" lon="14.2151874"><ele>262.5</ele><time>2026-05-01T09:08:14.484Z</time></trkpt><trkpt lat="42.2479356" lon="14.2151063"><ele>263.0</ele><time>2026-05-01T09:08:15.483Z</time></trkpt><trkpt lat="42.2479081" lon="14.2149865"><ele>263.5</ele><time>2026-05-01T09:08:17.485Z</time></trkpt><trkpt lat="42.2479014" lon="14.2148595"><ele>264.0</ele><time>2026-05-01T09:08:35.483Z</time></trkpt><trkpt lat="42.2479231" lon="14.2147365"><ele>264.0</ele><time>2026-05-01T09:08:36.485Z</time></trkpt><trkpt lat="42.2479295" lon="14.2145817"><ele>264.0</ele><time>2026-05-01T09:08:37.485Z</time></trkpt><trkpt lat="42.2479155" lon="14.2144357"><ele>264.0</ele><time>2026-05-01T09:08:38.484Z</time></trkpt><trkpt lat="42.2478821" lon="14.2142659"><ele>264.0</ele><time>2026-05-01T09:08:39.485Z</time></trkpt><trkpt lat="42.2478367" lon="14.2141043"><ele>266.0</ele><time>2026-05-01T09:08:40.484Z</time></trkpt><trkpt lat="42.247783" lon="14.2139392"><ele>268.0</ele><time>2026-05-01T09:08:41.484Z</time></trkpt><trkpt lat="42.2477303" lon="14.2138251"><ele>270.0</ele><time>2026-05-01T09:08:42.483Z</time></trkpt><trkpt lat="42.247672" lon="14.2137161"><ele>272.0</ele><time>2026-05-01T09:08:43.484Z</time></trkpt><trkpt lat="42.2476234" lon="14.2136323"><ele>274.0</ele><time>2026-05-01T09:08:44.485Z</time></trkpt><trkpt lat="42.2475914" lon="14.2134309"><ele>274.0</ele><time>2026-05-01T09:08:46.484Z</time></trkpt><trkpt lat="42.2475654" lon="14.2132762"><ele>274.0</ele><time>2026-05-01T09:08:47.484Z</time></trkpt><trkpt lat="42.247535" lon="14.2131106"><ele>274.0</ele><time>2026-05-01T09:08:48.482Z</time></trkpt><trkpt lat="42.2475153" lon="14.2129371"><ele>274.0</ele><time>2026-05-01T09:08:49.483Z</time></trkpt><trkpt lat="42.2474989" lon="14.2127701"><ele>274.5</ele><time>2026-05-01T09:08:50.482Z</time></trkpt><trkpt lat="42.2475" lon="14.2126078"><ele>275.0</ele><time>2026-05-01T09:08:51.484Z</time></trkpt><trkpt lat="42.2474899" lon="14.2124147"><ele>275.5</ele><time>2026-05-01T09:08:52.483Z</time></trkpt><trkpt lat="42.2474628" lon="14.2122302"><ele>276.0</ele><time>2026-05-01T09:08:53.483Z</time></trkpt><trkpt lat="42.247422" lon="14.2120449"><ele>277.0</ele><time>2026-05-01T09:08:54.483Z</time></trkpt><trkpt lat="42.2473945" lon="14.2118816"><ele>278.0</ele><time>2026-05-01T09:08:55.484Z</time></trkpt><trkpt lat="42.2473418" lon="14.2117496"><ele>279.0</ele><time>2026-05-01T09:08:56.484Z</time></trkpt><trkpt lat="42.2472862" lon="14.2116384"><ele>280.0</ele><time>2026-05-01T09:08:57.483Z</time></trkpt><trkpt lat="42.2472519" lon="14.2114774"><ele>280.0</ele><time>2026-05-01T09:08:59.484Z</time></trkpt><trkpt lat="42.2472854" lon="14.2113564"><ele>280.0</ele><time>2026-05-01T09:09:00.482Z</time></trkpt><trkpt lat="42.2473255" lon="14.2112239"><ele>280.0</ele><time>2026-05-01T09:09:01.483Z</time></trkpt><trkpt lat="42.2473515" lon="14.2111212"><ele>280.0</ele><time>2026-05-01T09:09:02.483Z</time></trkpt><trkpt lat="42.2473514" lon="14.2110114"><ele>280.0</ele><time>2026-05-01T09:09:03.483Z</time></trkpt><trkpt lat="42.2473558" lon="14.2108679"><ele>282.0</ele><time>2026-05-01T09:09:04.482Z</time></trkpt><trkpt lat="42.2473426" lon="14.210739"><ele>284.0</ele><time>2026-05-01T09:09:05.483Z</time></trkpt><trkpt lat="42.2473331" lon="14.2106382"><ele>286.0</ele><time>2026-05-01T09:09:06.482Z</time></trkpt><trkpt lat="42.2473322" lon="14.2105154"><ele>288.0</ele><time>2026-05-01T09:09:07.483Z</time></trkpt><trkpt lat="42.2473243" lon="14.2104119"><ele>290.0</ele><time>2026-05-01T09:09:08.483Z</time></trkpt><trkpt lat="42.2473421" lon="14.2103239"><ele>292.0</ele><time>2026-05-01T09:09:09.484Z</time></trkpt><trkpt lat="42.2473542" lon="14.2101575"><ele>294.6</ele><time>2026-05-01T09:09:11.483Z</time></trkpt><trkpt lat="42.2473669" lon="14.2100348"><ele>297.2</ele><time>2026-05-01T09:09:12.482Z</time></trkpt><trkpt lat="42.2473752" lon="14.2098935"><ele>299.8</ele><time>2026-05-01T09:09:13.483Z</time></trkpt><trkpt lat="42.2473671" lon="14.2097451"><ele>302.4</ele><time>2026-05-01T09:09:14.483Z</time></trkpt><trkpt lat="42.2473593" lon="14.2095946"><ele>305.0</ele><time>2026-05-01T09:09:15.483Z</time></trkpt><trkpt lat="42.2473433" lon="14.209472"><ele>306.6666666666667</ele><time>2026-05-01T09:09:16.483Z</time></trkpt><trkpt lat="42.2473329" lon="14.2093788"><ele>308.33333333333337</ele><time>2026-05-01T09:09:17.483Z</time></trkpt><trkpt lat="42.2473158" lon="14.2092173"><ele>310.0</ele><time>2026-05-01T09:09:19.484Z</time></trkpt><trkpt lat="42.2472878" lon="14.2090854"><ele>311.6666666666667</ele><time>2026-05-01T09:09:21.483Z</time></trkpt><trkpt lat="42.247235" lon="14.2090333"><ele>313.3333333333333</ele><time>2026-05-01T09:09:22.483Z</time></trkpt><trkpt lat="42.2471799" lon="14.2089685"><ele>315.0</ele><time>2026-05-01T09:09:23.483Z</time></trkpt><trkpt lat="42.2470903" lon="14.2089761"><ele>318.2</ele><time>2026-05-01T09:09:24.482Z</time></trkpt><trkpt lat="42.2470203" lon="14.2089618"><ele>321.4</ele><time>2026-05-01T09:09:25.482Z</time></trkpt><trkpt lat="42.2469222" lon="14.208921"><ele>324.6</ele><time>2026-05-01T09:09:26.483Z</time></trkpt><trkpt lat="42.2468255" lon="14.2088534"><ele>327.8</ele><time>2026-05-01T09:09:28.483Z</time></trkpt><trkpt lat="42.2467542" lon="14.208713"><ele>331.0</ele><time>2026-05-01T09:09:30.484Z</time></trkpt><trkpt lat="42.2467056" lon="14.2086102"><ele>331.0</ele><time>2026-05-01T09:09:31.483Z</time></trkpt><trkpt lat="42.2466411" lon="14.2084901"><ele>331.0</ele><time>2026-05-01T09:09:32.483Z</time></trkpt><trkpt lat="42.2465791" lon="14.2083617"><ele>331.0</ele><time>2026-05-01T09:09:33.483Z</time></trkpt><trkpt lat="42.2465075" lon="14.208244"><ele>331.0</ele><time>2026-05-01T09:09:34.483Z</time></trkpt><trkpt lat="42.2464403" lon="14.2081462"><ele>331.0</ele><time>2026-05-01T09:09:35.483Z</time></trkpt><trkpt lat="42.246398" lon="14.2080627"><ele>330.8</ele><time>2026-05-01T09:09:36.483Z</time></trkpt><trkpt lat="42.2463538" lon="14.2079672"><ele>330.6</ele><time>2026-05-01T09:09:37.483Z</time></trkpt><trkpt lat="42.2463198" lon="14.2077837"><ele>330.4</ele><time>2026-05-01T09:09:38.482Z</time></trkpt><trkpt lat="42.2462939" lon="14.2076338"><ele>330.2</ele><time>2026-05-01T09:09:39.482Z</time></trkpt><trkpt lat="42.2462823" lon="14.2075042"><ele>330.0</ele><time>2026-05-01T09:09:40.483Z</time></trkpt><trkpt lat="42.2462825" lon="14.2073597"><ele>333.5</ele><time>2026-05-01T09:09:41.483Z</time></trkpt><trkpt lat="42.2462792" lon="14.207177"><ele>337.0</ele><time>2026-05-01T09:09:43.482Z</time></trkpt><trkpt lat="42.2462623" lon="14.2070296"><ele>340.5</ele><time>2026-05-01T09:09:44.483Z</time></trkpt><trkpt lat="42.2462592" lon="14.206862"><ele>344.0</ele><time>2026-05-01T09:09:45.484Z</time></trkpt><trkpt lat="42.2462523" lon="14.2067224"><ele>344.0</ele><time>2026-05-01T09:09:46.483Z</time></trkpt><trkpt lat="42.2462565" lon="14.2065999"><ele>344.0</ele><time>2026-05-01T09:09:47.484Z</time></trkpt><trkpt lat="42.2462761" lon="14.2064829"><ele>344.0</ele><time>2026-05-01T09:09:48.482Z</time></trkpt><trkpt lat="42.2463047" lon="14.2063576"><ele>344.0</ele><time>2026-05-01T09:09:49.483Z</time></trkpt><trkpt lat="42.2463452" lon="14.2062318"><ele>344.0</ele><time>2026-05-01T09:09:50.484Z</time></trkpt><trkpt lat="42.2463932" lon="14.2061095"><ele>346.0</ele><time>2026-05-01T09:09:51.483Z</time></trkpt><trkpt lat="42.2464518" lon="14.2059915"><ele>348.0</ele><time>2026-05-01T09:09:52.482Z</time></trkpt><trkpt lat="42.2464921" lon="14.2059037"><ele>350.0</ele><time>2026-05-01T09:09:53.482Z</time></trkpt><trkpt lat="42.2465234" lon="14.2058298"><ele>352.0</ele><time>2026-05-01T09:09:54.482Z</time></trkpt><trkpt lat="42.2465059" lon="14.2057463"><ele>354.0</ele><time>2026-05-01T09:12:21.482Z</time></trkpt><trkpt lat="42.2463938" lon="14.205597"><ele>358.6</ele><time>2026-05-01T09:12:54.482Z</time></trkpt><trkpt lat="42.2463226" lon="14.2055203"><ele>363.2</ele><time>2026-05-01T09:12:55.481Z</time></trkpt><trkpt lat="42.246235" lon="14.2054207"><ele>367.8</ele><time>2026-05-01T09:12:56.481Z</time></trkpt><trkpt lat="42.2461602" lon="14.205305"><ele>372.40000000000003</ele><time>2026-05-01T09:12:57.482Z</time></trkpt><trkpt lat="42.246087" lon="14.2051918"><ele>377.0</ele><time>2026-05-01T09:12:58.482Z</time></trkpt><trkpt lat="42.2460192" lon="14.2050998"><ele>377.0</ele><time>2026-05-01T09:12:59.482Z</time></trkpt><trkpt lat="42.2459574" lon="14.2050229"><ele>377.0</ele><time>2026-05-01T09:13:00.482Z</time></trkpt><trkpt lat="42.2459171" lon="14.2049389"><ele>377.0</ele><time>2026-05-01T09:28:30.475Z</time></trkpt><trkpt lat="42.2458772" lon="14.2048124"><ele>377.0</ele><time>2026-05-01T09:28:32.475Z</time></trkpt><trkpt lat="42.2458551" lon="14.2046485"><ele>377.0</ele><time>2026-05-01T09:28:34.475Z</time></trkpt><trkpt lat="42.2458771" lon="14.2045626"><ele>377.6666666666667</ele><time>2026-05-01T09:28:35.475Z</time></trkpt><trkpt lat="42.2459128" lon="14.2044725"><ele>378.33333333333337</ele><time>2026-05-01T09:28:36.475Z</time></trkpt><trkpt lat="42.2459546" lon="14.2043662"><ele>379.0</ele><time>2026-05-01T09:28:37.474Z</time></trkpt><trkpt lat="42.2459948" lon="14.2042577"><ele>379.6666666666667</ele><time>2026-05-01T09:28:38.475Z</time></trkpt><trkpt lat="42.2460285" lon="14.2041487"><ele>380.3333333333333</ele><time>2026-05-01T09:28:39.476Z</time></trkpt><trkpt lat="42.2460575" lon="14.2040387"><ele>381.0</ele><time>2026-05-01T09:28:40.475Z</time></trkpt><trkpt lat="42.2460704" lon="14.2039052"><ele>382.4</ele><time>2026-05-01T09:28:41.476Z</time></trkpt><trkpt lat="42.246072" lon="14.2037793"><ele>383.8</ele><time>2026-05-01T09:28:42.475Z</time></trkpt><trkpt lat="42.246063" lon="14.2036417"><ele>385.2</ele><time>2026-05-01T09:28:43.475Z</time></trkpt><trkpt lat="42.2460514" lon="14.2035058"><ele>386.59999999999997</ele><time>2026-05-01T09:28:44.474Z</time></trkpt><trkpt lat="42.2460288" lon="14.2033642"><ele>388.0</ele><time>2026-05-01T09:28:45.476Z</time></trkpt><trkpt lat="42.2459875" lon="14.203216"><ele>389.5</ele><time>2026-05-01T09:28:46.475Z</time></trkpt><trkpt lat="42.2459386" lon="14.203072"><ele>391.0</ele><time>2026-05-01T09:28:47.474Z</time></trkpt><trkpt lat="42.2458919" lon="14.2029348"><ele>392.5</ele><time>2026-05-01T09:28:48.475Z</time></trkpt><trkpt lat="42.245839" lon="14.2028194"><ele>394.0</ele><time>2026-05-01T09:28:49.474Z</time></trkpt><trkpt lat="42.2457104" lon="14.2027761"><ele>394.00000000000006</ele><time>2026-05-01T09:28:51.474Z</time></trkpt><trkpt lat="42.2456315" lon="14.2027352"><ele>394.0</ele><time>2026-05-01T09:28:52.475Z</time></trkpt><trkpt lat="42.2455717" lon="14.2026621"><ele>394.0</ele><time>2026-05-01T09:28:53.476Z</time></trkpt><trkpt lat="42.2455211" lon="14.2025459"><ele>394.0</ele><time>2026-05-01T09:28:54.475Z</time></trkpt><trkpt lat="42.2454792" lon="14.2024421"><ele>394.00000000000006</ele><time>2026-05-01T09:28:55.476Z</time></trkpt><trkpt lat="42.2454571" lon="14.2023241"><ele>394.0</ele><time>2026-05-01T09:28:57.474Z</time></trkpt><trkpt lat="42.2453913" lon="14.2023736"><ele>395.6</ele><time>2026-05-01T09:29:00.474Z</time></trkpt><trkpt lat="42.2453616" lon="14.2024661"><ele>397.2</ele><time>2026-05-01T09:29:01.475Z</time></trkpt><trkpt lat="42.2453141" lon="14.2025746"><ele>398.8</ele><time>2026-05-01T09:29:02.474Z</time></trkpt><trkpt lat="42.245254" lon="14.2026951"><ele>400.40000000000003</ele><time>2026-05-01T09:29:03.475Z</time></trkpt><trkpt lat="42.245167" lon="14.2028034"><ele>402.0</ele><time>2026-05-01T09:29:04.475Z</time></trkpt><trkpt lat="42.2450701" lon="14.2028924"><ele>402.0</ele><time>2026-05-01T09:29:05.475Z</time></trkpt><trkpt lat="42.2449108" lon="14.20297"><ele>402.0</ele><time>2026-05-01T09:29:06.475Z</time></trkpt><trkpt lat="42.2447749" lon="14.2030271"><ele>402.0</ele><time>2026-05-01T09:29:07.475Z</time></trkpt><trkpt lat="42.2446636" lon="14.2031106"><ele>402.0</ele><time>2026-05-01T09:29:08.474Z</time></trkpt><trkpt lat="42.2445638" lon="14.2032137"><ele>401.5</ele><time>2026-05-01T09:29:09.476Z</time></trkpt><trkpt lat="42.2444935" lon="14.2033618"><ele>401.0</ele><time>2026-05-01T09:29:10.475Z</time></trkpt><trkpt lat="42.2444532" lon="14.2035525"><ele>400.5</ele><time>2026-05-01T09:29:11.475Z</time></trkpt><trkpt lat="42.2444155" lon="14.203755"><ele>400.0</ele><time>2026-05-01T09:29:12.474Z</time></trkpt><trkpt lat="42.2443854" lon="14.2039628"><ele>398.0</ele><time>2026-05-01T09:29:13.475Z</time></trkpt><trkpt lat="42.2443463" lon="14.2041613"><ele>396.0</ele><time>2026-05-01T09:29:14.475Z</time></trkpt><trkpt lat="42.2442864" lon="14.2043324"><ele>394.0</ele><time>2026-05-01T09:29:15.475Z</time></trkpt><trkpt lat="42.2442006" lon="14.2044836"><ele>392.0</ele><time>2026-05-01T09:29:16.475Z</time></trkpt><trkpt lat="42.2440874" lon="14.2046308"><ele>392.0</ele><time>2026-05-01T09:29:17.474Z</time></trkpt><trkpt lat="42.2439675" lon="14.2047771"><ele>392.0</ele><time>2026-05-01T09:29:18.474Z</time></trkpt><trkpt lat="42.2438442" lon="14.2049311"><ele>392.0</ele><time>2026-05-01T09:29:19.474Z</time></trkpt><trkpt lat="42.2437383" lon="14.2051186"><ele>393.0</ele><time>2026-05-01T09:29:20.474Z</time></trkpt><trkpt lat="42.2436573" lon="14.2053121"><ele>394.0</ele><time>2026-05-01T09:29:21.474Z</time></trkpt><trkpt lat="42.2435939" lon="14.2055097"><ele>395.0</ele><time>2026-05-01T09:29:22.475Z</time></trkpt><trkpt lat="42.2435261" lon="14.2057004"><ele>391.0</ele><time>2026-05-01T09:29:23.474Z</time></trkpt><trkpt lat="42.2434272" lon="14.2058685"><ele>387.0</ele><time>2026-05-01T09:29:24.474Z</time></trkpt><trkpt lat="42.2432975" lon="14.2060141"><ele>383.0</ele><time>2026-05-01T09:29:25.474Z</time></trkpt><trkpt lat="42.2431436" lon="14.2061483"><ele>380.0</ele><time>2026-05-01T09:29:26.475Z</time></trkpt><trkpt lat="42.2429803" lon="14.2062875"><ele>377.0</ele><time>2026-05-01T09:29:27.474Z</time></trkpt><trkpt lat="42.2428134" lon="14.2064227"><ele>374.0</ele><time>2026-05-01T09:29:28.474Z</time></trkpt><trkpt lat="42.2426476" lon="14.206549"><ele>374.0</ele><time>2026-05-01T09:29:29.474Z</time></trkpt><trkpt lat="42.2424996" lon="14.2066758"><ele>374.0</ele><time>2026-05-01T09:29:30.474Z</time></trkpt><trkpt lat="42.2423442" lon="14.2067673"><ele>374.0</ele><time>2026-05-01T09:29:31.473Z</time></trkpt><trkpt lat="42.2421829" lon="14.2068405"><ele>375.33333333333337</ele><time>2026-05-01T09:29:32.473Z</time></trkpt><trkpt lat="42.2420129" lon="14.2068794"><ele>376.6666666666667</ele><time>2026-05-01T09:29:33.473Z</time></trkpt><trkpt lat="42.2418315" lon="14.2069113"><ele>378.0</ele><time>2026-05-01T09:29:34.474Z</time></trkpt><trkpt lat="42.2416375" lon="14.2069239"><ele>375.0</ele><time>2026-05-01T09:29:35.474Z</time></trkpt><trkpt lat="42.2414492" lon="14.2069315"><ele>372.0</ele><time>2026-05-01T09:29:36.474Z</time></trkpt><trkpt lat="42.2412634" lon="14.2069106"><ele>369.0</ele><time>2026-05-01T09:29:37.473Z</time></trkpt><trkpt lat="42.2410899" lon="14.2068634"><ele>369.0</ele><time>2026-05-01T09:29:38.475Z</time></trkpt><trkpt lat="42.2409221" lon="14.2068302"><ele>369.0</ele><time>2026-05-01T09:29:39.474Z</time></trkpt><trkpt lat="42.2407656" lon="14.2068104"><ele>369.0</ele><time>2026-05-01T09:29:40.475Z</time></trkpt><trkpt lat="42.2406604" lon="14.2068072"><ele>369.0</ele><time>2026-05-01T09:29:41.475Z</time></trkpt><trkpt lat="42.2405293" lon="14.2068324"><ele>367.2</ele><time>2026-05-01T09:29:42.474Z</time></trkpt><trkpt lat="42.2404183" lon="14.2069141"><ele>365.4</ele><time>2026-05-01T09:29:43.474Z</time></trkpt><trkpt lat="42.240302" lon="14.2069222"><ele>363.6</ele><time>2026-05-01T09:29:44.474Z</time></trkpt><trkpt lat="42.2402026" lon="14.2068937"><ele>361.8</ele><time>2026-05-01T09:29:45.474Z</time></trkpt><trkpt lat="42.2401029" lon="14.2068562"><ele>360.0</ele><time>2026-05-01T09:29:46.474Z</time></trkpt><trkpt lat="42.2400135" lon="14.2068357"><ele>360.0</ele><time>2026-05-01T09:29:47.473Z</time></trkpt><trkpt lat="42.2399091" lon="14.2068187"><ele>360.0</ele><time>2026-05-01T09:29:49.475Z</time></trkpt><trkpt lat="42.2397993" lon="14.2067391"><ele>360.0</ele><time>2026-05-01T09:29:51.474Z</time></trkpt><trkpt lat="42.2397161" lon="14.2066637"><ele>360.0</ele><time>2026-05-01T09:29:52.474Z</time></trkpt><trkpt lat="42.2396098" lon="14.206571"><ele>359.0</ele><time>2026-05-01T09:29:53.474Z</time></trkpt><trkpt lat="42.2395035" lon="14.2064586"><ele>358.0</ele><time>2026-05-01T09:29:54.474Z</time></trkpt><trkpt lat="42.2393997" lon="14.2063545"><ele>357.0</ele><time>2026-05-01T09:29:55.475Z</time></trkpt><trkpt lat="42.2393064" lon="14.2062476"><ele>356.0</ele><time>2026-05-01T09:29:56.474Z</time></trkpt><trkpt lat="42.2392409" lon="14.2061355"><ele>356.0</ele><time>2026-05-01T09:29:57.474Z</time></trkpt><trkpt lat="42.2391742" lon="14.2059992"><ele>356.0</ele><time>2026-05-01T09:29:58.474Z</time></trkpt><trkpt lat="42.2391131" lon="14.2058425"><ele>356.0</ele><time>2026-05-01T09:29:59.473Z</time></trkpt><trkpt lat="42.239046" lon="14.2056697"><ele>356.0</ele><time>2026-05-01T09:30:00.474Z</time></trkpt><trkpt lat="42.2389723" lon="14.2055088"><ele>353.8</ele><time>2026-05-01T09:30:01.474Z</time></trkpt><trkpt lat="42.2388943" lon="14.2053644"><ele>351.6</ele><time>2026-05-01T09:30:02.474Z</time></trkpt><trkpt lat="42.2388168" lon="14.2052252"><ele>349.4</ele><time>2026-05-01T09:30:03.473Z</time></trkpt><trkpt lat="42.2387511" lon="14.2051185"><ele>347.2</ele><time>2026-05-01T09:30:04.474Z</time></trkpt><trkpt lat="42.2386882" lon="14.2050455"><ele>345.0</ele><time>2026-05-01T09:30:05.475Z</time></trkpt><trkpt lat="42.2386201" lon="14.2049787"><ele>345.0</ele><time>2026-05-01T09:30:06.474Z</time></trkpt><trkpt lat="42.2385441" lon="14.2049028"><ele>345.0</ele><time>2026-05-01T09:30:07.474Z</time></trkpt><trkpt lat="42.238487" lon="14.2047807"><ele>345.0</ele><time>2026-05-01T09:30:08.475Z</time></trkpt><trkpt lat="42.2384178" lon="14.2046744"><ele>345.0</ele><time>2026-05-01T09:30:09.474Z</time></trkpt><trkpt lat="42.2383537" lon="14.2045524"><ele>345.0</ele><time>2026-05-01T09:30:10.474Z</time></trkpt><trkpt lat="42.2383028" lon="14.2044139"><ele>346.6</ele><time>2026-05-01T09:30:11.474Z</time></trkpt><trkpt lat="42.238242" lon="14.2042784"><ele>348.2</ele><time>2026-05-01T09:30:12.473Z</time></trkpt><trkpt lat="42.2382049" lon="14.2041442"><ele>349.79999999999995</ele><time>2026-05-01T09:30:13.473Z</time></trkpt><trkpt lat="42.238163" lon="14.2040164"><ele>351.4</ele><time>2026-05-01T09:30:14.474Z</time></trkpt><trkpt lat="42.2381336" lon="14.2038978"><ele>353.0</ele><time>2026-05-01T09:30:15.473Z</time></trkpt><trkpt lat="42.2381122" lon="14.2038003"><ele>349.6666666666667</ele><time>2026-05-01T09:30:16.474Z</time></trkpt><trkpt lat="42.2381012" lon="14.2036975"><ele>346.33333333333337</ele><time>2026-05-01T09:30:17.474Z</time></trkpt><trkpt lat="42.2381075" lon="14.2035984"><ele>343.0</ele><time>2026-05-01T09:30:18.474Z</time></trkpt><trkpt lat="42.2381103" lon="14.2034966"><ele>339.6666666666667</ele><time>2026-05-01T09:30:19.475Z</time></trkpt><trkpt lat="42.2381147" lon="14.2034081"><ele>336.3333333333333</ele><time>2026-05-01T09:30:20.473Z</time></trkpt><trkpt lat="42.2380359" lon="14.2032999"><ele>333.0</ele><time>2026-05-01T09:30:22.474Z</time></trkpt><trkpt lat="42.2379679" lon="14.2032273"><ele>333.0</ele><time>2026-05-01T09:30:24.474Z</time></trkpt><trkpt lat="42.2378967" lon="14.2031741"><ele>333.0</ele><time>2026-05-01T09:30:28.475Z</time></trkpt><trkpt lat="42.2378206" lon="14.2030744"><ele>333.0</ele><time>2026-05-01T09:30:30.474Z</time></trkpt><trkpt lat="42.2377754" lon="14.2029138"><ele>333.0</ele><time>2026-05-01T09:30:32.474Z</time></trkpt><trkpt lat="42.2377068" lon="14.2027806"><ele>333.0</ele><time>2026-05-01T09:30:34.474Z</time></trkpt><trkpt lat="42.2376466" lon="14.2026985"><ele>333.3333333333333</ele><time>2026-05-01T09:30:35.474Z</time></trkpt><trkpt lat="42.2376001" lon="14.2026276"><ele>333.6666666666667</ele><time>2026-05-01T09:30:36.473Z</time></trkpt><trkpt lat="42.2375788" lon="14.2025372"><ele>334.0</ele><time>2026-05-01T09:30:37.473Z</time></trkpt><trkpt lat="42.2375389" lon="14.2024472"><ele>334.33333333333337</ele><time>2026-05-01T09:30:38.474Z</time></trkpt><trkpt lat="42.2375182" lon="14.202339"><ele>334.6666666666667</ele><time>2026-05-01T09:30:39.474Z</time></trkpt><trkpt lat="42.2375015" lon="14.2021991"><ele>335.0</ele><time>2026-05-01T09:30:40.474Z</time></trkpt><trkpt lat="42.2374747" lon="14.2020403"><ele>336.2</ele><time>2026-05-01T09:30:41.473Z</time></trkpt><trkpt lat="42.2374443" lon="14.2018902"><ele>337.4</ele><time>2026-05-01T09:30:42.473Z</time></trkpt><trkpt lat="42.2374154" lon="14.2017317"><ele>338.6</ele><time>2026-05-01T09:30:43.473Z</time></trkpt><trkpt lat="42.2373857" lon="14.2016013"><ele>339.8</ele><time>2026-05-01T09:30:44.474Z</time></trkpt><trkpt lat="42.2373837" lon="14.2014879"><ele>341.0</ele><time>2026-05-01T09:30:45.475Z</time></trkpt><trkpt lat="42.2373574" lon="14.2013543"><ele>341.5</ele><time>2026-05-01T09:30:46.475Z</time></trkpt><trkpt lat="42.2373449" lon="14.2012504"><ele>342.0</ele><time>2026-05-01T09:30:47.474Z</time></trkpt><trkpt lat="42.2373325" lon="14.201141"><ele>342.5</ele><time>2026-05-01T09:30:48.474Z</time></trkpt><trkpt lat="42.2373402" lon="14.2010204"><ele>343.0</ele><time>2026-05-01T09:30:49.474Z</time></trkpt><trkpt lat="42.2373631" lon="14.2009008"><ele>343.5</ele><time>2026-05-01T09:30:50.473Z</time></trkpt><trkpt lat="42.2373727" lon="14.2007698"><ele>344.0</ele><time>2026-05-01T09:30:51.475Z</time></trkpt><trkpt lat="42.2373803" lon="14.200657"><ele>344.79999999999995</ele><time>2026-05-01T09:30:52.474Z</time></trkpt><trkpt lat="42.2373936" lon="14.2005374"><ele>345.59999999999997</ele><time>2026-05-01T09:30:53.474Z</time></trkpt><trkpt lat="42.2374022" lon="14.200409"><ele>346.4</ele><time>2026-05-01T09:30:54.473Z</time></trkpt><trkpt lat="42.2374147" lon="14.2002886"><ele>347.2</ele><time>2026-05-01T09:30:55.474Z</time></trkpt><trkpt lat="42.2374372" lon="14.2001584"><ele>348.0</ele><time>2026-05-01T09:30:56.474Z</time></trkpt><trkpt lat="42.2374531" lon="14.2000472"><ele>348.0</ele><time>2026-05-01T09:30:57.474Z</time></trkpt><trkpt lat="42.2374684" lon="14.1999426"><ele>348.0</ele><time>2026-05-01T09:30:58.474Z</time></trkpt><trkpt lat="42.2374881" lon="14.1998049"><ele>348.0</ele><time>2026-05-01T09:31:00.473Z</time></trkpt><trkpt lat="42.2374455" lon="14.1997297"><ele>348.0</ele><time>2026-05-01T09:31:02.474Z</time></trkpt><trkpt lat="42.2373412" lon="14.1996806"><ele>348.0</ele><time>2026-05-01T09:31:04.474Z</time></trkpt><trkpt lat="42.2372666" lon="14.1996609"><ele>348.0</ele><time>2026-05-01T09:31:05.474Z</time></trkpt><trkpt lat="42.2371979" lon="14.1996317"><ele>344.5</ele><time>2026-05-01T09:31:06.474Z</time></trkpt><trkpt lat="42.2371195" lon="14.1995992"><ele>341.0</ele><time>2026-05-01T09:31:07.474Z</time></trkpt><trkpt lat="42.2370391" lon="14.1995694"><ele>337.5</ele><time>2026-05-01T09:31:08.475Z</time></trkpt><trkpt lat="42.2369608" lon="14.1995385"><ele>334.0</ele><time>2026-05-01T09:31:09.474Z</time></trkpt><trkpt lat="42.236881" lon="14.1995086"><ele>330.5</ele><time>2026-05-01T09:31:10.474Z</time></trkpt><trkpt lat="42.2367971" lon="14.1994757"><ele>327.0</ele><time>2026-05-01T09:31:11.474Z</time></trkpt><trkpt lat="42.2367107" lon="14.1994315"><ele>327.0</ele><time>2026-05-01T09:31:12.475Z</time></trkpt><trkpt lat="42.2366175" lon="14.1993991"><ele>327.0</ele><time>2026-05-01T09:31:13.474Z</time></trkpt><trkpt lat="42.2365292" lon="14.199366"><ele>327.0</ele><time>2026-05-01T09:31:14.474Z</time></trkpt><trkpt lat="42.236442" lon="14.1993386"><ele>327.0</ele><time>2026-05-01T09:31:15.474Z</time></trkpt><trkpt lat="42.236363" lon="14.1993013"><ele>327.0</ele><time>2026-05-01T09:31:16.475Z</time></trkpt><trkpt lat="42.236292" lon="14.199272"><ele>327.0</ele><time>2026-05-01T09:31:17.474Z</time></trkpt><trkpt lat="42.2361789" lon="14.1992562"><ele>323.1666666666667</ele><time>2026-05-01T09:31:19.473Z</time></trkpt><trkpt lat="42.236109" lon="14.1993556"><ele>319.3333333333333</ele><time>2026-05-01T09:31:21.474Z</time></trkpt><trkpt lat="42.2360694" lon="14.1994299"><ele>315.5</ele><time>2026-05-01T09:31:22.475Z</time></trkpt><trkpt lat="42.2360652" lon="14.1995515"><ele>311.66666666666663</ele><time>2026-05-01T09:31:23.474Z</time></trkpt><trkpt lat="42.2360283" lon="14.1996678"><ele>307.8333333333333</ele><time>2026-05-01T09:31:24.474Z</time></trkpt><trkpt lat="42.236004" lon="14.19977"><ele>304.0</ele><time>2026-05-01T09:31:25.473Z</time></trkpt><trkpt lat="42.2359742" lon="14.1998718"><ele>304.0</ele><time>2026-05-01T09:31:26.474Z</time></trkpt><trkpt lat="42.2359614" lon="14.1999626"><ele>304.0</ele><time>2026-05-01T09:31:27.474Z</time></trkpt><trkpt lat="42.2359266" lon="14.2000355"><ele>304.0</ele><time>2026-05-01T09:31:28.474Z</time></trkpt><trkpt lat="42.2358442" lon="14.2001077"><ele>304.0</ele><time>2026-05-01T09:31:30.474Z</time></trkpt><trkpt lat="42.2357695" lon="14.200102"><ele>304.0</ele><time>2026-05-01T09:31:31.474Z</time></trkpt><trkpt lat="42.2356864" lon="14.2000815"><ele>304.0</ele><time>2026-05-01T09:31:32.475Z</time></trkpt><trkpt lat="42.2355926" lon="14.2000323"><ele>300.8</ele><time>2026-05-01T09:31:33.474Z</time></trkpt><trkpt lat="42.235512" lon="14.1999781"><ele>297.59999999999997</ele><time>2026-05-01T09:31:34.474Z</time></trkpt><trkpt lat="42.2354097" lon="14.1999341"><ele>294.4</ele><time>2026-05-01T09:31:35.474Z</time></trkpt><trkpt lat="42.2353137" lon="14.1998851"><ele>291.2</ele><time>2026-05-01T09:31:36.474Z</time></trkpt><trkpt lat="42.2352309" lon="14.1998426"><ele>288.0</ele><time>2026-05-01T09:31:37.474Z</time></trkpt><trkpt lat="42.2351508" lon="14.1997888"><ele>287.8</ele><time>2026-05-01T09:31:38.474Z</time></trkpt><trkpt lat="42.2350688" lon="14.1997244"><ele>287.6</ele><time>2026-05-01T09:31:39.475Z</time></trkpt><trkpt lat="42.2349866" lon="14.1996512"><ele>287.4</ele><time>2026-05-01T09:31:40.474Z</time></trkpt><trkpt lat="42.2349205" lon="14.1995561"><ele>287.2</ele><time>2026-05-01T09:31:41.474Z</time></trkpt><trkpt lat="42.2348611" lon="14.1994442"><ele>287.0</ele><time>2026-05-01T09:31:42.475Z</time></trkpt><trkpt lat="42.2347841" lon="14.1993935"><ele>285.6666666666667</ele><time>2026-05-01T09:31:43.475Z</time></trkpt><trkpt lat="42.2347269" lon="14.1993168"><ele>284.33333333333337</ele><time>2026-05-01T09:31:44.475Z</time></trkpt><trkpt lat="42.2346599" lon="14.1992414"><ele>283.0</ele><time>2026-05-01T09:31:45.474Z</time></trkpt><trkpt lat="42.2345961" lon="14.199167"><ele>281.6666666666667</ele><time>2026-05-01T09:31:46.473Z</time></trkpt><trkpt lat="42.2345619" lon="14.1990852"><ele>280.3333333333333</ele><time>2026-05-01T09:31:47.473Z</time></trkpt><trkpt lat="42.2345262" lon="14.1990098"><ele>279.0</ele><time>2026-05-01T09:31:48.473Z</time></trkpt><trkpt lat="42.2344841" lon="14.1989403"><ele>278.3333333333333</ele><time>2026-05-01T09:31:49.473Z</time></trkpt><trkpt lat="42.2343816" lon="14.1988657"><ele>277.6666666666667</ele><time>2026-05-01T09:31:51.473Z</time></trkpt><trkpt lat="42.2342914" lon="14.1988091"><ele>277.0</ele><time>2026-05-01T09:31:53.473Z</time></trkpt><trkpt lat="42.2342239" lon="14.1987437"><ele>276.33333333333337</ele><time>2026-05-01T09:31:55.472Z</time></trkpt><trkpt lat="42.2341776" lon="14.198678"><ele>275.6666666666667</ele><time>2026-05-01T09:31:57.473Z</time></trkpt><trkpt lat="42.2341219" lon="14.1986014"><ele>275.0</ele><time>2026-05-01T09:32:00.473Z</time></trkpt><trkpt lat="42.2340596" lon="14.1985433"><ele>275.0</ele><time>2026-05-01T09:32:02.474Z</time></trkpt><trkpt lat="42.2339931" lon="14.1985397"><ele>275.0</ele><time>2026-05-01T09:32:03.474Z</time></trkpt><trkpt lat="42.2338975" lon="14.1985513"><ele>275.0</ele><time>2026-05-01T09:32:05.472Z</time></trkpt><trkpt lat="42.2338089" lon="14.1986191"><ele>275.0</ele><time>2026-05-01T09:32:07.473Z</time></trkpt><trkpt lat="42.233718" lon="14.1986131"><ele>275.0</ele><time>2026-05-01T09:32:09.473Z</time></trkpt><trkpt lat="42.2336245" lon="14.1985616"><ele>274.1666666666667</ele><time>2026-05-01T09:32:11.472Z</time></trkpt><trkpt lat="42.2335638" lon="14.1985103"><ele>273.33333333333337</ele><time>2026-05-01T09:32:12.473Z</time></trkpt><trkpt lat="42.2335147" lon="14.1984542"><ele>272.5</ele><time>2026-05-01T09:32:13.473Z</time></trkpt><trkpt lat="42.2334342" lon="14.1983663"><ele>271.6666666666667</ele><time>2026-05-01T09:32:14.473Z</time></trkpt><trkpt lat="42.2333568" lon="14.1982898"><ele>270.8333333333333</ele><time>2026-05-01T09:32:15.472Z</time></trkpt><trkpt lat="42.2332857" lon="14.1981907"><ele>270.0</ele><time>2026-05-01T09:32:16.473Z</time></trkpt><trkpt lat="42.2332326" lon="14.1981088"><ele>269.5</ele><time>2026-05-01T09:32:17.474Z</time></trkpt><trkpt lat="42.2331812" lon="14.1980218"><ele>269.0</ele><time>2026-05-01T09:32:18.474Z</time></trkpt><trkpt lat="42.2331444" lon="14.1979501"><ele>268.5</ele><time>2026-05-01T09:32:19.473Z</time></trkpt><trkpt lat="42.2331153" lon="14.1978665"><ele>268.0</ele><time>2026-05-01T09:32:21.473Z</time></trkpt><trkpt lat="42.2330106" lon="14.1978185"><ele>267.5</ele><time>2026-05-01T09:32:24.473Z</time></trkpt><trkpt lat="42.2329456" lon="14.1977826"><ele>267.0</ele><time>2026-05-01T09:32:27.473Z</time></trkpt><trkpt lat="42.2329568" lon="14.1976508"><ele>267.0</ele><time>2026-05-01T09:32:31.473Z</time></trkpt><trkpt lat="42.2329607" lon="14.1975446"><ele>267.0</ele><time>2026-05-01T09:32:34.472Z</time></trkpt><trkpt lat="42.2329727" lon="14.1973912"><ele>267.0</ele><time>2026-05-01T09:32:36.474Z</time></trkpt><trkpt lat="42.2329514" lon="14.197231"><ele>267.0</ele><time>2026-05-01T09:32:38.473Z</time></trkpt><trkpt lat="42.2329357" lon="14.1971385"><ele>267.0</ele><time>2026-05-01T09:32:39.473Z</time></trkpt><trkpt lat="42.232921" lon="14.1970489"><ele>267.6</ele><time>2026-05-01T09:32:40.473Z</time></trkpt><trkpt lat="42.2328926" lon="14.196949"><ele>268.2</ele><time>2026-05-01T09:32:41.473Z</time></trkpt><trkpt lat="42.2328691" lon="14.1968196"><ele>268.8</ele><time>2026-05-01T09:32:42.472Z</time></trkpt><trkpt lat="42.2328577" lon="14.1966748"><ele>269.4</ele><time>2026-05-01T09:32:43.473Z</time></trkpt><trkpt lat="42.2328369" lon="14.1965447"><ele>270.0</ele><time>2026-05-01T09:32:44.473Z</time></trkpt><trkpt lat="42.2328269" lon="14.1964093"><ele>270.2</ele><time>2026-05-01T09:32:45.472Z</time></trkpt><trkpt lat="42.2327958" lon="14.1962758"><ele>270.4</ele><time>2026-05-01T09:32:46.473Z</time></trkpt><trkpt lat="42.2327645" lon="14.1961625"><ele>270.6</ele><time>2026-05-01T09:32:47.473Z</time></trkpt><trkpt lat="42.2327226" lon="14.196095"><ele>270.8</ele><time>2026-05-01T09:32:48.474Z</time></trkpt><trkpt lat="42.232605" lon="14.1960329"><ele>271.0</ele><time>2026-05-01T09:32:50.472Z</time></trkpt><trkpt lat="42.2325117" lon="14.1960236"><ele>271.0</ele><time>2026-05-01T09:32:51.473Z</time></trkpt><trkpt lat="42.2324327" lon="14.1960225"><ele>271.0</ele><time>2026-05-01T09:32:52.473Z</time></trkpt><trkpt lat="42.2323352" lon="14.1960479"><ele>271.0</ele><time>2026-05-01T09:32:53.474Z</time></trkpt><trkpt lat="42.232234" lon="14.1960584"><ele>271.0</ele><time>2026-05-01T09:32:54.474Z</time></trkpt><trkpt lat="42.2321271" lon="14.1960754"><ele>271.0</ele><time>2026-05-01T09:32:55.473Z</time></trkpt><trkpt lat="42.2320177" lon="14.1960883"><ele>271.75</ele><time>2026-05-01T09:32:56.473Z</time></trkpt><trkpt lat="42.2319049" lon="14.1961029"><ele>272.5</ele><time>2026-05-01T09:32:57.473Z</time></trkpt><trkpt lat="42.2317974" lon="14.1961158"><ele>273.25</ele><time>2026-05-01T09:32:58.474Z</time></trkpt><trkpt lat="42.2316649" lon="14.1961209"><ele>274.0</ele><time>2026-05-01T09:32:59.473Z</time></trkpt><trkpt lat="42.2315567" lon="14.196131"><ele>274.5</ele><time>2026-05-01T09:33:00.473Z</time></trkpt><trkpt lat="42.2314431" lon="14.1961411"><ele>275.0</ele><time>2026-05-01T09:33:01.473Z</time></trkpt><trkpt lat="42.2313185" lon="14.196145"><ele>275.5</ele><time>2026-05-01T09:33:02.473Z</time></trkpt><trkpt lat="42.2312017" lon="14.1961383"><ele>276.0</ele><time>2026-05-01T09:33:03.474Z</time></trkpt><trkpt lat="42.2310839" lon="14.1961461"><ele>276.0</ele><time>2026-05-01T09:33:04.473Z</time></trkpt><trkpt lat="42.2309608" lon="14.1960933"><ele>276.0</ele><time>2026-05-01T09:33:05.473Z</time></trkpt><trkpt lat="42.2308442" lon="14.1960628"><ele>276.0</ele><time>2026-05-01T09:33:06.472Z</time></trkpt><trkpt lat="42.2307243" lon="14.1960138"><ele>276.0</ele><time>2026-05-01T09:33:07.472Z</time></trkpt><trkpt lat="42.2306275" lon="14.1959418"><ele>276.0</ele><time>2026-05-01T09:33:08.473Z</time></trkpt><trkpt lat="42.2305193" lon="14.1958895"><ele>276.0</ele><time>2026-05-01T09:33:09.473Z</time></trkpt><trkpt lat="42.2304329" lon="14.1957676"><ele>276.0</ele><time>2026-05-01T09:33:10.473Z</time></trkpt><trkpt lat="42.2303355" lon="14.1956679"><ele>276.0</ele><time>2026-05-01T09:33:11.473Z</time></trkpt><trkpt lat="42.2302726" lon="14.1956154"><ele>276.0</ele><time>2026-05-01T09:33:12.473Z</time></trkpt><trkpt lat="42.2301766" lon="14.1955543"><ele>277.0</ele><time>2026-05-01T09:33:13.473Z</time></trkpt><trkpt lat="42.2300751" lon="14.195498"><ele>278.0</ele><time>2026-05-01T09:33:14.474Z</time></trkpt><trkpt lat="42.2299662" lon="14.1954805"><ele>279.0</ele><time>2026-05-01T09:33:15.473Z</time></trkpt><trkpt lat="42.22987" lon="14.1954489"><ele>280.0</ele><time>2026-05-01T09:33:16.473Z</time></trkpt><trkpt lat="42.2298214" lon="14.1953581"><ele>281.0</ele><time>2026-05-01T09:33:17.474Z</time></trkpt><trkpt lat="42.2297538" lon="14.1952708"><ele>281.0</ele><time>2026-05-01T09:33:18.473Z</time></trkpt><trkpt lat="42.2296954" lon="14.1951779"><ele>281.0</ele><time>2026-05-01T09:33:19.474Z</time></trkpt><trkpt lat="42.2296463" lon="14.1950591"><ele>281.0</ele><time>2026-05-01T09:33:20.473Z</time></trkpt><trkpt lat="42.229571" lon="14.1949167"><ele>281.0</ele><time>2026-05-01T09:33:21.473Z</time></trkpt><trkpt lat="42.2294962" lon="14.1948048"><ele>281.0</ele><time>2026-05-01T09:33:22.473Z</time></trkpt><trkpt lat="42.2294102" lon="14.1946805"><ele>282.5</ele><time>2026-05-01T09:33:23.474Z</time></trkpt><trkpt lat="42.2293397" lon="14.1945423"><ele>284.0</ele><time>2026-05-01T09:33:24.472Z</time></trkpt><trkpt lat="42.2292505" lon="14.1944075"><ele>285.5</ele><time>2026-05-01T09:33:25.472Z</time></trkpt><trkpt lat="42.2291528" lon="14.1942692"><ele>287.0</ele><time>2026-05-01T09:33:26.473Z</time></trkpt><trkpt lat="42.2290492" lon="14.1941346"><ele>287.0</ele><time>2026-05-01T09:33:27.473Z</time></trkpt><trkpt lat="42.2289625" lon="14.1940131"><ele>287.0</ele><time>2026-05-01T09:33:28.473Z</time></trkpt><trkpt lat="42.2288732" lon="14.1939206"><ele>287.0</ele><time>2026-05-01T09:33:29.474Z</time></trkpt><trkpt lat="42.2287912" lon="14.1938379"><ele>287.0</ele><time>2026-05-01T09:33:30.473Z</time></trkpt><trkpt lat="42.2287004" lon="14.1937538"><ele>288.8</ele><time>2026-05-01T09:33:31.473Z</time></trkpt><trkpt lat="42.2286276" lon="14.1937452"><ele>290.6</ele><time>2026-05-01T09:33:32.473Z</time></trkpt><trkpt lat="42.228539" lon="14.1937092"><ele>292.40000000000003</ele><time>2026-05-01T09:33:33.473Z</time></trkpt><trkpt lat="42.228437" lon="14.1936718"><ele>294.2</ele><time>2026-05-01T09:33:34.473Z</time></trkpt><trkpt lat="42.2283356" lon="14.1936428"><ele>296.0</ele><time>2026-05-01T09:33:35.474Z</time></trkpt><trkpt lat="42.2282332" lon="14.1935627"><ele>294.75</ele><time>2026-05-01T09:33:36.473Z</time></trkpt><trkpt lat="42.2281389" lon="14.1934904"><ele>293.5</ele><time>2026-05-01T09:33:37.473Z</time></trkpt><trkpt lat="42.2280526" lon="14.1933793"><ele>292.25</ele><time>2026-05-01T09:33:38.472Z</time></trkpt><trkpt lat="42.2279586" lon="14.1932785"><ele>291.0</ele><time>2026-05-01T09:33:39.473Z</time></trkpt><trkpt lat="42.227865" lon="14.1931812"><ele>293.5</ele><time>2026-05-01T09:33:40.473Z</time></trkpt><trkpt lat="42.2277411" lon="14.1930951"><ele>296.0</ele><time>2026-05-01T09:33:41.473Z</time></trkpt><trkpt lat="42.2276279" lon="14.1930023"><ele>298.5</ele><time>2026-05-01T09:33:42.474Z</time></trkpt><trkpt lat="42.2275092" lon="14.1929052"><ele>301.0</ele><time>2026-05-01T09:33:43.473Z</time></trkpt><trkpt lat="42.2273856" lon="14.1927952"><ele>300.75</ele><time>2026-05-01T09:33:44.474Z</time></trkpt><trkpt lat="42.2272699" lon="14.1927014"><ele>300.5</ele><time>2026-05-01T09:33:45.474Z</time></trkpt><trkpt lat="42.2271696" lon="14.1926276"><ele>300.25</ele><time>2026-05-01T09:33:46.473Z</time></trkpt><trkpt lat="42.2270608" lon="14.1925768"><ele>300.0</ele><time>2026-05-01T09:33:47.472Z</time></trkpt><trkpt lat="42.2269287" lon="14.1925418"><ele>300.0</ele><time>2026-05-01T09:33:48.473Z</time></trkpt><trkpt lat="42.226804" lon="14.1925238"><ele>300.0</ele><time>2026-05-01T09:33:49.472Z</time></trkpt><trkpt lat="42.2266639" lon="14.1925133"><ele>300.0</ele><time>2026-05-01T09:33:50.473Z</time></trkpt><trkpt lat="42.2265125" lon="14.1924951"><ele>300.0</ele><time>2026-05-01T09:33:51.473Z</time></trkpt><trkpt lat="42.2263715" lon="14.192494"><ele>300.5</ele><time>2026-05-01T09:33:52.473Z</time></trkpt><trkpt lat="42.226246" lon="14.1925179"><ele>301.0</ele><time>2026-05-01T09:33:53.473Z</time></trkpt><trkpt lat="42.226104" lon="14.1925646"><ele>301.5</ele><time>2026-05-01T09:33:54.473Z</time></trkpt><trkpt lat="42.2259645" lon="14.1926325"><ele>302.0</ele><time>2026-05-01T09:33:55.473Z</time></trkpt><trkpt lat="42.2258319" lon="14.1926944"><ele>302.0</ele><time>2026-05-01T09:33:56.473Z</time></trkpt><trkpt lat="42.225698" lon="14.1927229"><ele>302.0</ele><time>2026-05-01T09:33:57.473Z</time></trkpt><trkpt lat="42.2255621" lon="14.1927616"><ele>302.0</ele><time>2026-05-01T09:33:58.474Z</time></trkpt><trkpt lat="42.2254208" lon="14.1927751"><ele>302.0</ele><time>2026-05-01T09:33:59.472Z</time></trkpt><trkpt lat="42.2252838" lon="14.1927844"><ele>302.75</ele><time>2026-05-01T09:34:00.472Z</time></trkpt><trkpt lat="42.2251443" lon="14.1927948"><ele>303.5</ele><time>2026-05-01T09:34:01.472Z</time></trkpt><trkpt lat="42.2249992" lon="14.1928059"><ele>304.25</ele><time>2026-05-01T09:34:02.472Z</time></trkpt><trkpt lat="42.2248434" lon="14.1928339"><ele>305.0</ele><time>2026-05-01T09:34:03.472Z</time></trkpt><trkpt lat="42.2246932" lon="14.1928564"><ele>305.5</ele><time>2026-05-01T09:34:04.473Z</time></trkpt><trkpt lat="42.2245457" lon="14.1928806"><ele>306.0</ele><time>2026-05-01T09:34:05.474Z</time></trkpt><trkpt lat="42.2244072" lon="14.1928839"><ele>306.5</ele><time>2026-05-01T09:34:06.473Z</time></trkpt><trkpt lat="42.2242893" lon="14.1928713"><ele>307.0</ele><time>2026-05-01T09:34:07.473Z</time></trkpt><trkpt lat="42.2241624" lon="14.1928679"><ele>307.0</ele><time>2026-05-01T09:34:08.473Z</time></trkpt><trkpt lat="42.2240476" lon="14.1928258"><ele>307.0</ele><time>2026-05-01T09:34:09.473Z</time></trkpt><trkpt lat="42.2239956" lon="14.1926963"><ele>307.0</ele><time>2026-05-01T09:34:10.473Z</time></trkpt><trkpt lat="42.2239242" lon="14.1926092"><ele>307.0</ele><time>2026-05-01T09:34:11.473Z</time></trkpt><trkpt lat="42.2238492" lon="14.1925248"><ele>307.0</ele><time>2026-05-01T09:34:12.473Z</time></trkpt><trkpt lat="42.2237716" lon="14.1924751"><ele>307.8333333333333</ele><time>2026-05-01T09:34:13.474Z</time></trkpt><trkpt lat="42.2236907" lon="14.1924553"><ele>308.66666666666663</ele><time>2026-05-01T09:34:14.472Z</time></trkpt><trkpt lat="42.2236278" lon="14.1924616"><ele>309.5</ele><time>2026-05-01T09:34:15.473Z</time></trkpt><trkpt lat="42.223552" lon="14.1924965"><ele>310.3333333333333</ele><time>2026-05-01T09:34:16.474Z</time></trkpt><trkpt lat="42.2234489" lon="14.1925463"><ele>311.1666666666667</ele><time>2026-05-01T09:34:18.473Z</time></trkpt><trkpt lat="42.2233573" lon="14.1925914"><ele>312.0</ele><time>2026-05-01T09:34:20.472Z</time></trkpt><trkpt lat="42.2232228" lon="14.1926166"><ele>312.5</ele><time>2026-05-01T09:34:22.471Z</time></trkpt><trkpt lat="42.2231217" lon="14.1926445"><ele>313.0</ele><time>2026-05-01T09:34:23.472Z</time></trkpt><trkpt lat="42.223011" lon="14.1926653"><ele>313.5</ele><time>2026-05-01T09:34:24.471Z</time></trkpt><trkpt lat="42.2228893" lon="14.1926912"><ele>314.0</ele><time>2026-05-01T09:34:25.472Z</time></trkpt><trkpt lat="42.2227656" lon="14.1927157"><ele>314.0</ele><time>2026-05-01T09:34:26.471Z</time></trkpt><trkpt lat="42.2226412" lon="14.1927332"><ele>314.0</ele><time>2026-05-01T09:34:27.472Z</time></trkpt><trkpt lat="42.2225277" lon="14.1927294"><ele>314.0</ele><time>2026-05-01T09:34:28.472Z</time></trkpt><trkpt lat="42.2224208" lon="14.1927149"><ele>314.0</ele><time>2026-05-01T09:34:29.473Z</time></trkpt><trkpt lat="42.2223164" lon="14.1926923"><ele>314.6666666666667</ele><time>2026-05-01T09:34:30.473Z</time></trkpt><trkpt lat="42.2222271" lon="14.1926673"><ele>315.33333333333337</ele><time>2026-05-01T09:34:31.472Z</time></trkpt><trkpt lat="42.2221457" lon="14.1926348"><ele>316.0</ele><time>2026-05-01T09:34:32.472Z</time></trkpt><trkpt lat="42.2220752" lon="14.1926091"><ele>316.6666666666667</ele><time>2026-05-01T09:34:33.472Z</time></trkpt><trkpt lat="42.2219741" lon="14.1925831"><ele>317.3333333333333</ele><time>2026-05-01T09:34:34.472Z</time></trkpt><trkpt lat="42.2218915" lon="14.1925481"><ele>318.0</ele><time>2026-05-01T09:34:35.472Z</time></trkpt><trkpt lat="42.2218004" lon="14.1925157"><ele>318.0</ele><time>2026-05-01T09:34:36.472Z</time></trkpt><trkpt lat="42.2217018" lon="14.1924869"><ele>318.0</ele><time>2026-05-01T09:34:37.472Z</time></trkpt><trkpt lat="42.2216206" lon="14.1924473"><ele>318.0</ele><time>2026-05-01T09:34:38.472Z</time></trkpt><trkpt lat="42.2215654" lon="14.1924005"><ele>318.0</ele><time>2026-05-01T09:34:39.472Z</time></trkpt><trkpt lat="42.2214998" lon="14.1923435"><ele>318.0</ele><time>2026-05-01T09:34:40.472Z</time></trkpt><trkpt lat="42.2214414" lon="14.1922895"><ele>318.0</ele><time>2026-05-01T09:34:41.472Z</time></trkpt><trkpt lat="42.2213837" lon="14.1922358"><ele>319.0</ele><time>2026-05-01T09:34:42.472Z</time></trkpt><trkpt lat="42.2213276" lon="14.1921845"><ele>320.0</ele><time>2026-05-01T09:34:43.472Z</time></trkpt><trkpt lat="42.2212221" lon="14.1921293"><ele>321.0</ele><time>2026-05-01T09:34:45.473Z</time></trkpt><trkpt lat="42.2212035" lon="14.1922224"><ele>322.0</ele><time>2026-05-01T09:34:48.472Z</time></trkpt><trkpt lat="42.2212607" lon="14.1922689"><ele>323.0</ele><time>2026-05-01T09:34:49.473Z</time></trkpt><trkpt lat="42.2213353" lon="14.1923373"><ele>324.0</ele><time>2026-05-01T09:34:50.473Z</time></trkpt><trkpt lat="42.2214235" lon="14.1924283"><ele>322.5</ele><time>2026-05-01T09:34:51.472Z</time></trkpt><trkpt lat="42.2215295" lon="14.1925399"><ele>321.0</ele><time>2026-05-01T09:34:52.472Z</time></trkpt><trkpt lat="42.2216369" lon="14.1926619"><ele>319.5</ele><time>2026-05-01T09:34:53.471Z</time></trkpt><trkpt lat="42.2217562" lon="14.192795"><ele>318.0</ele><time>2026-05-01T09:34:54.472Z</time></trkpt><trkpt lat="42.2218841" lon="14.1929249"><ele>318.0</ele><time>2026-05-01T09:34:55.472Z</time></trkpt><trkpt lat="42.22201" lon="14.1930523"><ele>318.0</ele><time>2026-05-01T09:34:56.472Z</time></trkpt><trkpt lat="42.2221311" lon="14.1931686"><ele>318.0</ele><time>2026-05-01T09:34:57.472Z</time></trkpt><trkpt lat="42.2222476" lon="14.1932773"><ele>318.0</ele><time>2026-05-01T09:34:58.472Z</time></trkpt><trkpt lat="42.2223651" lon="14.1933721"><ele>316.0</ele><time>2026-05-01T09:34:59.471Z</time></trkpt><trkpt lat="42.2224878" lon="14.1934642"><ele>314.0</ele><time>2026-05-01T09:35:00.471Z</time></trkpt><trkpt lat="42.2226184" lon="14.19356"><ele>312.0</ele><time>2026-05-01T09:35:01.473Z</time></trkpt><trkpt lat="42.222751" lon="14.1936512"><ele>310.0</ele><time>2026-05-01T09:35:02.472Z</time></trkpt><trkpt lat="42.2228808" lon="14.1937349"><ele>310.0</ele><time>2026-05-01T09:35:03.472Z</time></trkpt><trkpt lat="42.2230183" lon="14.1938308"><ele>310.0</ele><time>2026-05-01T09:35:04.472Z</time></trkpt><trkpt lat="42.2231531" lon="14.1939255"><ele>310.0</ele><time>2026-05-01T09:35:05.472Z</time></trkpt><trkpt lat="42.2232817" lon="14.1940127"><ele>308.5</ele><time>2026-05-01T09:35:06.473Z</time></trkpt><trkpt lat="42.2234192" lon="14.1940873"><ele>307.0</ele><time>2026-05-01T09:35:07.471Z</time></trkpt><trkpt lat="42.2235511" lon="14.1941522"><ele>305.5</ele><time>2026-05-01T09:35:08.472Z</time></trkpt><trkpt lat="42.2236678" lon="14.1942152"><ele>304.0</ele><time>2026-05-01T09:35:09.472Z</time></trkpt><trkpt lat="42.2237884" lon="14.1943022"><ele>304.0</ele><time>2026-05-01T09:35:10.472Z</time></trkpt><trkpt lat="42.2239034" lon="14.1943944"><ele>304.0</ele><time>2026-05-01T09:35:11.472Z</time></trkpt><trkpt lat="42.2239979" lon="14.1945167"><ele>304.0</ele><time>2026-05-01T09:35:12.473Z</time></trkpt><trkpt lat="42.2240912" lon="14.1946193"><ele>304.0</ele><time>2026-05-01T09:35:13.473Z</time></trkpt><trkpt lat="42.2242145" lon="14.194702"><ele>303.5</ele><time>2026-05-01T09:35:14.471Z</time></trkpt><trkpt lat="42.2243348" lon="14.1947885"><ele>303.0</ele><time>2026-05-01T09:35:15.472Z</time></trkpt><trkpt lat="42.2244552" lon="14.1948575"><ele>302.5</ele><time>2026-05-01T09:35:16.472Z</time></trkpt><trkpt lat="42.2245846" lon="14.1949034"><ele>302.0</ele><time>2026-05-01T09:35:17.472Z</time></trkpt><trkpt lat="42.2246944" lon="14.1949348"><ele>301.6</ele><time>2026-05-01T09:35:18.472Z</time></trkpt><trkpt lat="42.2248021" lon="14.1949438"><ele>301.2</ele><time>2026-05-01T09:35:19.472Z</time></trkpt><trkpt lat="42.2249133" lon="14.1949342"><ele>300.8</ele><time>2026-05-01T09:35:20.471Z</time></trkpt><trkpt lat="42.2250056" lon="14.1949438"><ele>300.4</ele><time>2026-05-01T09:35:21.471Z</time></trkpt><trkpt lat="42.2250993" lon="14.1949643"><ele>300.0</ele><time>2026-05-01T09:35:22.471Z</time></trkpt><trkpt lat="42.2251845" lon="14.1949946"><ele>298.6</ele><time>2026-05-01T09:35:23.472Z</time></trkpt><trkpt lat="42.225283" lon="14.1950635"><ele>297.2</ele><time>2026-05-01T09:35:25.471Z</time></trkpt><trkpt lat="42.2253576" lon="14.1951794"><ele>295.8</ele><time>2026-05-01T09:35:27.472Z</time></trkpt><trkpt lat="42.2253934" lon="14.1953207"><ele>294.4</ele><time>2026-05-01T09:35:29.473Z</time></trkpt><trkpt lat="42.2254068" lon="14.1954134"><ele>293.0</ele><time>2026-05-01T09:35:30.472Z</time></trkpt><trkpt lat="42.225429" lon="14.1954998"><ele>292.99999999999994</ele><time>2026-05-01T09:35:31.471Z</time></trkpt><trkpt lat="42.2254737" lon="14.1955618"><ele>293.0</ele><time>2026-05-01T09:35:32.471Z</time></trkpt><trkpt lat="42.2255305" lon="14.1956183"><ele>293.0</ele><time>2026-05-01T09:35:33.472Z</time></trkpt><trkpt lat="42.2255977" lon="14.1956508"><ele>293.0</ele><time>2026-05-01T09:35:34.472Z</time></trkpt><trkpt lat="42.2256705" lon="14.195671"><ele>293.0</ele><time>2026-05-01T09:35:35.472Z</time></trkpt><trkpt lat="42.225763" lon="14.1956931"><ele>292.99999999999994</ele><time>2026-05-01T09:35:36.472Z</time></trkpt><trkpt lat="42.2258232" lon="14.1957229"><ele>293.0</ele><time>2026-05-01T09:35:37.472Z</time></trkpt><trkpt lat="42.225881" lon="14.1957789"><ele>294.4</ele><time>2026-05-01T09:35:38.472Z</time></trkpt><trkpt lat="42.2259459" lon="14.195927"><ele>295.8</ele><time>2026-05-01T09:35:40.472Z</time></trkpt><trkpt lat="42.225947" lon="14.1960556"><ele>297.2</ele><time>2026-05-01T09:35:42.471Z</time></trkpt><trkpt lat="42.2259622" lon="14.196237"><ele>298.6</ele><time>2026-05-01T09:35:44.473Z</time></trkpt><trkpt lat="42.225988" lon="14.196327"><ele>300.0</ele><time>2026-05-01T09:35:45.472Z</time></trkpt><trkpt lat="42.226017" lon="14.196454"><ele>302.1666666666667</ele><time>2026-05-01T09:35:46.473Z</time></trkpt><trkpt lat="42.2260436" lon="14.1965629"><ele>304.3333333333333</ele><time>2026-05-01T09:35:47.471Z</time></trkpt><trkpt lat="42.2260669" lon="14.1966604"><ele>306.5</ele><time>2026-05-01T09:35:48.471Z</time></trkpt><trkpt lat="42.2261014" lon="14.19674"><ele>308.66666666666663</ele><time>2026-05-01T09:35:49.471Z</time></trkpt><trkpt lat="42.2261649" lon="14.1968062"><ele>310.8333333333333</ele><time>2026-05-01T09:35:50.472Z</time></trkpt><trkpt lat="42.2262364" lon="14.1968664"><ele>313.0</ele><time>2026-05-01T09:35:51.472Z</time></trkpt><trkpt lat="42.2263165" lon="14.196927"><ele>313.0</ele><time>2026-05-01T09:35:52.473Z</time></trkpt><trkpt lat="42.2264012" lon="14.1970037"><ele>313.0</ele><time>2026-05-01T09:35:53.471Z</time></trkpt><trkpt lat="42.226489" lon="14.197079"><ele>313.0</ele><time>2026-05-01T09:35:54.472Z</time></trkpt><trkpt lat="42.2265364" lon="14.1971734"><ele>313.0</ele><time>2026-05-01T09:35:55.473Z</time></trkpt><trkpt lat="42.2266011" lon="14.1972734"><ele>313.0</ele><time>2026-05-01T09:35:56.472Z</time></trkpt><trkpt lat="42.2266771" lon="14.1973689"><ele>313.6</ele><time>2026-05-01T09:35:57.472Z</time></trkpt><trkpt lat="42.2267716" lon="14.1974579"><ele>314.20000000000005</ele><time>2026-05-01T09:35:58.473Z</time></trkpt><trkpt lat="42.226838" lon="14.197525"><ele>314.8</ele><time>2026-05-01T09:35:59.473Z</time></trkpt><trkpt lat="42.2269376" lon="14.1976111"><ele>315.40000000000003</ele><time>2026-05-01T09:36:00.471Z</time></trkpt><trkpt lat="42.2270251" lon="14.1976989"><ele>316.0</ele><time>2026-05-01T09:36:01.472Z</time></trkpt><trkpt lat="42.2271153" lon="14.1977849"><ele>316.0</ele><time>2026-05-01T09:36:02.472Z</time></trkpt><trkpt lat="42.2272012" lon="14.1978843"><ele>316.0</ele><time>2026-05-01T09:36:03.472Z</time></trkpt><trkpt lat="42.2272718" lon="14.1979742"><ele>316.0</ele><time>2026-05-01T09:36:04.472Z</time></trkpt><trkpt lat="42.2273207" lon="14.1980755"><ele>316.0</ele><time>2026-05-01T09:36:05.473Z</time></trkpt><trkpt lat="42.227369" lon="14.1981874"><ele>316.0</ele><time>2026-05-01T09:36:06.472Z</time></trkpt><trkpt lat="42.2274021" lon="14.1983134"><ele>315.8</ele><time>2026-05-01T09:36:07.473Z</time></trkpt><trkpt lat="42.2274277" lon="14.1984412"><ele>315.6</ele><time>2026-05-01T09:36:08.471Z</time></trkpt><trkpt lat="42.2274459" lon="14.1985572"><ele>315.4</ele><time>2026-05-01T09:36:09.472Z</time></trkpt><trkpt lat="42.2274634" lon="14.1986779"><ele>315.2</ele><time>2026-05-01T09:36:10.472Z</time></trkpt><trkpt lat="42.2274621" lon="14.1987989"><ele>315.0</ele><time>2026-05-01T09:36:11.472Z</time></trkpt><trkpt lat="42.2274512" lon="14.1989259"><ele>314.42857142857144</ele><time>2026-05-01T09:36:12.472Z</time></trkpt><trkpt lat="42.2274456" lon="14.1990436"><ele>313.8571428571429</ele><time>2026-05-01T09:36:13.471Z</time></trkpt><trkpt lat="42.227465" lon="14.1991471"><ele>313.2857142857143</ele><time>2026-05-01T09:36:14.472Z</time></trkpt><trkpt lat="42.2274857" lon="14.1992447"><ele>312.7142857142857</ele><time>2026-05-01T09:36:15.472Z</time></trkpt><trkpt lat="42.2275199" lon="14.1993262"><ele>312.14285714285717</ele><time>2026-05-01T09:36:16.473Z</time></trkpt><trkpt lat="42.2275553" lon="14.1994014"><ele>311.57142857142856</ele><time>2026-05-01T09:36:17.472Z</time></trkpt><trkpt lat="42.227586" lon="14.1994858"><ele>311.0</ele><time>2026-05-01T09:36:18.473Z</time></trkpt><trkpt lat="42.2276244" lon="14.1995738"><ele>311.0</ele><time>2026-05-01T09:36:19.471Z</time></trkpt><trkpt lat="42.2276748" lon="14.1997286"><ele>311.0</ele><time>2026-05-01T09:36:21.472Z</time></trkpt><trkpt lat="42.2277035" lon="14.1998111"><ele>311.0</ele><time>2026-05-01T09:36:22.472Z</time></trkpt><trkpt lat="42.2277155" lon="14.1999127"><ele>311.0</ele><time>2026-05-01T09:36:23.472Z</time></trkpt><trkpt lat="42.2276571" lon="14.2000055"><ele>311.0</ele><time>2026-05-01T09:36:24.472Z</time></trkpt><trkpt lat="42.2276347" lon="14.2000882"><ele>311.0</ele><time>2026-05-01T09:36:25.472Z</time></trkpt><trkpt lat="42.2276053" lon="14.2001841"><ele>310.6666666666667</ele><time>2026-05-01T09:36:26.473Z</time></trkpt><trkpt lat="42.2275741" lon="14.2002641"><ele>310.33333333333337</ele><time>2026-05-01T09:36:27.473Z</time></trkpt><trkpt lat="42.2275304" lon="14.2003614"><ele>310.0</ele><time>2026-05-01T09:36:28.472Z</time></trkpt><trkpt lat="42.2274793" lon="14.2004548"><ele>309.6666666666667</ele><time>2026-05-01T09:36:29.471Z</time></trkpt><trkpt lat="42.2274312" lon="14.2005674"><ele>309.3333333333333</ele><time>2026-05-01T09:36:30.471Z</time></trkpt><trkpt lat="42.2273642" lon="14.2006242"><ele>309.0</ele><time>2026-05-01T09:36:31.473Z</time></trkpt><trkpt lat="42.2273121" lon="14.200685"><ele>307.0</ele><time>2026-05-01T09:36:32.472Z</time></trkpt><trkpt lat="42.2272771" lon="14.2007865"><ele>305.0</ele><time>2026-05-01T09:36:34.472Z</time></trkpt><trkpt lat="42.2275115" lon="14.2013854"><ele>315.0</ele><time>2026-05-01T09:36:46.472Z</time></trkpt><trkpt lat="42.2272021" lon="14.2018427"><ele>315.0</ele><time>2026-05-01T09:36:53.472Z</time></trkpt><trkpt lat="42.227154" lon="14.201933"><ele>315.0</ele><time>2026-05-01T09:36:54.472Z</time></trkpt><trkpt lat="42.2270789" lon="14.2019961"><ele>315.0</ele><time>2026-05-01T09:36:55.472Z</time></trkpt><trkpt lat="42.2270148" lon="14.2020786"><ele>315.0</ele><time>2026-05-01T09:36:56.472Z</time></trkpt><trkpt lat="42.2269403" lon="14.2021998"><ele>315.0</ele><time>2026-05-01T09:36:57.472Z</time></trkpt><trkpt lat="42.2268674" lon="14.2023161"><ele>314.0</ele><time>2026-05-01T09:36:58.472Z</time></trkpt><trkpt lat="42.2268021" lon="14.2024381"><ele>313.0</ele><time>2026-05-01T09:36:59.472Z</time></trkpt><trkpt lat="42.2267324" lon="14.2025401"><ele>312.0</ele><time>2026-05-01T09:37:00.472Z</time></trkpt><trkpt lat="42.2266789" lon="14.202615"><ele>311.0</ele><time>2026-05-01T09:37:01.473Z</time></trkpt><trkpt lat="42.2266368" lon="14.2027165"><ele>310.0</ele><time>2026-05-01T09:37:02.472Z</time></trkpt><trkpt lat="42.2265947" lon="14.2027907"><ele>309.0</ele><time>2026-05-01T09:37:03.472Z</time></trkpt><trkpt lat="42.2265056" lon="14.2029177"><ele>309.1666666666667</ele><time>2026-05-01T09:37:05.471Z</time></trkpt><trkpt lat="42.2264428" lon="14.2029995"><ele>309.3333333333333</ele><time>2026-05-01T09:37:06.471Z</time></trkpt><trkpt lat="42.2263571" lon="14.2030628"><ele>309.5</ele><time>2026-05-01T09:37:07.471Z</time></trkpt><trkpt lat="42.2263077" lon="14.2031289"><ele>309.66666666666663</ele><time>2026-05-01T09:37:08.472Z</time></trkpt><trkpt lat="42.2262523" lon="14.2032329"><ele>309.8333333333333</ele><time>2026-05-01T09:37:09.472Z</time></trkpt><trkpt lat="42.2261933" lon="14.2033362"><ele>310.0</ele><time>2026-05-01T09:37:10.471Z</time></trkpt><trkpt lat="42.2261405" lon="14.2034472"><ele>310.0</ele><time>2026-05-01T09:37:11.471Z</time></trkpt><trkpt lat="42.2260835" lon="14.2035386"><ele>310.0</ele><time>2026-05-01T09:37:12.47Z</time></trkpt><trkpt lat="42.2260155" lon="14.2036368"><ele>310.0</ele><time>2026-05-01T09:37:13.471Z</time></trkpt><trkpt lat="42.2259275" lon="14.2037381"><ele>310.0</ele><time>2026-05-01T09:37:14.471Z</time></trkpt><trkpt lat="42.2258283" lon="14.203804"><ele>310.0</ele><time>2026-05-01T09:37:15.471Z</time></trkpt><trkpt lat="42.2257376" lon="14.203888"><ele>310.0</ele><time>2026-05-01T09:37:16.47Z</time></trkpt><trkpt lat="42.2256498" lon="14.2039529"><ele>310.0</ele><time>2026-05-01T09:37:17.471Z</time></trkpt><trkpt lat="42.2255718" lon="14.2039689"><ele>310.0</ele><time>2026-05-01T09:37:18.472Z</time></trkpt><trkpt lat="42.2255019" lon="14.2040929"><ele>310.0</ele><time>2026-05-01T09:37:19.472Z</time></trkpt><trkpt lat="42.2254212" lon="14.2041591"><ele>310.0</ele><time>2026-05-01T09:37:20.471Z</time></trkpt><trkpt lat="42.2253256" lon="14.2042218"><ele>309.6</ele><time>2026-05-01T09:37:21.471Z</time></trkpt><trkpt lat="42.2252003" lon="14.2042411"><ele>309.2</ele><time>2026-05-01T09:37:22.471Z</time></trkpt><trkpt lat="42.2251215" lon="14.2043095"><ele>308.8</ele><time>2026-05-01T09:37:23.47Z</time></trkpt><trkpt lat="42.2250221" lon="14.204359"><ele>308.4</ele><time>2026-05-01T09:37:24.47Z</time></trkpt><trkpt lat="42.2249296" lon="14.2044004"><ele>308.0</ele><time>2026-05-01T09:37:25.47Z</time></trkpt><trkpt lat="42.2248781" lon="14.2044638"><ele>308.0</ele><time>2026-05-01T09:37:26.471Z</time></trkpt><trkpt lat="42.2248252" lon="14.204532"><ele>308.0</ele><time>2026-05-01T09:37:27.471Z</time></trkpt><trkpt lat="42.2247549" lon="14.2045819"><ele>308.0</ele><time>2026-05-01T09:37:28.471Z</time></trkpt><trkpt lat="42.2246936" lon="14.2046537"><ele>308.0</ele><time>2026-05-01T09:37:29.472Z</time></trkpt><trkpt lat="42.2245647" lon="14.2047309"><ele>308.0</ele><time>2026-05-01T09:37:31.472Z</time></trkpt><trkpt lat="42.2244783" lon="14.2047446"><ele>308.8</ele><time>2026-05-01T09:37:32.471Z</time></trkpt><trkpt lat="42.2243958" lon="14.2048024"><ele>309.6</ele><time>2026-05-01T09:37:33.47Z</time></trkpt><trkpt lat="42.2243263" lon="14.2048336"><ele>310.4</ele><time>2026-05-01T09:37:34.471Z</time></trkpt><trkpt lat="42.2242658" lon="14.2048778"><ele>311.2</ele><time>2026-05-01T09:37:35.471Z</time></trkpt><trkpt lat="42.2241857" lon="14.2049946"><ele>312.0</ele><time>2026-05-01T09:37:37.471Z</time></trkpt><trkpt lat="42.2240638" lon="14.2050911"><ele>313.4</ele><time>2026-05-01T09:37:39.47Z</time></trkpt><trkpt lat="42.22396" lon="14.2051285"><ele>314.79999999999995</ele><time>2026-05-01T09:37:40.471Z</time></trkpt><trkpt lat="42.2238634" lon="14.2051797"><ele>316.2</ele><time>2026-05-01T09:37:41.47Z</time></trkpt><trkpt lat="42.2237836" lon="14.2052401"><ele>317.59999999999997</ele><time>2026-05-01T09:37:42.47Z</time></trkpt><trkpt lat="42.223712" lon="14.2053226"><ele>319.0</ele><time>2026-05-01T09:37:43.471Z</time></trkpt><trkpt lat="42.2236356" lon="14.2053906"><ele>319.0</ele><time>2026-05-01T09:37:44.471Z</time></trkpt><trkpt lat="42.2235457" lon="14.2054611"><ele>319.0</ele><time>2026-05-01T09:37:45.471Z</time></trkpt><trkpt lat="42.2234521" lon="14.2055329"><ele>319.0</ele><time>2026-05-01T09:37:46.471Z</time></trkpt><trkpt lat="42.2233623" lon="14.2056032"><ele>319.0</ele><time>2026-05-01T09:37:47.472Z</time></trkpt><trkpt lat="42.2232787" lon="14.2056708"><ele>319.0</ele><time>2026-05-01T09:37:48.471Z</time></trkpt><trkpt lat="42.2231966" lon="14.2057309"><ele>320.0</ele><time>2026-05-01T09:37:49.471Z</time></trkpt><trkpt lat="42.2231137" lon="14.2058063"><ele>321.0</ele><time>2026-05-01T09:37:50.471Z</time></trkpt><trkpt lat="42.2230301" lon="14.2058982"><ele>322.0</ele><time>2026-05-01T09:37:51.47Z</time></trkpt><trkpt lat="42.2229455" lon="14.2059991"><ele>323.0</ele><time>2026-05-01T09:37:52.471Z</time></trkpt><trkpt lat="42.2228637" lon="14.2060901"><ele>324.0</ele><time>2026-05-01T09:37:53.471Z</time></trkpt><trkpt lat="42.2227897" lon="14.2061568"><ele>324.0</ele><time>2026-05-01T09:37:54.471Z</time></trkpt><trkpt lat="42.222714" lon="14.2062359"><ele>324.0</ele><time>2026-05-01T09:37:55.471Z</time></trkpt><trkpt lat="42.2226452" lon="14.2063009"><ele>324.0</ele><time>2026-05-01T09:37:56.472Z</time></trkpt><trkpt lat="42.2225844" lon="14.2063608"><ele>324.0</ele><time>2026-05-01T09:37:57.47Z</time></trkpt><trkpt lat="42.2225199" lon="14.2064117"><ele>324.0</ele><time>2026-05-01T09:37:58.471Z</time></trkpt><trkpt lat="42.2224384" lon="14.206473"><ele>324.0</ele><time>2026-05-01T09:37:59.471Z</time></trkpt><trkpt lat="42.2223486" lon="14.2065288"><ele>323.79999999999995</ele><time>2026-05-01T09:38:00.472Z</time></trkpt><trkpt lat="42.2222619" lon="14.206601"><ele>323.59999999999997</ele><time>2026-05-01T09:38:01.471Z</time></trkpt><trkpt lat="42.2221802" lon="14.2066623"><ele>323.4</ele><time>2026-05-01T09:38:02.471Z</time></trkpt><trkpt lat="42.2220882" lon="14.2067176"><ele>323.2</ele><time>2026-05-01T09:38:03.471Z</time></trkpt><trkpt lat="42.2220219" lon="14.2067411"><ele>323.0</ele><time>2026-05-01T09:38:04.47Z</time></trkpt><trkpt lat="42.2219502" lon="14.2068074"><ele>323.0</ele><time>2026-05-01T09:38:05.47Z</time></trkpt><trkpt lat="42.221872" lon="14.2068648"><ele>323.0</ele><time>2026-05-01T09:38:06.471Z</time></trkpt><trkpt lat="42.2218043" lon="14.2069187"><ele>323.0</ele><time>2026-05-01T09:38:07.471Z</time></trkpt><trkpt lat="42.2217315" lon="14.206968"><ele>323.0</ele><time>2026-05-01T09:38:08.472Z</time></trkpt><trkpt lat="42.2216684" lon="14.2070342"><ele>323.0</ele><time>2026-05-01T09:38:09.47Z</time></trkpt><trkpt lat="42.2215996" lon="14.2071148"><ele>323.0</ele><time>2026-05-01T09:38:10.47Z</time></trkpt><trkpt lat="42.2215275" lon="14.2071956"><ele>324.4</ele><time>2026-05-01T09:38:11.47Z</time></trkpt><trkpt lat="42.2214517" lon="14.207263"><ele>325.79999999999995</ele><time>2026-05-01T09:38:12.471Z</time></trkpt><trkpt lat="42.2213792" lon="14.2073307"><ele>327.2</ele><time>2026-05-01T09:38:13.471Z</time></trkpt><trkpt lat="42.2213101" lon="14.2074123"><ele>328.6</ele><time>2026-05-01T09:38:14.471Z</time></trkpt><trkpt lat="42.2212306" lon="14.2074834"><ele>330.0</ele><time>2026-05-01T09:38:15.47Z</time></trkpt><trkpt lat="42.22115" lon="14.2075398"><ele>330.0</ele><time>2026-05-01T09:38:16.471Z</time></trkpt><trkpt lat="42.2210808" lon="14.2076018"><ele>330.0</ele><time>2026-05-01T09:38:17.471Z</time></trkpt><trkpt lat="42.221008" lon="14.2076592"><ele>330.0</ele><time>2026-05-01T09:38:18.471Z</time></trkpt><trkpt lat="42.220925" lon="14.2077311"><ele>330.0</ele><time>2026-05-01T09:38:20.471Z</time></trkpt><trkpt lat="42.2208416" lon="14.2077945"><ele>330.0</ele><time>2026-05-01T09:38:22.471Z</time></trkpt><trkpt lat="42.220777" lon="14.207837"><ele>330.0</ele><time>2026-05-01T09:38:47.47Z</time></trkpt><trkpt lat="42.2206871" lon="14.2078926"><ele>330.6</ele><time>2026-05-01T09:38:50.471Z</time></trkpt><trkpt lat="42.2205924" lon="14.2079339"><ele>331.2</ele><time>2026-05-01T09:38:51.47Z</time></trkpt><trkpt lat="42.2205169" lon="14.208013"><ele>331.79999999999995</ele><time>2026-05-01T09:38:52.47Z</time></trkpt><trkpt lat="42.2204507" lon="14.2080809"><ele>332.4</ele><time>2026-05-01T09:38:53.472Z</time></trkpt><trkpt lat="42.2203703" lon="14.2081386"><ele>333.0</ele><time>2026-05-01T09:38:54.472Z</time></trkpt><trkpt lat="42.2202914" lon="14.2082025"><ele>333.0</ele><time>2026-05-01T09:38:55.471Z</time></trkpt><trkpt lat="42.2202017" lon="14.2082868"><ele>333.0</ele><time>2026-05-01T09:38:56.471Z</time></trkpt><trkpt lat="42.2201123" lon="14.2083806"><ele>333.0</ele><time>2026-05-01T09:38:57.472Z</time></trkpt><trkpt lat="42.2200118" lon="14.208461"><ele>333.0</ele><time>2026-05-01T09:38:58.47Z</time></trkpt><trkpt lat="42.2199215" lon="14.2085314"><ele>333.0</ele><time>2026-05-01T09:38:59.472Z</time></trkpt><trkpt lat="42.219815" lon="14.2086174"><ele>335.0</ele><time>2026-05-01T09:39:00.471Z</time></trkpt><trkpt lat="42.2197046" lon="14.2086912"><ele>337.0</ele><time>2026-05-01T09:39:01.47Z</time></trkpt><trkpt lat="42.2195978" lon="14.2087611"><ele>339.0</ele><time>2026-05-01T09:39:02.471Z</time></trkpt><trkpt lat="42.2194776" lon="14.2088304"><ele>341.0</ele><time>2026-05-01T09:39:03.472Z</time></trkpt><trkpt lat="42.2193686" lon="14.2088809"><ele>341.0</ele><time>2026-05-01T09:39:04.471Z</time></trkpt><trkpt lat="42.2192551" lon="14.2089147"><ele>341.0</ele><time>2026-05-01T09:39:05.471Z</time></trkpt><trkpt lat="42.2191403" lon="14.2089352"><ele>341.0</ele><time>2026-05-01T09:39:06.47Z</time></trkpt><trkpt lat="42.2190263" lon="14.2089296"><ele>341.0</ele><time>2026-05-01T09:39:07.472Z</time></trkpt><trkpt lat="42.2189142" lon="14.2088886"><ele>339.5</ele><time>2026-05-01T09:39:08.471Z</time></trkpt><trkpt lat="42.2188057" lon="14.208838"><ele>338.0</ele><time>2026-05-01T09:39:09.471Z</time></trkpt><trkpt lat="42.2187057" lon="14.2087692"><ele>336.5</ele><time>2026-05-01T09:39:10.471Z</time></trkpt><trkpt lat="42.2186104" lon="14.2086947"><ele>335.0</ele><time>2026-05-01T09:39:11.471Z</time></trkpt><trkpt lat="42.218504" lon="14.2086243"><ele>335.0</ele><time>2026-05-01T09:39:12.471Z</time></trkpt><trkpt lat="42.2183793" lon="14.2085609"><ele>335.0</ele><time>2026-05-01T09:39:13.471Z</time></trkpt><trkpt lat="42.2182587" lon="14.2084876"><ele>335.0</ele><time>2026-05-01T09:39:14.471Z</time></trkpt><trkpt lat="42.2181364" lon="14.2084132"><ele>335.0</ele><time>2026-05-01T09:39:15.472Z</time></trkpt><trkpt lat="42.2180009" lon="14.2083467"><ele>335.5</ele><time>2026-05-01T09:39:16.471Z</time></trkpt><trkpt lat="42.2178721" lon="14.2082831"><ele>336.0</ele><time>2026-05-01T09:39:17.471Z</time></trkpt><trkpt lat="42.2177351" lon="14.208241"><ele>336.5</ele><time>2026-05-01T09:39:18.471Z</time></trkpt><trkpt lat="42.2176026" lon="14.2081968"><ele>337.0</ele><time>2026-05-01T09:39:19.471Z</time></trkpt><trkpt lat="42.2174993" lon="14.2081455"><ele>338.8</ele><time>2026-05-01T09:39:20.472Z</time></trkpt><trkpt lat="42.2173999" lon="14.2081005"><ele>340.6</ele><time>2026-05-01T09:39:21.471Z</time></trkpt><trkpt lat="42.21731" lon="14.2080456"><ele>342.40000000000003</ele><time>2026-05-01T09:39:22.471Z</time></trkpt><trkpt lat="42.2172299" lon="14.2079319"><ele>344.20000000000005</ele><time>2026-05-01T09:39:23.472Z</time></trkpt><trkpt lat="42.2171359" lon="14.2078392"><ele>346.0</ele><time>2026-05-01T09:39:24.471Z</time></trkpt><trkpt lat="42.2170443" lon="14.2077213"><ele>346.0</ele><time>2026-05-01T09:39:25.471Z</time></trkpt><trkpt lat="42.216957" lon="14.2076081"><ele>346.0</ele><time>2026-05-01T09:39:26.471Z</time></trkpt><trkpt lat="42.2168547" lon="14.207515"><ele>346.0</ele><time>2026-05-01T09:39:27.47Z</time></trkpt><trkpt lat="42.2167545" lon="14.2074164"><ele>346.0</ele><time>2026-05-01T09:39:28.472Z</time></trkpt><trkpt lat="42.2166484" lon="14.2073146"><ele>347.25</ele><time>2026-05-01T09:39:29.472Z</time></trkpt><trkpt lat="42.2165209" lon="14.2072549"><ele>348.5</ele><time>2026-05-01T09:39:30.471Z</time></trkpt><trkpt lat="42.2163832" lon="14.2071728"><ele>349.75</ele><time>2026-05-01T09:39:31.471Z</time></trkpt><trkpt lat="42.2162417" lon="14.2071064"><ele>351.0</ele><time>2026-05-01T09:39:32.471Z</time></trkpt><trkpt lat="42.2161081" lon="14.2070463"><ele>351.0</ele><time>2026-05-01T09:39:33.471Z</time></trkpt><trkpt lat="42.215971" lon="14.2070018"><ele>351.0</ele><time>2026-05-01T09:39:34.471Z</time></trkpt><trkpt lat="42.2158246" lon="14.2069601"><ele>351.0</ele><time>2026-05-01T09:39:35.471Z</time></trkpt><trkpt lat="42.2156836" lon="14.2069164"><ele>351.0</ele><time>2026-05-01T09:39:36.471Z</time></trkpt><trkpt lat="42.2155448" lon="14.2068718"><ele>352.0</ele><time>2026-05-01T09:39:37.47Z</time></trkpt><trkpt lat="42.2154049" lon="14.2068217"><ele>353.0</ele><time>2026-05-01T09:39:38.471Z</time></trkpt><trkpt lat="42.2152661" lon="14.2067852"><ele>354.0</ele><time>2026-05-01T09:39:39.471Z</time></trkpt><trkpt lat="42.215135" lon="14.2067405"><ele>355.0</ele><time>2026-05-01T09:39:40.47Z</time></trkpt><trkpt lat="42.2150014" lon="14.2067018"><ele>355.0</ele><time>2026-05-01T09:39:41.471Z</time></trkpt><trkpt lat="42.2148714" lon="14.2066682"><ele>355.0</ele><time>2026-05-01T09:39:42.472Z</time></trkpt><trkpt lat="42.2147393" lon="14.2066463"><ele>355.0</ele><time>2026-05-01T09:39:43.471Z</time></trkpt><trkpt lat="42.2146114" lon="14.2066177"><ele>355.0</ele><time>2026-05-01T09:39:44.471Z</time></trkpt><trkpt lat="42.2144745" lon="14.2065736"><ele>356.25</ele><time>2026-05-01T09:39:45.472Z</time></trkpt><trkpt lat="42.2143443" lon="14.2065432"><ele>357.5</ele><time>2026-05-01T09:39:46.471Z</time></trkpt><trkpt lat="42.2142072" lon="14.206502"><ele>358.75</ele><time>2026-05-01T09:39:47.471Z</time></trkpt><trkpt lat="42.2140729" lon="14.2064621"><ele>360.0</ele><time>2026-05-01T09:39:48.472Z</time></trkpt><trkpt lat="42.2139292" lon="14.2064235"><ele>362.0</ele><time>2026-05-01T09:39:49.472Z</time></trkpt><trkpt lat="42.2137844" lon="14.2063718"><ele>364.0</ele><time>2026-05-01T09:39:50.471Z</time></trkpt><trkpt lat="42.2136422" lon="14.206325"><ele>366.0</ele><time>2026-05-01T09:39:51.47Z</time></trkpt><trkpt lat="42.2135041" lon="14.2062702"><ele>368.0</ele><time>2026-05-01T09:39:52.471Z</time></trkpt><trkpt lat="42.2133593" lon="14.2062317"><ele>368.0</ele><time>2026-05-01T09:39:53.471Z</time></trkpt><trkpt lat="42.2132183" lon="14.2061854"><ele>368.0</ele><time>2026-05-01T09:39:54.471Z</time></trkpt><trkpt lat="42.2130842" lon="14.2061351"><ele>368.0</ele><time>2026-05-01T09:39:55.472Z</time></trkpt><trkpt lat="42.2129667" lon="14.2060971"><ele>368.0</ele><time>2026-05-01T09:39:56.47Z</time></trkpt><trkpt lat="42.212861" lon="14.2060674"><ele>368.6666666666667</ele><time>2026-05-01T09:39:57.47Z</time></trkpt><trkpt lat="42.2127667" lon="14.2060442"><ele>369.33333333333337</ele><time>2026-05-01T09:39:58.47Z</time></trkpt><trkpt lat="42.2126829" lon="14.2060147"><ele>370.0</ele><time>2026-05-01T09:39:59.47Z</time></trkpt><trkpt lat="42.2126193" lon="14.2059915"><ele>370.6666666666667</ele><time>2026-05-01T09:40:00.47Z</time></trkpt><trkpt lat="42.2125431" lon="14.2059743"><ele>371.3333333333333</ele><time>2026-05-01T09:40:02.47Z</time></trkpt><trkpt lat="42.2124528" lon="14.2059725"><ele>372.0</ele><time>2026-05-01T09:40:04.47Z</time></trkpt><trkpt lat="42.212303" lon="14.2059401"><ele>372.8</ele><time>2026-05-01T09:40:06.469Z</time></trkpt><trkpt lat="42.2122196" lon="14.2059114"><ele>373.6</ele><time>2026-05-01T09:40:07.47Z</time></trkpt><trkpt lat="42.2121238" lon="14.2058938"><ele>374.40000000000003</ele><time>2026-05-01T09:40:08.47Z</time></trkpt><trkpt lat="42.2120258" lon="14.2058717"><ele>375.20000000000005</ele><time>2026-05-01T09:40:09.469Z</time></trkpt><trkpt lat="42.2119168" lon="14.2058626"><ele>376.0</ele><time>2026-05-01T09:40:10.47Z</time></trkpt><trkpt lat="42.211802" lon="14.2058308"><ele>376.0</ele><time>2026-05-01T09:40:11.47Z</time></trkpt><trkpt lat="42.2116831" lon="14.2057885"><ele>376.0</ele><time>2026-05-01T09:40:12.47Z</time></trkpt><trkpt lat="42.2115586" lon="14.2057445"><ele>376.0</ele><time>2026-05-01T09:40:13.47Z</time></trkpt><trkpt lat="42.2114293" lon="14.2057028"><ele>376.0</ele><time>2026-05-01T09:40:14.47Z</time></trkpt><trkpt lat="42.2112989" lon="14.2056546"><ele>378.75</ele><time>2026-05-01T09:40:15.471Z</time></trkpt><trkpt lat="42.2111667" lon="14.2056201"><ele>381.5</ele><time>2026-05-01T09:40:16.47Z</time></trkpt><trkpt lat="42.2110305" lon="14.2055834"><ele>384.25</ele><time>2026-05-01T09:40:17.471Z</time></trkpt><trkpt lat="42.2109137" lon="14.2055421"><ele>387.0</ele><time>2026-05-01T09:40:18.47Z</time></trkpt><trkpt lat="42.2107831" lon="14.2055105"><ele>387.25</ele><time>2026-05-01T09:40:19.471Z</time></trkpt><trkpt lat="42.2106547" lon="14.2054656"><ele>387.5</ele><time>2026-05-01T09:40:20.469Z</time></trkpt><trkpt lat="42.2105325" lon="14.2054343"><ele>387.75</ele><time>2026-05-01T09:40:21.471Z</time></trkpt><trkpt lat="42.2104218" lon="14.2054047"><ele>388.0</ele><time>2026-05-01T09:40:22.469Z</time></trkpt><trkpt lat="42.2103075" lon="14.2053764"><ele>388.0</ele><time>2026-05-01T09:40:23.47Z</time></trkpt><trkpt lat="42.2101967" lon="14.2053474"><ele>388.0</ele><time>2026-05-01T09:40:24.469Z</time></trkpt><trkpt lat="42.210092" lon="14.2053247"><ele>388.0</ele><time>2026-05-01T09:40:25.469Z</time></trkpt><trkpt lat="42.2099968" lon="14.2052982"><ele>388.0</ele><time>2026-05-01T09:40:26.47Z</time></trkpt><trkpt lat="42.209912" lon="14.2052786"><ele>388.0</ele><time>2026-05-01T09:40:27.469Z</time></trkpt><trkpt lat="42.2098319" lon="14.2052536"><ele>388.50000000000006</ele><time>2026-05-01T09:40:28.47Z</time></trkpt><trkpt lat="42.2097521" lon="14.2052327"><ele>389.0</ele><time>2026-05-01T09:40:29.47Z</time></trkpt><trkpt lat="42.2096764" lon="14.2052137"><ele>389.5</ele><time>2026-05-01T09:40:30.47Z</time></trkpt><trkpt lat="42.2095879" lon="14.2051845"><ele>390.0</ele><time>2026-05-01T09:40:31.47Z</time></trkpt><trkpt lat="42.2095171" lon="14.2051415"><ele>390.50000000000006</ele><time>2026-05-01T09:40:32.469Z</time></trkpt><trkpt lat="42.2094336" lon="14.205134"><ele>391.0</ele><time>2026-05-01T09:40:33.47Z</time></trkpt><trkpt lat="42.2093558" lon="14.2051057"><ele>390.99999999999994</ele><time>2026-05-01T09:40:34.47Z</time></trkpt><trkpt lat="42.2092822" lon="14.2050805"><ele>391.0</ele><time>2026-05-01T09:40:35.469Z</time></trkpt><trkpt lat="42.2092163" lon="14.2050429"><ele>391.0</ele><time>2026-05-01T09:40:36.469Z</time></trkpt><trkpt lat="42.2091483" lon="14.2050126"><ele>391.0</ele><time>2026-05-01T09:40:37.469Z</time></trkpt><trkpt lat="42.2090768" lon="14.2049829"><ele>391.0</ele><time>2026-05-01T09:40:38.47Z</time></trkpt><trkpt lat="42.209007" lon="14.2049518"><ele>390.99999999999994</ele><time>2026-05-01T09:40:39.47Z</time></trkpt><trkpt lat="42.2089293" lon="14.2049289"><ele>391.0</ele><time>2026-05-01T09:40:40.47Z</time></trkpt><trkpt lat="42.2088513" lon="14.204901"><ele>391.00000000000006</ele><time>2026-05-01T09:40:41.47Z</time></trkpt><trkpt lat="42.208779" lon="14.2048695"><ele>391.0</ele><time>2026-05-01T09:40:42.47Z</time></trkpt><trkpt lat="42.2087139" lon="14.2048195"><ele>391.0</ele><time>2026-05-01T09:40:43.47Z</time></trkpt><trkpt lat="42.2086485" lon="14.2047829"><ele>391.0</ele><time>2026-05-01T09:40:44.471Z</time></trkpt><trkpt lat="42.2085874" lon="14.2047462"><ele>391.00000000000006</ele><time>2026-05-01T09:40:45.47Z</time></trkpt><trkpt lat="42.2085222" lon="14.2047215"><ele>391.0</ele><time>2026-05-01T09:40:46.47Z</time></trkpt><trkpt lat="42.2084091" lon="14.2046726"><ele>393.00000000000006</ele><time>2026-05-01T09:40:48.471Z</time></trkpt><trkpt lat="42.2083419" lon="14.2046348"><ele>395.0</ele><time>2026-05-01T09:40:49.471Z</time></trkpt><trkpt lat="42.2082695" lon="14.2045895"><ele>397.0</ele><time>2026-05-01T09:40:50.469Z</time></trkpt><trkpt lat="42.2081889" lon="14.204544"><ele>399.0</ele><time>2026-05-01T09:40:51.47Z</time></trkpt><trkpt lat="42.2081074" lon="14.2044839"><ele>401.00000000000006</ele><time>2026-05-01T09:40:52.47Z</time></trkpt><trkpt lat="42.208026" lon="14.2044284"><ele>403.0</ele><time>2026-05-01T09:40:53.469Z</time></trkpt><trkpt lat="42.2079551" lon="14.2043699"><ele>403.00000000000006</ele><time>2026-05-01T09:40:54.471Z</time></trkpt><trkpt lat="42.2078762" lon="14.2043084"><ele>403.0</ele><time>2026-05-01T09:40:55.471Z</time></trkpt><trkpt lat="42.2078082" lon="14.204255"><ele>403.0</ele><time>2026-05-01T09:40:56.47Z</time></trkpt><trkpt lat="42.2077409" lon="14.2042123"><ele>403.0</ele><time>2026-05-01T09:40:57.469Z</time></trkpt><trkpt lat="42.2076581" lon="14.2041372"><ele>403.00000000000006</ele><time>2026-05-01T09:40:58.47Z</time></trkpt><trkpt lat="42.2075745" lon="14.2040789"><ele>403.0</ele><time>2026-05-01T09:40:59.471Z</time></trkpt><trkpt lat="42.2074836" lon="14.2040252"><ele>404.1666666666667</ele><time>2026-05-01T09:41:00.47Z</time></trkpt><trkpt lat="42.2074097" lon="14.2039492"><ele>405.33333333333337</ele><time>2026-05-01T09:41:01.471Z</time></trkpt><trkpt lat="42.2073322" lon="14.2038882"><ele>406.5</ele><time>2026-05-01T09:41:02.47Z</time></trkpt><trkpt lat="42.2072639" lon="14.2038256"><ele>407.66666666666663</ele><time>2026-05-01T09:41:03.47Z</time></trkpt><trkpt lat="42.2071805" lon="14.2037784"><ele>408.8333333333333</ele><time>2026-05-01T09:41:04.47Z</time></trkpt><trkpt lat="42.207096" lon="14.2037271"><ele>410.0</ele><time>2026-05-01T09:41:05.469Z</time></trkpt><trkpt lat="42.20701" lon="14.203674"><ele>410.0</ele><time>2026-05-01T09:41:06.47Z</time></trkpt><trkpt lat="42.2069298" lon="14.2036337"><ele>410.0</ele><time>2026-05-01T09:41:07.47Z</time></trkpt><trkpt lat="42.2068384" lon="14.203576"><ele>410.0</ele><time>2026-05-01T09:41:08.469Z</time></trkpt><trkpt lat="42.2067508" lon="14.203516"><ele>410.0</ele><time>2026-05-01T09:41:09.471Z</time></trkpt><trkpt lat="42.206681" lon="14.2034405"><ele>410.0</ele><time>2026-05-01T09:41:10.469Z</time></trkpt><trkpt lat="42.2066006" lon="14.2033934"><ele>409.99999999999994</ele><time>2026-05-01T09:41:11.47Z</time></trkpt><trkpt lat="42.2065245" lon="14.2033476"><ele>410.0</ele><time>2026-05-01T09:41:12.47Z</time></trkpt><trkpt lat="42.2064566" lon="14.2032614"><ele>410.0</ele><time>2026-05-01T09:41:13.471Z</time></trkpt><trkpt lat="42.2063844" lon="14.2032262"><ele>410.0</ele><time>2026-05-01T09:41:14.47Z</time></trkpt><trkpt lat="42.2063219" lon="14.2031702"><ele>409.99999999999994</ele><time>2026-05-01T09:41:15.469Z</time></trkpt><trkpt lat="42.206249" lon="14.2031209"><ele>410.0</ele><time>2026-05-01T09:41:16.47Z</time></trkpt><trkpt lat="42.2061747" lon="14.2030668"><ele>411.49999999999994</ele><time>2026-05-01T09:41:17.47Z</time></trkpt><trkpt lat="42.2061153" lon="14.2029933"><ele>413.0</ele><time>2026-05-01T09:41:18.47Z</time></trkpt><trkpt lat="42.2060484" lon="14.2029451"><ele>414.5</ele><time>2026-05-01T09:41:19.47Z</time></trkpt><trkpt lat="42.2059342" lon="14.2029024"><ele>416.0</ele><time>2026-05-01T09:41:21.47Z</time></trkpt><trkpt lat="42.2058722" lon="14.2028731"><ele>417.49999999999994</ele><time>2026-05-01T09:41:22.47Z</time></trkpt><trkpt lat="42.2057908" lon="14.2028415"><ele>419.0</ele><time>2026-05-01T09:41:23.47Z</time></trkpt><trkpt lat="42.2056998" lon="14.2028018"><ele>418.5</ele><time>2026-05-01T09:41:24.471Z</time></trkpt><trkpt lat="42.2056044" lon="14.2027407"><ele>418.0</ele><time>2026-05-01T09:41:25.47Z</time></trkpt><trkpt lat="42.2054971" lon="14.2026427"><ele>417.5</ele><time>2026-05-01T09:41:26.47Z</time></trkpt><trkpt lat="42.2053923" lon="14.2025844"><ele>417.0</ele><time>2026-05-01T09:41:27.47Z</time></trkpt><trkpt lat="42.2052852" lon="14.2025199"><ele>417.0</ele><time>2026-05-01T09:41:28.469Z</time></trkpt><trkpt lat="42.2051864" lon="14.2024529"><ele>417.0</ele><time>2026-05-01T09:41:29.47Z</time></trkpt><trkpt lat="42.205083" lon="14.2023859"><ele>417.0</ele><time>2026-05-01T09:41:30.47Z</time></trkpt><trkpt lat="42.2049823" lon="14.2023236"><ele>417.0</ele><time>2026-05-01T09:41:31.469Z</time></trkpt><trkpt lat="42.204879" lon="14.202266"><ele>417.0</ele><time>2026-05-01T09:41:32.47Z</time></trkpt><trkpt lat="42.204786" lon="14.2022159"><ele>419.40000000000003</ele><time>2026-05-01T09:41:33.471Z</time></trkpt><trkpt lat="42.2046925" lon="14.2021758"><ele>421.8</ele><time>2026-05-01T09:41:34.47Z</time></trkpt><trkpt lat="42.2045947" lon="14.2021234"><ele>424.2</ele><time>2026-05-01T09:41:35.47Z</time></trkpt><trkpt lat="42.2045253" lon="14.2020778"><ele>426.6</ele><time>2026-05-01T09:41:36.47Z</time></trkpt><trkpt lat="42.2044375" lon="14.2020297"><ele>429.0</ele><time>2026-05-01T09:41:37.47Z</time></trkpt><trkpt lat="42.2043613" lon="14.2020016"><ele>429.0</ele><time>2026-05-01T09:41:38.471Z</time></trkpt><trkpt lat="42.2042987" lon="14.2019441"><ele>429.0</ele><time>2026-05-01T09:41:39.47Z</time></trkpt><trkpt lat="42.2042172" lon="14.2019008"><ele>429.0</ele><time>2026-05-01T09:41:40.471Z</time></trkpt><trkpt lat="42.2041303" lon="14.2018509"><ele>429.0</ele><time>2026-05-01T09:41:41.469Z</time></trkpt><trkpt lat="42.204055" lon="14.2018042"><ele>429.0</ele><time>2026-05-01T09:41:42.47Z</time></trkpt><trkpt lat="42.2039707" lon="14.2017692"><ele>429.0</ele><time>2026-05-01T09:41:43.469Z</time></trkpt><trkpt lat="42.2038869" lon="14.2017099"><ele>427.79999999999995</ele><time>2026-05-01T09:41:44.469Z</time></trkpt><trkpt lat="42.2037909" lon="14.2016693"><ele>426.59999999999997</ele><time>2026-05-01T09:41:45.47Z</time></trkpt><trkpt lat="42.2037222" lon="14.2016294"><ele>425.4</ele><time>2026-05-01T09:41:46.471Z</time></trkpt><trkpt lat="42.203632" lon="14.2016141"><ele>424.2</ele><time>2026-05-01T09:41:47.47Z</time></trkpt><trkpt lat="42.2035466" lon="14.2015689"><ele>423.0</ele><time>2026-05-01T09:41:48.47Z</time></trkpt><trkpt lat="42.2034499" lon="14.2015598"><ele>423.0</ele><time>2026-05-01T09:41:49.47Z</time></trkpt><trkpt lat="42.2033529" lon="14.2015473"><ele>423.0</ele><time>2026-05-01T09:41:50.47Z</time></trkpt><trkpt lat="42.2032782" lon="14.2015224"><ele>423.0</ele><time>2026-05-01T09:41:51.47Z</time></trkpt><trkpt lat="42.2032123" lon="14.2014689"><ele>423.0</ele><time>2026-05-01T09:41:52.47Z</time></trkpt><trkpt lat="42.2031244" lon="14.2014558"><ele>423.0</ele><time>2026-05-01T09:41:53.471Z</time></trkpt><trkpt lat="42.2030554" lon="14.2014203"><ele>423.0</ele><time>2026-05-01T09:41:54.47Z</time></trkpt><trkpt lat="42.2029828" lon="14.2013835"><ele>423.5</ele><time>2026-05-01T09:41:55.471Z</time></trkpt><trkpt lat="42.2029" lon="14.2013367"><ele>424.0</ele><time>2026-05-01T09:41:56.47Z</time></trkpt><trkpt lat="42.2028351" lon="14.2012812"><ele>424.5</ele><time>2026-05-01T09:41:57.47Z</time></trkpt><trkpt lat="42.2027406" lon="14.201292"><ele>425.0</ele><time>2026-05-01T09:41:58.47Z</time></trkpt><trkpt lat="42.2026605" lon="14.2012444"><ele>425.5</ele><time>2026-05-01T09:41:59.47Z</time></trkpt><trkpt lat="42.2025721" lon="14.201205"><ele>426.0</ele><time>2026-05-01T09:42:00.47Z</time></trkpt><trkpt lat="42.2024882" lon="14.2011819"><ele>426.0</ele><time>2026-05-01T09:42:01.471Z</time></trkpt><trkpt lat="42.2023983" lon="14.2011631"><ele>426.0</ele><time>2026-05-01T09:42:02.47Z</time></trkpt><trkpt lat="42.2023237" lon="14.2011497"><ele>426.0</ele><time>2026-05-01T09:42:03.47Z</time></trkpt><trkpt lat="42.2022564" lon="14.2011496"><ele>426.0</ele><time>2026-05-01T09:42:04.47Z</time></trkpt><trkpt lat="42.2021767" lon="14.2011211"><ele>426.0</ele><time>2026-05-01T09:42:06.47Z</time></trkpt><trkpt lat="42.2020965" lon="14.2010796"><ele>426.0</ele><time>2026-05-01T09:42:08.47Z</time></trkpt><trkpt lat="42.2020269" lon="14.2010249"><ele>427.0</ele><time>2026-05-01T09:42:10.469Z</time></trkpt><trkpt lat="42.2019501" lon="14.2009913"><ele>428.0</ele><time>2026-05-01T09:42:12.47Z</time></trkpt><trkpt lat="42.2018521" lon="14.2009358"><ele>429.0</ele><time>2026-05-01T09:42:14.47Z</time></trkpt><trkpt lat="42.2017592" lon="14.2009004"><ele>430.0</ele><time>2026-05-01T09:42:16.469Z</time></trkpt><trkpt lat="42.201656" lon="14.2008898"><ele>431.0</ele><time>2026-05-01T09:42:18.47Z</time></trkpt><trkpt lat="42.2015856" lon="14.2008784"><ele>430.99999999999994</ele><time>2026-05-01T09:42:19.47Z</time></trkpt><trkpt lat="42.2015201" lon="14.2008774"><ele>431.0</ele><time>2026-05-01T09:42:20.47Z</time></trkpt><trkpt lat="42.2014242" lon="14.2008418"><ele>431.0</ele><time>2026-05-01T09:42:22.47Z</time></trkpt><trkpt lat="42.2013274" lon="14.2007983"><ele>431.0</ele><time>2026-05-01T09:42:24.469Z</time></trkpt><trkpt lat="42.2012696" lon="14.2007644"><ele>430.99999999999994</ele><time>2026-05-01T09:42:25.47Z</time></trkpt><trkpt lat="42.2012072" lon="14.2007502"><ele>431.0</ele><time>2026-05-01T09:42:26.47Z</time></trkpt><trkpt lat="42.2011476" lon="14.2006962"><ele>433.6</ele><time>2026-05-01T09:42:27.47Z</time></trkpt><trkpt lat="42.2010664" lon="14.2006587"><ele>436.20000000000005</ele><time>2026-05-01T09:42:28.469Z</time></trkpt><trkpt lat="42.2009898" lon="14.200646"><ele>438.79999999999995</ele><time>2026-05-01T09:42:29.47Z</time></trkpt><trkpt lat="42.200878" lon="14.2005987"><ele>441.4</ele><time>2026-05-01T09:42:31.47Z</time></trkpt><trkpt lat="42.2008076" lon="14.2005611"><ele>444.0</ele><time>2026-05-01T09:42:32.469Z</time></trkpt><trkpt lat="42.2006945" lon="14.200482"><ele>445.6</ele><time>2026-05-01T09:42:34.469Z</time></trkpt><trkpt lat="42.2005964" lon="14.2004223"><ele>447.2</ele><time>2026-05-01T09:42:36.47Z</time></trkpt><trkpt lat="42.2004769" lon="14.2004349"><ele>448.80000000000007</ele><time>2026-05-01T09:42:38.47Z</time></trkpt><trkpt lat="42.2003656" lon="14.2004628"><ele>450.40000000000003</ele><time>2026-05-01T09:42:40.47Z</time></trkpt><trkpt lat="42.2002924" lon="14.2004488"><ele>452.0</ele><time>2026-05-01T09:42:41.47Z</time></trkpt><trkpt lat="42.2002104" lon="14.2004243"><ele>452.0</ele><time>2026-05-01T09:42:42.469Z</time></trkpt><trkpt lat="42.2001353" lon="14.2003816"><ele>452.00000000000006</ele><time>2026-05-01T09:42:43.469Z</time></trkpt><trkpt lat="42.2000646" lon="14.2003181"><ele>452.00000000000006</ele><time>2026-05-01T09:42:44.469Z</time></trkpt><trkpt lat="42.1999931" lon="14.200264"><ele>452.0</ele><time>2026-05-01T09:42:45.47Z</time></trkpt><trkpt lat="42.1998624" lon="14.200175"><ele>452.0</ele><time>2026-05-01T09:42:47.47Z</time></trkpt><trkpt lat="42.1997839" lon="14.2001477"><ele>453.3333333333333</ele><time>2026-05-01T09:42:48.469Z</time></trkpt><trkpt lat="42.1997072" lon="14.2001117"><ele>454.66666666666663</ele><time>2026-05-01T09:42:49.469Z</time></trkpt><trkpt lat="42.1996248" lon="14.2000543"><ele>456.0</ele><time>2026-05-01T09:42:50.471Z</time></trkpt><trkpt lat="42.1995531" lon="14.2000108"><ele>457.33333333333337</ele><time>2026-05-01T09:42:51.47Z</time></trkpt><trkpt lat="42.1994903" lon="14.1999894"><ele>458.6666666666667</ele><time>2026-05-01T09:42:52.47Z</time></trkpt><trkpt lat="42.1994237" lon="14.1999634"><ele>460.0</ele><time>2026-05-01T09:42:53.47Z</time></trkpt><trkpt lat="42.1993275" lon="14.1999619"><ele>460.0</ele><time>2026-05-01T09:42:54.47Z</time></trkpt><trkpt lat="42.199227" lon="14.1999551"><ele>460.0</ele><time>2026-05-01T09:42:55.471Z</time></trkpt><trkpt lat="42.1991487" lon="14.1999422"><ele>460.0</ele><time>2026-05-01T09:42:56.47Z</time></trkpt><trkpt lat="42.1990479" lon="14.1999419"><ele>460.0</ele><time>2026-05-01T09:42:57.471Z</time></trkpt><trkpt lat="42.1989654" lon="14.1999364"><ele>460.0</ele><time>2026-05-01T09:42:58.47Z</time></trkpt><trkpt lat="42.1988784" lon="14.1999531"><ele>461.33333333333337</ele><time>2026-05-01T09:42:59.469Z</time></trkpt><trkpt lat="42.1988023" lon="14.1999446"><ele>462.6666666666667</ele><time>2026-05-01T09:43:00.469Z</time></trkpt><trkpt lat="42.1987207" lon="14.1999427"><ele>464.0</ele><time>2026-05-01T09:43:01.468Z</time></trkpt><trkpt lat="42.1986318" lon="14.1999499"><ele>465.33333333333337</ele><time>2026-05-01T09:43:02.469Z</time></trkpt><trkpt lat="42.1985556" lon="14.1999456"><ele>466.6666666666667</ele><time>2026-05-01T09:43:03.469Z</time></trkpt><trkpt lat="42.198487" lon="14.1999531"><ele>468.0</ele><time>2026-05-01T09:43:04.468Z</time></trkpt><trkpt lat="42.1984206" lon="14.1999647"><ele>468.0</ele><time>2026-05-01T09:43:05.469Z</time></trkpt><trkpt lat="42.198337" lon="14.1999889"><ele>467.99999999999994</ele><time>2026-05-01T09:43:07.469Z</time></trkpt><trkpt lat="42.1982368" lon="14.2000425"><ele>467.99999999999994</ele><time>2026-05-01T09:44:03.469Z</time></trkpt><trkpt lat="42.1981223" lon="14.2000532"><ele>468.0</ele><time>2026-05-01T09:44:05.469Z</time></trkpt><trkpt lat="42.1980065" lon="14.2000322"><ele>468.0</ele><time>2026-05-01T09:44:07.469Z</time></trkpt><trkpt lat="42.1979056" lon="14.2000055"><ele>469.0</ele><time>2026-05-01T09:44:09.47Z</time></trkpt><trkpt lat="42.1977882" lon="14.1999927"><ele>469.99999999999994</ele><time>2026-05-01T09:44:11.469Z</time></trkpt><trkpt lat="42.1976734" lon="14.1999899"><ele>470.99999999999994</ele><time>2026-05-01T09:44:13.469Z</time></trkpt><trkpt lat="42.1975661" lon="14.2000126"><ele>472.0</ele><time>2026-05-01T09:44:15.469Z</time></trkpt><trkpt lat="42.1974909" lon="14.2000268"><ele>473.0</ele><time>2026-05-01T09:44:17.469Z</time></trkpt><trkpt lat="42.1974535" lon="14.1999582"><ele>473.0</ele><time>2026-05-01T09:44:19.469Z</time></trkpt><trkpt lat="42.1974225" lon="14.1998539"><ele>472.99999999999994</ele><time>2026-05-01T09:44:21.468Z</time></trkpt><trkpt lat="42.1973986" lon="14.1997045"><ele>472.99999999999994</ele><time>2026-05-01T09:44:23.469Z</time></trkpt><trkpt lat="42.1974194" lon="14.1995485"><ele>473.0</ele><time>2026-05-01T09:44:25.469Z</time></trkpt><trkpt lat="42.1974401" lon="14.1994523"><ele>473.0</ele><time>2026-05-01T09:44:26.469Z</time></trkpt><trkpt lat="42.1974529" lon="14.1993471"><ele>474.2</ele><time>2026-05-01T09:44:27.469Z</time></trkpt><trkpt lat="42.1974731" lon="14.1992525"><ele>475.4</ele><time>2026-05-01T09:44:28.468Z</time></trkpt><trkpt lat="42.1974854" lon="14.199164"><ele>476.59999999999997</ele><time>2026-05-01T09:44:29.469Z</time></trkpt><trkpt lat="42.1974652" lon="14.1990355"><ele>477.79999999999995</ele><time>2026-05-01T09:44:31.469Z</time></trkpt><trkpt lat="42.1973794" lon="14.198884"><ele>479.0</ele><time>2026-05-01T09:44:33.469Z</time></trkpt><trkpt lat="42.197313" lon="14.1988093"><ele>479.3333333333333</ele><time>2026-05-01T09:44:34.468Z</time></trkpt><trkpt lat="42.1972491" lon="14.1987299"><ele>479.66666666666663</ele><time>2026-05-01T09:44:35.468Z</time></trkpt><trkpt lat="42.1971939" lon="14.1986618"><ele>480.0</ele><time>2026-05-01T09:44:36.468Z</time></trkpt><trkpt lat="42.197146" lon="14.198536"><ele>480.33333333333337</ele><time>2026-05-01T09:44:38.469Z</time></trkpt><trkpt lat="42.1971867" lon="14.1984586"><ele>480.6666666666667</ele><time>2026-05-01T09:44:39.47Z</time></trkpt><trkpt lat="42.1972868" lon="14.1984441"><ele>481.0</ele><time>2026-05-01T09:44:41.469Z</time></trkpt><trkpt lat="42.1974005" lon="14.1984053"><ele>480.99999999999994</ele><time>2026-05-01T09:44:43.469Z</time></trkpt><trkpt lat="42.1974342" lon="14.198322"><ele>481.0</ele><time>2026-05-01T09:44:44.469Z</time></trkpt><trkpt lat="42.1974815" lon="14.198255"><ele>480.99999999999994</ele><time>2026-05-01T09:44:45.469Z</time></trkpt><trkpt lat="42.1975359" lon="14.1981693"><ele>480.99999999999994</ele><time>2026-05-01T09:44:46.469Z</time></trkpt><trkpt lat="42.1975851" lon="14.1980914"><ele>481.0</ele><time>2026-05-01T09:44:47.469Z</time></trkpt><trkpt lat="42.1976227" lon="14.1980089"><ele>480.99999999999994</ele><time>2026-05-01T09:44:48.469Z</time></trkpt><trkpt lat="42.1976671" lon="14.1979244"><ele>480.99999999999994</ele><time>2026-05-01T09:44:49.47Z</time></trkpt><trkpt lat="42.1977247" lon="14.197808"><ele>481.33333333333337</ele><time>2026-05-01T09:44:51.469Z</time></trkpt><trkpt lat="42.197721" lon="14.1977155"><ele>481.6666666666667</ele><time>2026-05-01T09:44:54.468Z</time></trkpt><trkpt lat="42.1976618" lon="14.1976462"><ele>482.0</ele><time>2026-05-01T09:44:56.468Z</time></trkpt><trkpt lat="42.1976236" lon="14.1975772"><ele>482.33333333333337</ele><time>2026-05-01T09:44:57.468Z</time></trkpt><trkpt lat="42.1975834" lon="14.1975016"><ele>482.6666666666667</ele><time>2026-05-01T09:44:58.468Z</time></trkpt><trkpt lat="42.1975202" lon="14.1974384"><ele>483.0</ele><time>2026-05-01T09:44:59.468Z</time></trkpt><trkpt lat="42.1974299" lon="14.1973752"><ele>483.2</ele><time>2026-05-01T09:45:00.469Z</time></trkpt><trkpt lat="42.1973477" lon="14.1973214"><ele>483.4</ele><time>2026-05-01T09:45:01.469Z</time></trkpt><trkpt lat="42.1972675" lon="14.1972213"><ele>483.59999999999997</ele><time>2026-05-01T09:45:02.469Z</time></trkpt><trkpt lat="42.1971904" lon="14.1971433"><ele>483.79999999999995</ele><time>2026-05-01T09:45:03.469Z</time></trkpt><trkpt lat="42.1971134" lon="14.1970962"><ele>484.0</ele><time>2026-05-01T09:45:04.469Z</time></trkpt><trkpt lat="42.197037" lon="14.1970447"><ele>485.50000000000006</ele><time>2026-05-01T09:45:05.469Z</time></trkpt><trkpt lat="42.1969881" lon="14.1969722"><ele>487.0</ele><time>2026-05-01T09:45:06.468Z</time></trkpt><trkpt lat="42.1969891" lon="14.1968712"><ele>488.5</ele><time>2026-05-01T09:45:07.468Z</time></trkpt><trkpt lat="42.196979" lon="14.1967756"><ele>490.0</ele><time>2026-05-01T09:45:08.468Z</time></trkpt><trkpt lat="42.196948" lon="14.1966702"><ele>491.50000000000006</ele><time>2026-05-01T09:45:09.469Z</time></trkpt><trkpt lat="42.1969035" lon="14.1965333"><ele>493.0</ele><time>2026-05-01T09:45:10.469Z</time></trkpt><trkpt lat="42.1968247" lon="14.1964375"><ele>493.33333333333337</ele><time>2026-05-01T09:45:11.468Z</time></trkpt><trkpt lat="42.1967486" lon="14.1963268"><ele>493.6666666666667</ele><time>2026-05-01T09:45:12.469Z</time></trkpt><trkpt lat="42.1967257" lon="14.1962184"><ele>494.0</ele><time>2026-05-01T09:45:13.469Z</time></trkpt><trkpt lat="42.1966965" lon="14.196123"><ele>494.33333333333337</ele><time>2026-05-01T09:45:14.469Z</time></trkpt><trkpt lat="42.1966705" lon="14.1960389"><ele>494.6666666666667</ele><time>2026-05-01T09:45:15.468Z</time></trkpt><trkpt lat="42.1966203" lon="14.1959622"><ele>495.0</ele><time>2026-05-01T09:45:16.468Z</time></trkpt><trkpt lat="42.1965156" lon="14.195871"><ele>496.2</ele><time>2026-05-01T09:45:17.468Z</time></trkpt><trkpt lat="42.1964433" lon="14.1957643"><ele>497.4</ele><time>2026-05-01T09:45:18.468Z</time></trkpt><trkpt lat="42.1963701" lon="14.1956539"><ele>498.6</ele><time>2026-05-01T09:45:19.468Z</time></trkpt><trkpt lat="42.1962963" lon="14.1955652"><ele>499.8</ele><time>2026-05-01T09:45:20.468Z</time></trkpt><trkpt lat="42.1962422" lon="14.1954823"><ele>501.0</ele><time>2026-05-01T09:45:21.468Z</time></trkpt><trkpt lat="42.1961845" lon="14.1953991"><ele>501.0</ele><time>2026-05-01T09:45:22.469Z</time></trkpt><trkpt lat="42.1961066" lon="14.1953381"><ele>501.0</ele><time>2026-05-01T09:45:23.469Z</time></trkpt><trkpt lat="42.1960296" lon="14.195282"><ele>501.0</ele><time>2026-05-01T09:45:24.469Z</time></trkpt><trkpt lat="42.1959509" lon="14.1952156"><ele>501.0</ele><time>2026-05-01T09:45:25.469Z</time></trkpt><trkpt lat="42.1958572" lon="14.19513"><ele>501.0</ele><time>2026-05-01T09:45:26.468Z</time></trkpt><trkpt lat="42.1957924" lon="14.1950753"><ele>502.6</ele><time>2026-05-01T09:45:27.469Z</time></trkpt><trkpt lat="42.1956689" lon="14.1949981"><ele>504.20000000000005</ele><time>2026-05-01T09:45:29.469Z</time></trkpt><trkpt lat="42.1956144" lon="14.1949189"><ele>505.79999999999995</ele><time>2026-05-01T09:45:30.469Z</time></trkpt><trkpt lat="42.1955458" lon="14.1948453"><ele>507.4</ele><time>2026-05-01T09:45:31.469Z</time></trkpt><trkpt lat="42.195497" lon="14.194731"><ele>509.0</ele><time>2026-05-01T09:45:32.47Z</time></trkpt><trkpt lat="42.1954365" lon="14.1946608"><ele>509.6</ele><time>2026-05-01T09:45:33.469Z</time></trkpt><trkpt lat="42.1953565" lon="14.194521"><ele>510.2</ele><time>2026-05-01T09:45:35.468Z</time></trkpt><trkpt lat="42.1953257" lon="14.1943776"><ele>510.80000000000007</ele><time>2026-05-01T09:45:37.469Z</time></trkpt><trkpt lat="42.1952694" lon="14.1942969"><ele>511.40000000000003</ele><time>2026-05-01T09:45:38.469Z</time></trkpt><trkpt lat="42.1952123" lon="14.1942311"><ele>512.0</ele><time>2026-05-01T09:45:39.469Z</time></trkpt><trkpt lat="42.1951315" lon="14.1941994"><ele>511.99999999999994</ele><time>2026-05-01T09:45:40.468Z</time></trkpt><trkpt lat="42.1950598" lon="14.1941988"><ele>512.0</ele><time>2026-05-01T09:45:41.47Z</time></trkpt><trkpt lat="42.1949829" lon="14.1942074"><ele>512.0</ele><time>2026-05-01T09:45:42.469Z</time></trkpt><trkpt lat="42.1949219" lon="14.1941848"><ele>512.0</ele><time>2026-05-01T09:45:43.468Z</time></trkpt><trkpt lat="42.1948604" lon="14.1941286"><ele>511.99999999999994</ele><time>2026-05-01T09:45:44.469Z</time></trkpt><trkpt lat="42.1947483" lon="14.1940342"><ele>512.0</ele><time>2026-05-01T09:45:46.468Z</time></trkpt><trkpt lat="42.1947352" lon="14.19392"><ele>511.8333333333333</ele><time>2026-05-01T09:45:47.469Z</time></trkpt><trkpt lat="42.1947406" lon="14.1938258"><ele>511.66666666666663</ele><time>2026-05-01T09:45:48.469Z</time></trkpt><trkpt lat="42.1947738" lon="14.193717"><ele>511.5</ele><time>2026-05-01T09:45:49.469Z</time></trkpt><trkpt lat="42.1948173" lon="14.1936014"><ele>511.33333333333337</ele><time>2026-05-01T09:45:50.469Z</time></trkpt><trkpt lat="42.1948517" lon="14.1934981"><ele>511.1666666666667</ele><time>2026-05-01T09:45:51.468Z</time></trkpt><trkpt lat="42.1948779" lon="14.1934085"><ele>511.0</ele><time>2026-05-01T09:45:52.468Z</time></trkpt><trkpt lat="42.1948602" lon="14.1932568"><ele>512.5</ele><time>2026-05-01T09:45:54.468Z</time></trkpt><trkpt lat="42.1948361" lon="14.193178"><ele>514.0</ele><time>2026-05-01T09:45:55.468Z</time></trkpt><trkpt lat="42.1947988" lon="14.1930657"><ele>515.5</ele><time>2026-05-01T09:45:56.468Z</time></trkpt><trkpt lat="42.1947641" lon="14.1929743"><ele>517.0</ele><time>2026-05-01T09:45:57.469Z</time></trkpt><trkpt lat="42.1947363" lon="14.19287"><ele>518.5</ele><time>2026-05-01T09:45:58.468Z</time></trkpt><trkpt lat="42.1947227" lon="14.1927626"><ele>520.0</ele><time>2026-05-01T09:45:59.469Z</time></trkpt><trkpt lat="42.1947024" lon="14.1926674"><ele>520.0</ele><time>2026-05-01T09:46:00.467Z</time></trkpt><trkpt lat="42.1946611" lon="14.1925236"><ele>520.0</ele><time>2026-05-01T09:46:02.468Z</time></trkpt><trkpt lat="42.1946291" lon="14.19245"><ele>520.0</ele><time>2026-05-01T09:46:03.467Z</time></trkpt><trkpt lat="42.1945714" lon="14.1923839"><ele>520.0</ele><time>2026-05-01T09:46:04.468Z</time></trkpt><trkpt lat="42.1945194" lon="14.1923231"><ele>520.0</ele><time>2026-05-01T09:46:05.468Z</time></trkpt><trkpt lat="42.1944587" lon="14.1922589"><ele>520.0</ele><time>2026-05-01T09:46:06.467Z</time></trkpt><trkpt lat="42.1943884" lon="14.1922065"><ele>520.0</ele><time>2026-05-01T09:46:07.468Z</time></trkpt><trkpt lat="42.1943136" lon="14.1921728"><ele>520.0</ele><time>2026-05-01T09:46:08.468Z</time></trkpt><trkpt lat="42.1942479" lon="14.1921534"><ele>520.0</ele><time>2026-05-01T09:46:09.468Z</time></trkpt><trkpt lat="42.1941514" lon="14.1921529"><ele>520.0</ele><time>2026-05-01T09:46:11.468Z</time></trkpt><trkpt lat="42.1940945" lon="14.1920701"><ele>520.0</ele><time>2026-05-01T09:46:13.468Z</time></trkpt><trkpt lat="42.1940527" lon="14.1920028"><ele>520.0</ele><time>2026-05-01T09:46:14.468Z</time></trkpt><trkpt lat="42.1939585" lon="14.1919628"><ele>521.6666666666667</ele><time>2026-05-01T09:46:16.468Z</time></trkpt><trkpt lat="42.1938852" lon="14.1919641"><ele>523.3333333333334</ele><time>2026-05-01T09:46:17.468Z</time></trkpt><trkpt lat="42.1937611" lon="14.1920004"><ele>525.0</ele><time>2026-05-01T09:46:19.468Z</time></trkpt><trkpt lat="42.1936966" lon="14.1919966"><ele>526.6666666666666</ele><time>2026-05-01T09:46:20.468Z</time></trkpt><trkpt lat="42.1936332" lon="14.1919861"><ele>528.3333333333333</ele><time>2026-05-01T09:46:21.468Z</time></trkpt><trkpt lat="42.1935757" lon="14.191935"><ele>530.0</ele><time>2026-05-01T09:46:22.468Z</time></trkpt><trkpt lat="42.1935243" lon="14.1918434"><ele>530.0</ele><time>2026-05-01T09:46:23.469Z</time></trkpt><trkpt lat="42.1935088" lon="14.1917408"><ele>530.0</ele><time>2026-05-01T09:46:24.468Z</time></trkpt><trkpt lat="42.1934622" lon="14.1916398"><ele>530.0</ele><time>2026-05-01T09:46:25.468Z</time></trkpt><trkpt lat="42.1934094" lon="14.1915437"><ele>530.0</ele><time>2026-05-01T09:46:26.468Z</time></trkpt><trkpt lat="42.1933547" lon="14.1914489"><ele>530.0</ele><time>2026-05-01T09:46:27.468Z</time></trkpt><trkpt lat="42.1932968" lon="14.191365"><ele>530.0</ele><time>2026-05-01T09:46:28.468Z</time></trkpt><trkpt lat="42.1932323" lon="14.1912975"><ele>531.0</ele><time>2026-05-01T09:46:29.468Z</time></trkpt><trkpt lat="42.1931617" lon="14.1912492"><ele>532.0</ele><time>2026-05-01T09:46:30.468Z</time></trkpt><trkpt lat="42.1930788" lon="14.1912128"><ele>533.0</ele><time>2026-05-01T09:46:31.468Z</time></trkpt><trkpt lat="42.1929996" lon="14.1911668"><ele>534.0</ele><time>2026-05-01T09:46:32.468Z</time></trkpt><trkpt lat="42.1929124" lon="14.1911316"><ele>535.0</ele><time>2026-05-01T09:46:33.467Z</time></trkpt><trkpt lat="42.192827" lon="14.1910882"><ele>536.0</ele><time>2026-05-01T09:46:34.468Z</time></trkpt><trkpt lat="42.1927365" lon="14.1910583"><ele>536.0</ele><time>2026-05-01T09:46:35.467Z</time></trkpt><trkpt lat="42.1926524" lon="14.1910236"><ele>536.0</ele><time>2026-05-01T09:46:36.468Z</time></trkpt><trkpt lat="42.1925594" lon="14.1909986"><ele>536.0</ele><time>2026-05-01T09:46:37.469Z</time></trkpt><trkpt lat="42.1924689" lon="14.1909415"><ele>536.0</ele><time>2026-05-01T09:46:38.468Z</time></trkpt><trkpt lat="42.1923644" lon="14.1908973"><ele>536.0</ele><time>2026-05-01T09:46:39.468Z</time></trkpt><trkpt lat="42.1922978" lon="14.1908632"><ele>537.8</ele><time>2026-05-01T09:46:40.468Z</time></trkpt><trkpt lat="42.1922109" lon="14.1908459"><ele>539.6</ele><time>2026-05-01T09:46:41.469Z</time></trkpt><trkpt lat="42.192124" lon="14.1908123"><ele>541.4</ele><time>2026-05-01T09:46:42.468Z</time></trkpt><trkpt lat="42.1920213" lon="14.1907998"><ele>543.2</ele><time>2026-05-01T09:46:43.467Z</time></trkpt><trkpt lat="42.1919283" lon="14.1907961"><ele>545.0</ele><time>2026-05-01T09:46:44.467Z</time></trkpt><trkpt lat="42.1918371" lon="14.190785"><ele>545.0</ele><time>2026-05-01T09:46:45.469Z</time></trkpt><trkpt lat="42.191746" lon="14.1907308"><ele>545.0</ele><time>2026-05-01T09:46:46.468Z</time></trkpt><trkpt lat="42.1916501" lon="14.1906744"><ele>545.0</ele><time>2026-05-01T09:46:47.468Z</time></trkpt><trkpt lat="42.1915638" lon="14.1905916"><ele>545.0</ele><time>2026-05-01T09:46:48.469Z</time></trkpt><trkpt lat="42.1914726" lon="14.1904986"><ele>545.0</ele><time>2026-05-01T09:46:49.468Z</time></trkpt><trkpt lat="42.1913962" lon="14.1903994"><ele>546.6</ele><time>2026-05-01T09:46:50.468Z</time></trkpt><trkpt lat="42.1913212" lon="14.1902876"><ele>548.2</ele><time>2026-05-01T09:46:51.468Z</time></trkpt><trkpt lat="42.1912536" lon="14.1901921"><ele>549.8</ele><time>2026-05-01T09:46:52.469Z</time></trkpt><trkpt lat="42.1912045" lon="14.1901032"><ele>551.4</ele><time>2026-05-01T09:46:53.468Z</time></trkpt><trkpt lat="42.1911336" lon="14.1900312"><ele>553.0</ele><time>2026-05-01T09:46:54.468Z</time></trkpt><trkpt lat="42.191055" lon="14.1899754"><ele>553.0</ele><time>2026-05-01T09:46:55.467Z</time></trkpt><trkpt lat="42.1909925" lon="14.1898797"><ele>553.0</ele><time>2026-05-01T09:46:56.468Z</time></trkpt><trkpt lat="42.1909278" lon="14.189775"><ele>553.0</ele><time>2026-05-01T09:46:57.467Z</time></trkpt><trkpt lat="42.1908195" lon="14.1896984"><ele>553.0</ele><time>2026-05-01T09:46:58.467Z</time></trkpt><trkpt lat="42.1907384" lon="14.1895917"><ele>553.0</ele><time>2026-05-01T09:46:59.469Z</time></trkpt><trkpt lat="42.1906547" lon="14.1894759"><ele>554.3333333333334</ele><time>2026-05-01T09:47:00.468Z</time></trkpt><trkpt lat="42.1905868" lon="14.1894241"><ele>555.6666666666667</ele><time>2026-05-01T09:47:01.468Z</time></trkpt><trkpt lat="42.1905005" lon="14.189387"><ele>557.0</ele><time>2026-05-01T09:47:02.468Z</time></trkpt><trkpt lat="42.1904308" lon="14.1893385"><ele>558.3333333333334</ele><time>2026-05-01T09:47:03.468Z</time></trkpt><trkpt lat="42.1903708" lon="14.1892556"><ele>559.6666666666666</ele><time>2026-05-01T09:47:04.468Z</time></trkpt><trkpt lat="42.1903203" lon="14.1891738"><ele>561.0</ele><time>2026-05-01T09:47:05.468Z</time></trkpt><trkpt lat="42.1902784" lon="14.1890684"><ele>561.5</ele><time>2026-05-01T09:47:06.468Z</time></trkpt><trkpt lat="42.1902117" lon="14.1888925"><ele>562.0</ele><time>2026-05-01T09:47:07.468Z</time></trkpt><trkpt lat="42.1901429" lon="14.1887325"><ele>562.5</ele><time>2026-05-01T09:47:08.469Z</time></trkpt><trkpt lat="42.1900651" lon="14.1885871"><ele>563.0</ele><time>2026-05-01T09:47:09.468Z</time></trkpt><trkpt lat="42.1899924" lon="14.1884416"><ele>563.0</ele><time>2026-05-01T09:47:10.468Z</time></trkpt><trkpt lat="42.1899851" lon="14.1883456"><ele>563.0</ele><time>2026-05-01T09:47:11.469Z</time></trkpt><trkpt lat="42.1899804" lon="14.1881933"><ele>563.0</ele><time>2026-05-01T09:47:12.469Z</time></trkpt><trkpt lat="42.1899663" lon="14.1880663"><ele>563.0</ele><time>2026-05-01T09:47:13.468Z</time></trkpt><trkpt lat="42.1899414" lon="14.187912"><ele>563.0</ele><time>2026-05-01T09:47:14.468Z</time></trkpt><trkpt lat="42.1898725" lon="14.1877289"><ele>566.75</ele><time>2026-05-01T09:47:15.468Z</time></trkpt><trkpt lat="42.1897461" lon="14.1875298"><ele>570.5</ele><time>2026-05-01T09:47:17.468Z</time></trkpt><trkpt lat="42.1896833" lon="14.1874058"><ele>574.25</ele><time>2026-05-01T09:47:18.467Z</time></trkpt><trkpt lat="42.1896118" lon="14.1872526"><ele>578.0</ele><time>2026-05-01T09:47:19.467Z</time></trkpt><trkpt lat="42.1895629" lon="14.1870854"><ele>578.0</ele><time>2026-05-01T09:47:20.467Z</time></trkpt><trkpt lat="42.1895203" lon="14.1869651"><ele>578.0</ele><time>2026-05-01T09:47:21.468Z</time></trkpt><trkpt lat="42.1894799" lon="14.18687"><ele>578.0</ele><time>2026-05-01T09:47:22.468Z</time></trkpt><trkpt lat="42.1894174" lon="14.1868261"><ele>578.0</ele><time>2026-05-01T09:47:23.468Z</time></trkpt><trkpt lat="42.1893533" lon="14.18682"><ele>578.0</ele><time>2026-05-01T09:47:24.467Z</time></trkpt><trkpt lat="42.1892143" lon="14.1868326"><ele>578.0</ele><time>2026-05-01T09:47:26.469Z</time></trkpt><trkpt lat="42.1891308" lon="14.1868783"><ele>578.0</ele><time>2026-05-01T09:47:27.469Z</time></trkpt><trkpt lat="42.1890546" lon="14.1868922"><ele>578.0</ele><time>2026-05-01T09:47:28.468Z</time></trkpt><trkpt lat="42.1889778" lon="14.1869091"><ele>578.0</ele><time>2026-05-01T09:47:29.468Z</time></trkpt><trkpt lat="42.1888925" lon="14.1868952"><ele>578.0</ele><time>2026-05-01T09:47:30.468Z</time></trkpt><trkpt lat="42.1888181" lon="14.1868726"><ele>578.0</ele><time>2026-05-01T09:47:31.467Z</time></trkpt><trkpt lat="42.1887373" lon="14.186868"><ele>579.6</ele><time>2026-05-01T09:47:32.468Z</time></trkpt><trkpt lat="42.1886261" lon="14.1868608"><ele>581.1999999999999</ele><time>2026-05-01T09:47:34.468Z</time></trkpt><trkpt lat="42.1885445" lon="14.1868781"><ele>582.8</ele><time>2026-05-01T09:47:35.468Z</time></trkpt><trkpt lat="42.1884489" lon="14.1869094"><ele>584.4</ele><time>2026-05-01T09:47:36.468Z</time></trkpt><trkpt lat="42.188357" lon="14.186952"><ele>586.0</ele><time>2026-05-01T09:47:37.468Z</time></trkpt><trkpt lat="42.1882873" lon="14.1870064"><ele>586.0</ele><time>2026-05-01T09:47:38.468Z</time></trkpt><trkpt lat="42.1882303" lon="14.1870524"><ele>586.0</ele><time>2026-05-01T09:47:39.468Z</time></trkpt><trkpt lat="42.1881495" lon="14.1870961"><ele>586.0</ele><time>2026-05-01T09:47:41.468Z</time></trkpt><trkpt lat="42.1880798" lon="14.1871416"><ele>586.0</ele><time>2026-05-01T09:48:10.467Z</time></trkpt><trkpt lat="42.1880148" lon="14.1871217"><ele>586.0</ele><time>2026-05-01T09:48:13.468Z</time></trkpt><trkpt lat="42.1879416" lon="14.1869687"><ele>586.0</ele><time>2026-05-01T09:48:15.468Z</time></trkpt><trkpt lat="42.1879" lon="14.1869015"><ele>587.6</ele><time>2026-05-01T09:48:16.467Z</time></trkpt><trkpt lat="42.1878541" lon="14.1868294"><ele>589.2</ele><time>2026-05-01T09:48:17.469Z</time></trkpt><trkpt lat="42.1877977" lon="14.1867574"><ele>590.8</ele><time>2026-05-01T09:48:18.468Z</time></trkpt><trkpt lat="42.1877035" lon="14.1865934"><ele>592.4</ele><time>2026-05-01T09:48:20.467Z</time></trkpt><trkpt lat="42.187661" lon="14.1864977"><ele>594.0</ele><time>2026-05-01T09:48:21.467Z</time></trkpt><trkpt lat="42.1876214" lon="14.1863946"><ele>594.5</ele><time>2026-05-01T09:48:22.468Z</time></trkpt><trkpt lat="42.1875694" lon="14.1863002"><ele>595.0</ele><time>2026-05-01T09:48:23.468Z</time></trkpt><trkpt lat="42.1875014" lon="14.1862093"><ele>595.5</ele><time>2026-05-01T09:48:24.467Z</time></trkpt><trkpt lat="42.1873508" lon="14.1860155"><ele>596.0</ele><time>2026-05-01T09:48:26.468Z</time></trkpt><trkpt lat="42.1872741" lon="14.1859194"><ele>597.8</ele><time>2026-05-01T09:48:27.468Z</time></trkpt><trkpt lat="42.1871946" lon="14.1858465"><ele>599.6</ele><time>2026-05-01T09:48:28.468Z</time></trkpt><trkpt lat="42.1871339" lon="14.1857692"><ele>601.4</ele><time>2026-05-01T09:48:29.469Z</time></trkpt><trkpt lat="42.187068" lon="14.1856924"><ele>603.2</ele><time>2026-05-01T09:48:30.468Z</time></trkpt><trkpt lat="42.1870207" lon="14.1856024"><ele>605.0</ele><time>2026-05-01T09:48:31.468Z</time></trkpt><trkpt lat="42.1869044" lon="14.1854437"><ele>605.0</ele><time>2026-05-01T09:48:33.467Z</time></trkpt><trkpt lat="42.1868431" lon="14.1853663"><ele>605.0</ele><time>2026-05-01T09:48:34.468Z</time></trkpt><trkpt lat="42.1867902" lon="14.1852799"><ele>605.0</ele><time>2026-05-01T09:48:35.468Z</time></trkpt><trkpt lat="42.1867386" lon="14.1851964"><ele>605.0</ele><time>2026-05-01T09:48:36.468Z</time></trkpt><trkpt lat="42.186678" lon="14.185104"><ele>605.0</ele><time>2026-05-01T09:48:37.469Z</time></trkpt><trkpt lat="42.1866214" lon="14.185015"><ele>605.0</ele><time>2026-05-01T09:48:38.468Z</time></trkpt><trkpt lat="42.1865549" lon="14.1849177"><ele>607.8</ele><time>2026-05-01T09:48:39.468Z</time></trkpt><trkpt lat="42.1864876" lon="14.1848104"><ele>610.6</ele><time>2026-05-01T09:48:40.468Z</time></trkpt><trkpt lat="42.1864159" lon="14.1846992"><ele>613.4</ele><time>2026-05-01T09:48:41.469Z</time></trkpt><trkpt lat="42.1863499" lon="14.184596"><ele>616.2</ele><time>2026-05-01T09:48:42.468Z</time></trkpt><trkpt lat="42.1862959" lon="14.1845048"><ele>619.0</ele><time>2026-05-01T09:48:43.468Z</time></trkpt><trkpt lat="42.1862387" lon="14.1844187"><ele>619.0</ele><time>2026-05-01T09:48:44.469Z</time></trkpt><trkpt lat="42.1861971" lon="14.1843451"><ele>619.0</ele><time>2026-05-01T09:48:45.469Z</time></trkpt><trkpt lat="42.1861452" lon="14.1842602"><ele>619.0</ele><time>2026-05-01T09:48:46.468Z</time></trkpt><trkpt lat="42.1860866" lon="14.1841692"><ele>619.0</ele><time>2026-05-01T09:48:47.469Z</time></trkpt><trkpt lat="42.1860305" lon="14.1840981"><ele>619.0</ele><time>2026-05-01T09:48:48.468Z</time></trkpt><trkpt lat="42.1859444" lon="14.1839743"><ele>619.0</ele><time>2026-05-01T09:48:50.468Z</time></trkpt><trkpt lat="42.1858045" lon="14.1839307"><ele>619.0</ele><time>2026-05-01T09:48:53.468Z</time></trkpt><trkpt lat="42.1857078" lon="14.184019"><ele>619.0</ele><time>2026-05-01T09:48:55.469Z</time></trkpt><trkpt lat="42.1856014" lon="14.1840555"><ele>619.0</ele><time>2026-05-01T09:48:57.467Z</time></trkpt><trkpt lat="42.1854647" lon="14.1839332"><ele>619.0</ele><time>2026-05-01T09:49:00.467Z</time></trkpt><trkpt lat="42.1854101" lon="14.1838855"><ele>620.8</ele><time>2026-05-01T09:49:01.467Z</time></trkpt><trkpt lat="42.1853415" lon="14.1838363"><ele>622.5999999999999</ele><time>2026-05-01T09:49:02.466Z</time></trkpt><trkpt lat="42.1852795" lon="14.1837857"><ele>624.4</ele><time>2026-05-01T09:49:03.467Z</time></trkpt><trkpt lat="42.1851983" lon="14.183524"><ele>626.1999999999999</ele><time>2026-05-01T09:49:06.466Z</time></trkpt><trkpt lat="42.1851909" lon="14.1834258"><ele>628.0</ele><time>2026-05-01T09:49:07.466Z</time></trkpt><trkpt lat="42.185235" lon="14.1833129"><ele>628.0</ele><time>2026-05-01T09:49:08.467Z</time></trkpt><trkpt lat="42.1852578" lon="14.1832044"><ele>628.0</ele><time>2026-05-01T09:49:09.467Z</time></trkpt><trkpt lat="42.1852794" lon="14.1830993"><ele>628.0</ele><time>2026-05-01T09:49:10.467Z</time></trkpt><trkpt lat="42.1853124" lon="14.1829125"><ele>628.0</ele><time>2026-05-01T09:49:12.466Z</time></trkpt><trkpt lat="42.1853979" lon="14.1820969"><ele>628.6</ele><time>2026-05-01T09:49:19.466Z</time></trkpt><trkpt lat="42.1853893" lon="14.1819853"><ele>629.1999999999999</ele><time>2026-05-01T09:49:20.467Z</time></trkpt><trkpt lat="42.1853063" lon="14.1818862"><ele>629.8</ele><time>2026-05-01T09:49:22.466Z</time></trkpt><trkpt lat="42.1851639" lon="14.1818468"><ele>630.4</ele><time>2026-05-01T09:49:24.467Z</time></trkpt><trkpt lat="42.185069" lon="14.1818219"><ele>631.0</ele><time>2026-05-01T09:49:25.468Z</time></trkpt><trkpt lat="42.1849916" lon="14.181794"><ele>631.0</ele><time>2026-05-01T09:49:26.467Z</time></trkpt><trkpt lat="42.184946" lon="14.1817068"><ele>631.0</ele><time>2026-05-01T09:49:28.467Z</time></trkpt><trkpt lat="42.1849805" lon="14.1815331"><ele>631.0</ele><time>2026-05-01T09:49:30.467Z</time></trkpt><trkpt lat="42.1849963" lon="14.1814196"><ele>631.0</ele><time>2026-05-01T09:49:31.467Z</time></trkpt><trkpt lat="42.1849976" lon="14.1813019"><ele>631.0</ele><time>2026-05-01T09:49:32.467Z</time></trkpt><trkpt lat="42.1849805" lon="14.1811919"><ele>632.0</ele><time>2026-05-01T09:49:33.466Z</time></trkpt><trkpt lat="42.1849376" lon="14.1810896"><ele>633.0</ele><time>2026-05-01T09:49:34.467Z</time></trkpt><trkpt lat="42.1848872" lon="14.1809871"><ele>634.0</ele><time>2026-05-01T09:49:35.467Z</time></trkpt><trkpt lat="42.1848376" lon="14.1809055"><ele>635.0</ele><time>2026-05-01T09:49:36.468Z</time></trkpt><trkpt lat="42.1847861" lon="14.1808432"><ele>636.0</ele><time>2026-05-01T09:49:37.467Z</time></trkpt><trkpt lat="42.1847188" lon="14.1807855"><ele>637.0</ele><time>2026-05-01T09:49:38.467Z</time></trkpt><trkpt lat="42.1846585" lon="14.1807269"><ele>637.8</ele><time>2026-05-01T09:49:39.467Z</time></trkpt><trkpt lat="42.18455" lon="14.1806729"><ele>638.6</ele><time>2026-05-01T09:49:41.467Z</time></trkpt><trkpt lat="42.184473" lon="14.1806929"><ele>639.4</ele><time>2026-05-01T09:49:42.467Z</time></trkpt><trkpt lat="42.1843856" lon="14.1807379"><ele>640.1999999999999</ele><time>2026-05-01T09:49:43.467Z</time></trkpt><trkpt lat="42.1842874" lon="14.1808115"><ele>641.0</ele><time>2026-05-01T09:49:44.467Z</time></trkpt><trkpt lat="42.1841941" lon="14.1808773"><ele>641.0</ele><time>2026-05-01T09:49:45.467Z</time></trkpt><trkpt lat="42.1841109" lon="14.1809256"><ele>641.0</ele><time>2026-05-01T09:49:46.466Z</time></trkpt><trkpt lat="42.1840489" lon="14.1809585"><ele>641.0</ele><time>2026-05-01T09:49:47.468Z</time></trkpt><trkpt lat="42.1839772" lon="14.1810919"><ele>641.0</ele><time>2026-05-01T09:49:49.468Z</time></trkpt><trkpt lat="42.1839503" lon="14.1812002"><ele>641.0</ele><time>2026-05-01T09:49:50.467Z</time></trkpt><trkpt lat="42.1839125" lon="14.181335"><ele>641.8</ele><time>2026-05-01T09:49:52.467Z</time></trkpt><trkpt lat="42.1838712" lon="14.1814041"><ele>642.5999999999999</ele><time>2026-05-01T09:49:54.467Z</time></trkpt><trkpt lat="42.1838886" lon="14.1814927"><ele>643.4</ele><time>2026-05-01T09:49:57.468Z</time></trkpt><trkpt lat="42.1839531" lon="14.181353"><ele>644.2</ele><time>2026-05-01T09:50:00.468Z</time></trkpt><trkpt lat="42.1839522" lon="14.1811662"><ele>645.0</ele><time>2026-05-01T09:50:02.466Z</time></trkpt><trkpt lat="42.1839406" lon="14.1810629"><ele>645.0</ele><time>2026-05-01T09:50:03.467Z</time></trkpt><trkpt lat="42.1839338" lon="14.1809646"><ele>645.0</ele><time>2026-05-01T09:50:04.466Z</time></trkpt><trkpt lat="42.1839258" lon="14.1808778"><ele>645.0</ele><time>2026-05-01T09:50:05.467Z</time></trkpt><trkpt lat="42.1839072" lon="14.1807339"><ele>645.0</ele><time>2026-05-01T09:50:07.466Z</time></trkpt><trkpt lat="42.1838409" lon="14.1807007"><ele>645.0</ele><time>2026-05-01T09:50:09.467Z</time></trkpt><trkpt lat="42.183756" lon="14.1807478"><ele>645.0</ele><time>2026-05-01T09:50:11.468Z</time></trkpt><trkpt lat="42.1836586" lon="14.1807511"><ele>645.0</ele><time>2026-05-01T09:50:13.467Z</time></trkpt><trkpt lat="42.1835913" lon="14.1807675"><ele>645.0</ele><time>2026-05-01T09:50:15.468Z</time></trkpt><trkpt lat="42.1835736" lon="14.1808493"><ele>645.0</ele><time>2026-05-01T09:50:23.467Z</time></trkpt><trkpt lat="42.1835762" lon="14.1809378"><ele>645.0</ele><time>2026-05-01T09:55:08.464Z</time></trkpt><trkpt lat="42.1835359" lon="14.1810111"><ele>645.0</ele><time>2026-05-01T09:55:16.465Z</time></trkpt><trkpt lat="42.1835094" lon="14.1810882"><ele>645.0</ele><time>2026-05-01T09:55:27.464Z</time></trkpt><trkpt lat="42.1835586" lon="14.1811473"><ele>645.0</ele><time>2026-05-01T09:56:15.446Z</time></trkpt><trkpt lat="42.1835559" lon="14.1810345"><ele>645.0</ele><time>2026-05-01T09:56:36.476Z</time></trkpt><trkpt lat="42.1835682" lon="14.1809407"><ele>645.0</ele><time>2026-05-01T09:56:43.488Z</time></trkpt><trkpt lat="42.1836319" lon="14.1809725"><ele>645.0</ele><time>2026-05-01T09:56:50.465Z</time></trkpt><trkpt lat="42.183553" lon="14.1809737"><ele>645.0</ele><time>2026-05-01T09:56:58.464Z</time></trkpt><trkpt lat="42.1835829" lon="14.1810566"><ele>645.0</ele><time>2026-05-01T09:57:04.463Z</time></trkpt><trkpt lat="42.1836154" lon="14.1811424"><ele>645.0</ele><time>2026-05-01T09:57:11.463Z</time></trkpt><trkpt lat="42.1835991" lon="14.1812425"><ele>645.0</ele><time>2026-05-01T09:57:28.464Z</time></trkpt><trkpt lat="42.1836694" lon="14.1812556"><ele>645.0</ele><time>2026-05-01T09:57:47.464Z</time></trkpt><trkpt lat="42.1836758" lon="14.18117"><ele>645.0</ele><time>2026-05-01T10:01:47.462Z</time></trkpt><trkpt lat="42.183688" lon="14.1810731"><ele>645.0</ele><time>2026-05-01T10:01:55.463Z</time></trkpt><trkpt lat="42.1836919" lon="14.1809868"><ele>645.0</ele><time>2026-05-01T10:21:44.454Z</time></trkpt><trkpt lat="42.1836528" lon="14.1810637"><ele>645.0</ele><time>2026-05-01T10:26:17.452Z</time></trkpt><trkpt lat="42.1836923" lon="14.1811338"><ele>645.0</ele><time>2026-05-01T10:26:38.431Z</time></trkpt><trkpt lat="42.1837168" lon="14.1812144"><ele>645.0</ele><time>2026-05-01T10:26:44.454Z</time></trkpt><trkpt lat="42.1837337" lon="14.1813104"><ele>645.0</ele><time>2026-05-01T10:26:50.453Z</time></trkpt><trkpt lat="42.1837207" lon="14.1813994"><ele>645.0</ele><time>2026-05-01T10:26:55.453Z</time></trkpt><trkpt lat="42.1837451" lon="14.1814903"><ele>645.0</ele><time>2026-05-01T10:27:02.453Z</time></trkpt><trkpt lat="42.1836993" lon="14.1814187"><ele>645.0</ele><time>2026-05-01T10:27:12.251Z</time></trkpt><trkpt lat="42.1836719" lon="14.1813272"><ele>645.0</ele><time>2026-05-01T10:27:17.453Z</time></trkpt><trkpt lat="42.183603" lon="14.1813165"><ele>645.0</ele><time>2026-05-01T10:27:39.452Z</time></trkpt><trkpt lat="42.1835139" lon="14.1813093"><ele>645.0</ele><time>2026-05-01T10:28:02.394Z</time></trkpt><trkpt lat="42.183487" lon="14.1812317"><ele>645.0</ele><time>2026-05-01T10:28:20.452Z</time></trkpt><trkpt lat="42.1834438" lon="14.1813049"><ele>645.0</ele><time>2026-05-01T10:30:03.451Z</time></trkpt><trkpt lat="42.1834902" lon="14.1812366"><ele>645.0</ele><time>2026-05-01T10:30:15.452Z</time></trkpt><trkpt lat="42.1833234" lon="14.1812438"><ele>645.0</ele><time>2026-05-01T10:44:43.446Z</time></trkpt><trkpt lat="42.1832053" lon="14.1811594"><ele>645.0</ele><time>2026-05-01T10:45:54.448Z</time></trkpt><trkpt lat="42.1832497" lon="14.1812321"><ele>645.0</ele><time>2026-05-01T10:46:03.447Z</time></trkpt><trkpt lat="42.1833316" lon="14.1812604"><ele>645.0</ele><time>2026-05-01T10:46:06.448Z</time></trkpt><trkpt lat="42.1834512" lon="14.1813115"><ele>645.0</ele><time>2026-05-01T10:46:26.448Z</time></trkpt><trkpt lat="42.1835746" lon="14.1813688"><ele>645.0</ele><time>2026-05-01T10:46:52.447Z</time></trkpt><trkpt lat="42.1835119" lon="14.1814049"><ele>645.0</ele><time>2026-05-01T10:46:56.447Z</time></trkpt><trkpt lat="42.1835176" lon="14.1813171"><ele>645.0</ele><time>2026-05-01T10:57:51.444Z</time></trkpt><trkpt lat="42.1835256" lon="14.1812197"><ele>645.0</ele><time>2026-05-01T10:58:12.443Z</time></trkpt><trkpt lat="42.183573" lon="14.1811615"><ele>645.0</ele><time>2026-05-01T10:58:19.444Z</time></trkpt><trkpt lat="42.1835298" lon="14.1810891"><ele>645.0</ele><time>2026-05-01T10:58:25.442Z</time></trkpt><trkpt lat="42.1835696" lon="14.1810192"><ele>645.0</ele><time>2026-05-01T10:58:32.443Z</time></trkpt><trkpt lat="42.1835496" lon="14.1811033"><ele>645.0</ele><time>2026-05-01T10:58:50.443Z</time></trkpt><trkpt lat="42.1835804" lon="14.1811819"><ele>645.0</ele><time>2026-05-01T10:58:56.442Z</time></trkpt><trkpt lat="42.1836419" lon="14.1812557"><ele>645.0</ele><time>2026-05-01T10:59:03.441Z</time></trkpt><trkpt lat="42.1836558" lon="14.1813458"><ele>645.0</ele><time>2026-05-01T10:59:08.393Z</time></trkpt><trkpt lat="42.1836085" lon="14.1814057"><ele>645.0</ele><time>2026-05-01T10:59:14.442Z</time></trkpt><trkpt lat="42.1836147" lon="14.1815059"><ele>645.0</ele><time>2026-05-01T10:59:20.443Z</time></trkpt><trkpt lat="42.1836266" lon="14.1815935"><ele>645.0</ele><time>2026-05-01T10:59:26.442Z</time></trkpt><trkpt lat="42.1835667" lon="14.1816205"><ele>645.0</ele><time>2026-05-01T10:59:32.442Z</time></trkpt><trkpt lat="42.1834958" lon="14.1816092"><ele>645.0</ele><time>2026-05-01T10:59:42.442Z</time></trkpt><trkpt lat="42.1834927" lon="14.1815223"><ele>645.0</ele><time>2026-05-01T11:00:22.455Z</time></trkpt><trkpt lat="42.1834268" lon="14.1815313"><ele>645.0</ele><time>2026-05-01T11:00:33.442Z</time></trkpt><trkpt lat="42.1834453" lon="14.1814394"><ele>645.0</ele><time>2026-05-01T11:00:40.41Z</time></trkpt><trkpt lat="42.183516" lon="14.1813984"><ele>645.0</ele><time>2026-05-01T11:00:45.442Z</time></trkpt><trkpt lat="42.1835859" lon="14.1813611"><ele>645.0</ele><time>2026-05-01T11:01:18.442Z</time></trkpt><trkpt lat="42.1835826" lon="14.1812566"><ele>645.0</ele><time>2026-05-01T11:01:27.442Z</time></trkpt><trkpt lat="42.1835657" lon="14.1811698"><ele>645.0</ele><time>2026-05-01T11:01:35.436Z</time></trkpt><trkpt lat="42.1834957" lon="14.1811852"><ele>645.0</ele><time>2026-05-01T11:01:44.442Z</time></trkpt><trkpt lat="42.1834395" lon="14.1812314"><ele>645.0</ele><time>2026-05-01T11:01:55.443Z</time></trkpt><trkpt lat="42.1834295" lon="14.1813163"><ele>645.0</ele><time>2026-05-01T11:02:02.473Z</time></trkpt><trkpt lat="42.1833847" lon="14.1813858"><ele>645.0</ele><time>2026-05-01T11:02:10.44Z</time></trkpt><trkpt lat="42.183462" lon="14.1814232"><ele>645.0</ele><time>2026-05-01T11:02:56.442Z</time></trkpt><trkpt lat="42.1835288" lon="14.1813833"><ele>645.0</ele><time>2026-05-01T11:03:06.442Z</time></trkpt><trkpt lat="42.1835674" lon="14.1813143"><ele>645.0</ele><time>2026-05-01T11:03:34.441Z</time></trkpt><trkpt lat="42.1835743" lon="14.181207"><ele>645.0</ele><time>2026-05-01T11:05:00.442Z</time></trkpt><trkpt lat="42.1835578" lon="14.1811167"><ele>645.0</ele><time>2026-05-01T11:05:04.442Z</time></trkpt><trkpt lat="42.1835535" lon="14.1810256"><ele>645.0</ele><time>2026-05-01T11:05:14.461Z</time></trkpt><trkpt lat="42.1835507" lon="14.1809391"><ele>645.0</ele><time>2026-05-01T11:05:20.439Z</time></trkpt><trkpt lat="42.1835793" lon="14.1808574"><ele>645.0</ele><time>2026-05-01T11:05:27.432Z</time></trkpt><trkpt lat="42.1836324" lon="14.1809168"><ele>645.0</ele><time>2026-05-01T11:15:17.437Z</time></trkpt><trkpt lat="42.1836867" lon="14.1808324"><ele>645.0</ele><time>2026-05-01T11:15:21.436Z</time></trkpt><trkpt lat="42.1837541" lon="14.1807539"><ele>645.0</ele><time>2026-05-01T11:15:23.436Z</time></trkpt><trkpt lat="42.1838135" lon="14.1807084"><ele>645.0</ele><time>2026-05-01T11:15:25.436Z</time></trkpt><trkpt lat="42.183883" lon="14.1807231"><ele>645.0</ele><time>2026-05-01T11:15:28.436Z</time></trkpt><trkpt lat="42.1839108" lon="14.1808208"><ele>645.0</ele><time>2026-05-01T11:15:31.436Z</time></trkpt><trkpt lat="42.1839182" lon="14.1809737"><ele>645.0</ele><time>2026-05-01T11:16:24.435Z</time></trkpt><trkpt lat="42.1839135" lon="14.181087"><ele>645.0</ele><time>2026-05-01T11:16:25.437Z</time></trkpt><trkpt lat="42.1839061" lon="14.1811979"><ele>645.0</ele><time>2026-05-01T11:16:26.436Z</time></trkpt><trkpt lat="42.1838847" lon="14.1813084"><ele>645.0</ele><time>2026-05-01T11:16:27.436Z</time></trkpt><trkpt lat="42.1838507" lon="14.1814281"><ele>645.0</ele><time>2026-05-01T11:16:28.436Z</time></trkpt><trkpt lat="42.1837932" lon="14.1815697"><ele>645.0</ele><time>2026-05-01T11:16:29.436Z</time></trkpt><trkpt lat="42.1837293" lon="14.1817063"><ele>645.0</ele><time>2026-05-01T11:16:30.436Z</time></trkpt><trkpt lat="42.183667" lon="14.1818261"><ele>644.6666666666666</ele><time>2026-05-01T11:16:31.436Z</time></trkpt><trkpt lat="42.1836071" lon="14.181924"><ele>644.3333333333334</ele><time>2026-05-01T11:16:32.437Z</time></trkpt><trkpt lat="42.1835458" lon="14.1819965"><ele>644.0</ele><time>2026-05-01T11:16:33.436Z</time></trkpt><trkpt lat="42.1834888" lon="14.182039"><ele>643.6666666666667</ele><time>2026-05-01T11:16:34.436Z</time></trkpt><trkpt lat="42.1834157" lon="14.1820763"><ele>643.3333333333334</ele><time>2026-05-01T11:16:36.436Z</time></trkpt><trkpt lat="42.1833543" lon="14.1821225"><ele>643.0</ele><time>2026-05-01T11:16:40.437Z</time></trkpt><trkpt lat="42.1834106" lon="14.1822771"><ele>640.8</ele><time>2026-05-01T11:16:43.435Z</time></trkpt><trkpt lat="42.1834754" lon="14.1823671"><ele>638.5999999999999</ele><time>2026-05-01T11:16:44.437Z</time></trkpt><trkpt lat="42.1835382" lon="14.182458"><ele>636.4000000000001</ele><time>2026-05-01T11:16:45.437Z</time></trkpt><trkpt lat="42.1835992" lon="14.1825546"><ele>634.2</ele><time>2026-05-01T11:16:46.437Z</time></trkpt><trkpt lat="42.1836518" lon="14.1826507"><ele>632.0</ele><time>2026-05-01T11:16:47.436Z</time></trkpt><trkpt lat="42.1836971" lon="14.1827559"><ele>632.0</ele><time>2026-05-01T11:16:48.436Z</time></trkpt><trkpt lat="42.1837344" lon="14.1828788"><ele>632.0</ele><time>2026-05-01T11:16:49.436Z</time></trkpt><trkpt lat="42.1837748" lon="14.1830208"><ele>632.0</ele><time>2026-05-01T11:16:50.436Z</time></trkpt><trkpt lat="42.1838188" lon="14.1831819"><ele>632.0</ele><time>2026-05-01T11:16:51.435Z</time></trkpt><trkpt lat="42.1838831" lon="14.1833449"><ele>631.6666666666666</ele><time>2026-05-01T11:16:52.436Z</time></trkpt><trkpt lat="42.1839578" lon="14.1835113"><ele>631.3333333333334</ele><time>2026-05-01T11:16:53.437Z</time></trkpt><trkpt lat="42.1840429" lon="14.1836904"><ele>631.0</ele><time>2026-05-01T11:16:54.435Z</time></trkpt><trkpt lat="42.1841197" lon="14.1838709"><ele>628.0</ele><time>2026-05-01T11:16:55.436Z</time></trkpt><trkpt lat="42.1841985" lon="14.1840665"><ele>625.0</ele><time>2026-05-01T11:16:56.435Z</time></trkpt><trkpt lat="42.1842833" lon="14.18429"><ele>622.0</ele><time>2026-05-01T11:16:57.437Z</time></trkpt><trkpt lat="42.1843653" lon="14.1845104"><ele>622.0</ele><time>2026-05-01T11:16:58.436Z</time></trkpt><trkpt lat="42.1844425" lon="14.1847261"><ele>622.0</ele><time>2026-05-01T11:16:59.437Z</time></trkpt><trkpt lat="42.1845174" lon="14.1849285"><ele>622.0</ele><time>2026-05-01T11:17:00.435Z</time></trkpt><trkpt lat="42.1845851" lon="14.1851224"><ele>617.3333333333334</ele><time>2026-05-01T11:17:01.436Z</time></trkpt><trkpt lat="42.1846604" lon="14.1853009"><ele>612.6666666666666</ele><time>2026-05-01T11:17:02.436Z</time></trkpt><trkpt lat="42.1847439" lon="14.1854629"><ele>608.0</ele><time>2026-05-01T11:17:03.437Z</time></trkpt><trkpt lat="42.184839" lon="14.1856214"><ele>608.5</ele><time>2026-05-01T11:17:04.435Z</time></trkpt><trkpt lat="42.1849399" lon="14.1857611"><ele>609.0</ele><time>2026-05-01T11:17:05.436Z</time></trkpt><trkpt lat="42.1850344" lon="14.1858969"><ele>609.5</ele><time>2026-05-01T11:17:06.437Z</time></trkpt><trkpt lat="42.1851347" lon="14.1860285"><ele>610.0</ele><time>2026-05-01T11:17:07.436Z</time></trkpt><trkpt lat="42.185232" lon="14.1861691"><ele>610.0</ele><time>2026-05-01T11:17:08.436Z</time></trkpt><trkpt lat="42.185329" lon="14.186326"><ele>610.0</ele><time>2026-05-01T11:17:09.436Z</time></trkpt><trkpt lat="42.1854164" lon="14.1864846"><ele>610.0</ele><time>2026-05-01T11:17:10.436Z</time></trkpt><trkpt lat="42.1854948" lon="14.1866571"><ele>610.0</ele><time>2026-05-01T11:17:11.436Z</time></trkpt><trkpt lat="42.1855642" lon="14.1868369"><ele>607.75</ele><time>2026-05-01T11:17:12.436Z</time></trkpt><trkpt lat="42.1856274" lon="14.1870146"><ele>605.5</ele><time>2026-05-01T11:17:13.435Z</time></trkpt><trkpt lat="42.1856784" lon="14.1871743"><ele>603.25</ele><time>2026-05-01T11:17:14.435Z</time></trkpt><trkpt lat="42.1857212" lon="14.1873177"><ele>601.0</ele><time>2026-05-01T11:17:15.436Z</time></trkpt><trkpt lat="42.1857535" lon="14.1874358"><ele>599.3333333333334</ele><time>2026-05-01T11:17:16.436Z</time></trkpt><trkpt lat="42.1857843" lon="14.1875455"><ele>597.6666666666667</ele><time>2026-05-01T11:17:17.436Z</time></trkpt><trkpt lat="42.1858162" lon="14.1876452"><ele>596.0</ele><time>2026-05-01T11:17:18.435Z</time></trkpt><trkpt lat="42.1858467" lon="14.1877414"><ele>594.3333333333334</ele><time>2026-05-01T11:17:19.436Z</time></trkpt><trkpt lat="42.1858784" lon="14.1878251"><ele>592.6666666666666</ele><time>2026-05-01T11:17:20.436Z</time></trkpt><trkpt lat="42.1859149" lon="14.1879456"><ele>591.0</ele><time>2026-05-01T11:17:22.436Z</time></trkpt><trkpt lat="42.1858395" lon="14.1879575"><ele>591.0</ele><time>2026-05-01T11:17:26.435Z</time></trkpt><trkpt lat="42.1857527" lon="14.1878013"><ele>591.0</ele><time>2026-05-01T11:17:28.435Z</time></trkpt><trkpt lat="42.185692" lon="14.1876574"><ele>591.0</ele><time>2026-05-01T11:17:29.435Z</time></trkpt><trkpt lat="42.1856244" lon="14.1875018"><ele>591.0</ele><time>2026-05-01T11:17:30.436Z</time></trkpt><trkpt lat="42.1855601" lon="14.1873348"><ele>591.25</ele><time>2026-05-01T11:17:31.435Z</time></trkpt><trkpt lat="42.1854874" lon="14.1871845"><ele>591.5</ele><time>2026-05-01T11:17:32.435Z</time></trkpt><trkpt lat="42.1854074" lon="14.187033"><ele>591.75</ele><time>2026-05-01T11:17:33.435Z</time></trkpt><trkpt lat="42.1853328" lon="14.186932"><ele>592.0</ele><time>2026-05-01T11:17:34.434Z</time></trkpt><trkpt lat="42.1852515" lon="14.18681"><ele>592.0</ele><time>2026-05-01T11:17:35.435Z</time></trkpt><trkpt lat="42.1851501" lon="14.1866988"><ele>592.0</ele><time>2026-05-01T11:17:36.435Z</time></trkpt><trkpt lat="42.1850592" lon="14.1866088"><ele>592.0</ele><time>2026-05-01T11:17:37.435Z</time></trkpt><trkpt lat="42.1849608" lon="14.1865289"><ele>592.0</ele><time>2026-05-01T11:17:38.435Z</time></trkpt><trkpt lat="42.1848698" lon="14.1864797"><ele>592.0</ele><time>2026-05-01T11:17:39.435Z</time></trkpt><trkpt lat="42.1847764" lon="14.1864252"><ele>592.0</ele><time>2026-05-01T11:17:40.435Z</time></trkpt><trkpt lat="42.1846844" lon="14.1864466"><ele>592.0</ele><time>2026-05-01T11:17:41.436Z</time></trkpt><trkpt lat="42.1845859" lon="14.1864155"><ele>592.0</ele><time>2026-05-01T11:17:42.435Z</time></trkpt><trkpt lat="42.184453" lon="14.1864539"><ele>592.0</ele><time>2026-05-01T11:17:43.436Z</time></trkpt><trkpt lat="42.1843558" lon="14.1864754"><ele>592.0</ele><time>2026-05-01T11:17:44.436Z</time></trkpt><trkpt lat="42.1842675" lon="14.1864786"><ele>592.0</ele><time>2026-05-01T11:17:45.434Z</time></trkpt><trkpt lat="42.1841582" lon="14.1864587"><ele>592.0</ele><time>2026-05-01T11:17:46.435Z</time></trkpt><trkpt lat="42.184036" lon="14.186449"><ele>592.0</ele><time>2026-05-01T11:17:47.435Z</time></trkpt><trkpt lat="42.1839134" lon="14.1864492"><ele>592.0</ele><time>2026-05-01T11:17:48.434Z</time></trkpt><trkpt lat="42.1837858" lon="14.1864705"><ele>591.0</ele><time>2026-05-01T11:17:49.434Z</time></trkpt><trkpt lat="42.1836736" lon="14.1864919"><ele>590.0</ele><time>2026-05-01T11:17:50.435Z</time></trkpt><trkpt lat="42.1835521" lon="14.1865417"><ele>589.0</ele><time>2026-05-01T11:17:51.436Z</time></trkpt><trkpt lat="42.1834094" lon="14.186625"><ele>588.0</ele><time>2026-05-01T11:17:52.435Z</time></trkpt><trkpt lat="42.1832673" lon="14.1867169"><ele>586.5</ele><time>2026-05-01T11:17:53.434Z</time></trkpt><trkpt lat="42.1831307" lon="14.1868046"><ele>585.0</ele><time>2026-05-01T11:17:54.434Z</time></trkpt><trkpt lat="42.1830053" lon="14.1868744"><ele>583.5</ele><time>2026-05-01T11:17:55.435Z</time></trkpt><trkpt lat="42.1828712" lon="14.1869323"><ele>582.0</ele><time>2026-05-01T11:17:56.435Z</time></trkpt><trkpt lat="42.1827508" lon="14.1869759"><ele>582.0</ele><time>2026-05-01T11:17:57.435Z</time></trkpt><trkpt lat="42.1826607" lon="14.1870042"><ele>582.0</ele><time>2026-05-01T11:17:58.435Z</time></trkpt><trkpt lat="42.1825978" lon="14.1870345"><ele>582.0</ele><time>2026-05-01T11:17:59.435Z</time></trkpt><trkpt lat="42.1825524" lon="14.1871177"><ele>582.0</ele><time>2026-05-01T11:18:01.435Z</time></trkpt><trkpt lat="42.1826435" lon="14.1872718"><ele>582.0</ele><time>2026-05-01T11:18:03.435Z</time></trkpt><trkpt lat="42.1827584" lon="14.1874165"><ele>581.0</ele><time>2026-05-01T11:18:04.435Z</time></trkpt><trkpt lat="42.1829101" lon="14.1876059"><ele>580.0</ele><time>2026-05-01T11:18:05.436Z</time></trkpt><trkpt lat="42.1830683" lon="14.1878003"><ele>579.0</ele><time>2026-05-01T11:18:06.435Z</time></trkpt><trkpt lat="42.1832071" lon="14.1879684"><ele>579.0</ele><time>2026-05-01T11:18:07.436Z</time></trkpt><trkpt lat="42.1833319" lon="14.1881513"><ele>579.0</ele><time>2026-05-01T11:18:08.436Z</time></trkpt><trkpt lat="42.1834624" lon="14.1883862"><ele>579.0</ele><time>2026-05-01T11:18:09.435Z</time></trkpt><trkpt lat="42.1835854" lon="14.188638"><ele>577.6666666666666</ele><time>2026-05-01T11:18:10.434Z</time></trkpt><trkpt lat="42.1836897" lon="14.188865"><ele>576.3333333333333</ele><time>2026-05-01T11:18:11.435Z</time></trkpt><trkpt lat="42.1837811" lon="14.1890746"><ele>575.0</ele><time>2026-05-01T11:18:12.435Z</time></trkpt><trkpt lat="42.1838532" lon="14.189266"><ele>573.0</ele><time>2026-05-01T11:18:13.435Z</time></trkpt><trkpt lat="42.1839024" lon="14.1894644"><ele>571.0</ele><time>2026-05-01T11:18:14.434Z</time></trkpt><trkpt lat="42.1839363" lon="14.1896763"><ele>569.0</ele><time>2026-05-01T11:18:15.434Z</time></trkpt><trkpt lat="42.1839548" lon="14.1899391"><ele>567.6666666666666</ele><time>2026-05-01T11:18:16.435Z</time></trkpt><trkpt lat="42.1839657" lon="14.1902353"><ele>566.3333333333334</ele><time>2026-05-01T11:18:17.435Z</time></trkpt><trkpt lat="42.183976" lon="14.1904939"><ele>565.0</ele><time>2026-05-01T11:18:18.436Z</time></trkpt><trkpt lat="42.1839891" lon="14.190735"><ele>563.5</ele><time>2026-05-01T11:18:19.435Z</time></trkpt><trkpt lat="42.1839983" lon="14.1909528"><ele>562.0</ele><time>2026-05-01T11:18:20.434Z</time></trkpt><trkpt lat="42.183997" lon="14.1911451"><ele>560.5</ele><time>2026-05-01T11:18:21.434Z</time></trkpt><trkpt lat="42.1839861" lon="14.1913299"><ele>559.0</ele><time>2026-05-01T11:18:22.435Z</time></trkpt><trkpt lat="42.1839789" lon="14.1914898"><ele>558.0</ele><time>2026-05-01T11:18:23.434Z</time></trkpt><trkpt lat="42.1839807" lon="14.1916575"><ele>557.0</ele><time>2026-05-01T11:18:24.434Z</time></trkpt><trkpt lat="42.1839943" lon="14.1918149"><ele>556.0</ele><time>2026-05-01T11:18:25.435Z</time></trkpt><trkpt lat="42.1840294" lon="14.1919628"><ele>555.0</ele><time>2026-05-01T11:18:26.435Z</time></trkpt><trkpt lat="42.1840675" lon="14.1921243"><ele>555.0</ele><time>2026-05-01T11:18:27.435Z</time></trkpt><trkpt lat="42.1841694" lon="14.1922691"><ele>555.0</ele><time>2026-05-01T11:18:28.434Z</time></trkpt><trkpt lat="42.184227" lon="14.1924195"><ele>555.0</ele><time>2026-05-01T11:18:29.434Z</time></trkpt><trkpt lat="42.1842753" lon="14.1925684"><ele>555.0</ele><time>2026-05-01T11:18:30.434Z</time></trkpt><trkpt lat="42.1843124" lon="14.1927222"><ele>553.5</ele><time>2026-05-01T11:18:31.434Z</time></trkpt><trkpt lat="42.184337" lon="14.1928499"><ele>552.0</ele><time>2026-05-01T11:18:32.435Z</time></trkpt><trkpt lat="42.1843551" lon="14.1929678"><ele>550.5</ele><time>2026-05-01T11:18:33.435Z</time></trkpt><trkpt lat="42.1843501" lon="14.193068"><ele>549.0</ele><time>2026-05-01T11:18:34.435Z</time></trkpt><trkpt lat="42.1843245" lon="14.1931819"><ele>547.5</ele><time>2026-05-01T11:18:35.435Z</time></trkpt><trkpt lat="42.1842847" lon="14.1933016"><ele>546.0</ele><time>2026-05-01T11:18:36.435Z</time></trkpt><trkpt lat="42.1842428" lon="14.1934173"><ele>545.1666666666666</ele><time>2026-05-01T11:18:37.435Z</time></trkpt><trkpt lat="42.1842106" lon="14.1935202"><ele>544.3333333333334</ele><time>2026-05-01T11:18:38.436Z</time></trkpt><trkpt lat="42.1841942" lon="14.1936153"><ele>543.5</ele><time>2026-05-01T11:18:39.435Z</time></trkpt><trkpt lat="42.1841908" lon="14.1937092"><ele>542.6666666666667</ele><time>2026-05-01T11:18:40.435Z</time></trkpt><trkpt lat="42.1841989" lon="14.1938313"><ele>541.8333333333334</ele><time>2026-05-01T11:18:41.434Z</time></trkpt><trkpt lat="42.18422" lon="14.1939707"><ele>541.0</ele><time>2026-05-01T11:18:42.435Z</time></trkpt><trkpt lat="42.1842422" lon="14.1940692"><ele>541.0</ele><time>2026-05-01T11:18:43.435Z</time></trkpt><trkpt lat="42.1842695" lon="14.1941581"><ele>541.0</ele><time>2026-05-01T11:18:44.436Z</time></trkpt><trkpt lat="42.1843226" lon="14.1942371"><ele>541.0</ele><time>2026-05-01T11:18:46.435Z</time></trkpt><trkpt lat="42.1843856" lon="14.1942526"><ele>541.0</ele><time>2026-05-01T11:18:56.435Z</time></trkpt><trkpt lat="42.1843205" lon="14.1941891"><ele>541.0</ele><time>2026-05-01T11:19:13.436Z</time></trkpt><trkpt lat="42.1842766" lon="14.1940934"><ele>541.0</ele><time>2026-05-01T11:19:15.435Z</time></trkpt><trkpt lat="42.184248" lon="14.1939378"><ele>541.0</ele><time>2026-05-01T11:19:17.436Z</time></trkpt><trkpt lat="42.1842126" lon="14.1938098"><ele>541.0</ele><time>2026-05-01T11:19:19.435Z</time></trkpt><trkpt lat="42.1842018" lon="14.193696"><ele>541.0</ele><time>2026-05-01T11:19:21.435Z</time></trkpt><trkpt lat="42.1842194" lon="14.1935997"><ele>541.0</ele><time>2026-05-01T11:19:26.435Z</time></trkpt><trkpt lat="42.1841608" lon="14.1936338"><ele>541.0</ele><time>2026-05-01T11:19:33.435Z</time></trkpt><trkpt lat="42.1841362" lon="14.1937557"><ele>541.0</ele><time>2026-05-01T11:19:35.435Z</time></trkpt><trkpt lat="42.1841027" lon="14.1939017"><ele>540.2</ele><time>2026-05-01T11:19:37.435Z</time></trkpt><trkpt lat="42.1840873" lon="14.1940588"><ele>539.4000000000001</ele><time>2026-05-01T11:19:39.434Z</time></trkpt><trkpt lat="42.1840797" lon="14.1941845"><ele>538.6</ele><time>2026-05-01T11:19:41.435Z</time></trkpt><trkpt lat="42.1840786" lon="14.1942901"><ele>537.8000000000001</ele><time>2026-05-01T11:19:43.434Z</time></trkpt><trkpt lat="42.1841077" lon="14.1944056"><ele>537.0</ele><time>2026-05-01T11:19:45.435Z</time></trkpt><trkpt lat="42.1841487" lon="14.1944962"><ele>537.0</ele><time>2026-05-01T11:19:47.434Z</time></trkpt><trkpt lat="42.1841926" lon="14.1945579"><ele>537.0</ele><time>2026-05-01T11:19:48.434Z</time></trkpt><trkpt lat="42.1842731" lon="14.1946513"><ele>537.0</ele><time>2026-05-01T11:19:50.434Z</time></trkpt><trkpt lat="42.1843439" lon="14.1947176"><ele>537.0</ele><time>2026-05-01T11:19:52.434Z</time></trkpt><trkpt lat="42.1842982" lon="14.1948066"><ele>537.0</ele><time>2026-05-01T11:19:55.434Z</time></trkpt><trkpt lat="42.1842324" lon="14.1947524"><ele>537.0</ele><time>2026-05-01T11:19:57.434Z</time></trkpt><trkpt lat="42.1841707" lon="14.1947208"><ele>537.0</ele><time>2026-05-01T11:20:00.434Z</time></trkpt><trkpt lat="42.1841884" lon="14.1948267"><ele>537.0</ele><time>2026-05-01T11:20:03.434Z</time></trkpt><trkpt lat="42.1842754" lon="14.194966"><ele>537.0</ele><time>2026-05-01T11:20:05.434Z</time></trkpt><trkpt lat="42.1842738" lon="14.195116"><ele>537.0</ele><time>2026-05-01T11:20:08.434Z</time></trkpt><trkpt lat="42.1843688" lon="14.1951893"><ele>537.0</ele><time>2026-05-01T11:20:11.434Z</time></trkpt><trkpt lat="42.1844362" lon="14.195235"><ele>535.0</ele><time>2026-05-01T11:20:12.434Z</time></trkpt><trkpt lat="42.1845157" lon="14.1952919"><ele>533.0</ele><time>2026-05-01T11:20:13.435Z</time></trkpt><trkpt lat="42.1845842" lon="14.1953398"><ele>531.0</ele><time>2026-05-01T11:20:14.434Z</time></trkpt><trkpt lat="42.1846581" lon="14.1954046"><ele>529.0</ele><time>2026-05-01T11:20:15.434Z</time></trkpt><trkpt lat="42.1847312" lon="14.195493"><ele>527.0</ele><time>2026-05-01T11:20:16.434Z</time></trkpt><trkpt lat="42.1847991" lon="14.1955885"><ele>526.1666666666666</ele><time>2026-05-01T11:20:17.434Z</time></trkpt><trkpt lat="42.1848707" lon="14.1956938"><ele>525.3333333333333</ele><time>2026-05-01T11:20:18.434Z</time></trkpt><trkpt lat="42.1849457" lon="14.195785"><ele>524.5</ele><time>2026-05-01T11:20:19.434Z</time></trkpt><trkpt lat="42.1850069" lon="14.1958575"><ele>523.6666666666666</ele><time>2026-05-01T11:20:20.434Z</time></trkpt><trkpt lat="42.1850626" lon="14.1959385"><ele>522.8333333333334</ele><time>2026-05-01T11:20:21.434Z</time></trkpt><trkpt lat="42.1850945" lon="14.1960322"><ele>522.0</ele><time>2026-05-01T11:20:22.433Z</time></trkpt><trkpt lat="42.1851251" lon="14.1961482"><ele>522.0</ele><time>2026-05-01T11:20:23.434Z</time></trkpt><trkpt lat="42.1851494" lon="14.1962746"><ele>522.0</ele><time>2026-05-01T11:20:24.434Z</time></trkpt><trkpt lat="42.1851825" lon="14.1964203"><ele>522.0</ele><time>2026-05-01T11:20:25.433Z</time></trkpt><trkpt lat="42.1852083" lon="14.1965526"><ele>522.0</ele><time>2026-05-01T11:20:26.434Z</time></trkpt><trkpt lat="42.1852378" lon="14.1966762"><ele>522.0</ele><time>2026-05-01T11:20:27.434Z</time></trkpt><trkpt lat="42.1852566" lon="14.1967891"><ele>524.0</ele><time>2026-05-01T11:20:28.434Z</time></trkpt><trkpt lat="42.185265" lon="14.1969055"><ele>526.0</ele><time>2026-05-01T11:20:29.434Z</time></trkpt><trkpt lat="42.1852749" lon="14.1970302"><ele>528.0</ele><time>2026-05-01T11:20:30.434Z</time></trkpt><trkpt lat="42.1852872" lon="14.1971705"><ele>530.0</ele><time>2026-05-01T11:20:31.434Z</time></trkpt><trkpt lat="42.1853036" lon="14.1973107"><ele>532.0</ele><time>2026-05-01T11:20:32.434Z</time></trkpt><trkpt lat="42.1853192" lon="14.1974453"><ele>534.5</ele><time>2026-05-01T11:20:33.434Z</time></trkpt><trkpt lat="42.1853353" lon="14.1975926"><ele>537.0</ele><time>2026-05-01T11:20:34.434Z</time></trkpt><trkpt lat="42.1853493" lon="14.1977654"><ele>539.5</ele><time>2026-05-01T11:20:35.434Z</time></trkpt><trkpt lat="42.1853582" lon="14.1979282"><ele>542.0</ele><time>2026-05-01T11:20:36.434Z</time></trkpt><trkpt lat="42.1853655" lon="14.19807"><ele>544.25</ele><time>2026-05-01T11:20:37.434Z</time></trkpt><trkpt lat="42.1853882" lon="14.1982068"><ele>546.5</ele><time>2026-05-01T11:20:38.434Z</time></trkpt><trkpt lat="42.1854239" lon="14.1983424"><ele>548.75</ele><time>2026-05-01T11:20:39.434Z</time></trkpt><trkpt lat="42.1854734" lon="14.1985013"><ele>551.0</ele><time>2026-05-01T11:20:40.434Z</time></trkpt><trkpt lat="42.1855208" lon="14.1986775"><ele>551.0</ele><time>2026-05-01T11:20:41.434Z</time></trkpt><trkpt lat="42.1855629" lon="14.1988518"><ele>551.0</ele><time>2026-05-01T11:20:42.435Z</time></trkpt><trkpt lat="42.1856152" lon="14.1990207"><ele>551.0</ele><time>2026-05-01T11:20:43.433Z</time></trkpt><trkpt lat="42.1856704" lon="14.1991884"><ele>551.0</ele><time>2026-05-01T11:20:44.435Z</time></trkpt><trkpt lat="42.1857203" lon="14.1993581"><ele>551.0</ele><time>2026-05-01T11:20:45.434Z</time></trkpt><trkpt lat="42.1857634" lon="14.1994935"><ele>551.0</ele><time>2026-05-01T11:20:46.434Z</time></trkpt><trkpt lat="42.1858091" lon="14.1996207"><ele>551.0</ele><time>2026-05-01T11:20:47.434Z</time></trkpt><trkpt lat="42.1858379" lon="14.1997083"><ele>551.0</ele><time>2026-05-01T11:20:48.434Z</time></trkpt><trkpt lat="42.1858906" lon="14.1998767"><ele>551.0</ele><time>2026-05-01T11:20:50.435Z</time></trkpt><trkpt lat="42.1859205" lon="14.1999961"><ele>551.0</ele><time>2026-05-01T11:20:51.434Z</time></trkpt><trkpt lat="42.1859447" lon="14.2001133"><ele>551.0</ele><time>2026-05-01T11:20:52.433Z</time></trkpt><trkpt lat="42.1859675" lon="14.2002328"><ele>551.0</ele><time>2026-05-01T11:20:53.434Z</time></trkpt><trkpt lat="42.1859857" lon="14.2003367"><ele>551.0</ele><time>2026-05-01T11:20:54.434Z</time></trkpt><trkpt lat="42.1860023" lon="14.2004347"><ele>551.0</ele><time>2026-05-01T11:20:55.434Z</time></trkpt><trkpt lat="42.1860325" lon="14.2005725"><ele>551.0</ele><time>2026-05-01T11:20:57.434Z</time></trkpt><trkpt lat="42.1860603" lon="14.2007195"><ele>550.1666666666666</ele><time>2026-05-01T11:20:59.434Z</time></trkpt><trkpt lat="42.1860733" lon="14.2008098"><ele>549.3333333333333</ele><time>2026-05-01T11:21:00.435Z</time></trkpt><trkpt lat="42.1860899" lon="14.2009062"><ele>548.5</ele><time>2026-05-01T11:21:01.434Z</time></trkpt><trkpt lat="42.1861117" lon="14.2010182"><ele>547.6666666666666</ele><time>2026-05-01T11:21:02.434Z</time></trkpt><trkpt lat="42.1861395" lon="14.2011411"><ele>546.8333333333334</ele><time>2026-05-01T11:21:03.433Z</time></trkpt><trkpt lat="42.1861731" lon="14.2012677"><ele>546.0</ele><time>2026-05-01T11:21:04.433Z</time></trkpt><trkpt lat="42.1862228" lon="14.2013983"><ele>545.5</ele><time>2026-05-01T11:21:05.433Z</time></trkpt><trkpt lat="42.1862826" lon="14.2015267"><ele>545.0</ele><time>2026-05-01T11:21:06.433Z</time></trkpt><trkpt lat="42.186355" lon="14.2016499"><ele>544.5</ele><time>2026-05-01T11:21:07.434Z</time></trkpt><trkpt lat="42.1864438" lon="14.2017708"><ele>544.0</ele><time>2026-05-01T11:21:08.434Z</time></trkpt><trkpt lat="42.1865592" lon="14.2019219"><ele>544.0</ele><time>2026-05-01T11:21:09.433Z</time></trkpt><trkpt lat="42.1867031" lon="14.202097"><ele>544.0</ele><time>2026-05-01T11:21:10.433Z</time></trkpt><trkpt lat="42.1868376" lon="14.2022598"><ele>544.0</ele><time>2026-05-01T11:21:11.433Z</time></trkpt><trkpt lat="42.1869688" lon="14.2024197"><ele>544.0</ele><time>2026-05-01T11:21:12.435Z</time></trkpt><trkpt lat="42.1871022" lon="14.2025835"><ele>544.0</ele><time>2026-05-01T11:21:13.434Z</time></trkpt><trkpt lat="42.187241" lon="14.2027523"><ele>544.0</ele><time>2026-05-01T11:21:14.434Z</time></trkpt><trkpt lat="42.1873846" lon="14.2029301"><ele>544.0</ele><time>2026-05-01T11:21:15.433Z</time></trkpt><trkpt lat="42.1875152" lon="14.2030882"><ele>544.0</ele><time>2026-05-01T11:21:16.434Z</time></trkpt><trkpt lat="42.1876383" lon="14.2032438"><ele>544.0</ele><time>2026-05-01T11:21:17.435Z</time></trkpt><trkpt lat="42.187755" lon="14.2033886"><ele>545.3333333333334</ele><time>2026-05-01T11:21:18.434Z</time></trkpt><trkpt lat="42.1878674" lon="14.2035333"><ele>546.6666666666666</ele><time>2026-05-01T11:21:19.434Z</time></trkpt><trkpt lat="42.1879816" lon="14.203676"><ele>548.0</ele><time>2026-05-01T11:21:20.433Z</time></trkpt><trkpt lat="42.1880935" lon="14.2038086"><ele>549.5</ele><time>2026-05-01T11:21:21.433Z</time></trkpt><trkpt lat="42.1881936" lon="14.2039256"><ele>551.0</ele><time>2026-05-01T11:21:22.434Z</time></trkpt><trkpt lat="42.1882876" lon="14.2040498"><ele>552.5</ele><time>2026-05-01T11:21:23.435Z</time></trkpt><trkpt lat="42.1883779" lon="14.2041851"><ele>554.0</ele><time>2026-05-01T11:21:24.434Z</time></trkpt><trkpt lat="42.1884532" lon="14.2043465"><ele>554.0</ele><time>2026-05-01T11:21:25.433Z</time></trkpt><trkpt lat="42.188526" lon="14.2045272"><ele>554.0</ele><time>2026-05-01T11:21:26.434Z</time></trkpt><trkpt lat="42.1886037" lon="14.2047336"><ele>554.0</ele><time>2026-05-01T11:21:27.433Z</time></trkpt><trkpt lat="42.1886832" lon="14.2049684"><ele>552.3333333333333</ele><time>2026-05-01T11:21:28.434Z</time></trkpt><trkpt lat="42.1887506" lon="14.2051844"><ele>550.6666666666666</ele><time>2026-05-01T11:21:29.434Z</time></trkpt><trkpt lat="42.188812" lon="14.2053814"><ele>549.0</ele><time>2026-05-01T11:21:30.434Z</time></trkpt><trkpt lat="42.1888808" lon="14.2055589"><ele>548.3333333333334</ele><time>2026-05-01T11:21:31.435Z</time></trkpt><trkpt lat="42.1889725" lon="14.2057088"><ele>547.6666666666667</ele><time>2026-05-01T11:21:32.435Z</time></trkpt><trkpt lat="42.1890715" lon="14.2058565"><ele>547.0</ele><time>2026-05-01T11:21:33.434Z</time></trkpt><trkpt lat="42.1892262" lon="14.2059398"><ele>549.25</ele><time>2026-05-01T11:21:34.434Z</time></trkpt><trkpt lat="42.1893398" lon="14.2060455"><ele>551.5</ele><time>2026-05-01T11:21:35.435Z</time></trkpt><trkpt lat="42.1894256" lon="14.2061837"><ele>553.75</ele><time>2026-05-01T11:21:36.434Z</time></trkpt><trkpt lat="42.1895238" lon="14.2063134"><ele>556.0</ele><time>2026-05-01T11:21:37.434Z</time></trkpt><trkpt lat="42.1895827" lon="14.2064889"><ele>558.25</ele><time>2026-05-01T11:21:38.433Z</time></trkpt><trkpt lat="42.1896586" lon="14.2066497"><ele>560.5</ele><time>2026-05-01T11:21:39.434Z</time></trkpt><trkpt lat="42.1897204" lon="14.2068056"><ele>562.75</ele><time>2026-05-01T11:21:40.434Z</time></trkpt><trkpt lat="42.1897702" lon="14.2069624"><ele>565.0</ele><time>2026-05-01T11:21:41.434Z</time></trkpt><trkpt lat="42.1898012" lon="14.207123"><ele>565.0</ele><time>2026-05-01T11:21:42.434Z</time></trkpt><trkpt lat="42.1898084" lon="14.2072816"><ele>565.0</ele><time>2026-05-01T11:21:43.434Z</time></trkpt><trkpt lat="42.1897805" lon="14.2074524"><ele>565.0</ele><time>2026-05-01T11:21:44.433Z</time></trkpt><trkpt lat="42.1897393" lon="14.2076225"><ele>565.0</ele><time>2026-05-01T11:21:45.433Z</time></trkpt><trkpt lat="42.1896987" lon="14.2077576"><ele>566.0</ele><time>2026-05-01T11:21:46.434Z</time></trkpt><trkpt lat="42.1896586" lon="14.2078863"><ele>567.0</ele><time>2026-05-01T11:21:47.433Z</time></trkpt><trkpt lat="42.1896224" lon="14.2080063"><ele>568.0</ele><time>2026-05-01T11:21:48.433Z</time></trkpt><trkpt lat="42.1895889" lon="14.2081104"><ele>569.0</ele><time>2026-05-01T11:21:49.434Z</time></trkpt><trkpt lat="42.1895548" lon="14.2082231"><ele>570.0</ele><time>2026-05-01T11:21:50.434Z</time></trkpt><trkpt lat="42.1895204" lon="14.208325"><ele>570.1666666666666</ele><time>2026-05-01T11:21:51.434Z</time></trkpt><trkpt lat="42.1894908" lon="14.2084165"><ele>570.3333333333334</ele><time>2026-05-01T11:21:52.434Z</time></trkpt><trkpt lat="42.189435" lon="14.2085597"><ele>570.5</ele><time>2026-05-01T11:21:54.433Z</time></trkpt><trkpt lat="42.1893987" lon="14.2086368"><ele>570.6666666666667</ele><time>2026-05-01T11:21:55.433Z</time></trkpt><trkpt lat="42.1893643" lon="14.2087298"><ele>570.8333333333334</ele><time>2026-05-01T11:21:56.434Z</time></trkpt><trkpt lat="42.1893315" lon="14.2088246"><ele>571.0</ele><time>2026-05-01T11:21:57.434Z</time></trkpt><trkpt lat="42.1892993" lon="14.2089299"><ele>570.2</ele><time>2026-05-01T11:21:58.435Z</time></trkpt><trkpt lat="42.1892624" lon="14.209042"><ele>569.4000000000001</ele><time>2026-05-01T11:21:59.435Z</time></trkpt><trkpt lat="42.1892277" lon="14.2091502"><ele>568.6</ele><time>2026-05-01T11:22:00.434Z</time></trkpt><trkpt lat="42.1892047" lon="14.2092406"><ele>567.8000000000001</ele><time>2026-05-01T11:22:01.433Z</time></trkpt><trkpt lat="42.1892074" lon="14.2093817"><ele>567.0</ele><time>2026-05-01T11:22:03.434Z</time></trkpt><trkpt lat="42.1892971" lon="14.2094327"><ele>567.0</ele><time>2026-05-01T11:22:05.433Z</time></trkpt><trkpt lat="42.1893592" lon="14.2094128"><ele>567.0</ele><time>2026-05-01T11:22:06.434Z</time></trkpt><trkpt lat="42.1894112" lon="14.2093469"><ele>567.0</ele><time>2026-05-01T11:22:07.434Z</time></trkpt><trkpt lat="42.1894543" lon="14.2092316"><ele>567.0</ele><time>2026-05-01T11:22:08.434Z</time></trkpt><trkpt lat="42.1895004" lon="14.2090855"><ele>567.0</ele><time>2026-05-01T11:22:09.434Z</time></trkpt><trkpt lat="42.1895595" lon="14.2089521"><ele>568.0</ele><time>2026-05-01T11:22:10.434Z</time></trkpt><trkpt lat="42.1896351" lon="14.2088256"><ele>569.0</ele><time>2026-05-01T11:22:11.433Z</time></trkpt><trkpt lat="42.1897117" lon="14.2087155"><ele>570.0</ele><time>2026-05-01T11:22:12.434Z</time></trkpt><trkpt lat="42.1897792" lon="14.2086033"><ele>571.0</ele><time>2026-05-01T11:22:13.433Z</time></trkpt><trkpt lat="42.1898363" lon="14.2084428"><ele>567.3333333333334</ele><time>2026-05-01T11:22:14.435Z</time></trkpt><trkpt lat="42.1899041" lon="14.208229"><ele>563.6666666666666</ele><time>2026-05-01T11:22:15.434Z</time></trkpt><trkpt lat="42.1899945" lon="14.2079959"><ele>560.0</ele><time>2026-05-01T11:22:16.434Z</time></trkpt><trkpt lat="42.1900869" lon="14.2077794"><ele>560.0</ele><time>2026-05-01T11:22:17.434Z</time></trkpt><trkpt lat="42.1901625" lon="14.2076211"><ele>560.0</ele><time>2026-05-01T11:22:18.433Z</time></trkpt><trkpt lat="42.1902124" lon="14.2074332"><ele>560.0</ele><time>2026-05-01T11:22:19.433Z</time></trkpt><trkpt lat="42.1902277" lon="14.2072726"><ele>560.0</ele><time>2026-05-01T11:22:20.433Z</time></trkpt><trkpt lat="42.1902131" lon="14.2071094"><ele>558.3333333333333</ele><time>2026-05-01T11:22:21.433Z</time></trkpt><trkpt lat="42.1901574" lon="14.2069377"><ele>556.6666666666666</ele><time>2026-05-01T11:22:22.433Z</time></trkpt><trkpt lat="42.1900785" lon="14.2067454"><ele>555.0</ele><time>2026-05-01T11:22:23.433Z</time></trkpt><trkpt lat="42.1899733" lon="14.2064963"><ele>555.3333333333334</ele><time>2026-05-01T11:22:24.433Z</time></trkpt><trkpt lat="42.1898749" lon="14.2062762"><ele>555.6666666666667</ele><time>2026-05-01T11:22:25.432Z</time></trkpt><trkpt lat="42.1897851" lon="14.2061083"><ele>556.0</ele><time>2026-05-01T11:22:26.432Z</time></trkpt><trkpt lat="42.1897162" lon="14.2059704"><ele>556.0</ele><time>2026-05-01T11:22:27.432Z</time></trkpt><trkpt lat="42.1896691" lon="14.2058683"><ele>556.0</ele><time>2026-05-01T11:22:28.433Z</time></trkpt><trkpt lat="42.1896409" lon="14.2057829"><ele>556.0</ele><time>2026-05-01T11:22:29.433Z</time></trkpt><trkpt lat="42.1896823" lon="14.2056718"><ele>556.0</ele><time>2026-05-01T11:22:31.433Z</time></trkpt><trkpt lat="42.1897547" lon="14.2056583"><ele>556.0</ele><time>2026-05-01T11:22:32.432Z</time></trkpt><trkpt lat="42.1898578" lon="14.2056707"><ele>556.0</ele><time>2026-05-01T11:22:33.432Z</time></trkpt><trkpt lat="42.1899821" lon="14.2057271"><ele>552.75</ele><time>2026-05-01T11:22:34.432Z</time></trkpt><trkpt lat="42.1901044" lon="14.2058182"><ele>549.5</ele><time>2026-05-01T11:22:35.433Z</time></trkpt><trkpt lat="42.1901997" lon="14.2059419"><ele>546.25</ele><time>2026-05-01T11:22:36.433Z</time></trkpt><trkpt lat="42.190283" lon="14.2061005"><ele>543.0</ele><time>2026-05-01T11:22:37.432Z</time></trkpt><trkpt lat="42.1903667" lon="14.2063169"><ele>547.0</ele><time>2026-05-01T11:22:38.432Z</time></trkpt><trkpt lat="42.1904382" lon="14.2065737"><ele>551.0</ele><time>2026-05-01T11:22:39.433Z</time></trkpt><trkpt lat="42.1904927" lon="14.2068463"><ele>555.0</ele><time>2026-05-01T11:22:40.433Z</time></trkpt><trkpt lat="42.1905235" lon="14.2071053"><ele>556.6666666666666</ele><time>2026-05-01T11:22:41.433Z</time></trkpt><trkpt lat="42.1905413" lon="14.2073414"><ele>558.3333333333333</ele><time>2026-05-01T11:22:42.434Z</time></trkpt><trkpt lat="42.1905517" lon="14.2075381"><ele>560.0</ele><time>2026-05-01T11:22:43.434Z</time></trkpt><trkpt lat="42.1905571" lon="14.2077161"><ele>560.0</ele><time>2026-05-01T11:22:44.433Z</time></trkpt><trkpt lat="42.190562" lon="14.2078563"><ele>560.0</ele><time>2026-05-01T11:22:45.433Z</time></trkpt><trkpt lat="42.1905678" lon="14.2079652"><ele>560.0</ele><time>2026-05-01T11:22:46.434Z</time></trkpt><trkpt lat="42.1906082" lon="14.2080485"><ele>560.0</ele><time>2026-05-01T11:22:47.433Z</time></trkpt><trkpt lat="42.1906714" lon="14.2080916"><ele>560.0</ele><time>2026-05-01T11:22:48.433Z</time></trkpt><trkpt lat="42.1907329" lon="14.208128"><ele>560.0</ele><time>2026-05-01T11:22:49.434Z</time></trkpt><trkpt lat="42.190856" lon="14.2081597"><ele>551.3333333333333</ele><time>2026-05-01T11:22:50.432Z</time></trkpt><trkpt lat="42.1910812" lon="14.2081648"><ele>542.6666666666666</ele><time>2026-05-01T11:22:51.434Z</time></trkpt><trkpt lat="42.1912615" lon="14.2081775"><ele>534.0</ele><time>2026-05-01T11:22:52.433Z</time></trkpt><trkpt lat="42.1914397" lon="14.2081829"><ele>531.75</ele><time>2026-05-01T11:22:53.432Z</time></trkpt><trkpt lat="42.1916012" lon="14.2081815"><ele>529.5</ele><time>2026-05-01T11:22:54.433Z</time></trkpt><trkpt lat="42.1917498" lon="14.2081826"><ele>527.25</ele><time>2026-05-01T11:22:55.434Z</time></trkpt><trkpt lat="42.1918832" lon="14.2081856"><ele>525.0</ele><time>2026-05-01T11:22:56.433Z</time></trkpt><trkpt lat="42.1920059" lon="14.2081906"><ele>525.0</ele><time>2026-05-01T11:22:57.434Z</time></trkpt><trkpt lat="42.1921458" lon="14.2081842"><ele>525.0</ele><time>2026-05-01T11:22:58.432Z</time></trkpt><trkpt lat="42.1922884" lon="14.2081646"><ele>525.0</ele><time>2026-05-01T11:22:59.433Z</time></trkpt><trkpt lat="42.1924211" lon="14.208142"><ele>525.0</ele><time>2026-05-01T11:23:00.433Z</time></trkpt><trkpt lat="42.1925492" lon="14.2081164"><ele>521.75</ele><time>2026-05-01T11:23:01.432Z</time></trkpt><trkpt lat="42.1926725" lon="14.2080796"><ele>518.5</ele><time>2026-05-01T11:23:02.432Z</time></trkpt><trkpt lat="42.1928014" lon="14.2080536"><ele>515.25</ele><time>2026-05-01T11:23:03.434Z</time></trkpt><trkpt lat="42.1929261" lon="14.2080256"><ele>512.0</ele><time>2026-05-01T11:23:04.434Z</time></trkpt><trkpt lat="42.1930432" lon="14.2080154"><ele>509.3333333333333</ele><time>2026-05-01T11:23:05.433Z</time></trkpt><trkpt lat="42.1931816" lon="14.2080041"><ele>506.66666666666663</ele><time>2026-05-01T11:23:06.433Z</time></trkpt><trkpt lat="42.1933368" lon="14.2080102"><ele>504.0</ele><time>2026-05-01T11:23:07.434Z</time></trkpt><trkpt lat="42.1935037" lon="14.2080243"><ele>504.0</ele><time>2026-05-01T11:23:08.433Z</time></trkpt><trkpt lat="42.1936616" lon="14.2080434"><ele>504.0</ele><time>2026-05-01T11:23:09.433Z</time></trkpt><trkpt lat="42.1938246" lon="14.2080627"><ele>504.0</ele><time>2026-05-01T11:23:10.433Z</time></trkpt><trkpt lat="42.1939753" lon="14.2080945"><ele>501.75</ele><time>2026-05-01T11:23:11.433Z</time></trkpt><trkpt lat="42.1941155" lon="14.2081439"><ele>499.5</ele><time>2026-05-01T11:23:12.433Z</time></trkpt><trkpt lat="42.1942503" lon="14.2082061"><ele>497.25</ele><time>2026-05-01T11:23:13.433Z</time></trkpt><trkpt lat="42.1943761" lon="14.2082819"><ele>495.0</ele><time>2026-05-01T11:23:14.433Z</time></trkpt><trkpt lat="42.1945008" lon="14.2084011"><ele>495.0</ele><time>2026-05-01T11:23:15.433Z</time></trkpt><trkpt lat="42.1946317" lon="14.2085346"><ele>495.0</ele><time>2026-05-01T11:23:16.433Z</time></trkpt><trkpt lat="42.1947419" lon="14.2086634"><ele>495.0</ele><time>2026-05-01T11:23:17.433Z</time></trkpt><trkpt lat="42.1948319" lon="14.2087762"><ele>495.0</ele><time>2026-05-01T11:23:18.432Z</time></trkpt><trkpt lat="42.1949108" lon="14.2088747"><ele>492.0</ele><time>2026-05-01T11:23:19.433Z</time></trkpt><trkpt lat="42.1949849" lon="14.2089392"><ele>489.0</ele><time>2026-05-01T11:23:20.432Z</time></trkpt><trkpt lat="42.1950642" lon="14.208954"><ele>486.0</ele><time>2026-05-01T11:23:21.433Z</time></trkpt><trkpt lat="42.1951589" lon="14.2089273"><ele>483.0</ele><time>2026-05-01T11:23:22.433Z</time></trkpt><trkpt lat="42.1952803" lon="14.2088568"><ele>480.0</ele><time>2026-05-01T11:23:23.432Z</time></trkpt><trkpt lat="42.195433" lon="14.2087513"><ele>480.0</ele><time>2026-05-01T11:23:24.432Z</time></trkpt><trkpt lat="42.1955577" lon="14.208644"><ele>480.0</ele><time>2026-05-01T11:23:25.433Z</time></trkpt><trkpt lat="42.1956773" lon="14.2085339"><ele>480.0</ele><time>2026-05-01T11:23:26.433Z</time></trkpt><trkpt lat="42.1957802" lon="14.2084368"><ele>480.0</ele><time>2026-05-01T11:23:27.433Z</time></trkpt><trkpt lat="42.1958727" lon="14.2083602"><ele>478.8</ele><time>2026-05-01T11:23:28.434Z</time></trkpt><trkpt lat="42.1959713" lon="14.208316"><ele>477.6</ele><time>2026-05-01T11:23:29.433Z</time></trkpt><trkpt lat="42.1960768" lon="14.2083154"><ele>476.4</ele><time>2026-05-01T11:23:30.432Z</time></trkpt><trkpt lat="42.1961879" lon="14.2083285"><ele>475.2</ele><time>2026-05-01T11:23:31.433Z</time></trkpt><trkpt lat="42.1963012" lon="14.208313"><ele>474.0</ele><time>2026-05-01T11:23:32.433Z</time></trkpt><trkpt lat="42.1964294" lon="14.2082843"><ele>470.75</ele><time>2026-05-01T11:23:33.434Z</time></trkpt><trkpt lat="42.1965823" lon="14.2082368"><ele>467.5</ele><time>2026-05-01T11:23:34.433Z</time></trkpt><trkpt lat="42.1967231" lon="14.20819"><ele>464.25</ele><time>2026-05-01T11:23:35.433Z</time></trkpt><trkpt lat="42.1968577" lon="14.2081239"><ele>461.0</ele><time>2026-05-01T11:23:36.433Z</time></trkpt><trkpt lat="42.1969863" lon="14.2080731"><ele>459.0</ele><time>2026-05-01T11:23:37.433Z</time></trkpt><trkpt lat="42.1971178" lon="14.2080189"><ele>457.0</ele><time>2026-05-01T11:23:38.434Z</time></trkpt><trkpt lat="42.1972222" lon="14.2080295"><ele>455.0</ele><time>2026-05-01T11:23:39.433Z</time></trkpt><trkpt lat="42.1973247" lon="14.2080489"><ele>453.0</ele><time>2026-05-01T11:23:40.433Z</time></trkpt><trkpt lat="42.1974335" lon="14.2080878"><ele>451.66666666666663</ele><time>2026-05-01T11:23:41.433Z</time></trkpt><trkpt lat="42.1975476" lon="14.2081466"><ele>450.3333333333333</ele><time>2026-05-01T11:23:42.433Z</time></trkpt><trkpt lat="42.1976916" lon="14.2081991"><ele>449.0</ele><time>2026-05-01T11:23:43.434Z</time></trkpt><trkpt lat="42.1978696" lon="14.2082727"><ele>449.0</ele><time>2026-05-01T11:23:44.433Z</time></trkpt><trkpt lat="42.1980303" lon="14.2083247"><ele>449.0</ele><time>2026-05-01T11:23:45.433Z</time></trkpt><trkpt lat="42.1981702" lon="14.2083677"><ele>449.0</ele><time>2026-05-01T11:23:46.432Z</time></trkpt><trkpt lat="42.1983262" lon="14.2084189"><ele>445.25</ele><time>2026-05-01T11:23:47.432Z</time></trkpt><trkpt lat="42.1984794" lon="14.2084389"><ele>441.5</ele><time>2026-05-01T11:23:48.433Z</time></trkpt><trkpt lat="42.1986294" lon="14.2084378"><ele>437.75</ele><time>2026-05-01T11:23:49.433Z</time></trkpt><trkpt lat="42.1987727" lon="14.2084507"><ele>434.0</ele><time>2026-05-01T11:23:50.433Z</time></trkpt><trkpt lat="42.1988539" lon="14.2084657"><ele>434.0</ele><time>2026-05-01T11:23:51.432Z</time></trkpt><trkpt lat="42.198962" lon="14.2084767"><ele>434.0</ele><time>2026-05-01T11:23:52.434Z</time></trkpt><trkpt lat="42.1990353" lon="14.2084562"><ele>434.0</ele><time>2026-05-01T11:23:53.432Z</time></trkpt><trkpt lat="42.1990588" lon="14.2083082"><ele>434.0</ele><time>2026-05-01T11:23:55.434Z</time></trkpt><trkpt lat="42.1990485" lon="14.2082029"><ele>434.0</ele><time>2026-05-01T11:23:56.433Z</time></trkpt><trkpt lat="42.199018" lon="14.2080949"><ele>431.6</ele><time>2026-05-01T11:23:57.433Z</time></trkpt><trkpt lat="42.1989836" lon="14.207973"><ele>429.2</ele><time>2026-05-01T11:23:58.433Z</time></trkpt><trkpt lat="42.1989628" lon="14.2078507"><ele>426.8</ele><time>2026-05-01T11:23:59.434Z</time></trkpt><trkpt lat="42.1989596" lon="14.2077194"><ele>424.40000000000003</ele><time>2026-05-01T11:24:00.433Z</time></trkpt><trkpt lat="42.1989739" lon="14.2075957"><ele>422.0</ele><time>2026-05-01T11:24:01.433Z</time></trkpt><trkpt lat="42.1990174" lon="14.2074507"><ele>421.6</ele><time>2026-05-01T11:24:02.433Z</time></trkpt><trkpt lat="42.19908" lon="14.2073177"><ele>421.20000000000005</ele><time>2026-05-01T11:24:03.433Z</time></trkpt><trkpt lat="42.1991436" lon="14.207205"><ele>420.8</ele><time>2026-05-01T11:24:04.432Z</time></trkpt><trkpt lat="42.1992037" lon="14.2071074"><ele>420.4</ele><time>2026-05-01T11:24:05.432Z</time></trkpt><trkpt lat="42.1992612" lon="14.2070336"><ele>420.0</ele><time>2026-05-01T11:24:06.434Z</time></trkpt><trkpt lat="42.19932" lon="14.2069821"><ele>420.0</ele><time>2026-05-01T11:24:07.432Z</time></trkpt><trkpt lat="42.199446" lon="14.206951"><ele>420.0</ele><time>2026-05-01T11:24:09.433Z</time></trkpt><trkpt lat="42.1995294" lon="14.2069597"><ele>420.0</ele><time>2026-05-01T11:24:10.433Z</time></trkpt><trkpt lat="42.1996167" lon="14.2069783"><ele>420.0</ele><time>2026-05-01T11:24:11.433Z</time></trkpt><trkpt lat="42.1997136" lon="14.2070139"><ele>420.0</ele><time>2026-05-01T11:24:12.433Z</time></trkpt><trkpt lat="42.1998027" lon="14.2070709"><ele>421.6</ele><time>2026-05-01T11:24:13.434Z</time></trkpt><trkpt lat="42.1998898" lon="14.2071233"><ele>423.2</ele><time>2026-05-01T11:24:14.433Z</time></trkpt><trkpt lat="42.1999706" lon="14.2071998"><ele>424.79999999999995</ele><time>2026-05-01T11:24:15.433Z</time></trkpt><trkpt lat="42.2000371" lon="14.2072316"><ele>426.4</ele><time>2026-05-01T11:24:16.433Z</time></trkpt><trkpt lat="42.2001491" lon="14.2072534"><ele>428.0</ele><time>2026-05-01T11:24:18.434Z</time></trkpt><trkpt lat="42.2002524" lon="14.2072885"><ele>427.49999999999994</ele><time>2026-05-01T11:24:20.433Z</time></trkpt><trkpt lat="42.2003689" lon="14.2073332"><ele>427.0</ele><time>2026-05-01T11:24:22.432Z</time></trkpt><trkpt lat="42.2004351" lon="14.2073429"><ele>426.5</ele><time>2026-05-01T11:24:23.433Z</time></trkpt><trkpt lat="42.2004994" lon="14.207349"><ele>426.0</ele><time>2026-05-01T11:24:24.433Z</time></trkpt><trkpt lat="42.2006081" lon="14.2073506"><ele>425.49999999999994</ele><time>2026-05-01T11:24:26.433Z</time></trkpt><trkpt lat="42.2006523" lon="14.2074278"><ele>425.0</ele><time>2026-05-01T11:24:28.433Z</time></trkpt><trkpt lat="42.2006684" lon="14.2075833"><ele>424.99999999999994</ele><time>2026-05-01T11:24:30.433Z</time></trkpt><trkpt lat="42.2006736" lon="14.207709"><ele>425.0</ele><time>2026-05-01T11:24:32.433Z</time></trkpt><trkpt lat="42.2007095" lon="14.207802"><ele>425.0</ele><time>2026-05-01T11:24:36.433Z</time></trkpt><trkpt lat="42.2007705" lon="14.2078431"><ele>425.0</ele><time>2026-05-01T11:24:51.434Z</time></trkpt><trkpt lat="42.2008382" lon="14.2078259"><ele>424.99999999999994</ele><time>2026-05-01T11:24:53.433Z</time></trkpt><trkpt lat="42.2007327" lon="14.2078189"><ele>425.0</ele><time>2026-05-01T11:25:01.432Z</time></trkpt><trkpt lat="42.2006129" lon="14.2078464"><ele>423.8</ele><time>2026-05-01T11:25:03.433Z</time></trkpt><trkpt lat="42.2005379" lon="14.2079128"><ele>422.6</ele><time>2026-05-01T11:25:05.433Z</time></trkpt><trkpt lat="42.2005172" lon="14.2080047"><ele>421.4</ele><time>2026-05-01T11:25:07.433Z</time></trkpt><trkpt lat="42.2005918" lon="14.2081418"><ele>420.2</ele><time>2026-05-01T11:25:08.432Z</time></trkpt><trkpt lat="42.2006339" lon="14.208267"><ele>419.0</ele><time>2026-05-01T11:25:10.431Z</time></trkpt><trkpt lat="42.20064" lon="14.2083616"><ele>417.2</ele><time>2026-05-01T11:25:11.432Z</time></trkpt><trkpt lat="42.2006206" lon="14.2084908"><ele>415.4</ele><time>2026-05-01T11:25:12.432Z</time></trkpt><trkpt lat="42.2006169" lon="14.2086179"><ele>413.6</ele><time>2026-05-01T11:25:13.432Z</time></trkpt><trkpt lat="42.2006179" lon="14.2087525"><ele>411.8</ele><time>2026-05-01T11:25:14.432Z</time></trkpt><trkpt lat="42.200623" lon="14.2088641"><ele>410.0</ele><time>2026-05-01T11:25:15.432Z</time></trkpt><trkpt lat="42.2006321" lon="14.2089717"><ele>409.49999999999994</ele><time>2026-05-01T11:25:16.431Z</time></trkpt><trkpt lat="42.2006596" lon="14.2090559"><ele>409.0</ele><time>2026-05-01T11:25:17.431Z</time></trkpt><trkpt lat="42.2006799" lon="14.2091518"><ele>408.5</ele><time>2026-05-01T11:25:18.432Z</time></trkpt><trkpt lat="42.2006847" lon="14.2092425"><ele>408.0</ele><time>2026-05-01T11:25:19.432Z</time></trkpt><trkpt lat="42.2007122" lon="14.2093815"><ele>407.49999999999994</ele><time>2026-05-01T11:25:21.432Z</time></trkpt><trkpt lat="42.2007891" lon="14.2094937"><ele>407.0</ele><time>2026-05-01T11:25:23.432Z</time></trkpt><trkpt lat="42.2008723" lon="14.2094769"><ele>408.8</ele><time>2026-05-01T11:25:24.432Z</time></trkpt><trkpt lat="42.2009717" lon="14.2094398"><ele>410.6</ele><time>2026-05-01T11:25:25.432Z</time></trkpt><trkpt lat="42.2010872" lon="14.2094233"><ele>412.40000000000003</ele><time>2026-05-01T11:25:26.431Z</time></trkpt><trkpt lat="42.2011713" lon="14.2094102"><ele>414.20000000000005</ele><time>2026-05-01T11:25:27.432Z</time></trkpt><trkpt lat="42.2012619" lon="14.2094033"><ele>416.0</ele><time>2026-05-01T11:25:28.433Z</time></trkpt><trkpt lat="42.2013676" lon="14.209423"><ele>416.0</ele><time>2026-05-01T11:25:29.433Z</time></trkpt><trkpt lat="42.2014748" lon="14.2094574"><ele>416.0</ele><time>2026-05-01T11:25:30.432Z</time></trkpt><trkpt lat="42.2015659" lon="14.2094587"><ele>416.0</ele><time>2026-05-01T11:25:31.432Z</time></trkpt><trkpt lat="42.2016871" lon="14.2094395"><ele>416.0</ele><time>2026-05-01T11:25:32.432Z</time></trkpt><trkpt lat="42.2018117" lon="14.2094256"><ele>416.0</ele><time>2026-05-01T11:25:33.432Z</time></trkpt><trkpt lat="42.2019251" lon="14.2094037"><ele>415.6</ele><time>2026-05-01T11:25:34.432Z</time></trkpt><trkpt lat="42.2020283" lon="14.2093862"><ele>415.20000000000005</ele><time>2026-05-01T11:25:35.432Z</time></trkpt><trkpt lat="42.2021018" lon="14.2093928"><ele>414.79999999999995</ele><time>2026-05-01T11:25:36.431Z</time></trkpt><trkpt lat="42.2021885" lon="14.2094091"><ele>414.4</ele><time>2026-05-01T11:25:37.431Z</time></trkpt><trkpt lat="42.2022697" lon="14.2094295"><ele>414.0</ele><time>2026-05-01T11:25:38.433Z</time></trkpt><trkpt lat="42.2023747" lon="14.209504"><ele>413.4</ele><time>2026-05-01T11:25:39.432Z</time></trkpt><trkpt lat="42.2024874" lon="14.2095398"><ele>412.79999999999995</ele><time>2026-05-01T11:25:40.432Z</time></trkpt><trkpt lat="42.2025789" lon="14.20957"><ele>412.20000000000005</ele><time>2026-05-01T11:25:41.432Z</time></trkpt><trkpt lat="42.2026562" lon="14.2095919"><ele>411.6</ele><time>2026-05-01T11:25:42.431Z</time></trkpt><trkpt lat="42.2027409" lon="14.2096112"><ele>411.0</ele><time>2026-05-01T11:25:43.431Z</time></trkpt><trkpt lat="42.2028384" lon="14.2096276"><ele>411.0</ele><time>2026-05-01T11:25:44.431Z</time></trkpt><trkpt lat="42.2029292" lon="14.2096731"><ele>411.0</ele><time>2026-05-01T11:25:45.431Z</time></trkpt><trkpt lat="42.2030028" lon="14.209713"><ele>411.0</ele><time>2026-05-01T11:25:46.432Z</time></trkpt><trkpt lat="42.203077" lon="14.2097424"><ele>411.0</ele><time>2026-05-01T11:25:47.433Z</time></trkpt><trkpt lat="42.2031679" lon="14.2097675"><ele>411.0</ele><time>2026-05-01T11:25:48.432Z</time></trkpt><trkpt lat="42.2032646" lon="14.2097946"><ele>411.0</ele><time>2026-05-01T11:25:49.432Z</time></trkpt><trkpt lat="42.2033719" lon="14.2098236"><ele>410.6</ele><time>2026-05-01T11:25:50.432Z</time></trkpt><trkpt lat="42.2034837" lon="14.209822"><ele>410.20000000000005</ele><time>2026-05-01T11:25:51.433Z</time></trkpt><trkpt lat="42.2035813" lon="14.2098313"><ele>409.79999999999995</ele><time>2026-05-01T11:25:52.432Z</time></trkpt><trkpt lat="42.2036518" lon="14.2098465"><ele>409.4</ele><time>2026-05-01T11:25:53.432Z</time></trkpt><trkpt lat="42.2037163" lon="14.2098397"><ele>409.0</ele><time>2026-05-01T11:25:54.432Z</time></trkpt><trkpt lat="42.2038191" lon="14.2097919"><ele>409.0</ele><time>2026-05-01T11:25:56.431Z</time></trkpt><trkpt lat="42.2038932" lon="14.2097261"><ele>409.0</ele><time>2026-05-01T11:25:57.432Z</time></trkpt><trkpt lat="42.2039466" lon="14.2096568"><ele>409.0</ele><time>2026-05-01T11:25:58.432Z</time></trkpt><trkpt lat="42.2040105" lon="14.2095996"><ele>409.0</ele><time>2026-05-01T11:25:59.432Z</time></trkpt><trkpt lat="42.2040782" lon="14.2095621"><ele>409.0</ele><time>2026-05-01T11:26:00.433Z</time></trkpt><trkpt lat="42.2041457" lon="14.209552"><ele>409.0</ele><time>2026-05-01T11:26:01.433Z</time></trkpt><trkpt lat="42.2042122" lon="14.2095571"><ele>409.0</ele><time>2026-05-01T11:26:02.431Z</time></trkpt><trkpt lat="42.2042841" lon="14.209581"><ele>408.33333333333337</ele><time>2026-05-01T11:26:03.432Z</time></trkpt><trkpt lat="42.2043629" lon="14.2096254"><ele>407.6666666666667</ele><time>2026-05-01T11:26:04.433Z</time></trkpt><trkpt lat="42.2044298" lon="14.2096737"><ele>407.0</ele><time>2026-05-01T11:26:05.432Z</time></trkpt><trkpt lat="42.2044985" lon="14.2097417"><ele>406.33333333333337</ele><time>2026-05-01T11:26:06.433Z</time></trkpt><trkpt lat="42.2045671" lon="14.2098124"><ele>405.6666666666667</ele><time>2026-05-01T11:26:07.431Z</time></trkpt><trkpt lat="42.2046401" lon="14.2098843"><ele>405.0</ele><time>2026-05-01T11:26:08.432Z</time></trkpt><trkpt lat="42.2046958" lon="14.2099554"><ele>403.6</ele><time>2026-05-01T11:26:09.432Z</time></trkpt><trkpt lat="42.2047964" lon="14.210076"><ele>402.2</ele><time>2026-05-01T11:26:11.432Z</time></trkpt><trkpt lat="42.2048447" lon="14.2101547"><ele>400.79999999999995</ele><time>2026-05-01T11:26:12.433Z</time></trkpt><trkpt lat="42.2049284" lon="14.2102344"><ele>399.4</ele><time>2026-05-01T11:26:13.432Z</time></trkpt><trkpt lat="42.2050017" lon="14.2103049"><ele>398.0</ele><time>2026-05-01T11:26:14.432Z</time></trkpt><trkpt lat="42.2050613" lon="14.2103549"><ele>398.0</ele><time>2026-05-01T11:26:15.432Z</time></trkpt><trkpt lat="42.2051487" lon="14.2103796"><ele>398.0</ele><time>2026-05-01T11:26:16.432Z</time></trkpt><trkpt lat="42.2052523" lon="14.2103865"><ele>398.0</ele><time>2026-05-01T11:26:17.431Z</time></trkpt><trkpt lat="42.2053552" lon="14.210386"><ele>398.0</ele><time>2026-05-01T11:26:18.431Z</time></trkpt><trkpt lat="42.2054457" lon="14.2104147"><ele>398.0</ele><time>2026-05-01T11:26:19.432Z</time></trkpt><trkpt lat="42.2055173" lon="14.2104601"><ele>398.0</ele><time>2026-05-01T11:26:20.432Z</time></trkpt><trkpt lat="42.2055913" lon="14.2105168"><ele>398.0</ele><time>2026-05-01T11:26:21.432Z</time></trkpt><trkpt lat="42.2056803" lon="14.2105718"><ele>398.0</ele><time>2026-05-01T11:26:22.433Z</time></trkpt><trkpt lat="42.2057596" lon="14.210624"><ele>398.0</ele><time>2026-05-01T11:26:23.431Z</time></trkpt><trkpt lat="42.2058452" lon="14.2107171"><ele>398.0</ele><time>2026-05-01T11:26:24.432Z</time></trkpt><trkpt lat="42.2059196" lon="14.2107852"><ele>394.79999999999995</ele><time>2026-05-01T11:26:25.432Z</time></trkpt><trkpt lat="42.2060033" lon="14.210855"><ele>391.6</ele><time>2026-05-01T11:26:26.433Z</time></trkpt><trkpt lat="42.2060874" lon="14.210895"><ele>388.4</ele><time>2026-05-01T11:26:27.433Z</time></trkpt><trkpt lat="42.2061692" lon="14.2108759"><ele>385.20000000000005</ele><time>2026-05-01T11:26:28.433Z</time></trkpt><trkpt lat="42.2062404" lon="14.2108724"><ele>382.0</ele><time>2026-05-01T11:26:29.431Z</time></trkpt><trkpt lat="42.2063257" lon="14.2107302"><ele>381.8</ele><time>2026-05-01T11:26:31.431Z</time></trkpt><trkpt lat="42.2063777" lon="14.2106538"><ele>381.6</ele><time>2026-05-01T11:26:32.431Z</time></trkpt><trkpt lat="42.2064461" lon="14.2105863"><ele>381.40000000000003</ele><time>2026-05-01T11:26:33.431Z</time></trkpt><trkpt lat="42.2065861" lon="14.2105609"><ele>381.20000000000005</ele><time>2026-05-01T11:26:35.432Z</time></trkpt><trkpt lat="42.2067188" lon="14.2106059"><ele>381.0</ele><time>2026-05-01T11:26:37.432Z</time></trkpt><trkpt lat="42.2068114" lon="14.2106845"><ele>381.0</ele><time>2026-05-01T11:26:38.432Z</time></trkpt><trkpt lat="42.2069008" lon="14.2107708"><ele>381.0</ele><time>2026-05-01T11:26:39.432Z</time></trkpt><trkpt lat="42.2069722" lon="14.2108338"><ele>381.0</ele><time>2026-05-01T11:26:40.431Z</time></trkpt><trkpt lat="42.2070457" lon="14.2109232"><ele>381.0</ele><time>2026-05-01T11:26:41.432Z</time></trkpt><trkpt lat="42.2071068" lon="14.2110171"><ele>381.0</ele><time>2026-05-01T11:26:42.432Z</time></trkpt><trkpt lat="42.207173" lon="14.2110706"><ele>381.0</ele><time>2026-05-01T11:26:43.432Z</time></trkpt><trkpt lat="42.20724" lon="14.2110953"><ele>381.0</ele><time>2026-05-01T11:26:44.432Z</time></trkpt><trkpt lat="42.2073165" lon="14.2111017"><ele>381.0</ele><time>2026-05-01T11:26:45.432Z</time></trkpt><trkpt lat="42.2073774" lon="14.2111346"><ele>381.0</ele><time>2026-05-01T11:26:46.432Z</time></trkpt><trkpt lat="42.2074536" lon="14.2111743"><ele>381.0</ele><time>2026-05-01T11:26:47.431Z</time></trkpt><trkpt lat="42.2075217" lon="14.2111939"><ele>381.0</ele><time>2026-05-01T11:26:48.433Z</time></trkpt><trkpt lat="42.2075987" lon="14.2111984"><ele>381.0</ele><time>2026-05-01T11:26:49.432Z</time></trkpt><trkpt lat="42.2076715" lon="14.2112081"><ele>381.0</ele><time>2026-05-01T11:26:50.432Z</time></trkpt><trkpt lat="42.2077536" lon="14.2112254"><ele>381.0</ele><time>2026-05-01T11:26:51.431Z</time></trkpt><trkpt lat="42.2078372" lon="14.2112425"><ele>381.0</ele><time>2026-05-01T11:26:52.432Z</time></trkpt><trkpt lat="42.2079218" lon="14.2112751"><ele>381.0</ele><time>2026-05-01T11:26:53.431Z</time></trkpt><trkpt lat="42.2080113" lon="14.2113286"><ele>381.0</ele><time>2026-05-01T11:26:54.432Z</time></trkpt><trkpt lat="42.2081" lon="14.2113856"><ele>380.6</ele><time>2026-05-01T11:26:55.432Z</time></trkpt><trkpt lat="42.2082014" lon="14.2114346"><ele>380.20000000000005</ele><time>2026-05-01T11:26:56.432Z</time></trkpt><trkpt lat="42.208299" lon="14.2114812"><ele>379.79999999999995</ele><time>2026-05-01T11:26:57.431Z</time></trkpt><trkpt lat="42.2083814" lon="14.2115334"><ele>379.4</ele><time>2026-05-01T11:26:58.431Z</time></trkpt><trkpt lat="42.2085158" lon="14.2115219"><ele>379.0</ele><time>2026-05-01T11:27:00.432Z</time></trkpt><trkpt lat="42.2086046" lon="14.2115118"><ele>377.66666666666663</ele><time>2026-05-01T11:27:01.433Z</time></trkpt><trkpt lat="42.2086918" lon="14.2115367"><ele>376.3333333333333</ele><time>2026-05-01T11:27:02.433Z</time></trkpt><trkpt lat="42.2087703" lon="14.2115799"><ele>375.0</ele><time>2026-05-01T11:27:03.431Z</time></trkpt><trkpt lat="42.2088367" lon="14.2116281"><ele>373.6666666666667</ele><time>2026-05-01T11:27:04.432Z</time></trkpt><trkpt lat="42.2088961" lon="14.2117092"><ele>372.33333333333337</ele><time>2026-05-01T11:27:05.432Z</time></trkpt><trkpt lat="42.2089436" lon="14.211778"><ele>371.0</ele><time>2026-05-01T11:27:06.432Z</time></trkpt><trkpt lat="42.2089915" lon="14.2118658"><ele>370.8</ele><time>2026-05-01T11:27:07.431Z</time></trkpt><trkpt lat="42.2090662" lon="14.2119503"><ele>370.6</ele><time>2026-05-01T11:27:08.431Z</time></trkpt><trkpt lat="42.209154" lon="14.2120167"><ele>370.4</ele><time>2026-05-01T11:27:09.433Z</time></trkpt><trkpt lat="42.2092478" lon="14.2120645"><ele>370.2</ele><time>2026-05-01T11:27:10.432Z</time></trkpt><trkpt lat="42.2093705" lon="14.2121243"><ele>370.0</ele><time>2026-05-01T11:27:11.432Z</time></trkpt><trkpt lat="42.209477" lon="14.2121833"><ele>370.0</ele><time>2026-05-01T11:27:12.433Z</time></trkpt><trkpt lat="42.2095602" lon="14.2122125"><ele>370.0</ele><time>2026-05-01T11:27:13.432Z</time></trkpt><trkpt lat="42.2096373" lon="14.2122532"><ele>370.0</ele><time>2026-05-01T11:27:14.432Z</time></trkpt><trkpt lat="42.2096984" lon="14.2122808"><ele>370.0</ele><time>2026-05-01T11:27:15.432Z</time></trkpt><trkpt lat="42.209805" lon="14.2122719"><ele>370.0</ele><time>2026-05-01T11:27:17.431Z</time></trkpt><trkpt lat="42.2098662" lon="14.2122386"><ele>370.0</ele><time>2026-05-01T11:27:19.432Z</time></trkpt><trkpt lat="42.2099298" lon="14.212283"><ele>369.2</ele><time>2026-05-01T11:27:22.431Z</time></trkpt><trkpt lat="42.2099061" lon="14.2124772"><ele>368.4</ele><time>2026-05-01T11:27:24.432Z</time></trkpt><trkpt lat="42.2098636" lon="14.2125839"><ele>367.6</ele><time>2026-05-01T11:27:25.432Z</time></trkpt><trkpt lat="42.2098071" lon="14.2126708"><ele>366.8</ele><time>2026-05-01T11:27:26.431Z</time></trkpt><trkpt lat="42.2097268" lon="14.2127386"><ele>366.0</ele><time>2026-05-01T11:27:27.431Z</time></trkpt><trkpt lat="42.2096556" lon="14.2128161"><ele>366.0</ele><time>2026-05-01T11:27:28.431Z</time></trkpt><trkpt lat="42.2096009" lon="14.2129101"><ele>366.0</ele><time>2026-05-01T11:27:29.432Z</time></trkpt><trkpt lat="42.2095739" lon="14.2130242"><ele>366.0</ele><time>2026-05-01T11:27:30.433Z</time></trkpt><trkpt lat="42.2095472" lon="14.2131332"><ele>366.0</ele><time>2026-05-01T11:27:31.432Z</time></trkpt><trkpt lat="42.2096338" lon="14.2132729"><ele>366.0</ele><time>2026-05-01T11:27:32.433Z</time></trkpt><trkpt lat="42.2096917" lon="14.2134012"><ele>365.0</ele><time>2026-05-01T11:27:33.432Z</time></trkpt><trkpt lat="42.2097461" lon="14.2135566"><ele>364.0</ele><time>2026-05-01T11:27:34.432Z</time></trkpt><trkpt lat="42.2097832" lon="14.2137183"><ele>363.0</ele><time>2026-05-01T11:27:35.433Z</time></trkpt><trkpt lat="42.2098158" lon="14.2138851"><ele>362.0</ele><time>2026-05-01T11:27:36.433Z</time></trkpt><trkpt lat="42.2098529" lon="14.2140272"><ele>361.20000000000005</ele><time>2026-05-01T11:27:37.431Z</time></trkpt><trkpt lat="42.2099094" lon="14.2141487"><ele>360.4</ele><time>2026-05-01T11:27:38.431Z</time></trkpt><trkpt lat="42.2099885" lon="14.2142371"><ele>359.6</ele><time>2026-05-01T11:27:39.431Z</time></trkpt><trkpt lat="42.2100835" lon="14.2143193"><ele>358.79999999999995</ele><time>2026-05-01T11:27:40.431Z</time></trkpt><trkpt lat="42.2101618" lon="14.2143993"><ele>358.0</ele><time>2026-05-01T11:27:41.432Z</time></trkpt><trkpt lat="42.2102195" lon="14.2145102"><ele>358.0</ele><time>2026-05-01T11:27:42.432Z</time></trkpt><trkpt lat="42.2102413" lon="14.2146341"><ele>358.0</ele><time>2026-05-01T11:27:43.432Z</time></trkpt><trkpt lat="42.2102413" lon="14.2147479"><ele>358.0</ele><time>2026-05-01T11:27:44.432Z</time></trkpt><trkpt lat="42.2102244" lon="14.2148843"><ele>358.0</ele><time>2026-05-01T11:27:46.432Z</time></trkpt><trkpt lat="42.2101887" lon="14.2149698"><ele>358.0</ele><time>2026-05-01T11:27:48.431Z</time></trkpt><trkpt lat="42.2100975" lon="14.2149616"><ele>358.0</ele><time>2026-05-01T11:27:50.433Z</time></trkpt><trkpt lat="42.209988" lon="14.2149612"><ele>359.5</ele><time>2026-05-01T11:27:52.431Z</time></trkpt><trkpt lat="42.2098523" lon="14.2149582"><ele>361.0</ele><time>2026-05-01T11:27:54.432Z</time></trkpt><trkpt lat="42.2097875" lon="14.2149546"><ele>362.5</ele><time>2026-05-01T11:27:55.431Z</time></trkpt><trkpt lat="42.2097126" lon="14.2149387"><ele>364.0</ele><time>2026-05-01T11:27:56.43Z</time></trkpt><trkpt lat="42.2096328" lon="14.2149234"><ele>365.5</ele><time>2026-05-01T11:27:57.432Z</time></trkpt><trkpt lat="42.2095498" lon="14.2149121"><ele>367.0</ele><time>2026-05-01T11:27:58.431Z</time></trkpt><trkpt lat="42.2094607" lon="14.2149039"><ele>369.20000000000005</ele><time>2026-05-01T11:27:59.431Z</time></trkpt><trkpt lat="42.2093603" lon="14.2149043"><ele>371.4</ele><time>2026-05-01T11:28:00.432Z</time></trkpt><trkpt lat="42.2092747" lon="14.2149039"><ele>373.6</ele><time>2026-05-01T11:28:01.432Z</time></trkpt><trkpt lat="42.2091959" lon="14.2148942"><ele>375.79999999999995</ele><time>2026-05-01T11:28:02.432Z</time></trkpt><trkpt lat="42.2091214" lon="14.2148735"><ele>378.0</ele><time>2026-05-01T11:28:03.431Z</time></trkpt><trkpt lat="42.2089914" lon="14.214819"><ele>379.2</ele><time>2026-05-01T11:28:05.432Z</time></trkpt><trkpt lat="42.2089117" lon="14.2147046"><ele>380.4</ele><time>2026-05-01T11:28:07.431Z</time></trkpt><trkpt lat="42.2088495" lon="14.2145587"><ele>381.59999999999997</ele><time>2026-05-01T11:28:09.432Z</time></trkpt><trkpt lat="42.2088351" lon="14.2144095"><ele>382.79999999999995</ele><time>2026-05-01T11:28:11.431Z</time></trkpt><trkpt lat="42.2088245" lon="14.2143116"><ele>384.0</ele><time>2026-05-01T11:28:12.43Z</time></trkpt><trkpt lat="42.20882" lon="14.2142244"><ele>384.0</ele><time>2026-05-01T11:28:13.431Z</time></trkpt><trkpt lat="42.2088216" lon="14.2141351"><ele>384.0</ele><time>2026-05-01T11:28:14.432Z</time></trkpt><trkpt lat="42.2087868" lon="14.2139679"><ele>384.0</ele><time>2026-05-01T11:28:16.43Z</time></trkpt><trkpt lat="42.208758" lon="14.2138906"><ele>384.0</ele><time>2026-05-01T11:28:17.431Z</time></trkpt><trkpt lat="42.2087189" lon="14.2138222"><ele>384.0</ele><time>2026-05-01T11:28:18.431Z</time></trkpt><trkpt lat="42.2086179" lon="14.2137448"><ele>384.0</ele><time>2026-05-01T11:28:19.431Z</time></trkpt><trkpt lat="42.2085485" lon="14.2136747"><ele>383.0</ele><time>2026-05-01T11:28:20.431Z</time></trkpt><trkpt lat="42.2084695" lon="14.213593"><ele>382.0</ele><time>2026-05-01T11:28:21.431Z</time></trkpt><trkpt lat="42.2084109" lon="14.2135239"><ele>381.0</ele><time>2026-05-01T11:28:22.431Z</time></trkpt><trkpt lat="42.2083467" lon="14.2134303"><ele>380.0</ele><time>2026-05-01T11:28:23.431Z</time></trkpt><trkpt lat="42.2082831" lon="14.2133819"><ele>379.0</ele><time>2026-05-01T11:28:24.43Z</time></trkpt><trkpt lat="42.2082243" lon="14.21333"><ele>378.0</ele><time>2026-05-01T11:28:25.43Z</time></trkpt><trkpt lat="42.2081086" lon="14.2132939"><ele>380.1666666666667</ele><time>2026-05-01T11:28:27.431Z</time></trkpt><trkpt lat="42.2080339" lon="14.2132708"><ele>382.33333333333337</ele><time>2026-05-01T11:28:28.431Z</time></trkpt><trkpt lat="42.2079707" lon="14.2132487"><ele>384.5</ele><time>2026-05-01T11:28:29.432Z</time></trkpt><trkpt lat="42.2078916" lon="14.2132571"><ele>386.6666666666667</ele><time>2026-05-01T11:28:30.431Z</time></trkpt><trkpt lat="42.2078047" lon="14.2132892"><ele>388.83333333333337</ele><time>2026-05-01T11:28:31.431Z</time></trkpt><trkpt lat="42.20773" lon="14.2132776"><ele>391.0</ele><time>2026-05-01T11:28:32.43Z</time></trkpt><trkpt lat="42.2076493" lon="14.2131977"><ele>391.00000000000006</ele><time>2026-05-01T11:28:33.431Z</time></trkpt><trkpt lat="42.207569" lon="14.2131646"><ele>391.0</ele><time>2026-05-01T11:28:34.432Z</time></trkpt><trkpt lat="42.2074918" lon="14.2131618"><ele>391.0</ele><time>2026-05-01T11:28:35.431Z</time></trkpt><trkpt lat="42.2074188" lon="14.2131728"><ele>391.0</ele><time>2026-05-01T11:28:36.431Z</time></trkpt><trkpt lat="42.207351" lon="14.2131855"><ele>391.00000000000006</ele><time>2026-05-01T11:28:37.431Z</time></trkpt><trkpt lat="42.207271" lon="14.2132077"><ele>391.0</ele><time>2026-05-01T11:28:39.43Z</time></trkpt><trkpt lat="42.2071931" lon="14.2132667"><ele>393.20000000000005</ele><time>2026-05-01T11:28:41.431Z</time></trkpt><trkpt lat="42.2070956" lon="14.2133041"><ele>395.40000000000003</ele><time>2026-05-01T11:28:43.431Z</time></trkpt><trkpt lat="42.2069693" lon="14.2133138"><ele>397.6</ele><time>2026-05-01T11:28:45.431Z</time></trkpt><trkpt lat="42.2069046" lon="14.2133228"><ele>399.8</ele><time>2026-05-01T11:28:46.431Z</time></trkpt><trkpt lat="42.2068135" lon="14.2133328"><ele>402.0</ele><time>2026-05-01T11:28:47.431Z</time></trkpt><trkpt lat="42.2067029" lon="14.2133693"><ele>402.0</ele><time>2026-05-01T11:28:49.431Z</time></trkpt><trkpt lat="42.2066117" lon="14.2134199"><ele>402.0</ele><time>2026-05-01T11:28:51.431Z</time></trkpt><trkpt lat="42.2065058" lon="14.2134567"><ele>402.0</ele><time>2026-05-01T11:28:53.431Z</time></trkpt><trkpt lat="42.2064139" lon="14.2134621"><ele>402.0</ele><time>2026-05-01T11:28:54.43Z</time></trkpt><trkpt lat="42.2063015" lon="14.2134259"><ele>402.0</ele><time>2026-05-01T11:28:56.431Z</time></trkpt><trkpt lat="42.2061949" lon="14.2133974"><ele>403.1428571428571</ele><time>2026-05-01T11:28:58.431Z</time></trkpt><trkpt lat="42.2061302" lon="14.2133967"><ele>404.28571428571433</ele><time>2026-05-01T11:28:59.432Z</time></trkpt><trkpt lat="42.2060552" lon="14.213418"><ele>405.42857142857144</ele><time>2026-05-01T11:29:00.431Z</time></trkpt><trkpt lat="42.2059915" lon="14.2134282"><ele>406.57142857142856</ele><time>2026-05-01T11:29:01.431Z</time></trkpt><trkpt lat="42.2059287" lon="14.2134416"><ele>407.71428571428567</ele><time>2026-05-01T11:29:02.431Z</time></trkpt><trkpt lat="42.2058654" lon="14.2134491"><ele>408.8571428571429</ele><time>2026-05-01T11:29:03.431Z</time></trkpt><trkpt lat="42.2057973" lon="14.2134493"><ele>410.0</ele><time>2026-05-01T11:29:04.431Z</time></trkpt><trkpt lat="42.2057112" lon="14.2134386"><ele>411.0</ele><time>2026-05-01T11:29:05.431Z</time></trkpt><trkpt lat="42.2056451" lon="14.2134205"><ele>412.0</ele><time>2026-05-01T11:29:06.432Z</time></trkpt><trkpt lat="42.2055305" lon="14.2134134"><ele>413.0</ele><time>2026-05-01T11:29:08.431Z</time></trkpt><trkpt lat="42.2054015" lon="14.2134117"><ele>414.0</ele><time>2026-05-01T11:29:10.431Z</time></trkpt><trkpt lat="42.20533" lon="14.2134109"><ele>415.0</ele><time>2026-05-01T11:29:11.431Z</time></trkpt><trkpt lat="42.2052583" lon="14.213415"><ele>415.0</ele><time>2026-05-01T11:29:12.431Z</time></trkpt><trkpt lat="42.2051925" lon="14.2134045"><ele>415.0</ele><time>2026-05-01T11:29:13.432Z</time></trkpt><trkpt lat="42.2050709" lon="14.2134137"><ele>415.0</ele><time>2026-05-01T11:29:15.431Z</time></trkpt><trkpt lat="42.2049498" lon="14.2134039"><ele>415.0</ele><time>2026-05-01T11:29:17.432Z</time></trkpt><trkpt lat="42.2048369" lon="14.2134115"><ele>415.0</ele><time>2026-05-01T11:29:19.431Z</time></trkpt><trkpt lat="42.204738" lon="14.2134326"><ele>416.4</ele><time>2026-05-01T11:29:21.431Z</time></trkpt><trkpt lat="42.2046345" lon="14.2134868"><ele>417.8</ele><time>2026-05-01T11:29:23.432Z</time></trkpt><trkpt lat="42.2045525" lon="14.2135132"><ele>419.20000000000005</ele><time>2026-05-01T11:29:25.431Z</time></trkpt><trkpt lat="42.204456" lon="14.2135369"><ele>420.6</ele><time>2026-05-01T11:29:27.431Z</time></trkpt><trkpt lat="42.2043371" lon="14.2135496"><ele>422.0</ele><time>2026-05-01T11:29:29.431Z</time></trkpt><trkpt lat="42.2042364" lon="14.2135449"><ele>421.99999999999994</ele><time>2026-05-01T11:29:31.43Z</time></trkpt><trkpt lat="42.2041268" lon="14.2135478"><ele>422.0</ele><time>2026-05-01T11:29:33.431Z</time></trkpt><trkpt lat="42.2040625" lon="14.2135482"><ele>422.0</ele><time>2026-05-01T11:29:34.432Z</time></trkpt><trkpt lat="42.2039747" lon="14.2135389"><ele>422.0</ele><time>2026-05-01T11:29:35.432Z</time></trkpt><trkpt lat="42.2038898" lon="14.2135419"><ele>421.99999999999994</ele><time>2026-05-01T11:29:36.431Z</time></trkpt><trkpt lat="42.203805" lon="14.213552"><ele>422.0</ele><time>2026-05-01T11:29:37.431Z</time></trkpt><trkpt lat="42.2037208" lon="14.2135629"><ele>423.49999999999994</ele><time>2026-05-01T11:29:38.431Z</time></trkpt><trkpt lat="42.2036435" lon="14.2135772"><ele>425.0</ele><time>2026-05-01T11:29:39.431Z</time></trkpt><trkpt lat="42.2035757" lon="14.2135903"><ele>426.5</ele><time>2026-05-01T11:29:40.431Z</time></trkpt><trkpt lat="42.2035031" lon="14.21359"><ele>428.0</ele><time>2026-05-01T11:29:41.431Z</time></trkpt><trkpt lat="42.2033878" lon="14.2135728"><ele>429.49999999999994</ele><time>2026-05-01T11:29:43.431Z</time></trkpt><trkpt lat="42.2033236" lon="14.2135558"><ele>431.0</ele><time>2026-05-01T11:29:44.43Z</time></trkpt><trkpt lat="42.2032592" lon="14.2135513"><ele>432.8</ele><time>2026-05-01T11:29:45.43Z</time></trkpt><trkpt lat="42.20314" lon="14.2135471"><ele>434.6</ele><time>2026-05-01T11:29:47.431Z</time></trkpt><trkpt lat="42.2030171" lon="14.2135594"><ele>436.4</ele><time>2026-05-01T11:29:49.431Z</time></trkpt><trkpt lat="42.202923" lon="14.2135494"><ele>438.2</ele><time>2026-05-01T11:29:50.431Z</time></trkpt><trkpt lat="42.2028479" lon="14.2135468"><ele>440.0</ele><time>2026-05-01T11:29:51.431Z</time></trkpt><trkpt lat="42.2027595" lon="14.2135471"><ele>439.99999999999994</ele><time>2026-05-01T11:29:52.431Z</time></trkpt><trkpt lat="42.2026902" lon="14.2135332"><ele>440.0</ele><time>2026-05-01T11:29:53.431Z</time></trkpt><trkpt lat="42.2026221" lon="14.2135231"><ele>440.0</ele><time>2026-05-01T11:29:54.431Z</time></trkpt><trkpt lat="42.2025523" lon="14.2135126"><ele>440.0</ele><time>2026-05-01T11:29:55.431Z</time></trkpt><trkpt lat="42.2024849" lon="14.2134956"><ele>440.0</ele><time>2026-05-01T11:29:56.431Z</time></trkpt><trkpt lat="42.2024137" lon="14.2134915"><ele>439.99999999999994</ele><time>2026-05-01T11:29:57.431Z</time></trkpt><trkpt lat="42.2023493" lon="14.2134867"><ele>440.0</ele><time>2026-05-01T11:29:58.431Z</time></trkpt><trkpt lat="42.2022278" lon="14.2134746"><ele>443.5</ele><time>2026-05-01T11:30:00.431Z</time></trkpt><trkpt lat="42.2021104" lon="14.2134875"><ele>447.0</ele><time>2026-05-01T11:30:02.43Z</time></trkpt><trkpt lat="42.2019905" lon="14.2135105"><ele>450.5</ele><time>2026-05-01T11:30:04.43Z</time></trkpt><trkpt lat="42.2018813" lon="14.2135432"><ele>454.0</ele><time>2026-05-01T11:30:06.431Z</time></trkpt><trkpt lat="42.2017688" lon="14.2135927"><ele>454.0</ele><time>2026-05-01T11:30:08.43Z</time></trkpt><trkpt lat="42.2016959" lon="14.2135987"><ele>454.00000000000006</ele><time>2026-05-01T11:30:09.432Z</time></trkpt><trkpt lat="42.2016246" lon="14.2135962"><ele>454.0</ele><time>2026-05-01T11:30:10.431Z</time></trkpt><trkpt lat="42.2015512" lon="14.2135982"><ele>454.0</ele><time>2026-05-01T11:30:11.432Z</time></trkpt><trkpt lat="42.2014723" lon="14.2136103"><ele>454.00000000000006</ele><time>2026-05-01T11:30:12.431Z</time></trkpt><trkpt lat="42.2014024" lon="14.2136107"><ele>454.0</ele><time>2026-05-01T11:30:13.43Z</time></trkpt><trkpt lat="42.2013287" lon="14.2136008"><ele>454.0</ele><time>2026-05-01T11:30:14.43Z</time></trkpt><trkpt lat="42.2012374" lon="14.213607"><ele>456.0</ele><time>2026-05-01T11:30:15.431Z</time></trkpt><trkpt lat="42.2011432" lon="14.2135928"><ele>458.0</ele><time>2026-05-01T11:30:16.431Z</time></trkpt><trkpt lat="42.2010148" lon="14.2135587"><ele>460.0</ele><time>2026-05-01T11:30:17.431Z</time></trkpt><trkpt lat="42.2009258" lon="14.2135288"><ele>462.0</ele><time>2026-05-01T11:30:18.431Z</time></trkpt><trkpt lat="42.2008499" lon="14.2135134"><ele>464.0</ele><time>2026-05-01T11:30:19.431Z</time></trkpt><trkpt lat="42.2007657" lon="14.2134835"><ele>463.99999999999994</ele><time>2026-05-01T11:30:20.431Z</time></trkpt><trkpt lat="42.200696" lon="14.2134784"><ele>464.0</ele><time>2026-05-01T11:30:21.431Z</time></trkpt><trkpt lat="42.2006095" lon="14.2134538"><ele>464.0</ele><time>2026-05-01T11:30:22.431Z</time></trkpt><trkpt lat="42.2005202" lon="14.2134462"><ele>464.0</ele><time>2026-05-01T11:30:23.431Z</time></trkpt><trkpt lat="42.2004407" lon="14.2134364"><ele>463.99999999999994</ele><time>2026-05-01T11:30:24.431Z</time></trkpt><trkpt lat="42.2003406" lon="14.2134176"><ele>464.0</ele><time>2026-05-01T11:30:25.432Z</time></trkpt><trkpt lat="42.2002534" lon="14.2134037"><ele>463.8333333333333</ele><time>2026-05-01T11:30:26.431Z</time></trkpt><trkpt lat="42.2001901" lon="14.2133988"><ele>463.66666666666663</ele><time>2026-05-01T11:30:27.431Z</time></trkpt><trkpt lat="42.2001217" lon="14.2134008"><ele>463.5</ele><time>2026-05-01T11:30:28.432Z</time></trkpt><trkpt lat="42.200036" lon="14.2134213"><ele>463.33333333333337</ele><time>2026-05-01T11:30:29.431Z</time></trkpt><trkpt lat="42.1999518" lon="14.2134409"><ele>463.1666666666667</ele><time>2026-05-01T11:30:30.431Z</time></trkpt><trkpt lat="42.199871" lon="14.2134547"><ele>463.0</ele><time>2026-05-01T11:30:31.431Z</time></trkpt><trkpt lat="42.1998013" lon="14.2135527"><ele>460.50000000000006</ele><time>2026-05-01T11:30:32.431Z</time></trkpt><trkpt lat="42.199747" lon="14.2136117"><ele>458.0</ele><time>2026-05-01T11:30:33.43Z</time></trkpt><trkpt lat="42.1996807" lon="14.213673"><ele>455.5</ele><time>2026-05-01T11:30:34.431Z</time></trkpt><trkpt lat="42.1996148" lon="14.2137473"><ele>453.0</ele><time>2026-05-01T11:30:35.43Z</time></trkpt><trkpt lat="42.1995614" lon="14.2138227"><ele>450.50000000000006</ele><time>2026-05-01T11:30:36.43Z</time></trkpt><trkpt lat="42.1994991" lon="14.2138721"><ele>448.0</ele><time>2026-05-01T11:30:37.431Z</time></trkpt><trkpt lat="42.1994333" lon="14.2139209"><ele>448.00000000000006</ele><time>2026-05-01T11:30:38.431Z</time></trkpt><trkpt lat="42.1993278" lon="14.2139755"><ele>448.0</ele><time>2026-05-01T11:30:40.432Z</time></trkpt><trkpt lat="42.1992586" lon="14.2140081"><ele>448.0</ele><time>2026-05-01T11:30:41.431Z</time></trkpt><trkpt lat="42.1991801" lon="14.2140605"><ele>448.0</ele><time>2026-05-01T11:30:42.431Z</time></trkpt><trkpt lat="42.1991211" lon="14.2141274"><ele>448.00000000000006</ele><time>2026-05-01T11:30:43.431Z</time></trkpt><trkpt lat="42.1990613" lon="14.2141919"><ele>448.0</ele><time>2026-05-01T11:30:44.431Z</time></trkpt><trkpt lat="42.1990016" lon="14.2142627"><ele>448.83333333333337</ele><time>2026-05-01T11:30:45.431Z</time></trkpt><trkpt lat="42.1989531" lon="14.2143274"><ele>449.6666666666667</ele><time>2026-05-01T11:30:46.431Z</time></trkpt><trkpt lat="42.1988964" lon="14.2144068"><ele>450.5</ele><time>2026-05-01T11:30:47.431Z</time></trkpt><trkpt lat="42.1988324" lon="14.2144814"><ele>451.33333333333337</ele><time>2026-05-01T11:30:48.431Z</time></trkpt><trkpt lat="42.1987946" lon="14.2145512"><ele>452.1666666666667</ele><time>2026-05-01T11:30:49.431Z</time></trkpt><trkpt lat="42.1987457" lon="14.2146185"><ele>453.0</ele><time>2026-05-01T11:30:50.431Z</time></trkpt><trkpt lat="42.1986939" lon="14.2147076"><ele>453.0</ele><time>2026-05-01T11:30:51.432Z</time></trkpt><trkpt lat="42.1985954" lon="14.2148093"><ele>452.99999999999994</ele><time>2026-05-01T11:30:53.43Z</time></trkpt><trkpt lat="42.1985108" lon="14.2149416"><ele>452.99999999999994</ele><time>2026-05-01T11:30:55.43Z</time></trkpt><trkpt lat="42.1984691" lon="14.2150247"><ele>453.0</ele><time>2026-05-01T11:30:56.431Z</time></trkpt><trkpt lat="42.1983712" lon="14.2151182"><ele>453.0</ele><time>2026-05-01T11:30:58.43Z</time></trkpt><trkpt lat="42.198267" lon="14.215161"><ele>453.5</ele><time>2026-05-01T11:31:00.431Z</time></trkpt><trkpt lat="42.1981807" lon="14.2152368"><ele>454.0</ele><time>2026-05-01T11:31:02.43Z</time></trkpt><trkpt lat="42.1981177" lon="14.215318"><ele>454.5</ele><time>2026-05-01T11:31:32.43Z</time></trkpt><trkpt lat="42.1980542" lon="14.2154206"><ele>455.0</ele><time>2026-05-01T11:31:35.43Z</time></trkpt><trkpt lat="42.1980219" lon="14.2155127"><ele>455.5</ele><time>2026-05-01T11:31:48.43Z</time></trkpt><trkpt lat="42.1980075" lon="14.2156099"><ele>456.0</ele><time>2026-05-01T11:31:59.43Z</time></trkpt><trkpt lat="42.1980303" lon="14.2157145"><ele>459.3333333333333</ele><time>2026-05-01T11:33:46.428Z</time></trkpt><trkpt lat="42.198016" lon="14.2158165"><ele>462.66666666666663</ele><time>2026-05-01T11:33:48.43Z</time></trkpt><trkpt lat="42.1979801" lon="14.2158912"><ele>466.0</ele><time>2026-05-01T11:33:50.428Z</time></trkpt><trkpt lat="42.1979601" lon="14.2159729"><ele>469.3333333333333</ele><time>2026-05-01T11:33:53.429Z</time></trkpt><trkpt lat="42.1979013" lon="14.2160457"><ele>472.66666666666663</ele><time>2026-05-01T11:33:56.429Z</time></trkpt><trkpt lat="42.1978202" lon="14.2161425"><ele>476.0</ele><time>2026-05-01T11:33:58.429Z</time></trkpt><trkpt lat="42.1977337" lon="14.21628"><ele>475.99999999999994</ele><time>2026-05-01T11:34:00.429Z</time></trkpt><trkpt lat="42.1976749" lon="14.216373"><ele>476.0</ele><time>2026-05-01T11:34:01.429Z</time></trkpt><trkpt lat="42.1976116" lon="14.2164532"><ele>476.0</ele><time>2026-05-01T11:34:02.429Z</time></trkpt><trkpt lat="42.1975443" lon="14.2165267"><ele>476.0</ele><time>2026-05-01T11:34:03.429Z</time></trkpt><trkpt lat="42.1975268" lon="14.2166407"><ele>475.99999999999994</ele><time>2026-05-01T11:34:05.429Z</time></trkpt><trkpt lat="42.1975181" lon="14.2167322"><ele>476.0</ele><time>2026-05-01T11:34:06.429Z</time></trkpt><trkpt lat="42.1974972" lon="14.2168186"><ele>479.6</ele><time>2026-05-01T11:34:07.429Z</time></trkpt><trkpt lat="42.1974534" lon="14.2169289"><ele>483.20000000000005</ele><time>2026-05-01T11:34:09.429Z</time></trkpt><trkpt lat="42.1974062" lon="14.2170144"><ele>486.79999999999995</ele><time>2026-05-01T11:34:42.429Z</time></trkpt><trkpt lat="42.1972867" lon="14.2170544"><ele>490.4</ele><time>2026-05-01T11:34:44.429Z</time></trkpt><trkpt lat="42.1972016" lon="14.2170743"><ele>494.0</ele><time>2026-05-01T11:34:45.429Z</time></trkpt><trkpt lat="42.1970999" lon="14.2171028"><ele>494.0</ele><time>2026-05-01T11:34:46.429Z</time></trkpt><trkpt lat="42.1970019" lon="14.21713"><ele>494.0</ele><time>2026-05-01T11:34:47.43Z</time></trkpt><trkpt lat="42.1968977" lon="14.2171654"><ele>494.0</ele><time>2026-05-01T11:34:48.429Z</time></trkpt><trkpt lat="42.1967573" lon="14.2172094"><ele>494.0</ele><time>2026-05-01T11:34:49.428Z</time></trkpt><trkpt lat="42.1966281" lon="14.2172452"><ele>494.0</ele><time>2026-05-01T11:34:50.429Z</time></trkpt><trkpt lat="42.1965166" lon="14.2172842"><ele>494.0</ele><time>2026-05-01T11:34:51.429Z</time></trkpt><trkpt lat="42.1964218" lon="14.2173139"><ele>494.0</ele><time>2026-05-01T11:34:52.429Z</time></trkpt><trkpt lat="42.1963369" lon="14.2173415"><ele>494.0</ele><time>2026-05-01T11:34:53.429Z</time></trkpt><trkpt lat="42.1962465" lon="14.2173711"><ele>494.0</ele><time>2026-05-01T11:34:54.429Z</time></trkpt><trkpt lat="42.1961517" lon="14.217401"><ele>496.66666666666663</ele><time>2026-05-01T11:34:55.429Z</time></trkpt><trkpt lat="42.1960656" lon="14.2174235"><ele>499.3333333333333</ele><time>2026-05-01T11:34:56.429Z</time></trkpt><trkpt lat="42.1959933" lon="14.2174443"><ele>502.0</ele><time>2026-05-01T11:34:57.43Z</time></trkpt><trkpt lat="42.195918" lon="14.2174755"><ele>504.66666666666663</ele><time>2026-05-01T11:34:58.429Z</time></trkpt><trkpt lat="42.1958382" lon="14.217505"><ele>507.3333333333333</ele><time>2026-05-01T11:34:59.429Z</time></trkpt><trkpt lat="42.1957543" lon="14.2175338"><ele>510.0</ele><time>2026-05-01T11:35:00.429Z</time></trkpt><trkpt lat="42.1956872" lon="14.2175492"><ele>510.8</ele><time>2026-05-01T11:35:01.429Z</time></trkpt><trkpt lat="42.1956187" lon="14.217569"><ele>511.6</ele><time>2026-05-01T11:35:02.429Z</time></trkpt><trkpt lat="42.1955359" lon="14.2176009"><ele>512.4</ele><time>2026-05-01T11:35:03.43Z</time></trkpt><trkpt lat="42.1954496" lon="14.217656"><ele>513.2</ele><time>2026-05-01T11:35:04.429Z</time></trkpt><trkpt lat="42.1953515" lon="14.217748"><ele>514.0</ele><time>2026-05-01T11:35:05.429Z</time></trkpt><trkpt lat="42.1952485" lon="14.217851"><ele>514.0</ele><time>2026-05-01T11:35:06.428Z</time></trkpt><trkpt lat="42.1951697" lon="14.2179452"><ele>514.0</ele><time>2026-05-01T11:35:07.429Z</time></trkpt><trkpt lat="42.1951067" lon="14.2180231"><ele>514.0</ele><time>2026-05-01T11:35:08.429Z</time></trkpt><trkpt lat="42.1950473" lon="14.2180798"><ele>514.0</ele><time>2026-05-01T11:35:09.429Z</time></trkpt><trkpt lat="42.1949976" lon="14.2181332"><ele>514.0</ele><time>2026-05-01T11:35:10.428Z</time></trkpt><trkpt lat="42.1949436" lon="14.2181878"><ele>514.0</ele><time>2026-05-01T11:35:11.428Z</time></trkpt><trkpt lat="42.1949077" lon="14.2183093"><ele>515.0</ele><time>2026-05-01T11:35:13.43Z</time></trkpt><trkpt lat="42.1949045" lon="14.2184163"><ele>516.0</ele><time>2026-05-01T11:35:15.429Z</time></trkpt><trkpt lat="42.1948677" lon="14.2185558"><ele>517.0</ele><time>2026-05-01T11:35:17.428Z</time></trkpt><trkpt lat="42.1948169" lon="14.2187161"><ele>518.0</ele><time>2026-05-01T11:35:19.429Z</time></trkpt><trkpt lat="42.1948175" lon="14.2188086"><ele>519.0</ele><time>2026-05-01T11:35:20.429Z</time></trkpt><trkpt lat="42.1948307" lon="14.2189479"><ele>519.4</ele><time>2026-05-01T11:35:22.429Z</time></trkpt><trkpt lat="42.1948387" lon="14.2190347"><ele>519.8</ele><time>2026-05-01T11:35:23.429Z</time></trkpt><trkpt lat="42.1948461" lon="14.2191276"><ele>520.2</ele><time>2026-05-01T11:35:24.429Z</time></trkpt><trkpt lat="42.1948603" lon="14.2192851"><ele>520.6</ele><time>2026-05-01T11:35:26.429Z</time></trkpt><trkpt lat="42.1948733" lon="14.2194263"><ele>521.0</ele><time>2026-05-01T11:35:28.429Z</time></trkpt><trkpt lat="42.1948909" lon="14.2195888"><ele>521.0</ele><time>2026-05-01T11:35:30.428Z</time></trkpt><trkpt lat="42.1949" lon="14.2197499"><ele>521.0</ele><time>2026-05-01T11:35:32.429Z</time></trkpt><trkpt lat="42.1949098" lon="14.2199211"><ele>521.0</ele><time>2026-05-01T11:35:34.429Z</time></trkpt><trkpt lat="42.1949213" lon="14.2200048"><ele>521.0</ele><time>2026-05-01T11:35:35.428Z</time></trkpt><trkpt lat="42.1949254" lon="14.2200925"><ele>521.0</ele><time>2026-05-01T11:35:36.43Z</time></trkpt><trkpt lat="42.1949178" lon="14.2202574"><ele>521.4285714285714</ele><time>2026-05-01T11:35:38.428Z</time></trkpt><trkpt lat="42.1948983" lon="14.2203437"><ele>521.8571428571429</ele><time>2026-05-01T11:35:39.43Z</time></trkpt><trkpt lat="42.194857" lon="14.2204226"><ele>522.2857142857143</ele><time>2026-05-01T11:35:40.429Z</time></trkpt><trkpt lat="42.1948057" lon="14.2204802"><ele>522.7142857142858</ele><time>2026-05-01T11:35:41.429Z</time></trkpt><trkpt lat="42.1947372" lon="14.220508"><ele>523.1428571428572</ele><time>2026-05-01T11:35:42.428Z</time></trkpt><trkpt lat="42.1946653" lon="14.2204959"><ele>523.5714285714286</ele><time>2026-05-01T11:35:43.429Z</time></trkpt><trkpt lat="42.1945996" lon="14.220457"><ele>524.0</ele><time>2026-05-01T11:35:44.429Z</time></trkpt><trkpt lat="42.1945573" lon="14.2203809"><ele>525.1428571428571</ele><time>2026-05-01T11:35:45.429Z</time></trkpt><trkpt lat="42.1945289" lon="14.2202957"><ele>526.2857142857143</ele><time>2026-05-01T11:35:46.429Z</time></trkpt><trkpt lat="42.1945006" lon="14.220208"><ele>527.4285714285714</ele><time>2026-05-01T11:35:47.429Z</time></trkpt><trkpt lat="42.1944727" lon="14.2201157"><ele>528.5714285714286</ele><time>2026-05-01T11:35:48.429Z</time></trkpt><trkpt lat="42.1944419" lon="14.2200245"><ele>529.7142857142858</ele><time>2026-05-01T11:35:49.428Z</time></trkpt><trkpt lat="42.1943989" lon="14.2199377"><ele>530.8571428571429</ele><time>2026-05-01T11:35:50.429Z</time></trkpt><trkpt lat="42.194351" lon="14.2198552"><ele>532.0</ele><time>2026-05-01T11:35:51.429Z</time></trkpt><trkpt lat="42.1942885" lon="14.2197792"><ele>532.0</ele><time>2026-05-01T11:35:52.429Z</time></trkpt><trkpt lat="42.1942173" lon="14.2197072"><ele>532.0</ele><time>2026-05-01T11:35:53.43Z</time></trkpt><trkpt lat="42.1941314" lon="14.2196353"><ele>532.0</ele><time>2026-05-01T11:35:54.429Z</time></trkpt><trkpt lat="42.1940467" lon="14.2195695"><ele>532.0</ele><time>2026-05-01T11:35:55.429Z</time></trkpt><trkpt lat="42.193963" lon="14.2195126"><ele>532.0</ele><time>2026-05-01T11:35:56.428Z</time></trkpt><trkpt lat="42.193876" lon="14.2194533"><ele>533.8000000000001</ele><time>2026-05-01T11:35:57.428Z</time></trkpt><trkpt lat="42.1937883" lon="14.2193982"><ele>535.6</ele><time>2026-05-01T11:35:58.429Z</time></trkpt><trkpt lat="42.1936989" lon="14.2193396"><ele>537.4000000000001</ele><time>2026-05-01T11:35:59.43Z</time></trkpt><trkpt lat="42.1936137" lon="14.2192877"><ele>539.2</ele><time>2026-05-01T11:36:00.43Z</time></trkpt><trkpt lat="42.1935349" lon="14.2192419"><ele>541.0</ele><time>2026-05-01T11:36:01.428Z</time></trkpt><trkpt lat="42.1934628" lon="14.2192006"><ele>541.0</ele><time>2026-05-01T11:36:02.429Z</time></trkpt><trkpt lat="42.1933837" lon="14.2191936"><ele>541.0</ele><time>2026-05-01T11:36:03.43Z</time></trkpt><trkpt lat="42.193295" lon="14.2192"><ele>541.0</ele><time>2026-05-01T11:36:04.429Z</time></trkpt><trkpt lat="42.1932076" lon="14.2192287"><ele>541.0</ele><time>2026-05-01T11:36:05.429Z</time></trkpt><trkpt lat="42.1931232" lon="14.2192857"><ele>541.0</ele><time>2026-05-01T11:36:06.429Z</time></trkpt><trkpt lat="42.1930535" lon="14.2193754"><ele>541.0</ele><time>2026-05-01T11:36:07.429Z</time></trkpt><trkpt lat="42.1929977" lon="14.2194604"><ele>540.5</ele><time>2026-05-01T11:36:08.428Z</time></trkpt><trkpt lat="42.1929603" lon="14.219545"><ele>540.0</ele><time>2026-05-01T11:36:09.43Z</time></trkpt><trkpt lat="42.1929471" lon="14.2196433"><ele>539.5</ele><time>2026-05-01T11:36:10.43Z</time></trkpt><trkpt lat="42.1929562" lon="14.2197392"><ele>539.0</ele><time>2026-05-01T11:36:11.43Z</time></trkpt><trkpt lat="42.1929949" lon="14.219841"><ele>538.5</ele><time>2026-05-01T11:36:12.429Z</time></trkpt><trkpt lat="42.1930416" lon="14.2199402"><ele>538.0</ele><time>2026-05-01T11:36:13.429Z</time></trkpt><trkpt lat="42.193132" lon="14.219996"><ele>540.4</ele><time>2026-05-01T11:36:14.429Z</time></trkpt><trkpt lat="42.1932309" lon="14.2200516"><ele>542.8</ele><time>2026-05-01T11:36:15.429Z</time></trkpt><trkpt lat="42.1933318" lon="14.2201064"><ele>545.2</ele><time>2026-05-01T11:36:16.429Z</time></trkpt><trkpt lat="42.1934262" lon="14.2201633"><ele>547.6</ele><time>2026-05-01T11:36:17.429Z</time></trkpt><trkpt lat="42.1935294" lon="14.2202176"><ele>550.0</ele><time>2026-05-01T11:36:18.428Z</time></trkpt><trkpt lat="42.1936161" lon="14.2202663"><ele>550.0</ele><time>2026-05-01T11:36:19.429Z</time></trkpt><trkpt lat="42.1936946" lon="14.2203167"><ele>550.0</ele><time>2026-05-01T11:36:20.429Z</time></trkpt><trkpt lat="42.1937602" lon="14.2203755"><ele>550.0</ele><time>2026-05-01T11:36:21.428Z</time></trkpt><trkpt lat="42.1938104" lon="14.2204968"><ele>550.0</ele><time>2026-05-01T11:36:23.428Z</time></trkpt><trkpt lat="42.1937506" lon="14.2206017"><ele>550.0</ele><time>2026-05-01T11:36:25.427Z</time></trkpt><trkpt lat="42.1936272" lon="14.2205837"><ele>550.0</ele><time>2026-05-01T11:36:27.428Z</time></trkpt><trkpt lat="42.1935605" lon="14.2205597"><ele>550.0</ele><time>2026-05-01T11:36:28.429Z</time></trkpt><trkpt lat="42.1935008" lon="14.2205327"><ele>550.0</ele><time>2026-05-01T11:36:29.429Z</time></trkpt><trkpt lat="42.1934178" lon="14.220509"><ele>550.0</ele><time>2026-05-01T11:36:31.428Z</time></trkpt><trkpt lat="42.1933513" lon="14.2205514"><ele>550.0</ele><time>2026-05-01T11:36:34.427Z</time></trkpt><trkpt lat="42.1933254" lon="14.2206362"><ele>550.0</ele><time>2026-05-01T11:36:45.428Z</time></trkpt><trkpt lat="42.1932398" lon="14.2206635"><ele>550.0</ele><time>2026-05-01T11:36:48.428Z</time></trkpt><trkpt lat="42.1931775" lon="14.2206478"><ele>550.0</ele><time>2026-05-01T11:36:49.428Z</time></trkpt><trkpt lat="42.1931186" lon="14.220613"><ele>550.0</ele><time>2026-05-01T11:36:51.428Z</time></trkpt><trkpt lat="42.1930502" lon="14.2205512"><ele>550.0</ele><time>2026-05-01T11:36:54.428Z</time></trkpt><trkpt lat="42.1929878" lon="14.2205988"><ele>550.0</ele><time>2026-05-01T11:36:59.428Z</time></trkpt><trkpt lat="42.1930872" lon="14.22058"><ele>550.0</ele><time>2026-05-01T11:37:01.428Z</time></trkpt><trkpt lat="42.1931496" lon="14.2206062"><ele>550.0</ele><time>2026-05-01T11:37:02.428Z</time></trkpt><trkpt lat="42.1932277" lon="14.2206401"><ele>551.2</ele><time>2026-05-01T11:37:04.427Z</time></trkpt><trkpt lat="42.1933107" lon="14.2206691"><ele>552.4</ele><time>2026-05-01T11:37:07.428Z</time></trkpt><trkpt lat="42.1933065" lon="14.2208051"><ele>553.6</ele><time>2026-05-01T11:37:09.427Z</time></trkpt><trkpt lat="42.1932896" lon="14.2208922"><ele>554.8</ele><time>2026-05-01T11:37:10.427Z</time></trkpt><trkpt lat="42.1932435" lon="14.2209789"><ele>556.0</ele><time>2026-05-01T11:37:12.427Z</time></trkpt><trkpt lat="42.1930379" lon="14.2209447"><ele>558.3333333333334</ele><time>2026-05-01T11:37:15.427Z</time></trkpt><trkpt lat="42.1929559" lon="14.2209279"><ele>560.6666666666667</ele><time>2026-05-01T11:37:16.428Z</time></trkpt><trkpt lat="42.192875" lon="14.2209142"><ele>563.0</ele><time>2026-05-01T11:37:17.428Z</time></trkpt><trkpt lat="42.1927929" lon="14.2209099"><ele>565.3333333333334</ele><time>2026-05-01T11:37:18.428Z</time></trkpt><trkpt lat="42.1927195" lon="14.2208818"><ele>567.6666666666666</ele><time>2026-05-01T11:37:19.429Z</time></trkpt><trkpt lat="42.1926046" lon="14.2208858"><ele>570.0</ele><time>2026-05-01T11:37:21.427Z</time></trkpt><trkpt lat="42.1925198" lon="14.2208823"><ele>570.0</ele><time>2026-05-01T11:37:23.428Z</time></trkpt><trkpt lat="42.1924495" lon="14.2208737"><ele>570.0</ele><time>2026-05-01T11:37:30.427Z</time></trkpt><trkpt lat="42.1923881" lon="14.2208346"><ele>570.0</ele><time>2026-05-01T11:37:36.428Z</time></trkpt><trkpt lat="42.1922695" lon="14.2207474"><ele>570.0</ele><time>2026-05-01T11:37:38.428Z</time></trkpt><trkpt lat="42.1921796" lon="14.2207336"><ele>570.0</ele><time>2026-05-01T11:37:39.427Z</time></trkpt><trkpt lat="42.1921053" lon="14.2207048"><ele>570.0</ele><time>2026-05-01T11:37:40.427Z</time></trkpt><trkpt lat="42.1920278" lon="14.2206704"><ele>570.8</ele><time>2026-05-01T11:37:41.428Z</time></trkpt><trkpt lat="42.1919433" lon="14.2206559"><ele>571.6</ele><time>2026-05-01T11:37:42.428Z</time></trkpt><trkpt lat="42.1917871" lon="14.2206259"><ele>572.4</ele><time>2026-05-01T11:37:44.428Z</time></trkpt><trkpt lat="42.1917139" lon="14.2206091"><ele>573.2</ele><time>2026-05-01T11:37:45.428Z</time></trkpt><trkpt lat="42.1916413" lon="14.2206582"><ele>574.0</ele><time>2026-05-01T11:37:46.428Z</time></trkpt><trkpt lat="42.1915829" lon="14.2206153"><ele>566.0</ele><time>2026-05-01T11:37:47.428Z</time></trkpt><trkpt lat="42.1914495" lon="14.2206196"><ele>568.0</ele><time>2026-05-01T11:37:49.427Z</time></trkpt><trkpt lat="42.1913438" lon="14.2205772"><ele>568.0</ele><time>2026-05-01T11:37:51.427Z</time></trkpt><trkpt lat="42.1912793" lon="14.2205434"><ele>568.0</ele><time>2026-05-01T11:37:53.429Z</time></trkpt></trkseg></trk></gpx>